<?xml version="1.0" encoding="UTF-8" standalone="no" ?>
<gpx xmlns="http://www.topografix.com/GPX/1/1" xmlns:xsi="http://www.w3.org/2001/XMLSchema-instance" xsi:schemaLocation="http://www.topografix.com/GPX/1/1 http://www.topografix.com/GPX/1/1/gpx.xsd" version="1.1" creator="VisuGPX - https://www.visugpx.com">
  <metadata>
    <name>CARCASSONNE le 30.06.2019 - ACFC</name>
    <desc><![CDATA[Départ et arrivée à CARCASSONNE intramuros, avec un passage en fin de parcours à la cité. Sympathique trail sans difficulté qui passe également sur la commune de PALAJA. Peut se faire également  en randonnée]]></desc>
  </metadata>
  <trk>
    <name><![CDATA[TrailRunning]]></name>
    <trkseg>
      <trkpt lat="43.2104" lon="2.36051">
        <ele>103.6</ele>
        <time>2019-06-30T06:03:16.000Z</time>
      </trkpt>
      <trkpt lat="43.21039" lon="2.36051">
        <ele>103.6</ele>
        <time>2019-06-30T06:03:17.000Z</time>
      </trkpt>
      <trkpt lat="43.21038" lon="2.36051">
        <ele>103.6</ele>
        <time>2019-06-30T06:03:18.000Z</time>
      </trkpt>
      <trkpt lat="43.21038" lon="2.3605">
        <ele>103.6</ele>
        <time>2019-06-30T06:03:19.000Z</time>
      </trkpt>
      <trkpt lat="43.21037" lon="2.3605">
        <ele>103.6</ele>
        <time>2019-06-30T06:03:20.000Z</time>
      </trkpt>
      <trkpt lat="43.21037" lon="2.3605">
        <ele>103.6</ele>
        <time>2019-06-30T06:03:21.000Z</time>
      </trkpt>
      <trkpt lat="43.21037" lon="2.3605">
        <ele>103.6</ele>
        <time>2019-06-30T06:03:22.000Z</time>
      </trkpt>
      <trkpt lat="43.21037" lon="2.36051">
        <ele>103.6</ele>
        <time>2019-06-30T06:03:23.000Z</time>
      </trkpt>
      <trkpt lat="43.21036" lon="2.36051">
        <ele>103.6</ele>
        <time>2019-06-30T06:03:24.000Z</time>
      </trkpt>
      <trkpt lat="43.21036" lon="2.36051">
        <ele>103.6</ele>
        <time>2019-06-30T06:03:25.000Z</time>
      </trkpt>
      <trkpt lat="43.21035" lon="2.36052">
        <ele>103.7</ele>
        <time>2019-06-30T06:03:26.000Z</time>
      </trkpt>
      <trkpt lat="43.21034" lon="2.36052">
        <ele>103.7</ele>
        <time>2019-06-30T06:03:27.000Z</time>
      </trkpt>
      <trkpt lat="43.21034" lon="2.36053">
        <ele>103.7</ele>
        <time>2019-06-30T06:03:28.000Z</time>
      </trkpt>
      <trkpt lat="43.21032" lon="2.36054">
        <ele>103.8</ele>
        <time>2019-06-30T06:03:29.000Z</time>
      </trkpt>
      <trkpt lat="43.21031" lon="2.36055">
        <ele>103.8</ele>
        <time>2019-06-30T06:03:30.000Z</time>
      </trkpt>
      <trkpt lat="43.2103" lon="2.36056">
        <ele>103.9</ele>
        <time>2019-06-30T06:03:31.000Z</time>
      </trkpt>
      <trkpt lat="43.21028" lon="2.36058">
        <ele>103.9</ele>
        <time>2019-06-30T06:03:32.000Z</time>
      </trkpt>
      <trkpt lat="43.21025" lon="2.36059">
        <ele>104</ele>
        <time>2019-06-30T06:03:33.000Z</time>
      </trkpt>
      <trkpt lat="43.21023" lon="2.36061">
        <ele>104.1</ele>
        <time>2019-06-30T06:03:34.000Z</time>
      </trkpt>
      <trkpt lat="43.21021" lon="2.36063">
        <ele>104.2</ele>
        <time>2019-06-30T06:03:35.000Z</time>
      </trkpt>
      <trkpt lat="43.21018" lon="2.36064">
        <ele>104.3</ele>
        <time>2019-06-30T06:03:36.000Z</time>
      </trkpt>
      <trkpt lat="43.21016" lon="2.36066">
        <ele>104.3</ele>
        <time>2019-06-30T06:03:37.000Z</time>
      </trkpt>
      <trkpt lat="43.21014" lon="2.36067">
        <ele>104.4</ele>
        <time>2019-06-30T06:03:38.000Z</time>
      </trkpt>
      <trkpt lat="43.21011" lon="2.36069">
        <ele>104.5</ele>
        <time>2019-06-30T06:03:39.000Z</time>
      </trkpt>
      <trkpt lat="43.21009" lon="2.3607">
        <ele>104.5</ele>
        <time>2019-06-30T06:03:40.000Z</time>
      </trkpt>
      <trkpt lat="43.21008" lon="2.36071">
        <ele>104.6</ele>
        <time>2019-06-30T06:03:41.000Z</time>
      </trkpt>
      <trkpt lat="43.21006" lon="2.36072">
        <ele>104.6</ele>
        <time>2019-06-30T06:03:42.000Z</time>
      </trkpt>
      <trkpt lat="43.21004" lon="2.36073">
        <ele>104.7</ele>
        <time>2019-06-30T06:03:43.000Z</time>
      </trkpt>
      <trkpt lat="43.21003" lon="2.36075">
        <ele>104.7</ele>
        <time>2019-06-30T06:03:44.000Z</time>
      </trkpt>
      <trkpt lat="43.21002" lon="2.36076">
        <ele>104.8</ele>
        <time>2019-06-30T06:03:45.000Z</time>
      </trkpt>
      <trkpt lat="43.21" lon="2.36078">
        <ele>104.9</ele>
        <time>2019-06-30T06:03:46.000Z</time>
      </trkpt>
      <trkpt lat="43.20999" lon="2.3608">
        <ele>104.9</ele>
        <time>2019-06-30T06:03:47.000Z</time>
      </trkpt>
      <trkpt lat="43.20998" lon="2.36082">
        <ele>105</ele>
        <time>2019-06-30T06:03:48.000Z</time>
      </trkpt>
      <trkpt lat="43.20997" lon="2.36084">
        <ele>105.1</ele>
        <time>2019-06-30T06:03:49.000Z</time>
      </trkpt>
      <trkpt lat="43.20996" lon="2.36087">
        <ele>105.1</ele>
        <time>2019-06-30T06:03:50.000Z</time>
      </trkpt>
      <trkpt lat="43.20995" lon="2.36089">
        <ele>105.2</ele>
        <time>2019-06-30T06:03:51.000Z</time>
      </trkpt>
      <trkpt lat="43.20994" lon="2.36092">
        <ele>105.3</ele>
        <time>2019-06-30T06:03:52.000Z</time>
      </trkpt>
      <trkpt lat="43.20993" lon="2.36094">
        <ele>105.3</ele>
        <time>2019-06-30T06:03:53.000Z</time>
      </trkpt>
      <trkpt lat="43.20992" lon="2.36097">
        <ele>105.4</ele>
        <time>2019-06-30T06:03:54.000Z</time>
      </trkpt>
      <trkpt lat="43.20991" lon="2.36099">
        <ele>105.5</ele>
        <time>2019-06-30T06:03:55.000Z</time>
      </trkpt>
      <trkpt lat="43.2099" lon="2.36101">
        <ele>105.5</ele>
        <time>2019-06-30T06:03:56.000Z</time>
      </trkpt>
      <trkpt lat="43.20989" lon="2.36104">
        <ele>105.6</ele>
        <time>2019-06-30T06:03:57.000Z</time>
      </trkpt>
      <trkpt lat="43.20988" lon="2.36106">
        <ele>105.7</ele>
        <time>2019-06-30T06:03:58.000Z</time>
      </trkpt>
      <trkpt lat="43.20986" lon="2.36108">
        <ele>105.7</ele>
        <time>2019-06-30T06:03:59.000Z</time>
      </trkpt>
      <trkpt lat="43.20985" lon="2.3611">
        <ele>105.8</ele>
        <time>2019-06-30T06:04:00.000Z</time>
      </trkpt>
      <trkpt lat="43.20984" lon="2.36112">
        <ele>105.8</ele>
        <time>2019-06-30T06:04:01.000Z</time>
      </trkpt>
      <trkpt lat="43.20982" lon="2.36113">
        <ele>105.9</ele>
        <time>2019-06-30T06:04:02.000Z</time>
      </trkpt>
      <trkpt lat="43.20981" lon="2.36115">
        <ele>105.9</ele>
        <time>2019-06-30T06:04:03.000Z</time>
      </trkpt>
      <trkpt lat="43.20979" lon="2.36116">
        <ele>105.9</ele>
        <time>2019-06-30T06:04:04.000Z</time>
      </trkpt>
      <trkpt lat="43.20978" lon="2.36118">
        <ele>106</ele>
        <time>2019-06-30T06:04:05.000Z</time>
      </trkpt>
      <trkpt lat="43.20976" lon="2.3612">
        <ele>106</ele>
        <time>2019-06-30T06:04:06.000Z</time>
      </trkpt>
      <trkpt lat="43.20974" lon="2.36121">
        <ele>106.1</ele>
        <time>2019-06-30T06:04:07.000Z</time>
      </trkpt>
      <trkpt lat="43.20973" lon="2.36123">
        <ele>106.1</ele>
        <time>2019-06-30T06:04:08.000Z</time>
      </trkpt>
      <trkpt lat="43.20971" lon="2.36125">
        <ele>106.2</ele>
        <time>2019-06-30T06:04:09.000Z</time>
      </trkpt>
      <trkpt lat="43.2097" lon="2.36127">
        <ele>106.2</ele>
        <time>2019-06-30T06:04:10.000Z</time>
      </trkpt>
      <trkpt lat="43.20968" lon="2.36129">
        <ele>106.3</ele>
        <time>2019-06-30T06:04:11.000Z</time>
      </trkpt>
      <trkpt lat="43.20967" lon="2.36131">
        <ele>106.3</ele>
        <time>2019-06-30T06:04:12.000Z</time>
      </trkpt>
      <trkpt lat="43.20965" lon="2.36133">
        <ele>106.4</ele>
        <time>2019-06-30T06:04:13.000Z</time>
      </trkpt>
      <trkpt lat="43.20963" lon="2.36135">
        <ele>106.4</ele>
        <time>2019-06-30T06:04:14.000Z</time>
      </trkpt>
      <trkpt lat="43.20962" lon="2.36136">
        <ele>106.4</ele>
        <time>2019-06-30T06:04:15.000Z</time>
      </trkpt>
      <trkpt lat="43.2096" lon="2.36138">
        <ele>106.5</ele>
        <time>2019-06-30T06:04:16.000Z</time>
      </trkpt>
      <trkpt lat="43.20959" lon="2.3614">
        <ele>106.5</ele>
        <time>2019-06-30T06:04:17.000Z</time>
      </trkpt>
      <trkpt lat="43.20957" lon="2.36141">
        <ele>106.5</ele>
        <time>2019-06-30T06:04:18.000Z</time>
      </trkpt>
      <trkpt lat="43.20956" lon="2.36143">
        <ele>106.6</ele>
        <time>2019-06-30T06:04:19.000Z</time>
      </trkpt>
      <trkpt lat="43.20954" lon="2.36144">
        <ele>106.6</ele>
        <time>2019-06-30T06:04:20.000Z</time>
      </trkpt>
      <trkpt lat="43.20953" lon="2.36146">
        <ele>106.6</ele>
        <time>2019-06-30T06:04:21.000Z</time>
      </trkpt>
      <trkpt lat="43.20952" lon="2.36148">
        <ele>106.7</ele>
        <time>2019-06-30T06:04:22.000Z</time>
      </trkpt>
      <trkpt lat="43.20951" lon="2.3615">
        <ele>106.7</ele>
        <time>2019-06-30T06:04:23.000Z</time>
      </trkpt>
      <trkpt lat="43.2095" lon="2.36152">
        <ele>106.8</ele>
        <time>2019-06-30T06:04:24.000Z</time>
      </trkpt>
      <trkpt lat="43.20949" lon="2.36154">
        <ele>106.8</ele>
        <time>2019-06-30T06:04:25.000Z</time>
      </trkpt>
      <trkpt lat="43.20948" lon="2.36156">
        <ele>106.8</ele>
        <time>2019-06-30T06:04:26.000Z</time>
      </trkpt>
      <trkpt lat="43.20946" lon="2.36157">
        <ele>106.8</ele>
        <time>2019-06-30T06:04:27.000Z</time>
      </trkpt>
      <trkpt lat="43.20944" lon="2.36159">
        <ele>106.9</ele>
        <time>2019-06-30T06:04:28.000Z</time>
      </trkpt>
      <trkpt lat="43.20942" lon="2.36161">
        <ele>106.9</ele>
        <time>2019-06-30T06:04:29.000Z</time>
      </trkpt>
      <trkpt lat="43.20941" lon="2.36163">
        <ele>106.9</ele>
        <time>2019-06-30T06:04:30.000Z</time>
      </trkpt>
      <trkpt lat="43.20939" lon="2.36164">
        <ele>107</ele>
        <time>2019-06-30T06:04:31.000Z</time>
      </trkpt>
      <trkpt lat="43.20938" lon="2.36166">
        <ele>107</ele>
        <time>2019-06-30T06:04:32.000Z</time>
      </trkpt>
      <trkpt lat="43.20936" lon="2.36168">
        <ele>107</ele>
        <time>2019-06-30T06:04:33.000Z</time>
      </trkpt>
      <trkpt lat="43.20935" lon="2.3617">
        <ele>107</ele>
        <time>2019-06-30T06:04:34.000Z</time>
      </trkpt>
      <trkpt lat="43.20934" lon="2.36172">
        <ele>107</ele>
        <time>2019-06-30T06:04:35.000Z</time>
      </trkpt>
      <trkpt lat="43.20933" lon="2.36174">
        <ele>107</ele>
        <time>2019-06-30T06:04:36.000Z</time>
      </trkpt>
      <trkpt lat="43.20932" lon="2.36176">
        <ele>107</ele>
        <time>2019-06-30T06:04:37.000Z</time>
      </trkpt>
      <trkpt lat="43.20931" lon="2.36178">
        <ele>107</ele>
        <time>2019-06-30T06:04:38.000Z</time>
      </trkpt>
      <trkpt lat="43.2093" lon="2.3618">
        <ele>107</ele>
        <time>2019-06-30T06:04:39.000Z</time>
      </trkpt>
      <trkpt lat="43.20929" lon="2.36182">
        <ele>107</ele>
        <time>2019-06-30T06:04:40.000Z</time>
      </trkpt>
      <trkpt lat="43.20928" lon="2.36184">
        <ele>107</ele>
        <time>2019-06-30T06:04:41.000Z</time>
      </trkpt>
      <trkpt lat="43.20927" lon="2.36186">
        <ele>107</ele>
        <time>2019-06-30T06:04:42.000Z</time>
      </trkpt>
      <trkpt lat="43.20926" lon="2.36188">
        <ele>107</ele>
        <time>2019-06-30T06:04:43.000Z</time>
      </trkpt>
      <trkpt lat="43.20925" lon="2.3619">
        <ele>107</ele>
        <time>2019-06-30T06:04:44.000Z</time>
      </trkpt>
      <trkpt lat="43.20925" lon="2.36192">
        <ele>107</ele>
        <time>2019-06-30T06:04:45.000Z</time>
      </trkpt>
      <trkpt lat="43.20924" lon="2.36194">
        <ele>107</ele>
        <time>2019-06-30T06:04:46.000Z</time>
      </trkpt>
      <trkpt lat="43.20924" lon="2.36196">
        <ele>107</ele>
        <time>2019-06-30T06:04:47.000Z</time>
      </trkpt>
      <trkpt lat="43.20923" lon="2.36198">
        <ele>107</ele>
        <time>2019-06-30T06:04:48.000Z</time>
      </trkpt>
      <trkpt lat="43.20923" lon="2.36199">
        <ele>107</ele>
        <time>2019-06-30T06:04:49.000Z</time>
      </trkpt>
      <trkpt lat="43.20923" lon="2.36201">
        <ele>107</ele>
        <time>2019-06-30T06:04:50.000Z</time>
      </trkpt>
      <trkpt lat="43.20922" lon="2.36202">
        <ele>107</ele>
        <time>2019-06-30T06:04:51.000Z</time>
      </trkpt>
      <trkpt lat="43.20922" lon="2.36203">
        <ele>107</ele>
        <time>2019-06-30T06:04:52.000Z</time>
      </trkpt>
      <trkpt lat="43.20922" lon="2.36204">
        <ele>107</ele>
        <time>2019-06-30T06:04:53.000Z</time>
      </trkpt>
      <trkpt lat="43.20923" lon="2.36206">
        <ele>107</ele>
        <time>2019-06-30T06:04:54.000Z</time>
      </trkpt>
      <trkpt lat="43.20923" lon="2.36207">
        <ele>107</ele>
        <time>2019-06-30T06:04:55.000Z</time>
      </trkpt>
      <trkpt lat="43.20923" lon="2.36209">
        <ele>107</ele>
        <time>2019-06-30T06:04:56.000Z</time>
      </trkpt>
      <trkpt lat="43.20923" lon="2.3621">
        <ele>107</ele>
        <time>2019-06-30T06:04:57.000Z</time>
      </trkpt>
      <trkpt lat="43.20923" lon="2.36212">
        <ele>107</ele>
        <time>2019-06-30T06:04:58.000Z</time>
      </trkpt>
      <trkpt lat="43.20923" lon="2.36214">
        <ele>107</ele>
        <time>2019-06-30T06:04:59.000Z</time>
      </trkpt>
      <trkpt lat="43.20923" lon="2.36217">
        <ele>107</ele>
        <time>2019-06-30T06:05:00.000Z</time>
      </trkpt>
      <trkpt lat="43.20922" lon="2.36219">
        <ele>107</ele>
        <time>2019-06-30T06:05:01.000Z</time>
      </trkpt>
      <trkpt lat="43.20922" lon="2.36222">
        <ele>107</ele>
        <time>2019-06-30T06:05:02.000Z</time>
      </trkpt>
      <trkpt lat="43.20922" lon="2.36225">
        <ele>107</ele>
        <time>2019-06-30T06:05:03.000Z</time>
      </trkpt>
      <trkpt lat="43.20921" lon="2.36228">
        <ele>107</ele>
        <time>2019-06-30T06:05:04.000Z</time>
      </trkpt>
      <trkpt lat="43.20921" lon="2.36232">
        <ele>107</ele>
        <time>2019-06-30T06:05:05.000Z</time>
      </trkpt>
      <trkpt lat="43.2092" lon="2.36235">
        <ele>107</ele>
        <time>2019-06-30T06:05:06.000Z</time>
      </trkpt>
      <trkpt lat="43.2092" lon="2.36238">
        <ele>107</ele>
        <time>2019-06-30T06:05:07.000Z</time>
      </trkpt>
      <trkpt lat="43.20919" lon="2.36242">
        <ele>107</ele>
        <time>2019-06-30T06:05:08.000Z</time>
      </trkpt>
      <trkpt lat="43.20918" lon="2.36245">
        <ele>107</ele>
        <time>2019-06-30T06:05:09.000Z</time>
      </trkpt>
      <trkpt lat="43.20918" lon="2.36248">
        <ele>107</ele>
        <time>2019-06-30T06:05:10.000Z</time>
      </trkpt>
      <trkpt lat="43.20918" lon="2.36251">
        <ele>107</ele>
        <time>2019-06-30T06:05:11.000Z</time>
      </trkpt>
      <trkpt lat="43.20917" lon="2.36254">
        <ele>107.1</ele>
        <time>2019-06-30T06:05:12.000Z</time>
      </trkpt>
      <trkpt lat="43.20917" lon="2.36257">
        <ele>107.2</ele>
        <time>2019-06-30T06:05:13.000Z</time>
      </trkpt>
      <trkpt lat="43.20917" lon="2.36259">
        <ele>107.2</ele>
        <time>2019-06-30T06:05:14.000Z</time>
      </trkpt>
      <trkpt lat="43.20917" lon="2.36262">
        <ele>107.3</ele>
        <time>2019-06-30T06:05:15.000Z</time>
      </trkpt>
      <trkpt lat="43.20918" lon="2.36265">
        <ele>107.3</ele>
        <time>2019-06-30T06:05:16.000Z</time>
      </trkpt>
      <trkpt lat="43.20918" lon="2.36267">
        <ele>107.4</ele>
        <time>2019-06-30T06:05:17.000Z</time>
      </trkpt>
      <trkpt lat="43.20918" lon="2.3627">
        <ele>107.4</ele>
        <time>2019-06-30T06:05:18.000Z</time>
      </trkpt>
      <trkpt lat="43.20919" lon="2.36274">
        <ele>107.5</ele>
        <time>2019-06-30T06:05:19.000Z</time>
      </trkpt>
      <trkpt lat="43.20919" lon="2.36277">
        <ele>107.6</ele>
        <time>2019-06-30T06:05:20.000Z</time>
      </trkpt>
      <trkpt lat="43.2092" lon="2.36281">
        <ele>107.7</ele>
        <time>2019-06-30T06:05:21.000Z</time>
      </trkpt>
      <trkpt lat="43.2092" lon="2.36285">
        <ele>107.7</ele>
        <time>2019-06-30T06:05:22.000Z</time>
      </trkpt>
      <trkpt lat="43.2092" lon="2.36288">
        <ele>107.8</ele>
        <time>2019-06-30T06:05:23.000Z</time>
      </trkpt>
      <trkpt lat="43.2092" lon="2.36292">
        <ele>107.9</ele>
        <time>2019-06-30T06:05:24.000Z</time>
      </trkpt>
      <trkpt lat="43.2092" lon="2.36296">
        <ele>108</ele>
        <time>2019-06-30T06:05:25.000Z</time>
      </trkpt>
      <trkpt lat="43.2092" lon="2.363">
        <ele>108.1</ele>
        <time>2019-06-30T06:05:26.000Z</time>
      </trkpt>
      <trkpt lat="43.2092" lon="2.36304">
        <ele>108.2</ele>
        <time>2019-06-30T06:05:27.000Z</time>
      </trkpt>
      <trkpt lat="43.2092" lon="2.36307">
        <ele>108.2</ele>
        <time>2019-06-30T06:05:28.000Z</time>
      </trkpt>
      <trkpt lat="43.2092" lon="2.36311">
        <ele>108.3</ele>
        <time>2019-06-30T06:05:29.000Z</time>
      </trkpt>
      <trkpt lat="43.2092" lon="2.36314">
        <ele>108.4</ele>
        <time>2019-06-30T06:05:30.000Z</time>
      </trkpt>
      <trkpt lat="43.2092" lon="2.36317">
        <ele>108.5</ele>
        <time>2019-06-30T06:05:31.000Z</time>
      </trkpt>
      <trkpt lat="43.20919" lon="2.36321">
        <ele>108.6</ele>
        <time>2019-06-30T06:05:32.000Z</time>
      </trkpt>
      <trkpt lat="43.20919" lon="2.36324">
        <ele>108.7</ele>
        <time>2019-06-30T06:05:33.000Z</time>
      </trkpt>
      <trkpt lat="43.20919" lon="2.36328">
        <ele>108.8</ele>
        <time>2019-06-30T06:05:34.000Z</time>
      </trkpt>
      <trkpt lat="43.20918" lon="2.36331">
        <ele>108.9</ele>
        <time>2019-06-30T06:05:35.000Z</time>
      </trkpt>
      <trkpt lat="43.20918" lon="2.36334">
        <ele>108.9</ele>
        <time>2019-06-30T06:05:36.000Z</time>
      </trkpt>
      <trkpt lat="43.20918" lon="2.36338">
        <ele>109</ele>
        <time>2019-06-30T06:05:37.000Z</time>
      </trkpt>
      <trkpt lat="43.20918" lon="2.36341">
        <ele>109</ele>
        <time>2019-06-30T06:05:38.000Z</time>
      </trkpt>
      <trkpt lat="43.20919" lon="2.36344">
        <ele>109</ele>
        <time>2019-06-30T06:05:39.000Z</time>
      </trkpt>
      <trkpt lat="43.20919" lon="2.36347">
        <ele>109.1</ele>
        <time>2019-06-30T06:05:40.000Z</time>
      </trkpt>
      <trkpt lat="43.2092" lon="2.3635">
        <ele>109.1</ele>
        <time>2019-06-30T06:05:41.000Z</time>
      </trkpt>
      <trkpt lat="43.20921" lon="2.36353">
        <ele>109.1</ele>
        <time>2019-06-30T06:05:42.000Z</time>
      </trkpt>
      <trkpt lat="43.20921" lon="2.36355">
        <ele>109.1</ele>
        <time>2019-06-30T06:05:43.000Z</time>
      </trkpt>
      <trkpt lat="43.20922" lon="2.36358">
        <ele>109.1</ele>
        <time>2019-06-30T06:05:44.000Z</time>
      </trkpt>
      <trkpt lat="43.20923" lon="2.36361">
        <ele>109.1</ele>
        <time>2019-06-30T06:05:45.000Z</time>
      </trkpt>
      <trkpt lat="43.20924" lon="2.36364">
        <ele>109.1</ele>
        <time>2019-06-30T06:05:46.000Z</time>
      </trkpt>
      <trkpt lat="43.20924" lon="2.36367">
        <ele>109.1</ele>
        <time>2019-06-30T06:05:47.000Z</time>
      </trkpt>
      <trkpt lat="43.20924" lon="2.3637">
        <ele>109.2</ele>
        <time>2019-06-30T06:05:48.000Z</time>
      </trkpt>
      <trkpt lat="43.20925" lon="2.36373">
        <ele>109.2</ele>
        <time>2019-06-30T06:05:49.000Z</time>
      </trkpt>
      <trkpt lat="43.20925" lon="2.36377">
        <ele>109.2</ele>
        <time>2019-06-30T06:05:50.000Z</time>
      </trkpt>
      <trkpt lat="43.20925" lon="2.3638">
        <ele>109.3</ele>
        <time>2019-06-30T06:05:51.000Z</time>
      </trkpt>
      <trkpt lat="43.20925" lon="2.36384">
        <ele>109.3</ele>
        <time>2019-06-30T06:05:52.000Z</time>
      </trkpt>
      <trkpt lat="43.20925" lon="2.36387">
        <ele>109.4</ele>
        <time>2019-06-30T06:05:53.000Z</time>
      </trkpt>
      <trkpt lat="43.20925" lon="2.36391">
        <ele>109.4</ele>
        <time>2019-06-30T06:05:54.000Z</time>
      </trkpt>
      <trkpt lat="43.20926" lon="2.36394">
        <ele>109.5</ele>
        <time>2019-06-30T06:05:55.000Z</time>
      </trkpt>
      <trkpt lat="43.20926" lon="2.36397">
        <ele>109.5</ele>
        <time>2019-06-30T06:05:56.000Z</time>
      </trkpt>
      <trkpt lat="43.20927" lon="2.36401">
        <ele>109.5</ele>
        <time>2019-06-30T06:05:57.000Z</time>
      </trkpt>
      <trkpt lat="43.20927" lon="2.36404">
        <ele>109.6</ele>
        <time>2019-06-30T06:05:58.000Z</time>
      </trkpt>
      <trkpt lat="43.20928" lon="2.36407">
        <ele>109.6</ele>
        <time>2019-06-30T06:05:59.000Z</time>
      </trkpt>
      <trkpt lat="43.20929" lon="2.36411">
        <ele>109.6</ele>
        <time>2019-06-30T06:06:00.000Z</time>
      </trkpt>
      <trkpt lat="43.2093" lon="2.36414">
        <ele>109.6</ele>
        <time>2019-06-30T06:06:01.000Z</time>
      </trkpt>
      <trkpt lat="43.20931" lon="2.36417">
        <ele>109.7</ele>
        <time>2019-06-30T06:06:02.000Z</time>
      </trkpt>
      <trkpt lat="43.20932" lon="2.3642">
        <ele>109.9</ele>
        <time>2019-06-30T06:06:03.000Z</time>
      </trkpt>
      <trkpt lat="43.20933" lon="2.36423">
        <ele>110</ele>
        <time>2019-06-30T06:06:04.000Z</time>
      </trkpt>
      <trkpt lat="43.20934" lon="2.36427">
        <ele>110.2</ele>
        <time>2019-06-30T06:06:05.000Z</time>
      </trkpt>
      <trkpt lat="43.20935" lon="2.36429">
        <ele>110.4</ele>
        <time>2019-06-30T06:06:06.000Z</time>
      </trkpt>
      <trkpt lat="43.20936" lon="2.36432">
        <ele>110.5</ele>
        <time>2019-06-30T06:06:07.000Z</time>
      </trkpt>
      <trkpt lat="43.20937" lon="2.36435">
        <ele>110.7</ele>
        <time>2019-06-30T06:06:08.000Z</time>
      </trkpt>
      <trkpt lat="43.20938" lon="2.36438">
        <ele>110.8</ele>
        <time>2019-06-30T06:06:09.000Z</time>
      </trkpt>
      <trkpt lat="43.20939" lon="2.3644">
        <ele>111</ele>
        <time>2019-06-30T06:06:10.000Z</time>
      </trkpt>
      <trkpt lat="43.2094" lon="2.36443">
        <ele>111.1</ele>
        <time>2019-06-30T06:06:11.000Z</time>
      </trkpt>
      <trkpt lat="43.20941" lon="2.36445">
        <ele>111.2</ele>
        <time>2019-06-30T06:06:12.000Z</time>
      </trkpt>
      <trkpt lat="43.20942" lon="2.36448">
        <ele>111.4</ele>
        <time>2019-06-30T06:06:13.000Z</time>
      </trkpt>
      <trkpt lat="43.20942" lon="2.3645">
        <ele>111.5</ele>
        <time>2019-06-30T06:06:14.000Z</time>
      </trkpt>
      <trkpt lat="43.20943" lon="2.36453">
        <ele>111.7</ele>
        <time>2019-06-30T06:06:15.000Z</time>
      </trkpt>
      <trkpt lat="43.20943" lon="2.36455">
        <ele>111.8</ele>
        <time>2019-06-30T06:06:16.000Z</time>
      </trkpt>
      <trkpt lat="43.20944" lon="2.36458">
        <ele>112</ele>
        <time>2019-06-30T06:06:17.000Z</time>
      </trkpt>
      <trkpt lat="43.20944" lon="2.36461">
        <ele>112.2</ele>
        <time>2019-06-30T06:06:18.000Z</time>
      </trkpt>
      <trkpt lat="43.20944" lon="2.36463">
        <ele>112.3</ele>
        <time>2019-06-30T06:06:19.000Z</time>
      </trkpt>
      <trkpt lat="43.20944" lon="2.36466">
        <ele>112.5</ele>
        <time>2019-06-30T06:06:20.000Z</time>
      </trkpt>
      <trkpt lat="43.20944" lon="2.36469">
        <ele>112.7</ele>
        <time>2019-06-30T06:06:21.000Z</time>
      </trkpt>
      <trkpt lat="43.20944" lon="2.36472">
        <ele>112.9</ele>
        <time>2019-06-30T06:06:22.000Z</time>
      </trkpt>
      <trkpt lat="43.20943" lon="2.36474">
        <ele>113</ele>
        <time>2019-06-30T06:06:23.000Z</time>
      </trkpt>
      <trkpt lat="43.20943" lon="2.36477">
        <ele>113.2</ele>
        <time>2019-06-30T06:06:24.000Z</time>
      </trkpt>
      <trkpt lat="43.20942" lon="2.3648">
        <ele>113.4</ele>
        <time>2019-06-30T06:06:25.000Z</time>
      </trkpt>
      <trkpt lat="43.20942" lon="2.36482">
        <ele>113.6</ele>
        <time>2019-06-30T06:06:26.000Z</time>
      </trkpt>
      <trkpt lat="43.20941" lon="2.36485">
        <ele>113.8</ele>
        <time>2019-06-30T06:06:27.000Z</time>
      </trkpt>
      <trkpt lat="43.2094" lon="2.36488">
        <ele>113.9</ele>
        <time>2019-06-30T06:06:28.000Z</time>
      </trkpt>
      <trkpt lat="43.20939" lon="2.3649">
        <ele>114.1</ele>
        <time>2019-06-30T06:06:29.000Z</time>
      </trkpt>
      <trkpt lat="43.20939" lon="2.36493">
        <ele>114.3</ele>
        <time>2019-06-30T06:06:30.000Z</time>
      </trkpt>
      <trkpt lat="43.20938" lon="2.36496">
        <ele>114.5</ele>
        <time>2019-06-30T06:06:31.000Z</time>
      </trkpt>
      <trkpt lat="43.20937" lon="2.36499">
        <ele>114.7</ele>
        <time>2019-06-30T06:06:32.000Z</time>
      </trkpt>
      <trkpt lat="43.20936" lon="2.36502">
        <ele>114.8</ele>
        <time>2019-06-30T06:06:33.000Z</time>
      </trkpt>
      <trkpt lat="43.20935" lon="2.36505">
        <ele>114.9</ele>
        <time>2019-06-30T06:06:34.000Z</time>
      </trkpt>
      <trkpt lat="43.20934" lon="2.36508">
        <ele>115</ele>
        <time>2019-06-30T06:06:35.000Z</time>
      </trkpt>
      <trkpt lat="43.20934" lon="2.36511">
        <ele>115.2</ele>
        <time>2019-06-30T06:06:36.000Z</time>
      </trkpt>
      <trkpt lat="43.20933" lon="2.36514">
        <ele>115.3</ele>
        <time>2019-06-30T06:06:37.000Z</time>
      </trkpt>
      <trkpt lat="43.20932" lon="2.36517">
        <ele>115.4</ele>
        <time>2019-06-30T06:06:38.000Z</time>
      </trkpt>
      <trkpt lat="43.20931" lon="2.3652">
        <ele>115.5</ele>
        <time>2019-06-30T06:06:39.000Z</time>
      </trkpt>
      <trkpt lat="43.2093" lon="2.36523">
        <ele>115.6</ele>
        <time>2019-06-30T06:06:40.000Z</time>
      </trkpt>
      <trkpt lat="43.2093" lon="2.36527">
        <ele>115.7</ele>
        <time>2019-06-30T06:06:41.000Z</time>
      </trkpt>
      <trkpt lat="43.20929" lon="2.3653">
        <ele>115.9</ele>
        <time>2019-06-30T06:06:42.000Z</time>
      </trkpt>
      <trkpt lat="43.20928" lon="2.36533">
        <ele>116</ele>
        <time>2019-06-30T06:06:43.000Z</time>
      </trkpt>
      <trkpt lat="43.20927" lon="2.36536">
        <ele>116.1</ele>
        <time>2019-06-30T06:06:44.000Z</time>
      </trkpt>
      <trkpt lat="43.20926" lon="2.36539">
        <ele>116.2</ele>
        <time>2019-06-30T06:06:45.000Z</time>
      </trkpt>
      <trkpt lat="43.20925" lon="2.36542">
        <ele>116.3</ele>
        <time>2019-06-30T06:06:46.000Z</time>
      </trkpt>
      <trkpt lat="43.20924" lon="2.36544">
        <ele>116.4</ele>
        <time>2019-06-30T06:06:47.000Z</time>
      </trkpt>
      <trkpt lat="43.20923" lon="2.36547">
        <ele>116.6</ele>
        <time>2019-06-30T06:06:48.000Z</time>
      </trkpt>
      <trkpt lat="43.20922" lon="2.36549">
        <ele>116.7</ele>
        <time>2019-06-30T06:06:49.000Z</time>
      </trkpt>
      <trkpt lat="43.20921" lon="2.36552">
        <ele>116.8</ele>
        <time>2019-06-30T06:06:50.000Z</time>
      </trkpt>
      <trkpt lat="43.2092" lon="2.36554">
        <ele>116.9</ele>
        <time>2019-06-30T06:06:51.000Z</time>
      </trkpt>
      <trkpt lat="43.20919" lon="2.36556">
        <ele>117</ele>
        <time>2019-06-30T06:06:52.000Z</time>
      </trkpt>
      <trkpt lat="43.20918" lon="2.36558">
        <ele>117.1</ele>
        <time>2019-06-30T06:06:53.000Z</time>
      </trkpt>
      <trkpt lat="43.20917" lon="2.36561">
        <ele>117.2</ele>
        <time>2019-06-30T06:06:54.000Z</time>
      </trkpt>
      <trkpt lat="43.20915" lon="2.36563">
        <ele>117.4</ele>
        <time>2019-06-30T06:06:55.000Z</time>
      </trkpt>
      <trkpt lat="43.20914" lon="2.36565">
        <ele>117.7</ele>
        <time>2019-06-30T06:06:56.000Z</time>
      </trkpt>
      <trkpt lat="43.20913" lon="2.36568">
        <ele>117.9</ele>
        <time>2019-06-30T06:06:57.000Z</time>
      </trkpt>
      <trkpt lat="43.20912" lon="2.36571">
        <ele>118.1</ele>
        <time>2019-06-30T06:06:58.000Z</time>
      </trkpt>
      <trkpt lat="43.20911" lon="2.36574">
        <ele>118.3</ele>
        <time>2019-06-30T06:06:59.000Z</time>
      </trkpt>
      <trkpt lat="43.2091" lon="2.36577">
        <ele>118.5</ele>
        <time>2019-06-30T06:07:00.000Z</time>
      </trkpt>
      <trkpt lat="43.20909" lon="2.3658">
        <ele>118.7</ele>
        <time>2019-06-30T06:07:01.000Z</time>
      </trkpt>
      <trkpt lat="43.20908" lon="2.36582">
        <ele>118.8</ele>
        <time>2019-06-30T06:07:02.000Z</time>
      </trkpt>
      <trkpt lat="43.20907" lon="2.36585">
        <ele>119</ele>
        <time>2019-06-30T06:07:03.000Z</time>
      </trkpt>
      <trkpt lat="43.20906" lon="2.36588">
        <ele>119.1</ele>
        <time>2019-06-30T06:07:04.000Z</time>
      </trkpt>
      <trkpt lat="43.20905" lon="2.36591">
        <ele>119.2</ele>
        <time>2019-06-30T06:07:05.000Z</time>
      </trkpt>
      <trkpt lat="43.20903" lon="2.36593">
        <ele>119.3</ele>
        <time>2019-06-30T06:07:06.000Z</time>
      </trkpt>
      <trkpt lat="43.20902" lon="2.36596">
        <ele>119.4</ele>
        <time>2019-06-30T06:07:07.000Z</time>
      </trkpt>
      <trkpt lat="43.20901" lon="2.36598">
        <ele>119.5</ele>
        <time>2019-06-30T06:07:08.000Z</time>
      </trkpt>
      <trkpt lat="43.209" lon="2.366">
        <ele>119.6</ele>
        <time>2019-06-30T06:07:09.000Z</time>
      </trkpt>
      <trkpt lat="43.20899" lon="2.36602">
        <ele>119.7</ele>
        <time>2019-06-30T06:07:10.000Z</time>
      </trkpt>
      <trkpt lat="43.20898" lon="2.36605">
        <ele>119.8</ele>
        <time>2019-06-30T06:07:11.000Z</time>
      </trkpt>
      <trkpt lat="43.20897" lon="2.36606">
        <ele>119.9</ele>
        <time>2019-06-30T06:07:12.000Z</time>
      </trkpt>
      <trkpt lat="43.20895" lon="2.36608">
        <ele>120</ele>
        <time>2019-06-30T06:07:13.000Z</time>
      </trkpt>
      <trkpt lat="43.20894" lon="2.3661">
        <ele>120.1</ele>
        <time>2019-06-30T06:07:14.000Z</time>
      </trkpt>
      <trkpt lat="43.20893" lon="2.36612">
        <ele>120.2</ele>
        <time>2019-06-30T06:07:15.000Z</time>
      </trkpt>
      <trkpt lat="43.20892" lon="2.36614">
        <ele>120.3</ele>
        <time>2019-06-30T06:07:16.000Z</time>
      </trkpt>
      <trkpt lat="43.2089" lon="2.36617">
        <ele>120.4</ele>
        <time>2019-06-30T06:07:17.000Z</time>
      </trkpt>
      <trkpt lat="43.20889" lon="2.36619">
        <ele>120.5</ele>
        <time>2019-06-30T06:07:18.000Z</time>
      </trkpt>
      <trkpt lat="43.20888" lon="2.36621">
        <ele>120.6</ele>
        <time>2019-06-30T06:07:19.000Z</time>
      </trkpt>
      <trkpt lat="43.20886" lon="2.36624">
        <ele>120.7</ele>
        <time>2019-06-30T06:07:20.000Z</time>
      </trkpt>
      <trkpt lat="43.20885" lon="2.36627">
        <ele>120.8</ele>
        <time>2019-06-30T06:07:21.000Z</time>
      </trkpt>
      <trkpt lat="43.20884" lon="2.3663">
        <ele>120.8</ele>
        <time>2019-06-30T06:07:22.000Z</time>
      </trkpt>
      <trkpt lat="43.20883" lon="2.36632">
        <ele>120.9</ele>
        <time>2019-06-30T06:07:23.000Z</time>
      </trkpt>
      <trkpt lat="43.20882" lon="2.36635">
        <ele>120.9</ele>
        <time>2019-06-30T06:07:24.000Z</time>
      </trkpt>
      <trkpt lat="43.2088" lon="2.36638">
        <ele>121</ele>
        <time>2019-06-30T06:07:25.000Z</time>
      </trkpt>
      <trkpt lat="43.20879" lon="2.36641">
        <ele>121</ele>
        <time>2019-06-30T06:07:26.000Z</time>
      </trkpt>
      <trkpt lat="43.20878" lon="2.36644">
        <ele>121.1</ele>
        <time>2019-06-30T06:07:27.000Z</time>
      </trkpt>
      <trkpt lat="43.20877" lon="2.36647">
        <ele>121.1</ele>
        <time>2019-06-30T06:07:28.000Z</time>
      </trkpt>
      <trkpt lat="43.20876" lon="2.3665">
        <ele>121.1</ele>
        <time>2019-06-30T06:07:29.000Z</time>
      </trkpt>
      <trkpt lat="43.20875" lon="2.36653">
        <ele>121.1</ele>
        <time>2019-06-30T06:07:30.000Z</time>
      </trkpt>
      <trkpt lat="43.20874" lon="2.36655">
        <ele>121.2</ele>
        <time>2019-06-30T06:07:31.000Z</time>
      </trkpt>
      <trkpt lat="43.20873" lon="2.36658">
        <ele>121.2</ele>
        <time>2019-06-30T06:07:32.000Z</time>
      </trkpt>
      <trkpt lat="43.20872" lon="2.36661">
        <ele>121.2</ele>
        <time>2019-06-30T06:07:33.000Z</time>
      </trkpt>
      <trkpt lat="43.20871" lon="2.36663">
        <ele>121.2</ele>
        <time>2019-06-30T06:07:34.000Z</time>
      </trkpt>
      <trkpt lat="43.2087" lon="2.36666">
        <ele>121.3</ele>
        <time>2019-06-30T06:07:35.000Z</time>
      </trkpt>
      <trkpt lat="43.20869" lon="2.36669">
        <ele>121.3</ele>
        <time>2019-06-30T06:07:36.000Z</time>
      </trkpt>
      <trkpt lat="43.20868" lon="2.36671">
        <ele>121.3</ele>
        <time>2019-06-30T06:07:37.000Z</time>
      </trkpt>
      <trkpt lat="43.20866" lon="2.36674">
        <ele>121.4</ele>
        <time>2019-06-30T06:07:38.000Z</time>
      </trkpt>
      <trkpt lat="43.20866" lon="2.36677">
        <ele>121.4</ele>
        <time>2019-06-30T06:07:39.000Z</time>
      </trkpt>
      <trkpt lat="43.20865" lon="2.36679">
        <ele>121.4</ele>
        <time>2019-06-30T06:07:40.000Z</time>
      </trkpt>
      <trkpt lat="43.20864" lon="2.36682">
        <ele>121.4</ele>
        <time>2019-06-30T06:07:41.000Z</time>
      </trkpt>
      <trkpt lat="43.20864" lon="2.36685">
        <ele>121.4</ele>
        <time>2019-06-30T06:07:42.000Z</time>
      </trkpt>
      <trkpt lat="43.20863" lon="2.36687">
        <ele>121.4</ele>
        <time>2019-06-30T06:07:43.000Z</time>
      </trkpt>
      <trkpt lat="43.20863" lon="2.3669">
        <ele>121.4</ele>
        <time>2019-06-30T06:07:44.000Z</time>
      </trkpt>
      <trkpt lat="43.20862" lon="2.36693">
        <ele>121.4</ele>
        <time>2019-06-30T06:07:45.000Z</time>
      </trkpt>
      <trkpt lat="43.20862" lon="2.36695">
        <ele>121.4</ele>
        <time>2019-06-30T06:07:46.000Z</time>
      </trkpt>
      <trkpt lat="43.20862" lon="2.36698">
        <ele>121.4</ele>
        <time>2019-06-30T06:07:47.000Z</time>
      </trkpt>
      <trkpt lat="43.20861" lon="2.367">
        <ele>121.4</ele>
        <time>2019-06-30T06:07:48.000Z</time>
      </trkpt>
      <trkpt lat="43.20861" lon="2.36703">
        <ele>121.4</ele>
        <time>2019-06-30T06:07:49.000Z</time>
      </trkpt>
      <trkpt lat="43.2086" lon="2.36705">
        <ele>121.4</ele>
        <time>2019-06-30T06:07:50.000Z</time>
      </trkpt>
      <trkpt lat="43.2086" lon="2.36707">
        <ele>121.4</ele>
        <time>2019-06-30T06:07:51.000Z</time>
      </trkpt>
      <trkpt lat="43.20859" lon="2.36709">
        <ele>121.4</ele>
        <time>2019-06-30T06:07:52.000Z</time>
      </trkpt>
      <trkpt lat="43.20858" lon="2.36711">
        <ele>121.4</ele>
        <time>2019-06-30T06:07:53.000Z</time>
      </trkpt>
      <trkpt lat="43.20858" lon="2.36713">
        <ele>121.4</ele>
        <time>2019-06-30T06:07:54.000Z</time>
      </trkpt>
      <trkpt lat="43.20857" lon="2.36715">
        <ele>121.4</ele>
        <time>2019-06-30T06:07:55.000Z</time>
      </trkpt>
      <trkpt lat="43.20857" lon="2.36717">
        <ele>121.4</ele>
        <time>2019-06-30T06:07:56.000Z</time>
      </trkpt>
      <trkpt lat="43.20856" lon="2.36718">
        <ele>121.5</ele>
        <time>2019-06-30T06:07:57.000Z</time>
      </trkpt>
      <trkpt lat="43.20856" lon="2.3672">
        <ele>121.5</ele>
        <time>2019-06-30T06:07:58.000Z</time>
      </trkpt>
      <trkpt lat="43.20855" lon="2.36722">
        <ele>121.5</ele>
        <time>2019-06-30T06:07:59.000Z</time>
      </trkpt>
      <trkpt lat="43.20855" lon="2.36723">
        <ele>121.5</ele>
        <time>2019-06-30T06:08:00.000Z</time>
      </trkpt>
      <trkpt lat="43.20854" lon="2.36725">
        <ele>121.5</ele>
        <time>2019-06-30T06:08:01.000Z</time>
      </trkpt>
      <trkpt lat="43.20854" lon="2.36726">
        <ele>121.5</ele>
        <time>2019-06-30T06:08:02.000Z</time>
      </trkpt>
      <trkpt lat="43.20854" lon="2.36728">
        <ele>121.5</ele>
        <time>2019-06-30T06:08:03.000Z</time>
      </trkpt>
      <trkpt lat="43.20853" lon="2.36729">
        <ele>121.5</ele>
        <time>2019-06-30T06:08:04.000Z</time>
      </trkpt>
      <trkpt lat="43.20853" lon="2.3673">
        <ele>121.5</ele>
        <time>2019-06-30T06:08:05.000Z</time>
      </trkpt>
      <trkpt lat="43.20853" lon="2.36732">
        <ele>121.5</ele>
        <time>2019-06-30T06:08:06.000Z</time>
      </trkpt>
      <trkpt lat="43.20853" lon="2.36734">
        <ele>121.5</ele>
        <time>2019-06-30T06:08:07.000Z</time>
      </trkpt>
      <trkpt lat="43.20852" lon="2.36735">
        <ele>121.5</ele>
        <time>2019-06-30T06:08:08.000Z</time>
      </trkpt>
      <trkpt lat="43.20852" lon="2.36737">
        <ele>121.5</ele>
        <time>2019-06-30T06:08:09.000Z</time>
      </trkpt>
      <trkpt lat="43.20852" lon="2.36739">
        <ele>121.4</ele>
        <time>2019-06-30T06:08:10.000Z</time>
      </trkpt>
      <trkpt lat="43.20851" lon="2.3674">
        <ele>121.4</ele>
        <time>2019-06-30T06:08:11.000Z</time>
      </trkpt>
      <trkpt lat="43.20851" lon="2.36742">
        <ele>121.4</ele>
        <time>2019-06-30T06:08:12.000Z</time>
      </trkpt>
      <trkpt lat="43.20851" lon="2.36743">
        <ele>121.4</ele>
        <time>2019-06-30T06:08:13.000Z</time>
      </trkpt>
      <trkpt lat="43.20851" lon="2.36744">
        <ele>121.4</ele>
        <time>2019-06-30T06:08:14.000Z</time>
      </trkpt>
      <trkpt lat="43.20851" lon="2.36745">
        <ele>121.4</ele>
        <time>2019-06-30T06:08:15.000Z</time>
      </trkpt>
      <trkpt lat="43.20851" lon="2.36745">
        <ele>121.4</ele>
        <time>2019-06-30T06:08:16.000Z</time>
      </trkpt>
      <trkpt lat="43.20851" lon="2.36746">
        <ele>121.4</ele>
        <time>2019-06-30T06:08:17.000Z</time>
      </trkpt>
      <trkpt lat="43.2085" lon="2.36746">
        <ele>121.4</ele>
        <time>2019-06-30T06:08:18.000Z</time>
      </trkpt>
      <trkpt lat="43.2085" lon="2.36746">
        <ele>121.4</ele>
        <time>2019-06-30T06:08:19.000Z</time>
      </trkpt>
      <trkpt lat="43.2085" lon="2.36746">
        <ele>121.4</ele>
        <time>2019-06-30T06:08:20.000Z</time>
      </trkpt>
      <trkpt lat="43.2085" lon="2.36746">
        <ele>121.4</ele>
        <time>2019-06-30T06:08:21.000Z</time>
      </trkpt>
      <trkpt lat="43.2085" lon="2.36746">
        <ele>121.4</ele>
        <time>2019-06-30T06:08:22.000Z</time>
      </trkpt>
      <trkpt lat="43.20851" lon="2.36746">
        <ele>121.4</ele>
        <time>2019-06-30T06:08:23.000Z</time>
      </trkpt>
      <trkpt lat="43.20851" lon="2.36746">
        <ele>121.4</ele>
        <time>2019-06-30T06:08:24.000Z</time>
      </trkpt>
      <trkpt lat="43.20851" lon="2.36747">
        <ele>121.4</ele>
        <time>2019-06-30T06:08:25.000Z</time>
      </trkpt>
      <trkpt lat="43.20851" lon="2.36747">
        <ele>121.4</ele>
        <time>2019-06-30T06:08:26.000Z</time>
      </trkpt>
      <trkpt lat="43.20851" lon="2.36748">
        <ele>121.4</ele>
        <time>2019-06-30T06:08:27.000Z</time>
      </trkpt>
      <trkpt lat="43.20851" lon="2.36749">
        <ele>121.4</ele>
        <time>2019-06-30T06:08:28.000Z</time>
      </trkpt>
      <trkpt lat="43.20852" lon="2.36751">
        <ele>121.3</ele>
        <time>2019-06-30T06:08:29.000Z</time>
      </trkpt>
      <trkpt lat="43.20852" lon="2.36752">
        <ele>121.3</ele>
        <time>2019-06-30T06:08:30.000Z</time>
      </trkpt>
      <trkpt lat="43.20853" lon="2.36754">
        <ele>121.3</ele>
        <time>2019-06-30T06:08:31.000Z</time>
      </trkpt>
      <trkpt lat="43.20853" lon="2.36757">
        <ele>121.3</ele>
        <time>2019-06-30T06:08:32.000Z</time>
      </trkpt>
      <trkpt lat="43.20854" lon="2.36759">
        <ele>121.3</ele>
        <time>2019-06-30T06:08:33.000Z</time>
      </trkpt>
      <trkpt lat="43.20854" lon="2.36761">
        <ele>121.3</ele>
        <time>2019-06-30T06:08:34.000Z</time>
      </trkpt>
      <trkpt lat="43.20855" lon="2.36764">
        <ele>121.3</ele>
        <time>2019-06-30T06:08:35.000Z</time>
      </trkpt>
      <trkpt lat="43.20855" lon="2.36767">
        <ele>121.3</ele>
        <time>2019-06-30T06:08:36.000Z</time>
      </trkpt>
      <trkpt lat="43.20856" lon="2.3677">
        <ele>121.3</ele>
        <time>2019-06-30T06:08:37.000Z</time>
      </trkpt>
      <trkpt lat="43.20856" lon="2.36773">
        <ele>121.2</ele>
        <time>2019-06-30T06:08:38.000Z</time>
      </trkpt>
      <trkpt lat="43.20857" lon="2.36776">
        <ele>121.2</ele>
        <time>2019-06-30T06:08:39.000Z</time>
      </trkpt>
      <trkpt lat="43.20858" lon="2.36779">
        <ele>121.2</ele>
        <time>2019-06-30T06:08:40.000Z</time>
      </trkpt>
      <trkpt lat="43.20859" lon="2.36782">
        <ele>121.2</ele>
        <time>2019-06-30T06:08:41.000Z</time>
      </trkpt>
      <trkpt lat="43.2086" lon="2.36786">
        <ele>121.2</ele>
        <time>2019-06-30T06:08:42.000Z</time>
      </trkpt>
      <trkpt lat="43.20861" lon="2.36789">
        <ele>121.2</ele>
        <time>2019-06-30T06:08:43.000Z</time>
      </trkpt>
      <trkpt lat="43.20862" lon="2.36792">
        <ele>121.1</ele>
        <time>2019-06-30T06:08:44.000Z</time>
      </trkpt>
      <trkpt lat="43.20863" lon="2.36796">
        <ele>121.1</ele>
        <time>2019-06-30T06:08:45.000Z</time>
      </trkpt>
      <trkpt lat="43.20864" lon="2.36799">
        <ele>121.1</ele>
        <time>2019-06-30T06:08:46.000Z</time>
      </trkpt>
      <trkpt lat="43.20865" lon="2.36802">
        <ele>121.1</ele>
        <time>2019-06-30T06:08:47.000Z</time>
      </trkpt>
      <trkpt lat="43.20865" lon="2.36805">
        <ele>121.1</ele>
        <time>2019-06-30T06:08:48.000Z</time>
      </trkpt>
      <trkpt lat="43.20865" lon="2.36808">
        <ele>121.1</ele>
        <time>2019-06-30T06:08:49.000Z</time>
      </trkpt>
      <trkpt lat="43.20866" lon="2.36811">
        <ele>121.1</ele>
        <time>2019-06-30T06:08:50.000Z</time>
      </trkpt>
      <trkpt lat="43.20866" lon="2.36814">
        <ele>121.1</ele>
        <time>2019-06-30T06:08:51.000Z</time>
      </trkpt>
      <trkpt lat="43.20866" lon="2.36817">
        <ele>121.1</ele>
        <time>2019-06-30T06:08:52.000Z</time>
      </trkpt>
      <trkpt lat="43.20866" lon="2.3682">
        <ele>121.1</ele>
        <time>2019-06-30T06:08:53.000Z</time>
      </trkpt>
      <trkpt lat="43.20867" lon="2.36823">
        <ele>121.2</ele>
        <time>2019-06-30T06:08:54.000Z</time>
      </trkpt>
      <trkpt lat="43.20867" lon="2.36826">
        <ele>121.1</ele>
        <time>2019-06-30T06:08:55.000Z</time>
      </trkpt>
      <trkpt lat="43.20868" lon="2.36829">
        <ele>121.2</ele>
        <time>2019-06-30T06:08:56.000Z</time>
      </trkpt>
      <trkpt lat="43.20868" lon="2.36832">
        <ele>121.2</ele>
        <time>2019-06-30T06:08:57.000Z</time>
      </trkpt>
      <trkpt lat="43.20869" lon="2.36835">
        <ele>121.2</ele>
        <time>2019-06-30T06:08:58.000Z</time>
      </trkpt>
      <trkpt lat="43.20869" lon="2.36838">
        <ele>121.2</ele>
        <time>2019-06-30T06:08:59.000Z</time>
      </trkpt>
      <trkpt lat="43.20869" lon="2.36841">
        <ele>121.2</ele>
        <time>2019-06-30T06:09:00.000Z</time>
      </trkpt>
      <trkpt lat="43.20869" lon="2.36845">
        <ele>121.3</ele>
        <time>2019-06-30T06:09:01.000Z</time>
      </trkpt>
      <trkpt lat="43.20869" lon="2.36848">
        <ele>121.3</ele>
        <time>2019-06-30T06:09:02.000Z</time>
      </trkpt>
      <trkpt lat="43.20869" lon="2.36851">
        <ele>121.3</ele>
        <time>2019-06-30T06:09:03.000Z</time>
      </trkpt>
      <trkpt lat="43.20869" lon="2.36855">
        <ele>121.4</ele>
        <time>2019-06-30T06:09:04.000Z</time>
      </trkpt>
      <trkpt lat="43.2087" lon="2.36858">
        <ele>121.4</ele>
        <time>2019-06-30T06:09:05.000Z</time>
      </trkpt>
      <trkpt lat="43.2087" lon="2.36862">
        <ele>121.4</ele>
        <time>2019-06-30T06:09:06.000Z</time>
      </trkpt>
      <trkpt lat="43.2087" lon="2.36865">
        <ele>121.5</ele>
        <time>2019-06-30T06:09:07.000Z</time>
      </trkpt>
      <trkpt lat="43.2087" lon="2.36869">
        <ele>121.5</ele>
        <time>2019-06-30T06:09:08.000Z</time>
      </trkpt>
      <trkpt lat="43.2087" lon="2.36872">
        <ele>121.5</ele>
        <time>2019-06-30T06:09:09.000Z</time>
      </trkpt>
      <trkpt lat="43.2087" lon="2.36876">
        <ele>121.6</ele>
        <time>2019-06-30T06:09:10.000Z</time>
      </trkpt>
      <trkpt lat="43.2087" lon="2.36879">
        <ele>121.6</ele>
        <time>2019-06-30T06:09:11.000Z</time>
      </trkpt>
      <trkpt lat="43.2087" lon="2.36883">
        <ele>121.6</ele>
        <time>2019-06-30T06:09:12.000Z</time>
      </trkpt>
      <trkpt lat="43.20871" lon="2.36886">
        <ele>121.7</ele>
        <time>2019-06-30T06:09:13.000Z</time>
      </trkpt>
      <trkpt lat="43.20871" lon="2.3689">
        <ele>121.7</ele>
        <time>2019-06-30T06:09:14.000Z</time>
      </trkpt>
      <trkpt lat="43.20871" lon="2.36894">
        <ele>121.7</ele>
        <time>2019-06-30T06:09:15.000Z</time>
      </trkpt>
      <trkpt lat="43.20872" lon="2.36897">
        <ele>121.8</ele>
        <time>2019-06-30T06:09:16.000Z</time>
      </trkpt>
      <trkpt lat="43.20872" lon="2.36901">
        <ele>121.8</ele>
        <time>2019-06-30T06:09:17.000Z</time>
      </trkpt>
      <trkpt lat="43.20873" lon="2.36904">
        <ele>121.9</ele>
        <time>2019-06-30T06:09:18.000Z</time>
      </trkpt>
      <trkpt lat="43.20873" lon="2.36908">
        <ele>121.9</ele>
        <time>2019-06-30T06:09:19.000Z</time>
      </trkpt>
      <trkpt lat="43.20874" lon="2.36912">
        <ele>121.9</ele>
        <time>2019-06-30T06:09:20.000Z</time>
      </trkpt>
      <trkpt lat="43.20874" lon="2.36915">
        <ele>122</ele>
        <time>2019-06-30T06:09:21.000Z</time>
      </trkpt>
      <trkpt lat="43.20874" lon="2.36919">
        <ele>122</ele>
        <time>2019-06-30T06:09:22.000Z</time>
      </trkpt>
      <trkpt lat="43.20875" lon="2.36922">
        <ele>122</ele>
        <time>2019-06-30T06:09:23.000Z</time>
      </trkpt>
      <trkpt lat="43.20875" lon="2.36926">
        <ele>122</ele>
        <time>2019-06-30T06:09:24.000Z</time>
      </trkpt>
      <trkpt lat="43.20876" lon="2.36929">
        <ele>122</ele>
        <time>2019-06-30T06:09:25.000Z</time>
      </trkpt>
      <trkpt lat="43.20876" lon="2.36932">
        <ele>122</ele>
        <time>2019-06-30T06:09:26.000Z</time>
      </trkpt>
      <trkpt lat="43.20876" lon="2.36936">
        <ele>122</ele>
        <time>2019-06-30T06:09:27.000Z</time>
      </trkpt>
      <trkpt lat="43.20876" lon="2.36939">
        <ele>122</ele>
        <time>2019-06-30T06:09:28.000Z</time>
      </trkpt>
      <trkpt lat="43.20876" lon="2.36942">
        <ele>122</ele>
        <time>2019-06-30T06:09:29.000Z</time>
      </trkpt>
      <trkpt lat="43.20876" lon="2.36945">
        <ele>122</ele>
        <time>2019-06-30T06:09:30.000Z</time>
      </trkpt>
      <trkpt lat="43.20875" lon="2.36948">
        <ele>122</ele>
        <time>2019-06-30T06:09:31.000Z</time>
      </trkpt>
      <trkpt lat="43.20875" lon="2.36951">
        <ele>122</ele>
        <time>2019-06-30T06:09:32.000Z</time>
      </trkpt>
      <trkpt lat="43.20873" lon="2.36953">
        <ele>122</ele>
        <time>2019-06-30T06:09:33.000Z</time>
      </trkpt>
      <trkpt lat="43.20872" lon="2.36955">
        <ele>122</ele>
        <time>2019-06-30T06:09:34.000Z</time>
      </trkpt>
      <trkpt lat="43.2087" lon="2.36957">
        <ele>122</ele>
        <time>2019-06-30T06:09:35.000Z</time>
      </trkpt>
      <trkpt lat="43.20868" lon="2.36959">
        <ele>122</ele>
        <time>2019-06-30T06:09:36.000Z</time>
      </trkpt>
      <trkpt lat="43.20866" lon="2.3696">
        <ele>122</ele>
        <time>2019-06-30T06:09:37.000Z</time>
      </trkpt>
      <trkpt lat="43.20864" lon="2.3696">
        <ele>122</ele>
        <time>2019-06-30T06:09:38.000Z</time>
      </trkpt>
      <trkpt lat="43.20863" lon="2.3696">
        <ele>122</ele>
        <time>2019-06-30T06:09:39.000Z</time>
      </trkpt>
      <trkpt lat="43.20861" lon="2.36959">
        <ele>122</ele>
        <time>2019-06-30T06:09:40.000Z</time>
      </trkpt>
      <trkpt lat="43.2086" lon="2.36958">
        <ele>122</ele>
        <time>2019-06-30T06:09:41.000Z</time>
      </trkpt>
      <trkpt lat="43.20859" lon="2.36957">
        <ele>122</ele>
        <time>2019-06-30T06:09:42.000Z</time>
      </trkpt>
      <trkpt lat="43.20858" lon="2.36957">
        <ele>122</ele>
        <time>2019-06-30T06:09:43.000Z</time>
      </trkpt>
      <trkpt lat="43.20857" lon="2.36956">
        <ele>122</ele>
        <time>2019-06-30T06:09:44.000Z</time>
      </trkpt>
      <trkpt lat="43.20857" lon="2.36957">
        <ele>122</ele>
        <time>2019-06-30T06:09:45.000Z</time>
      </trkpt>
      <trkpt lat="43.20856" lon="2.36957">
        <ele>122</ele>
        <time>2019-06-30T06:09:46.000Z</time>
      </trkpt>
      <trkpt lat="43.20855" lon="2.36957">
        <ele>122</ele>
        <time>2019-06-30T06:09:47.000Z</time>
      </trkpt>
      <trkpt lat="43.20854" lon="2.36956">
        <ele>122</ele>
        <time>2019-06-30T06:09:48.000Z</time>
      </trkpt>
      <trkpt lat="43.20852" lon="2.36955">
        <ele>122</ele>
        <time>2019-06-30T06:09:49.000Z</time>
      </trkpt>
      <trkpt lat="43.20851" lon="2.36953">
        <ele>122</ele>
        <time>2019-06-30T06:09:50.000Z</time>
      </trkpt>
      <trkpt lat="43.20849" lon="2.36952">
        <ele>122</ele>
        <time>2019-06-30T06:09:51.000Z</time>
      </trkpt>
      <trkpt lat="43.20848" lon="2.3695">
        <ele>122</ele>
        <time>2019-06-30T06:09:52.000Z</time>
      </trkpt>
      <trkpt lat="43.20846" lon="2.36949">
        <ele>122</ele>
        <time>2019-06-30T06:09:53.000Z</time>
      </trkpt>
      <trkpt lat="43.20845" lon="2.36947">
        <ele>122</ele>
        <time>2019-06-30T06:09:54.000Z</time>
      </trkpt>
      <trkpt lat="43.20844" lon="2.36946">
        <ele>122</ele>
        <time>2019-06-30T06:09:55.000Z</time>
      </trkpt>
      <trkpt lat="43.20842" lon="2.36945">
        <ele>122</ele>
        <time>2019-06-30T06:09:56.000Z</time>
      </trkpt>
      <trkpt lat="43.20841" lon="2.36944">
        <ele>122</ele>
        <time>2019-06-30T06:09:57.000Z</time>
      </trkpt>
      <trkpt lat="43.2084" lon="2.36943">
        <ele>122</ele>
        <time>2019-06-30T06:09:58.000Z</time>
      </trkpt>
      <trkpt lat="43.20838" lon="2.36942">
        <ele>122</ele>
        <time>2019-06-30T06:09:59.000Z</time>
      </trkpt>
      <trkpt lat="43.20837" lon="2.36941">
        <ele>122</ele>
        <time>2019-06-30T06:10:00.000Z</time>
      </trkpt>
      <trkpt lat="43.20835" lon="2.3694">
        <ele>122</ele>
        <time>2019-06-30T06:10:01.000Z</time>
      </trkpt>
      <trkpt lat="43.20834" lon="2.36939">
        <ele>122</ele>
        <time>2019-06-30T06:10:02.000Z</time>
      </trkpt>
      <trkpt lat="43.20833" lon="2.36937">
        <ele>122</ele>
        <time>2019-06-30T06:10:03.000Z</time>
      </trkpt>
      <trkpt lat="43.20831" lon="2.36936">
        <ele>122.1</ele>
        <time>2019-06-30T06:10:04.000Z</time>
      </trkpt>
      <trkpt lat="43.2083" lon="2.36935">
        <ele>122.1</ele>
        <time>2019-06-30T06:10:05.000Z</time>
      </trkpt>
      <trkpt lat="43.20828" lon="2.36934">
        <ele>122.2</ele>
        <time>2019-06-30T06:10:06.000Z</time>
      </trkpt>
      <trkpt lat="43.20827" lon="2.36933">
        <ele>122.2</ele>
        <time>2019-06-30T06:10:07.000Z</time>
      </trkpt>
      <trkpt lat="43.20826" lon="2.36932">
        <ele>122.3</ele>
        <time>2019-06-30T06:10:08.000Z</time>
      </trkpt>
      <trkpt lat="43.20824" lon="2.36932">
        <ele>122.3</ele>
        <time>2019-06-30T06:10:09.000Z</time>
      </trkpt>
      <trkpt lat="43.20823" lon="2.36931">
        <ele>122.4</ele>
        <time>2019-06-30T06:10:10.000Z</time>
      </trkpt>
      <trkpt lat="43.20822" lon="2.3693">
        <ele>122.4</ele>
        <time>2019-06-30T06:10:11.000Z</time>
      </trkpt>
      <trkpt lat="43.2082" lon="2.3693">
        <ele>122.5</ele>
        <time>2019-06-30T06:10:12.000Z</time>
      </trkpt>
      <trkpt lat="43.20818" lon="2.36929">
        <ele>122.6</ele>
        <time>2019-06-30T06:10:13.000Z</time>
      </trkpt>
      <trkpt lat="43.20816" lon="2.36928">
        <ele>122.6</ele>
        <time>2019-06-30T06:10:14.000Z</time>
      </trkpt>
      <trkpt lat="43.20814" lon="2.36927">
        <ele>122.7</ele>
        <time>2019-06-30T06:10:15.000Z</time>
      </trkpt>
      <trkpt lat="43.20811" lon="2.36926">
        <ele>122.8</ele>
        <time>2019-06-30T06:10:16.000Z</time>
      </trkpt>
      <trkpt lat="43.20808" lon="2.36925">
        <ele>122.9</ele>
        <time>2019-06-30T06:10:17.000Z</time>
      </trkpt>
      <trkpt lat="43.20805" lon="2.36924">
        <ele>123</ele>
        <time>2019-06-30T06:10:18.000Z</time>
      </trkpt>
      <trkpt lat="43.20801" lon="2.36923">
        <ele>123.2</ele>
        <time>2019-06-30T06:10:19.000Z</time>
      </trkpt>
      <trkpt lat="43.20797" lon="2.36922">
        <ele>123.3</ele>
        <time>2019-06-30T06:10:20.000Z</time>
      </trkpt>
      <trkpt lat="43.20793" lon="2.3692">
        <ele>123.5</ele>
        <time>2019-06-30T06:10:21.000Z</time>
      </trkpt>
      <trkpt lat="43.20788" lon="2.36919">
        <ele>123.7</ele>
        <time>2019-06-30T06:10:22.000Z</time>
      </trkpt>
      <trkpt lat="43.20784" lon="2.36918">
        <ele>123.8</ele>
        <time>2019-06-30T06:10:23.000Z</time>
      </trkpt>
      <trkpt lat="43.2078" lon="2.36918">
        <ele>123.9</ele>
        <time>2019-06-30T06:10:24.000Z</time>
      </trkpt>
      <trkpt lat="43.20778" lon="2.36918">
        <ele>124</ele>
        <time>2019-06-30T06:10:25.000Z</time>
      </trkpt>
      <trkpt lat="43.20775" lon="2.36917">
        <ele>124.1</ele>
        <time>2019-06-30T06:10:26.000Z</time>
      </trkpt>
      <trkpt lat="43.20772" lon="2.36917">
        <ele>124.2</ele>
        <time>2019-06-30T06:10:27.000Z</time>
      </trkpt>
      <trkpt lat="43.2077" lon="2.36916">
        <ele>124.3</ele>
        <time>2019-06-30T06:10:28.000Z</time>
      </trkpt>
      <trkpt lat="43.20767" lon="2.36915">
        <ele>124.4</ele>
        <time>2019-06-30T06:10:29.000Z</time>
      </trkpt>
      <trkpt lat="43.20765" lon="2.36913">
        <ele>124.4</ele>
        <time>2019-06-30T06:10:30.000Z</time>
      </trkpt>
      <trkpt lat="43.20763" lon="2.36912">
        <ele>124.4</ele>
        <time>2019-06-30T06:10:31.000Z</time>
      </trkpt>
      <trkpt lat="43.20761" lon="2.36911">
        <ele>124.5</ele>
        <time>2019-06-30T06:10:32.000Z</time>
      </trkpt>
      <trkpt lat="43.20759" lon="2.3691">
        <ele>124.5</ele>
        <time>2019-06-30T06:10:33.000Z</time>
      </trkpt>
      <trkpt lat="43.20757" lon="2.36909">
        <ele>124.6</ele>
        <time>2019-06-30T06:10:34.000Z</time>
      </trkpt>
      <trkpt lat="43.20755" lon="2.36907">
        <ele>124.6</ele>
        <time>2019-06-30T06:10:35.000Z</time>
      </trkpt>
      <trkpt lat="43.20753" lon="2.36906">
        <ele>124.6</ele>
        <time>2019-06-30T06:10:36.000Z</time>
      </trkpt>
      <trkpt lat="43.20751" lon="2.36905">
        <ele>124.7</ele>
        <time>2019-06-30T06:10:37.000Z</time>
      </trkpt>
      <trkpt lat="43.20749" lon="2.36904">
        <ele>124.7</ele>
        <time>2019-06-30T06:10:38.000Z</time>
      </trkpt>
      <trkpt lat="43.20747" lon="2.36903">
        <ele>124.8</ele>
        <time>2019-06-30T06:10:39.000Z</time>
      </trkpt>
      <trkpt lat="43.20746" lon="2.36902">
        <ele>124.9</ele>
        <time>2019-06-30T06:10:40.000Z</time>
      </trkpt>
      <trkpt lat="43.20744" lon="2.36901">
        <ele>124.9</ele>
        <time>2019-06-30T06:10:41.000Z</time>
      </trkpt>
      <trkpt lat="43.20742" lon="2.36901">
        <ele>125</ele>
        <time>2019-06-30T06:10:42.000Z</time>
      </trkpt>
      <trkpt lat="43.20741" lon="2.36902">
        <ele>125.1</ele>
        <time>2019-06-30T06:10:43.000Z</time>
      </trkpt>
      <trkpt lat="43.20739" lon="2.36903">
        <ele>125.2</ele>
        <time>2019-06-30T06:10:44.000Z</time>
      </trkpt>
      <trkpt lat="43.20738" lon="2.36904">
        <ele>125.3</ele>
        <time>2019-06-30T06:10:45.000Z</time>
      </trkpt>
      <trkpt lat="43.20737" lon="2.36906">
        <ele>125.4</ele>
        <time>2019-06-30T06:10:46.000Z</time>
      </trkpt>
      <trkpt lat="43.20736" lon="2.36908">
        <ele>125.5</ele>
        <time>2019-06-30T06:10:47.000Z</time>
      </trkpt>
      <trkpt lat="43.20735" lon="2.3691">
        <ele>125.5</ele>
        <time>2019-06-30T06:10:48.000Z</time>
      </trkpt>
      <trkpt lat="43.20735" lon="2.36913">
        <ele>125.6</ele>
        <time>2019-06-30T06:10:49.000Z</time>
      </trkpt>
      <trkpt lat="43.20734" lon="2.36915">
        <ele>125.7</ele>
        <time>2019-06-30T06:10:50.000Z</time>
      </trkpt>
      <trkpt lat="43.20733" lon="2.36918">
        <ele>125.8</ele>
        <time>2019-06-30T06:10:51.000Z</time>
      </trkpt>
      <trkpt lat="43.20733" lon="2.3692">
        <ele>125.9</ele>
        <time>2019-06-30T06:10:52.000Z</time>
      </trkpt>
      <trkpt lat="43.20732" lon="2.36923">
        <ele>126</ele>
        <time>2019-06-30T06:10:53.000Z</time>
      </trkpt>
      <trkpt lat="43.20731" lon="2.36926">
        <ele>126.1</ele>
        <time>2019-06-30T06:10:54.000Z</time>
      </trkpt>
      <trkpt lat="43.20731" lon="2.36929">
        <ele>126.1</ele>
        <time>2019-06-30T06:10:55.000Z</time>
      </trkpt>
      <trkpt lat="43.20731" lon="2.36932">
        <ele>126.2</ele>
        <time>2019-06-30T06:10:56.000Z</time>
      </trkpt>
      <trkpt lat="43.2073" lon="2.36935">
        <ele>126.3</ele>
        <time>2019-06-30T06:10:57.000Z</time>
      </trkpt>
      <trkpt lat="43.2073" lon="2.36938">
        <ele>126.4</ele>
        <time>2019-06-30T06:10:58.000Z</time>
      </trkpt>
      <trkpt lat="43.20729" lon="2.36942">
        <ele>126.4</ele>
        <time>2019-06-30T06:10:59.000Z</time>
      </trkpt>
      <trkpt lat="43.20729" lon="2.36945">
        <ele>126.5</ele>
        <time>2019-06-30T06:11:00.000Z</time>
      </trkpt>
      <trkpt lat="43.20729" lon="2.36949">
        <ele>126.6</ele>
        <time>2019-06-30T06:11:01.000Z</time>
      </trkpt>
      <trkpt lat="43.20728" lon="2.36952">
        <ele>126.7</ele>
        <time>2019-06-30T06:11:02.000Z</time>
      </trkpt>
      <trkpt lat="43.20728" lon="2.36956">
        <ele>126.8</ele>
        <time>2019-06-30T06:11:03.000Z</time>
      </trkpt>
      <trkpt lat="43.20728" lon="2.3696">
        <ele>126.8</ele>
        <time>2019-06-30T06:11:04.000Z</time>
      </trkpt>
      <trkpt lat="43.20728" lon="2.36963">
        <ele>126.9</ele>
        <time>2019-06-30T06:11:05.000Z</time>
      </trkpt>
      <trkpt lat="43.20728" lon="2.36967">
        <ele>127</ele>
        <time>2019-06-30T06:11:06.000Z</time>
      </trkpt>
      <trkpt lat="43.20728" lon="2.36971">
        <ele>127</ele>
        <time>2019-06-30T06:11:07.000Z</time>
      </trkpt>
      <trkpt lat="43.20728" lon="2.36974">
        <ele>127.1</ele>
        <time>2019-06-30T06:11:08.000Z</time>
      </trkpt>
      <trkpt lat="43.20729" lon="2.36978">
        <ele>127.1</ele>
        <time>2019-06-30T06:11:09.000Z</time>
      </trkpt>
      <trkpt lat="43.20729" lon="2.36981">
        <ele>127.2</ele>
        <time>2019-06-30T06:11:10.000Z</time>
      </trkpt>
      <trkpt lat="43.20729" lon="2.36985">
        <ele>127.2</ele>
        <time>2019-06-30T06:11:11.000Z</time>
      </trkpt>
      <trkpt lat="43.20729" lon="2.36988">
        <ele>127.3</ele>
        <time>2019-06-30T06:11:12.000Z</time>
      </trkpt>
      <trkpt lat="43.2073" lon="2.36992">
        <ele>127.3</ele>
        <time>2019-06-30T06:11:13.000Z</time>
      </trkpt>
      <trkpt lat="43.2073" lon="2.36995">
        <ele>127.4</ele>
        <time>2019-06-30T06:11:14.000Z</time>
      </trkpt>
      <trkpt lat="43.2073" lon="2.36999">
        <ele>127.4</ele>
        <time>2019-06-30T06:11:15.000Z</time>
      </trkpt>
      <trkpt lat="43.2073" lon="2.37002">
        <ele>127.3</ele>
        <time>2019-06-30T06:11:16.000Z</time>
      </trkpt>
      <trkpt lat="43.20731" lon="2.37006">
        <ele>127.2</ele>
        <time>2019-06-30T06:11:17.000Z</time>
      </trkpt>
      <trkpt lat="43.20731" lon="2.3701">
        <ele>127.1</ele>
        <time>2019-06-30T06:11:18.000Z</time>
      </trkpt>
      <trkpt lat="43.20731" lon="2.37013">
        <ele>126.9</ele>
        <time>2019-06-30T06:11:19.000Z</time>
      </trkpt>
      <trkpt lat="43.20732" lon="2.37017">
        <ele>126.8</ele>
        <time>2019-06-30T06:11:20.000Z</time>
      </trkpt>
      <trkpt lat="43.20732" lon="2.37021">
        <ele>126.6</ele>
        <time>2019-06-30T06:11:21.000Z</time>
      </trkpt>
      <trkpt lat="43.20732" lon="2.37024">
        <ele>126.5</ele>
        <time>2019-06-30T06:11:22.000Z</time>
      </trkpt>
      <trkpt lat="43.20733" lon="2.37028">
        <ele>126.3</ele>
        <time>2019-06-30T06:11:23.000Z</time>
      </trkpt>
      <trkpt lat="43.20733" lon="2.37032">
        <ele>126.2</ele>
        <time>2019-06-30T06:11:24.000Z</time>
      </trkpt>
      <trkpt lat="43.20733" lon="2.37036">
        <ele>126</ele>
        <time>2019-06-30T06:11:25.000Z</time>
      </trkpt>
      <trkpt lat="43.20734" lon="2.37039">
        <ele>125.9</ele>
        <time>2019-06-30T06:11:26.000Z</time>
      </trkpt>
      <trkpt lat="43.20734" lon="2.37043">
        <ele>125.7</ele>
        <time>2019-06-30T06:11:27.000Z</time>
      </trkpt>
      <trkpt lat="43.20735" lon="2.37047">
        <ele>125.5</ele>
        <time>2019-06-30T06:11:28.000Z</time>
      </trkpt>
      <trkpt lat="43.20735" lon="2.3705">
        <ele>125.4</ele>
        <time>2019-06-30T06:11:29.000Z</time>
      </trkpt>
      <trkpt lat="43.20736" lon="2.37054">
        <ele>125.2</ele>
        <time>2019-06-30T06:11:30.000Z</time>
      </trkpt>
      <trkpt lat="43.20737" lon="2.37058">
        <ele>125</ele>
        <time>2019-06-30T06:11:31.000Z</time>
      </trkpt>
      <trkpt lat="43.20737" lon="2.37061">
        <ele>124.9</ele>
        <time>2019-06-30T06:11:32.000Z</time>
      </trkpt>
      <trkpt lat="43.20737" lon="2.37065">
        <ele>124.7</ele>
        <time>2019-06-30T06:11:33.000Z</time>
      </trkpt>
      <trkpt lat="43.20738" lon="2.37068">
        <ele>124.6</ele>
        <time>2019-06-30T06:11:34.000Z</time>
      </trkpt>
      <trkpt lat="43.20738" lon="2.37072">
        <ele>124.4</ele>
        <time>2019-06-30T06:11:35.000Z</time>
      </trkpt>
      <trkpt lat="43.20738" lon="2.37075">
        <ele>124.3</ele>
        <time>2019-06-30T06:11:36.000Z</time>
      </trkpt>
      <trkpt lat="43.20738" lon="2.37079">
        <ele>124.2</ele>
        <time>2019-06-30T06:11:37.000Z</time>
      </trkpt>
      <trkpt lat="43.20738" lon="2.37082">
        <ele>124.1</ele>
        <time>2019-06-30T06:11:38.000Z</time>
      </trkpt>
      <trkpt lat="43.20738" lon="2.37086">
        <ele>124</ele>
        <time>2019-06-30T06:11:39.000Z</time>
      </trkpt>
      <trkpt lat="43.20738" lon="2.37089">
        <ele>123.9</ele>
        <time>2019-06-30T06:11:40.000Z</time>
      </trkpt>
      <trkpt lat="43.20738" lon="2.37093">
        <ele>123.9</ele>
        <time>2019-06-30T06:11:41.000Z</time>
      </trkpt>
      <trkpt lat="43.20738" lon="2.37096">
        <ele>123.8</ele>
        <time>2019-06-30T06:11:42.000Z</time>
      </trkpt>
      <trkpt lat="43.20738" lon="2.371">
        <ele>123.8</ele>
        <time>2019-06-30T06:11:43.000Z</time>
      </trkpt>
      <trkpt lat="43.20738" lon="2.37103">
        <ele>123.7</ele>
        <time>2019-06-30T06:11:44.000Z</time>
      </trkpt>
      <trkpt lat="43.20738" lon="2.37107">
        <ele>123.7</ele>
        <time>2019-06-30T06:11:45.000Z</time>
      </trkpt>
      <trkpt lat="43.20738" lon="2.3711">
        <ele>123.7</ele>
        <time>2019-06-30T06:11:46.000Z</time>
      </trkpt>
      <trkpt lat="43.20737" lon="2.37114">
        <ele>123.6</ele>
        <time>2019-06-30T06:11:47.000Z</time>
      </trkpt>
      <trkpt lat="43.20737" lon="2.37118">
        <ele>123.6</ele>
        <time>2019-06-30T06:11:48.000Z</time>
      </trkpt>
      <trkpt lat="43.20736" lon="2.37122">
        <ele>123.6</ele>
        <time>2019-06-30T06:11:49.000Z</time>
      </trkpt>
      <trkpt lat="43.20735" lon="2.37126">
        <ele>123.6</ele>
        <time>2019-06-30T06:11:50.000Z</time>
      </trkpt>
      <trkpt lat="43.20734" lon="2.3713">
        <ele>123.7</ele>
        <time>2019-06-30T06:11:51.000Z</time>
      </trkpt>
      <trkpt lat="43.20734" lon="2.37133">
        <ele>123.7</ele>
        <time>2019-06-30T06:11:52.000Z</time>
      </trkpt>
      <trkpt lat="43.20733" lon="2.37137">
        <ele>123.7</ele>
        <time>2019-06-30T06:11:53.000Z</time>
      </trkpt>
      <trkpt lat="43.20732" lon="2.37141">
        <ele>123.7</ele>
        <time>2019-06-30T06:11:54.000Z</time>
      </trkpt>
      <trkpt lat="43.20731" lon="2.37145">
        <ele>123.7</ele>
        <time>2019-06-30T06:11:55.000Z</time>
      </trkpt>
      <trkpt lat="43.2073" lon="2.37149">
        <ele>123.7</ele>
        <time>2019-06-30T06:11:56.000Z</time>
      </trkpt>
      <trkpt lat="43.2073" lon="2.37152">
        <ele>123.7</ele>
        <time>2019-06-30T06:11:57.000Z</time>
      </trkpt>
      <trkpt lat="43.20729" lon="2.37156">
        <ele>123.7</ele>
        <time>2019-06-30T06:11:58.000Z</time>
      </trkpt>
      <trkpt lat="43.20729" lon="2.37159">
        <ele>123.6</ele>
        <time>2019-06-30T06:11:59.000Z</time>
      </trkpt>
      <trkpt lat="43.20729" lon="2.37162">
        <ele>123.6</ele>
        <time>2019-06-30T06:12:00.000Z</time>
      </trkpt>
      <trkpt lat="43.20729" lon="2.37165">
        <ele>123.6</ele>
        <time>2019-06-30T06:12:01.000Z</time>
      </trkpt>
      <trkpt lat="43.20729" lon="2.37168">
        <ele>123.5</ele>
        <time>2019-06-30T06:12:02.000Z</time>
      </trkpt>
      <trkpt lat="43.20729" lon="2.37171">
        <ele>123.5</ele>
        <time>2019-06-30T06:12:03.000Z</time>
      </trkpt>
      <trkpt lat="43.20729" lon="2.37175">
        <ele>123.6</ele>
        <time>2019-06-30T06:12:04.000Z</time>
      </trkpt>
      <trkpt lat="43.20729" lon="2.37178">
        <ele>123.6</ele>
        <time>2019-06-30T06:12:05.000Z</time>
      </trkpt>
      <trkpt lat="43.20729" lon="2.37182">
        <ele>123.7</ele>
        <time>2019-06-30T06:12:06.000Z</time>
      </trkpt>
      <trkpt lat="43.20728" lon="2.37186">
        <ele>123.8</ele>
        <time>2019-06-30T06:12:07.000Z</time>
      </trkpt>
      <trkpt lat="43.20727" lon="2.3719">
        <ele>123.9</ele>
        <time>2019-06-30T06:12:08.000Z</time>
      </trkpt>
      <trkpt lat="43.20726" lon="2.37194">
        <ele>124</ele>
        <time>2019-06-30T06:12:09.000Z</time>
      </trkpt>
      <trkpt lat="43.20724" lon="2.37198">
        <ele>124.1</ele>
        <time>2019-06-30T06:12:10.000Z</time>
      </trkpt>
      <trkpt lat="43.20723" lon="2.37202">
        <ele>124.2</ele>
        <time>2019-06-30T06:12:11.000Z</time>
      </trkpt>
      <trkpt lat="43.20722" lon="2.37205">
        <ele>124.3</ele>
        <time>2019-06-30T06:12:12.000Z</time>
      </trkpt>
      <trkpt lat="43.20722" lon="2.37209">
        <ele>124.4</ele>
        <time>2019-06-30T06:12:13.000Z</time>
      </trkpt>
      <trkpt lat="43.20721" lon="2.37212">
        <ele>124.5</ele>
        <time>2019-06-30T06:12:14.000Z</time>
      </trkpt>
      <trkpt lat="43.2072" lon="2.37215">
        <ele>124.5</ele>
        <time>2019-06-30T06:12:15.000Z</time>
      </trkpt>
      <trkpt lat="43.20719" lon="2.37218">
        <ele>124.6</ele>
        <time>2019-06-30T06:12:16.000Z</time>
      </trkpt>
      <trkpt lat="43.20718" lon="2.37221">
        <ele>124.7</ele>
        <time>2019-06-30T06:12:17.000Z</time>
      </trkpt>
      <trkpt lat="43.20717" lon="2.37224">
        <ele>124.8</ele>
        <time>2019-06-30T06:12:18.000Z</time>
      </trkpt>
      <trkpt lat="43.20716" lon="2.37228">
        <ele>124.9</ele>
        <time>2019-06-30T06:12:19.000Z</time>
      </trkpt>
      <trkpt lat="43.20715" lon="2.37231">
        <ele>125</ele>
        <time>2019-06-30T06:12:20.000Z</time>
      </trkpt>
      <trkpt lat="43.20714" lon="2.37234">
        <ele>125.1</ele>
        <time>2019-06-30T06:12:21.000Z</time>
      </trkpt>
      <trkpt lat="43.20713" lon="2.37237">
        <ele>125.1</ele>
        <time>2019-06-30T06:12:22.000Z</time>
      </trkpt>
      <trkpt lat="43.20712" lon="2.37241">
        <ele>125.2</ele>
        <time>2019-06-30T06:12:23.000Z</time>
      </trkpt>
      <trkpt lat="43.20712" lon="2.37245">
        <ele>125.3</ele>
        <time>2019-06-30T06:12:24.000Z</time>
      </trkpt>
      <trkpt lat="43.20711" lon="2.37248">
        <ele>125.3</ele>
        <time>2019-06-30T06:12:25.000Z</time>
      </trkpt>
      <trkpt lat="43.20711" lon="2.37252">
        <ele>125.4</ele>
        <time>2019-06-30T06:12:26.000Z</time>
      </trkpt>
      <trkpt lat="43.2071" lon="2.37256">
        <ele>125.5</ele>
        <time>2019-06-30T06:12:27.000Z</time>
      </trkpt>
      <trkpt lat="43.2071" lon="2.37259">
        <ele>125.6</ele>
        <time>2019-06-30T06:12:28.000Z</time>
      </trkpt>
      <trkpt lat="43.20709" lon="2.37263">
        <ele>125.8</ele>
        <time>2019-06-30T06:12:29.000Z</time>
      </trkpt>
      <trkpt lat="43.20709" lon="2.37267">
        <ele>125.9</ele>
        <time>2019-06-30T06:12:30.000Z</time>
      </trkpt>
      <trkpt lat="43.20708" lon="2.3727">
        <ele>126</ele>
        <time>2019-06-30T06:12:31.000Z</time>
      </trkpt>
      <trkpt lat="43.20708" lon="2.37274">
        <ele>126.1</ele>
        <time>2019-06-30T06:12:32.000Z</time>
      </trkpt>
      <trkpt lat="43.20707" lon="2.37277">
        <ele>126.2</ele>
        <time>2019-06-30T06:12:33.000Z</time>
      </trkpt>
      <trkpt lat="43.20707" lon="2.3728">
        <ele>126.3</ele>
        <time>2019-06-30T06:12:34.000Z</time>
      </trkpt>
      <trkpt lat="43.20706" lon="2.37284">
        <ele>126.4</ele>
        <time>2019-06-30T06:12:35.000Z</time>
      </trkpt>
      <trkpt lat="43.20705" lon="2.37287">
        <ele>126.6</ele>
        <time>2019-06-30T06:12:36.000Z</time>
      </trkpt>
      <trkpt lat="43.20705" lon="2.3729">
        <ele>126.7</ele>
        <time>2019-06-30T06:12:37.000Z</time>
      </trkpt>
      <trkpt lat="43.20704" lon="2.37293">
        <ele>126.8</ele>
        <time>2019-06-30T06:12:38.000Z</time>
      </trkpt>
      <trkpt lat="43.20704" lon="2.37297">
        <ele>126.9</ele>
        <time>2019-06-30T06:12:39.000Z</time>
      </trkpt>
      <trkpt lat="43.20703" lon="2.373">
        <ele>127</ele>
        <time>2019-06-30T06:12:40.000Z</time>
      </trkpt>
      <trkpt lat="43.20703" lon="2.37303">
        <ele>127.1</ele>
        <time>2019-06-30T06:12:41.000Z</time>
      </trkpt>
      <trkpt lat="43.20703" lon="2.37306">
        <ele>127.2</ele>
        <time>2019-06-30T06:12:42.000Z</time>
      </trkpt>
      <trkpt lat="43.20702" lon="2.3731">
        <ele>127.3</ele>
        <time>2019-06-30T06:12:43.000Z</time>
      </trkpt>
      <trkpt lat="43.20702" lon="2.37313">
        <ele>127.4</ele>
        <time>2019-06-30T06:12:44.000Z</time>
      </trkpt>
      <trkpt lat="43.20702" lon="2.37316">
        <ele>127.5</ele>
        <time>2019-06-30T06:12:45.000Z</time>
      </trkpt>
      <trkpt lat="43.20701" lon="2.3732">
        <ele>127.6</ele>
        <time>2019-06-30T06:12:46.000Z</time>
      </trkpt>
      <trkpt lat="43.20701" lon="2.37323">
        <ele>127.7</ele>
        <time>2019-06-30T06:12:47.000Z</time>
      </trkpt>
      <trkpt lat="43.20701" lon="2.37326">
        <ele>127.8</ele>
        <time>2019-06-30T06:12:48.000Z</time>
      </trkpt>
      <trkpt lat="43.20701" lon="2.3733">
        <ele>127.9</ele>
        <time>2019-06-30T06:12:49.000Z</time>
      </trkpt>
      <trkpt lat="43.20701" lon="2.37333">
        <ele>128</ele>
        <time>2019-06-30T06:12:50.000Z</time>
      </trkpt>
      <trkpt lat="43.20701" lon="2.37337">
        <ele>128</ele>
        <time>2019-06-30T06:12:51.000Z</time>
      </trkpt>
      <trkpt lat="43.207" lon="2.3734">
        <ele>128</ele>
        <time>2019-06-30T06:12:52.000Z</time>
      </trkpt>
      <trkpt lat="43.207" lon="2.37343">
        <ele>128</ele>
        <time>2019-06-30T06:12:53.000Z</time>
      </trkpt>
      <trkpt lat="43.207" lon="2.37347">
        <ele>128</ele>
        <time>2019-06-30T06:12:54.000Z</time>
      </trkpt>
      <trkpt lat="43.207" lon="2.3735">
        <ele>128</ele>
        <time>2019-06-30T06:12:55.000Z</time>
      </trkpt>
      <trkpt lat="43.207" lon="2.37354">
        <ele>128</ele>
        <time>2019-06-30T06:12:56.000Z</time>
      </trkpt>
      <trkpt lat="43.20699" lon="2.37357">
        <ele>128</ele>
        <time>2019-06-30T06:12:57.000Z</time>
      </trkpt>
      <trkpt lat="43.20699" lon="2.3736">
        <ele>128.1</ele>
        <time>2019-06-30T06:12:58.000Z</time>
      </trkpt>
      <trkpt lat="43.20698" lon="2.37364">
        <ele>128.1</ele>
        <time>2019-06-30T06:12:59.000Z</time>
      </trkpt>
      <trkpt lat="43.20698" lon="2.37367">
        <ele>128.1</ele>
        <time>2019-06-30T06:13:00.000Z</time>
      </trkpt>
      <trkpt lat="43.20697" lon="2.3737">
        <ele>128.2</ele>
        <time>2019-06-30T06:13:01.000Z</time>
      </trkpt>
      <trkpt lat="43.20696" lon="2.37374">
        <ele>128.2</ele>
        <time>2019-06-30T06:13:02.000Z</time>
      </trkpt>
      <trkpt lat="43.20696" lon="2.37377">
        <ele>128.3</ele>
        <time>2019-06-30T06:13:03.000Z</time>
      </trkpt>
      <trkpt lat="43.20695" lon="2.3738">
        <ele>128.3</ele>
        <time>2019-06-30T06:13:04.000Z</time>
      </trkpt>
      <trkpt lat="43.20694" lon="2.37383">
        <ele>128.4</ele>
        <time>2019-06-30T06:13:05.000Z</time>
      </trkpt>
      <trkpt lat="43.20693" lon="2.37387">
        <ele>128.4</ele>
        <time>2019-06-30T06:13:06.000Z</time>
      </trkpt>
      <trkpt lat="43.20692" lon="2.3739">
        <ele>128.5</ele>
        <time>2019-06-30T06:13:07.000Z</time>
      </trkpt>
      <trkpt lat="43.20691" lon="2.37393">
        <ele>128.5</ele>
        <time>2019-06-30T06:13:08.000Z</time>
      </trkpt>
      <trkpt lat="43.20691" lon="2.37396">
        <ele>128.6</ele>
        <time>2019-06-30T06:13:09.000Z</time>
      </trkpt>
      <trkpt lat="43.2069" lon="2.37398">
        <ele>128.6</ele>
        <time>2019-06-30T06:13:10.000Z</time>
      </trkpt>
      <trkpt lat="43.20689" lon="2.37401">
        <ele>128.7</ele>
        <time>2019-06-30T06:13:11.000Z</time>
      </trkpt>
      <trkpt lat="43.20688" lon="2.37404">
        <ele>128.7</ele>
        <time>2019-06-30T06:13:12.000Z</time>
      </trkpt>
      <trkpt lat="43.20688" lon="2.37407">
        <ele>128.8</ele>
        <time>2019-06-30T06:13:13.000Z</time>
      </trkpt>
      <trkpt lat="43.20687" lon="2.3741">
        <ele>128.8</ele>
        <time>2019-06-30T06:13:14.000Z</time>
      </trkpt>
      <trkpt lat="43.20686" lon="2.37414">
        <ele>128.8</ele>
        <time>2019-06-30T06:13:15.000Z</time>
      </trkpt>
      <trkpt lat="43.20686" lon="2.37417">
        <ele>128.9</ele>
        <time>2019-06-30T06:13:16.000Z</time>
      </trkpt>
      <trkpt lat="43.20685" lon="2.3742">
        <ele>128.9</ele>
        <time>2019-06-30T06:13:17.000Z</time>
      </trkpt>
      <trkpt lat="43.20685" lon="2.37423">
        <ele>129</ele>
        <time>2019-06-30T06:13:18.000Z</time>
      </trkpt>
      <trkpt lat="43.20684" lon="2.37426">
        <ele>129.1</ele>
        <time>2019-06-30T06:13:19.000Z</time>
      </trkpt>
      <trkpt lat="43.20683" lon="2.37429">
        <ele>129.2</ele>
        <time>2019-06-30T06:13:20.000Z</time>
      </trkpt>
      <trkpt lat="43.20683" lon="2.37432">
        <ele>129.2</ele>
        <time>2019-06-30T06:13:21.000Z</time>
      </trkpt>
      <trkpt lat="43.20682" lon="2.37435">
        <ele>129.3</ele>
        <time>2019-06-30T06:13:22.000Z</time>
      </trkpt>
      <trkpt lat="43.20681" lon="2.37438">
        <ele>129.4</ele>
        <time>2019-06-30T06:13:23.000Z</time>
      </trkpt>
      <trkpt lat="43.2068" lon="2.37442">
        <ele>129.5</ele>
        <time>2019-06-30T06:13:24.000Z</time>
      </trkpt>
      <trkpt lat="43.20679" lon="2.37445">
        <ele>129.6</ele>
        <time>2019-06-30T06:13:25.000Z</time>
      </trkpt>
      <trkpt lat="43.20678" lon="2.37448">
        <ele>129.7</ele>
        <time>2019-06-30T06:13:26.000Z</time>
      </trkpt>
      <trkpt lat="43.20676" lon="2.37451">
        <ele>129.8</ele>
        <time>2019-06-30T06:13:27.000Z</time>
      </trkpt>
      <trkpt lat="43.20675" lon="2.37454">
        <ele>129.9</ele>
        <time>2019-06-30T06:13:28.000Z</time>
      </trkpt>
      <trkpt lat="43.20674" lon="2.37457">
        <ele>130.1</ele>
        <time>2019-06-30T06:13:29.000Z</time>
      </trkpt>
      <trkpt lat="43.20672" lon="2.3746">
        <ele>130.2</ele>
        <time>2019-06-30T06:13:30.000Z</time>
      </trkpt>
      <trkpt lat="43.20671" lon="2.37463">
        <ele>130.3</ele>
        <time>2019-06-30T06:13:31.000Z</time>
      </trkpt>
      <trkpt lat="43.20669" lon="2.37465">
        <ele>130.4</ele>
        <time>2019-06-30T06:13:32.000Z</time>
      </trkpt>
      <trkpt lat="43.20668" lon="2.37468">
        <ele>130.6</ele>
        <time>2019-06-30T06:13:33.000Z</time>
      </trkpt>
      <trkpt lat="43.20666" lon="2.37471">
        <ele>130.7</ele>
        <time>2019-06-30T06:13:34.000Z</time>
      </trkpt>
      <trkpt lat="43.20665" lon="2.37474">
        <ele>130.8</ele>
        <time>2019-06-30T06:13:35.000Z</time>
      </trkpt>
      <trkpt lat="43.20664" lon="2.37477">
        <ele>130.9</ele>
        <time>2019-06-30T06:13:36.000Z</time>
      </trkpt>
      <trkpt lat="43.20663" lon="2.3748">
        <ele>131</ele>
        <time>2019-06-30T06:13:37.000Z</time>
      </trkpt>
      <trkpt lat="43.20662" lon="2.37482">
        <ele>131.1</ele>
        <time>2019-06-30T06:13:38.000Z</time>
      </trkpt>
      <trkpt lat="43.2066" lon="2.37485">
        <ele>131.2</ele>
        <time>2019-06-30T06:13:39.000Z</time>
      </trkpt>
      <trkpt lat="43.20659" lon="2.37488">
        <ele>131.4</ele>
        <time>2019-06-30T06:13:40.000Z</time>
      </trkpt>
      <trkpt lat="43.20658" lon="2.37491">
        <ele>131.5</ele>
        <time>2019-06-30T06:13:41.000Z</time>
      </trkpt>
      <trkpt lat="43.20656" lon="2.37494">
        <ele>131.6</ele>
        <time>2019-06-30T06:13:42.000Z</time>
      </trkpt>
      <trkpt lat="43.20655" lon="2.37497">
        <ele>131.7</ele>
        <time>2019-06-30T06:13:43.000Z</time>
      </trkpt>
      <trkpt lat="43.20653" lon="2.37499">
        <ele>131.8</ele>
        <time>2019-06-30T06:13:44.000Z</time>
      </trkpt>
      <trkpt lat="43.20652" lon="2.37501">
        <ele>131.9</ele>
        <time>2019-06-30T06:13:45.000Z</time>
      </trkpt>
      <trkpt lat="43.20651" lon="2.37503">
        <ele>131.9</ele>
        <time>2019-06-30T06:13:46.000Z</time>
      </trkpt>
      <trkpt lat="43.2065" lon="2.37504">
        <ele>132</ele>
        <time>2019-06-30T06:13:47.000Z</time>
      </trkpt>
      <trkpt lat="43.20649" lon="2.37506">
        <ele>132.1</ele>
        <time>2019-06-30T06:13:48.000Z</time>
      </trkpt>
      <trkpt lat="43.20648" lon="2.37507">
        <ele>132.1</ele>
        <time>2019-06-30T06:13:49.000Z</time>
      </trkpt>
      <trkpt lat="43.20647" lon="2.37508">
        <ele>132.2</ele>
        <time>2019-06-30T06:13:50.000Z</time>
      </trkpt>
      <trkpt lat="43.20646" lon="2.3751">
        <ele>132.3</ele>
        <time>2019-06-30T06:13:51.000Z</time>
      </trkpt>
      <trkpt lat="43.20645" lon="2.37511">
        <ele>132.3</ele>
        <time>2019-06-30T06:13:52.000Z</time>
      </trkpt>
      <trkpt lat="43.20643" lon="2.37513">
        <ele>132.4</ele>
        <time>2019-06-30T06:13:53.000Z</time>
      </trkpt>
      <trkpt lat="43.20642" lon="2.37514">
        <ele>132.5</ele>
        <time>2019-06-30T06:13:54.000Z</time>
      </trkpt>
      <trkpt lat="43.20641" lon="2.37515">
        <ele>132.6</ele>
        <time>2019-06-30T06:13:55.000Z</time>
      </trkpt>
      <trkpt lat="43.2064" lon="2.37516">
        <ele>132.7</ele>
        <time>2019-06-30T06:13:56.000Z</time>
      </trkpt>
      <trkpt lat="43.20639" lon="2.37517">
        <ele>132.8</ele>
        <time>2019-06-30T06:13:57.000Z</time>
      </trkpt>
      <trkpt lat="43.20637" lon="2.37517">
        <ele>132.8</ele>
        <time>2019-06-30T06:13:58.000Z</time>
      </trkpt>
      <trkpt lat="43.20636" lon="2.37517">
        <ele>132.9</ele>
        <time>2019-06-30T06:13:59.000Z</time>
      </trkpt>
      <trkpt lat="43.20635" lon="2.37518">
        <ele>133</ele>
        <time>2019-06-30T06:14:00.000Z</time>
      </trkpt>
      <trkpt lat="43.20634" lon="2.37518">
        <ele>133.1</ele>
        <time>2019-06-30T06:14:01.000Z</time>
      </trkpt>
      <trkpt lat="43.20632" lon="2.37518">
        <ele>133.2</ele>
        <time>2019-06-30T06:14:02.000Z</time>
      </trkpt>
      <trkpt lat="43.20631" lon="2.37518">
        <ele>133.3</ele>
        <time>2019-06-30T06:14:03.000Z</time>
      </trkpt>
      <trkpt lat="43.2063" lon="2.37518">
        <ele>133.4</ele>
        <time>2019-06-30T06:14:04.000Z</time>
      </trkpt>
      <trkpt lat="43.20629" lon="2.37518">
        <ele>133.5</ele>
        <time>2019-06-30T06:14:05.000Z</time>
      </trkpt>
      <trkpt lat="43.20628" lon="2.37518">
        <ele>133.5</ele>
        <time>2019-06-30T06:14:06.000Z</time>
      </trkpt>
      <trkpt lat="43.20626" lon="2.37518">
        <ele>133.6</ele>
        <time>2019-06-30T06:14:07.000Z</time>
      </trkpt>
      <trkpt lat="43.20625" lon="2.37518">
        <ele>133.7</ele>
        <time>2019-06-30T06:14:08.000Z</time>
      </trkpt>
      <trkpt lat="43.20624" lon="2.37519">
        <ele>133.8</ele>
        <time>2019-06-30T06:14:09.000Z</time>
      </trkpt>
      <trkpt lat="43.20623" lon="2.37519">
        <ele>133.9</ele>
        <time>2019-06-30T06:14:10.000Z</time>
      </trkpt>
      <trkpt lat="43.20621" lon="2.3752">
        <ele>134</ele>
        <time>2019-06-30T06:14:11.000Z</time>
      </trkpt>
      <trkpt lat="43.2062" lon="2.3752">
        <ele>134.1</ele>
        <time>2019-06-30T06:14:12.000Z</time>
      </trkpt>
      <trkpt lat="43.20619" lon="2.3752">
        <ele>134.2</ele>
        <time>2019-06-30T06:14:13.000Z</time>
      </trkpt>
      <trkpt lat="43.20618" lon="2.37521">
        <ele>134.3</ele>
        <time>2019-06-30T06:14:14.000Z</time>
      </trkpt>
      <trkpt lat="43.20617" lon="2.37522">
        <ele>134.4</ele>
        <time>2019-06-30T06:14:15.000Z</time>
      </trkpt>
      <trkpt lat="43.20615" lon="2.37522">
        <ele>134.5</ele>
        <time>2019-06-30T06:14:16.000Z</time>
      </trkpt>
      <trkpt lat="43.20614" lon="2.37523">
        <ele>134.6</ele>
        <time>2019-06-30T06:14:17.000Z</time>
      </trkpt>
      <trkpt lat="43.20613" lon="2.37523">
        <ele>134.7</ele>
        <time>2019-06-30T06:14:18.000Z</time>
      </trkpt>
      <trkpt lat="43.20612" lon="2.37524">
        <ele>134.8</ele>
        <time>2019-06-30T06:14:19.000Z</time>
      </trkpt>
      <trkpt lat="43.2061" lon="2.37524">
        <ele>134.9</ele>
        <time>2019-06-30T06:14:20.000Z</time>
      </trkpt>
      <trkpt lat="43.20609" lon="2.37524">
        <ele>135</ele>
        <time>2019-06-30T06:14:21.000Z</time>
      </trkpt>
      <trkpt lat="43.20608" lon="2.37524">
        <ele>135.1</ele>
        <time>2019-06-30T06:14:22.000Z</time>
      </trkpt>
      <trkpt lat="43.20606" lon="2.37525">
        <ele>135.2</ele>
        <time>2019-06-30T06:14:23.000Z</time>
      </trkpt>
      <trkpt lat="43.20605" lon="2.37525">
        <ele>135.3</ele>
        <time>2019-06-30T06:14:24.000Z</time>
      </trkpt>
      <trkpt lat="43.20603" lon="2.37525">
        <ele>135.4</ele>
        <time>2019-06-30T06:14:25.000Z</time>
      </trkpt>
      <trkpt lat="43.20602" lon="2.37525">
        <ele>135.5</ele>
        <time>2019-06-30T06:14:26.000Z</time>
      </trkpt>
      <trkpt lat="43.206" lon="2.37525">
        <ele>135.6</ele>
        <time>2019-06-30T06:14:27.000Z</time>
      </trkpt>
      <trkpt lat="43.20599" lon="2.37525">
        <ele>135.7</ele>
        <time>2019-06-30T06:14:28.000Z</time>
      </trkpt>
      <trkpt lat="43.20598" lon="2.37525">
        <ele>135.8</ele>
        <time>2019-06-30T06:14:29.000Z</time>
      </trkpt>
      <trkpt lat="43.20596" lon="2.37525">
        <ele>135.9</ele>
        <time>2019-06-30T06:14:30.000Z</time>
      </trkpt>
      <trkpt lat="43.20595" lon="2.37525">
        <ele>136</ele>
        <time>2019-06-30T06:14:31.000Z</time>
      </trkpt>
      <trkpt lat="43.20594" lon="2.37526">
        <ele>136.1</ele>
        <time>2019-06-30T06:14:32.000Z</time>
      </trkpt>
      <trkpt lat="43.20593" lon="2.37526">
        <ele>136.2</ele>
        <time>2019-06-30T06:14:33.000Z</time>
      </trkpt>
      <trkpt lat="43.20592" lon="2.37527">
        <ele>136.3</ele>
        <time>2019-06-30T06:14:34.000Z</time>
      </trkpt>
      <trkpt lat="43.20591" lon="2.37527">
        <ele>136.4</ele>
        <time>2019-06-30T06:14:35.000Z</time>
      </trkpt>
      <trkpt lat="43.2059" lon="2.37528">
        <ele>136.5</ele>
        <time>2019-06-30T06:14:36.000Z</time>
      </trkpt>
      <trkpt lat="43.20589" lon="2.37529">
        <ele>136.6</ele>
        <time>2019-06-30T06:14:37.000Z</time>
      </trkpt>
      <trkpt lat="43.20588" lon="2.37529">
        <ele>136.7</ele>
        <time>2019-06-30T06:14:38.000Z</time>
      </trkpt>
      <trkpt lat="43.20587" lon="2.3753">
        <ele>136.8</ele>
        <time>2019-06-30T06:14:39.000Z</time>
      </trkpt>
      <trkpt lat="43.20587" lon="2.3753">
        <ele>136.8</ele>
        <time>2019-06-30T06:14:40.000Z</time>
      </trkpt>
      <trkpt lat="43.20586" lon="2.3753">
        <ele>136.9</ele>
        <time>2019-06-30T06:14:41.000Z</time>
      </trkpt>
      <trkpt lat="43.20585" lon="2.3753">
        <ele>136.9</ele>
        <time>2019-06-30T06:14:42.000Z</time>
      </trkpt>
      <trkpt lat="43.20585" lon="2.3753">
        <ele>137</ele>
        <time>2019-06-30T06:14:43.000Z</time>
      </trkpt>
      <trkpt lat="43.20585" lon="2.3753">
        <ele>137</ele>
        <time>2019-06-30T06:14:44.000Z</time>
      </trkpt>
      <trkpt lat="43.20585" lon="2.3753">
        <ele>137</ele>
        <time>2019-06-30T06:14:45.000Z</time>
      </trkpt>
      <trkpt lat="43.20584" lon="2.3753">
        <ele>137</ele>
        <time>2019-06-30T06:14:46.000Z</time>
      </trkpt>
      <trkpt lat="43.20584" lon="2.3753">
        <ele>137</ele>
        <time>2019-06-30T06:14:47.000Z</time>
      </trkpt>
      <trkpt lat="43.20584" lon="2.3753">
        <ele>137</ele>
        <time>2019-06-30T06:14:48.000Z</time>
      </trkpt>
      <trkpt lat="43.20584" lon="2.3753">
        <ele>137</ele>
        <time>2019-06-30T06:14:49.000Z</time>
      </trkpt>
      <trkpt lat="43.20584" lon="2.3753">
        <ele>137</ele>
        <time>2019-06-30T06:14:50.000Z</time>
      </trkpt>
      <trkpt lat="43.20584" lon="2.3753">
        <ele>137</ele>
        <time>2019-06-30T06:14:51.000Z</time>
      </trkpt>
      <trkpt lat="43.20584" lon="2.3753">
        <ele>137</ele>
        <time>2019-06-30T06:14:52.000Z</time>
      </trkpt>
      <trkpt lat="43.20584" lon="2.3753">
        <ele>137</ele>
        <time>2019-06-30T06:14:53.000Z</time>
      </trkpt>
      <trkpt lat="43.20584" lon="2.3753">
        <ele>137</ele>
        <time>2019-06-30T06:14:54.000Z</time>
      </trkpt>
      <trkpt lat="43.20584" lon="2.3753">
        <ele>137</ele>
        <time>2019-06-30T06:14:55.000Z</time>
      </trkpt>
      <trkpt lat="43.20584" lon="2.3753">
        <ele>137</ele>
        <time>2019-06-30T06:14:56.000Z</time>
      </trkpt>
      <trkpt lat="43.20584" lon="2.3753">
        <ele>137</ele>
        <time>2019-06-30T06:14:57.000Z</time>
      </trkpt>
      <trkpt lat="43.20584" lon="2.3753">
        <ele>137</ele>
        <time>2019-06-30T06:14:58.000Z</time>
      </trkpt>
      <trkpt lat="43.20584" lon="2.3753">
        <ele>137</ele>
        <time>2019-06-30T06:14:59.000Z</time>
      </trkpt>
      <trkpt lat="43.20584" lon="2.3753">
        <ele>137</ele>
        <time>2019-06-30T06:15:00.000Z</time>
      </trkpt>
      <trkpt lat="43.20584" lon="2.3753">
        <ele>137</ele>
        <time>2019-06-30T06:15:01.000Z</time>
      </trkpt>
      <trkpt lat="43.20584" lon="2.3753">
        <ele>137</ele>
        <time>2019-06-30T06:15:02.000Z</time>
      </trkpt>
      <trkpt lat="43.20584" lon="2.3753">
        <ele>137</ele>
        <time>2019-06-30T06:15:03.000Z</time>
      </trkpt>
      <trkpt lat="43.20584" lon="2.3753">
        <ele>137</ele>
        <time>2019-06-30T06:15:04.000Z</time>
      </trkpt>
      <trkpt lat="43.20584" lon="2.3753">
        <ele>137</ele>
        <time>2019-06-30T06:15:05.000Z</time>
      </trkpt>
      <trkpt lat="43.20584" lon="2.3753">
        <ele>137</ele>
        <time>2019-06-30T06:15:06.000Z</time>
      </trkpt>
      <trkpt lat="43.20584" lon="2.3753">
        <ele>137</ele>
        <time>2019-06-30T06:15:07.000Z</time>
      </trkpt>
      <trkpt lat="43.20584" lon="2.3753">
        <ele>137</ele>
        <time>2019-06-30T06:15:08.000Z</time>
      </trkpt>
      <trkpt lat="43.20584" lon="2.3753">
        <ele>137</ele>
        <time>2019-06-30T06:15:09.000Z</time>
      </trkpt>
      <trkpt lat="43.20584" lon="2.3753">
        <ele>137</ele>
        <time>2019-06-30T06:15:10.000Z</time>
      </trkpt>
      <trkpt lat="43.20584" lon="2.3753">
        <ele>137</ele>
        <time>2019-06-30T06:15:11.000Z</time>
      </trkpt>
      <trkpt lat="43.20584" lon="2.3753">
        <ele>137</ele>
        <time>2019-06-30T06:15:12.000Z</time>
      </trkpt>
      <trkpt lat="43.20584" lon="2.3753">
        <ele>137</ele>
        <time>2019-06-30T06:15:13.000Z</time>
      </trkpt>
      <trkpt lat="43.20584" lon="2.3753">
        <ele>137</ele>
        <time>2019-06-30T06:15:14.000Z</time>
      </trkpt>
      <trkpt lat="43.20584" lon="2.3753">
        <ele>137</ele>
        <time>2019-06-30T06:15:15.000Z</time>
      </trkpt>
      <trkpt lat="43.20584" lon="2.3753">
        <ele>137</ele>
        <time>2019-06-30T06:15:16.000Z</time>
      </trkpt>
      <trkpt lat="43.20584" lon="2.3753">
        <ele>137</ele>
        <time>2019-06-30T06:15:17.000Z</time>
      </trkpt>
      <trkpt lat="43.20584" lon="2.3753">
        <ele>137</ele>
        <time>2019-06-30T06:15:18.000Z</time>
      </trkpt>
      <trkpt lat="43.20584" lon="2.3753">
        <ele>137</ele>
        <time>2019-06-30T06:15:19.000Z</time>
      </trkpt>
      <trkpt lat="43.20584" lon="2.3753">
        <ele>137</ele>
        <time>2019-06-30T06:15:20.000Z</time>
      </trkpt>
      <trkpt lat="43.20584" lon="2.3753">
        <ele>137</ele>
        <time>2019-06-30T06:15:21.000Z</time>
      </trkpt>
      <trkpt lat="43.20584" lon="2.3753">
        <ele>137</ele>
        <time>2019-06-30T06:15:22.000Z</time>
      </trkpt>
      <trkpt lat="43.20584" lon="2.3753">
        <ele>137</ele>
        <time>2019-06-30T06:15:23.000Z</time>
      </trkpt>
      <trkpt lat="43.20584" lon="2.3753">
        <ele>137</ele>
        <time>2019-06-30T06:15:24.000Z</time>
      </trkpt>
      <trkpt lat="43.20584" lon="2.3753">
        <ele>137</ele>
        <time>2019-06-30T06:15:25.000Z</time>
      </trkpt>
      <trkpt lat="43.20584" lon="2.3753">
        <ele>137</ele>
        <time>2019-06-30T06:15:26.000Z</time>
      </trkpt>
      <trkpt lat="43.20584" lon="2.3753">
        <ele>137</ele>
        <time>2019-06-30T06:15:27.000Z</time>
      </trkpt>
      <trkpt lat="43.20584" lon="2.3753">
        <ele>137</ele>
        <time>2019-06-30T06:15:28.000Z</time>
      </trkpt>
      <trkpt lat="43.20584" lon="2.3753">
        <ele>137</ele>
        <time>2019-06-30T06:15:29.000Z</time>
      </trkpt>
      <trkpt lat="43.20584" lon="2.3753">
        <ele>137</ele>
        <time>2019-06-30T06:15:30.000Z</time>
      </trkpt>
      <trkpt lat="43.20584" lon="2.3753">
        <ele>137</ele>
        <time>2019-06-30T06:15:31.000Z</time>
      </trkpt>
      <trkpt lat="43.20584" lon="2.3753">
        <ele>137</ele>
        <time>2019-06-30T06:15:32.000Z</time>
      </trkpt>
      <trkpt lat="43.20584" lon="2.3753">
        <ele>137</ele>
        <time>2019-06-30T06:15:33.000Z</time>
      </trkpt>
      <trkpt lat="43.20584" lon="2.3753">
        <ele>137</ele>
        <time>2019-06-30T06:15:34.000Z</time>
      </trkpt>
      <trkpt lat="43.20584" lon="2.3753">
        <ele>137</ele>
        <time>2019-06-30T06:15:35.000Z</time>
      </trkpt>
      <trkpt lat="43.20584" lon="2.3753">
        <ele>137</ele>
        <time>2019-06-30T06:15:36.000Z</time>
      </trkpt>
      <trkpt lat="43.20584" lon="2.3753">
        <ele>137</ele>
        <time>2019-06-30T06:15:37.000Z</time>
      </trkpt>
      <trkpt lat="43.20584" lon="2.3753">
        <ele>137</ele>
        <time>2019-06-30T06:15:38.000Z</time>
      </trkpt>
      <trkpt lat="43.20584" lon="2.37531">
        <ele>137</ele>
        <time>2019-06-30T06:15:39.000Z</time>
      </trkpt>
      <trkpt lat="43.20584" lon="2.37531">
        <ele>137.1</ele>
        <time>2019-06-30T06:15:40.000Z</time>
      </trkpt>
      <trkpt lat="43.20584" lon="2.37532">
        <ele>137.1</ele>
        <time>2019-06-30T06:15:41.000Z</time>
      </trkpt>
      <trkpt lat="43.20584" lon="2.37533">
        <ele>137.2</ele>
        <time>2019-06-30T06:15:42.000Z</time>
      </trkpt>
      <trkpt lat="43.20584" lon="2.37534">
        <ele>137.2</ele>
        <time>2019-06-30T06:15:43.000Z</time>
      </trkpt>
      <trkpt lat="43.20583" lon="2.37536">
        <ele>137.3</ele>
        <time>2019-06-30T06:15:44.000Z</time>
      </trkpt>
      <trkpt lat="43.20583" lon="2.37537">
        <ele>137.3</ele>
        <time>2019-06-30T06:15:45.000Z</time>
      </trkpt>
      <trkpt lat="43.20583" lon="2.37539">
        <ele>137.4</ele>
        <time>2019-06-30T06:15:46.000Z</time>
      </trkpt>
      <trkpt lat="43.20583" lon="2.3754">
        <ele>137.5</ele>
        <time>2019-06-30T06:15:47.000Z</time>
      </trkpt>
      <trkpt lat="43.20583" lon="2.37542">
        <ele>137.5</ele>
        <time>2019-06-30T06:15:48.000Z</time>
      </trkpt>
      <trkpt lat="43.20583" lon="2.37544">
        <ele>137.6</ele>
        <time>2019-06-30T06:15:49.000Z</time>
      </trkpt>
      <trkpt lat="43.20583" lon="2.37546">
        <ele>137.7</ele>
        <time>2019-06-30T06:15:50.000Z</time>
      </trkpt>
      <trkpt lat="43.20583" lon="2.37548">
        <ele>137.7</ele>
        <time>2019-06-30T06:15:51.000Z</time>
      </trkpt>
      <trkpt lat="43.20583" lon="2.37549">
        <ele>137.8</ele>
        <time>2019-06-30T06:15:52.000Z</time>
      </trkpt>
      <trkpt lat="43.20583" lon="2.37551">
        <ele>137.8</ele>
        <time>2019-06-30T06:15:53.000Z</time>
      </trkpt>
      <trkpt lat="43.20583" lon="2.37553">
        <ele>137.9</ele>
        <time>2019-06-30T06:15:54.000Z</time>
      </trkpt>
      <trkpt lat="43.20584" lon="2.37554">
        <ele>137.9</ele>
        <time>2019-06-30T06:15:55.000Z</time>
      </trkpt>
      <trkpt lat="43.20584" lon="2.37556">
        <ele>138</ele>
        <time>2019-06-30T06:15:56.000Z</time>
      </trkpt>
      <trkpt lat="43.20584" lon="2.37557">
        <ele>138</ele>
        <time>2019-06-30T06:15:57.000Z</time>
      </trkpt>
      <trkpt lat="43.20584" lon="2.37558">
        <ele>138</ele>
        <time>2019-06-30T06:15:58.000Z</time>
      </trkpt>
      <trkpt lat="43.20585" lon="2.3756">
        <ele>138</ele>
        <time>2019-06-30T06:15:59.000Z</time>
      </trkpt>
      <trkpt lat="43.20585" lon="2.37561">
        <ele>138</ele>
        <time>2019-06-30T06:16:00.000Z</time>
      </trkpt>
      <trkpt lat="43.20585" lon="2.37563">
        <ele>138.1</ele>
        <time>2019-06-30T06:16:01.000Z</time>
      </trkpt>
      <trkpt lat="43.20586" lon="2.37564">
        <ele>138.1</ele>
        <time>2019-06-30T06:16:02.000Z</time>
      </trkpt>
      <trkpt lat="43.20586" lon="2.37566">
        <ele>138.1</ele>
        <time>2019-06-30T06:16:03.000Z</time>
      </trkpt>
      <trkpt lat="43.20586" lon="2.37567">
        <ele>138.1</ele>
        <time>2019-06-30T06:16:04.000Z</time>
      </trkpt>
      <trkpt lat="43.20586" lon="2.37569">
        <ele>138.2</ele>
        <time>2019-06-30T06:16:05.000Z</time>
      </trkpt>
      <trkpt lat="43.20587" lon="2.37571">
        <ele>138.2</ele>
        <time>2019-06-30T06:16:06.000Z</time>
      </trkpt>
      <trkpt lat="43.20587" lon="2.37573">
        <ele>138.3</ele>
        <time>2019-06-30T06:16:07.000Z</time>
      </trkpt>
      <trkpt lat="43.20587" lon="2.37575">
        <ele>138.3</ele>
        <time>2019-06-30T06:16:08.000Z</time>
      </trkpt>
      <trkpt lat="43.20587" lon="2.37576">
        <ele>138.4</ele>
        <time>2019-06-30T06:16:09.000Z</time>
      </trkpt>
      <trkpt lat="43.20587" lon="2.37578">
        <ele>138.4</ele>
        <time>2019-06-30T06:16:10.000Z</time>
      </trkpt>
      <trkpt lat="43.20587" lon="2.3758">
        <ele>138.5</ele>
        <time>2019-06-30T06:16:11.000Z</time>
      </trkpt>
      <trkpt lat="43.20587" lon="2.37582">
        <ele>138.5</ele>
        <time>2019-06-30T06:16:12.000Z</time>
      </trkpt>
      <trkpt lat="43.20587" lon="2.37584">
        <ele>138.6</ele>
        <time>2019-06-30T06:16:13.000Z</time>
      </trkpt>
      <trkpt lat="43.20587" lon="2.37586">
        <ele>138.6</ele>
        <time>2019-06-30T06:16:14.000Z</time>
      </trkpt>
      <trkpt lat="43.20587" lon="2.37588">
        <ele>138.6</ele>
        <time>2019-06-30T06:16:15.000Z</time>
      </trkpt>
      <trkpt lat="43.20587" lon="2.37589">
        <ele>138.6</ele>
        <time>2019-06-30T06:16:16.000Z</time>
      </trkpt>
      <trkpt lat="43.20587" lon="2.37591">
        <ele>138.6</ele>
        <time>2019-06-30T06:16:17.000Z</time>
      </trkpt>
      <trkpt lat="43.20587" lon="2.37593">
        <ele>138.6</ele>
        <time>2019-06-30T06:16:18.000Z</time>
      </trkpt>
      <trkpt lat="43.20587" lon="2.37595">
        <ele>138.6</ele>
        <time>2019-06-30T06:16:19.000Z</time>
      </trkpt>
      <trkpt lat="43.20587" lon="2.37596">
        <ele>138.6</ele>
        <time>2019-06-30T06:16:20.000Z</time>
      </trkpt>
      <trkpt lat="43.20587" lon="2.37598">
        <ele>138.6</ele>
        <time>2019-06-30T06:16:21.000Z</time>
      </trkpt>
      <trkpt lat="43.20587" lon="2.376">
        <ele>138.6</ele>
        <time>2019-06-30T06:16:22.000Z</time>
      </trkpt>
      <trkpt lat="43.20587" lon="2.37601">
        <ele>138.6</ele>
        <time>2019-06-30T06:16:23.000Z</time>
      </trkpt>
      <trkpt lat="43.20587" lon="2.37603">
        <ele>138.6</ele>
        <time>2019-06-30T06:16:24.000Z</time>
      </trkpt>
      <trkpt lat="43.20587" lon="2.37605">
        <ele>138.6</ele>
        <time>2019-06-30T06:16:25.000Z</time>
      </trkpt>
      <trkpt lat="43.20586" lon="2.37606">
        <ele>138.7</ele>
        <time>2019-06-30T06:16:26.000Z</time>
      </trkpt>
      <trkpt lat="43.20586" lon="2.37608">
        <ele>138.7</ele>
        <time>2019-06-30T06:16:27.000Z</time>
      </trkpt>
      <trkpt lat="43.20586" lon="2.3761">
        <ele>138.7</ele>
        <time>2019-06-30T06:16:28.000Z</time>
      </trkpt>
      <trkpt lat="43.20586" lon="2.37611">
        <ele>138.7</ele>
        <time>2019-06-30T06:16:29.000Z</time>
      </trkpt>
      <trkpt lat="43.20586" lon="2.37613">
        <ele>138.7</ele>
        <time>2019-06-30T06:16:30.000Z</time>
      </trkpt>
      <trkpt lat="43.20586" lon="2.37615">
        <ele>138.7</ele>
        <time>2019-06-30T06:16:31.000Z</time>
      </trkpt>
      <trkpt lat="43.20586" lon="2.37616">
        <ele>138.7</ele>
        <time>2019-06-30T06:16:32.000Z</time>
      </trkpt>
      <trkpt lat="43.20586" lon="2.37618">
        <ele>138.7</ele>
        <time>2019-06-30T06:16:33.000Z</time>
      </trkpt>
      <trkpt lat="43.20586" lon="2.3762">
        <ele>138.8</ele>
        <time>2019-06-30T06:16:34.000Z</time>
      </trkpt>
      <trkpt lat="43.20585" lon="2.37621">
        <ele>138.8</ele>
        <time>2019-06-30T06:16:35.000Z</time>
      </trkpt>
      <trkpt lat="43.20585" lon="2.37623">
        <ele>138.8</ele>
        <time>2019-06-30T06:16:36.000Z</time>
      </trkpt>
      <trkpt lat="43.20585" lon="2.37625">
        <ele>138.8</ele>
        <time>2019-06-30T06:16:37.000Z</time>
      </trkpt>
      <trkpt lat="43.20585" lon="2.37627">
        <ele>138.8</ele>
        <time>2019-06-30T06:16:38.000Z</time>
      </trkpt>
      <trkpt lat="43.20585" lon="2.37628">
        <ele>138.8</ele>
        <time>2019-06-30T06:16:39.000Z</time>
      </trkpt>
      <trkpt lat="43.20585" lon="2.3763">
        <ele>138.8</ele>
        <time>2019-06-30T06:16:40.000Z</time>
      </trkpt>
      <trkpt lat="43.20585" lon="2.37632">
        <ele>138.8</ele>
        <time>2019-06-30T06:16:41.000Z</time>
      </trkpt>
      <trkpt lat="43.20585" lon="2.37633">
        <ele>138.8</ele>
        <time>2019-06-30T06:16:42.000Z</time>
      </trkpt>
      <trkpt lat="43.20585" lon="2.37635">
        <ele>138.9</ele>
        <time>2019-06-30T06:16:43.000Z</time>
      </trkpt>
      <trkpt lat="43.20585" lon="2.37637">
        <ele>138.9</ele>
        <time>2019-06-30T06:16:44.000Z</time>
      </trkpt>
      <trkpt lat="43.20584" lon="2.37638">
        <ele>138.9</ele>
        <time>2019-06-30T06:16:45.000Z</time>
      </trkpt>
      <trkpt lat="43.20584" lon="2.3764">
        <ele>138.9</ele>
        <time>2019-06-30T06:16:46.000Z</time>
      </trkpt>
      <trkpt lat="43.20584" lon="2.37642">
        <ele>138.9</ele>
        <time>2019-06-30T06:16:47.000Z</time>
      </trkpt>
      <trkpt lat="43.20584" lon="2.37644">
        <ele>138.9</ele>
        <time>2019-06-30T06:16:48.000Z</time>
      </trkpt>
      <trkpt lat="43.20584" lon="2.37645">
        <ele>139</ele>
        <time>2019-06-30T06:16:49.000Z</time>
      </trkpt>
      <trkpt lat="43.20584" lon="2.37647">
        <ele>139</ele>
        <time>2019-06-30T06:16:50.000Z</time>
      </trkpt>
      <trkpt lat="43.20583" lon="2.3765">
        <ele>139</ele>
        <time>2019-06-30T06:16:51.000Z</time>
      </trkpt>
      <trkpt lat="43.20583" lon="2.37652">
        <ele>139</ele>
        <time>2019-06-30T06:16:52.000Z</time>
      </trkpt>
      <trkpt lat="43.20582" lon="2.37654">
        <ele>139.1</ele>
        <time>2019-06-30T06:16:53.000Z</time>
      </trkpt>
      <trkpt lat="43.20582" lon="2.37657">
        <ele>139.1</ele>
        <time>2019-06-30T06:16:54.000Z</time>
      </trkpt>
      <trkpt lat="43.20582" lon="2.3766">
        <ele>139.2</ele>
        <time>2019-06-30T06:16:55.000Z</time>
      </trkpt>
      <trkpt lat="43.20581" lon="2.37663">
        <ele>139.2</ele>
        <time>2019-06-30T06:16:56.000Z</time>
      </trkpt>
      <trkpt lat="43.20581" lon="2.37666">
        <ele>139.2</ele>
        <time>2019-06-30T06:16:57.000Z</time>
      </trkpt>
      <trkpt lat="43.2058" lon="2.37669">
        <ele>139.2</ele>
        <time>2019-06-30T06:16:58.000Z</time>
      </trkpt>
      <trkpt lat="43.2058" lon="2.37672">
        <ele>139.2</ele>
        <time>2019-06-30T06:16:59.000Z</time>
      </trkpt>
      <trkpt lat="43.20579" lon="2.37675">
        <ele>139.1</ele>
        <time>2019-06-30T06:17:00.000Z</time>
      </trkpt>
      <trkpt lat="43.20579" lon="2.37679">
        <ele>139.1</ele>
        <time>2019-06-30T06:17:01.000Z</time>
      </trkpt>
      <trkpt lat="43.20579" lon="2.37682">
        <ele>139</ele>
        <time>2019-06-30T06:17:02.000Z</time>
      </trkpt>
      <trkpt lat="43.20579" lon="2.37686">
        <ele>139</ele>
        <time>2019-06-30T06:17:03.000Z</time>
      </trkpt>
      <trkpt lat="43.20578" lon="2.37689">
        <ele>138.9</ele>
        <time>2019-06-30T06:17:04.000Z</time>
      </trkpt>
      <trkpt lat="43.20578" lon="2.37692">
        <ele>138.9</ele>
        <time>2019-06-30T06:17:05.000Z</time>
      </trkpt>
      <trkpt lat="43.20578" lon="2.37696">
        <ele>138.8</ele>
        <time>2019-06-30T06:17:06.000Z</time>
      </trkpt>
      <trkpt lat="43.20577" lon="2.37699">
        <ele>138.8</ele>
        <time>2019-06-30T06:17:07.000Z</time>
      </trkpt>
      <trkpt lat="43.20577" lon="2.37703">
        <ele>138.7</ele>
        <time>2019-06-30T06:17:08.000Z</time>
      </trkpt>
      <trkpt lat="43.20577" lon="2.37706">
        <ele>138.7</ele>
        <time>2019-06-30T06:17:09.000Z</time>
      </trkpt>
      <trkpt lat="43.20576" lon="2.3771">
        <ele>138.6</ele>
        <time>2019-06-30T06:17:10.000Z</time>
      </trkpt>
      <trkpt lat="43.20576" lon="2.37713">
        <ele>138.6</ele>
        <time>2019-06-30T06:17:11.000Z</time>
      </trkpt>
      <trkpt lat="43.20575" lon="2.37716">
        <ele>138.6</ele>
        <time>2019-06-30T06:17:12.000Z</time>
      </trkpt>
      <trkpt lat="43.20575" lon="2.3772">
        <ele>138.5</ele>
        <time>2019-06-30T06:17:13.000Z</time>
      </trkpt>
      <trkpt lat="43.20574" lon="2.37723">
        <ele>138.5</ele>
        <time>2019-06-30T06:17:14.000Z</time>
      </trkpt>
      <trkpt lat="43.20573" lon="2.37726">
        <ele>138.5</ele>
        <time>2019-06-30T06:17:15.000Z</time>
      </trkpt>
      <trkpt lat="43.20573" lon="2.3773">
        <ele>138.5</ele>
        <time>2019-06-30T06:17:16.000Z</time>
      </trkpt>
      <trkpt lat="43.20572" lon="2.37733">
        <ele>138.5</ele>
        <time>2019-06-30T06:17:17.000Z</time>
      </trkpt>
      <trkpt lat="43.20572" lon="2.37736">
        <ele>138.4</ele>
        <time>2019-06-30T06:17:18.000Z</time>
      </trkpt>
      <trkpt lat="43.20571" lon="2.3774">
        <ele>138.4</ele>
        <time>2019-06-30T06:17:19.000Z</time>
      </trkpt>
      <trkpt lat="43.2057" lon="2.37743">
        <ele>138.4</ele>
        <time>2019-06-30T06:17:20.000Z</time>
      </trkpt>
      <trkpt lat="43.2057" lon="2.37747">
        <ele>138.4</ele>
        <time>2019-06-30T06:17:21.000Z</time>
      </trkpt>
      <trkpt lat="43.20569" lon="2.3775">
        <ele>138.4</ele>
        <time>2019-06-30T06:17:22.000Z</time>
      </trkpt>
      <trkpt lat="43.20569" lon="2.37754">
        <ele>138.4</ele>
        <time>2019-06-30T06:17:23.000Z</time>
      </trkpt>
      <trkpt lat="43.20568" lon="2.37758">
        <ele>138.3</ele>
        <time>2019-06-30T06:17:24.000Z</time>
      </trkpt>
      <trkpt lat="43.20568" lon="2.37761">
        <ele>138.3</ele>
        <time>2019-06-30T06:17:25.000Z</time>
      </trkpt>
      <trkpt lat="43.20567" lon="2.37765">
        <ele>138.3</ele>
        <time>2019-06-30T06:17:26.000Z</time>
      </trkpt>
      <trkpt lat="43.20567" lon="2.37769">
        <ele>138.3</ele>
        <time>2019-06-30T06:17:27.000Z</time>
      </trkpt>
      <trkpt lat="43.20567" lon="2.37773">
        <ele>138.2</ele>
        <time>2019-06-30T06:17:28.000Z</time>
      </trkpt>
      <trkpt lat="43.20567" lon="2.37776">
        <ele>138.1</ele>
        <time>2019-06-30T06:17:29.000Z</time>
      </trkpt>
      <trkpt lat="43.20567" lon="2.3778">
        <ele>138.1</ele>
        <time>2019-06-30T06:17:30.000Z</time>
      </trkpt>
      <trkpt lat="43.20567" lon="2.37784">
        <ele>138</ele>
        <time>2019-06-30T06:17:31.000Z</time>
      </trkpt>
      <trkpt lat="43.20567" lon="2.37787">
        <ele>138</ele>
        <time>2019-06-30T06:17:32.000Z</time>
      </trkpt>
      <trkpt lat="43.20567" lon="2.37791">
        <ele>137.9</ele>
        <time>2019-06-30T06:17:33.000Z</time>
      </trkpt>
      <trkpt lat="43.20567" lon="2.37794">
        <ele>137.9</ele>
        <time>2019-06-30T06:17:34.000Z</time>
      </trkpt>
      <trkpt lat="43.20566" lon="2.37798">
        <ele>137.8</ele>
        <time>2019-06-30T06:17:35.000Z</time>
      </trkpt>
      <trkpt lat="43.20566" lon="2.37801">
        <ele>137.8</ele>
        <time>2019-06-30T06:17:36.000Z</time>
      </trkpt>
      <trkpt lat="43.20566" lon="2.37805">
        <ele>137.8</ele>
        <time>2019-06-30T06:17:37.000Z</time>
      </trkpt>
      <trkpt lat="43.20565" lon="2.37808">
        <ele>137.7</ele>
        <time>2019-06-30T06:17:38.000Z</time>
      </trkpt>
      <trkpt lat="43.20565" lon="2.37812">
        <ele>137.7</ele>
        <time>2019-06-30T06:17:39.000Z</time>
      </trkpt>
      <trkpt lat="43.20564" lon="2.37815">
        <ele>137.7</ele>
        <time>2019-06-30T06:17:40.000Z</time>
      </trkpt>
      <trkpt lat="43.20564" lon="2.37818">
        <ele>137.7</ele>
        <time>2019-06-30T06:17:41.000Z</time>
      </trkpt>
      <trkpt lat="43.20563" lon="2.37822">
        <ele>137.6</ele>
        <time>2019-06-30T06:17:42.000Z</time>
      </trkpt>
      <trkpt lat="43.20563" lon="2.37825">
        <ele>137.6</ele>
        <time>2019-06-30T06:17:43.000Z</time>
      </trkpt>
      <trkpt lat="43.20562" lon="2.37829">
        <ele>137.6</ele>
        <time>2019-06-30T06:17:44.000Z</time>
      </trkpt>
      <trkpt lat="43.20562" lon="2.37832">
        <ele>137.6</ele>
        <time>2019-06-30T06:17:45.000Z</time>
      </trkpt>
      <trkpt lat="43.20561" lon="2.37836">
        <ele>137.6</ele>
        <time>2019-06-30T06:17:46.000Z</time>
      </trkpt>
      <trkpt lat="43.20561" lon="2.37839">
        <ele>137.6</ele>
        <time>2019-06-30T06:17:47.000Z</time>
      </trkpt>
      <trkpt lat="43.20561" lon="2.37843">
        <ele>137.6</ele>
        <time>2019-06-30T06:17:48.000Z</time>
      </trkpt>
      <trkpt lat="43.2056" lon="2.37847">
        <ele>137.6</ele>
        <time>2019-06-30T06:17:49.000Z</time>
      </trkpt>
      <trkpt lat="43.2056" lon="2.3785">
        <ele>137.6</ele>
        <time>2019-06-30T06:17:50.000Z</time>
      </trkpt>
      <trkpt lat="43.2056" lon="2.37854">
        <ele>137.5</ele>
        <time>2019-06-30T06:17:51.000Z</time>
      </trkpt>
      <trkpt lat="43.20559" lon="2.37857">
        <ele>137.5</ele>
        <time>2019-06-30T06:17:52.000Z</time>
      </trkpt>
      <trkpt lat="43.20559" lon="2.3786">
        <ele>137.5</ele>
        <time>2019-06-30T06:17:53.000Z</time>
      </trkpt>
      <trkpt lat="43.20559" lon="2.37864">
        <ele>137.5</ele>
        <time>2019-06-30T06:17:54.000Z</time>
      </trkpt>
      <trkpt lat="43.20559" lon="2.37867">
        <ele>137.5</ele>
        <time>2019-06-30T06:17:55.000Z</time>
      </trkpt>
      <trkpt lat="43.20559" lon="2.3787">
        <ele>137.4</ele>
        <time>2019-06-30T06:17:56.000Z</time>
      </trkpt>
      <trkpt lat="43.20559" lon="2.37874">
        <ele>137.4</ele>
        <time>2019-06-30T06:17:57.000Z</time>
      </trkpt>
      <trkpt lat="43.20559" lon="2.37877">
        <ele>137.4</ele>
        <time>2019-06-30T06:17:58.000Z</time>
      </trkpt>
      <trkpt lat="43.2056" lon="2.3788">
        <ele>137.3</ele>
        <time>2019-06-30T06:17:59.000Z</time>
      </trkpt>
      <trkpt lat="43.2056" lon="2.37883">
        <ele>137.2</ele>
        <time>2019-06-30T06:18:00.000Z</time>
      </trkpt>
      <trkpt lat="43.20561" lon="2.37886">
        <ele>137.2</ele>
        <time>2019-06-30T06:18:01.000Z</time>
      </trkpt>
      <trkpt lat="43.20562" lon="2.37889">
        <ele>137.1</ele>
        <time>2019-06-30T06:18:02.000Z</time>
      </trkpt>
      <trkpt lat="43.20562" lon="2.37892">
        <ele>137</ele>
        <time>2019-06-30T06:18:03.000Z</time>
      </trkpt>
      <trkpt lat="43.20563" lon="2.37895">
        <ele>136.9</ele>
        <time>2019-06-30T06:18:04.000Z</time>
      </trkpt>
      <trkpt lat="43.20564" lon="2.37898">
        <ele>136.8</ele>
        <time>2019-06-30T06:18:05.000Z</time>
      </trkpt>
      <trkpt lat="43.20564" lon="2.37901">
        <ele>136.7</ele>
        <time>2019-06-30T06:18:06.000Z</time>
      </trkpt>
      <trkpt lat="43.20565" lon="2.37904">
        <ele>136.7</ele>
        <time>2019-06-30T06:18:07.000Z</time>
      </trkpt>
      <trkpt lat="43.20564" lon="2.37907">
        <ele>136.7</ele>
        <time>2019-06-30T06:18:08.000Z</time>
      </trkpt>
      <trkpt lat="43.20564" lon="2.37911">
        <ele>136.7</ele>
        <time>2019-06-30T06:18:09.000Z</time>
      </trkpt>
      <trkpt lat="43.20563" lon="2.37914">
        <ele>136.8</ele>
        <time>2019-06-30T06:18:10.000Z</time>
      </trkpt>
      <trkpt lat="43.20562" lon="2.37918">
        <ele>136.9</ele>
        <time>2019-06-30T06:18:11.000Z</time>
      </trkpt>
      <trkpt lat="43.20561" lon="2.37921">
        <ele>137</ele>
        <time>2019-06-30T06:18:12.000Z</time>
      </trkpt>
      <trkpt lat="43.20561" lon="2.37925">
        <ele>137.1</ele>
        <time>2019-06-30T06:18:13.000Z</time>
      </trkpt>
      <trkpt lat="43.2056" lon="2.37928">
        <ele>137.2</ele>
        <time>2019-06-30T06:18:14.000Z</time>
      </trkpt>
      <trkpt lat="43.20561" lon="2.37931">
        <ele>137.3</ele>
        <time>2019-06-30T06:18:15.000Z</time>
      </trkpt>
      <trkpt lat="43.20561" lon="2.37934">
        <ele>137.3</ele>
        <time>2019-06-30T06:18:16.000Z</time>
      </trkpt>
      <trkpt lat="43.20561" lon="2.37937">
        <ele>137.4</ele>
        <time>2019-06-30T06:18:17.000Z</time>
      </trkpt>
      <trkpt lat="43.20561" lon="2.37941">
        <ele>137.5</ele>
        <time>2019-06-30T06:18:18.000Z</time>
      </trkpt>
      <trkpt lat="43.2056" lon="2.37944">
        <ele>137.6</ele>
        <time>2019-06-30T06:18:19.000Z</time>
      </trkpt>
      <trkpt lat="43.2056" lon="2.37947">
        <ele>137.6</ele>
        <time>2019-06-30T06:18:20.000Z</time>
      </trkpt>
      <trkpt lat="43.2056" lon="2.3795">
        <ele>137.7</ele>
        <time>2019-06-30T06:18:21.000Z</time>
      </trkpt>
      <trkpt lat="43.2056" lon="2.37953">
        <ele>137.8</ele>
        <time>2019-06-30T06:18:22.000Z</time>
      </trkpt>
      <trkpt lat="43.2056" lon="2.37956">
        <ele>137.9</ele>
        <time>2019-06-30T06:18:23.000Z</time>
      </trkpt>
      <trkpt lat="43.2056" lon="2.37959">
        <ele>137.9</ele>
        <time>2019-06-30T06:18:24.000Z</time>
      </trkpt>
      <trkpt lat="43.20561" lon="2.37962">
        <ele>138</ele>
        <time>2019-06-30T06:18:25.000Z</time>
      </trkpt>
      <trkpt lat="43.20561" lon="2.37965">
        <ele>138.1</ele>
        <time>2019-06-30T06:18:26.000Z</time>
      </trkpt>
      <trkpt lat="43.20561" lon="2.37968">
        <ele>138.1</ele>
        <time>2019-06-30T06:18:27.000Z</time>
      </trkpt>
      <trkpt lat="43.20561" lon="2.3797">
        <ele>138.2</ele>
        <time>2019-06-30T06:18:28.000Z</time>
      </trkpt>
      <trkpt lat="43.20561" lon="2.37973">
        <ele>138.2</ele>
        <time>2019-06-30T06:18:29.000Z</time>
      </trkpt>
      <trkpt lat="43.20561" lon="2.37975">
        <ele>138.3</ele>
        <time>2019-06-30T06:18:30.000Z</time>
      </trkpt>
      <trkpt lat="43.20561" lon="2.37978">
        <ele>138.3</ele>
        <time>2019-06-30T06:18:31.000Z</time>
      </trkpt>
      <trkpt lat="43.20561" lon="2.3798">
        <ele>138.4</ele>
        <time>2019-06-30T06:18:32.000Z</time>
      </trkpt>
      <trkpt lat="43.20561" lon="2.37982">
        <ele>138.5</ele>
        <time>2019-06-30T06:18:33.000Z</time>
      </trkpt>
      <trkpt lat="43.2056" lon="2.37984">
        <ele>138.6</ele>
        <time>2019-06-30T06:18:34.000Z</time>
      </trkpt>
      <trkpt lat="43.20559" lon="2.37987">
        <ele>138.8</ele>
        <time>2019-06-30T06:18:35.000Z</time>
      </trkpt>
      <trkpt lat="43.20557" lon="2.37989">
        <ele>139</ele>
        <time>2019-06-30T06:18:36.000Z</time>
      </trkpt>
      <trkpt lat="43.20555" lon="2.37991">
        <ele>139.2</ele>
        <time>2019-06-30T06:18:37.000Z</time>
      </trkpt>
      <trkpt lat="43.20553" lon="2.37993">
        <ele>139.4</ele>
        <time>2019-06-30T06:18:38.000Z</time>
      </trkpt>
      <trkpt lat="43.20551" lon="2.37994">
        <ele>139.6</ele>
        <time>2019-06-30T06:18:39.000Z</time>
      </trkpt>
      <trkpt lat="43.20549" lon="2.37995">
        <ele>139.7</ele>
        <time>2019-06-30T06:18:40.000Z</time>
      </trkpt>
      <trkpt lat="43.20547" lon="2.37996">
        <ele>139.9</ele>
        <time>2019-06-30T06:18:41.000Z</time>
      </trkpt>
      <trkpt lat="43.20545" lon="2.37996">
        <ele>140.1</ele>
        <time>2019-06-30T06:18:42.000Z</time>
      </trkpt>
      <trkpt lat="43.20543" lon="2.37997">
        <ele>140.3</ele>
        <time>2019-06-30T06:18:43.000Z</time>
      </trkpt>
      <trkpt lat="43.20541" lon="2.37997">
        <ele>140.4</ele>
        <time>2019-06-30T06:18:44.000Z</time>
      </trkpt>
      <trkpt lat="43.20539" lon="2.37997">
        <ele>140.6</ele>
        <time>2019-06-30T06:18:45.000Z</time>
      </trkpt>
      <trkpt lat="43.20537" lon="2.37996">
        <ele>140.8</ele>
        <time>2019-06-30T06:18:46.000Z</time>
      </trkpt>
      <trkpt lat="43.20535" lon="2.37996">
        <ele>140.9</ele>
        <time>2019-06-30T06:18:47.000Z</time>
      </trkpt>
      <trkpt lat="43.20533" lon="2.37996">
        <ele>141.1</ele>
        <time>2019-06-30T06:18:48.000Z</time>
      </trkpt>
      <trkpt lat="43.20531" lon="2.37995">
        <ele>141.3</ele>
        <time>2019-06-30T06:18:49.000Z</time>
      </trkpt>
      <trkpt lat="43.20529" lon="2.37995">
        <ele>141.4</ele>
        <time>2019-06-30T06:18:50.000Z</time>
      </trkpt>
      <trkpt lat="43.20527" lon="2.37995">
        <ele>141.6</ele>
        <time>2019-06-30T06:18:51.000Z</time>
      </trkpt>
      <trkpt lat="43.20525" lon="2.37994">
        <ele>141.7</ele>
        <time>2019-06-30T06:18:52.000Z</time>
      </trkpt>
      <trkpt lat="43.20523" lon="2.37994">
        <ele>141.9</ele>
        <time>2019-06-30T06:18:53.000Z</time>
      </trkpt>
      <trkpt lat="43.20521" lon="2.37994">
        <ele>142.1</ele>
        <time>2019-06-30T06:18:54.000Z</time>
      </trkpt>
      <trkpt lat="43.20519" lon="2.37994">
        <ele>142.3</ele>
        <time>2019-06-30T06:18:55.000Z</time>
      </trkpt>
      <trkpt lat="43.20517" lon="2.37994">
        <ele>142.4</ele>
        <time>2019-06-30T06:18:56.000Z</time>
      </trkpt>
      <trkpt lat="43.20515" lon="2.37994">
        <ele>142.6</ele>
        <time>2019-06-30T06:18:57.000Z</time>
      </trkpt>
      <trkpt lat="43.20513" lon="2.37994">
        <ele>142.8</ele>
        <time>2019-06-30T06:18:58.000Z</time>
      </trkpt>
      <trkpt lat="43.20511" lon="2.37993">
        <ele>142.9</ele>
        <time>2019-06-30T06:18:59.000Z</time>
      </trkpt>
      <trkpt lat="43.20509" lon="2.37993">
        <ele>143.1</ele>
        <time>2019-06-30T06:19:00.000Z</time>
      </trkpt>
      <trkpt lat="43.20507" lon="2.37993">
        <ele>143.3</ele>
        <time>2019-06-30T06:19:01.000Z</time>
      </trkpt>
      <trkpt lat="43.20505" lon="2.37993">
        <ele>143.4</ele>
        <time>2019-06-30T06:19:02.000Z</time>
      </trkpt>
      <trkpt lat="43.20503" lon="2.37993">
        <ele>143.6</ele>
        <time>2019-06-30T06:19:03.000Z</time>
      </trkpt>
      <trkpt lat="43.20501" lon="2.37993">
        <ele>143.8</ele>
        <time>2019-06-30T06:19:04.000Z</time>
      </trkpt>
      <trkpt lat="43.20499" lon="2.37992">
        <ele>143.9</ele>
        <time>2019-06-30T06:19:05.000Z</time>
      </trkpt>
      <trkpt lat="43.20497" lon="2.37992">
        <ele>144</ele>
        <time>2019-06-30T06:19:06.000Z</time>
      </trkpt>
      <trkpt lat="43.20495" lon="2.37991">
        <ele>144.1</ele>
        <time>2019-06-30T06:19:07.000Z</time>
      </trkpt>
      <trkpt lat="43.20493" lon="2.37991">
        <ele>144.2</ele>
        <time>2019-06-30T06:19:08.000Z</time>
      </trkpt>
      <trkpt lat="43.20491" lon="2.3799">
        <ele>144.3</ele>
        <time>2019-06-30T06:19:09.000Z</time>
      </trkpt>
      <trkpt lat="43.20489" lon="2.3799">
        <ele>144.4</ele>
        <time>2019-06-30T06:19:10.000Z</time>
      </trkpt>
      <trkpt lat="43.20487" lon="2.37989">
        <ele>144.5</ele>
        <time>2019-06-30T06:19:11.000Z</time>
      </trkpt>
      <trkpt lat="43.20485" lon="2.37989">
        <ele>144.6</ele>
        <time>2019-06-30T06:19:12.000Z</time>
      </trkpt>
      <trkpt lat="43.20483" lon="2.37988">
        <ele>144.7</ele>
        <time>2019-06-30T06:19:13.000Z</time>
      </trkpt>
      <trkpt lat="43.20481" lon="2.37988">
        <ele>144.8</ele>
        <time>2019-06-30T06:19:14.000Z</time>
      </trkpt>
      <trkpt lat="43.20479" lon="2.37987">
        <ele>144.9</ele>
        <time>2019-06-30T06:19:15.000Z</time>
      </trkpt>
      <trkpt lat="43.20477" lon="2.37987">
        <ele>145</ele>
        <time>2019-06-30T06:19:16.000Z</time>
      </trkpt>
      <trkpt lat="43.20476" lon="2.37987">
        <ele>145.1</ele>
        <time>2019-06-30T06:19:17.000Z</time>
      </trkpt>
      <trkpt lat="43.20474" lon="2.37986">
        <ele>145.2</ele>
        <time>2019-06-30T06:19:18.000Z</time>
      </trkpt>
      <trkpt lat="43.20472" lon="2.37986">
        <ele>145.3</ele>
        <time>2019-06-30T06:19:19.000Z</time>
      </trkpt>
      <trkpt lat="43.2047" lon="2.37986">
        <ele>145.4</ele>
        <time>2019-06-30T06:19:20.000Z</time>
      </trkpt>
      <trkpt lat="43.20469" lon="2.37987">
        <ele>145.5</ele>
        <time>2019-06-30T06:19:21.000Z</time>
      </trkpt>
      <trkpt lat="43.20467" lon="2.37987">
        <ele>145.6</ele>
        <time>2019-06-30T06:19:22.000Z</time>
      </trkpt>
      <trkpt lat="43.20465" lon="2.37987">
        <ele>145.7</ele>
        <time>2019-06-30T06:19:23.000Z</time>
      </trkpt>
      <trkpt lat="43.20464" lon="2.37988">
        <ele>145.8</ele>
        <time>2019-06-30T06:19:24.000Z</time>
      </trkpt>
      <trkpt lat="43.20462" lon="2.37989">
        <ele>145.9</ele>
        <time>2019-06-30T06:19:25.000Z</time>
      </trkpt>
      <trkpt lat="43.20461" lon="2.3799">
        <ele>146.1</ele>
        <time>2019-06-30T06:19:26.000Z</time>
      </trkpt>
      <trkpt lat="43.20459" lon="2.37991">
        <ele>146.2</ele>
        <time>2019-06-30T06:19:27.000Z</time>
      </trkpt>
      <trkpt lat="43.20458" lon="2.37993">
        <ele>146.3</ele>
        <time>2019-06-30T06:19:28.000Z</time>
      </trkpt>
      <trkpt lat="43.20457" lon="2.37995">
        <ele>146.4</ele>
        <time>2019-06-30T06:19:29.000Z</time>
      </trkpt>
      <trkpt lat="43.20456" lon="2.37997">
        <ele>146.5</ele>
        <time>2019-06-30T06:19:30.000Z</time>
      </trkpt>
      <trkpt lat="43.20455" lon="2.37999">
        <ele>146.7</ele>
        <time>2019-06-30T06:19:31.000Z</time>
      </trkpt>
      <trkpt lat="43.20453" lon="2.38001">
        <ele>146.8</ele>
        <time>2019-06-30T06:19:32.000Z</time>
      </trkpt>
      <trkpt lat="43.20452" lon="2.38003">
        <ele>147</ele>
        <time>2019-06-30T06:19:33.000Z</time>
      </trkpt>
      <trkpt lat="43.20451" lon="2.38005">
        <ele>147.3</ele>
        <time>2019-06-30T06:19:34.000Z</time>
      </trkpt>
      <trkpt lat="43.2045" lon="2.38007">
        <ele>147.5</ele>
        <time>2019-06-30T06:19:35.000Z</time>
      </trkpt>
      <trkpt lat="43.20448" lon="2.38009">
        <ele>147.7</ele>
        <time>2019-06-30T06:19:36.000Z</time>
      </trkpt>
      <trkpt lat="43.20447" lon="2.3801">
        <ele>147.9</ele>
        <time>2019-06-30T06:19:37.000Z</time>
      </trkpt>
      <trkpt lat="43.20445" lon="2.38012">
        <ele>148.1</ele>
        <time>2019-06-30T06:19:38.000Z</time>
      </trkpt>
      <trkpt lat="43.20444" lon="2.38014">
        <ele>148.3</ele>
        <time>2019-06-30T06:19:39.000Z</time>
      </trkpt>
      <trkpt lat="43.20442" lon="2.38015">
        <ele>148.5</ele>
        <time>2019-06-30T06:19:40.000Z</time>
      </trkpt>
      <trkpt lat="43.2044" lon="2.38016">
        <ele>148.7</ele>
        <time>2019-06-30T06:19:41.000Z</time>
      </trkpt>
      <trkpt lat="43.20439" lon="2.38017">
        <ele>148.9</ele>
        <time>2019-06-30T06:19:42.000Z</time>
      </trkpt>
      <trkpt lat="43.20437" lon="2.38018">
        <ele>149</ele>
        <time>2019-06-30T06:19:43.000Z</time>
      </trkpt>
      <trkpt lat="43.20435" lon="2.38019">
        <ele>149.2</ele>
        <time>2019-06-30T06:19:44.000Z</time>
      </trkpt>
      <trkpt lat="43.20434" lon="2.3802">
        <ele>149.3</ele>
        <time>2019-06-30T06:19:45.000Z</time>
      </trkpt>
      <trkpt lat="43.20432" lon="2.3802">
        <ele>149.4</ele>
        <time>2019-06-30T06:19:46.000Z</time>
      </trkpt>
      <trkpt lat="43.20431" lon="2.3802">
        <ele>149.6</ele>
        <time>2019-06-30T06:19:47.000Z</time>
      </trkpt>
      <trkpt lat="43.20429" lon="2.3802">
        <ele>149.6</ele>
        <time>2019-06-30T06:19:48.000Z</time>
      </trkpt>
      <trkpt lat="43.20428" lon="2.3802">
        <ele>149.7</ele>
        <time>2019-06-30T06:19:49.000Z</time>
      </trkpt>
      <trkpt lat="43.20426" lon="2.38019">
        <ele>149.8</ele>
        <time>2019-06-30T06:19:50.000Z</time>
      </trkpt>
      <trkpt lat="43.20425" lon="2.38018">
        <ele>149.8</ele>
        <time>2019-06-30T06:19:51.000Z</time>
      </trkpt>
      <trkpt lat="43.20423" lon="2.38017">
        <ele>149.8</ele>
        <time>2019-06-30T06:19:52.000Z</time>
      </trkpt>
      <trkpt lat="43.20422" lon="2.38016">
        <ele>149.8</ele>
        <time>2019-06-30T06:19:53.000Z</time>
      </trkpt>
      <trkpt lat="43.2042" lon="2.38015">
        <ele>149.8</ele>
        <time>2019-06-30T06:19:54.000Z</time>
      </trkpt>
      <trkpt lat="43.20419" lon="2.38013">
        <ele>149.8</ele>
        <time>2019-06-30T06:19:55.000Z</time>
      </trkpt>
      <trkpt lat="43.20417" lon="2.38011">
        <ele>149.8</ele>
        <time>2019-06-30T06:19:56.000Z</time>
      </trkpt>
      <trkpt lat="43.20416" lon="2.38009">
        <ele>149.8</ele>
        <time>2019-06-30T06:19:57.000Z</time>
      </trkpt>
      <trkpt lat="43.20414" lon="2.38008">
        <ele>149.8</ele>
        <time>2019-06-30T06:19:58.000Z</time>
      </trkpt>
      <trkpt lat="43.20412" lon="2.38006">
        <ele>149.8</ele>
        <time>2019-06-30T06:19:59.000Z</time>
      </trkpt>
      <trkpt lat="43.20411" lon="2.38004">
        <ele>149.8</ele>
        <time>2019-06-30T06:20:00.000Z</time>
      </trkpt>
      <trkpt lat="43.20409" lon="2.38002">
        <ele>149.8</ele>
        <time>2019-06-30T06:20:01.000Z</time>
      </trkpt>
      <trkpt lat="43.20408" lon="2.38">
        <ele>149.8</ele>
        <time>2019-06-30T06:20:02.000Z</time>
      </trkpt>
      <trkpt lat="43.20406" lon="2.37999">
        <ele>149.8</ele>
        <time>2019-06-30T06:20:03.000Z</time>
      </trkpt>
      <trkpt lat="43.20405" lon="2.37997">
        <ele>149.9</ele>
        <time>2019-06-30T06:20:04.000Z</time>
      </trkpt>
      <trkpt lat="43.20403" lon="2.37996">
        <ele>150</ele>
        <time>2019-06-30T06:20:05.000Z</time>
      </trkpt>
      <trkpt lat="43.20402" lon="2.37995">
        <ele>150</ele>
        <time>2019-06-30T06:20:06.000Z</time>
      </trkpt>
      <trkpt lat="43.204" lon="2.37993">
        <ele>150.1</ele>
        <time>2019-06-30T06:20:07.000Z</time>
      </trkpt>
      <trkpt lat="43.20399" lon="2.37992">
        <ele>150.2</ele>
        <time>2019-06-30T06:20:08.000Z</time>
      </trkpt>
      <trkpt lat="43.20397" lon="2.3799">
        <ele>150.3</ele>
        <time>2019-06-30T06:20:09.000Z</time>
      </trkpt>
      <trkpt lat="43.20395" lon="2.37989">
        <ele>150.3</ele>
        <time>2019-06-30T06:20:10.000Z</time>
      </trkpt>
      <trkpt lat="43.20393" lon="2.37987">
        <ele>150.4</ele>
        <time>2019-06-30T06:20:11.000Z</time>
      </trkpt>
      <trkpt lat="43.20392" lon="2.37985">
        <ele>150.4</ele>
        <time>2019-06-30T06:20:12.000Z</time>
      </trkpt>
      <trkpt lat="43.2039" lon="2.37983">
        <ele>150.5</ele>
        <time>2019-06-30T06:20:13.000Z</time>
      </trkpt>
      <trkpt lat="43.20388" lon="2.37981">
        <ele>150.6</ele>
        <time>2019-06-30T06:20:14.000Z</time>
      </trkpt>
      <trkpt lat="43.20386" lon="2.37979">
        <ele>150.7</ele>
        <time>2019-06-30T06:20:15.000Z</time>
      </trkpt>
      <trkpt lat="43.20384" lon="2.37978">
        <ele>150.8</ele>
        <time>2019-06-30T06:20:16.000Z</time>
      </trkpt>
      <trkpt lat="43.20382" lon="2.37977">
        <ele>150.9</ele>
        <time>2019-06-30T06:20:17.000Z</time>
      </trkpt>
      <trkpt lat="43.2038" lon="2.37977">
        <ele>151</ele>
        <time>2019-06-30T06:20:18.000Z</time>
      </trkpt>
      <trkpt lat="43.20379" lon="2.37977">
        <ele>151.1</ele>
        <time>2019-06-30T06:20:19.000Z</time>
      </trkpt>
      <trkpt lat="43.20377" lon="2.37977">
        <ele>151.2</ele>
        <time>2019-06-30T06:20:20.000Z</time>
      </trkpt>
      <trkpt lat="43.20376" lon="2.37977">
        <ele>151.3</ele>
        <time>2019-06-30T06:20:21.000Z</time>
      </trkpt>
      <trkpt lat="43.20374" lon="2.37978">
        <ele>151.5</ele>
        <time>2019-06-30T06:20:22.000Z</time>
      </trkpt>
      <trkpt lat="43.20373" lon="2.37979">
        <ele>151.6</ele>
        <time>2019-06-30T06:20:23.000Z</time>
      </trkpt>
      <trkpt lat="43.20372" lon="2.3798">
        <ele>151.8</ele>
        <time>2019-06-30T06:20:24.000Z</time>
      </trkpt>
      <trkpt lat="43.20371" lon="2.37981">
        <ele>151.9</ele>
        <time>2019-06-30T06:20:25.000Z</time>
      </trkpt>
      <trkpt lat="43.2037" lon="2.37983">
        <ele>152.1</ele>
        <time>2019-06-30T06:20:26.000Z</time>
      </trkpt>
      <trkpt lat="43.20369" lon="2.37984">
        <ele>152.2</ele>
        <time>2019-06-30T06:20:27.000Z</time>
      </trkpt>
      <trkpt lat="43.20367" lon="2.37985">
        <ele>152.4</ele>
        <time>2019-06-30T06:20:28.000Z</time>
      </trkpt>
      <trkpt lat="43.20366" lon="2.37986">
        <ele>152.6</ele>
        <time>2019-06-30T06:20:29.000Z</time>
      </trkpt>
      <trkpt lat="43.20364" lon="2.37987">
        <ele>152.8</ele>
        <time>2019-06-30T06:20:30.000Z</time>
      </trkpt>
      <trkpt lat="43.20361" lon="2.37988">
        <ele>153</ele>
        <time>2019-06-30T06:20:31.000Z</time>
      </trkpt>
      <trkpt lat="43.20359" lon="2.37989">
        <ele>153.3</ele>
        <time>2019-06-30T06:20:32.000Z</time>
      </trkpt>
      <trkpt lat="43.20356" lon="2.37989">
        <ele>153.5</ele>
        <time>2019-06-30T06:20:33.000Z</time>
      </trkpt>
      <trkpt lat="43.20353" lon="2.37989">
        <ele>153.8</ele>
        <time>2019-06-30T06:20:34.000Z</time>
      </trkpt>
      <trkpt lat="43.20351" lon="2.3799">
        <ele>154</ele>
        <time>2019-06-30T06:20:35.000Z</time>
      </trkpt>
      <trkpt lat="43.20349" lon="2.3799">
        <ele>154.1</ele>
        <time>2019-06-30T06:20:36.000Z</time>
      </trkpt>
      <trkpt lat="43.20348" lon="2.3799">
        <ele>154.2</ele>
        <time>2019-06-30T06:20:37.000Z</time>
      </trkpt>
      <trkpt lat="43.20347" lon="2.3799">
        <ele>154.3</ele>
        <time>2019-06-30T06:20:38.000Z</time>
      </trkpt>
      <trkpt lat="43.20346" lon="2.3799">
        <ele>154.4</ele>
        <time>2019-06-30T06:20:39.000Z</time>
      </trkpt>
      <trkpt lat="43.20345" lon="2.3799">
        <ele>154.4</ele>
        <time>2019-06-30T06:20:40.000Z</time>
      </trkpt>
      <trkpt lat="43.20344" lon="2.37989">
        <ele>154.5</ele>
        <time>2019-06-30T06:20:41.000Z</time>
      </trkpt>
      <trkpt lat="43.20343" lon="2.37989">
        <ele>154.5</ele>
        <time>2019-06-30T06:20:42.000Z</time>
      </trkpt>
      <trkpt lat="43.20343" lon="2.37989">
        <ele>154.6</ele>
        <time>2019-06-30T06:20:43.000Z</time>
      </trkpt>
      <trkpt lat="43.20342" lon="2.37988">
        <ele>154.6</ele>
        <time>2019-06-30T06:20:44.000Z</time>
      </trkpt>
      <trkpt lat="43.20341" lon="2.37988">
        <ele>154.6</ele>
        <time>2019-06-30T06:20:45.000Z</time>
      </trkpt>
      <trkpt lat="43.20341" lon="2.37988">
        <ele>154.7</ele>
        <time>2019-06-30T06:20:46.000Z</time>
      </trkpt>
      <trkpt lat="43.2034" lon="2.37988">
        <ele>154.7</ele>
        <time>2019-06-30T06:20:47.000Z</time>
      </trkpt>
      <trkpt lat="43.2034" lon="2.37988">
        <ele>154.8</ele>
        <time>2019-06-30T06:20:48.000Z</time>
      </trkpt>
      <trkpt lat="43.20339" lon="2.37988">
        <ele>154.8</ele>
        <time>2019-06-30T06:20:49.000Z</time>
      </trkpt>
      <trkpt lat="43.20338" lon="2.37988">
        <ele>154.9</ele>
        <time>2019-06-30T06:20:50.000Z</time>
      </trkpt>
      <trkpt lat="43.20338" lon="2.37988">
        <ele>154.9</ele>
        <time>2019-06-30T06:20:51.000Z</time>
      </trkpt>
      <trkpt lat="43.20337" lon="2.37988">
        <ele>155</ele>
        <time>2019-06-30T06:20:52.000Z</time>
      </trkpt>
      <trkpt lat="43.20336" lon="2.37988">
        <ele>155.1</ele>
        <time>2019-06-30T06:20:53.000Z</time>
      </trkpt>
      <trkpt lat="43.20335" lon="2.37988">
        <ele>155.1</ele>
        <time>2019-06-30T06:20:54.000Z</time>
      </trkpt>
      <trkpt lat="43.20334" lon="2.37988">
        <ele>155.2</ele>
        <time>2019-06-30T06:20:55.000Z</time>
      </trkpt>
      <trkpt lat="43.20333" lon="2.37987">
        <ele>155.2</ele>
        <time>2019-06-30T06:20:56.000Z</time>
      </trkpt>
      <trkpt lat="43.20332" lon="2.37987">
        <ele>155.3</ele>
        <time>2019-06-30T06:20:57.000Z</time>
      </trkpt>
      <trkpt lat="43.20331" lon="2.37987">
        <ele>155.3</ele>
        <time>2019-06-30T06:20:58.000Z</time>
      </trkpt>
      <trkpt lat="43.2033" lon="2.37986">
        <ele>155.3</ele>
        <time>2019-06-30T06:20:59.000Z</time>
      </trkpt>
      <trkpt lat="43.2033" lon="2.37986">
        <ele>155.3</ele>
        <time>2019-06-30T06:21:00.000Z</time>
      </trkpt>
      <trkpt lat="43.2033" lon="2.37986">
        <ele>155.4</ele>
        <time>2019-06-30T06:21:01.000Z</time>
      </trkpt>
      <trkpt lat="43.2033" lon="2.37986">
        <ele>155.4</ele>
        <time>2019-06-30T06:21:02.000Z</time>
      </trkpt>
      <trkpt lat="43.2033" lon="2.37986">
        <ele>155.4</ele>
        <time>2019-06-30T06:21:03.000Z</time>
      </trkpt>
      <trkpt lat="43.2033" lon="2.37986">
        <ele>155.4</ele>
        <time>2019-06-30T06:21:04.000Z</time>
      </trkpt>
      <trkpt lat="43.2033" lon="2.37986">
        <ele>155.4</ele>
        <time>2019-06-30T06:21:05.000Z</time>
      </trkpt>
      <trkpt lat="43.2033" lon="2.37986">
        <ele>155.4</ele>
        <time>2019-06-30T06:21:06.000Z</time>
      </trkpt>
      <trkpt lat="43.2033" lon="2.37986">
        <ele>155.4</ele>
        <time>2019-06-30T06:21:07.000Z</time>
      </trkpt>
      <trkpt lat="43.2033" lon="2.37986">
        <ele>155.4</ele>
        <time>2019-06-30T06:21:08.000Z</time>
      </trkpt>
      <trkpt lat="43.2033" lon="2.37987">
        <ele>155.4</ele>
        <time>2019-06-30T06:21:09.000Z</time>
      </trkpt>
      <trkpt lat="43.2033" lon="2.37987">
        <ele>155.4</ele>
        <time>2019-06-30T06:21:10.000Z</time>
      </trkpt>
      <trkpt lat="43.2033" lon="2.37987">
        <ele>155.4</ele>
        <time>2019-06-30T06:21:11.000Z</time>
      </trkpt>
      <trkpt lat="43.2033" lon="2.37987">
        <ele>155.4</ele>
        <time>2019-06-30T06:21:12.000Z</time>
      </trkpt>
      <trkpt lat="43.2033" lon="2.37987">
        <ele>155.4</ele>
        <time>2019-06-30T06:21:13.000Z</time>
      </trkpt>
      <trkpt lat="43.20329" lon="2.37987">
        <ele>155.4</ele>
        <time>2019-06-30T06:21:14.000Z</time>
      </trkpt>
      <trkpt lat="43.20328" lon="2.37986">
        <ele>155.4</ele>
        <time>2019-06-30T06:21:15.000Z</time>
      </trkpt>
      <trkpt lat="43.20327" lon="2.37986">
        <ele>155.5</ele>
        <time>2019-06-30T06:21:16.000Z</time>
      </trkpt>
      <trkpt lat="43.20326" lon="2.37986">
        <ele>155.5</ele>
        <time>2019-06-30T06:21:17.000Z</time>
      </trkpt>
      <trkpt lat="43.20325" lon="2.37986">
        <ele>155.6</ele>
        <time>2019-06-30T06:21:18.000Z</time>
      </trkpt>
      <trkpt lat="43.20324" lon="2.37987">
        <ele>155.7</ele>
        <time>2019-06-30T06:21:19.000Z</time>
      </trkpt>
      <trkpt lat="43.20322" lon="2.37987">
        <ele>155.8</ele>
        <time>2019-06-30T06:21:20.000Z</time>
      </trkpt>
      <trkpt lat="43.20321" lon="2.37987">
        <ele>155.9</ele>
        <time>2019-06-30T06:21:21.000Z</time>
      </trkpt>
      <trkpt lat="43.20319" lon="2.37987">
        <ele>156</ele>
        <time>2019-06-30T06:21:22.000Z</time>
      </trkpt>
      <trkpt lat="43.20317" lon="2.37988">
        <ele>156.1</ele>
        <time>2019-06-30T06:21:23.000Z</time>
      </trkpt>
      <trkpt lat="43.20316" lon="2.37988">
        <ele>156.2</ele>
        <time>2019-06-30T06:21:24.000Z</time>
      </trkpt>
      <trkpt lat="43.20315" lon="2.37989">
        <ele>156.3</ele>
        <time>2019-06-30T06:21:25.000Z</time>
      </trkpt>
      <trkpt lat="43.20315" lon="2.37989">
        <ele>156.3</ele>
        <time>2019-06-30T06:21:26.000Z</time>
      </trkpt>
      <trkpt lat="43.20314" lon="2.37989">
        <ele>156.3</ele>
        <time>2019-06-30T06:21:27.000Z</time>
      </trkpt>
      <trkpt lat="43.20314" lon="2.37989">
        <ele>156.3</ele>
        <time>2019-06-30T06:21:28.000Z</time>
      </trkpt>
      <trkpt lat="43.20314" lon="2.37989">
        <ele>156.3</ele>
        <time>2019-06-30T06:21:29.000Z</time>
      </trkpt>
      <trkpt lat="43.20314" lon="2.37989">
        <ele>156.3</ele>
        <time>2019-06-30T06:21:30.000Z</time>
      </trkpt>
      <trkpt lat="43.20314" lon="2.37989">
        <ele>156.3</ele>
        <time>2019-06-30T06:21:31.000Z</time>
      </trkpt>
      <trkpt lat="43.20314" lon="2.37989">
        <ele>156.3</ele>
        <time>2019-06-30T06:21:32.000Z</time>
      </trkpt>
      <trkpt lat="43.20314" lon="2.37989">
        <ele>156.3</ele>
        <time>2019-06-30T06:21:33.000Z</time>
      </trkpt>
      <trkpt lat="43.20314" lon="2.37989">
        <ele>156.3</ele>
        <time>2019-06-30T06:21:34.000Z</time>
      </trkpt>
      <trkpt lat="43.20315" lon="2.37988">
        <ele>156.2</ele>
        <time>2019-06-30T06:21:35.000Z</time>
      </trkpt>
      <trkpt lat="43.20317" lon="2.37987">
        <ele>156.1</ele>
        <time>2019-06-30T06:21:36.000Z</time>
      </trkpt>
      <trkpt lat="43.20318" lon="2.37986">
        <ele>155.9</ele>
        <time>2019-06-30T06:21:37.000Z</time>
      </trkpt>
      <trkpt lat="43.2032" lon="2.37985">
        <ele>155.8</ele>
        <time>2019-06-30T06:21:38.000Z</time>
      </trkpt>
      <trkpt lat="43.20323" lon="2.37985">
        <ele>155.6</ele>
        <time>2019-06-30T06:21:39.000Z</time>
      </trkpt>
      <trkpt lat="43.20325" lon="2.37985">
        <ele>155.5</ele>
        <time>2019-06-30T06:21:40.000Z</time>
      </trkpt>
      <trkpt lat="43.20327" lon="2.37985">
        <ele>155.4</ele>
        <time>2019-06-30T06:21:41.000Z</time>
      </trkpt>
      <trkpt lat="43.2033" lon="2.37985">
        <ele>155.3</ele>
        <time>2019-06-30T06:21:42.000Z</time>
      </trkpt>
      <trkpt lat="43.20332" lon="2.37985">
        <ele>155.2</ele>
        <time>2019-06-30T06:21:43.000Z</time>
      </trkpt>
      <trkpt lat="43.20334" lon="2.37985">
        <ele>155</ele>
        <time>2019-06-30T06:21:44.000Z</time>
      </trkpt>
      <trkpt lat="43.20337" lon="2.37986">
        <ele>154.9</ele>
        <time>2019-06-30T06:21:45.000Z</time>
      </trkpt>
      <trkpt lat="43.20339" lon="2.37987">
        <ele>154.7</ele>
        <time>2019-06-30T06:21:46.000Z</time>
      </trkpt>
      <trkpt lat="43.20341" lon="2.37988">
        <ele>154.6</ele>
        <time>2019-06-30T06:21:47.000Z</time>
      </trkpt>
      <trkpt lat="43.20343" lon="2.3799">
        <ele>154.6</ele>
        <time>2019-06-30T06:21:48.000Z</time>
      </trkpt>
      <trkpt lat="43.20345" lon="2.37993">
        <ele>154.6</ele>
        <time>2019-06-30T06:21:49.000Z</time>
      </trkpt>
      <trkpt lat="43.20346" lon="2.37996">
        <ele>154.7</ele>
        <time>2019-06-30T06:21:50.000Z</time>
      </trkpt>
      <trkpt lat="43.20347" lon="2.37999">
        <ele>154.8</ele>
        <time>2019-06-30T06:21:51.000Z</time>
      </trkpt>
      <trkpt lat="43.20348" lon="2.38002">
        <ele>155</ele>
        <time>2019-06-30T06:21:52.000Z</time>
      </trkpt>
      <trkpt lat="43.20349" lon="2.38005">
        <ele>155.2</ele>
        <time>2019-06-30T06:21:53.000Z</time>
      </trkpt>
      <trkpt lat="43.20349" lon="2.38008">
        <ele>155.4</ele>
        <time>2019-06-30T06:21:54.000Z</time>
      </trkpt>
      <trkpt lat="43.2035" lon="2.38011">
        <ele>155.6</ele>
        <time>2019-06-30T06:21:55.000Z</time>
      </trkpt>
      <trkpt lat="43.20351" lon="2.38013">
        <ele>155.8</ele>
        <time>2019-06-30T06:21:56.000Z</time>
      </trkpt>
      <trkpt lat="43.20351" lon="2.38016">
        <ele>156</ele>
        <time>2019-06-30T06:21:57.000Z</time>
      </trkpt>
      <trkpt lat="43.20351" lon="2.38019">
        <ele>156.2</ele>
        <time>2019-06-30T06:21:58.000Z</time>
      </trkpt>
      <trkpt lat="43.20352" lon="2.38021">
        <ele>156.4</ele>
        <time>2019-06-30T06:21:59.000Z</time>
      </trkpt>
      <trkpt lat="43.20352" lon="2.38024">
        <ele>156.6</ele>
        <time>2019-06-30T06:22:00.000Z</time>
      </trkpt>
      <trkpt lat="43.20352" lon="2.38026">
        <ele>156.8</ele>
        <time>2019-06-30T06:22:01.000Z</time>
      </trkpt>
      <trkpt lat="43.20353" lon="2.38029">
        <ele>157</ele>
        <time>2019-06-30T06:22:02.000Z</time>
      </trkpt>
      <trkpt lat="43.20353" lon="2.38031">
        <ele>157.2</ele>
        <time>2019-06-30T06:22:03.000Z</time>
      </trkpt>
      <trkpt lat="43.20353" lon="2.38034">
        <ele>157.4</ele>
        <time>2019-06-30T06:22:04.000Z</time>
      </trkpt>
      <trkpt lat="43.20353" lon="2.38036">
        <ele>157.6</ele>
        <time>2019-06-30T06:22:05.000Z</time>
      </trkpt>
      <trkpt lat="43.20353" lon="2.38039">
        <ele>157.8</ele>
        <time>2019-06-30T06:22:06.000Z</time>
      </trkpt>
      <trkpt lat="43.20353" lon="2.38041">
        <ele>158</ele>
        <time>2019-06-30T06:22:07.000Z</time>
      </trkpt>
      <trkpt lat="43.20353" lon="2.38044">
        <ele>158.3</ele>
        <time>2019-06-30T06:22:08.000Z</time>
      </trkpt>
      <trkpt lat="43.20354" lon="2.38046">
        <ele>158.5</ele>
        <time>2019-06-30T06:22:09.000Z</time>
      </trkpt>
      <trkpt lat="43.20354" lon="2.38049">
        <ele>158.7</ele>
        <time>2019-06-30T06:22:10.000Z</time>
      </trkpt>
      <trkpt lat="43.20354" lon="2.38052">
        <ele>158.9</ele>
        <time>2019-06-30T06:22:11.000Z</time>
      </trkpt>
      <trkpt lat="43.20354" lon="2.38054">
        <ele>159.2</ele>
        <time>2019-06-30T06:22:12.000Z</time>
      </trkpt>
      <trkpt lat="43.20354" lon="2.38057">
        <ele>159.4</ele>
        <time>2019-06-30T06:22:13.000Z</time>
      </trkpt>
      <trkpt lat="43.20355" lon="2.3806">
        <ele>159.6</ele>
        <time>2019-06-30T06:22:14.000Z</time>
      </trkpt>
      <trkpt lat="43.20355" lon="2.38062">
        <ele>159.8</ele>
        <time>2019-06-30T06:22:15.000Z</time>
      </trkpt>
      <trkpt lat="43.20355" lon="2.38065">
        <ele>160</ele>
        <time>2019-06-30T06:22:16.000Z</time>
      </trkpt>
      <trkpt lat="43.20356" lon="2.38068">
        <ele>160.1</ele>
        <time>2019-06-30T06:22:17.000Z</time>
      </trkpt>
      <trkpt lat="43.20357" lon="2.3807">
        <ele>160.3</ele>
        <time>2019-06-30T06:22:18.000Z</time>
      </trkpt>
      <trkpt lat="43.20358" lon="2.38073">
        <ele>160.4</ele>
        <time>2019-06-30T06:22:19.000Z</time>
      </trkpt>
      <trkpt lat="43.20359" lon="2.38076">
        <ele>160.5</ele>
        <time>2019-06-30T06:22:20.000Z</time>
      </trkpt>
      <trkpt lat="43.2036" lon="2.38078">
        <ele>160.6</ele>
        <time>2019-06-30T06:22:21.000Z</time>
      </trkpt>
      <trkpt lat="43.20361" lon="2.38081">
        <ele>160.8</ele>
        <time>2019-06-30T06:22:22.000Z</time>
      </trkpt>
      <trkpt lat="43.20362" lon="2.38083">
        <ele>160.9</ele>
        <time>2019-06-30T06:22:23.000Z</time>
      </trkpt>
      <trkpt lat="43.20363" lon="2.38086">
        <ele>161.2</ele>
        <time>2019-06-30T06:22:24.000Z</time>
      </trkpt>
      <trkpt lat="43.20364" lon="2.38089">
        <ele>161.5</ele>
        <time>2019-06-30T06:22:25.000Z</time>
      </trkpt>
      <trkpt lat="43.20365" lon="2.38092">
        <ele>161.8</ele>
        <time>2019-06-30T06:22:26.000Z</time>
      </trkpt>
      <trkpt lat="43.20365" lon="2.38095">
        <ele>162.1</ele>
        <time>2019-06-30T06:22:27.000Z</time>
      </trkpt>
      <trkpt lat="43.20366" lon="2.38097">
        <ele>162.4</ele>
        <time>2019-06-30T06:22:28.000Z</time>
      </trkpt>
      <trkpt lat="43.20366" lon="2.381">
        <ele>162.8</ele>
        <time>2019-06-30T06:22:29.000Z</time>
      </trkpt>
      <trkpt lat="43.20366" lon="2.38103">
        <ele>163.1</ele>
        <time>2019-06-30T06:22:30.000Z</time>
      </trkpt>
      <trkpt lat="43.20367" lon="2.38106">
        <ele>163.4</ele>
        <time>2019-06-30T06:22:31.000Z</time>
      </trkpt>
      <trkpt lat="43.20367" lon="2.38109">
        <ele>163.8</ele>
        <time>2019-06-30T06:22:32.000Z</time>
      </trkpt>
      <trkpt lat="43.20367" lon="2.38111">
        <ele>164.1</ele>
        <time>2019-06-30T06:22:33.000Z</time>
      </trkpt>
      <trkpt lat="43.20368" lon="2.38114">
        <ele>164.4</ele>
        <time>2019-06-30T06:22:34.000Z</time>
      </trkpt>
      <trkpt lat="43.20368" lon="2.38117">
        <ele>164.7</ele>
        <time>2019-06-30T06:22:35.000Z</time>
      </trkpt>
      <trkpt lat="43.20368" lon="2.38119">
        <ele>165</ele>
        <time>2019-06-30T06:22:36.000Z</time>
      </trkpt>
      <trkpt lat="43.20369" lon="2.38122">
        <ele>165.3</ele>
        <time>2019-06-30T06:22:37.000Z</time>
      </trkpt>
      <trkpt lat="43.20369" lon="2.38125">
        <ele>165.6</ele>
        <time>2019-06-30T06:22:38.000Z</time>
      </trkpt>
      <trkpt lat="43.2037" lon="2.38127">
        <ele>165.9</ele>
        <time>2019-06-30T06:22:39.000Z</time>
      </trkpt>
      <trkpt lat="43.20371" lon="2.3813">
        <ele>166.2</ele>
        <time>2019-06-30T06:22:40.000Z</time>
      </trkpt>
      <trkpt lat="43.20371" lon="2.38133">
        <ele>166.5</ele>
        <time>2019-06-30T06:22:41.000Z</time>
      </trkpt>
      <trkpt lat="43.20372" lon="2.38135">
        <ele>166.7</ele>
        <time>2019-06-30T06:22:42.000Z</time>
      </trkpt>
      <trkpt lat="43.20373" lon="2.38138">
        <ele>167</ele>
        <time>2019-06-30T06:22:43.000Z</time>
      </trkpt>
      <trkpt lat="43.20374" lon="2.38141">
        <ele>167.2</ele>
        <time>2019-06-30T06:22:44.000Z</time>
      </trkpt>
      <trkpt lat="43.20374" lon="2.38143">
        <ele>167.5</ele>
        <time>2019-06-30T06:22:45.000Z</time>
      </trkpt>
      <trkpt lat="43.20375" lon="2.38146">
        <ele>167.7</ele>
        <time>2019-06-30T06:22:46.000Z</time>
      </trkpt>
      <trkpt lat="43.20376" lon="2.38149">
        <ele>168</ele>
        <time>2019-06-30T06:22:47.000Z</time>
      </trkpt>
      <trkpt lat="43.20377" lon="2.38151">
        <ele>168.2</ele>
        <time>2019-06-30T06:22:48.000Z</time>
      </trkpt>
      <trkpt lat="43.20378" lon="2.38154">
        <ele>168.5</ele>
        <time>2019-06-30T06:22:49.000Z</time>
      </trkpt>
      <trkpt lat="43.20378" lon="2.38157">
        <ele>168.7</ele>
        <time>2019-06-30T06:22:50.000Z</time>
      </trkpt>
      <trkpt lat="43.20379" lon="2.3816">
        <ele>169</ele>
        <time>2019-06-30T06:22:51.000Z</time>
      </trkpt>
      <trkpt lat="43.2038" lon="2.38162">
        <ele>169.3</ele>
        <time>2019-06-30T06:22:52.000Z</time>
      </trkpt>
      <trkpt lat="43.20381" lon="2.38165">
        <ele>169.5</ele>
        <time>2019-06-30T06:22:53.000Z</time>
      </trkpt>
      <trkpt lat="43.20381" lon="2.38168">
        <ele>169.7</ele>
        <time>2019-06-30T06:22:54.000Z</time>
      </trkpt>
      <trkpt lat="43.20382" lon="2.38171">
        <ele>169.8</ele>
        <time>2019-06-30T06:22:55.000Z</time>
      </trkpt>
      <trkpt lat="43.20383" lon="2.38173">
        <ele>169.9</ele>
        <time>2019-06-30T06:22:56.000Z</time>
      </trkpt>
      <trkpt lat="43.20383" lon="2.38176">
        <ele>170</ele>
        <time>2019-06-30T06:22:57.000Z</time>
      </trkpt>
      <trkpt lat="43.20384" lon="2.38179">
        <ele>170.1</ele>
        <time>2019-06-30T06:22:58.000Z</time>
      </trkpt>
      <trkpt lat="43.20384" lon="2.38182">
        <ele>170.2</ele>
        <time>2019-06-30T06:22:59.000Z</time>
      </trkpt>
      <trkpt lat="43.20384" lon="2.38184">
        <ele>170.3</ele>
        <time>2019-06-30T06:23:00.000Z</time>
      </trkpt>
      <trkpt lat="43.20385" lon="2.38187">
        <ele>170.4</ele>
        <time>2019-06-30T06:23:01.000Z</time>
      </trkpt>
      <trkpt lat="43.20385" lon="2.3819">
        <ele>170.5</ele>
        <time>2019-06-30T06:23:02.000Z</time>
      </trkpt>
      <trkpt lat="43.20385" lon="2.38193">
        <ele>170.7</ele>
        <time>2019-06-30T06:23:03.000Z</time>
      </trkpt>
      <trkpt lat="43.20386" lon="2.38195">
        <ele>170.8</ele>
        <time>2019-06-30T06:23:04.000Z</time>
      </trkpt>
      <trkpt lat="43.20386" lon="2.38198">
        <ele>170.9</ele>
        <time>2019-06-30T06:23:05.000Z</time>
      </trkpt>
      <trkpt lat="43.20386" lon="2.382">
        <ele>171</ele>
        <time>2019-06-30T06:23:06.000Z</time>
      </trkpt>
      <trkpt lat="43.20386" lon="2.38203">
        <ele>171.2</ele>
        <time>2019-06-30T06:23:07.000Z</time>
      </trkpt>
      <trkpt lat="43.20386" lon="2.38205">
        <ele>171.3</ele>
        <time>2019-06-30T06:23:08.000Z</time>
      </trkpt>
      <trkpt lat="43.20386" lon="2.38207">
        <ele>171.4</ele>
        <time>2019-06-30T06:23:09.000Z</time>
      </trkpt>
      <trkpt lat="43.20386" lon="2.3821">
        <ele>171.6</ele>
        <time>2019-06-30T06:23:10.000Z</time>
      </trkpt>
      <trkpt lat="43.20386" lon="2.38212">
        <ele>171.7</ele>
        <time>2019-06-30T06:23:11.000Z</time>
      </trkpt>
      <trkpt lat="43.20387" lon="2.38215">
        <ele>171.9</ele>
        <time>2019-06-30T06:23:12.000Z</time>
      </trkpt>
      <trkpt lat="43.20387" lon="2.38217">
        <ele>172</ele>
        <time>2019-06-30T06:23:13.000Z</time>
      </trkpt>
      <trkpt lat="43.20387" lon="2.3822">
        <ele>172.1</ele>
        <time>2019-06-30T06:23:14.000Z</time>
      </trkpt>
      <trkpt lat="43.20387" lon="2.38222">
        <ele>172.3</ele>
        <time>2019-06-30T06:23:15.000Z</time>
      </trkpt>
      <trkpt lat="43.20387" lon="2.38225">
        <ele>172.4</ele>
        <time>2019-06-30T06:23:16.000Z</time>
      </trkpt>
      <trkpt lat="43.20387" lon="2.38228">
        <ele>172.6</ele>
        <time>2019-06-30T06:23:17.000Z</time>
      </trkpt>
      <trkpt lat="43.20387" lon="2.3823">
        <ele>172.8</ele>
        <time>2019-06-30T06:23:18.000Z</time>
      </trkpt>
      <trkpt lat="43.20387" lon="2.38233">
        <ele>172.9</ele>
        <time>2019-06-30T06:23:19.000Z</time>
      </trkpt>
      <trkpt lat="43.20387" lon="2.38236">
        <ele>173.1</ele>
        <time>2019-06-30T06:23:20.000Z</time>
      </trkpt>
      <trkpt lat="43.20387" lon="2.38239">
        <ele>173.3</ele>
        <time>2019-06-30T06:23:21.000Z</time>
      </trkpt>
      <trkpt lat="43.20386" lon="2.38241">
        <ele>173.5</ele>
        <time>2019-06-30T06:23:22.000Z</time>
      </trkpt>
      <trkpt lat="43.20386" lon="2.38244">
        <ele>173.7</ele>
        <time>2019-06-30T06:23:23.000Z</time>
      </trkpt>
      <trkpt lat="43.20385" lon="2.38247">
        <ele>173.9</ele>
        <time>2019-06-30T06:23:24.000Z</time>
      </trkpt>
      <trkpt lat="43.20385" lon="2.38249">
        <ele>174.1</ele>
        <time>2019-06-30T06:23:25.000Z</time>
      </trkpt>
      <trkpt lat="43.20385" lon="2.38252">
        <ele>174.2</ele>
        <time>2019-06-30T06:23:26.000Z</time>
      </trkpt>
      <trkpt lat="43.20385" lon="2.38254">
        <ele>174.3</ele>
        <time>2019-06-30T06:23:27.000Z</time>
      </trkpt>
      <trkpt lat="43.20384" lon="2.38256">
        <ele>174.3</ele>
        <time>2019-06-30T06:23:28.000Z</time>
      </trkpt>
      <trkpt lat="43.20384" lon="2.38258">
        <ele>174.4</ele>
        <time>2019-06-30T06:23:29.000Z</time>
      </trkpt>
      <trkpt lat="43.20384" lon="2.38261">
        <ele>174.4</ele>
        <time>2019-06-30T06:23:30.000Z</time>
      </trkpt>
      <trkpt lat="43.20384" lon="2.38263">
        <ele>174.5</ele>
        <time>2019-06-30T06:23:31.000Z</time>
      </trkpt>
      <trkpt lat="43.20384" lon="2.38265">
        <ele>174.5</ele>
        <time>2019-06-30T06:23:32.000Z</time>
      </trkpt>
      <trkpt lat="43.20383" lon="2.38267">
        <ele>174.6</ele>
        <time>2019-06-30T06:23:33.000Z</time>
      </trkpt>
      <trkpt lat="43.20383" lon="2.38268">
        <ele>174.7</ele>
        <time>2019-06-30T06:23:34.000Z</time>
      </trkpt>
      <trkpt lat="43.20382" lon="2.38268">
        <ele>174.8</ele>
        <time>2019-06-30T06:23:35.000Z</time>
      </trkpt>
      <trkpt lat="43.20382" lon="2.38268">
        <ele>174.9</ele>
        <time>2019-06-30T06:23:36.000Z</time>
      </trkpt>
      <trkpt lat="43.20381" lon="2.38269">
        <ele>174.9</ele>
        <time>2019-06-30T06:23:37.000Z</time>
      </trkpt>
      <trkpt lat="43.20382" lon="2.3827">
        <ele>174.8</ele>
        <time>2019-06-30T06:23:38.000Z</time>
      </trkpt>
      <trkpt lat="43.20382" lon="2.3827">
        <ele>174.8</ele>
        <time>2019-06-30T06:23:39.000Z</time>
      </trkpt>
      <trkpt lat="43.20383" lon="2.38271">
        <ele>174.8</ele>
        <time>2019-06-30T06:23:40.000Z</time>
      </trkpt>
      <trkpt lat="43.20383" lon="2.38272">
        <ele>174.7</ele>
        <time>2019-06-30T06:23:41.000Z</time>
      </trkpt>
      <trkpt lat="43.20383" lon="2.38273">
        <ele>174.7</ele>
        <time>2019-06-30T06:23:42.000Z</time>
      </trkpt>
      <trkpt lat="43.20383" lon="2.38274">
        <ele>174.7</ele>
        <time>2019-06-30T06:23:43.000Z</time>
      </trkpt>
      <trkpt lat="43.20383" lon="2.38275">
        <ele>174.7</ele>
        <time>2019-06-30T06:23:44.000Z</time>
      </trkpt>
      <trkpt lat="43.20383" lon="2.38276">
        <ele>174.7</ele>
        <time>2019-06-30T06:23:45.000Z</time>
      </trkpt>
      <trkpt lat="43.20383" lon="2.38277">
        <ele>174.7</ele>
        <time>2019-06-30T06:23:46.000Z</time>
      </trkpt>
      <trkpt lat="43.20383" lon="2.38278">
        <ele>174.8</ele>
        <time>2019-06-30T06:23:47.000Z</time>
      </trkpt>
      <trkpt lat="43.20383" lon="2.3828">
        <ele>174.8</ele>
        <time>2019-06-30T06:23:48.000Z</time>
      </trkpt>
      <trkpt lat="43.20383" lon="2.38281">
        <ele>174.8</ele>
        <time>2019-06-30T06:23:49.000Z</time>
      </trkpt>
      <trkpt lat="43.20383" lon="2.38282">
        <ele>174.8</ele>
        <time>2019-06-30T06:23:50.000Z</time>
      </trkpt>
      <trkpt lat="43.20383" lon="2.38284">
        <ele>174.8</ele>
        <time>2019-06-30T06:23:51.000Z</time>
      </trkpt>
      <trkpt lat="43.20384" lon="2.38285">
        <ele>174.8</ele>
        <time>2019-06-30T06:23:52.000Z</time>
      </trkpt>
      <trkpt lat="43.20384" lon="2.38287">
        <ele>174.8</ele>
        <time>2019-06-30T06:23:53.000Z</time>
      </trkpt>
      <trkpt lat="43.20384" lon="2.38288">
        <ele>174.8</ele>
        <time>2019-06-30T06:23:54.000Z</time>
      </trkpt>
      <trkpt lat="43.20384" lon="2.3829">
        <ele>174.8</ele>
        <time>2019-06-30T06:23:55.000Z</time>
      </trkpt>
      <trkpt lat="43.20384" lon="2.38292">
        <ele>174.8</ele>
        <time>2019-06-30T06:23:56.000Z</time>
      </trkpt>
      <trkpt lat="43.20385" lon="2.38294">
        <ele>174.8</ele>
        <time>2019-06-30T06:23:57.000Z</time>
      </trkpt>
      <trkpt lat="43.20385" lon="2.38296">
        <ele>174.7</ele>
        <time>2019-06-30T06:23:58.000Z</time>
      </trkpt>
      <trkpt lat="43.20385" lon="2.38298">
        <ele>174.7</ele>
        <time>2019-06-30T06:23:59.000Z</time>
      </trkpt>
      <trkpt lat="43.20385" lon="2.383">
        <ele>174.7</ele>
        <time>2019-06-30T06:24:00.000Z</time>
      </trkpt>
      <trkpt lat="43.20386" lon="2.38302">
        <ele>174.7</ele>
        <time>2019-06-30T06:24:01.000Z</time>
      </trkpt>
      <trkpt lat="43.20386" lon="2.38304">
        <ele>174.7</ele>
        <time>2019-06-30T06:24:02.000Z</time>
      </trkpt>
      <trkpt lat="43.20386" lon="2.38307">
        <ele>174.7</ele>
        <time>2019-06-30T06:24:03.000Z</time>
      </trkpt>
      <trkpt lat="43.20386" lon="2.38309">
        <ele>174.7</ele>
        <time>2019-06-30T06:24:04.000Z</time>
      </trkpt>
      <trkpt lat="43.20386" lon="2.38311">
        <ele>174.8</ele>
        <time>2019-06-30T06:24:05.000Z</time>
      </trkpt>
      <trkpt lat="43.20386" lon="2.38314">
        <ele>174.8</ele>
        <time>2019-06-30T06:24:06.000Z</time>
      </trkpt>
      <trkpt lat="43.20387" lon="2.38316">
        <ele>174.7</ele>
        <time>2019-06-30T06:24:07.000Z</time>
      </trkpt>
      <trkpt lat="43.20387" lon="2.38319">
        <ele>174.7</ele>
        <time>2019-06-30T06:24:08.000Z</time>
      </trkpt>
      <trkpt lat="43.20387" lon="2.38321">
        <ele>174.7</ele>
        <time>2019-06-30T06:24:09.000Z</time>
      </trkpt>
      <trkpt lat="43.20388" lon="2.38323">
        <ele>174.7</ele>
        <time>2019-06-30T06:24:10.000Z</time>
      </trkpt>
      <trkpt lat="43.20389" lon="2.38326">
        <ele>174.6</ele>
        <time>2019-06-30T06:24:11.000Z</time>
      </trkpt>
      <trkpt lat="43.2039" lon="2.38328">
        <ele>174.5</ele>
        <time>2019-06-30T06:24:12.000Z</time>
      </trkpt>
      <trkpt lat="43.2039" lon="2.3833">
        <ele>174.4</ele>
        <time>2019-06-30T06:24:13.000Z</time>
      </trkpt>
      <trkpt lat="43.20391" lon="2.38332">
        <ele>174.3</ele>
        <time>2019-06-30T06:24:14.000Z</time>
      </trkpt>
      <trkpt lat="43.20392" lon="2.38334">
        <ele>174.2</ele>
        <time>2019-06-30T06:24:15.000Z</time>
      </trkpt>
      <trkpt lat="43.20393" lon="2.38335">
        <ele>174</ele>
        <time>2019-06-30T06:24:16.000Z</time>
      </trkpt>
      <trkpt lat="43.20394" lon="2.38337">
        <ele>173.9</ele>
        <time>2019-06-30T06:24:17.000Z</time>
      </trkpt>
      <trkpt lat="43.20395" lon="2.38338">
        <ele>173.7</ele>
        <time>2019-06-30T06:24:18.000Z</time>
      </trkpt>
      <trkpt lat="43.20395" lon="2.38339">
        <ele>173.6</ele>
        <time>2019-06-30T06:24:19.000Z</time>
      </trkpt>
      <trkpt lat="43.20396" lon="2.3834">
        <ele>173.5</ele>
        <time>2019-06-30T06:24:20.000Z</time>
      </trkpt>
      <trkpt lat="43.20396" lon="2.38341">
        <ele>173.4</ele>
        <time>2019-06-30T06:24:21.000Z</time>
      </trkpt>
      <trkpt lat="43.20396" lon="2.38342">
        <ele>173.3</ele>
        <time>2019-06-30T06:24:22.000Z</time>
      </trkpt>
      <trkpt lat="43.20396" lon="2.38342">
        <ele>173.2</ele>
        <time>2019-06-30T06:24:23.000Z</time>
      </trkpt>
      <trkpt lat="43.20397" lon="2.38343">
        <ele>173.2</ele>
        <time>2019-06-30T06:24:24.000Z</time>
      </trkpt>
      <trkpt lat="43.20397" lon="2.38343">
        <ele>173.2</ele>
        <time>2019-06-30T06:24:25.000Z</time>
      </trkpt>
      <trkpt lat="43.20397" lon="2.38343">
        <ele>173.2</ele>
        <time>2019-06-30T06:24:26.000Z</time>
      </trkpt>
      <trkpt lat="43.20397" lon="2.38344">
        <ele>173.1</ele>
        <time>2019-06-30T06:24:27.000Z</time>
      </trkpt>
      <trkpt lat="43.20397" lon="2.38344">
        <ele>173.1</ele>
        <time>2019-06-30T06:24:28.000Z</time>
      </trkpt>
      <trkpt lat="43.20397" lon="2.38344">
        <ele>173.1</ele>
        <time>2019-06-30T06:24:29.000Z</time>
      </trkpt>
      <trkpt lat="43.20397" lon="2.38344">
        <ele>173.1</ele>
        <time>2019-06-30T06:24:30.000Z</time>
      </trkpt>
      <trkpt lat="43.20396" lon="2.38344">
        <ele>173.2</ele>
        <time>2019-06-30T06:24:31.000Z</time>
      </trkpt>
      <trkpt lat="43.20396" lon="2.38344">
        <ele>173.2</ele>
        <time>2019-06-30T06:24:32.000Z</time>
      </trkpt>
      <trkpt lat="43.20396" lon="2.38345">
        <ele>173.1</ele>
        <time>2019-06-30T06:24:33.000Z</time>
      </trkpt>
      <trkpt lat="43.20397" lon="2.38345">
        <ele>173.1</ele>
        <time>2019-06-30T06:24:34.000Z</time>
      </trkpt>
      <trkpt lat="43.20397" lon="2.38346">
        <ele>173</ele>
        <time>2019-06-30T06:24:35.000Z</time>
      </trkpt>
      <trkpt lat="43.20398" lon="2.38347">
        <ele>172.9</ele>
        <time>2019-06-30T06:24:36.000Z</time>
      </trkpt>
      <trkpt lat="43.20399" lon="2.38348">
        <ele>172.7</ele>
        <time>2019-06-30T06:24:37.000Z</time>
      </trkpt>
      <trkpt lat="43.204" lon="2.38349">
        <ele>172.5</ele>
        <time>2019-06-30T06:24:38.000Z</time>
      </trkpt>
      <trkpt lat="43.204" lon="2.38351">
        <ele>172.3</ele>
        <time>2019-06-30T06:24:39.000Z</time>
      </trkpt>
      <trkpt lat="43.20401" lon="2.38352">
        <ele>172.1</ele>
        <time>2019-06-30T06:24:40.000Z</time>
      </trkpt>
      <trkpt lat="43.20402" lon="2.38354">
        <ele>171.9</ele>
        <time>2019-06-30T06:24:41.000Z</time>
      </trkpt>
      <trkpt lat="43.20403" lon="2.38356">
        <ele>171.6</ele>
        <time>2019-06-30T06:24:42.000Z</time>
      </trkpt>
      <trkpt lat="43.20404" lon="2.38357">
        <ele>171.4</ele>
        <time>2019-06-30T06:24:43.000Z</time>
      </trkpt>
      <trkpt lat="43.20405" lon="2.38359">
        <ele>171.2</ele>
        <time>2019-06-30T06:24:44.000Z</time>
      </trkpt>
      <trkpt lat="43.20406" lon="2.38361">
        <ele>171</ele>
        <time>2019-06-30T06:24:45.000Z</time>
      </trkpt>
      <trkpt lat="43.20406" lon="2.38364">
        <ele>170.8</ele>
        <time>2019-06-30T06:24:46.000Z</time>
      </trkpt>
      <trkpt lat="43.20406" lon="2.38366">
        <ele>170.6</ele>
        <time>2019-06-30T06:24:47.000Z</time>
      </trkpt>
      <trkpt lat="43.20406" lon="2.38368">
        <ele>170.5</ele>
        <time>2019-06-30T06:24:48.000Z</time>
      </trkpt>
      <trkpt lat="43.20406" lon="2.38371">
        <ele>170.4</ele>
        <time>2019-06-30T06:24:49.000Z</time>
      </trkpt>
      <trkpt lat="43.20406" lon="2.38373">
        <ele>170.3</ele>
        <time>2019-06-30T06:24:50.000Z</time>
      </trkpt>
      <trkpt lat="43.20406" lon="2.38376">
        <ele>170.2</ele>
        <time>2019-06-30T06:24:51.000Z</time>
      </trkpt>
      <trkpt lat="43.20405" lon="2.38378">
        <ele>170.1</ele>
        <time>2019-06-30T06:24:52.000Z</time>
      </trkpt>
      <trkpt lat="43.20405" lon="2.38381">
        <ele>170.1</ele>
        <time>2019-06-30T06:24:53.000Z</time>
      </trkpt>
      <trkpt lat="43.20404" lon="2.38383">
        <ele>170</ele>
        <time>2019-06-30T06:24:54.000Z</time>
      </trkpt>
      <trkpt lat="43.20404" lon="2.38386">
        <ele>169.9</ele>
        <time>2019-06-30T06:24:55.000Z</time>
      </trkpt>
      <trkpt lat="43.20404" lon="2.3839">
        <ele>169.7</ele>
        <time>2019-06-30T06:24:56.000Z</time>
      </trkpt>
      <trkpt lat="43.20405" lon="2.38393">
        <ele>169.4</ele>
        <time>2019-06-30T06:24:57.000Z</time>
      </trkpt>
      <trkpt lat="43.20406" lon="2.38397">
        <ele>169.1</ele>
        <time>2019-06-30T06:24:58.000Z</time>
      </trkpt>
      <trkpt lat="43.20406" lon="2.38401">
        <ele>168.7</ele>
        <time>2019-06-30T06:24:59.000Z</time>
      </trkpt>
      <trkpt lat="43.20407" lon="2.38404">
        <ele>168.4</ele>
        <time>2019-06-30T06:25:00.000Z</time>
      </trkpt>
      <trkpt lat="43.20408" lon="2.38407">
        <ele>168.1</ele>
        <time>2019-06-30T06:25:01.000Z</time>
      </trkpt>
      <trkpt lat="43.20408" lon="2.38411">
        <ele>167.9</ele>
        <time>2019-06-30T06:25:02.000Z</time>
      </trkpt>
      <trkpt lat="43.20408" lon="2.38414">
        <ele>167.6</ele>
        <time>2019-06-30T06:25:03.000Z</time>
      </trkpt>
      <trkpt lat="43.20409" lon="2.38417">
        <ele>167.4</ele>
        <time>2019-06-30T06:25:04.000Z</time>
      </trkpt>
      <trkpt lat="43.20409" lon="2.3842">
        <ele>167.2</ele>
        <time>2019-06-30T06:25:05.000Z</time>
      </trkpt>
      <trkpt lat="43.2041" lon="2.38424">
        <ele>167.1</ele>
        <time>2019-06-30T06:25:06.000Z</time>
      </trkpt>
      <trkpt lat="43.2041" lon="2.38427">
        <ele>166.8</ele>
        <time>2019-06-30T06:25:07.000Z</time>
      </trkpt>
      <trkpt lat="43.20411" lon="2.3843">
        <ele>166.6</ele>
        <time>2019-06-30T06:25:08.000Z</time>
      </trkpt>
      <trkpt lat="43.20411" lon="2.38434">
        <ele>166.4</ele>
        <time>2019-06-30T06:25:09.000Z</time>
      </trkpt>
      <trkpt lat="43.20412" lon="2.38438">
        <ele>166.1</ele>
        <time>2019-06-30T06:25:10.000Z</time>
      </trkpt>
      <trkpt lat="43.20412" lon="2.38441">
        <ele>165.9</ele>
        <time>2019-06-30T06:25:11.000Z</time>
      </trkpt>
      <trkpt lat="43.20413" lon="2.38445">
        <ele>165.7</ele>
        <time>2019-06-30T06:25:12.000Z</time>
      </trkpt>
      <trkpt lat="43.20413" lon="2.38449">
        <ele>165.4</ele>
        <time>2019-06-30T06:25:13.000Z</time>
      </trkpt>
      <trkpt lat="43.20414" lon="2.38452">
        <ele>165.3</ele>
        <time>2019-06-30T06:25:14.000Z</time>
      </trkpt>
      <trkpt lat="43.20414" lon="2.38456">
        <ele>165.1</ele>
        <time>2019-06-30T06:25:15.000Z</time>
      </trkpt>
      <trkpt lat="43.20414" lon="2.3846">
        <ele>165</ele>
        <time>2019-06-30T06:25:16.000Z</time>
      </trkpt>
      <trkpt lat="43.20414" lon="2.38463">
        <ele>164.8</ele>
        <time>2019-06-30T06:25:17.000Z</time>
      </trkpt>
      <trkpt lat="43.20414" lon="2.38467">
        <ele>164.7</ele>
        <time>2019-06-30T06:25:18.000Z</time>
      </trkpt>
      <trkpt lat="43.20414" lon="2.3847">
        <ele>164.6</ele>
        <time>2019-06-30T06:25:19.000Z</time>
      </trkpt>
      <trkpt lat="43.20414" lon="2.38474">
        <ele>164.5</ele>
        <time>2019-06-30T06:25:20.000Z</time>
      </trkpt>
      <trkpt lat="43.20413" lon="2.38477">
        <ele>164.4</ele>
        <time>2019-06-30T06:25:21.000Z</time>
      </trkpt>
      <trkpt lat="43.20413" lon="2.38481">
        <ele>164.4</ele>
        <time>2019-06-30T06:25:22.000Z</time>
      </trkpt>
      <trkpt lat="43.20413" lon="2.38485">
        <ele>164.3</ele>
        <time>2019-06-30T06:25:23.000Z</time>
      </trkpt>
      <trkpt lat="43.20413" lon="2.38489">
        <ele>164.2</ele>
        <time>2019-06-30T06:25:24.000Z</time>
      </trkpt>
      <trkpt lat="43.20412" lon="2.38492">
        <ele>164.1</ele>
        <time>2019-06-30T06:25:25.000Z</time>
      </trkpt>
      <trkpt lat="43.20412" lon="2.38496">
        <ele>164</ele>
        <time>2019-06-30T06:25:26.000Z</time>
      </trkpt>
      <trkpt lat="43.20412" lon="2.385">
        <ele>163.9</ele>
        <time>2019-06-30T06:25:27.000Z</time>
      </trkpt>
      <trkpt lat="43.20412" lon="2.38505">
        <ele>163.7</ele>
        <time>2019-06-30T06:25:28.000Z</time>
      </trkpt>
      <trkpt lat="43.20412" lon="2.38509">
        <ele>163.6</ele>
        <time>2019-06-30T06:25:29.000Z</time>
      </trkpt>
      <trkpt lat="43.20412" lon="2.38513">
        <ele>163.4</ele>
        <time>2019-06-30T06:25:30.000Z</time>
      </trkpt>
      <trkpt lat="43.20412" lon="2.38517">
        <ele>163.3</ele>
        <time>2019-06-30T06:25:31.000Z</time>
      </trkpt>
      <trkpt lat="43.20412" lon="2.38521">
        <ele>163.1</ele>
        <time>2019-06-30T06:25:32.000Z</time>
      </trkpt>
      <trkpt lat="43.20412" lon="2.38526">
        <ele>163</ele>
        <time>2019-06-30T06:25:33.000Z</time>
      </trkpt>
      <trkpt lat="43.20411" lon="2.3853">
        <ele>162.9</ele>
        <time>2019-06-30T06:25:34.000Z</time>
      </trkpt>
      <trkpt lat="43.20411" lon="2.38533">
        <ele>162.9</ele>
        <time>2019-06-30T06:25:35.000Z</time>
      </trkpt>
      <trkpt lat="43.2041" lon="2.38537">
        <ele>162.8</ele>
        <time>2019-06-30T06:25:36.000Z</time>
      </trkpt>
      <trkpt lat="43.2041" lon="2.38541">
        <ele>162.8</ele>
        <time>2019-06-30T06:25:37.000Z</time>
      </trkpt>
      <trkpt lat="43.20409" lon="2.38544">
        <ele>162.9</ele>
        <time>2019-06-30T06:25:38.000Z</time>
      </trkpt>
      <trkpt lat="43.20408" lon="2.38548">
        <ele>162.9</ele>
        <time>2019-06-30T06:25:39.000Z</time>
      </trkpt>
      <trkpt lat="43.20407" lon="2.38551">
        <ele>162.9</ele>
        <time>2019-06-30T06:25:40.000Z</time>
      </trkpt>
      <trkpt lat="43.20406" lon="2.38555">
        <ele>162.9</ele>
        <time>2019-06-30T06:25:41.000Z</time>
      </trkpt>
      <trkpt lat="43.20405" lon="2.38558">
        <ele>163</ele>
        <time>2019-06-30T06:25:42.000Z</time>
      </trkpt>
      <trkpt lat="43.20404" lon="2.38561">
        <ele>163</ele>
        <time>2019-06-30T06:25:43.000Z</time>
      </trkpt>
      <trkpt lat="43.20403" lon="2.38565">
        <ele>163</ele>
        <time>2019-06-30T06:25:44.000Z</time>
      </trkpt>
      <trkpt lat="43.20403" lon="2.38568">
        <ele>163</ele>
        <time>2019-06-30T06:25:45.000Z</time>
      </trkpt>
      <trkpt lat="43.20402" lon="2.38571">
        <ele>163</ele>
        <time>2019-06-30T06:25:46.000Z</time>
      </trkpt>
      <trkpt lat="43.20401" lon="2.38575">
        <ele>163</ele>
        <time>2019-06-30T06:25:47.000Z</time>
      </trkpt>
      <trkpt lat="43.204" lon="2.38578">
        <ele>163</ele>
        <time>2019-06-30T06:25:48.000Z</time>
      </trkpt>
      <trkpt lat="43.20399" lon="2.38581">
        <ele>163</ele>
        <time>2019-06-30T06:25:49.000Z</time>
      </trkpt>
      <trkpt lat="43.20399" lon="2.38585">
        <ele>163</ele>
        <time>2019-06-30T06:25:50.000Z</time>
      </trkpt>
      <trkpt lat="43.20398" lon="2.38588">
        <ele>163</ele>
        <time>2019-06-30T06:25:51.000Z</time>
      </trkpt>
      <trkpt lat="43.20397" lon="2.38591">
        <ele>163</ele>
        <time>2019-06-30T06:25:52.000Z</time>
      </trkpt>
      <trkpt lat="43.20396" lon="2.38595">
        <ele>163</ele>
        <time>2019-06-30T06:25:53.000Z</time>
      </trkpt>
      <trkpt lat="43.20395" lon="2.38598">
        <ele>163</ele>
        <time>2019-06-30T06:25:54.000Z</time>
      </trkpt>
      <trkpt lat="43.20395" lon="2.38601">
        <ele>163.1</ele>
        <time>2019-06-30T06:25:55.000Z</time>
      </trkpt>
      <trkpt lat="43.20394" lon="2.38604">
        <ele>163.1</ele>
        <time>2019-06-30T06:25:56.000Z</time>
      </trkpt>
      <trkpt lat="43.20393" lon="2.38608">
        <ele>163.1</ele>
        <time>2019-06-30T06:25:57.000Z</time>
      </trkpt>
      <trkpt lat="43.20392" lon="2.38611">
        <ele>163.1</ele>
        <time>2019-06-30T06:25:58.000Z</time>
      </trkpt>
      <trkpt lat="43.20391" lon="2.38614">
        <ele>163.1</ele>
        <time>2019-06-30T06:25:59.000Z</time>
      </trkpt>
      <trkpt lat="43.20391" lon="2.38618">
        <ele>163.1</ele>
        <time>2019-06-30T06:26:00.000Z</time>
      </trkpt>
      <trkpt lat="43.2039" lon="2.38621">
        <ele>163</ele>
        <time>2019-06-30T06:26:01.000Z</time>
      </trkpt>
      <trkpt lat="43.20389" lon="2.38624">
        <ele>163</ele>
        <time>2019-06-30T06:26:02.000Z</time>
      </trkpt>
      <trkpt lat="43.20388" lon="2.38628">
        <ele>163</ele>
        <time>2019-06-30T06:26:03.000Z</time>
      </trkpt>
      <trkpt lat="43.20387" lon="2.38631">
        <ele>163</ele>
        <time>2019-06-30T06:26:04.000Z</time>
      </trkpt>
      <trkpt lat="43.20386" lon="2.38634">
        <ele>163</ele>
        <time>2019-06-30T06:26:05.000Z</time>
      </trkpt>
      <trkpt lat="43.20386" lon="2.38638">
        <ele>163</ele>
        <time>2019-06-30T06:26:06.000Z</time>
      </trkpt>
      <trkpt lat="43.20385" lon="2.38641">
        <ele>162.9</ele>
        <time>2019-06-30T06:26:07.000Z</time>
      </trkpt>
      <trkpt lat="43.20384" lon="2.38644">
        <ele>162.9</ele>
        <time>2019-06-30T06:26:08.000Z</time>
      </trkpt>
      <trkpt lat="43.20383" lon="2.38647">
        <ele>162.9</ele>
        <time>2019-06-30T06:26:09.000Z</time>
      </trkpt>
      <trkpt lat="43.20382" lon="2.38651">
        <ele>162.9</ele>
        <time>2019-06-30T06:26:10.000Z</time>
      </trkpt>
      <trkpt lat="43.20381" lon="2.38654">
        <ele>162.8</ele>
        <time>2019-06-30T06:26:11.000Z</time>
      </trkpt>
      <trkpt lat="43.2038" lon="2.38657">
        <ele>162.8</ele>
        <time>2019-06-30T06:26:12.000Z</time>
      </trkpt>
      <trkpt lat="43.2038" lon="2.3866">
        <ele>162.7</ele>
        <time>2019-06-30T06:26:13.000Z</time>
      </trkpt>
      <trkpt lat="43.20379" lon="2.38664">
        <ele>162.7</ele>
        <time>2019-06-30T06:26:14.000Z</time>
      </trkpt>
      <trkpt lat="43.20378" lon="2.38667">
        <ele>162.7</ele>
        <time>2019-06-30T06:26:15.000Z</time>
      </trkpt>
      <trkpt lat="43.20377" lon="2.3867">
        <ele>162.7</ele>
        <time>2019-06-30T06:26:16.000Z</time>
      </trkpt>
      <trkpt lat="43.20376" lon="2.38673">
        <ele>162.8</ele>
        <time>2019-06-30T06:26:17.000Z</time>
      </trkpt>
      <trkpt lat="43.20376" lon="2.38676">
        <ele>162.8</ele>
        <time>2019-06-30T06:26:18.000Z</time>
      </trkpt>
      <trkpt lat="43.20375" lon="2.38679">
        <ele>162.9</ele>
        <time>2019-06-30T06:26:19.000Z</time>
      </trkpt>
      <trkpt lat="43.20374" lon="2.38682">
        <ele>162.9</ele>
        <time>2019-06-30T06:26:20.000Z</time>
      </trkpt>
      <trkpt lat="43.20373" lon="2.38686">
        <ele>163</ele>
        <time>2019-06-30T06:26:21.000Z</time>
      </trkpt>
      <trkpt lat="43.20372" lon="2.38689">
        <ele>163.1</ele>
        <time>2019-06-30T06:26:22.000Z</time>
      </trkpt>
      <trkpt lat="43.20372" lon="2.38692">
        <ele>163.1</ele>
        <time>2019-06-30T06:26:23.000Z</time>
      </trkpt>
      <trkpt lat="43.20371" lon="2.38695">
        <ele>163.2</ele>
        <time>2019-06-30T06:26:24.000Z</time>
      </trkpt>
      <trkpt lat="43.2037" lon="2.38698">
        <ele>163.3</ele>
        <time>2019-06-30T06:26:25.000Z</time>
      </trkpt>
      <trkpt lat="43.20369" lon="2.387">
        <ele>163.3</ele>
        <time>2019-06-30T06:26:26.000Z</time>
      </trkpt>
      <trkpt lat="43.20369" lon="2.38703">
        <ele>163.4</ele>
        <time>2019-06-30T06:26:27.000Z</time>
      </trkpt>
      <trkpt lat="43.20368" lon="2.38706">
        <ele>163.5</ele>
        <time>2019-06-30T06:26:28.000Z</time>
      </trkpt>
      <trkpt lat="43.20367" lon="2.38709">
        <ele>163.5</ele>
        <time>2019-06-30T06:26:29.000Z</time>
      </trkpt>
      <trkpt lat="43.20367" lon="2.38712">
        <ele>163.6</ele>
        <time>2019-06-30T06:26:30.000Z</time>
      </trkpt>
      <trkpt lat="43.20366" lon="2.38715">
        <ele>163.7</ele>
        <time>2019-06-30T06:26:31.000Z</time>
      </trkpt>
      <trkpt lat="43.20365" lon="2.38717">
        <ele>163.7</ele>
        <time>2019-06-30T06:26:32.000Z</time>
      </trkpt>
      <trkpt lat="43.20365" lon="2.3872">
        <ele>163.8</ele>
        <time>2019-06-30T06:26:33.000Z</time>
      </trkpt>
      <trkpt lat="43.20364" lon="2.38723">
        <ele>163.9</ele>
        <time>2019-06-30T06:26:34.000Z</time>
      </trkpt>
      <trkpt lat="43.20363" lon="2.38725">
        <ele>163.9</ele>
        <time>2019-06-30T06:26:35.000Z</time>
      </trkpt>
      <trkpt lat="43.20362" lon="2.38728">
        <ele>164</ele>
        <time>2019-06-30T06:26:36.000Z</time>
      </trkpt>
      <trkpt lat="43.20362" lon="2.3873">
        <ele>164.1</ele>
        <time>2019-06-30T06:26:37.000Z</time>
      </trkpt>
      <trkpt lat="43.20361" lon="2.38733">
        <ele>164.1</ele>
        <time>2019-06-30T06:26:38.000Z</time>
      </trkpt>
      <trkpt lat="43.2036" lon="2.38735">
        <ele>164.2</ele>
        <time>2019-06-30T06:26:39.000Z</time>
      </trkpt>
      <trkpt lat="43.2036" lon="2.38737">
        <ele>164.3</ele>
        <time>2019-06-30T06:26:40.000Z</time>
      </trkpt>
      <trkpt lat="43.20359" lon="2.3874">
        <ele>164.4</ele>
        <time>2019-06-30T06:26:41.000Z</time>
      </trkpt>
      <trkpt lat="43.20358" lon="2.38742">
        <ele>164.5</ele>
        <time>2019-06-30T06:26:42.000Z</time>
      </trkpt>
      <trkpt lat="43.20358" lon="2.38744">
        <ele>164.5</ele>
        <time>2019-06-30T06:26:43.000Z</time>
      </trkpt>
      <trkpt lat="43.20357" lon="2.38745">
        <ele>164.6</ele>
        <time>2019-06-30T06:26:44.000Z</time>
      </trkpt>
      <trkpt lat="43.20357" lon="2.38747">
        <ele>164.7</ele>
        <time>2019-06-30T06:26:45.000Z</time>
      </trkpt>
      <trkpt lat="43.20356" lon="2.38748">
        <ele>164.8</ele>
        <time>2019-06-30T06:26:46.000Z</time>
      </trkpt>
      <trkpt lat="43.20355" lon="2.38749">
        <ele>164.8</ele>
        <time>2019-06-30T06:26:47.000Z</time>
      </trkpt>
      <trkpt lat="43.20355" lon="2.38751">
        <ele>164.9</ele>
        <time>2019-06-30T06:26:48.000Z</time>
      </trkpt>
      <trkpt lat="43.20354" lon="2.38752">
        <ele>165.1</ele>
        <time>2019-06-30T06:26:49.000Z</time>
      </trkpt>
      <trkpt lat="43.20354" lon="2.38753">
        <ele>165.2</ele>
        <time>2019-06-30T06:26:50.000Z</time>
      </trkpt>
      <trkpt lat="43.20353" lon="2.38754">
        <ele>165.3</ele>
        <time>2019-06-30T06:26:51.000Z</time>
      </trkpt>
      <trkpt lat="43.20353" lon="2.38755">
        <ele>165.5</ele>
        <time>2019-06-30T06:26:52.000Z</time>
      </trkpt>
      <trkpt lat="43.20352" lon="2.38756">
        <ele>165.6</ele>
        <time>2019-06-30T06:26:53.000Z</time>
      </trkpt>
      <trkpt lat="43.20352" lon="2.38758">
        <ele>165.8</ele>
        <time>2019-06-30T06:26:54.000Z</time>
      </trkpt>
      <trkpt lat="43.20351" lon="2.3876">
        <ele>165.9</ele>
        <time>2019-06-30T06:26:55.000Z</time>
      </trkpt>
      <trkpt lat="43.20351" lon="2.38761">
        <ele>166.1</ele>
        <time>2019-06-30T06:26:56.000Z</time>
      </trkpt>
      <trkpt lat="43.2035" lon="2.38763">
        <ele>166.3</ele>
        <time>2019-06-30T06:26:57.000Z</time>
      </trkpt>
      <trkpt lat="43.20349" lon="2.38764">
        <ele>166.5</ele>
        <time>2019-06-30T06:26:58.000Z</time>
      </trkpt>
      <trkpt lat="43.20348" lon="2.38766">
        <ele>166.7</ele>
        <time>2019-06-30T06:26:59.000Z</time>
      </trkpt>
      <trkpt lat="43.20347" lon="2.38767">
        <ele>166.9</ele>
        <time>2019-06-30T06:27:00.000Z</time>
      </trkpt>
      <trkpt lat="43.20346" lon="2.38767">
        <ele>167.1</ele>
        <time>2019-06-30T06:27:01.000Z</time>
      </trkpt>
      <trkpt lat="43.20344" lon="2.38768">
        <ele>167.3</ele>
        <time>2019-06-30T06:27:02.000Z</time>
      </trkpt>
      <trkpt lat="43.20343" lon="2.38767">
        <ele>167.5</ele>
        <time>2019-06-30T06:27:03.000Z</time>
      </trkpt>
      <trkpt lat="43.20341" lon="2.38765">
        <ele>167.7</ele>
        <time>2019-06-30T06:27:04.000Z</time>
      </trkpt>
      <trkpt lat="43.20339" lon="2.38764">
        <ele>167.8</ele>
        <time>2019-06-30T06:27:05.000Z</time>
      </trkpt>
      <trkpt lat="43.20338" lon="2.38762">
        <ele>168</ele>
        <time>2019-06-30T06:27:06.000Z</time>
      </trkpt>
      <trkpt lat="43.20336" lon="2.38761">
        <ele>168.2</ele>
        <time>2019-06-30T06:27:07.000Z</time>
      </trkpt>
      <trkpt lat="43.20334" lon="2.3876">
        <ele>168.4</ele>
        <time>2019-06-30T06:27:08.000Z</time>
      </trkpt>
      <trkpt lat="43.20332" lon="2.38759">
        <ele>168.6</ele>
        <time>2019-06-30T06:27:09.000Z</time>
      </trkpt>
      <trkpt lat="43.2033" lon="2.38758">
        <ele>168.7</ele>
        <time>2019-06-30T06:27:10.000Z</time>
      </trkpt>
      <trkpt lat="43.20328" lon="2.38758">
        <ele>168.9</ele>
        <time>2019-06-30T06:27:11.000Z</time>
      </trkpt>
      <trkpt lat="43.20326" lon="2.38758">
        <ele>169</ele>
        <time>2019-06-30T06:27:12.000Z</time>
      </trkpt>
      <trkpt lat="43.20325" lon="2.38757">
        <ele>169.2</ele>
        <time>2019-06-30T06:27:13.000Z</time>
      </trkpt>
      <trkpt lat="43.20323" lon="2.38756">
        <ele>169.3</ele>
        <time>2019-06-30T06:27:14.000Z</time>
      </trkpt>
      <trkpt lat="43.20322" lon="2.38755">
        <ele>169.4</ele>
        <time>2019-06-30T06:27:15.000Z</time>
      </trkpt>
      <trkpt lat="43.2032" lon="2.38754">
        <ele>169.4</ele>
        <time>2019-06-30T06:27:16.000Z</time>
      </trkpt>
      <trkpt lat="43.20319" lon="2.38754">
        <ele>169.5</ele>
        <time>2019-06-30T06:27:17.000Z</time>
      </trkpt>
      <trkpt lat="43.20318" lon="2.38753">
        <ele>169.6</ele>
        <time>2019-06-30T06:27:18.000Z</time>
      </trkpt>
      <trkpt lat="43.20317" lon="2.38753">
        <ele>169.7</ele>
        <time>2019-06-30T06:27:19.000Z</time>
      </trkpt>
      <trkpt lat="43.20316" lon="2.38753">
        <ele>169.8</ele>
        <time>2019-06-30T06:27:20.000Z</time>
      </trkpt>
      <trkpt lat="43.20314" lon="2.38753">
        <ele>169.9</ele>
        <time>2019-06-30T06:27:21.000Z</time>
      </trkpt>
      <trkpt lat="43.20313" lon="2.38752">
        <ele>170.1</ele>
        <time>2019-06-30T06:27:22.000Z</time>
      </trkpt>
      <trkpt lat="43.20312" lon="2.38752">
        <ele>170.2</ele>
        <time>2019-06-30T06:27:23.000Z</time>
      </trkpt>
      <trkpt lat="43.2031" lon="2.38751">
        <ele>170.3</ele>
        <time>2019-06-30T06:27:24.000Z</time>
      </trkpt>
      <trkpt lat="43.20308" lon="2.3875">
        <ele>170.4</ele>
        <time>2019-06-30T06:27:25.000Z</time>
      </trkpt>
      <trkpt lat="43.20307" lon="2.38749">
        <ele>170.6</ele>
        <time>2019-06-30T06:27:26.000Z</time>
      </trkpt>
      <trkpt lat="43.20305" lon="2.38748">
        <ele>170.7</ele>
        <time>2019-06-30T06:27:27.000Z</time>
      </trkpt>
      <trkpt lat="43.20303" lon="2.38747">
        <ele>170.9</ele>
        <time>2019-06-30T06:27:28.000Z</time>
      </trkpt>
      <trkpt lat="43.20301" lon="2.38746">
        <ele>171.1</ele>
        <time>2019-06-30T06:27:29.000Z</time>
      </trkpt>
      <trkpt lat="43.20299" lon="2.38745">
        <ele>171.3</ele>
        <time>2019-06-30T06:27:30.000Z</time>
      </trkpt>
      <trkpt lat="43.20298" lon="2.38744">
        <ele>171.5</ele>
        <time>2019-06-30T06:27:31.000Z</time>
      </trkpt>
      <trkpt lat="43.20296" lon="2.38743">
        <ele>171.7</ele>
        <time>2019-06-30T06:27:32.000Z</time>
      </trkpt>
      <trkpt lat="43.20294" lon="2.38742">
        <ele>171.9</ele>
        <time>2019-06-30T06:27:33.000Z</time>
      </trkpt>
      <trkpt lat="43.20292" lon="2.38741">
        <ele>172.2</ele>
        <time>2019-06-30T06:27:34.000Z</time>
      </trkpt>
      <trkpt lat="43.2029" lon="2.3874">
        <ele>172.4</ele>
        <time>2019-06-30T06:27:35.000Z</time>
      </trkpt>
      <trkpt lat="43.20288" lon="2.38739">
        <ele>172.6</ele>
        <time>2019-06-30T06:27:36.000Z</time>
      </trkpt>
      <trkpt lat="43.20286" lon="2.38738">
        <ele>172.8</ele>
        <time>2019-06-30T06:27:37.000Z</time>
      </trkpt>
      <trkpt lat="43.20285" lon="2.38737">
        <ele>173</ele>
        <time>2019-06-30T06:27:38.000Z</time>
      </trkpt>
      <trkpt lat="43.20283" lon="2.38736">
        <ele>173.2</ele>
        <time>2019-06-30T06:27:39.000Z</time>
      </trkpt>
      <trkpt lat="43.20281" lon="2.38735">
        <ele>173.4</ele>
        <time>2019-06-30T06:27:40.000Z</time>
      </trkpt>
      <trkpt lat="43.20279" lon="2.38734">
        <ele>173.6</ele>
        <time>2019-06-30T06:27:41.000Z</time>
      </trkpt>
      <trkpt lat="43.20277" lon="2.38733">
        <ele>173.8</ele>
        <time>2019-06-30T06:27:42.000Z</time>
      </trkpt>
      <trkpt lat="43.20276" lon="2.38733">
        <ele>174</ele>
        <time>2019-06-30T06:27:43.000Z</time>
      </trkpt>
      <trkpt lat="43.20274" lon="2.38732">
        <ele>174.2</ele>
        <time>2019-06-30T06:27:44.000Z</time>
      </trkpt>
      <trkpt lat="43.20272" lon="2.38732">
        <ele>174.4</ele>
        <time>2019-06-30T06:27:45.000Z</time>
      </trkpt>
      <trkpt lat="43.2027" lon="2.38731">
        <ele>174.6</ele>
        <time>2019-06-30T06:27:46.000Z</time>
      </trkpt>
      <trkpt lat="43.20268" lon="2.38731">
        <ele>174.8</ele>
        <time>2019-06-30T06:27:47.000Z</time>
      </trkpt>
      <trkpt lat="43.20267" lon="2.38731">
        <ele>175</ele>
        <time>2019-06-30T06:27:48.000Z</time>
      </trkpt>
      <trkpt lat="43.20265" lon="2.38731">
        <ele>175.2</ele>
        <time>2019-06-30T06:27:49.000Z</time>
      </trkpt>
      <trkpt lat="43.20263" lon="2.38731">
        <ele>175.4</ele>
        <time>2019-06-30T06:27:50.000Z</time>
      </trkpt>
      <trkpt lat="43.20261" lon="2.38731">
        <ele>175.6</ele>
        <time>2019-06-30T06:27:51.000Z</time>
      </trkpt>
      <trkpt lat="43.20259" lon="2.38731">
        <ele>175.7</ele>
        <time>2019-06-30T06:27:52.000Z</time>
      </trkpt>
      <trkpt lat="43.20257" lon="2.38731">
        <ele>175.9</ele>
        <time>2019-06-30T06:27:53.000Z</time>
      </trkpt>
      <trkpt lat="43.20255" lon="2.38732">
        <ele>176.1</ele>
        <time>2019-06-30T06:27:54.000Z</time>
      </trkpt>
      <trkpt lat="43.20253" lon="2.38732">
        <ele>176.3</ele>
        <time>2019-06-30T06:27:55.000Z</time>
      </trkpt>
      <trkpt lat="43.20251" lon="2.38733">
        <ele>176.5</ele>
        <time>2019-06-30T06:27:56.000Z</time>
      </trkpt>
      <trkpt lat="43.20249" lon="2.38733">
        <ele>176.7</ele>
        <time>2019-06-30T06:27:57.000Z</time>
      </trkpt>
      <trkpt lat="43.20247" lon="2.38734">
        <ele>176.9</ele>
        <time>2019-06-30T06:27:58.000Z</time>
      </trkpt>
      <trkpt lat="43.20245" lon="2.38734">
        <ele>177.2</ele>
        <time>2019-06-30T06:27:59.000Z</time>
      </trkpt>
      <trkpt lat="43.20244" lon="2.38735">
        <ele>177.4</ele>
        <time>2019-06-30T06:28:00.000Z</time>
      </trkpt>
      <trkpt lat="43.20242" lon="2.38735">
        <ele>177.6</ele>
        <time>2019-06-30T06:28:01.000Z</time>
      </trkpt>
      <trkpt lat="43.2024" lon="2.38736">
        <ele>177.8</ele>
        <time>2019-06-30T06:28:02.000Z</time>
      </trkpt>
      <trkpt lat="43.20238" lon="2.38736">
        <ele>178.1</ele>
        <time>2019-06-30T06:28:03.000Z</time>
      </trkpt>
      <trkpt lat="43.20236" lon="2.38737">
        <ele>178.3</ele>
        <time>2019-06-30T06:28:04.000Z</time>
      </trkpt>
      <trkpt lat="43.20234" lon="2.38737">
        <ele>178.5</ele>
        <time>2019-06-30T06:28:05.000Z</time>
      </trkpt>
      <trkpt lat="43.20232" lon="2.38738">
        <ele>178.7</ele>
        <time>2019-06-30T06:28:06.000Z</time>
      </trkpt>
      <trkpt lat="43.2023" lon="2.38738">
        <ele>178.9</ele>
        <time>2019-06-30T06:28:07.000Z</time>
      </trkpt>
      <trkpt lat="43.20228" lon="2.38739">
        <ele>179.2</ele>
        <time>2019-06-30T06:28:08.000Z</time>
      </trkpt>
      <trkpt lat="43.20226" lon="2.38739">
        <ele>179.4</ele>
        <time>2019-06-30T06:28:09.000Z</time>
      </trkpt>
      <trkpt lat="43.20224" lon="2.3874">
        <ele>179.6</ele>
        <time>2019-06-30T06:28:10.000Z</time>
      </trkpt>
      <trkpt lat="43.20222" lon="2.3874">
        <ele>179.8</ele>
        <time>2019-06-30T06:28:11.000Z</time>
      </trkpt>
      <trkpt lat="43.2022" lon="2.38741">
        <ele>180</ele>
        <time>2019-06-30T06:28:12.000Z</time>
      </trkpt>
      <trkpt lat="43.20218" lon="2.38742">
        <ele>180.2</ele>
        <time>2019-06-30T06:28:13.000Z</time>
      </trkpt>
      <trkpt lat="43.20216" lon="2.38742">
        <ele>180.5</ele>
        <time>2019-06-30T06:28:14.000Z</time>
      </trkpt>
      <trkpt lat="43.20214" lon="2.38743">
        <ele>180.7</ele>
        <time>2019-06-30T06:28:15.000Z</time>
      </trkpt>
      <trkpt lat="43.20212" lon="2.38744">
        <ele>180.9</ele>
        <time>2019-06-30T06:28:16.000Z</time>
      </trkpt>
      <trkpt lat="43.2021" lon="2.38744">
        <ele>181.1</ele>
        <time>2019-06-30T06:28:17.000Z</time>
      </trkpt>
      <trkpt lat="43.20208" lon="2.38745">
        <ele>181.3</ele>
        <time>2019-06-30T06:28:18.000Z</time>
      </trkpt>
      <trkpt lat="43.20206" lon="2.38746">
        <ele>181.5</ele>
        <time>2019-06-30T06:28:19.000Z</time>
      </trkpt>
      <trkpt lat="43.20204" lon="2.38747">
        <ele>181.7</ele>
        <time>2019-06-30T06:28:20.000Z</time>
      </trkpt>
      <trkpt lat="43.20202" lon="2.38747">
        <ele>181.9</ele>
        <time>2019-06-30T06:28:21.000Z</time>
      </trkpt>
      <trkpt lat="43.202" lon="2.38748">
        <ele>182.1</ele>
        <time>2019-06-30T06:28:22.000Z</time>
      </trkpt>
      <trkpt lat="43.20198" lon="2.38749">
        <ele>182.3</ele>
        <time>2019-06-30T06:28:23.000Z</time>
      </trkpt>
      <trkpt lat="43.20196" lon="2.3875">
        <ele>182.5</ele>
        <time>2019-06-30T06:28:24.000Z</time>
      </trkpt>
      <trkpt lat="43.20194" lon="2.3875">
        <ele>182.7</ele>
        <time>2019-06-30T06:28:25.000Z</time>
      </trkpt>
      <trkpt lat="43.20192" lon="2.38751">
        <ele>183</ele>
        <time>2019-06-30T06:28:26.000Z</time>
      </trkpt>
      <trkpt lat="43.2019" lon="2.38751">
        <ele>183.2</ele>
        <time>2019-06-30T06:28:27.000Z</time>
      </trkpt>
      <trkpt lat="43.20188" lon="2.38751">
        <ele>183.5</ele>
        <time>2019-06-30T06:28:28.000Z</time>
      </trkpt>
      <trkpt lat="43.20186" lon="2.38751">
        <ele>183.7</ele>
        <time>2019-06-30T06:28:29.000Z</time>
      </trkpt>
      <trkpt lat="43.20184" lon="2.38751">
        <ele>183.9</ele>
        <time>2019-06-30T06:28:30.000Z</time>
      </trkpt>
      <trkpt lat="43.20182" lon="2.38751">
        <ele>184.1</ele>
        <time>2019-06-30T06:28:31.000Z</time>
      </trkpt>
      <trkpt lat="43.2018" lon="2.3875">
        <ele>184.4</ele>
        <time>2019-06-30T06:28:32.000Z</time>
      </trkpt>
      <trkpt lat="43.20178" lon="2.3875">
        <ele>184.6</ele>
        <time>2019-06-30T06:28:33.000Z</time>
      </trkpt>
      <trkpt lat="43.20177" lon="2.38749">
        <ele>184.9</ele>
        <time>2019-06-30T06:28:34.000Z</time>
      </trkpt>
      <trkpt lat="43.20175" lon="2.38748">
        <ele>185.2</ele>
        <time>2019-06-30T06:28:35.000Z</time>
      </trkpt>
      <trkpt lat="43.20173" lon="2.38747">
        <ele>185.5</ele>
        <time>2019-06-30T06:28:36.000Z</time>
      </trkpt>
      <trkpt lat="43.20171" lon="2.38746">
        <ele>185.7</ele>
        <time>2019-06-30T06:28:37.000Z</time>
      </trkpt>
      <trkpt lat="43.2017" lon="2.38745">
        <ele>186</ele>
        <time>2019-06-30T06:28:38.000Z</time>
      </trkpt>
      <trkpt lat="43.20168" lon="2.38744">
        <ele>186.3</ele>
        <time>2019-06-30T06:28:39.000Z</time>
      </trkpt>
      <trkpt lat="43.20167" lon="2.38743">
        <ele>186.5</ele>
        <time>2019-06-30T06:28:40.000Z</time>
      </trkpt>
      <trkpt lat="43.20165" lon="2.38742">
        <ele>186.9</ele>
        <time>2019-06-30T06:28:41.000Z</time>
      </trkpt>
      <trkpt lat="43.20164" lon="2.38741">
        <ele>187.3</ele>
        <time>2019-06-30T06:28:42.000Z</time>
      </trkpt>
      <trkpt lat="43.20162" lon="2.3874">
        <ele>187.7</ele>
        <time>2019-06-30T06:28:43.000Z</time>
      </trkpt>
      <trkpt lat="43.20161" lon="2.38739">
        <ele>188</ele>
        <time>2019-06-30T06:28:44.000Z</time>
      </trkpt>
      <trkpt lat="43.2016" lon="2.38738">
        <ele>188.3</ele>
        <time>2019-06-30T06:28:45.000Z</time>
      </trkpt>
      <trkpt lat="43.20159" lon="2.38737">
        <ele>188.7</ele>
        <time>2019-06-30T06:28:46.000Z</time>
      </trkpt>
      <trkpt lat="43.20158" lon="2.38735">
        <ele>189</ele>
        <time>2019-06-30T06:28:47.000Z</time>
      </trkpt>
      <trkpt lat="43.20158" lon="2.38734">
        <ele>189.2</ele>
        <time>2019-06-30T06:28:48.000Z</time>
      </trkpt>
      <trkpt lat="43.20157" lon="2.38732">
        <ele>189.5</ele>
        <time>2019-06-30T06:28:49.000Z</time>
      </trkpt>
      <trkpt lat="43.20156" lon="2.38731">
        <ele>189.8</ele>
        <time>2019-06-30T06:28:50.000Z</time>
      </trkpt>
      <trkpt lat="43.20156" lon="2.38729">
        <ele>190.1</ele>
        <time>2019-06-30T06:28:51.000Z</time>
      </trkpt>
      <trkpt lat="43.20155" lon="2.38727">
        <ele>190.4</ele>
        <time>2019-06-30T06:28:52.000Z</time>
      </trkpt>
      <trkpt lat="43.20155" lon="2.38725">
        <ele>190.6</ele>
        <time>2019-06-30T06:28:53.000Z</time>
      </trkpt>
      <trkpt lat="43.20154" lon="2.38723">
        <ele>190.9</ele>
        <time>2019-06-30T06:28:54.000Z</time>
      </trkpt>
      <trkpt lat="43.20154" lon="2.38721">
        <ele>191.2</ele>
        <time>2019-06-30T06:28:55.000Z</time>
      </trkpt>
      <trkpt lat="43.20153" lon="2.38719">
        <ele>191.5</ele>
        <time>2019-06-30T06:28:56.000Z</time>
      </trkpt>
      <trkpt lat="43.20153" lon="2.38717">
        <ele>191.8</ele>
        <time>2019-06-30T06:28:57.000Z</time>
      </trkpt>
      <trkpt lat="43.20153" lon="2.38714">
        <ele>192</ele>
        <time>2019-06-30T06:28:58.000Z</time>
      </trkpt>
      <trkpt lat="43.20153" lon="2.38712">
        <ele>192.2</ele>
        <time>2019-06-30T06:28:59.000Z</time>
      </trkpt>
      <trkpt lat="43.20153" lon="2.3871">
        <ele>192.4</ele>
        <time>2019-06-30T06:29:00.000Z</time>
      </trkpt>
      <trkpt lat="43.20153" lon="2.38708">
        <ele>192.6</ele>
        <time>2019-06-30T06:29:01.000Z</time>
      </trkpt>
      <trkpt lat="43.20153" lon="2.38705">
        <ele>192.7</ele>
        <time>2019-06-30T06:29:02.000Z</time>
      </trkpt>
      <trkpt lat="43.20153" lon="2.38703">
        <ele>192.9</ele>
        <time>2019-06-30T06:29:03.000Z</time>
      </trkpt>
      <trkpt lat="43.20154" lon="2.387">
        <ele>193</ele>
        <time>2019-06-30T06:29:04.000Z</time>
      </trkpt>
      <trkpt lat="43.20154" lon="2.38698">
        <ele>193</ele>
        <time>2019-06-30T06:29:05.000Z</time>
      </trkpt>
      <trkpt lat="43.20155" lon="2.38696">
        <ele>193.1</ele>
        <time>2019-06-30T06:29:06.000Z</time>
      </trkpt>
      <trkpt lat="43.20155" lon="2.38693">
        <ele>193.1</ele>
        <time>2019-06-30T06:29:07.000Z</time>
      </trkpt>
      <trkpt lat="43.20156" lon="2.3869">
        <ele>193.1</ele>
        <time>2019-06-30T06:29:08.000Z</time>
      </trkpt>
      <trkpt lat="43.20157" lon="2.38688">
        <ele>193.1</ele>
        <time>2019-06-30T06:29:09.000Z</time>
      </trkpt>
      <trkpt lat="43.20158" lon="2.38685">
        <ele>193.1</ele>
        <time>2019-06-30T06:29:10.000Z</time>
      </trkpt>
      <trkpt lat="43.20159" lon="2.38683">
        <ele>193.1</ele>
        <time>2019-06-30T06:29:11.000Z</time>
      </trkpt>
      <trkpt lat="43.20159" lon="2.3868">
        <ele>193</ele>
        <time>2019-06-30T06:29:12.000Z</time>
      </trkpt>
      <trkpt lat="43.2016" lon="2.38678">
        <ele>193</ele>
        <time>2019-06-30T06:29:13.000Z</time>
      </trkpt>
      <trkpt lat="43.20161" lon="2.38675">
        <ele>192.9</ele>
        <time>2019-06-30T06:29:14.000Z</time>
      </trkpt>
      <trkpt lat="43.20162" lon="2.38672">
        <ele>192.9</ele>
        <time>2019-06-30T06:29:15.000Z</time>
      </trkpt>
      <trkpt lat="43.20163" lon="2.3867">
        <ele>192.8</ele>
        <time>2019-06-30T06:29:16.000Z</time>
      </trkpt>
      <trkpt lat="43.20163" lon="2.38668">
        <ele>192.9</ele>
        <time>2019-06-30T06:29:17.000Z</time>
      </trkpt>
      <trkpt lat="43.20164" lon="2.38666">
        <ele>193</ele>
        <time>2019-06-30T06:29:18.000Z</time>
      </trkpt>
      <trkpt lat="43.20164" lon="2.38664">
        <ele>193.3</ele>
        <time>2019-06-30T06:29:19.000Z</time>
      </trkpt>
      <trkpt lat="43.20163" lon="2.38663">
        <ele>193.6</ele>
        <time>2019-06-30T06:29:20.000Z</time>
      </trkpt>
      <trkpt lat="43.20162" lon="2.38662">
        <ele>193.9</ele>
        <time>2019-06-30T06:29:21.000Z</time>
      </trkpt>
      <trkpt lat="43.20161" lon="2.38662">
        <ele>194.4</ele>
        <time>2019-06-30T06:29:22.000Z</time>
      </trkpt>
      <trkpt lat="43.2016" lon="2.38662">
        <ele>194.8</ele>
        <time>2019-06-30T06:29:23.000Z</time>
      </trkpt>
      <trkpt lat="43.20158" lon="2.38662">
        <ele>195.2</ele>
        <time>2019-06-30T06:29:24.000Z</time>
      </trkpt>
      <trkpt lat="43.20156" lon="2.38663">
        <ele>195.6</ele>
        <time>2019-06-30T06:29:25.000Z</time>
      </trkpt>
      <trkpt lat="43.20154" lon="2.38664">
        <ele>196</ele>
        <time>2019-06-30T06:29:26.000Z</time>
      </trkpt>
      <trkpt lat="43.20153" lon="2.38666">
        <ele>196.2</ele>
        <time>2019-06-30T06:29:27.000Z</time>
      </trkpt>
      <trkpt lat="43.20151" lon="2.38667">
        <ele>196.4</ele>
        <time>2019-06-30T06:29:28.000Z</time>
      </trkpt>
      <trkpt lat="43.2015" lon="2.38669">
        <ele>196.6</ele>
        <time>2019-06-30T06:29:29.000Z</time>
      </trkpt>
      <trkpt lat="43.20149" lon="2.38671">
        <ele>196.7</ele>
        <time>2019-06-30T06:29:30.000Z</time>
      </trkpt>
      <trkpt lat="43.20148" lon="2.38674">
        <ele>196.8</ele>
        <time>2019-06-30T06:29:31.000Z</time>
      </trkpt>
      <trkpt lat="43.20147" lon="2.38676">
        <ele>196.9</ele>
        <time>2019-06-30T06:29:32.000Z</time>
      </trkpt>
      <trkpt lat="43.20146" lon="2.38678">
        <ele>197</ele>
        <time>2019-06-30T06:29:33.000Z</time>
      </trkpt>
      <trkpt lat="43.20145" lon="2.3868">
        <ele>197.2</ele>
        <time>2019-06-30T06:29:34.000Z</time>
      </trkpt>
      <trkpt lat="43.20143" lon="2.38682">
        <ele>197.3</ele>
        <time>2019-06-30T06:29:35.000Z</time>
      </trkpt>
      <trkpt lat="43.20142" lon="2.38684">
        <ele>197.5</ele>
        <time>2019-06-30T06:29:36.000Z</time>
      </trkpt>
      <trkpt lat="43.20141" lon="2.38686">
        <ele>197.7</ele>
        <time>2019-06-30T06:29:37.000Z</time>
      </trkpt>
      <trkpt lat="43.20139" lon="2.38687">
        <ele>197.9</ele>
        <time>2019-06-30T06:29:38.000Z</time>
      </trkpt>
      <trkpt lat="43.20138" lon="2.38689">
        <ele>198.1</ele>
        <time>2019-06-30T06:29:39.000Z</time>
      </trkpt>
      <trkpt lat="43.20137" lon="2.3869">
        <ele>198.3</ele>
        <time>2019-06-30T06:29:40.000Z</time>
      </trkpt>
      <trkpt lat="43.20136" lon="2.38692">
        <ele>198.5</ele>
        <time>2019-06-30T06:29:41.000Z</time>
      </trkpt>
      <trkpt lat="43.20134" lon="2.38694">
        <ele>198.6</ele>
        <time>2019-06-30T06:29:42.000Z</time>
      </trkpt>
      <trkpt lat="43.20133" lon="2.38695">
        <ele>198.8</ele>
        <time>2019-06-30T06:29:43.000Z</time>
      </trkpt>
      <trkpt lat="43.20132" lon="2.38697">
        <ele>199</ele>
        <time>2019-06-30T06:29:44.000Z</time>
      </trkpt>
      <trkpt lat="43.20131" lon="2.38699">
        <ele>199.1</ele>
        <time>2019-06-30T06:29:45.000Z</time>
      </trkpt>
      <trkpt lat="43.20129" lon="2.38701">
        <ele>199.3</ele>
        <time>2019-06-30T06:29:46.000Z</time>
      </trkpt>
      <trkpt lat="43.20128" lon="2.38702">
        <ele>199.5</ele>
        <time>2019-06-30T06:29:47.000Z</time>
      </trkpt>
      <trkpt lat="43.20126" lon="2.38704">
        <ele>199.7</ele>
        <time>2019-06-30T06:29:48.000Z</time>
      </trkpt>
      <trkpt lat="43.20125" lon="2.38705">
        <ele>199.9</ele>
        <time>2019-06-30T06:29:49.000Z</time>
      </trkpt>
      <trkpt lat="43.20123" lon="2.38706">
        <ele>200.3</ele>
        <time>2019-06-30T06:29:50.000Z</time>
      </trkpt>
      <trkpt lat="43.20121" lon="2.38707">
        <ele>200.6</ele>
        <time>2019-06-30T06:29:51.000Z</time>
      </trkpt>
      <trkpt lat="43.20119" lon="2.38708">
        <ele>201</ele>
        <time>2019-06-30T06:29:52.000Z</time>
      </trkpt>
      <trkpt lat="43.20117" lon="2.38708">
        <ele>201.4</ele>
        <time>2019-06-30T06:29:53.000Z</time>
      </trkpt>
      <trkpt lat="43.20115" lon="2.38709">
        <ele>201.9</ele>
        <time>2019-06-30T06:29:54.000Z</time>
      </trkpt>
      <trkpt lat="43.20113" lon="2.38709">
        <ele>202.3</ele>
        <time>2019-06-30T06:29:55.000Z</time>
      </trkpt>
      <trkpt lat="43.20111" lon="2.3871">
        <ele>202.7</ele>
        <time>2019-06-30T06:29:56.000Z</time>
      </trkpt>
      <trkpt lat="43.2011" lon="2.38711">
        <ele>203.1</ele>
        <time>2019-06-30T06:29:57.000Z</time>
      </trkpt>
      <trkpt lat="43.20108" lon="2.38711">
        <ele>203.5</ele>
        <time>2019-06-30T06:29:58.000Z</time>
      </trkpt>
      <trkpt lat="43.20106" lon="2.38712">
        <ele>203.9</ele>
        <time>2019-06-30T06:29:59.000Z</time>
      </trkpt>
      <trkpt lat="43.20104" lon="2.38713">
        <ele>204.3</ele>
        <time>2019-06-30T06:30:00.000Z</time>
      </trkpt>
      <trkpt lat="43.20102" lon="2.38714">
        <ele>204.6</ele>
        <time>2019-06-30T06:30:01.000Z</time>
      </trkpt>
      <trkpt lat="43.201" lon="2.38714">
        <ele>204.9</ele>
        <time>2019-06-30T06:30:02.000Z</time>
      </trkpt>
      <trkpt lat="43.20099" lon="2.38715">
        <ele>205.2</ele>
        <time>2019-06-30T06:30:03.000Z</time>
      </trkpt>
      <trkpt lat="43.20097" lon="2.38716">
        <ele>205.5</ele>
        <time>2019-06-30T06:30:04.000Z</time>
      </trkpt>
      <trkpt lat="43.20095" lon="2.38718">
        <ele>205.8</ele>
        <time>2019-06-30T06:30:05.000Z</time>
      </trkpt>
      <trkpt lat="43.20094" lon="2.38719">
        <ele>206</ele>
        <time>2019-06-30T06:30:06.000Z</time>
      </trkpt>
      <trkpt lat="43.20092" lon="2.3872">
        <ele>206.2</ele>
        <time>2019-06-30T06:30:07.000Z</time>
      </trkpt>
      <trkpt lat="43.20091" lon="2.38721">
        <ele>206.4</ele>
        <time>2019-06-30T06:30:08.000Z</time>
      </trkpt>
      <trkpt lat="43.20089" lon="2.38723">
        <ele>206.6</ele>
        <time>2019-06-30T06:30:09.000Z</time>
      </trkpt>
      <trkpt lat="43.20087" lon="2.38725">
        <ele>206.7</ele>
        <time>2019-06-30T06:30:10.000Z</time>
      </trkpt>
      <trkpt lat="43.20086" lon="2.38726">
        <ele>206.8</ele>
        <time>2019-06-30T06:30:11.000Z</time>
      </trkpt>
      <trkpt lat="43.20085" lon="2.38728">
        <ele>206.9</ele>
        <time>2019-06-30T06:30:12.000Z</time>
      </trkpt>
      <trkpt lat="43.20083" lon="2.3873">
        <ele>206.9</ele>
        <time>2019-06-30T06:30:13.000Z</time>
      </trkpt>
      <trkpt lat="43.20082" lon="2.38732">
        <ele>206.9</ele>
        <time>2019-06-30T06:30:14.000Z</time>
      </trkpt>
      <trkpt lat="43.2008" lon="2.38734">
        <ele>206.9</ele>
        <time>2019-06-30T06:30:15.000Z</time>
      </trkpt>
      <trkpt lat="43.20079" lon="2.38736">
        <ele>206.9</ele>
        <time>2019-06-30T06:30:16.000Z</time>
      </trkpt>
      <trkpt lat="43.20078" lon="2.38739">
        <ele>206.9</ele>
        <time>2019-06-30T06:30:17.000Z</time>
      </trkpt>
      <trkpt lat="43.20076" lon="2.38741">
        <ele>206.9</ele>
        <time>2019-06-30T06:30:18.000Z</time>
      </trkpt>
      <trkpt lat="43.20075" lon="2.38743">
        <ele>206.9</ele>
        <time>2019-06-30T06:30:19.000Z</time>
      </trkpt>
      <trkpt lat="43.20074" lon="2.38745">
        <ele>207</ele>
        <time>2019-06-30T06:30:20.000Z</time>
      </trkpt>
      <trkpt lat="43.20072" lon="2.38747">
        <ele>207</ele>
        <time>2019-06-30T06:30:21.000Z</time>
      </trkpt>
      <trkpt lat="43.20071" lon="2.38749">
        <ele>207</ele>
        <time>2019-06-30T06:30:22.000Z</time>
      </trkpt>
      <trkpt lat="43.20069" lon="2.38751">
        <ele>207.1</ele>
        <time>2019-06-30T06:30:23.000Z</time>
      </trkpt>
      <trkpt lat="43.20068" lon="2.38752">
        <ele>207.2</ele>
        <time>2019-06-30T06:30:24.000Z</time>
      </trkpt>
      <trkpt lat="43.20066" lon="2.38754">
        <ele>207.3</ele>
        <time>2019-06-30T06:30:25.000Z</time>
      </trkpt>
      <trkpt lat="43.20065" lon="2.38756">
        <ele>207.5</ele>
        <time>2019-06-30T06:30:26.000Z</time>
      </trkpt>
      <trkpt lat="43.20063" lon="2.38757">
        <ele>207.6</ele>
        <time>2019-06-30T06:30:27.000Z</time>
      </trkpt>
      <trkpt lat="43.20062" lon="2.38758">
        <ele>207.8</ele>
        <time>2019-06-30T06:30:28.000Z</time>
      </trkpt>
      <trkpt lat="43.2006" lon="2.3876">
        <ele>208</ele>
        <time>2019-06-30T06:30:29.000Z</time>
      </trkpt>
      <trkpt lat="43.20059" lon="2.38761">
        <ele>208.1</ele>
        <time>2019-06-30T06:30:30.000Z</time>
      </trkpt>
      <trkpt lat="43.20057" lon="2.38762">
        <ele>208.3</ele>
        <time>2019-06-30T06:30:31.000Z</time>
      </trkpt>
      <trkpt lat="43.20056" lon="2.38763">
        <ele>208.5</ele>
        <time>2019-06-30T06:30:32.000Z</time>
      </trkpt>
      <trkpt lat="43.20055" lon="2.38764">
        <ele>208.7</ele>
        <time>2019-06-30T06:30:33.000Z</time>
      </trkpt>
      <trkpt lat="43.20053" lon="2.38765">
        <ele>208.8</ele>
        <time>2019-06-30T06:30:34.000Z</time>
      </trkpt>
      <trkpt lat="43.20052" lon="2.38766">
        <ele>209</ele>
        <time>2019-06-30T06:30:35.000Z</time>
      </trkpt>
      <trkpt lat="43.2005" lon="2.38767">
        <ele>209.2</ele>
        <time>2019-06-30T06:30:36.000Z</time>
      </trkpt>
      <trkpt lat="43.20049" lon="2.38768">
        <ele>209.3</ele>
        <time>2019-06-30T06:30:37.000Z</time>
      </trkpt>
      <trkpt lat="43.20048" lon="2.38769">
        <ele>209.5</ele>
        <time>2019-06-30T06:30:38.000Z</time>
      </trkpt>
      <trkpt lat="43.20046" lon="2.3877">
        <ele>209.7</ele>
        <time>2019-06-30T06:30:39.000Z</time>
      </trkpt>
      <trkpt lat="43.20044" lon="2.38771">
        <ele>209.9</ele>
        <time>2019-06-30T06:30:40.000Z</time>
      </trkpt>
      <trkpt lat="43.20043" lon="2.38772">
        <ele>210.1</ele>
        <time>2019-06-30T06:30:41.000Z</time>
      </trkpt>
      <trkpt lat="43.20041" lon="2.38773">
        <ele>210.3</ele>
        <time>2019-06-30T06:30:42.000Z</time>
      </trkpt>
      <trkpt lat="43.2004" lon="2.38774">
        <ele>210.6</ele>
        <time>2019-06-30T06:30:43.000Z</time>
      </trkpt>
      <trkpt lat="43.20038" lon="2.38775">
        <ele>210.8</ele>
        <time>2019-06-30T06:30:44.000Z</time>
      </trkpt>
      <trkpt lat="43.20036" lon="2.38775">
        <ele>211.1</ele>
        <time>2019-06-30T06:30:45.000Z</time>
      </trkpt>
      <trkpt lat="43.20035" lon="2.38776">
        <ele>211.3</ele>
        <time>2019-06-30T06:30:46.000Z</time>
      </trkpt>
      <trkpt lat="43.20033" lon="2.38777">
        <ele>211.6</ele>
        <time>2019-06-30T06:30:47.000Z</time>
      </trkpt>
      <trkpt lat="43.20031" lon="2.38777">
        <ele>211.9</ele>
        <time>2019-06-30T06:30:48.000Z</time>
      </trkpt>
      <trkpt lat="43.2003" lon="2.38777">
        <ele>212.2</ele>
        <time>2019-06-30T06:30:49.000Z</time>
      </trkpt>
      <trkpt lat="43.20028" lon="2.38777">
        <ele>212.5</ele>
        <time>2019-06-30T06:30:50.000Z</time>
      </trkpt>
      <trkpt lat="43.20027" lon="2.38778">
        <ele>212.8</ele>
        <time>2019-06-30T06:30:51.000Z</time>
      </trkpt>
      <trkpt lat="43.20025" lon="2.38777">
        <ele>213.2</ele>
        <time>2019-06-30T06:30:52.000Z</time>
      </trkpt>
      <trkpt lat="43.20024" lon="2.38777">
        <ele>213.5</ele>
        <time>2019-06-30T06:30:53.000Z</time>
      </trkpt>
      <trkpt lat="43.20022" lon="2.38777">
        <ele>213.9</ele>
        <time>2019-06-30T06:30:54.000Z</time>
      </trkpt>
      <trkpt lat="43.20021" lon="2.38777">
        <ele>214.3</ele>
        <time>2019-06-30T06:30:55.000Z</time>
      </trkpt>
      <trkpt lat="43.20019" lon="2.38776">
        <ele>214.7</ele>
        <time>2019-06-30T06:30:56.000Z</time>
      </trkpt>
      <trkpt lat="43.20018" lon="2.38776">
        <ele>215</ele>
        <time>2019-06-30T06:30:57.000Z</time>
      </trkpt>
      <trkpt lat="43.20016" lon="2.38776">
        <ele>215.4</ele>
        <time>2019-06-30T06:30:58.000Z</time>
      </trkpt>
      <trkpt lat="43.20015" lon="2.38775">
        <ele>215.8</ele>
        <time>2019-06-30T06:30:59.000Z</time>
      </trkpt>
      <trkpt lat="43.20013" lon="2.38775">
        <ele>216.2</ele>
        <time>2019-06-30T06:31:00.000Z</time>
      </trkpt>
      <trkpt lat="43.20011" lon="2.38775">
        <ele>216.6</ele>
        <time>2019-06-30T06:31:01.000Z</time>
      </trkpt>
      <trkpt lat="43.20009" lon="2.38775">
        <ele>217</ele>
        <time>2019-06-30T06:31:02.000Z</time>
      </trkpt>
      <trkpt lat="43.20007" lon="2.38776">
        <ele>217.4</ele>
        <time>2019-06-30T06:31:03.000Z</time>
      </trkpt>
      <trkpt lat="43.20006" lon="2.38776">
        <ele>217.8</ele>
        <time>2019-06-30T06:31:04.000Z</time>
      </trkpt>
      <trkpt lat="43.20004" lon="2.38776">
        <ele>218.1</ele>
        <time>2019-06-30T06:31:05.000Z</time>
      </trkpt>
      <trkpt lat="43.20002" lon="2.38776">
        <ele>218.5</ele>
        <time>2019-06-30T06:31:06.000Z</time>
      </trkpt>
      <trkpt lat="43.20001" lon="2.38776">
        <ele>218.8</ele>
        <time>2019-06-30T06:31:07.000Z</time>
      </trkpt>
      <trkpt lat="43.19999" lon="2.38776">
        <ele>219</ele>
        <time>2019-06-30T06:31:08.000Z</time>
      </trkpt>
      <trkpt lat="43.19998" lon="2.38777">
        <ele>219.1</ele>
        <time>2019-06-30T06:31:09.000Z</time>
      </trkpt>
      <trkpt lat="43.19996" lon="2.38777">
        <ele>219.2</ele>
        <time>2019-06-30T06:31:10.000Z</time>
      </trkpt>
      <trkpt lat="43.19995" lon="2.38777">
        <ele>219.4</ele>
        <time>2019-06-30T06:31:11.000Z</time>
      </trkpt>
      <trkpt lat="43.19993" lon="2.38777">
        <ele>219.5</ele>
        <time>2019-06-30T06:31:12.000Z</time>
      </trkpt>
      <trkpt lat="43.19992" lon="2.38778">
        <ele>219.6</ele>
        <time>2019-06-30T06:31:13.000Z</time>
      </trkpt>
      <trkpt lat="43.1999" lon="2.38778">
        <ele>219.7</ele>
        <time>2019-06-30T06:31:14.000Z</time>
      </trkpt>
      <trkpt lat="43.19989" lon="2.38779">
        <ele>219.7</ele>
        <time>2019-06-30T06:31:15.000Z</time>
      </trkpt>
      <trkpt lat="43.19987" lon="2.3878">
        <ele>219.7</ele>
        <time>2019-06-30T06:31:16.000Z</time>
      </trkpt>
      <trkpt lat="43.19986" lon="2.38781">
        <ele>219.7</ele>
        <time>2019-06-30T06:31:17.000Z</time>
      </trkpt>
      <trkpt lat="43.19984" lon="2.38783">
        <ele>219.7</ele>
        <time>2019-06-30T06:31:18.000Z</time>
      </trkpt>
      <trkpt lat="43.19983" lon="2.38785">
        <ele>219.6</ele>
        <time>2019-06-30T06:31:19.000Z</time>
      </trkpt>
      <trkpt lat="43.19981" lon="2.38786">
        <ele>219.6</ele>
        <time>2019-06-30T06:31:20.000Z</time>
      </trkpt>
      <trkpt lat="43.1998" lon="2.38786">
        <ele>219.7</ele>
        <time>2019-06-30T06:31:21.000Z</time>
      </trkpt>
      <trkpt lat="43.1998" lon="2.38786">
        <ele>219.8</ele>
        <time>2019-06-30T06:31:22.000Z</time>
      </trkpt>
      <trkpt lat="43.1998" lon="2.38785">
        <ele>219.9</ele>
        <time>2019-06-30T06:31:23.000Z</time>
      </trkpt>
      <trkpt lat="43.1998" lon="2.38784">
        <ele>220</ele>
        <time>2019-06-30T06:31:24.000Z</time>
      </trkpt>
      <trkpt lat="43.19981" lon="2.38784">
        <ele>219.9</ele>
        <time>2019-06-30T06:31:25.000Z</time>
      </trkpt>
      <trkpt lat="43.19983" lon="2.38784">
        <ele>219.7</ele>
        <time>2019-06-30T06:31:26.000Z</time>
      </trkpt>
      <trkpt lat="43.19985" lon="2.38784">
        <ele>219.5</ele>
        <time>2019-06-30T06:31:27.000Z</time>
      </trkpt>
      <trkpt lat="43.19986" lon="2.38784">
        <ele>219.3</ele>
        <time>2019-06-30T06:31:28.000Z</time>
      </trkpt>
      <trkpt lat="43.19988" lon="2.38784">
        <ele>219.1</ele>
        <time>2019-06-30T06:31:29.000Z</time>
      </trkpt>
      <trkpt lat="43.1999" lon="2.38783">
        <ele>219</ele>
        <time>2019-06-30T06:31:30.000Z</time>
      </trkpt>
      <trkpt lat="43.19992" lon="2.38783">
        <ele>218.8</ele>
        <time>2019-06-30T06:31:31.000Z</time>
      </trkpt>
      <trkpt lat="43.19993" lon="2.38783">
        <ele>218.7</ele>
        <time>2019-06-30T06:31:32.000Z</time>
      </trkpt>
      <trkpt lat="43.19995" lon="2.38782">
        <ele>218.5</ele>
        <time>2019-06-30T06:31:33.000Z</time>
      </trkpt>
      <trkpt lat="43.19997" lon="2.38782">
        <ele>218.4</ele>
        <time>2019-06-30T06:31:34.000Z</time>
      </trkpt>
      <trkpt lat="43.19998" lon="2.38782">
        <ele>218.3</ele>
        <time>2019-06-30T06:31:35.000Z</time>
      </trkpt>
      <trkpt lat="43.2" lon="2.38781">
        <ele>218.2</ele>
        <time>2019-06-30T06:31:36.000Z</time>
      </trkpt>
      <trkpt lat="43.20001" lon="2.38781">
        <ele>218</ele>
        <time>2019-06-30T06:31:37.000Z</time>
      </trkpt>
      <trkpt lat="43.20001" lon="2.38781">
        <ele>218</ele>
        <time>2019-06-30T06:31:38.000Z</time>
      </trkpt>
      <trkpt lat="43.20001" lon="2.38781">
        <ele>218.1</ele>
        <time>2019-06-30T06:31:39.000Z</time>
      </trkpt>
      <trkpt lat="43.2" lon="2.38781">
        <ele>218.2</ele>
        <time>2019-06-30T06:31:40.000Z</time>
      </trkpt>
      <trkpt lat="43.19999" lon="2.38781">
        <ele>218.3</ele>
        <time>2019-06-30T06:31:41.000Z</time>
      </trkpt>
      <trkpt lat="43.19997" lon="2.38781">
        <ele>218.5</ele>
        <time>2019-06-30T06:31:42.000Z</time>
      </trkpt>
      <trkpt lat="43.19996" lon="2.38782">
        <ele>218.5</ele>
        <time>2019-06-30T06:31:43.000Z</time>
      </trkpt>
      <trkpt lat="43.19995" lon="2.38782">
        <ele>218.6</ele>
        <time>2019-06-30T06:31:44.000Z</time>
      </trkpt>
      <trkpt lat="43.19993" lon="2.38783">
        <ele>218.6</ele>
        <time>2019-06-30T06:31:45.000Z</time>
      </trkpt>
      <trkpt lat="43.19992" lon="2.38784">
        <ele>218.7</ele>
        <time>2019-06-30T06:31:46.000Z</time>
      </trkpt>
      <trkpt lat="43.19991" lon="2.38785">
        <ele>218.7</ele>
        <time>2019-06-30T06:31:47.000Z</time>
      </trkpt>
      <trkpt lat="43.19989" lon="2.38785">
        <ele>218.8</ele>
        <time>2019-06-30T06:31:48.000Z</time>
      </trkpt>
      <trkpt lat="43.19988" lon="2.38786">
        <ele>218.8</ele>
        <time>2019-06-30T06:31:49.000Z</time>
      </trkpt>
      <trkpt lat="43.19986" lon="2.38787">
        <ele>218.9</ele>
        <time>2019-06-30T06:31:50.000Z</time>
      </trkpt>
      <trkpt lat="43.19985" lon="2.38787">
        <ele>219</ele>
        <time>2019-06-30T06:31:51.000Z</time>
      </trkpt>
      <trkpt lat="43.19983" lon="2.38788">
        <ele>219.1</ele>
        <time>2019-06-30T06:31:52.000Z</time>
      </trkpt>
      <trkpt lat="43.19982" lon="2.38788">
        <ele>219.2</ele>
        <time>2019-06-30T06:31:53.000Z</time>
      </trkpt>
      <trkpt lat="43.19982" lon="2.38789">
        <ele>219.2</ele>
        <time>2019-06-30T06:31:54.000Z</time>
      </trkpt>
      <trkpt lat="43.19981" lon="2.38789">
        <ele>219.2</ele>
        <time>2019-06-30T06:31:55.000Z</time>
      </trkpt>
      <trkpt lat="43.19981" lon="2.38789">
        <ele>219.3</ele>
        <time>2019-06-30T06:31:56.000Z</time>
      </trkpt>
      <trkpt lat="43.19981" lon="2.38789">
        <ele>219.3</ele>
        <time>2019-06-30T06:31:57.000Z</time>
      </trkpt>
      <trkpt lat="43.1998" lon="2.38789">
        <ele>219.3</ele>
        <time>2019-06-30T06:31:58.000Z</time>
      </trkpt>
      <trkpt lat="43.1998" lon="2.3879">
        <ele>219.3</ele>
        <time>2019-06-30T06:31:59.000Z</time>
      </trkpt>
      <trkpt lat="43.19979" lon="2.3879">
        <ele>219.3</ele>
        <time>2019-06-30T06:32:00.000Z</time>
      </trkpt>
      <trkpt lat="43.19979" lon="2.38791">
        <ele>219.3</ele>
        <time>2019-06-30T06:32:01.000Z</time>
      </trkpt>
      <trkpt lat="43.19978" lon="2.38792">
        <ele>219.3</ele>
        <time>2019-06-30T06:32:02.000Z</time>
      </trkpt>
      <trkpt lat="43.19977" lon="2.38792">
        <ele>219.3</ele>
        <time>2019-06-30T06:32:03.000Z</time>
      </trkpt>
      <trkpt lat="43.19976" lon="2.38793">
        <ele>219.3</ele>
        <time>2019-06-30T06:32:04.000Z</time>
      </trkpt>
      <trkpt lat="43.19976" lon="2.38794">
        <ele>219.3</ele>
        <time>2019-06-30T06:32:05.000Z</time>
      </trkpt>
      <trkpt lat="43.19975" lon="2.38794">
        <ele>219.4</ele>
        <time>2019-06-30T06:32:06.000Z</time>
      </trkpt>
      <trkpt lat="43.19975" lon="2.38794">
        <ele>219.4</ele>
        <time>2019-06-30T06:32:07.000Z</time>
      </trkpt>
      <trkpt lat="43.19975" lon="2.38794">
        <ele>219.4</ele>
        <time>2019-06-30T06:32:08.000Z</time>
      </trkpt>
      <trkpt lat="43.19975" lon="2.38793">
        <ele>219.5</ele>
        <time>2019-06-30T06:32:09.000Z</time>
      </trkpt>
      <trkpt lat="43.19975" lon="2.38793">
        <ele>219.5</ele>
        <time>2019-06-30T06:32:10.000Z</time>
      </trkpt>
      <trkpt lat="43.19975" lon="2.38793">
        <ele>219.5</ele>
        <time>2019-06-30T06:32:11.000Z</time>
      </trkpt>
      <trkpt lat="43.19975" lon="2.38793">
        <ele>219.5</ele>
        <time>2019-06-30T06:32:12.000Z</time>
      </trkpt>
      <trkpt lat="43.19975" lon="2.38793">
        <ele>219.4</ele>
        <time>2019-06-30T06:32:13.000Z</time>
      </trkpt>
      <trkpt lat="43.19975" lon="2.38794">
        <ele>219.4</ele>
        <time>2019-06-30T06:32:14.000Z</time>
      </trkpt>
      <trkpt lat="43.19975" lon="2.38794">
        <ele>219.4</ele>
        <time>2019-06-30T06:32:15.000Z</time>
      </trkpt>
      <trkpt lat="43.19974" lon="2.38795">
        <ele>219.4</ele>
        <time>2019-06-30T06:32:16.000Z</time>
      </trkpt>
      <trkpt lat="43.19974" lon="2.38795">
        <ele>219.4</ele>
        <time>2019-06-30T06:32:17.000Z</time>
      </trkpt>
      <trkpt lat="43.19973" lon="2.38796">
        <ele>219.4</ele>
        <time>2019-06-30T06:32:18.000Z</time>
      </trkpt>
      <trkpt lat="43.19972" lon="2.38796">
        <ele>219.5</ele>
        <time>2019-06-30T06:32:19.000Z</time>
      </trkpt>
      <trkpt lat="43.19971" lon="2.38796">
        <ele>219.6</ele>
        <time>2019-06-30T06:32:20.000Z</time>
      </trkpt>
      <trkpt lat="43.1997" lon="2.38797">
        <ele>219.7</ele>
        <time>2019-06-30T06:32:21.000Z</time>
      </trkpt>
      <trkpt lat="43.19969" lon="2.38797">
        <ele>219.7</ele>
        <time>2019-06-30T06:32:22.000Z</time>
      </trkpt>
      <trkpt lat="43.19968" lon="2.38798">
        <ele>219.8</ele>
        <time>2019-06-30T06:32:23.000Z</time>
      </trkpt>
      <trkpt lat="43.19968" lon="2.38798">
        <ele>219.9</ele>
        <time>2019-06-30T06:32:24.000Z</time>
      </trkpt>
      <trkpt lat="43.19967" lon="2.38799">
        <ele>219.9</ele>
        <time>2019-06-30T06:32:25.000Z</time>
      </trkpt>
      <trkpt lat="43.19966" lon="2.388">
        <ele>219.9</ele>
        <time>2019-06-30T06:32:26.000Z</time>
      </trkpt>
      <trkpt lat="43.19966" lon="2.38801">
        <ele>219.8</ele>
        <time>2019-06-30T06:32:27.000Z</time>
      </trkpt>
      <trkpt lat="43.19965" lon="2.38802">
        <ele>219.8</ele>
        <time>2019-06-30T06:32:28.000Z</time>
      </trkpt>
      <trkpt lat="43.19964" lon="2.38803">
        <ele>219.8</ele>
        <time>2019-06-30T06:32:29.000Z</time>
      </trkpt>
      <trkpt lat="43.19964" lon="2.38803">
        <ele>219.8</ele>
        <time>2019-06-30T06:32:30.000Z</time>
      </trkpt>
      <trkpt lat="43.19963" lon="2.38804">
        <ele>219.9</ele>
        <time>2019-06-30T06:32:31.000Z</time>
      </trkpt>
      <trkpt lat="43.19962" lon="2.38804">
        <ele>220</ele>
        <time>2019-06-30T06:32:32.000Z</time>
      </trkpt>
      <trkpt lat="43.19961" lon="2.38804">
        <ele>220.1</ele>
        <time>2019-06-30T06:32:33.000Z</time>
      </trkpt>
      <trkpt lat="43.1996" lon="2.38804">
        <ele>220.3</ele>
        <time>2019-06-30T06:32:34.000Z</time>
      </trkpt>
      <trkpt lat="43.19959" lon="2.38803">
        <ele>220.5</ele>
        <time>2019-06-30T06:32:35.000Z</time>
      </trkpt>
      <trkpt lat="43.19958" lon="2.38802">
        <ele>220.7</ele>
        <time>2019-06-30T06:32:36.000Z</time>
      </trkpt>
      <trkpt lat="43.19957" lon="2.38801">
        <ele>221</ele>
        <time>2019-06-30T06:32:37.000Z</time>
      </trkpt>
      <trkpt lat="43.19956" lon="2.388">
        <ele>221.2</ele>
        <time>2019-06-30T06:32:38.000Z</time>
      </trkpt>
      <trkpt lat="43.19955" lon="2.38799">
        <ele>221.5</ele>
        <time>2019-06-30T06:32:39.000Z</time>
      </trkpt>
      <trkpt lat="43.19954" lon="2.38798">
        <ele>221.8</ele>
        <time>2019-06-30T06:32:40.000Z</time>
      </trkpt>
      <trkpt lat="43.19953" lon="2.38796">
        <ele>222</ele>
        <time>2019-06-30T06:32:41.000Z</time>
      </trkpt>
      <trkpt lat="43.19952" lon="2.38794">
        <ele>222.3</ele>
        <time>2019-06-30T06:32:42.000Z</time>
      </trkpt>
      <trkpt lat="43.19951" lon="2.38793">
        <ele>222.6</ele>
        <time>2019-06-30T06:32:43.000Z</time>
      </trkpt>
      <trkpt lat="43.19951" lon="2.38791">
        <ele>222.8</ele>
        <time>2019-06-30T06:32:44.000Z</time>
      </trkpt>
      <trkpt lat="43.1995" lon="2.38789">
        <ele>223</ele>
        <time>2019-06-30T06:32:45.000Z</time>
      </trkpt>
      <trkpt lat="43.1995" lon="2.38787">
        <ele>223.3</ele>
        <time>2019-06-30T06:32:46.000Z</time>
      </trkpt>
      <trkpt lat="43.1995" lon="2.38785">
        <ele>223.5</ele>
        <time>2019-06-30T06:32:47.000Z</time>
      </trkpt>
      <trkpt lat="43.1995" lon="2.38782">
        <ele>223.7</ele>
        <time>2019-06-30T06:32:48.000Z</time>
      </trkpt>
      <trkpt lat="43.1995" lon="2.3878">
        <ele>223.9</ele>
        <time>2019-06-30T06:32:49.000Z</time>
      </trkpt>
      <trkpt lat="43.1995" lon="2.38778">
        <ele>224.1</ele>
        <time>2019-06-30T06:32:50.000Z</time>
      </trkpt>
      <trkpt lat="43.1995" lon="2.38775">
        <ele>224.3</ele>
        <time>2019-06-30T06:32:51.000Z</time>
      </trkpt>
      <trkpt lat="43.1995" lon="2.38773">
        <ele>224.5</ele>
        <time>2019-06-30T06:32:52.000Z</time>
      </trkpt>
      <trkpt lat="43.1995" lon="2.3877">
        <ele>224.8</ele>
        <time>2019-06-30T06:32:53.000Z</time>
      </trkpt>
      <trkpt lat="43.1995" lon="2.38768">
        <ele>225</ele>
        <time>2019-06-30T06:32:54.000Z</time>
      </trkpt>
      <trkpt lat="43.19949" lon="2.38765">
        <ele>225.3</ele>
        <time>2019-06-30T06:32:55.000Z</time>
      </trkpt>
      <trkpt lat="43.19949" lon="2.38763">
        <ele>225.5</ele>
        <time>2019-06-30T06:32:56.000Z</time>
      </trkpt>
      <trkpt lat="43.19949" lon="2.3876">
        <ele>225.7</ele>
        <time>2019-06-30T06:32:57.000Z</time>
      </trkpt>
      <trkpt lat="43.19949" lon="2.38758">
        <ele>226</ele>
        <time>2019-06-30T06:32:58.000Z</time>
      </trkpt>
      <trkpt lat="43.19949" lon="2.38756">
        <ele>226.2</ele>
        <time>2019-06-30T06:32:59.000Z</time>
      </trkpt>
      <trkpt lat="43.19949" lon="2.38754">
        <ele>226.3</ele>
        <time>2019-06-30T06:33:00.000Z</time>
      </trkpt>
      <trkpt lat="43.1995" lon="2.38752">
        <ele>226.5</ele>
        <time>2019-06-30T06:33:01.000Z</time>
      </trkpt>
      <trkpt lat="43.1995" lon="2.3875">
        <ele>226.6</ele>
        <time>2019-06-30T06:33:02.000Z</time>
      </trkpt>
      <trkpt lat="43.19951" lon="2.38747">
        <ele>226.5</ele>
        <time>2019-06-30T06:33:03.000Z</time>
      </trkpt>
      <trkpt lat="43.19952" lon="2.38745">
        <ele>226.5</ele>
        <time>2019-06-30T06:33:04.000Z</time>
      </trkpt>
      <trkpt lat="43.19954" lon="2.38743">
        <ele>226.4</ele>
        <time>2019-06-30T06:33:05.000Z</time>
      </trkpt>
      <trkpt lat="43.19955" lon="2.38741">
        <ele>226.4</ele>
        <time>2019-06-30T06:33:06.000Z</time>
      </trkpt>
      <trkpt lat="43.19956" lon="2.38739">
        <ele>226.3</ele>
        <time>2019-06-30T06:33:07.000Z</time>
      </trkpt>
      <trkpt lat="43.19957" lon="2.38737">
        <ele>226.3</ele>
        <time>2019-06-30T06:33:08.000Z</time>
      </trkpt>
      <trkpt lat="43.19958" lon="2.38735">
        <ele>226.3</ele>
        <time>2019-06-30T06:33:09.000Z</time>
      </trkpt>
      <trkpt lat="43.19959" lon="2.38733">
        <ele>226.3</ele>
        <time>2019-06-30T06:33:10.000Z</time>
      </trkpt>
      <trkpt lat="43.19959" lon="2.38731">
        <ele>226.3</ele>
        <time>2019-06-30T06:33:11.000Z</time>
      </trkpt>
      <trkpt lat="43.1996" lon="2.38729">
        <ele>226.3</ele>
        <time>2019-06-30T06:33:12.000Z</time>
      </trkpt>
      <trkpt lat="43.19961" lon="2.38727">
        <ele>226.3</ele>
        <time>2019-06-30T06:33:13.000Z</time>
      </trkpt>
      <trkpt lat="43.19961" lon="2.38726">
        <ele>226.4</ele>
        <time>2019-06-30T06:33:14.000Z</time>
      </trkpt>
      <trkpt lat="43.19961" lon="2.38724">
        <ele>226.4</ele>
        <time>2019-06-30T06:33:15.000Z</time>
      </trkpt>
      <trkpt lat="43.19962" lon="2.38723">
        <ele>226.4</ele>
        <time>2019-06-30T06:33:16.000Z</time>
      </trkpt>
      <trkpt lat="43.19962" lon="2.38721">
        <ele>226.4</ele>
        <time>2019-06-30T06:33:17.000Z</time>
      </trkpt>
      <trkpt lat="43.19962" lon="2.3872">
        <ele>226.4</ele>
        <time>2019-06-30T06:33:18.000Z</time>
      </trkpt>
      <trkpt lat="43.19963" lon="2.38719">
        <ele>226.5</ele>
        <time>2019-06-30T06:33:19.000Z</time>
      </trkpt>
      <trkpt lat="43.19963" lon="2.38718">
        <ele>226.5</ele>
        <time>2019-06-30T06:33:20.000Z</time>
      </trkpt>
      <trkpt lat="43.19963" lon="2.38718">
        <ele>226.5</ele>
        <time>2019-06-30T06:33:21.000Z</time>
      </trkpt>
      <trkpt lat="43.19963" lon="2.38717">
        <ele>226.5</ele>
        <time>2019-06-30T06:33:22.000Z</time>
      </trkpt>
      <trkpt lat="43.19963" lon="2.38717">
        <ele>226.5</ele>
        <time>2019-06-30T06:33:23.000Z</time>
      </trkpt>
      <trkpt lat="43.19964" lon="2.38716">
        <ele>226.5</ele>
        <time>2019-06-30T06:33:24.000Z</time>
      </trkpt>
      <trkpt lat="43.19964" lon="2.38716">
        <ele>226.5</ele>
        <time>2019-06-30T06:33:25.000Z</time>
      </trkpt>
      <trkpt lat="43.19964" lon="2.38716">
        <ele>226.5</ele>
        <time>2019-06-30T06:33:26.000Z</time>
      </trkpt>
      <trkpt lat="43.19964" lon="2.38716">
        <ele>226.5</ele>
        <time>2019-06-30T06:33:27.000Z</time>
      </trkpt>
      <trkpt lat="43.19964" lon="2.38716">
        <ele>226.5</ele>
        <time>2019-06-30T06:33:28.000Z</time>
      </trkpt>
      <trkpt lat="43.19964" lon="2.38716">
        <ele>226.5</ele>
        <time>2019-06-30T06:33:29.000Z</time>
      </trkpt>
      <trkpt lat="43.19964" lon="2.38716">
        <ele>226.5</ele>
        <time>2019-06-30T06:33:30.000Z</time>
      </trkpt>
      <trkpt lat="43.19964" lon="2.38715">
        <ele>226.5</ele>
        <time>2019-06-30T06:33:31.000Z</time>
      </trkpt>
      <trkpt lat="43.19964" lon="2.38715">
        <ele>226.5</ele>
        <time>2019-06-30T06:33:32.000Z</time>
      </trkpt>
      <trkpt lat="43.19963" lon="2.38715">
        <ele>226.6</ele>
        <time>2019-06-30T06:33:33.000Z</time>
      </trkpt>
      <trkpt lat="43.19963" lon="2.38715">
        <ele>226.6</ele>
        <time>2019-06-30T06:33:34.000Z</time>
      </trkpt>
      <trkpt lat="43.19962" lon="2.38714">
        <ele>226.6</ele>
        <time>2019-06-30T06:33:35.000Z</time>
      </trkpt>
      <trkpt lat="43.19961" lon="2.38713">
        <ele>226.6</ele>
        <time>2019-06-30T06:33:36.000Z</time>
      </trkpt>
      <trkpt lat="43.19961" lon="2.38713">
        <ele>226.6</ele>
        <time>2019-06-30T06:33:37.000Z</time>
      </trkpt>
      <trkpt lat="43.19961" lon="2.38712">
        <ele>226.7</ele>
        <time>2019-06-30T06:33:38.000Z</time>
      </trkpt>
      <trkpt lat="43.1996" lon="2.38711">
        <ele>226.7</ele>
        <time>2019-06-30T06:33:39.000Z</time>
      </trkpt>
      <trkpt lat="43.1996" lon="2.38711">
        <ele>226.7</ele>
        <time>2019-06-30T06:33:40.000Z</time>
      </trkpt>
      <trkpt lat="43.1996" lon="2.38711">
        <ele>226.7</ele>
        <time>2019-06-30T06:33:41.000Z</time>
      </trkpt>
      <trkpt lat="43.1996" lon="2.38711">
        <ele>226.7</ele>
        <time>2019-06-30T06:33:42.000Z</time>
      </trkpt>
      <trkpt lat="43.1996" lon="2.38711">
        <ele>226.7</ele>
        <time>2019-06-30T06:33:43.000Z</time>
      </trkpt>
      <trkpt lat="43.1996" lon="2.38712">
        <ele>226.7</ele>
        <time>2019-06-30T06:33:44.000Z</time>
      </trkpt>
      <trkpt lat="43.1996" lon="2.38712">
        <ele>226.7</ele>
        <time>2019-06-30T06:33:45.000Z</time>
      </trkpt>
      <trkpt lat="43.19959" lon="2.38713">
        <ele>226.7</ele>
        <time>2019-06-30T06:33:46.000Z</time>
      </trkpt>
      <trkpt lat="43.19959" lon="2.38714">
        <ele>226.6</ele>
        <time>2019-06-30T06:33:47.000Z</time>
      </trkpt>
      <trkpt lat="43.19959" lon="2.38715">
        <ele>226.6</ele>
        <time>2019-06-30T06:33:48.000Z</time>
      </trkpt>
      <trkpt lat="43.19959" lon="2.38716">
        <ele>226.6</ele>
        <time>2019-06-30T06:33:49.000Z</time>
      </trkpt>
      <trkpt lat="43.19959" lon="2.38717">
        <ele>226.6</ele>
        <time>2019-06-30T06:33:50.000Z</time>
      </trkpt>
      <trkpt lat="43.19959" lon="2.38718">
        <ele>226.6</ele>
        <time>2019-06-30T06:33:51.000Z</time>
      </trkpt>
      <trkpt lat="43.19959" lon="2.38718">
        <ele>226.5</ele>
        <time>2019-06-30T06:33:52.000Z</time>
      </trkpt>
      <trkpt lat="43.1996" lon="2.38719">
        <ele>226.5</ele>
        <time>2019-06-30T06:33:53.000Z</time>
      </trkpt>
      <trkpt lat="43.1996" lon="2.38719">
        <ele>226.5</ele>
        <time>2019-06-30T06:33:54.000Z</time>
      </trkpt>
      <trkpt lat="43.19961" lon="2.38719">
        <ele>226.5</ele>
        <time>2019-06-30T06:33:55.000Z</time>
      </trkpt>
      <trkpt lat="43.19961" lon="2.38719">
        <ele>226.5</ele>
        <time>2019-06-30T06:33:56.000Z</time>
      </trkpt>
      <trkpt lat="43.19961" lon="2.38719">
        <ele>226.5</ele>
        <time>2019-06-30T06:33:57.000Z</time>
      </trkpt>
      <trkpt lat="43.19961" lon="2.38718">
        <ele>226.5</ele>
        <time>2019-06-30T06:33:58.000Z</time>
      </trkpt>
      <trkpt lat="43.1996" lon="2.38718">
        <ele>226.5</ele>
        <time>2019-06-30T06:33:59.000Z</time>
      </trkpt>
      <trkpt lat="43.1996" lon="2.38718">
        <ele>226.6</ele>
        <time>2019-06-30T06:34:00.000Z</time>
      </trkpt>
      <trkpt lat="43.1996" lon="2.38717">
        <ele>226.6</ele>
        <time>2019-06-30T06:34:01.000Z</time>
      </trkpt>
      <trkpt lat="43.19959" lon="2.38718">
        <ele>226.6</ele>
        <time>2019-06-30T06:34:02.000Z</time>
      </trkpt>
      <trkpt lat="43.19958" lon="2.38718">
        <ele>226.6</ele>
        <time>2019-06-30T06:34:03.000Z</time>
      </trkpt>
      <trkpt lat="43.19958" lon="2.38719">
        <ele>226.6</ele>
        <time>2019-06-30T06:34:04.000Z</time>
      </trkpt>
      <trkpt lat="43.19957" lon="2.3872">
        <ele>226.6</ele>
        <time>2019-06-30T06:34:05.000Z</time>
      </trkpt>
      <trkpt lat="43.19957" lon="2.38722">
        <ele>226.6</ele>
        <time>2019-06-30T06:34:06.000Z</time>
      </trkpt>
      <trkpt lat="43.19957" lon="2.38723">
        <ele>226.5</ele>
        <time>2019-06-30T06:34:07.000Z</time>
      </trkpt>
      <trkpt lat="43.19957" lon="2.38724">
        <ele>226.5</ele>
        <time>2019-06-30T06:34:08.000Z</time>
      </trkpt>
      <trkpt lat="43.19957" lon="2.38725">
        <ele>226.5</ele>
        <time>2019-06-30T06:34:09.000Z</time>
      </trkpt>
      <trkpt lat="43.19957" lon="2.38726">
        <ele>226.5</ele>
        <time>2019-06-30T06:34:10.000Z</time>
      </trkpt>
      <trkpt lat="43.19956" lon="2.38727">
        <ele>226.5</ele>
        <time>2019-06-30T06:34:11.000Z</time>
      </trkpt>
      <trkpt lat="43.19956" lon="2.38727">
        <ele>226.5</ele>
        <time>2019-06-30T06:34:12.000Z</time>
      </trkpt>
      <trkpt lat="43.19956" lon="2.38727">
        <ele>226.5</ele>
        <time>2019-06-30T06:34:13.000Z</time>
      </trkpt>
      <trkpt lat="43.19955" lon="2.38728">
        <ele>226.5</ele>
        <time>2019-06-30T06:34:14.000Z</time>
      </trkpt>
      <trkpt lat="43.19954" lon="2.38728">
        <ele>226.5</ele>
        <time>2019-06-30T06:34:15.000Z</time>
      </trkpt>
      <trkpt lat="43.19954" lon="2.38729">
        <ele>226.5</ele>
        <time>2019-06-30T06:34:16.000Z</time>
      </trkpt>
      <trkpt lat="43.19954" lon="2.3873">
        <ele>226.5</ele>
        <time>2019-06-30T06:34:17.000Z</time>
      </trkpt>
      <trkpt lat="43.19954" lon="2.38732">
        <ele>226.5</ele>
        <time>2019-06-30T06:34:18.000Z</time>
      </trkpt>
      <trkpt lat="43.19954" lon="2.38733">
        <ele>226.5</ele>
        <time>2019-06-30T06:34:19.000Z</time>
      </trkpt>
      <trkpt lat="43.19954" lon="2.38736">
        <ele>226.5</ele>
        <time>2019-06-30T06:34:20.000Z</time>
      </trkpt>
      <trkpt lat="43.19954" lon="2.38738">
        <ele>226.4</ele>
        <time>2019-06-30T06:34:21.000Z</time>
      </trkpt>
      <trkpt lat="43.19955" lon="2.3874">
        <ele>226.4</ele>
        <time>2019-06-30T06:34:22.000Z</time>
      </trkpt>
      <trkpt lat="43.19955" lon="2.38743">
        <ele>226.4</ele>
        <time>2019-06-30T06:34:23.000Z</time>
      </trkpt>
      <trkpt lat="43.19954" lon="2.38746">
        <ele>226.3</ele>
        <time>2019-06-30T06:34:24.000Z</time>
      </trkpt>
      <trkpt lat="43.19954" lon="2.38748">
        <ele>226.4</ele>
        <time>2019-06-30T06:34:25.000Z</time>
      </trkpt>
      <trkpt lat="43.19953" lon="2.3875">
        <ele>226.4</ele>
        <time>2019-06-30T06:34:26.000Z</time>
      </trkpt>
      <trkpt lat="43.19952" lon="2.38753">
        <ele>226.2</ele>
        <time>2019-06-30T06:34:27.000Z</time>
      </trkpt>
      <trkpt lat="43.19951" lon="2.38755">
        <ele>226.1</ele>
        <time>2019-06-30T06:34:28.000Z</time>
      </trkpt>
      <trkpt lat="43.19951" lon="2.38757">
        <ele>225.9</ele>
        <time>2019-06-30T06:34:29.000Z</time>
      </trkpt>
      <trkpt lat="43.1995" lon="2.3876">
        <ele>225.7</ele>
        <time>2019-06-30T06:34:30.000Z</time>
      </trkpt>
      <trkpt lat="43.1995" lon="2.38762">
        <ele>225.5</ele>
        <time>2019-06-30T06:34:31.000Z</time>
      </trkpt>
      <trkpt lat="43.1995" lon="2.38765">
        <ele>225.3</ele>
        <time>2019-06-30T06:34:32.000Z</time>
      </trkpt>
      <trkpt lat="43.19949" lon="2.38768">
        <ele>225</ele>
        <time>2019-06-30T06:34:33.000Z</time>
      </trkpt>
      <trkpt lat="43.19949" lon="2.38772">
        <ele>224.8</ele>
        <time>2019-06-30T06:34:34.000Z</time>
      </trkpt>
      <trkpt lat="43.19949" lon="2.38775">
        <ele>224.5</ele>
        <time>2019-06-30T06:34:35.000Z</time>
      </trkpt>
      <trkpt lat="43.19948" lon="2.38779">
        <ele>224.2</ele>
        <time>2019-06-30T06:34:36.000Z</time>
      </trkpt>
      <trkpt lat="43.19948" lon="2.38782">
        <ele>223.8</ele>
        <time>2019-06-30T06:34:37.000Z</time>
      </trkpt>
      <trkpt lat="43.19949" lon="2.38786">
        <ele>223.5</ele>
        <time>2019-06-30T06:34:38.000Z</time>
      </trkpt>
      <trkpt lat="43.19949" lon="2.3879">
        <ele>223.1</ele>
        <time>2019-06-30T06:34:39.000Z</time>
      </trkpt>
      <trkpt lat="43.1995" lon="2.38793">
        <ele>222.7</ele>
        <time>2019-06-30T06:34:40.000Z</time>
      </trkpt>
      <trkpt lat="43.19951" lon="2.38796">
        <ele>222.3</ele>
        <time>2019-06-30T06:34:41.000Z</time>
      </trkpt>
      <trkpt lat="43.19952" lon="2.38799">
        <ele>221.9</ele>
        <time>2019-06-30T06:34:42.000Z</time>
      </trkpt>
      <trkpt lat="43.19953" lon="2.38802">
        <ele>221.5</ele>
        <time>2019-06-30T06:34:43.000Z</time>
      </trkpt>
      <trkpt lat="43.19954" lon="2.38804">
        <ele>221.1</ele>
        <time>2019-06-30T06:34:44.000Z</time>
      </trkpt>
      <trkpt lat="43.19954" lon="2.38807">
        <ele>220.8</ele>
        <time>2019-06-30T06:34:45.000Z</time>
      </trkpt>
      <trkpt lat="43.19955" lon="2.38809">
        <ele>220.5</ele>
        <time>2019-06-30T06:34:46.000Z</time>
      </trkpt>
      <trkpt lat="43.19955" lon="2.38811">
        <ele>220.3</ele>
        <time>2019-06-30T06:34:47.000Z</time>
      </trkpt>
      <trkpt lat="43.19954" lon="2.38814">
        <ele>220.1</ele>
        <time>2019-06-30T06:34:48.000Z</time>
      </trkpt>
      <trkpt lat="43.19954" lon="2.38815">
        <ele>220.1</ele>
        <time>2019-06-30T06:34:49.000Z</time>
      </trkpt>
      <trkpt lat="43.19952" lon="2.38817">
        <ele>220.2</ele>
        <time>2019-06-30T06:34:50.000Z</time>
      </trkpt>
      <trkpt lat="43.19951" lon="2.38817">
        <ele>220.4</ele>
        <time>2019-06-30T06:34:51.000Z</time>
      </trkpt>
      <trkpt lat="43.19949" lon="2.38818">
        <ele>220.7</ele>
        <time>2019-06-30T06:34:52.000Z</time>
      </trkpt>
      <trkpt lat="43.19947" lon="2.38818">
        <ele>220.9</ele>
        <time>2019-06-30T06:34:53.000Z</time>
      </trkpt>
      <trkpt lat="43.19945" lon="2.38819">
        <ele>221.2</ele>
        <time>2019-06-30T06:34:54.000Z</time>
      </trkpt>
      <trkpt lat="43.19943" lon="2.38819">
        <ele>221.4</ele>
        <time>2019-06-30T06:34:55.000Z</time>
      </trkpt>
      <trkpt lat="43.19942" lon="2.3882">
        <ele>221.6</ele>
        <time>2019-06-30T06:34:56.000Z</time>
      </trkpt>
      <trkpt lat="43.19941" lon="2.3882">
        <ele>221.7</ele>
        <time>2019-06-30T06:34:57.000Z</time>
      </trkpt>
      <trkpt lat="43.1994" lon="2.38821">
        <ele>221.9</ele>
        <time>2019-06-30T06:34:58.000Z</time>
      </trkpt>
      <trkpt lat="43.19939" lon="2.38821">
        <ele>222</ele>
        <time>2019-06-30T06:34:59.000Z</time>
      </trkpt>
      <trkpt lat="43.19938" lon="2.38822">
        <ele>222.1</ele>
        <time>2019-06-30T06:35:00.000Z</time>
      </trkpt>
      <trkpt lat="43.19937" lon="2.38823">
        <ele>222.1</ele>
        <time>2019-06-30T06:35:01.000Z</time>
      </trkpt>
      <trkpt lat="43.19936" lon="2.38824">
        <ele>222.2</ele>
        <time>2019-06-30T06:35:02.000Z</time>
      </trkpt>
      <trkpt lat="43.19936" lon="2.38825">
        <ele>222.2</ele>
        <time>2019-06-30T06:35:03.000Z</time>
      </trkpt>
      <trkpt lat="43.19935" lon="2.38825">
        <ele>222.3</ele>
        <time>2019-06-30T06:35:04.000Z</time>
      </trkpt>
      <trkpt lat="43.19934" lon="2.38826">
        <ele>222.3</ele>
        <time>2019-06-30T06:35:05.000Z</time>
      </trkpt>
      <trkpt lat="43.19934" lon="2.38827">
        <ele>222.4</ele>
        <time>2019-06-30T06:35:06.000Z</time>
      </trkpt>
      <trkpt lat="43.19933" lon="2.38828">
        <ele>222.4</ele>
        <time>2019-06-30T06:35:07.000Z</time>
      </trkpt>
      <trkpt lat="43.19933" lon="2.38829">
        <ele>222.5</ele>
        <time>2019-06-30T06:35:08.000Z</time>
      </trkpt>
      <trkpt lat="43.19932" lon="2.38829">
        <ele>222.5</ele>
        <time>2019-06-30T06:35:09.000Z</time>
      </trkpt>
      <trkpt lat="43.19931" lon="2.3883">
        <ele>222.6</ele>
        <time>2019-06-30T06:35:10.000Z</time>
      </trkpt>
      <trkpt lat="43.19931" lon="2.38831">
        <ele>222.7</ele>
        <time>2019-06-30T06:35:11.000Z</time>
      </trkpt>
      <trkpt lat="43.1993" lon="2.38832">
        <ele>222.8</ele>
        <time>2019-06-30T06:35:12.000Z</time>
      </trkpt>
      <trkpt lat="43.19929" lon="2.38832">
        <ele>222.8</ele>
        <time>2019-06-30T06:35:13.000Z</time>
      </trkpt>
      <trkpt lat="43.19928" lon="2.38833">
        <ele>222.9</ele>
        <time>2019-06-30T06:35:14.000Z</time>
      </trkpt>
      <trkpt lat="43.19928" lon="2.38834">
        <ele>223</ele>
        <time>2019-06-30T06:35:15.000Z</time>
      </trkpt>
      <trkpt lat="43.19927" lon="2.38835">
        <ele>223</ele>
        <time>2019-06-30T06:35:16.000Z</time>
      </trkpt>
      <trkpt lat="43.19926" lon="2.38835">
        <ele>223</ele>
        <time>2019-06-30T06:35:17.000Z</time>
      </trkpt>
      <trkpt lat="43.19925" lon="2.38836">
        <ele>223</ele>
        <time>2019-06-30T06:35:18.000Z</time>
      </trkpt>
      <trkpt lat="43.19924" lon="2.38837">
        <ele>223</ele>
        <time>2019-06-30T06:35:19.000Z</time>
      </trkpt>
      <trkpt lat="43.19924" lon="2.38838">
        <ele>223</ele>
        <time>2019-06-30T06:35:20.000Z</time>
      </trkpt>
      <trkpt lat="43.19923" lon="2.38839">
        <ele>223</ele>
        <time>2019-06-30T06:35:21.000Z</time>
      </trkpt>
      <trkpt lat="43.19922" lon="2.3884">
        <ele>223</ele>
        <time>2019-06-30T06:35:22.000Z</time>
      </trkpt>
      <trkpt lat="43.19921" lon="2.38841">
        <ele>223</ele>
        <time>2019-06-30T06:35:23.000Z</time>
      </trkpt>
      <trkpt lat="43.19921" lon="2.38842">
        <ele>222.9</ele>
        <time>2019-06-30T06:35:24.000Z</time>
      </trkpt>
      <trkpt lat="43.1992" lon="2.38843">
        <ele>222.9</ele>
        <time>2019-06-30T06:35:25.000Z</time>
      </trkpt>
      <trkpt lat="43.19919" lon="2.38844">
        <ele>222.9</ele>
        <time>2019-06-30T06:35:26.000Z</time>
      </trkpt>
      <trkpt lat="43.19918" lon="2.38845">
        <ele>222.9</ele>
        <time>2019-06-30T06:35:27.000Z</time>
      </trkpt>
      <trkpt lat="43.19918" lon="2.38846">
        <ele>222.8</ele>
        <time>2019-06-30T06:35:28.000Z</time>
      </trkpt>
      <trkpt lat="43.19917" lon="2.38847">
        <ele>222.8</ele>
        <time>2019-06-30T06:35:29.000Z</time>
      </trkpt>
      <trkpt lat="43.19916" lon="2.38848">
        <ele>222.7</ele>
        <time>2019-06-30T06:35:30.000Z</time>
      </trkpt>
      <trkpt lat="43.19915" lon="2.38849">
        <ele>222.6</ele>
        <time>2019-06-30T06:35:31.000Z</time>
      </trkpt>
      <trkpt lat="43.19914" lon="2.3885">
        <ele>222.5</ele>
        <time>2019-06-30T06:35:32.000Z</time>
      </trkpt>
      <trkpt lat="43.19914" lon="2.38851">
        <ele>222.4</ele>
        <time>2019-06-30T06:35:33.000Z</time>
      </trkpt>
      <trkpt lat="43.19913" lon="2.38852">
        <ele>222.4</ele>
        <time>2019-06-30T06:35:34.000Z</time>
      </trkpt>
      <trkpt lat="43.19912" lon="2.38853">
        <ele>222.3</ele>
        <time>2019-06-30T06:35:35.000Z</time>
      </trkpt>
      <trkpt lat="43.19911" lon="2.38854">
        <ele>222.2</ele>
        <time>2019-06-30T06:35:36.000Z</time>
      </trkpt>
      <trkpt lat="43.19911" lon="2.38855">
        <ele>222.1</ele>
        <time>2019-06-30T06:35:37.000Z</time>
      </trkpt>
      <trkpt lat="43.1991" lon="2.38856">
        <ele>222.1</ele>
        <time>2019-06-30T06:35:38.000Z</time>
      </trkpt>
      <trkpt lat="43.19909" lon="2.38857">
        <ele>222</ele>
        <time>2019-06-30T06:35:39.000Z</time>
      </trkpt>
      <trkpt lat="43.19908" lon="2.38859">
        <ele>221.9</ele>
        <time>2019-06-30T06:35:40.000Z</time>
      </trkpt>
      <trkpt lat="43.19907" lon="2.3886">
        <ele>221.9</ele>
        <time>2019-06-30T06:35:41.000Z</time>
      </trkpt>
      <trkpt lat="43.19907" lon="2.38861">
        <ele>221.8</ele>
        <time>2019-06-30T06:35:42.000Z</time>
      </trkpt>
      <trkpt lat="43.19906" lon="2.38862">
        <ele>221.8</ele>
        <time>2019-06-30T06:35:43.000Z</time>
      </trkpt>
      <trkpt lat="43.19905" lon="2.38863">
        <ele>221.7</ele>
        <time>2019-06-30T06:35:44.000Z</time>
      </trkpt>
      <trkpt lat="43.19904" lon="2.38864">
        <ele>221.7</ele>
        <time>2019-06-30T06:35:45.000Z</time>
      </trkpt>
      <trkpt lat="43.19903" lon="2.38865">
        <ele>221.7</ele>
        <time>2019-06-30T06:35:46.000Z</time>
      </trkpt>
      <trkpt lat="43.19903" lon="2.38865">
        <ele>221.7</ele>
        <time>2019-06-30T06:35:47.000Z</time>
      </trkpt>
      <trkpt lat="43.19902" lon="2.38866">
        <ele>221.7</ele>
        <time>2019-06-30T06:35:48.000Z</time>
      </trkpt>
      <trkpt lat="43.19901" lon="2.38867">
        <ele>221.7</ele>
        <time>2019-06-30T06:35:49.000Z</time>
      </trkpt>
      <trkpt lat="43.199" lon="2.38868">
        <ele>221.7</ele>
        <time>2019-06-30T06:35:50.000Z</time>
      </trkpt>
      <trkpt lat="43.19899" lon="2.38869">
        <ele>221.7</ele>
        <time>2019-06-30T06:35:51.000Z</time>
      </trkpt>
      <trkpt lat="43.19898" lon="2.3887">
        <ele>221.7</ele>
        <time>2019-06-30T06:35:52.000Z</time>
      </trkpt>
      <trkpt lat="43.19897" lon="2.3887">
        <ele>221.7</ele>
        <time>2019-06-30T06:35:53.000Z</time>
      </trkpt>
      <trkpt lat="43.19896" lon="2.38871">
        <ele>221.7</ele>
        <time>2019-06-30T06:35:54.000Z</time>
      </trkpt>
      <trkpt lat="43.19895" lon="2.38872">
        <ele>221.8</ele>
        <time>2019-06-30T06:35:55.000Z</time>
      </trkpt>
      <trkpt lat="43.19894" lon="2.38872">
        <ele>221.8</ele>
        <time>2019-06-30T06:35:56.000Z</time>
      </trkpt>
      <trkpt lat="43.19893" lon="2.38873">
        <ele>221.9</ele>
        <time>2019-06-30T06:35:57.000Z</time>
      </trkpt>
      <trkpt lat="43.19892" lon="2.38874">
        <ele>222</ele>
        <time>2019-06-30T06:35:58.000Z</time>
      </trkpt>
      <trkpt lat="43.19891" lon="2.38874">
        <ele>222</ele>
        <time>2019-06-30T06:35:59.000Z</time>
      </trkpt>
      <trkpt lat="43.1989" lon="2.38875">
        <ele>222.1</ele>
        <time>2019-06-30T06:36:00.000Z</time>
      </trkpt>
      <trkpt lat="43.19889" lon="2.38876">
        <ele>222.2</ele>
        <time>2019-06-30T06:36:01.000Z</time>
      </trkpt>
      <trkpt lat="43.19888" lon="2.38877">
        <ele>222.2</ele>
        <time>2019-06-30T06:36:02.000Z</time>
      </trkpt>
      <trkpt lat="43.19887" lon="2.38878">
        <ele>222.3</ele>
        <time>2019-06-30T06:36:03.000Z</time>
      </trkpt>
      <trkpt lat="43.19886" lon="2.38879">
        <ele>222.4</ele>
        <time>2019-06-30T06:36:04.000Z</time>
      </trkpt>
      <trkpt lat="43.19885" lon="2.3888">
        <ele>222.4</ele>
        <time>2019-06-30T06:36:05.000Z</time>
      </trkpt>
      <trkpt lat="43.19883" lon="2.38881">
        <ele>222.5</ele>
        <time>2019-06-30T06:36:06.000Z</time>
      </trkpt>
      <trkpt lat="43.19882" lon="2.38882">
        <ele>222.5</ele>
        <time>2019-06-30T06:36:07.000Z</time>
      </trkpt>
      <trkpt lat="43.19882" lon="2.38882">
        <ele>222.5</ele>
        <time>2019-06-30T06:36:08.000Z</time>
      </trkpt>
      <trkpt lat="43.19881" lon="2.38883">
        <ele>222.5</ele>
        <time>2019-06-30T06:36:09.000Z</time>
      </trkpt>
      <trkpt lat="43.19881" lon="2.38883">
        <ele>222.5</ele>
        <time>2019-06-30T06:36:10.000Z</time>
      </trkpt>
      <trkpt lat="43.1988" lon="2.38884">
        <ele>222.5</ele>
        <time>2019-06-30T06:36:11.000Z</time>
      </trkpt>
      <trkpt lat="43.1988" lon="2.38885">
        <ele>222.5</ele>
        <time>2019-06-30T06:36:12.000Z</time>
      </trkpt>
      <trkpt lat="43.19879" lon="2.38886">
        <ele>222.5</ele>
        <time>2019-06-30T06:36:13.000Z</time>
      </trkpt>
      <trkpt lat="43.19879" lon="2.38887">
        <ele>222.5</ele>
        <time>2019-06-30T06:36:14.000Z</time>
      </trkpt>
      <trkpt lat="43.19878" lon="2.38888">
        <ele>222.5</ele>
        <time>2019-06-30T06:36:15.000Z</time>
      </trkpt>
      <trkpt lat="43.19877" lon="2.38889">
        <ele>222.5</ele>
        <time>2019-06-30T06:36:16.000Z</time>
      </trkpt>
      <trkpt lat="43.19877" lon="2.3889">
        <ele>222.4</ele>
        <time>2019-06-30T06:36:17.000Z</time>
      </trkpt>
      <trkpt lat="43.19876" lon="2.38892">
        <ele>222.4</ele>
        <time>2019-06-30T06:36:18.000Z</time>
      </trkpt>
      <trkpt lat="43.19875" lon="2.38893">
        <ele>222.4</ele>
        <time>2019-06-30T06:36:19.000Z</time>
      </trkpt>
      <trkpt lat="43.19874" lon="2.38894">
        <ele>222.3</ele>
        <time>2019-06-30T06:36:20.000Z</time>
      </trkpt>
      <trkpt lat="43.19874" lon="2.38895">
        <ele>222.3</ele>
        <time>2019-06-30T06:36:21.000Z</time>
      </trkpt>
      <trkpt lat="43.19873" lon="2.38897">
        <ele>222.3</ele>
        <time>2019-06-30T06:36:22.000Z</time>
      </trkpt>
      <trkpt lat="43.19872" lon="2.38898">
        <ele>222.3</ele>
        <time>2019-06-30T06:36:23.000Z</time>
      </trkpt>
      <trkpt lat="43.19871" lon="2.38899">
        <ele>222.3</ele>
        <time>2019-06-30T06:36:24.000Z</time>
      </trkpt>
      <trkpt lat="43.1987" lon="2.38901">
        <ele>222.3</ele>
        <time>2019-06-30T06:36:25.000Z</time>
      </trkpt>
      <trkpt lat="43.19869" lon="2.38902">
        <ele>222.3</ele>
        <time>2019-06-30T06:36:26.000Z</time>
      </trkpt>
      <trkpt lat="43.19868" lon="2.38903">
        <ele>222.4</ele>
        <time>2019-06-30T06:36:27.000Z</time>
      </trkpt>
      <trkpt lat="43.19867" lon="2.38904">
        <ele>222.5</ele>
        <time>2019-06-30T06:36:28.000Z</time>
      </trkpt>
      <trkpt lat="43.19866" lon="2.38905">
        <ele>222.6</ele>
        <time>2019-06-30T06:36:29.000Z</time>
      </trkpt>
      <trkpt lat="43.19865" lon="2.38906">
        <ele>222.8</ele>
        <time>2019-06-30T06:36:30.000Z</time>
      </trkpt>
      <trkpt lat="43.19863" lon="2.38907">
        <ele>223</ele>
        <time>2019-06-30T06:36:31.000Z</time>
      </trkpt>
      <trkpt lat="43.19862" lon="2.38908">
        <ele>223.1</ele>
        <time>2019-06-30T06:36:32.000Z</time>
      </trkpt>
      <trkpt lat="43.1986" lon="2.38909">
        <ele>223.4</ele>
        <time>2019-06-30T06:36:33.000Z</time>
      </trkpt>
      <trkpt lat="43.19859" lon="2.38909">
        <ele>223.6</ele>
        <time>2019-06-30T06:36:34.000Z</time>
      </trkpt>
      <trkpt lat="43.19857" lon="2.38909">
        <ele>223.9</ele>
        <time>2019-06-30T06:36:35.000Z</time>
      </trkpt>
      <trkpt lat="43.19855" lon="2.3891">
        <ele>224.2</ele>
        <time>2019-06-30T06:36:36.000Z</time>
      </trkpt>
      <trkpt lat="43.19854" lon="2.3891">
        <ele>224.5</ele>
        <time>2019-06-30T06:36:37.000Z</time>
      </trkpt>
      <trkpt lat="43.19852" lon="2.3891">
        <ele>224.9</ele>
        <time>2019-06-30T06:36:38.000Z</time>
      </trkpt>
      <trkpt lat="43.1985" lon="2.38909">
        <ele>225.2</ele>
        <time>2019-06-30T06:36:39.000Z</time>
      </trkpt>
      <trkpt lat="43.19849" lon="2.38909">
        <ele>225.5</ele>
        <time>2019-06-30T06:36:40.000Z</time>
      </trkpt>
      <trkpt lat="43.19847" lon="2.38909">
        <ele>225.9</ele>
        <time>2019-06-30T06:36:41.000Z</time>
      </trkpt>
      <trkpt lat="43.19846" lon="2.38908">
        <ele>226.2</ele>
        <time>2019-06-30T06:36:42.000Z</time>
      </trkpt>
      <trkpt lat="43.19844" lon="2.38908">
        <ele>226.6</ele>
        <time>2019-06-30T06:36:43.000Z</time>
      </trkpt>
      <trkpt lat="43.19842" lon="2.38907">
        <ele>226.9</ele>
        <time>2019-06-30T06:36:44.000Z</time>
      </trkpt>
      <trkpt lat="43.19841" lon="2.38907">
        <ele>227.3</ele>
        <time>2019-06-30T06:36:45.000Z</time>
      </trkpt>
      <trkpt lat="43.19839" lon="2.38906">
        <ele>227.6</ele>
        <time>2019-06-30T06:36:46.000Z</time>
      </trkpt>
      <trkpt lat="43.19838" lon="2.38906">
        <ele>228</ele>
        <time>2019-06-30T06:36:47.000Z</time>
      </trkpt>
      <trkpt lat="43.19836" lon="2.38905">
        <ele>228.3</ele>
        <time>2019-06-30T06:36:48.000Z</time>
      </trkpt>
      <trkpt lat="43.19835" lon="2.38905">
        <ele>228.6</ele>
        <time>2019-06-30T06:36:49.000Z</time>
      </trkpt>
      <trkpt lat="43.19833" lon="2.38905">
        <ele>228.9</ele>
        <time>2019-06-30T06:36:50.000Z</time>
      </trkpt>
      <trkpt lat="43.19832" lon="2.38905">
        <ele>229.1</ele>
        <time>2019-06-30T06:36:51.000Z</time>
      </trkpt>
      <trkpt lat="43.1983" lon="2.38905">
        <ele>229.4</ele>
        <time>2019-06-30T06:36:52.000Z</time>
      </trkpt>
      <trkpt lat="43.19828" lon="2.38905">
        <ele>229.6</ele>
        <time>2019-06-30T06:36:53.000Z</time>
      </trkpt>
      <trkpt lat="43.19827" lon="2.38905">
        <ele>229.9</ele>
        <time>2019-06-30T06:36:54.000Z</time>
      </trkpt>
      <trkpt lat="43.19825" lon="2.38905">
        <ele>230.1</ele>
        <time>2019-06-30T06:36:55.000Z</time>
      </trkpt>
      <trkpt lat="43.19824" lon="2.38905">
        <ele>230.3</ele>
        <time>2019-06-30T06:36:56.000Z</time>
      </trkpt>
      <trkpt lat="43.19822" lon="2.38906">
        <ele>230.5</ele>
        <time>2019-06-30T06:36:57.000Z</time>
      </trkpt>
      <trkpt lat="43.19821" lon="2.38906">
        <ele>230.7</ele>
        <time>2019-06-30T06:36:58.000Z</time>
      </trkpt>
      <trkpt lat="43.19819" lon="2.38907">
        <ele>231</ele>
        <time>2019-06-30T06:36:59.000Z</time>
      </trkpt>
      <trkpt lat="43.19818" lon="2.38907">
        <ele>231.2</ele>
        <time>2019-06-30T06:37:00.000Z</time>
      </trkpt>
      <trkpt lat="43.19817" lon="2.38908">
        <ele>231.4</ele>
        <time>2019-06-30T06:37:01.000Z</time>
      </trkpt>
      <trkpt lat="43.19815" lon="2.38908">
        <ele>231.6</ele>
        <time>2019-06-30T06:37:02.000Z</time>
      </trkpt>
      <trkpt lat="43.19814" lon="2.38909">
        <ele>231.8</ele>
        <time>2019-06-30T06:37:03.000Z</time>
      </trkpt>
      <trkpt lat="43.19812" lon="2.38909">
        <ele>231.9</ele>
        <time>2019-06-30T06:37:04.000Z</time>
      </trkpt>
      <trkpt lat="43.19811" lon="2.3891">
        <ele>232.1</ele>
        <time>2019-06-30T06:37:05.000Z</time>
      </trkpt>
      <trkpt lat="43.19809" lon="2.38911">
        <ele>232.3</ele>
        <time>2019-06-30T06:37:06.000Z</time>
      </trkpt>
      <trkpt lat="43.19808" lon="2.38912">
        <ele>232.5</ele>
        <time>2019-06-30T06:37:07.000Z</time>
      </trkpt>
      <trkpt lat="43.19807" lon="2.38913">
        <ele>232.7</ele>
        <time>2019-06-30T06:37:08.000Z</time>
      </trkpt>
      <trkpt lat="43.19805" lon="2.38914">
        <ele>232.9</ele>
        <time>2019-06-30T06:37:09.000Z</time>
      </trkpt>
      <trkpt lat="43.19804" lon="2.38915">
        <ele>233</ele>
        <time>2019-06-30T06:37:10.000Z</time>
      </trkpt>
      <trkpt lat="43.19802" lon="2.38916">
        <ele>233.2</ele>
        <time>2019-06-30T06:37:11.000Z</time>
      </trkpt>
      <trkpt lat="43.19801" lon="2.38918">
        <ele>233.3</ele>
        <time>2019-06-30T06:37:12.000Z</time>
      </trkpt>
      <trkpt lat="43.198" lon="2.38919">
        <ele>233.3</ele>
        <time>2019-06-30T06:37:13.000Z</time>
      </trkpt>
      <trkpt lat="43.19798" lon="2.38921">
        <ele>233.4</ele>
        <time>2019-06-30T06:37:14.000Z</time>
      </trkpt>
      <trkpt lat="43.19797" lon="2.38922">
        <ele>233.4</ele>
        <time>2019-06-30T06:37:15.000Z</time>
      </trkpt>
      <trkpt lat="43.19795" lon="2.38924">
        <ele>233.5</ele>
        <time>2019-06-30T06:37:16.000Z</time>
      </trkpt>
      <trkpt lat="43.19794" lon="2.38926">
        <ele>233.5</ele>
        <time>2019-06-30T06:37:17.000Z</time>
      </trkpt>
      <trkpt lat="43.19792" lon="2.38928">
        <ele>233.6</ele>
        <time>2019-06-30T06:37:18.000Z</time>
      </trkpt>
      <trkpt lat="43.19791" lon="2.3893">
        <ele>233.6</ele>
        <time>2019-06-30T06:37:19.000Z</time>
      </trkpt>
      <trkpt lat="43.19789" lon="2.38931">
        <ele>233.7</ele>
        <time>2019-06-30T06:37:20.000Z</time>
      </trkpt>
      <trkpt lat="43.19788" lon="2.38933">
        <ele>233.8</ele>
        <time>2019-06-30T06:37:21.000Z</time>
      </trkpt>
      <trkpt lat="43.19786" lon="2.38935">
        <ele>233.9</ele>
        <time>2019-06-30T06:37:22.000Z</time>
      </trkpt>
      <trkpt lat="43.19785" lon="2.38937">
        <ele>234</ele>
        <time>2019-06-30T06:37:23.000Z</time>
      </trkpt>
      <trkpt lat="43.19783" lon="2.38938">
        <ele>234.1</ele>
        <time>2019-06-30T06:37:24.000Z</time>
      </trkpt>
      <trkpt lat="43.19782" lon="2.3894">
        <ele>234.2</ele>
        <time>2019-06-30T06:37:25.000Z</time>
      </trkpt>
      <trkpt lat="43.1978" lon="2.38942">
        <ele>234.4</ele>
        <time>2019-06-30T06:37:26.000Z</time>
      </trkpt>
      <trkpt lat="43.19778" lon="2.38943">
        <ele>234.5</ele>
        <time>2019-06-30T06:37:27.000Z</time>
      </trkpt>
      <trkpt lat="43.19777" lon="2.38945">
        <ele>234.7</ele>
        <time>2019-06-30T06:37:28.000Z</time>
      </trkpt>
      <trkpt lat="43.19776" lon="2.38947">
        <ele>234.8</ele>
        <time>2019-06-30T06:37:29.000Z</time>
      </trkpt>
      <trkpt lat="43.19774" lon="2.38949">
        <ele>234.9</ele>
        <time>2019-06-30T06:37:30.000Z</time>
      </trkpt>
      <trkpt lat="43.19773" lon="2.38951">
        <ele>235</ele>
        <time>2019-06-30T06:37:31.000Z</time>
      </trkpt>
      <trkpt lat="43.19772" lon="2.38953">
        <ele>235.1</ele>
        <time>2019-06-30T06:37:32.000Z</time>
      </trkpt>
      <trkpt lat="43.19771" lon="2.38955">
        <ele>235.2</ele>
        <time>2019-06-30T06:37:33.000Z</time>
      </trkpt>
      <trkpt lat="43.19769" lon="2.38957">
        <ele>235.2</ele>
        <time>2019-06-30T06:37:34.000Z</time>
      </trkpt>
      <trkpt lat="43.19768" lon="2.38959">
        <ele>235.3</ele>
        <time>2019-06-30T06:37:35.000Z</time>
      </trkpt>
      <trkpt lat="43.19767" lon="2.38961">
        <ele>235.4</ele>
        <time>2019-06-30T06:37:36.000Z</time>
      </trkpt>
      <trkpt lat="43.19766" lon="2.38964">
        <ele>235.5</ele>
        <time>2019-06-30T06:37:37.000Z</time>
      </trkpt>
      <trkpt lat="43.19764" lon="2.38966">
        <ele>235.6</ele>
        <time>2019-06-30T06:37:38.000Z</time>
      </trkpt>
      <trkpt lat="43.19763" lon="2.38969">
        <ele>235.7</ele>
        <time>2019-06-30T06:37:39.000Z</time>
      </trkpt>
      <trkpt lat="43.19762" lon="2.38971">
        <ele>235.9</ele>
        <time>2019-06-30T06:37:40.000Z</time>
      </trkpt>
      <trkpt lat="43.1976" lon="2.38974">
        <ele>236</ele>
        <time>2019-06-30T06:37:41.000Z</time>
      </trkpt>
      <trkpt lat="43.19759" lon="2.38976">
        <ele>236.2</ele>
        <time>2019-06-30T06:37:42.000Z</time>
      </trkpt>
      <trkpt lat="43.19757" lon="2.38979">
        <ele>236.4</ele>
        <time>2019-06-30T06:37:43.000Z</time>
      </trkpt>
      <trkpt lat="43.19756" lon="2.38981">
        <ele>236.6</ele>
        <time>2019-06-30T06:37:44.000Z</time>
      </trkpt>
      <trkpt lat="43.19754" lon="2.38983">
        <ele>236.9</ele>
        <time>2019-06-30T06:37:45.000Z</time>
      </trkpt>
      <trkpt lat="43.19753" lon="2.38986">
        <ele>237.1</ele>
        <time>2019-06-30T06:37:46.000Z</time>
      </trkpt>
      <trkpt lat="43.19751" lon="2.38988">
        <ele>237.4</ele>
        <time>2019-06-30T06:37:47.000Z</time>
      </trkpt>
      <trkpt lat="43.1975" lon="2.3899">
        <ele>237.6</ele>
        <time>2019-06-30T06:37:48.000Z</time>
      </trkpt>
      <trkpt lat="43.19748" lon="2.38992">
        <ele>237.7</ele>
        <time>2019-06-30T06:37:49.000Z</time>
      </trkpt>
      <trkpt lat="43.19747" lon="2.38994">
        <ele>237.7</ele>
        <time>2019-06-30T06:37:50.000Z</time>
      </trkpt>
      <trkpt lat="43.19745" lon="2.38997">
        <ele>237.7</ele>
        <time>2019-06-30T06:37:51.000Z</time>
      </trkpt>
      <trkpt lat="43.19744" lon="2.39">
        <ele>237.7</ele>
        <time>2019-06-30T06:37:52.000Z</time>
      </trkpt>
      <trkpt lat="43.19742" lon="2.39002">
        <ele>237.5</ele>
        <time>2019-06-30T06:37:53.000Z</time>
      </trkpt>
      <trkpt lat="43.1974" lon="2.39005">
        <ele>237.2</ele>
        <time>2019-06-30T06:37:54.000Z</time>
      </trkpt>
      <trkpt lat="43.19739" lon="2.39007">
        <ele>236.9</ele>
        <time>2019-06-30T06:37:55.000Z</time>
      </trkpt>
      <trkpt lat="43.19737" lon="2.3901">
        <ele>236.7</ele>
        <time>2019-06-30T06:37:56.000Z</time>
      </trkpt>
      <trkpt lat="43.19735" lon="2.39012">
        <ele>236.5</ele>
        <time>2019-06-30T06:37:57.000Z</time>
      </trkpt>
      <trkpt lat="43.19733" lon="2.39015">
        <ele>236.3</ele>
        <time>2019-06-30T06:37:58.000Z</time>
      </trkpt>
      <trkpt lat="43.19732" lon="2.39017">
        <ele>236.1</ele>
        <time>2019-06-30T06:37:59.000Z</time>
      </trkpt>
      <trkpt lat="43.1973" lon="2.39019">
        <ele>236</ele>
        <time>2019-06-30T06:38:00.000Z</time>
      </trkpt>
      <trkpt lat="43.19728" lon="2.39021">
        <ele>235.9</ele>
        <time>2019-06-30T06:38:01.000Z</time>
      </trkpt>
      <trkpt lat="43.19726" lon="2.39023">
        <ele>235.9</ele>
        <time>2019-06-30T06:38:02.000Z</time>
      </trkpt>
      <trkpt lat="43.19725" lon="2.39025">
        <ele>235.8</ele>
        <time>2019-06-30T06:38:03.000Z</time>
      </trkpt>
      <trkpt lat="43.19723" lon="2.39027">
        <ele>235.8</ele>
        <time>2019-06-30T06:38:04.000Z</time>
      </trkpt>
      <trkpt lat="43.19721" lon="2.39029">
        <ele>235.7</ele>
        <time>2019-06-30T06:38:05.000Z</time>
      </trkpt>
      <trkpt lat="43.19719" lon="2.3903">
        <ele>235.7</ele>
        <time>2019-06-30T06:38:06.000Z</time>
      </trkpt>
      <trkpt lat="43.19717" lon="2.39032">
        <ele>235.7</ele>
        <time>2019-06-30T06:38:07.000Z</time>
      </trkpt>
      <trkpt lat="43.19716" lon="2.39034">
        <ele>235.7</ele>
        <time>2019-06-30T06:38:08.000Z</time>
      </trkpt>
      <trkpt lat="43.19714" lon="2.39036">
        <ele>235.7</ele>
        <time>2019-06-30T06:38:09.000Z</time>
      </trkpt>
      <trkpt lat="43.19712" lon="2.39038">
        <ele>235.7</ele>
        <time>2019-06-30T06:38:10.000Z</time>
      </trkpt>
      <trkpt lat="43.1971" lon="2.3904">
        <ele>235.7</ele>
        <time>2019-06-30T06:38:11.000Z</time>
      </trkpt>
      <trkpt lat="43.19708" lon="2.39043">
        <ele>235.6</ele>
        <time>2019-06-30T06:38:12.000Z</time>
      </trkpt>
      <trkpt lat="43.19707" lon="2.39045">
        <ele>235.6</ele>
        <time>2019-06-30T06:38:13.000Z</time>
      </trkpt>
      <trkpt lat="43.19705" lon="2.39047">
        <ele>235.6</ele>
        <time>2019-06-30T06:38:14.000Z</time>
      </trkpt>
      <trkpt lat="43.19703" lon="2.3905">
        <ele>235.5</ele>
        <time>2019-06-30T06:38:15.000Z</time>
      </trkpt>
      <trkpt lat="43.19702" lon="2.39052">
        <ele>235.5</ele>
        <time>2019-06-30T06:38:16.000Z</time>
      </trkpt>
      <trkpt lat="43.197" lon="2.39055">
        <ele>235.4</ele>
        <time>2019-06-30T06:38:17.000Z</time>
      </trkpt>
      <trkpt lat="43.19699" lon="2.39058">
        <ele>235.3</ele>
        <time>2019-06-30T06:38:18.000Z</time>
      </trkpt>
      <trkpt lat="43.19697" lon="2.39061">
        <ele>235.2</ele>
        <time>2019-06-30T06:38:19.000Z</time>
      </trkpt>
      <trkpt lat="43.19696" lon="2.39063">
        <ele>235.1</ele>
        <time>2019-06-30T06:38:20.000Z</time>
      </trkpt>
      <trkpt lat="43.19695" lon="2.39066">
        <ele>235</ele>
        <time>2019-06-30T06:38:21.000Z</time>
      </trkpt>
      <trkpt lat="43.19694" lon="2.39069">
        <ele>234.8</ele>
        <time>2019-06-30T06:38:22.000Z</time>
      </trkpt>
      <trkpt lat="43.19693" lon="2.39073">
        <ele>234.6</ele>
        <time>2019-06-30T06:38:23.000Z</time>
      </trkpt>
      <trkpt lat="43.19692" lon="2.39076">
        <ele>234.4</ele>
        <time>2019-06-30T06:38:24.000Z</time>
      </trkpt>
      <trkpt lat="43.19692" lon="2.39079">
        <ele>234.1</ele>
        <time>2019-06-30T06:38:25.000Z</time>
      </trkpt>
      <trkpt lat="43.19691" lon="2.39082">
        <ele>233.8</ele>
        <time>2019-06-30T06:38:26.000Z</time>
      </trkpt>
      <trkpt lat="43.19691" lon="2.39086">
        <ele>233.5</ele>
        <time>2019-06-30T06:38:27.000Z</time>
      </trkpt>
      <trkpt lat="43.19691" lon="2.39089">
        <ele>233.2</ele>
        <time>2019-06-30T06:38:28.000Z</time>
      </trkpt>
      <trkpt lat="43.1969" lon="2.39093">
        <ele>232.9</ele>
        <time>2019-06-30T06:38:29.000Z</time>
      </trkpt>
      <trkpt lat="43.1969" lon="2.39096">
        <ele>232.6</ele>
        <time>2019-06-30T06:38:30.000Z</time>
      </trkpt>
      <trkpt lat="43.19689" lon="2.391">
        <ele>232.3</ele>
        <time>2019-06-30T06:38:31.000Z</time>
      </trkpt>
      <trkpt lat="43.19688" lon="2.39103">
        <ele>232.1</ele>
        <time>2019-06-30T06:38:32.000Z</time>
      </trkpt>
      <trkpt lat="43.19688" lon="2.39106">
        <ele>232</ele>
        <time>2019-06-30T06:38:33.000Z</time>
      </trkpt>
      <trkpt lat="43.19687" lon="2.39109">
        <ele>231.8</ele>
        <time>2019-06-30T06:38:34.000Z</time>
      </trkpt>
      <trkpt lat="43.19686" lon="2.39112">
        <ele>231.7</ele>
        <time>2019-06-30T06:38:35.000Z</time>
      </trkpt>
      <trkpt lat="43.19685" lon="2.39115">
        <ele>231.7</ele>
        <time>2019-06-30T06:38:36.000Z</time>
      </trkpt>
      <trkpt lat="43.19684" lon="2.39118">
        <ele>231.6</ele>
        <time>2019-06-30T06:38:37.000Z</time>
      </trkpt>
      <trkpt lat="43.19683" lon="2.39121">
        <ele>231.5</ele>
        <time>2019-06-30T06:38:38.000Z</time>
      </trkpt>
      <trkpt lat="43.19682" lon="2.39124">
        <ele>231.5</ele>
        <time>2019-06-30T06:38:39.000Z</time>
      </trkpt>
      <trkpt lat="43.19681" lon="2.39127">
        <ele>231.3</ele>
        <time>2019-06-30T06:38:40.000Z</time>
      </trkpt>
      <trkpt lat="43.1968" lon="2.39129">
        <ele>231.2</ele>
        <time>2019-06-30T06:38:41.000Z</time>
      </trkpt>
      <trkpt lat="43.19679" lon="2.39132">
        <ele>231.1</ele>
        <time>2019-06-30T06:38:42.000Z</time>
      </trkpt>
      <trkpt lat="43.19679" lon="2.39135">
        <ele>231</ele>
        <time>2019-06-30T06:38:43.000Z</time>
      </trkpt>
      <trkpt lat="43.19678" lon="2.39138">
        <ele>230.8</ele>
        <time>2019-06-30T06:38:44.000Z</time>
      </trkpt>
      <trkpt lat="43.19678" lon="2.39141">
        <ele>230.7</ele>
        <time>2019-06-30T06:38:45.000Z</time>
      </trkpt>
      <trkpt lat="43.19677" lon="2.39144">
        <ele>230.5</ele>
        <time>2019-06-30T06:38:46.000Z</time>
      </trkpt>
      <trkpt lat="43.19676" lon="2.39147">
        <ele>230.3</ele>
        <time>2019-06-30T06:38:47.000Z</time>
      </trkpt>
      <trkpt lat="43.19676" lon="2.3915">
        <ele>230.2</ele>
        <time>2019-06-30T06:38:48.000Z</time>
      </trkpt>
      <trkpt lat="43.19675" lon="2.39153">
        <ele>230</ele>
        <time>2019-06-30T06:38:49.000Z</time>
      </trkpt>
      <trkpt lat="43.19675" lon="2.39156">
        <ele>229.8</ele>
        <time>2019-06-30T06:38:50.000Z</time>
      </trkpt>
      <trkpt lat="43.19674" lon="2.39159">
        <ele>229.7</ele>
        <time>2019-06-30T06:38:51.000Z</time>
      </trkpt>
      <trkpt lat="43.19674" lon="2.39162">
        <ele>229.5</ele>
        <time>2019-06-30T06:38:52.000Z</time>
      </trkpt>
      <trkpt lat="43.19673" lon="2.39165">
        <ele>229.4</ele>
        <time>2019-06-30T06:38:53.000Z</time>
      </trkpt>
      <trkpt lat="43.19672" lon="2.39168">
        <ele>229.2</ele>
        <time>2019-06-30T06:38:54.000Z</time>
      </trkpt>
      <trkpt lat="43.19672" lon="2.39171">
        <ele>229</ele>
        <time>2019-06-30T06:38:55.000Z</time>
      </trkpt>
      <trkpt lat="43.19671" lon="2.39175">
        <ele>228.8</ele>
        <time>2019-06-30T06:38:56.000Z</time>
      </trkpt>
      <trkpt lat="43.1967" lon="2.39178">
        <ele>228.6</ele>
        <time>2019-06-30T06:38:57.000Z</time>
      </trkpt>
      <trkpt lat="43.1967" lon="2.39181">
        <ele>228.3</ele>
        <time>2019-06-30T06:38:58.000Z</time>
      </trkpt>
      <trkpt lat="43.19669" lon="2.39184">
        <ele>228.1</ele>
        <time>2019-06-30T06:38:59.000Z</time>
      </trkpt>
      <trkpt lat="43.19669" lon="2.39187">
        <ele>227.7</ele>
        <time>2019-06-30T06:39:00.000Z</time>
      </trkpt>
      <trkpt lat="43.19669" lon="2.3919">
        <ele>227.4</ele>
        <time>2019-06-30T06:39:01.000Z</time>
      </trkpt>
      <trkpt lat="43.19669" lon="2.39193">
        <ele>227</ele>
        <time>2019-06-30T06:39:02.000Z</time>
      </trkpt>
      <trkpt lat="43.19669" lon="2.39197">
        <ele>226.5</ele>
        <time>2019-06-30T06:39:03.000Z</time>
      </trkpt>
      <trkpt lat="43.19669" lon="2.392">
        <ele>226.1</ele>
        <time>2019-06-30T06:39:04.000Z</time>
      </trkpt>
      <trkpt lat="43.19669" lon="2.39203">
        <ele>225.6</ele>
        <time>2019-06-30T06:39:05.000Z</time>
      </trkpt>
      <trkpt lat="43.19669" lon="2.39207">
        <ele>225.2</ele>
        <time>2019-06-30T06:39:06.000Z</time>
      </trkpt>
      <trkpt lat="43.19669" lon="2.3921">
        <ele>224.7</ele>
        <time>2019-06-30T06:39:07.000Z</time>
      </trkpt>
      <trkpt lat="43.19669" lon="2.39213">
        <ele>224.3</ele>
        <time>2019-06-30T06:39:08.000Z</time>
      </trkpt>
      <trkpt lat="43.19669" lon="2.39217">
        <ele>223.9</ele>
        <time>2019-06-30T06:39:09.000Z</time>
      </trkpt>
      <trkpt lat="43.19669" lon="2.3922">
        <ele>223.5</ele>
        <time>2019-06-30T06:39:10.000Z</time>
      </trkpt>
      <trkpt lat="43.19668" lon="2.39223">
        <ele>223.2</ele>
        <time>2019-06-30T06:39:11.000Z</time>
      </trkpt>
      <trkpt lat="43.19668" lon="2.39226">
        <ele>222.9</ele>
        <time>2019-06-30T06:39:12.000Z</time>
      </trkpt>
      <trkpt lat="43.19667" lon="2.39229">
        <ele>222.7</ele>
        <time>2019-06-30T06:39:13.000Z</time>
      </trkpt>
      <trkpt lat="43.19666" lon="2.39232">
        <ele>222.4</ele>
        <time>2019-06-30T06:39:14.000Z</time>
      </trkpt>
      <trkpt lat="43.19665" lon="2.39235">
        <ele>222.1</ele>
        <time>2019-06-30T06:39:15.000Z</time>
      </trkpt>
      <trkpt lat="43.19663" lon="2.39238">
        <ele>221.8</ele>
        <time>2019-06-30T06:39:16.000Z</time>
      </trkpt>
      <trkpt lat="43.19661" lon="2.3924">
        <ele>221.6</ele>
        <time>2019-06-30T06:39:17.000Z</time>
      </trkpt>
      <trkpt lat="43.1966" lon="2.39243">
        <ele>221.5</ele>
        <time>2019-06-30T06:39:18.000Z</time>
      </trkpt>
      <trkpt lat="43.19658" lon="2.39245">
        <ele>221.4</ele>
        <time>2019-06-30T06:39:19.000Z</time>
      </trkpt>
      <trkpt lat="43.19656" lon="2.39246">
        <ele>221.3</ele>
        <time>2019-06-30T06:39:20.000Z</time>
      </trkpt>
      <trkpt lat="43.19654" lon="2.39247">
        <ele>221.2</ele>
        <time>2019-06-30T06:39:21.000Z</time>
      </trkpt>
      <trkpt lat="43.19653" lon="2.39248">
        <ele>221.2</ele>
        <time>2019-06-30T06:39:22.000Z</time>
      </trkpt>
      <trkpt lat="43.19653" lon="2.39248">
        <ele>221.2</ele>
        <time>2019-06-30T06:39:23.000Z</time>
      </trkpt>
      <trkpt lat="43.19652" lon="2.39248">
        <ele>221.3</ele>
        <time>2019-06-30T06:39:24.000Z</time>
      </trkpt>
      <trkpt lat="43.19652" lon="2.39248">
        <ele>221.3</ele>
        <time>2019-06-30T06:39:25.000Z</time>
      </trkpt>
      <trkpt lat="43.19652" lon="2.39247">
        <ele>221.4</ele>
        <time>2019-06-30T06:39:26.000Z</time>
      </trkpt>
      <trkpt lat="43.19653" lon="2.39247">
        <ele>221.4</ele>
        <time>2019-06-30T06:39:27.000Z</time>
      </trkpt>
      <trkpt lat="43.19653" lon="2.39246">
        <ele>221.5</ele>
        <time>2019-06-30T06:39:28.000Z</time>
      </trkpt>
      <trkpt lat="43.19654" lon="2.39246">
        <ele>221.5</ele>
        <time>2019-06-30T06:39:29.000Z</time>
      </trkpt>
      <trkpt lat="43.19654" lon="2.39245">
        <ele>221.5</ele>
        <time>2019-06-30T06:39:30.000Z</time>
      </trkpt>
      <trkpt lat="43.19655" lon="2.39245">
        <ele>221.5</ele>
        <time>2019-06-30T06:39:31.000Z</time>
      </trkpt>
      <trkpt lat="43.19655" lon="2.39246">
        <ele>221.4</ele>
        <time>2019-06-30T06:39:32.000Z</time>
      </trkpt>
      <trkpt lat="43.19656" lon="2.39246">
        <ele>221.3</ele>
        <time>2019-06-30T06:39:33.000Z</time>
      </trkpt>
      <trkpt lat="43.19656" lon="2.39246">
        <ele>221.2</ele>
        <time>2019-06-30T06:39:34.000Z</time>
      </trkpt>
      <trkpt lat="43.19656" lon="2.39247">
        <ele>221.2</ele>
        <time>2019-06-30T06:39:35.000Z</time>
      </trkpt>
      <trkpt lat="43.19655" lon="2.39248">
        <ele>221.1</ele>
        <time>2019-06-30T06:39:36.000Z</time>
      </trkpt>
      <trkpt lat="43.19655" lon="2.39249">
        <ele>221</ele>
        <time>2019-06-30T06:39:37.000Z</time>
      </trkpt>
      <trkpt lat="43.19653" lon="2.3925">
        <ele>221</ele>
        <time>2019-06-30T06:39:38.000Z</time>
      </trkpt>
      <trkpt lat="43.19652" lon="2.39251">
        <ele>221</ele>
        <time>2019-06-30T06:39:39.000Z</time>
      </trkpt>
      <trkpt lat="43.19651" lon="2.39252">
        <ele>220.9</ele>
        <time>2019-06-30T06:39:40.000Z</time>
      </trkpt>
      <trkpt lat="43.19649" lon="2.39253">
        <ele>220.8</ele>
        <time>2019-06-30T06:39:41.000Z</time>
      </trkpt>
      <trkpt lat="43.19647" lon="2.39254">
        <ele>220.7</ele>
        <time>2019-06-30T06:39:42.000Z</time>
      </trkpt>
      <trkpt lat="43.19645" lon="2.39255">
        <ele>220.7</ele>
        <time>2019-06-30T06:39:43.000Z</time>
      </trkpt>
      <trkpt lat="43.19643" lon="2.39256">
        <ele>220.6</ele>
        <time>2019-06-30T06:39:44.000Z</time>
      </trkpt>
      <trkpt lat="43.19641" lon="2.39258">
        <ele>220.5</ele>
        <time>2019-06-30T06:39:45.000Z</time>
      </trkpt>
      <trkpt lat="43.1964" lon="2.39259">
        <ele>220.4</ele>
        <time>2019-06-30T06:39:46.000Z</time>
      </trkpt>
      <trkpt lat="43.19638" lon="2.3926">
        <ele>220.3</ele>
        <time>2019-06-30T06:39:47.000Z</time>
      </trkpt>
      <trkpt lat="43.19636" lon="2.39262">
        <ele>220.2</ele>
        <time>2019-06-30T06:39:48.000Z</time>
      </trkpt>
      <trkpt lat="43.19634" lon="2.39263">
        <ele>220.2</ele>
        <time>2019-06-30T06:39:49.000Z</time>
      </trkpt>
      <trkpt lat="43.19632" lon="2.39264">
        <ele>220.1</ele>
        <time>2019-06-30T06:39:50.000Z</time>
      </trkpt>
      <trkpt lat="43.19631" lon="2.39265">
        <ele>220</ele>
        <time>2019-06-30T06:39:51.000Z</time>
      </trkpt>
      <trkpt lat="43.19629" lon="2.39266">
        <ele>220</ele>
        <time>2019-06-30T06:39:52.000Z</time>
      </trkpt>
      <trkpt lat="43.19627" lon="2.39267">
        <ele>219.9</ele>
        <time>2019-06-30T06:39:53.000Z</time>
      </trkpt>
      <trkpt lat="43.19625" lon="2.39268">
        <ele>219.9</ele>
        <time>2019-06-30T06:39:54.000Z</time>
      </trkpt>
      <trkpt lat="43.19624" lon="2.39269">
        <ele>219.9</ele>
        <time>2019-06-30T06:39:55.000Z</time>
      </trkpt>
      <trkpt lat="43.19622" lon="2.3927">
        <ele>220</ele>
        <time>2019-06-30T06:39:56.000Z</time>
      </trkpt>
      <trkpt lat="43.1962" lon="2.39271">
        <ele>220</ele>
        <time>2019-06-30T06:39:57.000Z</time>
      </trkpt>
      <trkpt lat="43.19618" lon="2.39271">
        <ele>220</ele>
        <time>2019-06-30T06:39:58.000Z</time>
      </trkpt>
      <trkpt lat="43.19615" lon="2.39272">
        <ele>220.1</ele>
        <time>2019-06-30T06:39:59.000Z</time>
      </trkpt>
      <trkpt lat="43.19613" lon="2.39272">
        <ele>220.2</ele>
        <time>2019-06-30T06:40:00.000Z</time>
      </trkpt>
      <trkpt lat="43.19611" lon="2.39273">
        <ele>220.3</ele>
        <time>2019-06-30T06:40:01.000Z</time>
      </trkpt>
      <trkpt lat="43.19609" lon="2.39273">
        <ele>220.4</ele>
        <time>2019-06-30T06:40:02.000Z</time>
      </trkpt>
      <trkpt lat="43.19606" lon="2.39274">
        <ele>220.5</ele>
        <time>2019-06-30T06:40:03.000Z</time>
      </trkpt>
      <trkpt lat="43.19604" lon="2.39274">
        <ele>220.6</ele>
        <time>2019-06-30T06:40:04.000Z</time>
      </trkpt>
      <trkpt lat="43.19602" lon="2.39274">
        <ele>220.8</ele>
        <time>2019-06-30T06:40:05.000Z</time>
      </trkpt>
      <trkpt lat="43.196" lon="2.39274">
        <ele>220.9</ele>
        <time>2019-06-30T06:40:06.000Z</time>
      </trkpt>
      <trkpt lat="43.19598" lon="2.39274">
        <ele>221</ele>
        <time>2019-06-30T06:40:07.000Z</time>
      </trkpt>
      <trkpt lat="43.19596" lon="2.39275">
        <ele>221.2</ele>
        <time>2019-06-30T06:40:08.000Z</time>
      </trkpt>
      <trkpt lat="43.19594" lon="2.39275">
        <ele>221.3</ele>
        <time>2019-06-30T06:40:09.000Z</time>
      </trkpt>
      <trkpt lat="43.19592" lon="2.39275">
        <ele>221.4</ele>
        <time>2019-06-30T06:40:10.000Z</time>
      </trkpt>
      <trkpt lat="43.1959" lon="2.39276">
        <ele>221.5</ele>
        <time>2019-06-30T06:40:11.000Z</time>
      </trkpt>
      <trkpt lat="43.19587" lon="2.39276">
        <ele>221.6</ele>
        <time>2019-06-30T06:40:12.000Z</time>
      </trkpt>
      <trkpt lat="43.19585" lon="2.39277">
        <ele>221.7</ele>
        <time>2019-06-30T06:40:13.000Z</time>
      </trkpt>
      <trkpt lat="43.19583" lon="2.39277">
        <ele>221.6</ele>
        <time>2019-06-30T06:40:14.000Z</time>
      </trkpt>
      <trkpt lat="43.1958" lon="2.39278">
        <ele>221</ele>
        <time>2019-06-30T06:40:15.000Z</time>
      </trkpt>
      <trkpt lat="43.19578" lon="2.39278">
        <ele>220.5</ele>
        <time>2019-06-30T06:40:16.000Z</time>
      </trkpt>
      <trkpt lat="43.19576" lon="2.39278">
        <ele>220</ele>
        <time>2019-06-30T06:40:17.000Z</time>
      </trkpt>
      <trkpt lat="43.19574" lon="2.39278">
        <ele>219.6</ele>
        <time>2019-06-30T06:40:18.000Z</time>
      </trkpt>
      <trkpt lat="43.19571" lon="2.39277">
        <ele>219.3</ele>
        <time>2019-06-30T06:40:19.000Z</time>
      </trkpt>
      <trkpt lat="43.19569" lon="2.39276">
        <ele>219</ele>
        <time>2019-06-30T06:40:20.000Z</time>
      </trkpt>
      <trkpt lat="43.19568" lon="2.39275">
        <ele>218.7</ele>
        <time>2019-06-30T06:40:21.000Z</time>
      </trkpt>
      <trkpt lat="43.19566" lon="2.39274">
        <ele>218.5</ele>
        <time>2019-06-30T06:40:22.000Z</time>
      </trkpt>
      <trkpt lat="43.19564" lon="2.39272">
        <ele>218.3</ele>
        <time>2019-06-30T06:40:23.000Z</time>
      </trkpt>
      <trkpt lat="43.19562" lon="2.3927">
        <ele>218.1</ele>
        <time>2019-06-30T06:40:24.000Z</time>
      </trkpt>
      <trkpt lat="43.19559" lon="2.39268">
        <ele>217.9</ele>
        <time>2019-06-30T06:40:25.000Z</time>
      </trkpt>
      <trkpt lat="43.19557" lon="2.39266">
        <ele>217.7</ele>
        <time>2019-06-30T06:40:26.000Z</time>
      </trkpt>
      <trkpt lat="43.19555" lon="2.39264">
        <ele>217.5</ele>
        <time>2019-06-30T06:40:27.000Z</time>
      </trkpt>
      <trkpt lat="43.19552" lon="2.39261">
        <ele>217.2</ele>
        <time>2019-06-30T06:40:28.000Z</time>
      </trkpt>
      <trkpt lat="43.1955" lon="2.39259">
        <ele>217</ele>
        <time>2019-06-30T06:40:29.000Z</time>
      </trkpt>
      <trkpt lat="43.19548" lon="2.39256">
        <ele>216.8</ele>
        <time>2019-06-30T06:40:30.000Z</time>
      </trkpt>
      <trkpt lat="43.19546" lon="2.39254">
        <ele>216.6</ele>
        <time>2019-06-30T06:40:31.000Z</time>
      </trkpt>
      <trkpt lat="43.19544" lon="2.39251">
        <ele>216.5</ele>
        <time>2019-06-30T06:40:32.000Z</time>
      </trkpt>
      <trkpt lat="43.19543" lon="2.39248">
        <ele>216.4</ele>
        <time>2019-06-30T06:40:33.000Z</time>
      </trkpt>
      <trkpt lat="43.19542" lon="2.39246">
        <ele>216.4</ele>
        <time>2019-06-30T06:40:34.000Z</time>
      </trkpt>
      <trkpt lat="43.19541" lon="2.39243">
        <ele>216.4</ele>
        <time>2019-06-30T06:40:35.000Z</time>
      </trkpt>
      <trkpt lat="43.1954" lon="2.3924">
        <ele>216.5</ele>
        <time>2019-06-30T06:40:36.000Z</time>
      </trkpt>
      <trkpt lat="43.1954" lon="2.39238">
        <ele>216.5</ele>
        <time>2019-06-30T06:40:37.000Z</time>
      </trkpt>
      <trkpt lat="43.19539" lon="2.39235">
        <ele>216.7</ele>
        <time>2019-06-30T06:40:38.000Z</time>
      </trkpt>
      <trkpt lat="43.19539" lon="2.39233">
        <ele>216.8</ele>
        <time>2019-06-30T06:40:39.000Z</time>
      </trkpt>
      <trkpt lat="43.19539" lon="2.3923">
        <ele>217</ele>
        <time>2019-06-30T06:40:40.000Z</time>
      </trkpt>
      <trkpt lat="43.19539" lon="2.39228">
        <ele>217.1</ele>
        <time>2019-06-30T06:40:41.000Z</time>
      </trkpt>
      <trkpt lat="43.19539" lon="2.39226">
        <ele>217.3</ele>
        <time>2019-06-30T06:40:42.000Z</time>
      </trkpt>
      <trkpt lat="43.19539" lon="2.39224">
        <ele>217.5</ele>
        <time>2019-06-30T06:40:43.000Z</time>
      </trkpt>
      <trkpt lat="43.19539" lon="2.39222">
        <ele>217.7</ele>
        <time>2019-06-30T06:40:44.000Z</time>
      </trkpt>
      <trkpt lat="43.19539" lon="2.39219">
        <ele>217.8</ele>
        <time>2019-06-30T06:40:45.000Z</time>
      </trkpt>
      <trkpt lat="43.19539" lon="2.39217">
        <ele>218</ele>
        <time>2019-06-30T06:40:46.000Z</time>
      </trkpt>
      <trkpt lat="43.19539" lon="2.39214">
        <ele>218.2</ele>
        <time>2019-06-30T06:40:47.000Z</time>
      </trkpt>
      <trkpt lat="43.19539" lon="2.39212">
        <ele>218.4</ele>
        <time>2019-06-30T06:40:48.000Z</time>
      </trkpt>
      <trkpt lat="43.19539" lon="2.39209">
        <ele>218.6</ele>
        <time>2019-06-30T06:40:49.000Z</time>
      </trkpt>
      <trkpt lat="43.19538" lon="2.39206">
        <ele>218.9</ele>
        <time>2019-06-30T06:40:50.000Z</time>
      </trkpt>
      <trkpt lat="43.19538" lon="2.39203">
        <ele>219.1</ele>
        <time>2019-06-30T06:40:51.000Z</time>
      </trkpt>
      <trkpt lat="43.19538" lon="2.39199">
        <ele>219.3</ele>
        <time>2019-06-30T06:40:52.000Z</time>
      </trkpt>
      <trkpt lat="43.19538" lon="2.39196">
        <ele>219.5</ele>
        <time>2019-06-30T06:40:53.000Z</time>
      </trkpt>
      <trkpt lat="43.19538" lon="2.39193">
        <ele>219.7</ele>
        <time>2019-06-30T06:40:54.000Z</time>
      </trkpt>
      <trkpt lat="43.19537" lon="2.3919">
        <ele>219.9</ele>
        <time>2019-06-30T06:40:55.000Z</time>
      </trkpt>
      <trkpt lat="43.19537" lon="2.39186">
        <ele>220.1</ele>
        <time>2019-06-30T06:40:56.000Z</time>
      </trkpt>
      <trkpt lat="43.19537" lon="2.39183">
        <ele>220.3</ele>
        <time>2019-06-30T06:40:57.000Z</time>
      </trkpt>
      <trkpt lat="43.19537" lon="2.39179">
        <ele>220.5</ele>
        <time>2019-06-30T06:40:58.000Z</time>
      </trkpt>
      <trkpt lat="43.19536" lon="2.39176">
        <ele>220.6</ele>
        <time>2019-06-30T06:40:59.000Z</time>
      </trkpt>
      <trkpt lat="43.19536" lon="2.39173">
        <ele>220.8</ele>
        <time>2019-06-30T06:41:00.000Z</time>
      </trkpt>
      <trkpt lat="43.19535" lon="2.3917">
        <ele>220.9</ele>
        <time>2019-06-30T06:41:01.000Z</time>
      </trkpt>
      <trkpt lat="43.19535" lon="2.39166">
        <ele>221.1</ele>
        <time>2019-06-30T06:41:02.000Z</time>
      </trkpt>
      <trkpt lat="43.19534" lon="2.39163">
        <ele>221.2</ele>
        <time>2019-06-30T06:41:03.000Z</time>
      </trkpt>
      <trkpt lat="43.19534" lon="2.3916">
        <ele>221.2</ele>
        <time>2019-06-30T06:41:04.000Z</time>
      </trkpt>
      <trkpt lat="43.19533" lon="2.39157">
        <ele>221.3</ele>
        <time>2019-06-30T06:41:05.000Z</time>
      </trkpt>
      <trkpt lat="43.19533" lon="2.39154">
        <ele>221.3</ele>
        <time>2019-06-30T06:41:06.000Z</time>
      </trkpt>
      <trkpt lat="43.19532" lon="2.39151">
        <ele>221.4</ele>
        <time>2019-06-30T06:41:07.000Z</time>
      </trkpt>
      <trkpt lat="43.19532" lon="2.39148">
        <ele>221.5</ele>
        <time>2019-06-30T06:41:08.000Z</time>
      </trkpt>
      <trkpt lat="43.19531" lon="2.39145">
        <ele>221.5</ele>
        <time>2019-06-30T06:41:09.000Z</time>
      </trkpt>
      <trkpt lat="43.19531" lon="2.39142">
        <ele>221.6</ele>
        <time>2019-06-30T06:41:10.000Z</time>
      </trkpt>
      <trkpt lat="43.19531" lon="2.39139">
        <ele>221.7</ele>
        <time>2019-06-30T06:41:11.000Z</time>
      </trkpt>
      <trkpt lat="43.1953" lon="2.39135">
        <ele>221.8</ele>
        <time>2019-06-30T06:41:12.000Z</time>
      </trkpt>
      <trkpt lat="43.1953" lon="2.39132">
        <ele>221.8</ele>
        <time>2019-06-30T06:41:13.000Z</time>
      </trkpt>
      <trkpt lat="43.19529" lon="2.39129">
        <ele>222</ele>
        <time>2019-06-30T06:41:14.000Z</time>
      </trkpt>
      <trkpt lat="43.19529" lon="2.39126">
        <ele>222.1</ele>
        <time>2019-06-30T06:41:15.000Z</time>
      </trkpt>
      <trkpt lat="43.19529" lon="2.39123">
        <ele>222.2</ele>
        <time>2019-06-30T06:41:16.000Z</time>
      </trkpt>
      <trkpt lat="43.19528" lon="2.3912">
        <ele>222.3</ele>
        <time>2019-06-30T06:41:17.000Z</time>
      </trkpt>
      <trkpt lat="43.19528" lon="2.39117">
        <ele>222.4</ele>
        <time>2019-06-30T06:41:18.000Z</time>
      </trkpt>
      <trkpt lat="43.19528" lon="2.39114">
        <ele>222.6</ele>
        <time>2019-06-30T06:41:19.000Z</time>
      </trkpt>
      <trkpt lat="43.19528" lon="2.39111">
        <ele>222.7</ele>
        <time>2019-06-30T06:41:20.000Z</time>
      </trkpt>
      <trkpt lat="43.19527" lon="2.39108">
        <ele>222.9</ele>
        <time>2019-06-30T06:41:21.000Z</time>
      </trkpt>
      <trkpt lat="43.19527" lon="2.39106">
        <ele>223</ele>
        <time>2019-06-30T06:41:22.000Z</time>
      </trkpt>
      <trkpt lat="43.19527" lon="2.39103">
        <ele>223.1</ele>
        <time>2019-06-30T06:41:23.000Z</time>
      </trkpt>
      <trkpt lat="43.19527" lon="2.391">
        <ele>223.2</ele>
        <time>2019-06-30T06:41:24.000Z</time>
      </trkpt>
      <trkpt lat="43.19526" lon="2.39097">
        <ele>223.3</ele>
        <time>2019-06-30T06:41:25.000Z</time>
      </trkpt>
      <trkpt lat="43.19526" lon="2.39094">
        <ele>223.4</ele>
        <time>2019-06-30T06:41:26.000Z</time>
      </trkpt>
      <trkpt lat="43.19526" lon="2.39092">
        <ele>223.5</ele>
        <time>2019-06-30T06:41:27.000Z</time>
      </trkpt>
      <trkpt lat="43.19525" lon="2.39089">
        <ele>223.6</ele>
        <time>2019-06-30T06:41:28.000Z</time>
      </trkpt>
      <trkpt lat="43.19525" lon="2.39087">
        <ele>223.6</ele>
        <time>2019-06-30T06:41:29.000Z</time>
      </trkpt>
      <trkpt lat="43.19524" lon="2.39084">
        <ele>223.6</ele>
        <time>2019-06-30T06:41:30.000Z</time>
      </trkpt>
      <trkpt lat="43.19524" lon="2.39082">
        <ele>223.6</ele>
        <time>2019-06-30T06:41:31.000Z</time>
      </trkpt>
      <trkpt lat="43.19523" lon="2.3908">
        <ele>223.6</ele>
        <time>2019-06-30T06:41:32.000Z</time>
      </trkpt>
      <trkpt lat="43.19522" lon="2.39077">
        <ele>223.6</ele>
        <time>2019-06-30T06:41:33.000Z</time>
      </trkpt>
      <trkpt lat="43.19521" lon="2.39075">
        <ele>223.6</ele>
        <time>2019-06-30T06:41:34.000Z</time>
      </trkpt>
      <trkpt lat="43.19521" lon="2.39073">
        <ele>223.5</ele>
        <time>2019-06-30T06:41:35.000Z</time>
      </trkpt>
      <trkpt lat="43.1952" lon="2.39071">
        <ele>223.5</ele>
        <time>2019-06-30T06:41:36.000Z</time>
      </trkpt>
      <trkpt lat="43.19519" lon="2.39069">
        <ele>223.5</ele>
        <time>2019-06-30T06:41:37.000Z</time>
      </trkpt>
      <trkpt lat="43.19519" lon="2.39067">
        <ele>223.5</ele>
        <time>2019-06-30T06:41:38.000Z</time>
      </trkpt>
      <trkpt lat="43.19518" lon="2.39065">
        <ele>223.5</ele>
        <time>2019-06-30T06:41:39.000Z</time>
      </trkpt>
      <trkpt lat="43.19517" lon="2.39062">
        <ele>223.6</ele>
        <time>2019-06-30T06:41:40.000Z</time>
      </trkpt>
      <trkpt lat="43.19517" lon="2.3906">
        <ele>223.6</ele>
        <time>2019-06-30T06:41:41.000Z</time>
      </trkpt>
      <trkpt lat="43.19516" lon="2.39058">
        <ele>223.7</ele>
        <time>2019-06-30T06:41:42.000Z</time>
      </trkpt>
      <trkpt lat="43.19516" lon="2.39055">
        <ele>223.8</ele>
        <time>2019-06-30T06:41:43.000Z</time>
      </trkpt>
      <trkpt lat="43.19516" lon="2.39052">
        <ele>224</ele>
        <time>2019-06-30T06:41:44.000Z</time>
      </trkpt>
      <trkpt lat="43.19516" lon="2.3905">
        <ele>224.1</ele>
        <time>2019-06-30T06:41:45.000Z</time>
      </trkpt>
      <trkpt lat="43.19515" lon="2.39047">
        <ele>224.3</ele>
        <time>2019-06-30T06:41:46.000Z</time>
      </trkpt>
      <trkpt lat="43.19515" lon="2.39044">
        <ele>224.5</ele>
        <time>2019-06-30T06:41:47.000Z</time>
      </trkpt>
      <trkpt lat="43.19515" lon="2.39041">
        <ele>224.8</ele>
        <time>2019-06-30T06:41:48.000Z</time>
      </trkpt>
      <trkpt lat="43.19515" lon="2.39038">
        <ele>225</ele>
        <time>2019-06-30T06:41:49.000Z</time>
      </trkpt>
      <trkpt lat="43.19515" lon="2.39035">
        <ele>225.2</ele>
        <time>2019-06-30T06:41:50.000Z</time>
      </trkpt>
      <trkpt lat="43.19515" lon="2.39032">
        <ele>225.5</ele>
        <time>2019-06-30T06:41:51.000Z</time>
      </trkpt>
      <trkpt lat="43.19515" lon="2.39029">
        <ele>225.7</ele>
        <time>2019-06-30T06:41:52.000Z</time>
      </trkpt>
      <trkpt lat="43.19514" lon="2.39026">
        <ele>225.9</ele>
        <time>2019-06-30T06:41:53.000Z</time>
      </trkpt>
      <trkpt lat="43.19514" lon="2.39023">
        <ele>226.1</ele>
        <time>2019-06-30T06:41:54.000Z</time>
      </trkpt>
      <trkpt lat="43.19514" lon="2.3902">
        <ele>226.3</ele>
        <time>2019-06-30T06:41:55.000Z</time>
      </trkpt>
      <trkpt lat="43.19514" lon="2.39017">
        <ele>226.5</ele>
        <time>2019-06-30T06:41:56.000Z</time>
      </trkpt>
      <trkpt lat="43.19513" lon="2.39014">
        <ele>226.6</ele>
        <time>2019-06-30T06:41:57.000Z</time>
      </trkpt>
      <trkpt lat="43.19513" lon="2.39012">
        <ele>226.7</ele>
        <time>2019-06-30T06:41:58.000Z</time>
      </trkpt>
      <trkpt lat="43.19512" lon="2.39009">
        <ele>226.8</ele>
        <time>2019-06-30T06:41:59.000Z</time>
      </trkpt>
      <trkpt lat="43.19512" lon="2.39007">
        <ele>226.9</ele>
        <time>2019-06-30T06:42:00.000Z</time>
      </trkpt>
      <trkpt lat="43.19511" lon="2.39004">
        <ele>227</ele>
        <time>2019-06-30T06:42:01.000Z</time>
      </trkpt>
      <trkpt lat="43.19511" lon="2.39002">
        <ele>227.1</ele>
        <time>2019-06-30T06:42:02.000Z</time>
      </trkpt>
      <trkpt lat="43.1951" lon="2.38999">
        <ele>227.2</ele>
        <time>2019-06-30T06:42:03.000Z</time>
      </trkpt>
      <trkpt lat="43.19509" lon="2.38997">
        <ele>227.2</ele>
        <time>2019-06-30T06:42:04.000Z</time>
      </trkpt>
      <trkpt lat="43.19509" lon="2.38995">
        <ele>227.2</ele>
        <time>2019-06-30T06:42:05.000Z</time>
      </trkpt>
      <trkpt lat="43.19508" lon="2.38992">
        <ele>227.2</ele>
        <time>2019-06-30T06:42:06.000Z</time>
      </trkpt>
      <trkpt lat="43.19506" lon="2.3899">
        <ele>227.2</ele>
        <time>2019-06-30T06:42:07.000Z</time>
      </trkpt>
      <trkpt lat="43.19505" lon="2.38988">
        <ele>227.1</ele>
        <time>2019-06-30T06:42:08.000Z</time>
      </trkpt>
      <trkpt lat="43.19504" lon="2.38986">
        <ele>226.9</ele>
        <time>2019-06-30T06:42:09.000Z</time>
      </trkpt>
      <trkpt lat="43.19502" lon="2.38984">
        <ele>226.8</ele>
        <time>2019-06-30T06:42:10.000Z</time>
      </trkpt>
      <trkpt lat="43.19501" lon="2.38982">
        <ele>226.6</ele>
        <time>2019-06-30T06:42:11.000Z</time>
      </trkpt>
      <trkpt lat="43.19499" lon="2.38981">
        <ele>226.7</ele>
        <time>2019-06-30T06:42:12.000Z</time>
      </trkpt>
      <trkpt lat="43.19497" lon="2.3898">
        <ele>226.8</ele>
        <time>2019-06-30T06:42:13.000Z</time>
      </trkpt>
      <trkpt lat="43.19496" lon="2.38979">
        <ele>227</ele>
        <time>2019-06-30T06:42:14.000Z</time>
      </trkpt>
      <trkpt lat="43.19494" lon="2.38979">
        <ele>227.1</ele>
        <time>2019-06-30T06:42:15.000Z</time>
      </trkpt>
      <trkpt lat="43.19493" lon="2.38979">
        <ele>227.2</ele>
        <time>2019-06-30T06:42:16.000Z</time>
      </trkpt>
      <trkpt lat="43.19491" lon="2.38979">
        <ele>227.3</ele>
        <time>2019-06-30T06:42:17.000Z</time>
      </trkpt>
      <trkpt lat="43.19489" lon="2.38979">
        <ele>227.4</ele>
        <time>2019-06-30T06:42:18.000Z</time>
      </trkpt>
      <trkpt lat="43.19488" lon="2.38979">
        <ele>227.5</ele>
        <time>2019-06-30T06:42:19.000Z</time>
      </trkpt>
      <trkpt lat="43.19486" lon="2.38979">
        <ele>227.5</ele>
        <time>2019-06-30T06:42:20.000Z</time>
      </trkpt>
      <trkpt lat="43.19484" lon="2.38979">
        <ele>227.6</ele>
        <time>2019-06-30T06:42:21.000Z</time>
      </trkpt>
      <trkpt lat="43.19483" lon="2.38979">
        <ele>227.7</ele>
        <time>2019-06-30T06:42:22.000Z</time>
      </trkpt>
      <trkpt lat="43.19481" lon="2.38979">
        <ele>227.8</ele>
        <time>2019-06-30T06:42:23.000Z</time>
      </trkpt>
      <trkpt lat="43.19479" lon="2.38979">
        <ele>227.9</ele>
        <time>2019-06-30T06:42:24.000Z</time>
      </trkpt>
      <trkpt lat="43.19477" lon="2.38979">
        <ele>228.1</ele>
        <time>2019-06-30T06:42:25.000Z</time>
      </trkpt>
      <trkpt lat="43.19475" lon="2.38979">
        <ele>228.2</ele>
        <time>2019-06-30T06:42:26.000Z</time>
      </trkpt>
      <trkpt lat="43.19473" lon="2.38979">
        <ele>228.3</ele>
        <time>2019-06-30T06:42:27.000Z</time>
      </trkpt>
      <trkpt lat="43.1947" lon="2.38979">
        <ele>228.5</ele>
        <time>2019-06-30T06:42:28.000Z</time>
      </trkpt>
      <trkpt lat="43.19468" lon="2.38979">
        <ele>228.6</ele>
        <time>2019-06-30T06:42:29.000Z</time>
      </trkpt>
      <trkpt lat="43.19466" lon="2.38979">
        <ele>228.7</ele>
        <time>2019-06-30T06:42:30.000Z</time>
      </trkpt>
      <trkpt lat="43.19463" lon="2.38979">
        <ele>228.9</ele>
        <time>2019-06-30T06:42:31.000Z</time>
      </trkpt>
      <trkpt lat="43.19461" lon="2.38978">
        <ele>229.1</ele>
        <time>2019-06-30T06:42:32.000Z</time>
      </trkpt>
      <trkpt lat="43.19459" lon="2.38978">
        <ele>229.2</ele>
        <time>2019-06-30T06:42:33.000Z</time>
      </trkpt>
      <trkpt lat="43.19456" lon="2.38977">
        <ele>229.4</ele>
        <time>2019-06-30T06:42:34.000Z</time>
      </trkpt>
      <trkpt lat="43.19454" lon="2.38977">
        <ele>229.6</ele>
        <time>2019-06-30T06:42:35.000Z</time>
      </trkpt>
      <trkpt lat="43.19452" lon="2.38976">
        <ele>229.8</ele>
        <time>2019-06-30T06:42:36.000Z</time>
      </trkpt>
      <trkpt lat="43.1945" lon="2.38975">
        <ele>230.1</ele>
        <time>2019-06-30T06:42:37.000Z</time>
      </trkpt>
      <trkpt lat="43.19447" lon="2.38974">
        <ele>230.3</ele>
        <time>2019-06-30T06:42:38.000Z</time>
      </trkpt>
      <trkpt lat="43.19445" lon="2.38974">
        <ele>230.5</ele>
        <time>2019-06-30T06:42:39.000Z</time>
      </trkpt>
      <trkpt lat="43.19443" lon="2.38973">
        <ele>230.7</ele>
        <time>2019-06-30T06:42:40.000Z</time>
      </trkpt>
      <trkpt lat="43.19441" lon="2.38973">
        <ele>230.8</ele>
        <time>2019-06-30T06:42:41.000Z</time>
      </trkpt>
      <trkpt lat="43.19438" lon="2.38973">
        <ele>231</ele>
        <time>2019-06-30T06:42:42.000Z</time>
      </trkpt>
      <trkpt lat="43.19436" lon="2.38973">
        <ele>231.1</ele>
        <time>2019-06-30T06:42:43.000Z</time>
      </trkpt>
      <trkpt lat="43.19434" lon="2.38974">
        <ele>231.1</ele>
        <time>2019-06-30T06:42:44.000Z</time>
      </trkpt>
      <trkpt lat="43.19432" lon="2.38975">
        <ele>231.1</ele>
        <time>2019-06-30T06:42:45.000Z</time>
      </trkpt>
      <trkpt lat="43.1943" lon="2.38976">
        <ele>231.1</ele>
        <time>2019-06-30T06:42:46.000Z</time>
      </trkpt>
      <trkpt lat="43.19429" lon="2.38978">
        <ele>230.9</ele>
        <time>2019-06-30T06:42:47.000Z</time>
      </trkpt>
      <trkpt lat="43.19428" lon="2.38981">
        <ele>230.7</ele>
        <time>2019-06-30T06:42:48.000Z</time>
      </trkpt>
      <trkpt lat="43.19427" lon="2.38983">
        <ele>230.4</ele>
        <time>2019-06-30T06:42:49.000Z</time>
      </trkpt>
      <trkpt lat="43.19426" lon="2.38987">
        <ele>230.1</ele>
        <time>2019-06-30T06:42:50.000Z</time>
      </trkpt>
      <trkpt lat="43.19426" lon="2.3899">
        <ele>229.7</ele>
        <time>2019-06-30T06:42:51.000Z</time>
      </trkpt>
      <trkpt lat="43.19425" lon="2.38994">
        <ele>229.4</ele>
        <time>2019-06-30T06:42:52.000Z</time>
      </trkpt>
      <trkpt lat="43.19424" lon="2.38997">
        <ele>229</ele>
        <time>2019-06-30T06:42:53.000Z</time>
      </trkpt>
      <trkpt lat="43.19424" lon="2.39001">
        <ele>228.6</ele>
        <time>2019-06-30T06:42:54.000Z</time>
      </trkpt>
      <trkpt lat="43.19423" lon="2.39004">
        <ele>228.3</ele>
        <time>2019-06-30T06:42:55.000Z</time>
      </trkpt>
      <trkpt lat="43.19422" lon="2.39008">
        <ele>228</ele>
        <time>2019-06-30T06:42:56.000Z</time>
      </trkpt>
      <trkpt lat="43.19421" lon="2.39011">
        <ele>227.8</ele>
        <time>2019-06-30T06:42:57.000Z</time>
      </trkpt>
      <trkpt lat="43.1942" lon="2.39014">
        <ele>227.5</ele>
        <time>2019-06-30T06:42:58.000Z</time>
      </trkpt>
      <trkpt lat="43.19419" lon="2.39017">
        <ele>227.3</ele>
        <time>2019-06-30T06:42:59.000Z</time>
      </trkpt>
      <trkpt lat="43.19418" lon="2.3902">
        <ele>227</ele>
        <time>2019-06-30T06:43:00.000Z</time>
      </trkpt>
      <trkpt lat="43.19417" lon="2.39023">
        <ele>226.7</ele>
        <time>2019-06-30T06:43:01.000Z</time>
      </trkpt>
      <trkpt lat="43.19416" lon="2.39027">
        <ele>226.6</ele>
        <time>2019-06-30T06:43:02.000Z</time>
      </trkpt>
      <trkpt lat="43.19415" lon="2.3903">
        <ele>226.5</ele>
        <time>2019-06-30T06:43:03.000Z</time>
      </trkpt>
      <trkpt lat="43.19414" lon="2.39033">
        <ele>226.4</ele>
        <time>2019-06-30T06:43:04.000Z</time>
      </trkpt>
      <trkpt lat="43.19413" lon="2.39037">
        <ele>226.2</ele>
        <time>2019-06-30T06:43:05.000Z</time>
      </trkpt>
      <trkpt lat="43.19412" lon="2.3904">
        <ele>226.1</ele>
        <time>2019-06-30T06:43:06.000Z</time>
      </trkpt>
      <trkpt lat="43.19411" lon="2.39044">
        <ele>225.9</ele>
        <time>2019-06-30T06:43:07.000Z</time>
      </trkpt>
      <trkpt lat="43.1941" lon="2.39048">
        <ele>225.8</ele>
        <time>2019-06-30T06:43:08.000Z</time>
      </trkpt>
      <trkpt lat="43.19409" lon="2.39051">
        <ele>225.6</ele>
        <time>2019-06-30T06:43:09.000Z</time>
      </trkpt>
      <trkpt lat="43.19409" lon="2.39055">
        <ele>225.4</ele>
        <time>2019-06-30T06:43:10.000Z</time>
      </trkpt>
      <trkpt lat="43.19408" lon="2.39059">
        <ele>225.1</ele>
        <time>2019-06-30T06:43:11.000Z</time>
      </trkpt>
      <trkpt lat="43.19408" lon="2.39062">
        <ele>224.9</ele>
        <time>2019-06-30T06:43:12.000Z</time>
      </trkpt>
      <trkpt lat="43.19407" lon="2.39066">
        <ele>224.7</ele>
        <time>2019-06-30T06:43:13.000Z</time>
      </trkpt>
      <trkpt lat="43.19406" lon="2.39069">
        <ele>224.5</ele>
        <time>2019-06-30T06:43:14.000Z</time>
      </trkpt>
      <trkpt lat="43.19406" lon="2.39073">
        <ele>224.3</ele>
        <time>2019-06-30T06:43:15.000Z</time>
      </trkpt>
      <trkpt lat="43.19405" lon="2.39076">
        <ele>224.2</ele>
        <time>2019-06-30T06:43:16.000Z</time>
      </trkpt>
      <trkpt lat="43.19404" lon="2.3908">
        <ele>224</ele>
        <time>2019-06-30T06:43:17.000Z</time>
      </trkpt>
      <trkpt lat="43.19403" lon="2.39083">
        <ele>223.9</ele>
        <time>2019-06-30T06:43:18.000Z</time>
      </trkpt>
      <trkpt lat="43.19402" lon="2.39086">
        <ele>223.7</ele>
        <time>2019-06-30T06:43:19.000Z</time>
      </trkpt>
      <trkpt lat="43.19401" lon="2.3909">
        <ele>223.5</ele>
        <time>2019-06-30T06:43:20.000Z</time>
      </trkpt>
      <trkpt lat="43.194" lon="2.39093">
        <ele>223.3</ele>
        <time>2019-06-30T06:43:21.000Z</time>
      </trkpt>
      <trkpt lat="43.19399" lon="2.39097">
        <ele>223</ele>
        <time>2019-06-30T06:43:22.000Z</time>
      </trkpt>
      <trkpt lat="43.19397" lon="2.391">
        <ele>222.9</ele>
        <time>2019-06-30T06:43:23.000Z</time>
      </trkpt>
      <trkpt lat="43.19396" lon="2.39103">
        <ele>222.8</ele>
        <time>2019-06-30T06:43:24.000Z</time>
      </trkpt>
      <trkpt lat="43.19395" lon="2.39107">
        <ele>222.7</ele>
        <time>2019-06-30T06:43:25.000Z</time>
      </trkpt>
      <trkpt lat="43.19393" lon="2.3911">
        <ele>222.6</ele>
        <time>2019-06-30T06:43:26.000Z</time>
      </trkpt>
      <trkpt lat="43.19391" lon="2.39112">
        <ele>222.6</ele>
        <time>2019-06-30T06:43:27.000Z</time>
      </trkpt>
      <trkpt lat="43.1939" lon="2.39115">
        <ele>222.7</ele>
        <time>2019-06-30T06:43:28.000Z</time>
      </trkpt>
      <trkpt lat="43.19388" lon="2.39118">
        <ele>222.7</ele>
        <time>2019-06-30T06:43:29.000Z</time>
      </trkpt>
      <trkpt lat="43.19386" lon="2.3912">
        <ele>222.8</ele>
        <time>2019-06-30T06:43:30.000Z</time>
      </trkpt>
      <trkpt lat="43.19384" lon="2.39123">
        <ele>222.9</ele>
        <time>2019-06-30T06:43:31.000Z</time>
      </trkpt>
      <trkpt lat="43.19382" lon="2.39125">
        <ele>223</ele>
        <time>2019-06-30T06:43:32.000Z</time>
      </trkpt>
      <trkpt lat="43.19381" lon="2.39128">
        <ele>223</ele>
        <time>2019-06-30T06:43:33.000Z</time>
      </trkpt>
      <trkpt lat="43.19379" lon="2.39131">
        <ele>223.1</ele>
        <time>2019-06-30T06:43:34.000Z</time>
      </trkpt>
      <trkpt lat="43.19377" lon="2.39133">
        <ele>223.2</ele>
        <time>2019-06-30T06:43:35.000Z</time>
      </trkpt>
      <trkpt lat="43.19376" lon="2.39136">
        <ele>223.3</ele>
        <time>2019-06-30T06:43:36.000Z</time>
      </trkpt>
      <trkpt lat="43.19374" lon="2.39139">
        <ele>223.3</ele>
        <time>2019-06-30T06:43:37.000Z</time>
      </trkpt>
      <trkpt lat="43.19372" lon="2.39141">
        <ele>223.4</ele>
        <time>2019-06-30T06:43:38.000Z</time>
      </trkpt>
      <trkpt lat="43.19371" lon="2.39144">
        <ele>223.4</ele>
        <time>2019-06-30T06:43:39.000Z</time>
      </trkpt>
      <trkpt lat="43.19369" lon="2.39147">
        <ele>223.4</ele>
        <time>2019-06-30T06:43:40.000Z</time>
      </trkpt>
      <trkpt lat="43.19368" lon="2.3915">
        <ele>223.4</ele>
        <time>2019-06-30T06:43:41.000Z</time>
      </trkpt>
      <trkpt lat="43.19366" lon="2.39153">
        <ele>223.4</ele>
        <time>2019-06-30T06:43:42.000Z</time>
      </trkpt>
      <trkpt lat="43.19365" lon="2.39156">
        <ele>223.4</ele>
        <time>2019-06-30T06:43:43.000Z</time>
      </trkpt>
      <trkpt lat="43.19363" lon="2.39159">
        <ele>223.4</ele>
        <time>2019-06-30T06:43:44.000Z</time>
      </trkpt>
      <trkpt lat="43.19362" lon="2.39162">
        <ele>223.4</ele>
        <time>2019-06-30T06:43:45.000Z</time>
      </trkpt>
      <trkpt lat="43.1936" lon="2.39165">
        <ele>223.5</ele>
        <time>2019-06-30T06:43:46.000Z</time>
      </trkpt>
      <trkpt lat="43.19358" lon="2.39168">
        <ele>223.6</ele>
        <time>2019-06-30T06:43:47.000Z</time>
      </trkpt>
      <trkpt lat="43.19357" lon="2.3917">
        <ele>223.5</ele>
        <time>2019-06-30T06:43:48.000Z</time>
      </trkpt>
      <trkpt lat="43.19355" lon="2.39173">
        <ele>223.5</ele>
        <time>2019-06-30T06:43:49.000Z</time>
      </trkpt>
      <trkpt lat="43.19353" lon="2.39176">
        <ele>223.5</ele>
        <time>2019-06-30T06:43:50.000Z</time>
      </trkpt>
      <trkpt lat="43.19352" lon="2.39179">
        <ele>223.4</ele>
        <time>2019-06-30T06:43:51.000Z</time>
      </trkpt>
      <trkpt lat="43.1935" lon="2.39181">
        <ele>223.4</ele>
        <time>2019-06-30T06:43:52.000Z</time>
      </trkpt>
      <trkpt lat="43.19349" lon="2.39184">
        <ele>223.3</ele>
        <time>2019-06-30T06:43:53.000Z</time>
      </trkpt>
      <trkpt lat="43.19347" lon="2.39187">
        <ele>223.2</ele>
        <time>2019-06-30T06:43:54.000Z</time>
      </trkpt>
      <trkpt lat="43.19345" lon="2.3919">
        <ele>223.1</ele>
        <time>2019-06-30T06:43:55.000Z</time>
      </trkpt>
      <trkpt lat="43.19344" lon="2.39193">
        <ele>223</ele>
        <time>2019-06-30T06:43:56.000Z</time>
      </trkpt>
      <trkpt lat="43.19342" lon="2.39196">
        <ele>222.9</ele>
        <time>2019-06-30T06:43:57.000Z</time>
      </trkpt>
      <trkpt lat="43.1934" lon="2.39199">
        <ele>222.8</ele>
        <time>2019-06-30T06:43:58.000Z</time>
      </trkpt>
      <trkpt lat="43.19339" lon="2.39201">
        <ele>222.6</ele>
        <time>2019-06-30T06:43:59.000Z</time>
      </trkpt>
      <trkpt lat="43.19337" lon="2.39204">
        <ele>222.5</ele>
        <time>2019-06-30T06:44:00.000Z</time>
      </trkpt>
      <trkpt lat="43.19335" lon="2.39207">
        <ele>222.3</ele>
        <time>2019-06-30T06:44:01.000Z</time>
      </trkpt>
      <trkpt lat="43.19334" lon="2.3921">
        <ele>222.1</ele>
        <time>2019-06-30T06:44:02.000Z</time>
      </trkpt>
      <trkpt lat="43.19332" lon="2.39213">
        <ele>221.8</ele>
        <time>2019-06-30T06:44:03.000Z</time>
      </trkpt>
      <trkpt lat="43.19331" lon="2.39216">
        <ele>221.4</ele>
        <time>2019-06-30T06:44:04.000Z</time>
      </trkpt>
      <trkpt lat="43.19329" lon="2.39219">
        <ele>221.1</ele>
        <time>2019-06-30T06:44:05.000Z</time>
      </trkpt>
      <trkpt lat="43.19328" lon="2.39221">
        <ele>220.7</ele>
        <time>2019-06-30T06:44:06.000Z</time>
      </trkpt>
      <trkpt lat="43.19326" lon="2.39224">
        <ele>220.4</ele>
        <time>2019-06-30T06:44:07.000Z</time>
      </trkpt>
      <trkpt lat="43.19325" lon="2.39227">
        <ele>220.1</ele>
        <time>2019-06-30T06:44:08.000Z</time>
      </trkpt>
      <trkpt lat="43.19323" lon="2.3923">
        <ele>219.7</ele>
        <time>2019-06-30T06:44:09.000Z</time>
      </trkpt>
      <trkpt lat="43.19322" lon="2.39232">
        <ele>219.4</ele>
        <time>2019-06-30T06:44:10.000Z</time>
      </trkpt>
      <trkpt lat="43.1932" lon="2.39235">
        <ele>219.1</ele>
        <time>2019-06-30T06:44:11.000Z</time>
      </trkpt>
      <trkpt lat="43.19318" lon="2.39237">
        <ele>218.8</ele>
        <time>2019-06-30T06:44:12.000Z</time>
      </trkpt>
      <trkpt lat="43.19317" lon="2.3924">
        <ele>218.6</ele>
        <time>2019-06-30T06:44:13.000Z</time>
      </trkpt>
      <trkpt lat="43.19315" lon="2.39242">
        <ele>218.3</ele>
        <time>2019-06-30T06:44:14.000Z</time>
      </trkpt>
      <trkpt lat="43.19314" lon="2.39245">
        <ele>218.1</ele>
        <time>2019-06-30T06:44:15.000Z</time>
      </trkpt>
      <trkpt lat="43.19312" lon="2.39247">
        <ele>217.8</ele>
        <time>2019-06-30T06:44:16.000Z</time>
      </trkpt>
      <trkpt lat="43.19311" lon="2.39249">
        <ele>217.6</ele>
        <time>2019-06-30T06:44:17.000Z</time>
      </trkpt>
      <trkpt lat="43.19309" lon="2.39251">
        <ele>217.4</ele>
        <time>2019-06-30T06:44:18.000Z</time>
      </trkpt>
      <trkpt lat="43.19308" lon="2.39253">
        <ele>217.3</ele>
        <time>2019-06-30T06:44:19.000Z</time>
      </trkpt>
      <trkpt lat="43.19306" lon="2.39255">
        <ele>217.2</ele>
        <time>2019-06-30T06:44:20.000Z</time>
      </trkpt>
      <trkpt lat="43.19304" lon="2.39257">
        <ele>217</ele>
        <time>2019-06-30T06:44:21.000Z</time>
      </trkpt>
      <trkpt lat="43.19303" lon="2.39259">
        <ele>217</ele>
        <time>2019-06-30T06:44:22.000Z</time>
      </trkpt>
      <trkpt lat="43.19301" lon="2.39261">
        <ele>216.9</ele>
        <time>2019-06-30T06:44:23.000Z</time>
      </trkpt>
      <trkpt lat="43.19299" lon="2.39263">
        <ele>216.8</ele>
        <time>2019-06-30T06:44:24.000Z</time>
      </trkpt>
      <trkpt lat="43.19298" lon="2.39264">
        <ele>216.7</ele>
        <time>2019-06-30T06:44:25.000Z</time>
      </trkpt>
      <trkpt lat="43.19296" lon="2.39266">
        <ele>216.7</ele>
        <time>2019-06-30T06:44:26.000Z</time>
      </trkpt>
      <trkpt lat="43.19294" lon="2.39267">
        <ele>216.7</ele>
        <time>2019-06-30T06:44:27.000Z</time>
      </trkpt>
      <trkpt lat="43.19292" lon="2.39269">
        <ele>216.6</ele>
        <time>2019-06-30T06:44:28.000Z</time>
      </trkpt>
      <trkpt lat="43.19291" lon="2.3927">
        <ele>216.6</ele>
        <time>2019-06-30T06:44:29.000Z</time>
      </trkpt>
      <trkpt lat="43.19289" lon="2.39272">
        <ele>216.6</ele>
        <time>2019-06-30T06:44:30.000Z</time>
      </trkpt>
      <trkpt lat="43.19287" lon="2.39273">
        <ele>216.6</ele>
        <time>2019-06-30T06:44:31.000Z</time>
      </trkpt>
      <trkpt lat="43.19285" lon="2.39274">
        <ele>216.6</ele>
        <time>2019-06-30T06:44:32.000Z</time>
      </trkpt>
      <trkpt lat="43.19283" lon="2.39276">
        <ele>216.5</ele>
        <time>2019-06-30T06:44:33.000Z</time>
      </trkpt>
      <trkpt lat="43.19281" lon="2.39277">
        <ele>216.5</ele>
        <time>2019-06-30T06:44:34.000Z</time>
      </trkpt>
      <trkpt lat="43.19279" lon="2.39278">
        <ele>216.6</ele>
        <time>2019-06-30T06:44:35.000Z</time>
      </trkpt>
      <trkpt lat="43.19277" lon="2.39279">
        <ele>216.6</ele>
        <time>2019-06-30T06:44:36.000Z</time>
      </trkpt>
      <trkpt lat="43.19275" lon="2.3928">
        <ele>216.7</ele>
        <time>2019-06-30T06:44:37.000Z</time>
      </trkpt>
      <trkpt lat="43.19273" lon="2.39281">
        <ele>216.8</ele>
        <time>2019-06-30T06:44:38.000Z</time>
      </trkpt>
      <trkpt lat="43.19271" lon="2.39281">
        <ele>217.1</ele>
        <time>2019-06-30T06:44:39.000Z</time>
      </trkpt>
      <trkpt lat="43.19268" lon="2.39281">
        <ele>217.3</ele>
        <time>2019-06-30T06:44:40.000Z</time>
      </trkpt>
      <trkpt lat="43.19266" lon="2.3928">
        <ele>217.7</ele>
        <time>2019-06-30T06:44:41.000Z</time>
      </trkpt>
      <trkpt lat="43.19263" lon="2.39279">
        <ele>218.2</ele>
        <time>2019-06-30T06:44:42.000Z</time>
      </trkpt>
      <trkpt lat="43.1926" lon="2.39277">
        <ele>218.7</ele>
        <time>2019-06-30T06:44:43.000Z</time>
      </trkpt>
      <trkpt lat="43.19258" lon="2.39275">
        <ele>219.2</ele>
        <time>2019-06-30T06:44:44.000Z</time>
      </trkpt>
      <trkpt lat="43.19257" lon="2.39273">
        <ele>219.8</ele>
        <time>2019-06-30T06:44:45.000Z</time>
      </trkpt>
      <trkpt lat="43.19255" lon="2.3927">
        <ele>220.3</ele>
        <time>2019-06-30T06:44:46.000Z</time>
      </trkpt>
      <trkpt lat="43.19254" lon="2.39267">
        <ele>220.8</ele>
        <time>2019-06-30T06:44:47.000Z</time>
      </trkpt>
      <trkpt lat="43.19254" lon="2.39265">
        <ele>221.3</ele>
        <time>2019-06-30T06:44:48.000Z</time>
      </trkpt>
      <trkpt lat="43.19253" lon="2.39262">
        <ele>221.8</ele>
        <time>2019-06-30T06:44:49.000Z</time>
      </trkpt>
      <trkpt lat="43.19252" lon="2.39259">
        <ele>222.4</ele>
        <time>2019-06-30T06:44:50.000Z</time>
      </trkpt>
      <trkpt lat="43.19251" lon="2.39257">
        <ele>222.8</ele>
        <time>2019-06-30T06:44:51.000Z</time>
      </trkpt>
      <trkpt lat="43.19251" lon="2.39254">
        <ele>223.3</ele>
        <time>2019-06-30T06:44:52.000Z</time>
      </trkpt>
      <trkpt lat="43.1925" lon="2.39251">
        <ele>223.8</ele>
        <time>2019-06-30T06:44:53.000Z</time>
      </trkpt>
      <trkpt lat="43.19249" lon="2.39249">
        <ele>224.1</ele>
        <time>2019-06-30T06:44:54.000Z</time>
      </trkpt>
      <trkpt lat="43.19248" lon="2.39246">
        <ele>224.5</ele>
        <time>2019-06-30T06:44:55.000Z</time>
      </trkpt>
      <trkpt lat="43.19247" lon="2.39244">
        <ele>224.9</ele>
        <time>2019-06-30T06:44:56.000Z</time>
      </trkpt>
      <trkpt lat="43.19246" lon="2.39242">
        <ele>225.2</ele>
        <time>2019-06-30T06:44:57.000Z</time>
      </trkpt>
      <trkpt lat="43.19245" lon="2.39239">
        <ele>225.5</ele>
        <time>2019-06-30T06:44:58.000Z</time>
      </trkpt>
      <trkpt lat="43.19244" lon="2.39237">
        <ele>225.8</ele>
        <time>2019-06-30T06:44:59.000Z</time>
      </trkpt>
      <trkpt lat="43.19242" lon="2.39235">
        <ele>226.1</ele>
        <time>2019-06-30T06:45:00.000Z</time>
      </trkpt>
      <trkpt lat="43.19241" lon="2.39233">
        <ele>226.3</ele>
        <time>2019-06-30T06:45:01.000Z</time>
      </trkpt>
      <trkpt lat="43.19239" lon="2.39231">
        <ele>226.6</ele>
        <time>2019-06-30T06:45:02.000Z</time>
      </trkpt>
      <trkpt lat="43.19237" lon="2.3923">
        <ele>226.8</ele>
        <time>2019-06-30T06:45:03.000Z</time>
      </trkpt>
      <trkpt lat="43.19235" lon="2.39228">
        <ele>226.9</ele>
        <time>2019-06-30T06:45:04.000Z</time>
      </trkpt>
      <trkpt lat="43.19234" lon="2.39227">
        <ele>227.1</ele>
        <time>2019-06-30T06:45:05.000Z</time>
      </trkpt>
      <trkpt lat="43.19232" lon="2.39226">
        <ele>227.2</ele>
        <time>2019-06-30T06:45:06.000Z</time>
      </trkpt>
      <trkpt lat="43.1923" lon="2.39225">
        <ele>227.3</ele>
        <time>2019-06-30T06:45:07.000Z</time>
      </trkpt>
      <trkpt lat="43.19228" lon="2.39223">
        <ele>227.4</ele>
        <time>2019-06-30T06:45:08.000Z</time>
      </trkpt>
      <trkpt lat="43.19226" lon="2.39222">
        <ele>227.6</ele>
        <time>2019-06-30T06:45:09.000Z</time>
      </trkpt>
      <trkpt lat="43.19224" lon="2.39221">
        <ele>227.7</ele>
        <time>2019-06-30T06:45:10.000Z</time>
      </trkpt>
      <trkpt lat="43.19222" lon="2.3922">
        <ele>227.8</ele>
        <time>2019-06-30T06:45:11.000Z</time>
      </trkpt>
      <trkpt lat="43.19221" lon="2.39218">
        <ele>228</ele>
        <time>2019-06-30T06:45:12.000Z</time>
      </trkpt>
      <trkpt lat="43.19219" lon="2.39217">
        <ele>228.1</ele>
        <time>2019-06-30T06:45:13.000Z</time>
      </trkpt>
      <trkpt lat="43.19217" lon="2.39215">
        <ele>228.3</ele>
        <time>2019-06-30T06:45:14.000Z</time>
      </trkpt>
      <trkpt lat="43.19216" lon="2.39213">
        <ele>228.5</ele>
        <time>2019-06-30T06:45:15.000Z</time>
      </trkpt>
      <trkpt lat="43.19215" lon="2.39211">
        <ele>228.8</ele>
        <time>2019-06-30T06:45:16.000Z</time>
      </trkpt>
      <trkpt lat="43.19214" lon="2.39209">
        <ele>229.1</ele>
        <time>2019-06-30T06:45:17.000Z</time>
      </trkpt>
      <trkpt lat="43.19213" lon="2.39207">
        <ele>229.4</ele>
        <time>2019-06-30T06:45:18.000Z</time>
      </trkpt>
      <trkpt lat="43.19212" lon="2.39204">
        <ele>229.8</ele>
        <time>2019-06-30T06:45:19.000Z</time>
      </trkpt>
      <trkpt lat="43.19211" lon="2.39201">
        <ele>230.1</ele>
        <time>2019-06-30T06:45:20.000Z</time>
      </trkpt>
      <trkpt lat="43.19211" lon="2.39198">
        <ele>230.5</ele>
        <time>2019-06-30T06:45:21.000Z</time>
      </trkpt>
      <trkpt lat="43.1921" lon="2.39195">
        <ele>230.9</ele>
        <time>2019-06-30T06:45:22.000Z</time>
      </trkpt>
      <trkpt lat="43.19209" lon="2.39193">
        <ele>231.3</ele>
        <time>2019-06-30T06:45:23.000Z</time>
      </trkpt>
      <trkpt lat="43.19209" lon="2.3919">
        <ele>231.7</ele>
        <time>2019-06-30T06:45:24.000Z</time>
      </trkpt>
      <trkpt lat="43.19208" lon="2.39187">
        <ele>232.1</ele>
        <time>2019-06-30T06:45:25.000Z</time>
      </trkpt>
      <trkpt lat="43.19208" lon="2.39184">
        <ele>232.5</ele>
        <time>2019-06-30T06:45:26.000Z</time>
      </trkpt>
      <trkpt lat="43.19207" lon="2.39181">
        <ele>232.9</ele>
        <time>2019-06-30T06:45:27.000Z</time>
      </trkpt>
      <trkpt lat="43.19207" lon="2.39178">
        <ele>233.2</ele>
        <time>2019-06-30T06:45:28.000Z</time>
      </trkpt>
      <trkpt lat="43.19207" lon="2.39176">
        <ele>233.6</ele>
        <time>2019-06-30T06:45:29.000Z</time>
      </trkpt>
      <trkpt lat="43.19206" lon="2.39173">
        <ele>234</ele>
        <time>2019-06-30T06:45:30.000Z</time>
      </trkpt>
      <trkpt lat="43.19206" lon="2.39171">
        <ele>234.3</ele>
        <time>2019-06-30T06:45:31.000Z</time>
      </trkpt>
      <trkpt lat="43.19206" lon="2.39168">
        <ele>234.7</ele>
        <time>2019-06-30T06:45:32.000Z</time>
      </trkpt>
      <trkpt lat="43.19206" lon="2.39166">
        <ele>235</ele>
        <time>2019-06-30T06:45:33.000Z</time>
      </trkpt>
      <trkpt lat="43.19206" lon="2.39164">
        <ele>235.2</ele>
        <time>2019-06-30T06:45:34.000Z</time>
      </trkpt>
      <trkpt lat="43.19206" lon="2.39162">
        <ele>235.5</ele>
        <time>2019-06-30T06:45:35.000Z</time>
      </trkpt>
      <trkpt lat="43.19206" lon="2.39159">
        <ele>235.7</ele>
        <time>2019-06-30T06:45:36.000Z</time>
      </trkpt>
      <trkpt lat="43.19206" lon="2.39157">
        <ele>236</ele>
        <time>2019-06-30T06:45:37.000Z</time>
      </trkpt>
      <trkpt lat="43.19206" lon="2.39155">
        <ele>236.2</ele>
        <time>2019-06-30T06:45:38.000Z</time>
      </trkpt>
      <trkpt lat="43.19206" lon="2.39153">
        <ele>236.4</ele>
        <time>2019-06-30T06:45:39.000Z</time>
      </trkpt>
      <trkpt lat="43.19205" lon="2.39151">
        <ele>236.6</ele>
        <time>2019-06-30T06:45:40.000Z</time>
      </trkpt>
      <trkpt lat="43.19205" lon="2.3915">
        <ele>236.8</ele>
        <time>2019-06-30T06:45:41.000Z</time>
      </trkpt>
      <trkpt lat="43.19205" lon="2.39148">
        <ele>237</ele>
        <time>2019-06-30T06:45:42.000Z</time>
      </trkpt>
      <trkpt lat="43.19204" lon="2.39146">
        <ele>237.2</ele>
        <time>2019-06-30T06:45:43.000Z</time>
      </trkpt>
      <trkpt lat="43.19203" lon="2.39144">
        <ele>237.4</ele>
        <time>2019-06-30T06:45:44.000Z</time>
      </trkpt>
      <trkpt lat="43.19203" lon="2.39142">
        <ele>237.6</ele>
        <time>2019-06-30T06:45:45.000Z</time>
      </trkpt>
      <trkpt lat="43.19202" lon="2.39141">
        <ele>237.7</ele>
        <time>2019-06-30T06:45:46.000Z</time>
      </trkpt>
      <trkpt lat="43.192" lon="2.39139">
        <ele>237.9</ele>
        <time>2019-06-30T06:45:47.000Z</time>
      </trkpt>
      <trkpt lat="43.19199" lon="2.39138">
        <ele>238</ele>
        <time>2019-06-30T06:45:48.000Z</time>
      </trkpt>
      <trkpt lat="43.19198" lon="2.39137">
        <ele>238.1</ele>
        <time>2019-06-30T06:45:49.000Z</time>
      </trkpt>
      <trkpt lat="43.19196" lon="2.39136">
        <ele>238.1</ele>
        <time>2019-06-30T06:45:50.000Z</time>
      </trkpt>
      <trkpt lat="43.19195" lon="2.39135">
        <ele>238.1</ele>
        <time>2019-06-30T06:45:51.000Z</time>
      </trkpt>
      <trkpt lat="43.19193" lon="2.39135">
        <ele>238</ele>
        <time>2019-06-30T06:45:52.000Z</time>
      </trkpt>
      <trkpt lat="43.19192" lon="2.39136">
        <ele>237.9</ele>
        <time>2019-06-30T06:45:53.000Z</time>
      </trkpt>
      <trkpt lat="43.1919" lon="2.39137">
        <ele>237.8</ele>
        <time>2019-06-30T06:45:54.000Z</time>
      </trkpt>
      <trkpt lat="43.19189" lon="2.39138">
        <ele>237.6</ele>
        <time>2019-06-30T06:45:55.000Z</time>
      </trkpt>
      <trkpt lat="43.19188" lon="2.39139">
        <ele>237.4</ele>
        <time>2019-06-30T06:45:56.000Z</time>
      </trkpt>
      <trkpt lat="43.19186" lon="2.39141">
        <ele>237.1</ele>
        <time>2019-06-30T06:45:57.000Z</time>
      </trkpt>
      <trkpt lat="43.19185" lon="2.39143">
        <ele>236.8</ele>
        <time>2019-06-30T06:45:58.000Z</time>
      </trkpt>
      <trkpt lat="43.19184" lon="2.39145">
        <ele>236.5</ele>
        <time>2019-06-30T06:45:59.000Z</time>
      </trkpt>
      <trkpt lat="43.19183" lon="2.39147">
        <ele>236.2</ele>
        <time>2019-06-30T06:46:00.000Z</time>
      </trkpt>
      <trkpt lat="43.19181" lon="2.3915">
        <ele>235.9</ele>
        <time>2019-06-30T06:46:01.000Z</time>
      </trkpt>
      <trkpt lat="43.1918" lon="2.39152">
        <ele>235.5</ele>
        <time>2019-06-30T06:46:02.000Z</time>
      </trkpt>
      <trkpt lat="43.1918" lon="2.39155">
        <ele>235.1</ele>
        <time>2019-06-30T06:46:03.000Z</time>
      </trkpt>
      <trkpt lat="43.19179" lon="2.39158">
        <ele>234.7</ele>
        <time>2019-06-30T06:46:04.000Z</time>
      </trkpt>
      <trkpt lat="43.19178" lon="2.3916">
        <ele>234.3</ele>
        <time>2019-06-30T06:46:05.000Z</time>
      </trkpt>
      <trkpt lat="43.19177" lon="2.39163">
        <ele>233.9</ele>
        <time>2019-06-30T06:46:06.000Z</time>
      </trkpt>
      <trkpt lat="43.19176" lon="2.39166">
        <ele>233.5</ele>
        <time>2019-06-30T06:46:07.000Z</time>
      </trkpt>
      <trkpt lat="43.19175" lon="2.39169">
        <ele>233.1</ele>
        <time>2019-06-30T06:46:08.000Z</time>
      </trkpt>
      <trkpt lat="43.19175" lon="2.39172">
        <ele>232.6</ele>
        <time>2019-06-30T06:46:09.000Z</time>
      </trkpt>
      <trkpt lat="43.19174" lon="2.39175">
        <ele>232.2</ele>
        <time>2019-06-30T06:46:10.000Z</time>
      </trkpt>
      <trkpt lat="43.19173" lon="2.39178">
        <ele>231.8</ele>
        <time>2019-06-30T06:46:11.000Z</time>
      </trkpt>
      <trkpt lat="43.19172" lon="2.39181">
        <ele>231.3</ele>
        <time>2019-06-30T06:46:12.000Z</time>
      </trkpt>
      <trkpt lat="43.19171" lon="2.39184">
        <ele>230.9</ele>
        <time>2019-06-30T06:46:13.000Z</time>
      </trkpt>
      <trkpt lat="43.1917" lon="2.39187">
        <ele>230.5</ele>
        <time>2019-06-30T06:46:14.000Z</time>
      </trkpt>
      <trkpt lat="43.19169" lon="2.3919">
        <ele>230</ele>
        <time>2019-06-30T06:46:15.000Z</time>
      </trkpt>
      <trkpt lat="43.19168" lon="2.39193">
        <ele>229.6</ele>
        <time>2019-06-30T06:46:16.000Z</time>
      </trkpt>
      <trkpt lat="43.19167" lon="2.39196">
        <ele>229.2</ele>
        <time>2019-06-30T06:46:17.000Z</time>
      </trkpt>
      <trkpt lat="43.19166" lon="2.39199">
        <ele>228.7</ele>
        <time>2019-06-30T06:46:18.000Z</time>
      </trkpt>
      <trkpt lat="43.19165" lon="2.39202">
        <ele>228.3</ele>
        <time>2019-06-30T06:46:19.000Z</time>
      </trkpt>
      <trkpt lat="43.19164" lon="2.39205">
        <ele>227.9</ele>
        <time>2019-06-30T06:46:20.000Z</time>
      </trkpt>
      <trkpt lat="43.19163" lon="2.39207">
        <ele>227.4</ele>
        <time>2019-06-30T06:46:21.000Z</time>
      </trkpt>
      <trkpt lat="43.19162" lon="2.3921">
        <ele>227</ele>
        <time>2019-06-30T06:46:22.000Z</time>
      </trkpt>
      <trkpt lat="43.19161" lon="2.39213">
        <ele>226.6</ele>
        <time>2019-06-30T06:46:23.000Z</time>
      </trkpt>
      <trkpt lat="43.1916" lon="2.39216">
        <ele>226.2</ele>
        <time>2019-06-30T06:46:24.000Z</time>
      </trkpt>
      <trkpt lat="43.19159" lon="2.39219">
        <ele>225.8</ele>
        <time>2019-06-30T06:46:25.000Z</time>
      </trkpt>
      <trkpt lat="43.19158" lon="2.39222">
        <ele>225.4</ele>
        <time>2019-06-30T06:46:26.000Z</time>
      </trkpt>
      <trkpt lat="43.19157" lon="2.39225">
        <ele>225</ele>
        <time>2019-06-30T06:46:27.000Z</time>
      </trkpt>
      <trkpt lat="43.19157" lon="2.39228">
        <ele>224.6</ele>
        <time>2019-06-30T06:46:28.000Z</time>
      </trkpt>
      <trkpt lat="43.19156" lon="2.39231">
        <ele>224.2</ele>
        <time>2019-06-30T06:46:29.000Z</time>
      </trkpt>
      <trkpt lat="43.19155" lon="2.39233">
        <ele>223.8</ele>
        <time>2019-06-30T06:46:30.000Z</time>
      </trkpt>
      <trkpt lat="43.19154" lon="2.39236">
        <ele>223.4</ele>
        <time>2019-06-30T06:46:31.000Z</time>
      </trkpt>
      <trkpt lat="43.19153" lon="2.39239">
        <ele>223</ele>
        <time>2019-06-30T06:46:32.000Z</time>
      </trkpt>
      <trkpt lat="43.19152" lon="2.39242">
        <ele>222.6</ele>
        <time>2019-06-30T06:46:33.000Z</time>
      </trkpt>
      <trkpt lat="43.19151" lon="2.39245">
        <ele>222.2</ele>
        <time>2019-06-30T06:46:34.000Z</time>
      </trkpt>
      <trkpt lat="43.19149" lon="2.39248">
        <ele>221.8</ele>
        <time>2019-06-30T06:46:35.000Z</time>
      </trkpt>
      <trkpt lat="43.19148" lon="2.3925">
        <ele>221.5</ele>
        <time>2019-06-30T06:46:36.000Z</time>
      </trkpt>
      <trkpt lat="43.19146" lon="2.39253">
        <ele>221.2</ele>
        <time>2019-06-30T06:46:37.000Z</time>
      </trkpt>
      <trkpt lat="43.19144" lon="2.39255">
        <ele>220.8</ele>
        <time>2019-06-30T06:46:38.000Z</time>
      </trkpt>
      <trkpt lat="43.19141" lon="2.39257">
        <ele>220.6</ele>
        <time>2019-06-30T06:46:39.000Z</time>
      </trkpt>
      <trkpt lat="43.19139" lon="2.39259">
        <ele>220.3</ele>
        <time>2019-06-30T06:46:40.000Z</time>
      </trkpt>
      <trkpt lat="43.19136" lon="2.3926">
        <ele>220.1</ele>
        <time>2019-06-30T06:46:41.000Z</time>
      </trkpt>
      <trkpt lat="43.19133" lon="2.39261">
        <ele>220</ele>
        <time>2019-06-30T06:46:42.000Z</time>
      </trkpt>
      <trkpt lat="43.1913" lon="2.39262">
        <ele>219.9</ele>
        <time>2019-06-30T06:46:43.000Z</time>
      </trkpt>
      <trkpt lat="43.19127" lon="2.39262">
        <ele>219.8</ele>
        <time>2019-06-30T06:46:44.000Z</time>
      </trkpt>
      <trkpt lat="43.19125" lon="2.39261">
        <ele>219.8</ele>
        <time>2019-06-30T06:46:45.000Z</time>
      </trkpt>
      <trkpt lat="43.19122" lon="2.39261">
        <ele>219.9</ele>
        <time>2019-06-30T06:46:46.000Z</time>
      </trkpt>
      <trkpt lat="43.1912" lon="2.3926">
        <ele>219.9</ele>
        <time>2019-06-30T06:46:47.000Z</time>
      </trkpt>
      <trkpt lat="43.19118" lon="2.39259">
        <ele>219.9</ele>
        <time>2019-06-30T06:46:48.000Z</time>
      </trkpt>
      <trkpt lat="43.19116" lon="2.39259">
        <ele>220</ele>
        <time>2019-06-30T06:46:49.000Z</time>
      </trkpt>
      <trkpt lat="43.19114" lon="2.39258">
        <ele>220</ele>
        <time>2019-06-30T06:46:50.000Z</time>
      </trkpt>
      <trkpt lat="43.19112" lon="2.39257">
        <ele>220</ele>
        <time>2019-06-30T06:46:51.000Z</time>
      </trkpt>
      <trkpt lat="43.19109" lon="2.39257">
        <ele>220</ele>
        <time>2019-06-30T06:46:52.000Z</time>
      </trkpt>
      <trkpt lat="43.19107" lon="2.39257">
        <ele>220</ele>
        <time>2019-06-30T06:46:53.000Z</time>
      </trkpt>
      <trkpt lat="43.19104" lon="2.39256">
        <ele>220</ele>
        <time>2019-06-30T06:46:54.000Z</time>
      </trkpt>
      <trkpt lat="43.19101" lon="2.39256">
        <ele>219.9</ele>
        <time>2019-06-30T06:46:55.000Z</time>
      </trkpt>
      <trkpt lat="43.19099" lon="2.39256">
        <ele>219.9</ele>
        <time>2019-06-30T06:46:56.000Z</time>
      </trkpt>
      <trkpt lat="43.19097" lon="2.39256">
        <ele>219.9</ele>
        <time>2019-06-30T06:46:57.000Z</time>
      </trkpt>
      <trkpt lat="43.19095" lon="2.39256">
        <ele>219.8</ele>
        <time>2019-06-30T06:46:58.000Z</time>
      </trkpt>
      <trkpt lat="43.19093" lon="2.39256">
        <ele>219.7</ele>
        <time>2019-06-30T06:46:59.000Z</time>
      </trkpt>
      <trkpt lat="43.19091" lon="2.39257">
        <ele>219.6</ele>
        <time>2019-06-30T06:47:00.000Z</time>
      </trkpt>
      <trkpt lat="43.19089" lon="2.39258">
        <ele>219.5</ele>
        <time>2019-06-30T06:47:01.000Z</time>
      </trkpt>
      <trkpt lat="43.19086" lon="2.39259">
        <ele>219.4</ele>
        <time>2019-06-30T06:47:02.000Z</time>
      </trkpt>
      <trkpt lat="43.19084" lon="2.3926">
        <ele>219.3</ele>
        <time>2019-06-30T06:47:03.000Z</time>
      </trkpt>
      <trkpt lat="43.19082" lon="2.39261">
        <ele>219.2</ele>
        <time>2019-06-30T06:47:04.000Z</time>
      </trkpt>
      <trkpt lat="43.19079" lon="2.39262">
        <ele>219.1</ele>
        <time>2019-06-30T06:47:05.000Z</time>
      </trkpt>
      <trkpt lat="43.19076" lon="2.39264">
        <ele>219</ele>
        <time>2019-06-30T06:47:06.000Z</time>
      </trkpt>
      <trkpt lat="43.19074" lon="2.39265">
        <ele>219</ele>
        <time>2019-06-30T06:47:07.000Z</time>
      </trkpt>
      <trkpt lat="43.19071" lon="2.39267">
        <ele>218.9</ele>
        <time>2019-06-30T06:47:08.000Z</time>
      </trkpt>
      <trkpt lat="43.19068" lon="2.39268">
        <ele>218.8</ele>
        <time>2019-06-30T06:47:09.000Z</time>
      </trkpt>
      <trkpt lat="43.19066" lon="2.39269">
        <ele>218.8</ele>
        <time>2019-06-30T06:47:10.000Z</time>
      </trkpt>
      <trkpt lat="43.19063" lon="2.3927">
        <ele>218.8</ele>
        <time>2019-06-30T06:47:11.000Z</time>
      </trkpt>
      <trkpt lat="43.19061" lon="2.3927">
        <ele>218.8</ele>
        <time>2019-06-30T06:47:12.000Z</time>
      </trkpt>
      <trkpt lat="43.19058" lon="2.39271">
        <ele>218.7</ele>
        <time>2019-06-30T06:47:13.000Z</time>
      </trkpt>
      <trkpt lat="43.19056" lon="2.39271">
        <ele>218.7</ele>
        <time>2019-06-30T06:47:14.000Z</time>
      </trkpt>
      <trkpt lat="43.19054" lon="2.39271">
        <ele>218.7</ele>
        <time>2019-06-30T06:47:15.000Z</time>
      </trkpt>
      <trkpt lat="43.19051" lon="2.39271">
        <ele>218.8</ele>
        <time>2019-06-30T06:47:16.000Z</time>
      </trkpt>
      <trkpt lat="43.19049" lon="2.39271">
        <ele>218.8</ele>
        <time>2019-06-30T06:47:17.000Z</time>
      </trkpt>
      <trkpt lat="43.19047" lon="2.39271">
        <ele>218.8</ele>
        <time>2019-06-30T06:47:18.000Z</time>
      </trkpt>
      <trkpt lat="43.19045" lon="2.39271">
        <ele>218.8</ele>
        <time>2019-06-30T06:47:19.000Z</time>
      </trkpt>
      <trkpt lat="43.19043" lon="2.39271">
        <ele>218.9</ele>
        <time>2019-06-30T06:47:20.000Z</time>
      </trkpt>
      <trkpt lat="43.19041" lon="2.39271">
        <ele>218.9</ele>
        <time>2019-06-30T06:47:21.000Z</time>
      </trkpt>
      <trkpt lat="43.19038" lon="2.39271">
        <ele>218.9</ele>
        <time>2019-06-30T06:47:22.000Z</time>
      </trkpt>
      <trkpt lat="43.19036" lon="2.3927">
        <ele>219</ele>
        <time>2019-06-30T06:47:23.000Z</time>
      </trkpt>
      <trkpt lat="43.19034" lon="2.3927">
        <ele>219</ele>
        <time>2019-06-30T06:47:24.000Z</time>
      </trkpt>
      <trkpt lat="43.19032" lon="2.3927">
        <ele>219</ele>
        <time>2019-06-30T06:47:25.000Z</time>
      </trkpt>
      <trkpt lat="43.1903" lon="2.39269">
        <ele>219</ele>
        <time>2019-06-30T06:47:26.000Z</time>
      </trkpt>
      <trkpt lat="43.19028" lon="2.39269">
        <ele>219.1</ele>
        <time>2019-06-30T06:47:27.000Z</time>
      </trkpt>
      <trkpt lat="43.19026" lon="2.39269">
        <ele>219.1</ele>
        <time>2019-06-30T06:47:28.000Z</time>
      </trkpt>
      <trkpt lat="43.19024" lon="2.39269">
        <ele>219.1</ele>
        <time>2019-06-30T06:47:29.000Z</time>
      </trkpt>
      <trkpt lat="43.19022" lon="2.39268">
        <ele>219.2</ele>
        <time>2019-06-30T06:47:30.000Z</time>
      </trkpt>
      <trkpt lat="43.1902" lon="2.39268">
        <ele>219.2</ele>
        <time>2019-06-30T06:47:31.000Z</time>
      </trkpt>
      <trkpt lat="43.19018" lon="2.39268">
        <ele>219.2</ele>
        <time>2019-06-30T06:47:32.000Z</time>
      </trkpt>
      <trkpt lat="43.19016" lon="2.39267">
        <ele>219.3</ele>
        <time>2019-06-30T06:47:33.000Z</time>
      </trkpt>
      <trkpt lat="43.19014" lon="2.39267">
        <ele>219.3</ele>
        <time>2019-06-30T06:47:34.000Z</time>
      </trkpt>
      <trkpt lat="43.19012" lon="2.39267">
        <ele>219.3</ele>
        <time>2019-06-30T06:47:35.000Z</time>
      </trkpt>
      <trkpt lat="43.1901" lon="2.39267">
        <ele>219.3</ele>
        <time>2019-06-30T06:47:36.000Z</time>
      </trkpt>
      <trkpt lat="43.19008" lon="2.39266">
        <ele>219.4</ele>
        <time>2019-06-30T06:47:37.000Z</time>
      </trkpt>
      <trkpt lat="43.19006" lon="2.39266">
        <ele>219.4</ele>
        <time>2019-06-30T06:47:38.000Z</time>
      </trkpt>
      <trkpt lat="43.19004" lon="2.39266">
        <ele>219.4</ele>
        <time>2019-06-30T06:47:39.000Z</time>
      </trkpt>
      <trkpt lat="43.19002" lon="2.39266">
        <ele>219.4</ele>
        <time>2019-06-30T06:47:40.000Z</time>
      </trkpt>
      <trkpt lat="43.19" lon="2.39266">
        <ele>219.4</ele>
        <time>2019-06-30T06:47:41.000Z</time>
      </trkpt>
      <trkpt lat="43.18998" lon="2.39265">
        <ele>219.6</ele>
        <time>2019-06-30T06:47:42.000Z</time>
      </trkpt>
      <trkpt lat="43.18996" lon="2.39265">
        <ele>219.8</ele>
        <time>2019-06-30T06:47:43.000Z</time>
      </trkpt>
      <trkpt lat="43.18995" lon="2.39265">
        <ele>219.9</ele>
        <time>2019-06-30T06:47:44.000Z</time>
      </trkpt>
      <trkpt lat="43.18993" lon="2.39265">
        <ele>220.1</ele>
        <time>2019-06-30T06:47:45.000Z</time>
      </trkpt>
      <trkpt lat="43.18991" lon="2.39265">
        <ele>220.2</ele>
        <time>2019-06-30T06:47:46.000Z</time>
      </trkpt>
      <trkpt lat="43.18989" lon="2.39265">
        <ele>220.4</ele>
        <time>2019-06-30T06:47:47.000Z</time>
      </trkpt>
      <trkpt lat="43.18987" lon="2.39264">
        <ele>220.6</ele>
        <time>2019-06-30T06:47:48.000Z</time>
      </trkpt>
      <trkpt lat="43.18985" lon="2.39264">
        <ele>220.7</ele>
        <time>2019-06-30T06:47:49.000Z</time>
      </trkpt>
      <trkpt lat="43.18983" lon="2.39264">
        <ele>220.9</ele>
        <time>2019-06-30T06:47:50.000Z</time>
      </trkpt>
      <trkpt lat="43.18981" lon="2.39264">
        <ele>221.1</ele>
        <time>2019-06-30T06:47:51.000Z</time>
      </trkpt>
      <trkpt lat="43.1898" lon="2.39264">
        <ele>221.2</ele>
        <time>2019-06-30T06:47:52.000Z</time>
      </trkpt>
      <trkpt lat="43.18978" lon="2.39263">
        <ele>221.4</ele>
        <time>2019-06-30T06:47:53.000Z</time>
      </trkpt>
      <trkpt lat="43.18976" lon="2.39263">
        <ele>221.6</ele>
        <time>2019-06-30T06:47:54.000Z</time>
      </trkpt>
      <trkpt lat="43.18974" lon="2.39263">
        <ele>221.7</ele>
        <time>2019-06-30T06:47:55.000Z</time>
      </trkpt>
      <trkpt lat="43.18972" lon="2.39263">
        <ele>221.9</ele>
        <time>2019-06-30T06:47:56.000Z</time>
      </trkpt>
      <trkpt lat="43.1897" lon="2.39262">
        <ele>222.1</ele>
        <time>2019-06-30T06:47:57.000Z</time>
      </trkpt>
      <trkpt lat="43.18968" lon="2.39262">
        <ele>222.2</ele>
        <time>2019-06-30T06:47:58.000Z</time>
      </trkpt>
      <trkpt lat="43.18966" lon="2.39262">
        <ele>222.4</ele>
        <time>2019-06-30T06:47:59.000Z</time>
      </trkpt>
      <trkpt lat="43.18964" lon="2.39262">
        <ele>222.6</ele>
        <time>2019-06-30T06:48:00.000Z</time>
      </trkpt>
      <trkpt lat="43.18962" lon="2.39261">
        <ele>222.8</ele>
        <time>2019-06-30T06:48:01.000Z</time>
      </trkpt>
      <trkpt lat="43.1896" lon="2.39261">
        <ele>222.9</ele>
        <time>2019-06-30T06:48:02.000Z</time>
      </trkpt>
      <trkpt lat="43.18958" lon="2.39261">
        <ele>223.1</ele>
        <time>2019-06-30T06:48:03.000Z</time>
      </trkpt>
      <trkpt lat="43.18956" lon="2.39261">
        <ele>223.3</ele>
        <time>2019-06-30T06:48:04.000Z</time>
      </trkpt>
      <trkpt lat="43.18954" lon="2.3926">
        <ele>223.5</ele>
        <time>2019-06-30T06:48:05.000Z</time>
      </trkpt>
      <trkpt lat="43.18952" lon="2.3926">
        <ele>223.6</ele>
        <time>2019-06-30T06:48:06.000Z</time>
      </trkpt>
      <trkpt lat="43.1895" lon="2.3926">
        <ele>223.8</ele>
        <time>2019-06-30T06:48:07.000Z</time>
      </trkpt>
      <trkpt lat="43.18948" lon="2.3926">
        <ele>224</ele>
        <time>2019-06-30T06:48:08.000Z</time>
      </trkpt>
      <trkpt lat="43.18946" lon="2.3926">
        <ele>224.2</ele>
        <time>2019-06-30T06:48:09.000Z</time>
      </trkpt>
      <trkpt lat="43.18945" lon="2.3926">
        <ele>224.3</ele>
        <time>2019-06-30T06:48:10.000Z</time>
      </trkpt>
      <trkpt lat="43.18943" lon="2.3926">
        <ele>224.5</ele>
        <time>2019-06-30T06:48:11.000Z</time>
      </trkpt>
      <trkpt lat="43.18941" lon="2.3926">
        <ele>224.6</ele>
        <time>2019-06-30T06:48:12.000Z</time>
      </trkpt>
      <trkpt lat="43.1894" lon="2.3926">
        <ele>224.7</ele>
        <time>2019-06-30T06:48:13.000Z</time>
      </trkpt>
      <trkpt lat="43.18938" lon="2.3926">
        <ele>224.8</ele>
        <time>2019-06-30T06:48:14.000Z</time>
      </trkpt>
      <trkpt lat="43.18937" lon="2.39261">
        <ele>224.9</ele>
        <time>2019-06-30T06:48:15.000Z</time>
      </trkpt>
      <trkpt lat="43.18936" lon="2.39261">
        <ele>225</ele>
        <time>2019-06-30T06:48:16.000Z</time>
      </trkpt>
      <trkpt lat="43.18934" lon="2.39262">
        <ele>225.1</ele>
        <time>2019-06-30T06:48:17.000Z</time>
      </trkpt>
      <trkpt lat="43.18933" lon="2.39262">
        <ele>225.2</ele>
        <time>2019-06-30T06:48:18.000Z</time>
      </trkpt>
      <trkpt lat="43.18932" lon="2.39263">
        <ele>225.2</ele>
        <time>2019-06-30T06:48:19.000Z</time>
      </trkpt>
      <trkpt lat="43.18931" lon="2.39263">
        <ele>225.3</ele>
        <time>2019-06-30T06:48:20.000Z</time>
      </trkpt>
      <trkpt lat="43.1893" lon="2.39264">
        <ele>225.4</ele>
        <time>2019-06-30T06:48:21.000Z</time>
      </trkpt>
      <trkpt lat="43.18929" lon="2.39264">
        <ele>225.5</ele>
        <time>2019-06-30T06:48:22.000Z</time>
      </trkpt>
      <trkpt lat="43.18928" lon="2.39264">
        <ele>225.5</ele>
        <time>2019-06-30T06:48:23.000Z</time>
      </trkpt>
      <trkpt lat="43.18927" lon="2.39264">
        <ele>225.6</ele>
        <time>2019-06-30T06:48:24.000Z</time>
      </trkpt>
      <trkpt lat="43.18927" lon="2.39265">
        <ele>225.6</ele>
        <time>2019-06-30T06:48:25.000Z</time>
      </trkpt>
      <trkpt lat="43.18926" lon="2.39265">
        <ele>225.7</ele>
        <time>2019-06-30T06:48:26.000Z</time>
      </trkpt>
      <trkpt lat="43.18925" lon="2.39265">
        <ele>225.8</ele>
        <time>2019-06-30T06:48:27.000Z</time>
      </trkpt>
      <trkpt lat="43.18924" lon="2.39265">
        <ele>225.8</ele>
        <time>2019-06-30T06:48:28.000Z</time>
      </trkpt>
      <trkpt lat="43.18924" lon="2.39265">
        <ele>225.9</ele>
        <time>2019-06-30T06:48:29.000Z</time>
      </trkpt>
      <trkpt lat="43.18923" lon="2.39265">
        <ele>225.9</ele>
        <time>2019-06-30T06:48:30.000Z</time>
      </trkpt>
      <trkpt lat="43.18923" lon="2.39265">
        <ele>226</ele>
        <time>2019-06-30T06:48:31.000Z</time>
      </trkpt>
      <trkpt lat="43.18922" lon="2.39265">
        <ele>226</ele>
        <time>2019-06-30T06:48:32.000Z</time>
      </trkpt>
      <trkpt lat="43.18922" lon="2.39265">
        <ele>226</ele>
        <time>2019-06-30T06:48:33.000Z</time>
      </trkpt>
      <trkpt lat="43.18921" lon="2.39265">
        <ele>226.1</ele>
        <time>2019-06-30T06:48:34.000Z</time>
      </trkpt>
      <trkpt lat="43.18921" lon="2.39265">
        <ele>226.1</ele>
        <time>2019-06-30T06:48:35.000Z</time>
      </trkpt>
      <trkpt lat="43.18921" lon="2.39265">
        <ele>226.1</ele>
        <time>2019-06-30T06:48:36.000Z</time>
      </trkpt>
      <trkpt lat="43.18921" lon="2.39265">
        <ele>226.1</ele>
        <time>2019-06-30T06:48:37.000Z</time>
      </trkpt>
      <trkpt lat="43.18921" lon="2.39265">
        <ele>226.1</ele>
        <time>2019-06-30T06:48:38.000Z</time>
      </trkpt>
      <trkpt lat="43.1892" lon="2.39265">
        <ele>226.1</ele>
        <time>2019-06-30T06:48:39.000Z</time>
      </trkpt>
      <trkpt lat="43.1892" lon="2.39265">
        <ele>226.2</ele>
        <time>2019-06-30T06:48:40.000Z</time>
      </trkpt>
      <trkpt lat="43.1892" lon="2.39265">
        <ele>226.2</ele>
        <time>2019-06-30T06:48:41.000Z</time>
      </trkpt>
      <trkpt lat="43.1892" lon="2.39265">
        <ele>226.2</ele>
        <time>2019-06-30T06:48:42.000Z</time>
      </trkpt>
      <trkpt lat="43.1892" lon="2.39265">
        <ele>226.2</ele>
        <time>2019-06-30T06:48:43.000Z</time>
      </trkpt>
      <trkpt lat="43.1892" lon="2.39265">
        <ele>226.2</ele>
        <time>2019-06-30T06:48:44.000Z</time>
      </trkpt>
      <trkpt lat="43.1892" lon="2.39265">
        <ele>226.2</ele>
        <time>2019-06-30T06:48:45.000Z</time>
      </trkpt>
      <trkpt lat="43.1892" lon="2.39265">
        <ele>226.2</ele>
        <time>2019-06-30T06:48:46.000Z</time>
      </trkpt>
      <trkpt lat="43.1892" lon="2.39265">
        <ele>226.2</ele>
        <time>2019-06-30T06:48:47.000Z</time>
      </trkpt>
      <trkpt lat="43.1892" lon="2.39265">
        <ele>226.2</ele>
        <time>2019-06-30T06:48:48.000Z</time>
      </trkpt>
      <trkpt lat="43.1892" lon="2.39265">
        <ele>226.1</ele>
        <time>2019-06-30T06:48:49.000Z</time>
      </trkpt>
      <trkpt lat="43.1892" lon="2.39265">
        <ele>226.1</ele>
        <time>2019-06-30T06:48:50.000Z</time>
      </trkpt>
      <trkpt lat="43.1892" lon="2.39266">
        <ele>226.1</ele>
        <time>2019-06-30T06:48:51.000Z</time>
      </trkpt>
      <trkpt lat="43.1892" lon="2.39266">
        <ele>226.1</ele>
        <time>2019-06-30T06:48:52.000Z</time>
      </trkpt>
      <trkpt lat="43.1892" lon="2.39265">
        <ele>226.1</ele>
        <time>2019-06-30T06:48:53.000Z</time>
      </trkpt>
      <trkpt lat="43.1892" lon="2.39265">
        <ele>226.2</ele>
        <time>2019-06-30T06:48:54.000Z</time>
      </trkpt>
      <trkpt lat="43.1892" lon="2.39265">
        <ele>226.2</ele>
        <time>2019-06-30T06:48:55.000Z</time>
      </trkpt>
      <trkpt lat="43.1892" lon="2.39265">
        <ele>226.2</ele>
        <time>2019-06-30T06:48:56.000Z</time>
      </trkpt>
      <trkpt lat="43.1892" lon="2.39265">
        <ele>226.2</ele>
        <time>2019-06-30T06:48:57.000Z</time>
      </trkpt>
      <trkpt lat="43.1892" lon="2.39265">
        <ele>226.2</ele>
        <time>2019-06-30T06:48:58.000Z</time>
      </trkpt>
      <trkpt lat="43.1892" lon="2.39265">
        <ele>226.2</ele>
        <time>2019-06-30T06:48:59.000Z</time>
      </trkpt>
      <trkpt lat="43.18919" lon="2.39265">
        <ele>226.2</ele>
        <time>2019-06-30T06:49:00.000Z</time>
      </trkpt>
      <trkpt lat="43.18919" lon="2.39265">
        <ele>226.2</ele>
        <time>2019-06-30T06:49:01.000Z</time>
      </trkpt>
      <trkpt lat="43.18919" lon="2.39265">
        <ele>226.3</ele>
        <time>2019-06-30T06:49:02.000Z</time>
      </trkpt>
      <trkpt lat="43.18919" lon="2.39265">
        <ele>226.3</ele>
        <time>2019-06-30T06:49:03.000Z</time>
      </trkpt>
      <trkpt lat="43.18918" lon="2.39265">
        <ele>226.3</ele>
        <time>2019-06-30T06:49:04.000Z</time>
      </trkpt>
      <trkpt lat="43.18918" lon="2.39265">
        <ele>226.3</ele>
        <time>2019-06-30T06:49:05.000Z</time>
      </trkpt>
      <trkpt lat="43.18918" lon="2.39265">
        <ele>226.4</ele>
        <time>2019-06-30T06:49:06.000Z</time>
      </trkpt>
      <trkpt lat="43.18918" lon="2.39265">
        <ele>226.4</ele>
        <time>2019-06-30T06:49:07.000Z</time>
      </trkpt>
      <trkpt lat="43.18918" lon="2.39265">
        <ele>226.4</ele>
        <time>2019-06-30T06:49:08.000Z</time>
      </trkpt>
      <trkpt lat="43.18918" lon="2.39265">
        <ele>226.4</ele>
        <time>2019-06-30T06:49:09.000Z</time>
      </trkpt>
      <trkpt lat="43.18917" lon="2.39265">
        <ele>226.4</ele>
        <time>2019-06-30T06:49:10.000Z</time>
      </trkpt>
      <trkpt lat="43.18917" lon="2.39264">
        <ele>226.5</ele>
        <time>2019-06-30T06:49:11.000Z</time>
      </trkpt>
      <trkpt lat="43.18916" lon="2.39264">
        <ele>226.5</ele>
        <time>2019-06-30T06:49:12.000Z</time>
      </trkpt>
      <trkpt lat="43.18916" lon="2.39264">
        <ele>226.5</ele>
        <time>2019-06-30T06:49:13.000Z</time>
      </trkpt>
      <trkpt lat="43.18915" lon="2.39263">
        <ele>226.5</ele>
        <time>2019-06-30T06:49:14.000Z</time>
      </trkpt>
      <trkpt lat="43.18914" lon="2.39263">
        <ele>226.5</ele>
        <time>2019-06-30T06:49:15.000Z</time>
      </trkpt>
      <trkpt lat="43.18913" lon="2.39262">
        <ele>226.5</ele>
        <time>2019-06-30T06:49:16.000Z</time>
      </trkpt>
      <trkpt lat="43.18913" lon="2.39262">
        <ele>226.6</ele>
        <time>2019-06-30T06:49:17.000Z</time>
      </trkpt>
      <trkpt lat="43.18912" lon="2.39262">
        <ele>226.6</ele>
        <time>2019-06-30T06:49:18.000Z</time>
      </trkpt>
      <trkpt lat="43.18911" lon="2.39262">
        <ele>226.6</ele>
        <time>2019-06-30T06:49:19.000Z</time>
      </trkpt>
      <trkpt lat="43.1891" lon="2.39262">
        <ele>226.6</ele>
        <time>2019-06-30T06:49:20.000Z</time>
      </trkpt>
      <trkpt lat="43.1891" lon="2.39261">
        <ele>226.6</ele>
        <time>2019-06-30T06:49:21.000Z</time>
      </trkpt>
      <trkpt lat="43.18909" lon="2.39261">
        <ele>226.6</ele>
        <time>2019-06-30T06:49:22.000Z</time>
      </trkpt>
      <trkpt lat="43.18908" lon="2.39261">
        <ele>226.6</ele>
        <time>2019-06-30T06:49:23.000Z</time>
      </trkpt>
      <trkpt lat="43.18907" lon="2.3926">
        <ele>226.6</ele>
        <time>2019-06-30T06:49:24.000Z</time>
      </trkpt>
      <trkpt lat="43.18906" lon="2.3926">
        <ele>226.6</ele>
        <time>2019-06-30T06:49:25.000Z</time>
      </trkpt>
      <trkpt lat="43.18905" lon="2.39259">
        <ele>226.6</ele>
        <time>2019-06-30T06:49:26.000Z</time>
      </trkpt>
      <trkpt lat="43.18905" lon="2.39258">
        <ele>226.6</ele>
        <time>2019-06-30T06:49:27.000Z</time>
      </trkpt>
      <trkpt lat="43.18904" lon="2.39258">
        <ele>226.7</ele>
        <time>2019-06-30T06:49:28.000Z</time>
      </trkpt>
      <trkpt lat="43.18903" lon="2.39257">
        <ele>226.7</ele>
        <time>2019-06-30T06:49:29.000Z</time>
      </trkpt>
      <trkpt lat="43.18902" lon="2.39257">
        <ele>226.7</ele>
        <time>2019-06-30T06:49:30.000Z</time>
      </trkpt>
      <trkpt lat="43.18901" lon="2.39256">
        <ele>226.7</ele>
        <time>2019-06-30T06:49:31.000Z</time>
      </trkpt>
      <trkpt lat="43.189" lon="2.39256">
        <ele>226.7</ele>
        <time>2019-06-30T06:49:32.000Z</time>
      </trkpt>
      <trkpt lat="43.189" lon="2.39256">
        <ele>226.7</ele>
        <time>2019-06-30T06:49:33.000Z</time>
      </trkpt>
      <trkpt lat="43.18899" lon="2.39256">
        <ele>226.7</ele>
        <time>2019-06-30T06:49:34.000Z</time>
      </trkpt>
      <trkpt lat="43.18898" lon="2.39256">
        <ele>226.7</ele>
        <time>2019-06-30T06:49:35.000Z</time>
      </trkpt>
      <trkpt lat="43.18897" lon="2.39256">
        <ele>226.6</ele>
        <time>2019-06-30T06:49:36.000Z</time>
      </trkpt>
      <trkpt lat="43.18896" lon="2.39256">
        <ele>226.6</ele>
        <time>2019-06-30T06:49:37.000Z</time>
      </trkpt>
      <trkpt lat="43.18896" lon="2.39256">
        <ele>226.6</ele>
        <time>2019-06-30T06:49:38.000Z</time>
      </trkpt>
      <trkpt lat="43.18895" lon="2.39256">
        <ele>226.6</ele>
        <time>2019-06-30T06:49:39.000Z</time>
      </trkpt>
      <trkpt lat="43.18894" lon="2.39256">
        <ele>226.6</ele>
        <time>2019-06-30T06:49:40.000Z</time>
      </trkpt>
      <trkpt lat="43.18893" lon="2.39255">
        <ele>226.6</ele>
        <time>2019-06-30T06:49:41.000Z</time>
      </trkpt>
      <trkpt lat="43.18892" lon="2.39255">
        <ele>226.6</ele>
        <time>2019-06-30T06:49:42.000Z</time>
      </trkpt>
      <trkpt lat="43.18891" lon="2.39255">
        <ele>226.6</ele>
        <time>2019-06-30T06:49:43.000Z</time>
      </trkpt>
      <trkpt lat="43.1889" lon="2.39254">
        <ele>226.6</ele>
        <time>2019-06-30T06:49:44.000Z</time>
      </trkpt>
      <trkpt lat="43.18889" lon="2.39254">
        <ele>226.6</ele>
        <time>2019-06-30T06:49:45.000Z</time>
      </trkpt>
      <trkpt lat="43.18888" lon="2.39254">
        <ele>226.6</ele>
        <time>2019-06-30T06:49:46.000Z</time>
      </trkpt>
      <trkpt lat="43.18887" lon="2.39254">
        <ele>226.6</ele>
        <time>2019-06-30T06:49:47.000Z</time>
      </trkpt>
      <trkpt lat="43.18886" lon="2.39254">
        <ele>226.6</ele>
        <time>2019-06-30T06:49:48.000Z</time>
      </trkpt>
      <trkpt lat="43.18885" lon="2.39255">
        <ele>226.6</ele>
        <time>2019-06-30T06:49:49.000Z</time>
      </trkpt>
      <trkpt lat="43.18884" lon="2.39255">
        <ele>226.6</ele>
        <time>2019-06-30T06:49:50.000Z</time>
      </trkpt>
      <trkpt lat="43.18883" lon="2.39255">
        <ele>226.6</ele>
        <time>2019-06-30T06:49:51.000Z</time>
      </trkpt>
      <trkpt lat="43.18882" lon="2.39256">
        <ele>226.5</ele>
        <time>2019-06-30T06:49:52.000Z</time>
      </trkpt>
      <trkpt lat="43.18881" lon="2.39257">
        <ele>226.5</ele>
        <time>2019-06-30T06:49:53.000Z</time>
      </trkpt>
      <trkpt lat="43.1888" lon="2.39257">
        <ele>226.5</ele>
        <time>2019-06-30T06:49:54.000Z</time>
      </trkpt>
      <trkpt lat="43.18879" lon="2.39258">
        <ele>226.5</ele>
        <time>2019-06-30T06:49:55.000Z</time>
      </trkpt>
      <trkpt lat="43.18878" lon="2.39259">
        <ele>226.5</ele>
        <time>2019-06-30T06:49:56.000Z</time>
      </trkpt>
      <trkpt lat="43.18877" lon="2.3926">
        <ele>226.5</ele>
        <time>2019-06-30T06:49:57.000Z</time>
      </trkpt>
      <trkpt lat="43.18876" lon="2.39261">
        <ele>226.5</ele>
        <time>2019-06-30T06:49:58.000Z</time>
      </trkpt>
      <trkpt lat="43.18876" lon="2.39262">
        <ele>226.5</ele>
        <time>2019-06-30T06:49:59.000Z</time>
      </trkpt>
      <trkpt lat="43.18875" lon="2.39263">
        <ele>226.5</ele>
        <time>2019-06-30T06:50:00.000Z</time>
      </trkpt>
      <trkpt lat="43.18874" lon="2.39264">
        <ele>226.5</ele>
        <time>2019-06-30T06:50:01.000Z</time>
      </trkpt>
      <trkpt lat="43.18874" lon="2.39266">
        <ele>226.5</ele>
        <time>2019-06-30T06:50:02.000Z</time>
      </trkpt>
      <trkpt lat="43.18873" lon="2.39267">
        <ele>226.5</ele>
        <time>2019-06-30T06:50:03.000Z</time>
      </trkpt>
      <trkpt lat="43.18873" lon="2.39268">
        <ele>226.5</ele>
        <time>2019-06-30T06:50:04.000Z</time>
      </trkpt>
      <trkpt lat="43.18872" lon="2.39268">
        <ele>226.5</ele>
        <time>2019-06-30T06:50:05.000Z</time>
      </trkpt>
      <trkpt lat="43.18872" lon="2.39269">
        <ele>226.5</ele>
        <time>2019-06-30T06:50:06.000Z</time>
      </trkpt>
      <trkpt lat="43.18872" lon="2.3927">
        <ele>226.5</ele>
        <time>2019-06-30T06:50:07.000Z</time>
      </trkpt>
      <trkpt lat="43.18872" lon="2.3927">
        <ele>226.5</ele>
        <time>2019-06-30T06:50:08.000Z</time>
      </trkpt>
      <trkpt lat="43.18872" lon="2.3927">
        <ele>226.5</ele>
        <time>2019-06-30T06:50:09.000Z</time>
      </trkpt>
      <trkpt lat="43.18872" lon="2.39271">
        <ele>226.5</ele>
        <time>2019-06-30T06:50:10.000Z</time>
      </trkpt>
      <trkpt lat="43.18871" lon="2.39271">
        <ele>226.5</ele>
        <time>2019-06-30T06:50:11.000Z</time>
      </trkpt>
      <trkpt lat="43.18871" lon="2.39271">
        <ele>226.5</ele>
        <time>2019-06-30T06:50:12.000Z</time>
      </trkpt>
      <trkpt lat="43.18871" lon="2.39272">
        <ele>226.5</ele>
        <time>2019-06-30T06:50:13.000Z</time>
      </trkpt>
      <trkpt lat="43.18871" lon="2.39273">
        <ele>226.5</ele>
        <time>2019-06-30T06:50:14.000Z</time>
      </trkpt>
      <trkpt lat="43.1887" lon="2.39274">
        <ele>226.5</ele>
        <time>2019-06-30T06:50:15.000Z</time>
      </trkpt>
      <trkpt lat="43.1887" lon="2.39275">
        <ele>226.6</ele>
        <time>2019-06-30T06:50:16.000Z</time>
      </trkpt>
      <trkpt lat="43.18869" lon="2.39276">
        <ele>226.6</ele>
        <time>2019-06-30T06:50:17.000Z</time>
      </trkpt>
      <trkpt lat="43.18869" lon="2.39277">
        <ele>226.6</ele>
        <time>2019-06-30T06:50:18.000Z</time>
      </trkpt>
      <trkpt lat="43.18868" lon="2.39279">
        <ele>226.6</ele>
        <time>2019-06-30T06:50:19.000Z</time>
      </trkpt>
      <trkpt lat="43.18868" lon="2.3928">
        <ele>226.6</ele>
        <time>2019-06-30T06:50:20.000Z</time>
      </trkpt>
      <trkpt lat="43.18867" lon="2.39281">
        <ele>226.6</ele>
        <time>2019-06-30T06:50:21.000Z</time>
      </trkpt>
      <trkpt lat="43.18867" lon="2.39282">
        <ele>226.6</ele>
        <time>2019-06-30T06:50:22.000Z</time>
      </trkpt>
      <trkpt lat="43.18866" lon="2.39282">
        <ele>226.6</ele>
        <time>2019-06-30T06:50:23.000Z</time>
      </trkpt>
      <trkpt lat="43.18866" lon="2.39284">
        <ele>226.7</ele>
        <time>2019-06-30T06:50:24.000Z</time>
      </trkpt>
      <trkpt lat="43.18865" lon="2.39285">
        <ele>226.7</ele>
        <time>2019-06-30T06:50:25.000Z</time>
      </trkpt>
      <trkpt lat="43.18864" lon="2.39287">
        <ele>226.7</ele>
        <time>2019-06-30T06:50:26.000Z</time>
      </trkpt>
      <trkpt lat="43.18863" lon="2.3929">
        <ele>226.8</ele>
        <time>2019-06-30T06:50:27.000Z</time>
      </trkpt>
      <trkpt lat="43.18862" lon="2.39292">
        <ele>226.8</ele>
        <time>2019-06-30T06:50:28.000Z</time>
      </trkpt>
      <trkpt lat="43.18861" lon="2.39294">
        <ele>226.9</ele>
        <time>2019-06-30T06:50:29.000Z</time>
      </trkpt>
      <trkpt lat="43.18861" lon="2.39296">
        <ele>226.9</ele>
        <time>2019-06-30T06:50:30.000Z</time>
      </trkpt>
      <trkpt lat="43.1886" lon="2.39298">
        <ele>226.9</ele>
        <time>2019-06-30T06:50:31.000Z</time>
      </trkpt>
      <trkpt lat="43.18859" lon="2.39299">
        <ele>227</ele>
        <time>2019-06-30T06:50:32.000Z</time>
      </trkpt>
      <trkpt lat="43.18859" lon="2.39301">
        <ele>227</ele>
        <time>2019-06-30T06:50:33.000Z</time>
      </trkpt>
      <trkpt lat="43.18858" lon="2.39303">
        <ele>227.1</ele>
        <time>2019-06-30T06:50:34.000Z</time>
      </trkpt>
      <trkpt lat="43.18857" lon="2.39304">
        <ele>227.1</ele>
        <time>2019-06-30T06:50:35.000Z</time>
      </trkpt>
      <trkpt lat="43.18857" lon="2.39306">
        <ele>227.2</ele>
        <time>2019-06-30T06:50:36.000Z</time>
      </trkpt>
      <trkpt lat="43.18856" lon="2.39307">
        <ele>227.2</ele>
        <time>2019-06-30T06:50:37.000Z</time>
      </trkpt>
      <trkpt lat="43.18856" lon="2.39309">
        <ele>227.3</ele>
        <time>2019-06-30T06:50:38.000Z</time>
      </trkpt>
      <trkpt lat="43.18855" lon="2.3931">
        <ele>227.3</ele>
        <time>2019-06-30T06:50:39.000Z</time>
      </trkpt>
      <trkpt lat="43.18855" lon="2.39312">
        <ele>227.3</ele>
        <time>2019-06-30T06:50:40.000Z</time>
      </trkpt>
      <trkpt lat="43.18854" lon="2.39313">
        <ele>227.4</ele>
        <time>2019-06-30T06:50:41.000Z</time>
      </trkpt>
      <trkpt lat="43.18854" lon="2.39315">
        <ele>227.4</ele>
        <time>2019-06-30T06:50:42.000Z</time>
      </trkpt>
      <trkpt lat="43.18853" lon="2.39316">
        <ele>227.5</ele>
        <time>2019-06-30T06:50:43.000Z</time>
      </trkpt>
      <trkpt lat="43.18852" lon="2.39317">
        <ele>227.5</ele>
        <time>2019-06-30T06:50:44.000Z</time>
      </trkpt>
      <trkpt lat="43.18852" lon="2.39319">
        <ele>227.6</ele>
        <time>2019-06-30T06:50:45.000Z</time>
      </trkpt>
      <trkpt lat="43.18851" lon="2.3932">
        <ele>227.7</ele>
        <time>2019-06-30T06:50:46.000Z</time>
      </trkpt>
      <trkpt lat="43.18851" lon="2.39321">
        <ele>227.7</ele>
        <time>2019-06-30T06:50:47.000Z</time>
      </trkpt>
      <trkpt lat="43.1885" lon="2.39323">
        <ele>227.8</ele>
        <time>2019-06-30T06:50:48.000Z</time>
      </trkpt>
      <trkpt lat="43.18849" lon="2.39324">
        <ele>227.8</ele>
        <time>2019-06-30T06:50:49.000Z</time>
      </trkpt>
      <trkpt lat="43.18849" lon="2.39326">
        <ele>227.9</ele>
        <time>2019-06-30T06:50:50.000Z</time>
      </trkpt>
      <trkpt lat="43.18848" lon="2.39327">
        <ele>228</ele>
        <time>2019-06-30T06:50:51.000Z</time>
      </trkpt>
      <trkpt lat="43.18847" lon="2.39328">
        <ele>228.1</ele>
        <time>2019-06-30T06:50:52.000Z</time>
      </trkpt>
      <trkpt lat="43.18846" lon="2.3933">
        <ele>228.1</ele>
        <time>2019-06-30T06:50:53.000Z</time>
      </trkpt>
      <trkpt lat="43.18845" lon="2.39331">
        <ele>228.2</ele>
        <time>2019-06-30T06:50:54.000Z</time>
      </trkpt>
      <trkpt lat="43.18844" lon="2.39332">
        <ele>228.3</ele>
        <time>2019-06-30T06:50:55.000Z</time>
      </trkpt>
      <trkpt lat="43.18843" lon="2.39334">
        <ele>228.4</ele>
        <time>2019-06-30T06:50:56.000Z</time>
      </trkpt>
      <trkpt lat="43.18842" lon="2.39335">
        <ele>228.4</ele>
        <time>2019-06-30T06:50:57.000Z</time>
      </trkpt>
      <trkpt lat="43.18841" lon="2.39337">
        <ele>228.5</ele>
        <time>2019-06-30T06:50:58.000Z</time>
      </trkpt>
      <trkpt lat="43.1884" lon="2.39338">
        <ele>228.5</ele>
        <time>2019-06-30T06:50:59.000Z</time>
      </trkpt>
      <trkpt lat="43.18839" lon="2.3934">
        <ele>228.6</ele>
        <time>2019-06-30T06:51:00.000Z</time>
      </trkpt>
      <trkpt lat="43.18838" lon="2.39341">
        <ele>228.6</ele>
        <time>2019-06-30T06:51:01.000Z</time>
      </trkpt>
      <trkpt lat="43.18837" lon="2.39343">
        <ele>228.7</ele>
        <time>2019-06-30T06:51:02.000Z</time>
      </trkpt>
      <trkpt lat="43.18835" lon="2.39344">
        <ele>228.7</ele>
        <time>2019-06-30T06:51:03.000Z</time>
      </trkpt>
      <trkpt lat="43.18834" lon="2.39346">
        <ele>228.8</ele>
        <time>2019-06-30T06:51:04.000Z</time>
      </trkpt>
      <trkpt lat="43.18833" lon="2.39348">
        <ele>228.8</ele>
        <time>2019-06-30T06:51:05.000Z</time>
      </trkpt>
      <trkpt lat="43.18832" lon="2.39349">
        <ele>228.7</ele>
        <time>2019-06-30T06:51:06.000Z</time>
      </trkpt>
      <trkpt lat="43.18831" lon="2.39351">
        <ele>228.6</ele>
        <time>2019-06-30T06:51:07.000Z</time>
      </trkpt>
      <trkpt lat="43.1883" lon="2.39353">
        <ele>228.5</ele>
        <time>2019-06-30T06:51:08.000Z</time>
      </trkpt>
      <trkpt lat="43.18829" lon="2.39355">
        <ele>228.4</ele>
        <time>2019-06-30T06:51:09.000Z</time>
      </trkpt>
      <trkpt lat="43.18828" lon="2.39357">
        <ele>228.3</ele>
        <time>2019-06-30T06:51:10.000Z</time>
      </trkpt>
      <trkpt lat="43.18827" lon="2.39359">
        <ele>228.2</ele>
        <time>2019-06-30T06:51:11.000Z</time>
      </trkpt>
      <trkpt lat="43.18827" lon="2.39361">
        <ele>228.1</ele>
        <time>2019-06-30T06:51:12.000Z</time>
      </trkpt>
      <trkpt lat="43.18826" lon="2.39363">
        <ele>228</ele>
        <time>2019-06-30T06:51:13.000Z</time>
      </trkpt>
      <trkpt lat="43.18825" lon="2.39365">
        <ele>228</ele>
        <time>2019-06-30T06:51:14.000Z</time>
      </trkpt>
      <trkpt lat="43.18825" lon="2.39367">
        <ele>227.9</ele>
        <time>2019-06-30T06:51:15.000Z</time>
      </trkpt>
      <trkpt lat="43.18824" lon="2.39369">
        <ele>227.8</ele>
        <time>2019-06-30T06:51:16.000Z</time>
      </trkpt>
      <trkpt lat="43.18824" lon="2.39371">
        <ele>227.8</ele>
        <time>2019-06-30T06:51:17.000Z</time>
      </trkpt>
      <trkpt lat="43.18823" lon="2.39373">
        <ele>227.7</ele>
        <time>2019-06-30T06:51:18.000Z</time>
      </trkpt>
      <trkpt lat="43.18823" lon="2.39375">
        <ele>227.7</ele>
        <time>2019-06-30T06:51:19.000Z</time>
      </trkpt>
      <trkpt lat="43.18823" lon="2.39377">
        <ele>227.6</ele>
        <time>2019-06-30T06:51:20.000Z</time>
      </trkpt>
      <trkpt lat="43.18822" lon="2.39378">
        <ele>227.6</ele>
        <time>2019-06-30T06:51:21.000Z</time>
      </trkpt>
      <trkpt lat="43.18822" lon="2.39379">
        <ele>227.6</ele>
        <time>2019-06-30T06:51:22.000Z</time>
      </trkpt>
      <trkpt lat="43.18822" lon="2.3938">
        <ele>227.6</ele>
        <time>2019-06-30T06:51:23.000Z</time>
      </trkpt>
      <trkpt lat="43.18822" lon="2.3938">
        <ele>227.6</ele>
        <time>2019-06-30T06:51:24.000Z</time>
      </trkpt>
      <trkpt lat="43.18822" lon="2.39379">
        <ele>227.5</ele>
        <time>2019-06-30T06:51:25.000Z</time>
      </trkpt>
      <trkpt lat="43.18821" lon="2.39379">
        <ele>227.5</ele>
        <time>2019-06-30T06:51:26.000Z</time>
      </trkpt>
      <trkpt lat="43.18821" lon="2.39379">
        <ele>227.5</ele>
        <time>2019-06-30T06:51:27.000Z</time>
      </trkpt>
      <trkpt lat="43.1882" lon="2.39379">
        <ele>227.5</ele>
        <time>2019-06-30T06:51:28.000Z</time>
      </trkpt>
      <trkpt lat="43.1882" lon="2.3938">
        <ele>227.4</ele>
        <time>2019-06-30T06:51:29.000Z</time>
      </trkpt>
      <trkpt lat="43.1882" lon="2.39381">
        <ele>227.4</ele>
        <time>2019-06-30T06:51:30.000Z</time>
      </trkpt>
      <trkpt lat="43.18819" lon="2.39383">
        <ele>227.4</ele>
        <time>2019-06-30T06:51:31.000Z</time>
      </trkpt>
      <trkpt lat="43.18819" lon="2.39384">
        <ele>227.3</ele>
        <time>2019-06-30T06:51:32.000Z</time>
      </trkpt>
      <trkpt lat="43.18819" lon="2.39386">
        <ele>227.3</ele>
        <time>2019-06-30T06:51:33.000Z</time>
      </trkpt>
      <trkpt lat="43.18819" lon="2.39388">
        <ele>227.3</ele>
        <time>2019-06-30T06:51:34.000Z</time>
      </trkpt>
      <trkpt lat="43.18819" lon="2.39389">
        <ele>227.3</ele>
        <time>2019-06-30T06:51:35.000Z</time>
      </trkpt>
      <trkpt lat="43.18819" lon="2.39391">
        <ele>227.3</ele>
        <time>2019-06-30T06:51:36.000Z</time>
      </trkpt>
      <trkpt lat="43.18819" lon="2.39392">
        <ele>227.3</ele>
        <time>2019-06-30T06:51:37.000Z</time>
      </trkpt>
      <trkpt lat="43.18818" lon="2.39394">
        <ele>227.2</ele>
        <time>2019-06-30T06:51:38.000Z</time>
      </trkpt>
      <trkpt lat="43.18818" lon="2.39396">
        <ele>227.2</ele>
        <time>2019-06-30T06:51:39.000Z</time>
      </trkpt>
      <trkpt lat="43.18817" lon="2.39397">
        <ele>227.1</ele>
        <time>2019-06-30T06:51:40.000Z</time>
      </trkpt>
      <trkpt lat="43.18816" lon="2.39399">
        <ele>227</ele>
        <time>2019-06-30T06:51:41.000Z</time>
      </trkpt>
      <trkpt lat="43.18815" lon="2.394">
        <ele>227</ele>
        <time>2019-06-30T06:51:42.000Z</time>
      </trkpt>
      <trkpt lat="43.18814" lon="2.39402">
        <ele>226.9</ele>
        <time>2019-06-30T06:51:43.000Z</time>
      </trkpt>
      <trkpt lat="43.18813" lon="2.39403">
        <ele>226.8</ele>
        <time>2019-06-30T06:51:44.000Z</time>
      </trkpt>
      <trkpt lat="43.18813" lon="2.39405">
        <ele>226.8</ele>
        <time>2019-06-30T06:51:45.000Z</time>
      </trkpt>
      <trkpt lat="43.18812" lon="2.39406">
        <ele>226.7</ele>
        <time>2019-06-30T06:51:46.000Z</time>
      </trkpt>
      <trkpt lat="43.18811" lon="2.39408">
        <ele>226.7</ele>
        <time>2019-06-30T06:51:47.000Z</time>
      </trkpt>
      <trkpt lat="43.18811" lon="2.39409">
        <ele>226.7</ele>
        <time>2019-06-30T06:51:48.000Z</time>
      </trkpt>
      <trkpt lat="43.1881" lon="2.39411">
        <ele>226.6</ele>
        <time>2019-06-30T06:51:49.000Z</time>
      </trkpt>
      <trkpt lat="43.18809" lon="2.39412">
        <ele>226.6</ele>
        <time>2019-06-30T06:51:50.000Z</time>
      </trkpt>
      <trkpt lat="43.18809" lon="2.39414">
        <ele>226.5</ele>
        <time>2019-06-30T06:51:51.000Z</time>
      </trkpt>
      <trkpt lat="43.18808" lon="2.39415">
        <ele>226.5</ele>
        <time>2019-06-30T06:51:52.000Z</time>
      </trkpt>
      <trkpt lat="43.18807" lon="2.39417">
        <ele>226.4</ele>
        <time>2019-06-30T06:51:53.000Z</time>
      </trkpt>
      <trkpt lat="43.18806" lon="2.39419">
        <ele>226.4</ele>
        <time>2019-06-30T06:51:54.000Z</time>
      </trkpt>
      <trkpt lat="43.18806" lon="2.39421">
        <ele>226.4</ele>
        <time>2019-06-30T06:51:55.000Z</time>
      </trkpt>
      <trkpt lat="43.18805" lon="2.39423">
        <ele>226.4</ele>
        <time>2019-06-30T06:51:56.000Z</time>
      </trkpt>
      <trkpt lat="43.18804" lon="2.39425">
        <ele>226.4</ele>
        <time>2019-06-30T06:51:57.000Z</time>
      </trkpt>
      <trkpt lat="43.18803" lon="2.39427">
        <ele>226.4</ele>
        <time>2019-06-30T06:51:58.000Z</time>
      </trkpt>
      <trkpt lat="43.18803" lon="2.3943">
        <ele>226.4</ele>
        <time>2019-06-30T06:51:59.000Z</time>
      </trkpt>
      <trkpt lat="43.18802" lon="2.39432">
        <ele>226.4</ele>
        <time>2019-06-30T06:52:00.000Z</time>
      </trkpt>
      <trkpt lat="43.18802" lon="2.39436">
        <ele>226.5</ele>
        <time>2019-06-30T06:52:01.000Z</time>
      </trkpt>
      <trkpt lat="43.18802" lon="2.39439">
        <ele>226.5</ele>
        <time>2019-06-30T06:52:02.000Z</time>
      </trkpt>
      <trkpt lat="43.18802" lon="2.39442">
        <ele>226.6</ele>
        <time>2019-06-30T06:52:03.000Z</time>
      </trkpt>
      <trkpt lat="43.18802" lon="2.39446">
        <ele>226.6</ele>
        <time>2019-06-30T06:52:04.000Z</time>
      </trkpt>
      <trkpt lat="43.18802" lon="2.39449">
        <ele>226.7</ele>
        <time>2019-06-30T06:52:05.000Z</time>
      </trkpt>
      <trkpt lat="43.18803" lon="2.39452">
        <ele>226.8</ele>
        <time>2019-06-30T06:52:06.000Z</time>
      </trkpt>
      <trkpt lat="43.18803" lon="2.39456">
        <ele>226.9</ele>
        <time>2019-06-30T06:52:07.000Z</time>
      </trkpt>
      <trkpt lat="43.18803" lon="2.39459">
        <ele>226.9</ele>
        <time>2019-06-30T06:52:08.000Z</time>
      </trkpt>
      <trkpt lat="43.18803" lon="2.39462">
        <ele>227</ele>
        <time>2019-06-30T06:52:09.000Z</time>
      </trkpt>
      <trkpt lat="43.18804" lon="2.39465">
        <ele>227</ele>
        <time>2019-06-30T06:52:10.000Z</time>
      </trkpt>
      <trkpt lat="43.18804" lon="2.39468">
        <ele>227.1</ele>
        <time>2019-06-30T06:52:11.000Z</time>
      </trkpt>
      <trkpt lat="43.18804" lon="2.39471">
        <ele>227.1</ele>
        <time>2019-06-30T06:52:12.000Z</time>
      </trkpt>
      <trkpt lat="43.18803" lon="2.39474">
        <ele>227.2</ele>
        <time>2019-06-30T06:52:13.000Z</time>
      </trkpt>
      <trkpt lat="43.18803" lon="2.39477">
        <ele>227.2</ele>
        <time>2019-06-30T06:52:14.000Z</time>
      </trkpt>
      <trkpt lat="43.18803" lon="2.39481">
        <ele>227.3</ele>
        <time>2019-06-30T06:52:15.000Z</time>
      </trkpt>
      <trkpt lat="43.18802" lon="2.39484">
        <ele>227.3</ele>
        <time>2019-06-30T06:52:16.000Z</time>
      </trkpt>
      <trkpt lat="43.18802" lon="2.39487">
        <ele>227.4</ele>
        <time>2019-06-30T06:52:17.000Z</time>
      </trkpt>
      <trkpt lat="43.18801" lon="2.3949">
        <ele>227.4</ele>
        <time>2019-06-30T06:52:18.000Z</time>
      </trkpt>
      <trkpt lat="43.18801" lon="2.39494">
        <ele>227.5</ele>
        <time>2019-06-30T06:52:19.000Z</time>
      </trkpt>
      <trkpt lat="43.188" lon="2.39497">
        <ele>227.5</ele>
        <time>2019-06-30T06:52:20.000Z</time>
      </trkpt>
      <trkpt lat="43.188" lon="2.39499">
        <ele>227.6</ele>
        <time>2019-06-30T06:52:21.000Z</time>
      </trkpt>
      <trkpt lat="43.18799" lon="2.39502">
        <ele>227.6</ele>
        <time>2019-06-30T06:52:22.000Z</time>
      </trkpt>
      <trkpt lat="43.18799" lon="2.39504">
        <ele>227.6</ele>
        <time>2019-06-30T06:52:23.000Z</time>
      </trkpt>
      <trkpt lat="43.18799" lon="2.39507">
        <ele>227.5</ele>
        <time>2019-06-30T06:52:24.000Z</time>
      </trkpt>
      <trkpt lat="43.18799" lon="2.39509">
        <ele>227.5</ele>
        <time>2019-06-30T06:52:25.000Z</time>
      </trkpt>
      <trkpt lat="43.18799" lon="2.39511">
        <ele>227.5</ele>
        <time>2019-06-30T06:52:26.000Z</time>
      </trkpt>
      <trkpt lat="43.18799" lon="2.39513">
        <ele>227.5</ele>
        <time>2019-06-30T06:52:27.000Z</time>
      </trkpt>
      <trkpt lat="43.18798" lon="2.39516">
        <ele>227.5</ele>
        <time>2019-06-30T06:52:28.000Z</time>
      </trkpt>
      <trkpt lat="43.18799" lon="2.39518">
        <ele>227.5</ele>
        <time>2019-06-30T06:52:29.000Z</time>
      </trkpt>
      <trkpt lat="43.18799" lon="2.3952">
        <ele>227.5</ele>
        <time>2019-06-30T06:52:30.000Z</time>
      </trkpt>
      <trkpt lat="43.18798" lon="2.39522">
        <ele>227.5</ele>
        <time>2019-06-30T06:52:31.000Z</time>
      </trkpt>
      <trkpt lat="43.18798" lon="2.39525">
        <ele>227.4</ele>
        <time>2019-06-30T06:52:32.000Z</time>
      </trkpt>
      <trkpt lat="43.18798" lon="2.39527">
        <ele>227.4</ele>
        <time>2019-06-30T06:52:33.000Z</time>
      </trkpt>
      <trkpt lat="43.18798" lon="2.39529">
        <ele>227.4</ele>
        <time>2019-06-30T06:52:34.000Z</time>
      </trkpt>
      <trkpt lat="43.18797" lon="2.39531">
        <ele>227.4</ele>
        <time>2019-06-30T06:52:35.000Z</time>
      </trkpt>
      <trkpt lat="43.18796" lon="2.39533">
        <ele>227.4</ele>
        <time>2019-06-30T06:52:36.000Z</time>
      </trkpt>
      <trkpt lat="43.18795" lon="2.39535">
        <ele>227.4</ele>
        <time>2019-06-30T06:52:37.000Z</time>
      </trkpt>
      <trkpt lat="43.18794" lon="2.39537">
        <ele>227.5</ele>
        <time>2019-06-30T06:52:38.000Z</time>
      </trkpt>
      <trkpt lat="43.18792" lon="2.3954">
        <ele>227.5</ele>
        <time>2019-06-30T06:52:39.000Z</time>
      </trkpt>
      <trkpt lat="43.1879" lon="2.39542">
        <ele>227.5</ele>
        <time>2019-06-30T06:52:40.000Z</time>
      </trkpt>
      <trkpt lat="43.18789" lon="2.39544">
        <ele>227.6</ele>
        <time>2019-06-30T06:52:41.000Z</time>
      </trkpt>
      <trkpt lat="43.18787" lon="2.39546">
        <ele>227.6</ele>
        <time>2019-06-30T06:52:42.000Z</time>
      </trkpt>
      <trkpt lat="43.18785" lon="2.39548">
        <ele>227.7</ele>
        <time>2019-06-30T06:52:43.000Z</time>
      </trkpt>
      <trkpt lat="43.18783" lon="2.3955">
        <ele>227.8</ele>
        <time>2019-06-30T06:52:44.000Z</time>
      </trkpt>
      <trkpt lat="43.18781" lon="2.39552">
        <ele>227.9</ele>
        <time>2019-06-30T06:52:45.000Z</time>
      </trkpt>
      <trkpt lat="43.18779" lon="2.39554">
        <ele>228</ele>
        <time>2019-06-30T06:52:46.000Z</time>
      </trkpt>
      <trkpt lat="43.18777" lon="2.39556">
        <ele>228</ele>
        <time>2019-06-30T06:52:47.000Z</time>
      </trkpt>
      <trkpt lat="43.18775" lon="2.39558">
        <ele>228.2</ele>
        <time>2019-06-30T06:52:48.000Z</time>
      </trkpt>
      <trkpt lat="43.18773" lon="2.3956">
        <ele>228.3</ele>
        <time>2019-06-30T06:52:49.000Z</time>
      </trkpt>
      <trkpt lat="43.18771" lon="2.39562">
        <ele>228.4</ele>
        <time>2019-06-30T06:52:50.000Z</time>
      </trkpt>
      <trkpt lat="43.18769" lon="2.39565">
        <ele>228.5</ele>
        <time>2019-06-30T06:52:51.000Z</time>
      </trkpt>
      <trkpt lat="43.18767" lon="2.39567">
        <ele>228.6</ele>
        <time>2019-06-30T06:52:52.000Z</time>
      </trkpt>
      <trkpt lat="43.18766" lon="2.39569">
        <ele>228.7</ele>
        <time>2019-06-30T06:52:53.000Z</time>
      </trkpt>
      <trkpt lat="43.18764" lon="2.39571">
        <ele>228.9</ele>
        <time>2019-06-30T06:52:54.000Z</time>
      </trkpt>
      <trkpt lat="43.18762" lon="2.39573">
        <ele>229</ele>
        <time>2019-06-30T06:52:55.000Z</time>
      </trkpt>
      <trkpt lat="43.18761" lon="2.39575">
        <ele>229.1</ele>
        <time>2019-06-30T06:52:56.000Z</time>
      </trkpt>
      <trkpt lat="43.18759" lon="2.39577">
        <ele>229.3</ele>
        <time>2019-06-30T06:52:57.000Z</time>
      </trkpt>
      <trkpt lat="43.18757" lon="2.39578">
        <ele>229.4</ele>
        <time>2019-06-30T06:52:58.000Z</time>
      </trkpt>
      <trkpt lat="43.18755" lon="2.3958">
        <ele>229.6</ele>
        <time>2019-06-30T06:52:59.000Z</time>
      </trkpt>
      <trkpt lat="43.18754" lon="2.39581">
        <ele>229.7</ele>
        <time>2019-06-30T06:53:00.000Z</time>
      </trkpt>
      <trkpt lat="43.18752" lon="2.39582">
        <ele>229.8</ele>
        <time>2019-06-30T06:53:01.000Z</time>
      </trkpt>
      <trkpt lat="43.18751" lon="2.39582">
        <ele>229.9</ele>
        <time>2019-06-30T06:53:02.000Z</time>
      </trkpt>
      <trkpt lat="43.18749" lon="2.39583">
        <ele>229.9</ele>
        <time>2019-06-30T06:53:03.000Z</time>
      </trkpt>
      <trkpt lat="43.18748" lon="2.39584">
        <ele>229.9</ele>
        <time>2019-06-30T06:53:04.000Z</time>
      </trkpt>
      <trkpt lat="43.18747" lon="2.39584">
        <ele>229.8</ele>
        <time>2019-06-30T06:53:05.000Z</time>
      </trkpt>
      <trkpt lat="43.18746" lon="2.39585">
        <ele>229.7</ele>
        <time>2019-06-30T06:53:06.000Z</time>
      </trkpt>
      <trkpt lat="43.18744" lon="2.39586">
        <ele>229.7</ele>
        <time>2019-06-30T06:53:07.000Z</time>
      </trkpt>
      <trkpt lat="43.18743" lon="2.39587">
        <ele>229.6</ele>
        <time>2019-06-30T06:53:08.000Z</time>
      </trkpt>
      <trkpt lat="43.18743" lon="2.39588">
        <ele>229.6</ele>
        <time>2019-06-30T06:53:09.000Z</time>
      </trkpt>
      <trkpt lat="43.18742" lon="2.39589">
        <ele>229.5</ele>
        <time>2019-06-30T06:53:10.000Z</time>
      </trkpt>
      <trkpt lat="43.1874" lon="2.3959">
        <ele>229.4</ele>
        <time>2019-06-30T06:53:11.000Z</time>
      </trkpt>
      <trkpt lat="43.18739" lon="2.39592">
        <ele>229.4</ele>
        <time>2019-06-30T06:53:12.000Z</time>
      </trkpt>
      <trkpt lat="43.18738" lon="2.39594">
        <ele>229.3</ele>
        <time>2019-06-30T06:53:13.000Z</time>
      </trkpt>
      <trkpt lat="43.18737" lon="2.39596">
        <ele>229.3</ele>
        <time>2019-06-30T06:53:14.000Z</time>
      </trkpt>
      <trkpt lat="43.18737" lon="2.39598">
        <ele>229.2</ele>
        <time>2019-06-30T06:53:15.000Z</time>
      </trkpt>
      <trkpt lat="43.18736" lon="2.396">
        <ele>229.2</ele>
        <time>2019-06-30T06:53:16.000Z</time>
      </trkpt>
      <trkpt lat="43.18735" lon="2.39602">
        <ele>229.2</ele>
        <time>2019-06-30T06:53:17.000Z</time>
      </trkpt>
      <trkpt lat="43.18735" lon="2.39604">
        <ele>229.2</ele>
        <time>2019-06-30T06:53:18.000Z</time>
      </trkpt>
      <trkpt lat="43.18734" lon="2.39606">
        <ele>229.2</ele>
        <time>2019-06-30T06:53:19.000Z</time>
      </trkpt>
      <trkpt lat="43.18734" lon="2.39608">
        <ele>229.1</ele>
        <time>2019-06-30T06:53:20.000Z</time>
      </trkpt>
      <trkpt lat="43.18734" lon="2.39611">
        <ele>229.1</ele>
        <time>2019-06-30T06:53:21.000Z</time>
      </trkpt>
      <trkpt lat="43.18734" lon="2.39613">
        <ele>229.1</ele>
        <time>2019-06-30T06:53:22.000Z</time>
      </trkpt>
      <trkpt lat="43.18733" lon="2.39615">
        <ele>229.2</ele>
        <time>2019-06-30T06:53:23.000Z</time>
      </trkpt>
      <trkpt lat="43.18734" lon="2.39617">
        <ele>229.2</ele>
        <time>2019-06-30T06:53:24.000Z</time>
      </trkpt>
      <trkpt lat="43.18734" lon="2.39619">
        <ele>229.2</ele>
        <time>2019-06-30T06:53:25.000Z</time>
      </trkpt>
      <trkpt lat="43.18734" lon="2.3962">
        <ele>229.2</ele>
        <time>2019-06-30T06:53:26.000Z</time>
      </trkpt>
      <trkpt lat="43.18734" lon="2.39622">
        <ele>229.2</ele>
        <time>2019-06-30T06:53:27.000Z</time>
      </trkpt>
      <trkpt lat="43.18734" lon="2.39624">
        <ele>229.2</ele>
        <time>2019-06-30T06:53:28.000Z</time>
      </trkpt>
      <trkpt lat="43.18734" lon="2.39626">
        <ele>229.2</ele>
        <time>2019-06-30T06:53:29.000Z</time>
      </trkpt>
      <trkpt lat="43.18734" lon="2.39628">
        <ele>229.3</ele>
        <time>2019-06-30T06:53:30.000Z</time>
      </trkpt>
      <trkpt lat="43.18734" lon="2.3963">
        <ele>229.3</ele>
        <time>2019-06-30T06:53:31.000Z</time>
      </trkpt>
      <trkpt lat="43.18734" lon="2.39632">
        <ele>229.3</ele>
        <time>2019-06-30T06:53:32.000Z</time>
      </trkpt>
      <trkpt lat="43.18734" lon="2.39633">
        <ele>229.3</ele>
        <time>2019-06-30T06:53:33.000Z</time>
      </trkpt>
      <trkpt lat="43.18734" lon="2.39635">
        <ele>229.3</ele>
        <time>2019-06-30T06:53:34.000Z</time>
      </trkpt>
      <trkpt lat="43.18734" lon="2.39637">
        <ele>229.3</ele>
        <time>2019-06-30T06:53:35.000Z</time>
      </trkpt>
      <trkpt lat="43.18734" lon="2.39639">
        <ele>229.3</ele>
        <time>2019-06-30T06:53:36.000Z</time>
      </trkpt>
      <trkpt lat="43.18734" lon="2.39642">
        <ele>229.3</ele>
        <time>2019-06-30T06:53:37.000Z</time>
      </trkpt>
      <trkpt lat="43.18734" lon="2.39644">
        <ele>229.3</ele>
        <time>2019-06-30T06:53:38.000Z</time>
      </trkpt>
      <trkpt lat="43.18734" lon="2.39646">
        <ele>229.3</ele>
        <time>2019-06-30T06:53:39.000Z</time>
      </trkpt>
      <trkpt lat="43.18734" lon="2.39649">
        <ele>229.3</ele>
        <time>2019-06-30T06:53:40.000Z</time>
      </trkpt>
      <trkpt lat="43.18734" lon="2.39652">
        <ele>229.3</ele>
        <time>2019-06-30T06:53:41.000Z</time>
      </trkpt>
      <trkpt lat="43.18733" lon="2.39655">
        <ele>229.3</ele>
        <time>2019-06-30T06:53:42.000Z</time>
      </trkpt>
      <trkpt lat="43.18733" lon="2.39658">
        <ele>229.3</ele>
        <time>2019-06-30T06:53:43.000Z</time>
      </trkpt>
      <trkpt lat="43.18732" lon="2.39661">
        <ele>229.3</ele>
        <time>2019-06-30T06:53:44.000Z</time>
      </trkpt>
      <trkpt lat="43.18732" lon="2.39663">
        <ele>229.3</ele>
        <time>2019-06-30T06:53:45.000Z</time>
      </trkpt>
      <trkpt lat="43.18731" lon="2.39666">
        <ele>229.3</ele>
        <time>2019-06-30T06:53:46.000Z</time>
      </trkpt>
      <trkpt lat="43.18729" lon="2.39668">
        <ele>229.2</ele>
        <time>2019-06-30T06:53:47.000Z</time>
      </trkpt>
      <trkpt lat="43.18728" lon="2.39671">
        <ele>229.1</ele>
        <time>2019-06-30T06:53:48.000Z</time>
      </trkpt>
      <trkpt lat="43.18726" lon="2.39673">
        <ele>228.9</ele>
        <time>2019-06-30T06:53:49.000Z</time>
      </trkpt>
      <trkpt lat="43.18725" lon="2.39675">
        <ele>228.8</ele>
        <time>2019-06-30T06:53:50.000Z</time>
      </trkpt>
      <trkpt lat="43.18723" lon="2.39677">
        <ele>228.7</ele>
        <time>2019-06-30T06:53:51.000Z</time>
      </trkpt>
      <trkpt lat="43.18721" lon="2.39679">
        <ele>228.6</ele>
        <time>2019-06-30T06:53:52.000Z</time>
      </trkpt>
      <trkpt lat="43.1872" lon="2.39681">
        <ele>228.4</ele>
        <time>2019-06-30T06:53:53.000Z</time>
      </trkpt>
      <trkpt lat="43.18718" lon="2.39683">
        <ele>228.3</ele>
        <time>2019-06-30T06:53:54.000Z</time>
      </trkpt>
      <trkpt lat="43.18716" lon="2.39685">
        <ele>228.2</ele>
        <time>2019-06-30T06:53:55.000Z</time>
      </trkpt>
      <trkpt lat="43.18714" lon="2.39687">
        <ele>228.1</ele>
        <time>2019-06-30T06:53:56.000Z</time>
      </trkpt>
      <trkpt lat="43.18713" lon="2.3969">
        <ele>228</ele>
        <time>2019-06-30T06:53:57.000Z</time>
      </trkpt>
      <trkpt lat="43.18711" lon="2.39692">
        <ele>227.8</ele>
        <time>2019-06-30T06:53:58.000Z</time>
      </trkpt>
      <trkpt lat="43.1871" lon="2.39695">
        <ele>227.7</ele>
        <time>2019-06-30T06:53:59.000Z</time>
      </trkpt>
      <trkpt lat="43.18708" lon="2.39698">
        <ele>227.6</ele>
        <time>2019-06-30T06:54:00.000Z</time>
      </trkpt>
      <trkpt lat="43.18707" lon="2.39701">
        <ele>227.4</ele>
        <time>2019-06-30T06:54:01.000Z</time>
      </trkpt>
      <trkpt lat="43.18706" lon="2.39705">
        <ele>227.3</ele>
        <time>2019-06-30T06:54:02.000Z</time>
      </trkpt>
      <trkpt lat="43.18705" lon="2.39709">
        <ele>227.1</ele>
        <time>2019-06-30T06:54:03.000Z</time>
      </trkpt>
      <trkpt lat="43.18704" lon="2.39712">
        <ele>227</ele>
        <time>2019-06-30T06:54:04.000Z</time>
      </trkpt>
      <trkpt lat="43.18704" lon="2.39716">
        <ele>226.9</ele>
        <time>2019-06-30T06:54:05.000Z</time>
      </trkpt>
      <trkpt lat="43.18704" lon="2.39719">
        <ele>226.8</ele>
        <time>2019-06-30T06:54:06.000Z</time>
      </trkpt>
      <trkpt lat="43.18703" lon="2.39722">
        <ele>226.7</ele>
        <time>2019-06-30T06:54:07.000Z</time>
      </trkpt>
      <trkpt lat="43.18704" lon="2.39725">
        <ele>226.6</ele>
        <time>2019-06-30T06:54:08.000Z</time>
      </trkpt>
      <trkpt lat="43.18704" lon="2.39728">
        <ele>226.5</ele>
        <time>2019-06-30T06:54:09.000Z</time>
      </trkpt>
      <trkpt lat="43.18704" lon="2.3973">
        <ele>226.5</ele>
        <time>2019-06-30T06:54:10.000Z</time>
      </trkpt>
      <trkpt lat="43.18705" lon="2.39733">
        <ele>226.4</ele>
        <time>2019-06-30T06:54:11.000Z</time>
      </trkpt>
      <trkpt lat="43.18705" lon="2.39735">
        <ele>226.4</ele>
        <time>2019-06-30T06:54:12.000Z</time>
      </trkpt>
      <trkpt lat="43.18706" lon="2.39738">
        <ele>226.3</ele>
        <time>2019-06-30T06:54:13.000Z</time>
      </trkpt>
      <trkpt lat="43.18706" lon="2.3974">
        <ele>226.2</ele>
        <time>2019-06-30T06:54:14.000Z</time>
      </trkpt>
      <trkpt lat="43.18707" lon="2.39743">
        <ele>226.2</ele>
        <time>2019-06-30T06:54:15.000Z</time>
      </trkpt>
      <trkpt lat="43.18707" lon="2.39746">
        <ele>226.1</ele>
        <time>2019-06-30T06:54:16.000Z</time>
      </trkpt>
      <trkpt lat="43.18708" lon="2.39749">
        <ele>226</ele>
        <time>2019-06-30T06:54:17.000Z</time>
      </trkpt>
      <trkpt lat="43.18709" lon="2.39752">
        <ele>225.9</ele>
        <time>2019-06-30T06:54:18.000Z</time>
      </trkpt>
      <trkpt lat="43.18709" lon="2.39755">
        <ele>225.7</ele>
        <time>2019-06-30T06:54:19.000Z</time>
      </trkpt>
      <trkpt lat="43.1871" lon="2.39758">
        <ele>225.5</ele>
        <time>2019-06-30T06:54:20.000Z</time>
      </trkpt>
      <trkpt lat="43.18711" lon="2.39762">
        <ele>225.3</ele>
        <time>2019-06-30T06:54:21.000Z</time>
      </trkpt>
      <trkpt lat="43.18712" lon="2.39765">
        <ele>225.1</ele>
        <time>2019-06-30T06:54:22.000Z</time>
      </trkpt>
      <trkpt lat="43.18713" lon="2.39769">
        <ele>224.9</ele>
        <time>2019-06-30T06:54:23.000Z</time>
      </trkpt>
      <trkpt lat="43.18714" lon="2.39773">
        <ele>224.7</ele>
        <time>2019-06-30T06:54:24.000Z</time>
      </trkpt>
      <trkpt lat="43.18715" lon="2.39776">
        <ele>224.5</ele>
        <time>2019-06-30T06:54:25.000Z</time>
      </trkpt>
      <trkpt lat="43.18717" lon="2.3978">
        <ele>224.3</ele>
        <time>2019-06-30T06:54:26.000Z</time>
      </trkpt>
      <trkpt lat="43.18719" lon="2.39784">
        <ele>224</ele>
        <time>2019-06-30T06:54:27.000Z</time>
      </trkpt>
      <trkpt lat="43.18721" lon="2.39788">
        <ele>223.8</ele>
        <time>2019-06-30T06:54:28.000Z</time>
      </trkpt>
      <trkpt lat="43.18723" lon="2.39792">
        <ele>223.5</ele>
        <time>2019-06-30T06:54:29.000Z</time>
      </trkpt>
      <trkpt lat="43.18725" lon="2.39796">
        <ele>223.2</ele>
        <time>2019-06-30T06:54:30.000Z</time>
      </trkpt>
      <trkpt lat="43.18727" lon="2.39799">
        <ele>223</ele>
        <time>2019-06-30T06:54:31.000Z</time>
      </trkpt>
      <trkpt lat="43.18729" lon="2.39803">
        <ele>222.7</ele>
        <time>2019-06-30T06:54:32.000Z</time>
      </trkpt>
      <trkpt lat="43.1873" lon="2.39807">
        <ele>222.4</ele>
        <time>2019-06-30T06:54:33.000Z</time>
      </trkpt>
      <trkpt lat="43.1873" lon="2.3981">
        <ele>222.2</ele>
        <time>2019-06-30T06:54:34.000Z</time>
      </trkpt>
      <trkpt lat="43.1873" lon="2.39813">
        <ele>222</ele>
        <time>2019-06-30T06:54:35.000Z</time>
      </trkpt>
      <trkpt lat="43.18729" lon="2.39815">
        <ele>221.8</ele>
        <time>2019-06-30T06:54:36.000Z</time>
      </trkpt>
      <trkpt lat="43.18729" lon="2.39817">
        <ele>221.7</ele>
        <time>2019-06-30T06:54:37.000Z</time>
      </trkpt>
      <trkpt lat="43.18728" lon="2.39819">
        <ele>221.5</ele>
        <time>2019-06-30T06:54:38.000Z</time>
      </trkpt>
      <trkpt lat="43.18727" lon="2.39821">
        <ele>221.4</ele>
        <time>2019-06-30T06:54:39.000Z</time>
      </trkpt>
      <trkpt lat="43.18725" lon="2.39823">
        <ele>221.3</ele>
        <time>2019-06-30T06:54:40.000Z</time>
      </trkpt>
      <trkpt lat="43.18724" lon="2.39825">
        <ele>221.2</ele>
        <time>2019-06-30T06:54:41.000Z</time>
      </trkpt>
      <trkpt lat="43.18723" lon="2.39827">
        <ele>221.1</ele>
        <time>2019-06-30T06:54:42.000Z</time>
      </trkpt>
      <trkpt lat="43.18722" lon="2.3983">
        <ele>220.9</ele>
        <time>2019-06-30T06:54:43.000Z</time>
      </trkpt>
      <trkpt lat="43.18721" lon="2.39832">
        <ele>220.8</ele>
        <time>2019-06-30T06:54:44.000Z</time>
      </trkpt>
      <trkpt lat="43.18721" lon="2.39835">
        <ele>220.6</ele>
        <time>2019-06-30T06:54:45.000Z</time>
      </trkpt>
      <trkpt lat="43.1872" lon="2.39839">
        <ele>220.4</ele>
        <time>2019-06-30T06:54:46.000Z</time>
      </trkpt>
      <trkpt lat="43.18719" lon="2.39842">
        <ele>220.1</ele>
        <time>2019-06-30T06:54:47.000Z</time>
      </trkpt>
      <trkpt lat="43.18719" lon="2.39845">
        <ele>219.9</ele>
        <time>2019-06-30T06:54:48.000Z</time>
      </trkpt>
      <trkpt lat="43.18718" lon="2.39849">
        <ele>219.7</ele>
        <time>2019-06-30T06:54:49.000Z</time>
      </trkpt>
      <trkpt lat="43.18717" lon="2.39852">
        <ele>219.5</ele>
        <time>2019-06-30T06:54:50.000Z</time>
      </trkpt>
      <trkpt lat="43.18717" lon="2.39856">
        <ele>219.2</ele>
        <time>2019-06-30T06:54:51.000Z</time>
      </trkpt>
      <trkpt lat="43.18716" lon="2.39859">
        <ele>219</ele>
        <time>2019-06-30T06:54:52.000Z</time>
      </trkpt>
      <trkpt lat="43.18715" lon="2.39863">
        <ele>218.8</ele>
        <time>2019-06-30T06:54:53.000Z</time>
      </trkpt>
      <trkpt lat="43.18715" lon="2.39866">
        <ele>218.6</ele>
        <time>2019-06-30T06:54:54.000Z</time>
      </trkpt>
      <trkpt lat="43.18715" lon="2.39869">
        <ele>218.4</ele>
        <time>2019-06-30T06:54:55.000Z</time>
      </trkpt>
      <trkpt lat="43.18715" lon="2.39872">
        <ele>218.2</ele>
        <time>2019-06-30T06:54:56.000Z</time>
      </trkpt>
      <trkpt lat="43.18715" lon="2.39874">
        <ele>218</ele>
        <time>2019-06-30T06:54:57.000Z</time>
      </trkpt>
      <trkpt lat="43.18716" lon="2.39877">
        <ele>217.8</ele>
        <time>2019-06-30T06:54:58.000Z</time>
      </trkpt>
      <trkpt lat="43.18718" lon="2.39879">
        <ele>217.6</ele>
        <time>2019-06-30T06:54:59.000Z</time>
      </trkpt>
      <trkpt lat="43.18719" lon="2.39881">
        <ele>217.4</ele>
        <time>2019-06-30T06:55:00.000Z</time>
      </trkpt>
      <trkpt lat="43.18721" lon="2.39882">
        <ele>217.2</ele>
        <time>2019-06-30T06:55:01.000Z</time>
      </trkpt>
      <trkpt lat="43.18723" lon="2.39884">
        <ele>217</ele>
        <time>2019-06-30T06:55:02.000Z</time>
      </trkpt>
      <trkpt lat="43.18725" lon="2.39886">
        <ele>216.8</ele>
        <time>2019-06-30T06:55:03.000Z</time>
      </trkpt>
      <trkpt lat="43.18727" lon="2.39887">
        <ele>216.5</ele>
        <time>2019-06-30T06:55:04.000Z</time>
      </trkpt>
      <trkpt lat="43.1873" lon="2.39889">
        <ele>216.3</ele>
        <time>2019-06-30T06:55:05.000Z</time>
      </trkpt>
      <trkpt lat="43.18732" lon="2.39891">
        <ele>216</ele>
        <time>2019-06-30T06:55:06.000Z</time>
      </trkpt>
      <trkpt lat="43.18735" lon="2.39893">
        <ele>215.8</ele>
        <time>2019-06-30T06:55:07.000Z</time>
      </trkpt>
      <trkpt lat="43.18737" lon="2.39895">
        <ele>215.5</ele>
        <time>2019-06-30T06:55:08.000Z</time>
      </trkpt>
      <trkpt lat="43.18739" lon="2.39898">
        <ele>215.2</ele>
        <time>2019-06-30T06:55:09.000Z</time>
      </trkpt>
      <trkpt lat="43.1874" lon="2.39901">
        <ele>214.9</ele>
        <time>2019-06-30T06:55:10.000Z</time>
      </trkpt>
      <trkpt lat="43.18741" lon="2.39904">
        <ele>214.5</ele>
        <time>2019-06-30T06:55:11.000Z</time>
      </trkpt>
      <trkpt lat="43.18742" lon="2.39908">
        <ele>214.2</ele>
        <time>2019-06-30T06:55:12.000Z</time>
      </trkpt>
      <trkpt lat="43.18742" lon="2.39912">
        <ele>213.9</ele>
        <time>2019-06-30T06:55:13.000Z</time>
      </trkpt>
      <trkpt lat="43.18742" lon="2.39915">
        <ele>213.6</ele>
        <time>2019-06-30T06:55:14.000Z</time>
      </trkpt>
      <trkpt lat="43.18742" lon="2.39919">
        <ele>213.4</ele>
        <time>2019-06-30T06:55:15.000Z</time>
      </trkpt>
      <trkpt lat="43.18742" lon="2.39923">
        <ele>213.4</ele>
        <time>2019-06-30T06:55:16.000Z</time>
      </trkpt>
      <trkpt lat="43.18742" lon="2.39927">
        <ele>213.4</ele>
        <time>2019-06-30T06:55:17.000Z</time>
      </trkpt>
      <trkpt lat="43.18742" lon="2.3993">
        <ele>213.3</ele>
        <time>2019-06-30T06:55:18.000Z</time>
      </trkpt>
      <trkpt lat="43.18743" lon="2.39933">
        <ele>213.3</ele>
        <time>2019-06-30T06:55:19.000Z</time>
      </trkpt>
      <trkpt lat="43.18743" lon="2.39936">
        <ele>213.2</ele>
        <time>2019-06-30T06:55:20.000Z</time>
      </trkpt>
      <trkpt lat="43.18744" lon="2.39938">
        <ele>213.1</ele>
        <time>2019-06-30T06:55:21.000Z</time>
      </trkpt>
      <trkpt lat="43.18745" lon="2.39941">
        <ele>213.1</ele>
        <time>2019-06-30T06:55:22.000Z</time>
      </trkpt>
      <trkpt lat="43.18746" lon="2.39944">
        <ele>213</ele>
        <time>2019-06-30T06:55:23.000Z</time>
      </trkpt>
      <trkpt lat="43.18747" lon="2.39947">
        <ele>212.8</ele>
        <time>2019-06-30T06:55:24.000Z</time>
      </trkpt>
      <trkpt lat="43.18748" lon="2.3995">
        <ele>212.7</ele>
        <time>2019-06-30T06:55:25.000Z</time>
      </trkpt>
      <trkpt lat="43.1875" lon="2.39953">
        <ele>212.6</ele>
        <time>2019-06-30T06:55:26.000Z</time>
      </trkpt>
      <trkpt lat="43.18752" lon="2.39956">
        <ele>212.3</ele>
        <time>2019-06-30T06:55:27.000Z</time>
      </trkpt>
      <trkpt lat="43.18753" lon="2.3996">
        <ele>212.1</ele>
        <time>2019-06-30T06:55:28.000Z</time>
      </trkpt>
      <trkpt lat="43.18754" lon="2.39963">
        <ele>211.9</ele>
        <time>2019-06-30T06:55:29.000Z</time>
      </trkpt>
      <trkpt lat="43.18755" lon="2.39965">
        <ele>211.8</ele>
        <time>2019-06-30T06:55:30.000Z</time>
      </trkpt>
      <trkpt lat="43.18756" lon="2.39967">
        <ele>211.7</ele>
        <time>2019-06-30T06:55:31.000Z</time>
      </trkpt>
      <trkpt lat="43.18756" lon="2.39969">
        <ele>211.7</ele>
        <time>2019-06-30T06:55:32.000Z</time>
      </trkpt>
      <trkpt lat="43.18755" lon="2.3997">
        <ele>211.7</ele>
        <time>2019-06-30T06:55:33.000Z</time>
      </trkpt>
      <trkpt lat="43.18755" lon="2.39971">
        <ele>211.8</ele>
        <time>2019-06-30T06:55:34.000Z</time>
      </trkpt>
      <trkpt lat="43.18754" lon="2.39971">
        <ele>211.8</ele>
        <time>2019-06-30T06:55:35.000Z</time>
      </trkpt>
      <trkpt lat="43.18754" lon="2.3997">
        <ele>211.9</ele>
        <time>2019-06-30T06:55:36.000Z</time>
      </trkpt>
      <trkpt lat="43.18754" lon="2.39969">
        <ele>211.9</ele>
        <time>2019-06-30T06:55:37.000Z</time>
      </trkpt>
      <trkpt lat="43.18754" lon="2.39968">
        <ele>211.9</ele>
        <time>2019-06-30T06:55:38.000Z</time>
      </trkpt>
      <trkpt lat="43.18754" lon="2.39968">
        <ele>211.9</ele>
        <time>2019-06-30T06:55:39.000Z</time>
      </trkpt>
      <trkpt lat="43.18754" lon="2.39968">
        <ele>211.9</ele>
        <time>2019-06-30T06:55:40.000Z</time>
      </trkpt>
      <trkpt lat="43.18754" lon="2.39968">
        <ele>211.9</ele>
        <time>2019-06-30T06:55:41.000Z</time>
      </trkpt>
      <trkpt lat="43.18754" lon="2.39968">
        <ele>211.9</ele>
        <time>2019-06-30T06:55:42.000Z</time>
      </trkpt>
      <trkpt lat="43.18754" lon="2.39967">
        <ele>212</ele>
        <time>2019-06-30T06:55:43.000Z</time>
      </trkpt>
      <trkpt lat="43.18753" lon="2.39966">
        <ele>212</ele>
        <time>2019-06-30T06:55:44.000Z</time>
      </trkpt>
      <trkpt lat="43.18753" lon="2.39965">
        <ele>212.1</ele>
        <time>2019-06-30T06:55:45.000Z</time>
      </trkpt>
      <trkpt lat="43.18753" lon="2.39965">
        <ele>212.1</ele>
        <time>2019-06-30T06:55:46.000Z</time>
      </trkpt>
      <trkpt lat="43.18753" lon="2.39964">
        <ele>212.1</ele>
        <time>2019-06-30T06:55:47.000Z</time>
      </trkpt>
      <trkpt lat="43.18752" lon="2.39963">
        <ele>212.2</ele>
        <time>2019-06-30T06:55:48.000Z</time>
      </trkpt>
      <trkpt lat="43.18752" lon="2.39963">
        <ele>212.2</ele>
        <time>2019-06-30T06:55:49.000Z</time>
      </trkpt>
      <trkpt lat="43.18752" lon="2.39963">
        <ele>212.2</ele>
        <time>2019-06-30T06:55:50.000Z</time>
      </trkpt>
      <trkpt lat="43.18752" lon="2.39963">
        <ele>212.2</ele>
        <time>2019-06-30T06:55:51.000Z</time>
      </trkpt>
      <trkpt lat="43.18752" lon="2.39963">
        <ele>212.2</ele>
        <time>2019-06-30T06:55:52.000Z</time>
      </trkpt>
      <trkpt lat="43.18752" lon="2.39963">
        <ele>212.2</ele>
        <time>2019-06-30T06:55:53.000Z</time>
      </trkpt>
      <trkpt lat="43.18753" lon="2.39964">
        <ele>212.1</ele>
        <time>2019-06-30T06:55:54.000Z</time>
      </trkpt>
      <trkpt lat="43.18754" lon="2.39964">
        <ele>212</ele>
        <time>2019-06-30T06:55:55.000Z</time>
      </trkpt>
      <trkpt lat="43.18754" lon="2.39965">
        <ele>211.9</ele>
        <time>2019-06-30T06:55:56.000Z</time>
      </trkpt>
      <trkpt lat="43.18755" lon="2.39965">
        <ele>211.8</ele>
        <time>2019-06-30T06:55:57.000Z</time>
      </trkpt>
      <trkpt lat="43.18756" lon="2.39965">
        <ele>211.7</ele>
        <time>2019-06-30T06:55:58.000Z</time>
      </trkpt>
      <trkpt lat="43.18757" lon="2.39966">
        <ele>211.6</ele>
        <time>2019-06-30T06:55:59.000Z</time>
      </trkpt>
      <trkpt lat="43.18758" lon="2.39966">
        <ele>211.5</ele>
        <time>2019-06-30T06:56:00.000Z</time>
      </trkpt>
      <trkpt lat="43.18759" lon="2.39966">
        <ele>211.4</ele>
        <time>2019-06-30T06:56:01.000Z</time>
      </trkpt>
      <trkpt lat="43.1876" lon="2.39966">
        <ele>211.3</ele>
        <time>2019-06-30T06:56:02.000Z</time>
      </trkpt>
      <trkpt lat="43.1876" lon="2.39965">
        <ele>211.2</ele>
        <time>2019-06-30T06:56:03.000Z</time>
      </trkpt>
      <trkpt lat="43.18761" lon="2.39965">
        <ele>211.1</ele>
        <time>2019-06-30T06:56:04.000Z</time>
      </trkpt>
      <trkpt lat="43.18762" lon="2.39965">
        <ele>211</ele>
        <time>2019-06-30T06:56:05.000Z</time>
      </trkpt>
      <trkpt lat="43.18763" lon="2.39964">
        <ele>211</ele>
        <time>2019-06-30T06:56:06.000Z</time>
      </trkpt>
      <trkpt lat="43.18763" lon="2.39963">
        <ele>210.9</ele>
        <time>2019-06-30T06:56:07.000Z</time>
      </trkpt>
      <trkpt lat="43.18764" lon="2.39963">
        <ele>210.8</ele>
        <time>2019-06-30T06:56:08.000Z</time>
      </trkpt>
      <trkpt lat="43.18765" lon="2.39962">
        <ele>210.8</ele>
        <time>2019-06-30T06:56:09.000Z</time>
      </trkpt>
      <trkpt lat="43.18765" lon="2.39961">
        <ele>210.7</ele>
        <time>2019-06-30T06:56:10.000Z</time>
      </trkpt>
      <trkpt lat="43.18766" lon="2.3996">
        <ele>210.6</ele>
        <time>2019-06-30T06:56:11.000Z</time>
      </trkpt>
      <trkpt lat="43.18767" lon="2.39959">
        <ele>210.6</ele>
        <time>2019-06-30T06:56:12.000Z</time>
      </trkpt>
      <trkpt lat="43.18768" lon="2.39958">
        <ele>210.5</ele>
        <time>2019-06-30T06:56:13.000Z</time>
      </trkpt>
      <trkpt lat="43.18768" lon="2.39956">
        <ele>210.4</ele>
        <time>2019-06-30T06:56:14.000Z</time>
      </trkpt>
      <trkpt lat="43.18769" lon="2.39955">
        <ele>210.4</ele>
        <time>2019-06-30T06:56:15.000Z</time>
      </trkpt>
      <trkpt lat="43.1877" lon="2.39954">
        <ele>210.3</ele>
        <time>2019-06-30T06:56:16.000Z</time>
      </trkpt>
      <trkpt lat="43.18771" lon="2.39952">
        <ele>210.3</ele>
        <time>2019-06-30T06:56:17.000Z</time>
      </trkpt>
      <trkpt lat="43.18772" lon="2.39951">
        <ele>210.2</ele>
        <time>2019-06-30T06:56:18.000Z</time>
      </trkpt>
      <trkpt lat="43.18772" lon="2.3995">
        <ele>210.1</ele>
        <time>2019-06-30T06:56:19.000Z</time>
      </trkpt>
      <trkpt lat="43.18773" lon="2.39949">
        <ele>210</ele>
        <time>2019-06-30T06:56:20.000Z</time>
      </trkpt>
      <trkpt lat="43.18774" lon="2.39949">
        <ele>209.9</ele>
        <time>2019-06-30T06:56:21.000Z</time>
      </trkpt>
      <trkpt lat="43.18775" lon="2.39949">
        <ele>209.8</ele>
        <time>2019-06-30T06:56:22.000Z</time>
      </trkpt>
      <trkpt lat="43.18776" lon="2.3995">
        <ele>209.7</ele>
        <time>2019-06-30T06:56:23.000Z</time>
      </trkpt>
      <trkpt lat="43.18777" lon="2.39951">
        <ele>209.6</ele>
        <time>2019-06-30T06:56:24.000Z</time>
      </trkpt>
      <trkpt lat="43.18778" lon="2.39952">
        <ele>209.4</ele>
        <time>2019-06-30T06:56:25.000Z</time>
      </trkpt>
      <trkpt lat="43.18779" lon="2.39952">
        <ele>209.3</ele>
        <time>2019-06-30T06:56:26.000Z</time>
      </trkpt>
      <trkpt lat="43.1878" lon="2.39953">
        <ele>209.2</ele>
        <time>2019-06-30T06:56:27.000Z</time>
      </trkpt>
      <trkpt lat="43.18781" lon="2.39953">
        <ele>209.1</ele>
        <time>2019-06-30T06:56:28.000Z</time>
      </trkpt>
      <trkpt lat="43.18782" lon="2.39953">
        <ele>209</ele>
        <time>2019-06-30T06:56:29.000Z</time>
      </trkpt>
      <trkpt lat="43.18783" lon="2.39953">
        <ele>208.9</ele>
        <time>2019-06-30T06:56:30.000Z</time>
      </trkpt>
      <trkpt lat="43.18784" lon="2.39953">
        <ele>208.7</ele>
        <time>2019-06-30T06:56:31.000Z</time>
      </trkpt>
      <trkpt lat="43.18786" lon="2.39953">
        <ele>208.6</ele>
        <time>2019-06-30T06:56:32.000Z</time>
      </trkpt>
      <trkpt lat="43.18787" lon="2.39953">
        <ele>208.4</ele>
        <time>2019-06-30T06:56:33.000Z</time>
      </trkpt>
      <trkpt lat="43.18788" lon="2.39953">
        <ele>208.3</ele>
        <time>2019-06-30T06:56:34.000Z</time>
      </trkpt>
      <trkpt lat="43.1879" lon="2.39953">
        <ele>208.2</ele>
        <time>2019-06-30T06:56:35.000Z</time>
      </trkpt>
      <trkpt lat="43.18791" lon="2.39952">
        <ele>208</ele>
        <time>2019-06-30T06:56:36.000Z</time>
      </trkpt>
      <trkpt lat="43.18792" lon="2.39952">
        <ele>207.9</ele>
        <time>2019-06-30T06:56:37.000Z</time>
      </trkpt>
      <trkpt lat="43.18794" lon="2.39952">
        <ele>207.7</ele>
        <time>2019-06-30T06:56:38.000Z</time>
      </trkpt>
      <trkpt lat="43.18795" lon="2.39952">
        <ele>207.6</ele>
        <time>2019-06-30T06:56:39.000Z</time>
      </trkpt>
      <trkpt lat="43.18796" lon="2.39952">
        <ele>207.4</ele>
        <time>2019-06-30T06:56:40.000Z</time>
      </trkpt>
      <trkpt lat="43.18798" lon="2.39951">
        <ele>207.3</ele>
        <time>2019-06-30T06:56:41.000Z</time>
      </trkpt>
      <trkpt lat="43.18799" lon="2.39951">
        <ele>207.1</ele>
        <time>2019-06-30T06:56:42.000Z</time>
      </trkpt>
      <trkpt lat="43.18801" lon="2.39951">
        <ele>206.9</ele>
        <time>2019-06-30T06:56:43.000Z</time>
      </trkpt>
      <trkpt lat="43.18803" lon="2.39951">
        <ele>206.8</ele>
        <time>2019-06-30T06:56:44.000Z</time>
      </trkpt>
      <trkpt lat="43.18804" lon="2.39951">
        <ele>206.6</ele>
        <time>2019-06-30T06:56:45.000Z</time>
      </trkpt>
      <trkpt lat="43.18806" lon="2.39951">
        <ele>206.4</ele>
        <time>2019-06-30T06:56:46.000Z</time>
      </trkpt>
      <trkpt lat="43.18808" lon="2.39951">
        <ele>206.2</ele>
        <time>2019-06-30T06:56:47.000Z</time>
      </trkpt>
      <trkpt lat="43.1881" lon="2.39951">
        <ele>205.9</ele>
        <time>2019-06-30T06:56:48.000Z</time>
      </trkpt>
      <trkpt lat="43.18812" lon="2.39952">
        <ele>205.7</ele>
        <time>2019-06-30T06:56:49.000Z</time>
      </trkpt>
      <trkpt lat="43.18814" lon="2.39952">
        <ele>205.4</ele>
        <time>2019-06-30T06:56:50.000Z</time>
      </trkpt>
      <trkpt lat="43.18817" lon="2.39952">
        <ele>205.2</ele>
        <time>2019-06-30T06:56:51.000Z</time>
      </trkpt>
      <trkpt lat="43.18819" lon="2.39952">
        <ele>204.9</ele>
        <time>2019-06-30T06:56:52.000Z</time>
      </trkpt>
      <trkpt lat="43.18821" lon="2.39952">
        <ele>204.6</ele>
        <time>2019-06-30T06:56:53.000Z</time>
      </trkpt>
      <trkpt lat="43.18824" lon="2.39952">
        <ele>204.4</ele>
        <time>2019-06-30T06:56:54.000Z</time>
      </trkpt>
      <trkpt lat="43.18826" lon="2.39952">
        <ele>204.1</ele>
        <time>2019-06-30T06:56:55.000Z</time>
      </trkpt>
      <trkpt lat="43.18828" lon="2.39951">
        <ele>203.9</ele>
        <time>2019-06-30T06:56:56.000Z</time>
      </trkpt>
      <trkpt lat="43.18831" lon="2.39951">
        <ele>203.7</ele>
        <time>2019-06-30T06:56:57.000Z</time>
      </trkpt>
      <trkpt lat="43.18833" lon="2.3995">
        <ele>203.4</ele>
        <time>2019-06-30T06:56:58.000Z</time>
      </trkpt>
      <trkpt lat="43.18835" lon="2.3995">
        <ele>203.3</ele>
        <time>2019-06-30T06:56:59.000Z</time>
      </trkpt>
      <trkpt lat="43.18838" lon="2.3995">
        <ele>203.2</ele>
        <time>2019-06-30T06:57:00.000Z</time>
      </trkpt>
      <trkpt lat="43.1884" lon="2.39951">
        <ele>203</ele>
        <time>2019-06-30T06:57:01.000Z</time>
      </trkpt>
      <trkpt lat="43.18843" lon="2.39954">
        <ele>202.8</ele>
        <time>2019-06-30T06:57:02.000Z</time>
      </trkpt>
      <trkpt lat="43.18845" lon="2.39956">
        <ele>202.6</ele>
        <time>2019-06-30T06:57:03.000Z</time>
      </trkpt>
      <trkpt lat="43.18846" lon="2.39959">
        <ele>202.4</ele>
        <time>2019-06-30T06:57:04.000Z</time>
      </trkpt>
      <trkpt lat="43.18846" lon="2.39963">
        <ele>202.3</ele>
        <time>2019-06-30T06:57:05.000Z</time>
      </trkpt>
      <trkpt lat="43.18847" lon="2.39966">
        <ele>202.1</ele>
        <time>2019-06-30T06:57:06.000Z</time>
      </trkpt>
      <trkpt lat="43.18846" lon="2.3997">
        <ele>202</ele>
        <time>2019-06-30T06:57:07.000Z</time>
      </trkpt>
      <trkpt lat="43.18846" lon="2.39974">
        <ele>201.8</ele>
        <time>2019-06-30T06:57:08.000Z</time>
      </trkpt>
      <trkpt lat="43.18846" lon="2.39978">
        <ele>201.7</ele>
        <time>2019-06-30T06:57:09.000Z</time>
      </trkpt>
      <trkpt lat="43.18845" lon="2.39982">
        <ele>201.5</ele>
        <time>2019-06-30T06:57:10.000Z</time>
      </trkpt>
      <trkpt lat="43.18845" lon="2.39985">
        <ele>201.4</ele>
        <time>2019-06-30T06:57:11.000Z</time>
      </trkpt>
      <trkpt lat="43.18845" lon="2.39989">
        <ele>201.2</ele>
        <time>2019-06-30T06:57:12.000Z</time>
      </trkpt>
      <trkpt lat="43.18845" lon="2.39993">
        <ele>201.1</ele>
        <time>2019-06-30T06:57:13.000Z</time>
      </trkpt>
      <trkpt lat="43.18844" lon="2.39996">
        <ele>200.9</ele>
        <time>2019-06-30T06:57:14.000Z</time>
      </trkpt>
      <trkpt lat="43.18844" lon="2.4">
        <ele>200.8</ele>
        <time>2019-06-30T06:57:15.000Z</time>
      </trkpt>
      <trkpt lat="43.18844" lon="2.40003">
        <ele>200.8</ele>
        <time>2019-06-30T06:57:16.000Z</time>
      </trkpt>
      <trkpt lat="43.18844" lon="2.40007">
        <ele>200.8</ele>
        <time>2019-06-30T06:57:17.000Z</time>
      </trkpt>
      <trkpt lat="43.18844" lon="2.4001">
        <ele>200.8</ele>
        <time>2019-06-30T06:57:18.000Z</time>
      </trkpt>
      <trkpt lat="43.18844" lon="2.40013">
        <ele>200.8</ele>
        <time>2019-06-30T06:57:19.000Z</time>
      </trkpt>
      <trkpt lat="43.18844" lon="2.40017">
        <ele>200.9</ele>
        <time>2019-06-30T06:57:20.000Z</time>
      </trkpt>
      <trkpt lat="43.18843" lon="2.4002">
        <ele>200.9</ele>
        <time>2019-06-30T06:57:21.000Z</time>
      </trkpt>
      <trkpt lat="43.18843" lon="2.40024">
        <ele>200.9</ele>
        <time>2019-06-30T06:57:22.000Z</time>
      </trkpt>
      <trkpt lat="43.18843" lon="2.40028">
        <ele>201</ele>
        <time>2019-06-30T06:57:23.000Z</time>
      </trkpt>
      <trkpt lat="43.18842" lon="2.40031">
        <ele>201</ele>
        <time>2019-06-30T06:57:24.000Z</time>
      </trkpt>
      <trkpt lat="43.18841" lon="2.40035">
        <ele>201</ele>
        <time>2019-06-30T06:57:25.000Z</time>
      </trkpt>
      <trkpt lat="43.18841" lon="2.40038">
        <ele>201</ele>
        <time>2019-06-30T06:57:26.000Z</time>
      </trkpt>
      <trkpt lat="43.1884" lon="2.40042">
        <ele>201</ele>
        <time>2019-06-30T06:57:27.000Z</time>
      </trkpt>
      <trkpt lat="43.1884" lon="2.40045">
        <ele>201.1</ele>
        <time>2019-06-30T06:57:28.000Z</time>
      </trkpt>
      <trkpt lat="43.18839" lon="2.40049">
        <ele>201.1</ele>
        <time>2019-06-30T06:57:29.000Z</time>
      </trkpt>
      <trkpt lat="43.18839" lon="2.40053">
        <ele>201.1</ele>
        <time>2019-06-30T06:57:30.000Z</time>
      </trkpt>
      <trkpt lat="43.18839" lon="2.40056">
        <ele>201.1</ele>
        <time>2019-06-30T06:57:31.000Z</time>
      </trkpt>
      <trkpt lat="43.18839" lon="2.4006">
        <ele>201.1</ele>
        <time>2019-06-30T06:57:32.000Z</time>
      </trkpt>
      <trkpt lat="43.18839" lon="2.40064">
        <ele>201.1</ele>
        <time>2019-06-30T06:57:33.000Z</time>
      </trkpt>
      <trkpt lat="43.18839" lon="2.40067">
        <ele>201.1</ele>
        <time>2019-06-30T06:57:34.000Z</time>
      </trkpt>
      <trkpt lat="43.18839" lon="2.40071">
        <ele>201.2</ele>
        <time>2019-06-30T06:57:35.000Z</time>
      </trkpt>
      <trkpt lat="43.1884" lon="2.40075">
        <ele>201.2</ele>
        <time>2019-06-30T06:57:36.000Z</time>
      </trkpt>
      <trkpt lat="43.1884" lon="2.40079">
        <ele>201.2</ele>
        <time>2019-06-30T06:57:37.000Z</time>
      </trkpt>
      <trkpt lat="43.18841" lon="2.40082">
        <ele>201.3</ele>
        <time>2019-06-30T06:57:38.000Z</time>
      </trkpt>
      <trkpt lat="43.18841" lon="2.40086">
        <ele>201.3</ele>
        <time>2019-06-30T06:57:39.000Z</time>
      </trkpt>
      <trkpt lat="43.18841" lon="2.4009">
        <ele>201.4</ele>
        <time>2019-06-30T06:57:40.000Z</time>
      </trkpt>
      <trkpt lat="43.18841" lon="2.40093">
        <ele>201.4</ele>
        <time>2019-06-30T06:57:41.000Z</time>
      </trkpt>
      <trkpt lat="43.18841" lon="2.40097">
        <ele>201.5</ele>
        <time>2019-06-30T06:57:42.000Z</time>
      </trkpt>
      <trkpt lat="43.18841" lon="2.401">
        <ele>201.5</ele>
        <time>2019-06-30T06:57:43.000Z</time>
      </trkpt>
      <trkpt lat="43.18841" lon="2.40104">
        <ele>201.5</ele>
        <time>2019-06-30T06:57:44.000Z</time>
      </trkpt>
      <trkpt lat="43.18841" lon="2.40107">
        <ele>201.6</ele>
        <time>2019-06-30T06:57:45.000Z</time>
      </trkpt>
      <trkpt lat="43.18841" lon="2.40111">
        <ele>201.6</ele>
        <time>2019-06-30T06:57:46.000Z</time>
      </trkpt>
      <trkpt lat="43.18841" lon="2.40114">
        <ele>201.7</ele>
        <time>2019-06-30T06:57:47.000Z</time>
      </trkpt>
      <trkpt lat="43.1884" lon="2.40118">
        <ele>201.7</ele>
        <time>2019-06-30T06:57:48.000Z</time>
      </trkpt>
      <trkpt lat="43.1884" lon="2.40122">
        <ele>201.7</ele>
        <time>2019-06-30T06:57:49.000Z</time>
      </trkpt>
      <trkpt lat="43.1884" lon="2.40125">
        <ele>201.8</ele>
        <time>2019-06-30T06:57:50.000Z</time>
      </trkpt>
      <trkpt lat="43.1884" lon="2.40129">
        <ele>201.8</ele>
        <time>2019-06-30T06:57:51.000Z</time>
      </trkpt>
      <trkpt lat="43.1884" lon="2.40133">
        <ele>201.9</ele>
        <time>2019-06-30T06:57:52.000Z</time>
      </trkpt>
      <trkpt lat="43.1884" lon="2.40136">
        <ele>201.9</ele>
        <time>2019-06-30T06:57:53.000Z</time>
      </trkpt>
      <trkpt lat="43.1884" lon="2.4014">
        <ele>202</ele>
        <time>2019-06-30T06:57:54.000Z</time>
      </trkpt>
      <trkpt lat="43.1884" lon="2.40144">
        <ele>202</ele>
        <time>2019-06-30T06:57:55.000Z</time>
      </trkpt>
      <trkpt lat="43.18841" lon="2.40147">
        <ele>202.1</ele>
        <time>2019-06-30T06:57:56.000Z</time>
      </trkpt>
      <trkpt lat="43.18841" lon="2.40151">
        <ele>202.1</ele>
        <time>2019-06-30T06:57:57.000Z</time>
      </trkpt>
      <trkpt lat="43.18841" lon="2.40155">
        <ele>202.2</ele>
        <time>2019-06-30T06:57:58.000Z</time>
      </trkpt>
      <trkpt lat="43.18841" lon="2.40159">
        <ele>202.3</ele>
        <time>2019-06-30T06:57:59.000Z</time>
      </trkpt>
      <trkpt lat="43.18841" lon="2.40162">
        <ele>202.3</ele>
        <time>2019-06-30T06:58:00.000Z</time>
      </trkpt>
      <trkpt lat="43.18842" lon="2.40166">
        <ele>202.4</ele>
        <time>2019-06-30T06:58:01.000Z</time>
      </trkpt>
      <trkpt lat="43.18842" lon="2.4017">
        <ele>202.3</ele>
        <time>2019-06-30T06:58:02.000Z</time>
      </trkpt>
      <trkpt lat="43.18842" lon="2.40174">
        <ele>202.2</ele>
        <time>2019-06-30T06:58:03.000Z</time>
      </trkpt>
      <trkpt lat="43.18841" lon="2.40178">
        <ele>202.1</ele>
        <time>2019-06-30T06:58:04.000Z</time>
      </trkpt>
      <trkpt lat="43.18841" lon="2.40182">
        <ele>202</ele>
        <time>2019-06-30T06:58:05.000Z</time>
      </trkpt>
      <trkpt lat="43.18841" lon="2.40185">
        <ele>201.9</ele>
        <time>2019-06-30T06:58:06.000Z</time>
      </trkpt>
      <trkpt lat="43.18841" lon="2.40189">
        <ele>201.8</ele>
        <time>2019-06-30T06:58:07.000Z</time>
      </trkpt>
      <trkpt lat="43.1884" lon="2.40193">
        <ele>201.7</ele>
        <time>2019-06-30T06:58:08.000Z</time>
      </trkpt>
      <trkpt lat="43.1884" lon="2.40197">
        <ele>201.6</ele>
        <time>2019-06-30T06:58:09.000Z</time>
      </trkpt>
      <trkpt lat="43.18839" lon="2.402">
        <ele>201.5</ele>
        <time>2019-06-30T06:58:10.000Z</time>
      </trkpt>
      <trkpt lat="43.18838" lon="2.40204">
        <ele>201.4</ele>
        <time>2019-06-30T06:58:11.000Z</time>
      </trkpt>
      <trkpt lat="43.18837" lon="2.40208">
        <ele>201.2</ele>
        <time>2019-06-30T06:58:12.000Z</time>
      </trkpt>
      <trkpt lat="43.18837" lon="2.40211">
        <ele>201.1</ele>
        <time>2019-06-30T06:58:13.000Z</time>
      </trkpt>
      <trkpt lat="43.18835" lon="2.40214">
        <ele>201</ele>
        <time>2019-06-30T06:58:14.000Z</time>
      </trkpt>
      <trkpt lat="43.18834" lon="2.40218">
        <ele>200.8</ele>
        <time>2019-06-30T06:58:15.000Z</time>
      </trkpt>
      <trkpt lat="43.18833" lon="2.40221">
        <ele>200.7</ele>
        <time>2019-06-30T06:58:16.000Z</time>
      </trkpt>
      <trkpt lat="43.18832" lon="2.40224">
        <ele>200.7</ele>
        <time>2019-06-30T06:58:17.000Z</time>
      </trkpt>
      <trkpt lat="43.1883" lon="2.40227">
        <ele>200.6</ele>
        <time>2019-06-30T06:58:18.000Z</time>
      </trkpt>
      <trkpt lat="43.18829" lon="2.4023">
        <ele>200.6</ele>
        <time>2019-06-30T06:58:19.000Z</time>
      </trkpt>
      <trkpt lat="43.18827" lon="2.40232">
        <ele>200.6</ele>
        <time>2019-06-30T06:58:20.000Z</time>
      </trkpt>
      <trkpt lat="43.18826" lon="2.40235">
        <ele>200.5</ele>
        <time>2019-06-30T06:58:21.000Z</time>
      </trkpt>
      <trkpt lat="43.18824" lon="2.40238">
        <ele>200.5</ele>
        <time>2019-06-30T06:58:22.000Z</time>
      </trkpt>
      <trkpt lat="43.18822" lon="2.4024">
        <ele>200.5</ele>
        <time>2019-06-30T06:58:23.000Z</time>
      </trkpt>
      <trkpt lat="43.1882" lon="2.40242">
        <ele>200.5</ele>
        <time>2019-06-30T06:58:24.000Z</time>
      </trkpt>
      <trkpt lat="43.18818" lon="2.40245">
        <ele>200.5</ele>
        <time>2019-06-30T06:58:25.000Z</time>
      </trkpt>
      <trkpt lat="43.18816" lon="2.40247">
        <ele>200.5</ele>
        <time>2019-06-30T06:58:26.000Z</time>
      </trkpt>
      <trkpt lat="43.18814" lon="2.40249">
        <ele>200.5</ele>
        <time>2019-06-30T06:58:27.000Z</time>
      </trkpt>
      <trkpt lat="43.18812" lon="2.40251">
        <ele>200.5</ele>
        <time>2019-06-30T06:58:28.000Z</time>
      </trkpt>
      <trkpt lat="43.1881" lon="2.40252">
        <ele>200.5</ele>
        <time>2019-06-30T06:58:29.000Z</time>
      </trkpt>
      <trkpt lat="43.18808" lon="2.40254">
        <ele>200.6</ele>
        <time>2019-06-30T06:58:30.000Z</time>
      </trkpt>
      <trkpt lat="43.18806" lon="2.40255">
        <ele>200.6</ele>
        <time>2019-06-30T06:58:31.000Z</time>
      </trkpt>
      <trkpt lat="43.18804" lon="2.40257">
        <ele>200.7</ele>
        <time>2019-06-30T06:58:32.000Z</time>
      </trkpt>
      <trkpt lat="43.18802" lon="2.40258">
        <ele>200.7</ele>
        <time>2019-06-30T06:58:33.000Z</time>
      </trkpt>
      <trkpt lat="43.18799" lon="2.40259">
        <ele>200.8</ele>
        <time>2019-06-30T06:58:34.000Z</time>
      </trkpt>
      <trkpt lat="43.18797" lon="2.4026">
        <ele>200.9</ele>
        <time>2019-06-30T06:58:35.000Z</time>
      </trkpt>
      <trkpt lat="43.18795" lon="2.40262">
        <ele>200.9</ele>
        <time>2019-06-30T06:58:36.000Z</time>
      </trkpt>
      <trkpt lat="43.18792" lon="2.40263">
        <ele>201</ele>
        <time>2019-06-30T06:58:37.000Z</time>
      </trkpt>
      <trkpt lat="43.1879" lon="2.40264">
        <ele>201</ele>
        <time>2019-06-30T06:58:38.000Z</time>
      </trkpt>
      <trkpt lat="43.18788" lon="2.40265">
        <ele>201.1</ele>
        <time>2019-06-30T06:58:39.000Z</time>
      </trkpt>
      <trkpt lat="43.18785" lon="2.40265">
        <ele>201.2</ele>
        <time>2019-06-30T06:58:40.000Z</time>
      </trkpt>
      <trkpt lat="43.18783" lon="2.40266">
        <ele>201.3</ele>
        <time>2019-06-30T06:58:41.000Z</time>
      </trkpt>
      <trkpt lat="43.1878" lon="2.40267">
        <ele>201.3</ele>
        <time>2019-06-30T06:58:42.000Z</time>
      </trkpt>
      <trkpt lat="43.18778" lon="2.40268">
        <ele>201.4</ele>
        <time>2019-06-30T06:58:43.000Z</time>
      </trkpt>
      <trkpt lat="43.18775" lon="2.40269">
        <ele>201.5</ele>
        <time>2019-06-30T06:58:44.000Z</time>
      </trkpt>
      <trkpt lat="43.18773" lon="2.4027">
        <ele>201.6</ele>
        <time>2019-06-30T06:58:45.000Z</time>
      </trkpt>
      <trkpt lat="43.1877" lon="2.40271">
        <ele>201.6</ele>
        <time>2019-06-30T06:58:46.000Z</time>
      </trkpt>
      <trkpt lat="43.18768" lon="2.40272">
        <ele>201.7</ele>
        <time>2019-06-30T06:58:47.000Z</time>
      </trkpt>
      <trkpt lat="43.18765" lon="2.40273">
        <ele>201.8</ele>
        <time>2019-06-30T06:58:48.000Z</time>
      </trkpt>
      <trkpt lat="43.18763" lon="2.40274">
        <ele>201.9</ele>
        <time>2019-06-30T06:58:49.000Z</time>
      </trkpt>
      <trkpt lat="43.1876" lon="2.40274">
        <ele>202</ele>
        <time>2019-06-30T06:58:50.000Z</time>
      </trkpt>
      <trkpt lat="43.18758" lon="2.40275">
        <ele>202.1</ele>
        <time>2019-06-30T06:58:51.000Z</time>
      </trkpt>
      <trkpt lat="43.18755" lon="2.40276">
        <ele>202.2</ele>
        <time>2019-06-30T06:58:52.000Z</time>
      </trkpt>
      <trkpt lat="43.18753" lon="2.40277">
        <ele>202.2</ele>
        <time>2019-06-30T06:58:53.000Z</time>
      </trkpt>
      <trkpt lat="43.1875" lon="2.40278">
        <ele>202.3</ele>
        <time>2019-06-30T06:58:54.000Z</time>
      </trkpt>
      <trkpt lat="43.18747" lon="2.40279">
        <ele>202.6</ele>
        <time>2019-06-30T06:58:55.000Z</time>
      </trkpt>
      <trkpt lat="43.18745" lon="2.4028">
        <ele>202.8</ele>
        <time>2019-06-30T06:58:56.000Z</time>
      </trkpt>
      <trkpt lat="43.18742" lon="2.40281">
        <ele>203</ele>
        <time>2019-06-30T06:58:57.000Z</time>
      </trkpt>
      <trkpt lat="43.1874" lon="2.40282">
        <ele>203.3</ele>
        <time>2019-06-30T06:58:58.000Z</time>
      </trkpt>
      <trkpt lat="43.18737" lon="2.40283">
        <ele>203.5</ele>
        <time>2019-06-30T06:58:59.000Z</time>
      </trkpt>
      <trkpt lat="43.18735" lon="2.40284">
        <ele>203.7</ele>
        <time>2019-06-30T06:59:00.000Z</time>
      </trkpt>
      <trkpt lat="43.18732" lon="2.40285">
        <ele>204</ele>
        <time>2019-06-30T06:59:01.000Z</time>
      </trkpt>
      <trkpt lat="43.1873" lon="2.40285">
        <ele>204.2</ele>
        <time>2019-06-30T06:59:02.000Z</time>
      </trkpt>
      <trkpt lat="43.18727" lon="2.40286">
        <ele>204.4</ele>
        <time>2019-06-30T06:59:03.000Z</time>
      </trkpt>
      <trkpt lat="43.18724" lon="2.40287">
        <ele>204.6</ele>
        <time>2019-06-30T06:59:04.000Z</time>
      </trkpt>
      <trkpt lat="43.18722" lon="2.40288">
        <ele>204.8</ele>
        <time>2019-06-30T06:59:05.000Z</time>
      </trkpt>
      <trkpt lat="43.18719" lon="2.40289">
        <ele>205.1</ele>
        <time>2019-06-30T06:59:06.000Z</time>
      </trkpt>
      <trkpt lat="43.18717" lon="2.4029">
        <ele>205.3</ele>
        <time>2019-06-30T06:59:07.000Z</time>
      </trkpt>
      <trkpt lat="43.18714" lon="2.40291">
        <ele>205.5</ele>
        <time>2019-06-30T06:59:08.000Z</time>
      </trkpt>
      <trkpt lat="43.18712" lon="2.40291">
        <ele>205.7</ele>
        <time>2019-06-30T06:59:09.000Z</time>
      </trkpt>
      <trkpt lat="43.18709" lon="2.40292">
        <ele>205.9</ele>
        <time>2019-06-30T06:59:10.000Z</time>
      </trkpt>
      <trkpt lat="43.18707" lon="2.40293">
        <ele>206.1</ele>
        <time>2019-06-30T06:59:11.000Z</time>
      </trkpt>
      <trkpt lat="43.18704" lon="2.40294">
        <ele>206.3</ele>
        <time>2019-06-30T06:59:12.000Z</time>
      </trkpt>
      <trkpt lat="43.18702" lon="2.40295">
        <ele>206.6</ele>
        <time>2019-06-30T06:59:13.000Z</time>
      </trkpt>
      <trkpt lat="43.18699" lon="2.40296">
        <ele>206.7</ele>
        <time>2019-06-30T06:59:14.000Z</time>
      </trkpt>
      <trkpt lat="43.18697" lon="2.40298">
        <ele>206.9</ele>
        <time>2019-06-30T06:59:15.000Z</time>
      </trkpt>
      <trkpt lat="43.18695" lon="2.40299">
        <ele>207.1</ele>
        <time>2019-06-30T06:59:16.000Z</time>
      </trkpt>
      <trkpt lat="43.18693" lon="2.40301">
        <ele>207.3</ele>
        <time>2019-06-30T06:59:17.000Z</time>
      </trkpt>
      <trkpt lat="43.18691" lon="2.40302">
        <ele>207.4</ele>
        <time>2019-06-30T06:59:18.000Z</time>
      </trkpt>
      <trkpt lat="43.18689" lon="2.40303">
        <ele>207.6</ele>
        <time>2019-06-30T06:59:19.000Z</time>
      </trkpt>
      <trkpt lat="43.18688" lon="2.40304">
        <ele>207.7</ele>
        <time>2019-06-30T06:59:20.000Z</time>
      </trkpt>
      <trkpt lat="43.18686" lon="2.40304">
        <ele>207.8</ele>
        <time>2019-06-30T06:59:21.000Z</time>
      </trkpt>
      <trkpt lat="43.18685" lon="2.40305">
        <ele>207.9</ele>
        <time>2019-06-30T06:59:22.000Z</time>
      </trkpt>
      <trkpt lat="43.18684" lon="2.40305">
        <ele>208</ele>
        <time>2019-06-30T06:59:23.000Z</time>
      </trkpt>
      <trkpt lat="43.18683" lon="2.40305">
        <ele>208.1</ele>
        <time>2019-06-30T06:59:24.000Z</time>
      </trkpt>
      <trkpt lat="43.18682" lon="2.40305">
        <ele>208.1</ele>
        <time>2019-06-30T06:59:25.000Z</time>
      </trkpt>
      <trkpt lat="43.18681" lon="2.40305">
        <ele>208.2</ele>
        <time>2019-06-30T06:59:26.000Z</time>
      </trkpt>
      <trkpt lat="43.18681" lon="2.40305">
        <ele>208.2</ele>
        <time>2019-06-30T06:59:27.000Z</time>
      </trkpt>
      <trkpt lat="43.18681" lon="2.40305">
        <ele>208.2</ele>
        <time>2019-06-30T06:59:28.000Z</time>
      </trkpt>
      <trkpt lat="43.1868" lon="2.40305">
        <ele>208.2</ele>
        <time>2019-06-30T06:59:29.000Z</time>
      </trkpt>
      <trkpt lat="43.1868" lon="2.40305">
        <ele>208.3</ele>
        <time>2019-06-30T06:59:30.000Z</time>
      </trkpt>
      <trkpt lat="43.1868" lon="2.40305">
        <ele>208.3</ele>
        <time>2019-06-30T06:59:31.000Z</time>
      </trkpt>
      <trkpt lat="43.1868" lon="2.40305">
        <ele>208.3</ele>
        <time>2019-06-30T06:59:32.000Z</time>
      </trkpt>
      <trkpt lat="43.1868" lon="2.40305">
        <ele>208.3</ele>
        <time>2019-06-30T06:59:33.000Z</time>
      </trkpt>
      <trkpt lat="43.1868" lon="2.40305">
        <ele>208.3</ele>
        <time>2019-06-30T06:59:34.000Z</time>
      </trkpt>
      <trkpt lat="43.1868" lon="2.40305">
        <ele>208.2</ele>
        <time>2019-06-30T06:59:35.000Z</time>
      </trkpt>
      <trkpt lat="43.1868" lon="2.40305">
        <ele>208.2</ele>
        <time>2019-06-30T06:59:36.000Z</time>
      </trkpt>
      <trkpt lat="43.1868" lon="2.40305">
        <ele>208.2</ele>
        <time>2019-06-30T06:59:37.000Z</time>
      </trkpt>
      <trkpt lat="43.18681" lon="2.40305">
        <ele>208.2</ele>
        <time>2019-06-30T06:59:38.000Z</time>
      </trkpt>
      <trkpt lat="43.18681" lon="2.40305">
        <ele>208.2</ele>
        <time>2019-06-30T06:59:39.000Z</time>
      </trkpt>
      <trkpt lat="43.1868" lon="2.40305">
        <ele>208.3</ele>
        <time>2019-06-30T06:59:40.000Z</time>
      </trkpt>
      <trkpt lat="43.1868" lon="2.40305">
        <ele>208.3</ele>
        <time>2019-06-30T06:59:41.000Z</time>
      </trkpt>
      <trkpt lat="43.18679" lon="2.40305">
        <ele>208.4</ele>
        <time>2019-06-30T06:59:42.000Z</time>
      </trkpt>
      <trkpt lat="43.18678" lon="2.40305">
        <ele>208.4</ele>
        <time>2019-06-30T06:59:43.000Z</time>
      </trkpt>
      <trkpt lat="43.18678" lon="2.40305">
        <ele>208.4</ele>
        <time>2019-06-30T06:59:44.000Z</time>
      </trkpt>
      <trkpt lat="43.18678" lon="2.40305">
        <ele>208.5</ele>
        <time>2019-06-30T06:59:45.000Z</time>
      </trkpt>
      <trkpt lat="43.18678" lon="2.40305">
        <ele>208.5</ele>
        <time>2019-06-30T06:59:46.000Z</time>
      </trkpt>
      <trkpt lat="43.18677" lon="2.40305">
        <ele>208.5</ele>
        <time>2019-06-30T06:59:47.000Z</time>
      </trkpt>
      <trkpt lat="43.18677" lon="2.40304">
        <ele>208.5</ele>
        <time>2019-06-30T06:59:48.000Z</time>
      </trkpt>
      <trkpt lat="43.18677" lon="2.40304">
        <ele>208.5</ele>
        <time>2019-06-30T06:59:49.000Z</time>
      </trkpt>
      <trkpt lat="43.18677" lon="2.40304">
        <ele>208.5</ele>
        <time>2019-06-30T06:59:50.000Z</time>
      </trkpt>
      <trkpt lat="43.18677" lon="2.40304">
        <ele>208.5</ele>
        <time>2019-06-30T06:59:51.000Z</time>
      </trkpt>
      <trkpt lat="43.18677" lon="2.40304">
        <ele>208.5</ele>
        <time>2019-06-30T06:59:52.000Z</time>
      </trkpt>
      <trkpt lat="43.18677" lon="2.40305">
        <ele>208.5</ele>
        <time>2019-06-30T06:59:53.000Z</time>
      </trkpt>
      <trkpt lat="43.18677" lon="2.40305">
        <ele>208.5</ele>
        <time>2019-06-30T06:59:54.000Z</time>
      </trkpt>
      <trkpt lat="43.18677" lon="2.40305">
        <ele>208.5</ele>
        <time>2019-06-30T06:59:55.000Z</time>
      </trkpt>
      <trkpt lat="43.18677" lon="2.40305">
        <ele>208.5</ele>
        <time>2019-06-30T06:59:56.000Z</time>
      </trkpt>
      <trkpt lat="43.18677" lon="2.40305">
        <ele>208.5</ele>
        <time>2019-06-30T06:59:57.000Z</time>
      </trkpt>
      <trkpt lat="43.18677" lon="2.40305">
        <ele>208.5</ele>
        <time>2019-06-30T06:59:58.000Z</time>
      </trkpt>
      <trkpt lat="43.18677" lon="2.40305">
        <ele>208.5</ele>
        <time>2019-06-30T06:59:59.000Z</time>
      </trkpt>
      <trkpt lat="43.18677" lon="2.40305">
        <ele>208.5</ele>
        <time>2019-06-30T07:00:00.000Z</time>
      </trkpt>
      <trkpt lat="43.18677" lon="2.40305">
        <ele>208.5</ele>
        <time>2019-06-30T07:00:01.000Z</time>
      </trkpt>
      <trkpt lat="43.18677" lon="2.40305">
        <ele>208.5</ele>
        <time>2019-06-30T07:00:02.000Z</time>
      </trkpt>
      <trkpt lat="43.18677" lon="2.40305">
        <ele>208.5</ele>
        <time>2019-06-30T07:00:03.000Z</time>
      </trkpt>
      <trkpt lat="43.18677" lon="2.40305">
        <ele>208.5</ele>
        <time>2019-06-30T07:00:04.000Z</time>
      </trkpt>
      <trkpt lat="43.18677" lon="2.40305">
        <ele>208.5</ele>
        <time>2019-06-30T07:00:05.000Z</time>
      </trkpt>
      <trkpt lat="43.18677" lon="2.40305">
        <ele>208.5</ele>
        <time>2019-06-30T07:00:06.000Z</time>
      </trkpt>
      <trkpt lat="43.18677" lon="2.40304">
        <ele>208.5</ele>
        <time>2019-06-30T07:00:07.000Z</time>
      </trkpt>
      <trkpt lat="43.18677" lon="2.40304">
        <ele>208.5</ele>
        <time>2019-06-30T07:00:08.000Z</time>
      </trkpt>
      <trkpt lat="43.18677" lon="2.40304">
        <ele>208.5</ele>
        <time>2019-06-30T07:00:09.000Z</time>
      </trkpt>
      <trkpt lat="43.18677" lon="2.40304">
        <ele>208.5</ele>
        <time>2019-06-30T07:00:10.000Z</time>
      </trkpt>
      <trkpt lat="43.18677" lon="2.40304">
        <ele>208.5</ele>
        <time>2019-06-30T07:00:11.000Z</time>
      </trkpt>
      <trkpt lat="43.18677" lon="2.40304">
        <ele>208.5</ele>
        <time>2019-06-30T07:00:12.000Z</time>
      </trkpt>
      <trkpt lat="43.18677" lon="2.40304">
        <ele>208.5</ele>
        <time>2019-06-30T07:00:13.000Z</time>
      </trkpt>
      <trkpt lat="43.18677" lon="2.40304">
        <ele>208.5</ele>
        <time>2019-06-30T07:00:14.000Z</time>
      </trkpt>
      <trkpt lat="43.18677" lon="2.40304">
        <ele>208.5</ele>
        <time>2019-06-30T07:00:15.000Z</time>
      </trkpt>
      <trkpt lat="43.18677" lon="2.40304">
        <ele>208.5</ele>
        <time>2019-06-30T07:00:16.000Z</time>
      </trkpt>
      <trkpt lat="43.18677" lon="2.40304">
        <ele>208.5</ele>
        <time>2019-06-30T07:00:17.000Z</time>
      </trkpt>
      <trkpt lat="43.18677" lon="2.40304">
        <ele>208.5</ele>
        <time>2019-06-30T07:00:18.000Z</time>
      </trkpt>
      <trkpt lat="43.18677" lon="2.40304">
        <ele>208.5</ele>
        <time>2019-06-30T07:00:19.000Z</time>
      </trkpt>
      <trkpt lat="43.18677" lon="2.40304">
        <ele>208.5</ele>
        <time>2019-06-30T07:00:20.000Z</time>
      </trkpt>
      <trkpt lat="43.18677" lon="2.40304">
        <ele>208.5</ele>
        <time>2019-06-30T07:00:21.000Z</time>
      </trkpt>
      <trkpt lat="43.18677" lon="2.40304">
        <ele>208.5</ele>
        <time>2019-06-30T07:00:22.000Z</time>
      </trkpt>
      <trkpt lat="43.18677" lon="2.40304">
        <ele>208.5</ele>
        <time>2019-06-30T07:00:23.000Z</time>
      </trkpt>
      <trkpt lat="43.18677" lon="2.40304">
        <ele>208.5</ele>
        <time>2019-06-30T07:00:24.000Z</time>
      </trkpt>
      <trkpt lat="43.18677" lon="2.40304">
        <ele>208.5</ele>
        <time>2019-06-30T07:00:25.000Z</time>
      </trkpt>
      <trkpt lat="43.18677" lon="2.40304">
        <ele>208.5</ele>
        <time>2019-06-30T07:00:26.000Z</time>
      </trkpt>
      <trkpt lat="43.18677" lon="2.40304">
        <ele>208.5</ele>
        <time>2019-06-30T07:00:27.000Z</time>
      </trkpt>
      <trkpt lat="43.18677" lon="2.40304">
        <ele>208.5</ele>
        <time>2019-06-30T07:00:28.000Z</time>
      </trkpt>
      <trkpt lat="43.18677" lon="2.40304">
        <ele>208.5</ele>
        <time>2019-06-30T07:00:29.000Z</time>
      </trkpt>
      <trkpt lat="43.18677" lon="2.40304">
        <ele>208.5</ele>
        <time>2019-06-30T07:00:30.000Z</time>
      </trkpt>
      <trkpt lat="43.18677" lon="2.40303">
        <ele>208.5</ele>
        <time>2019-06-30T07:00:31.000Z</time>
      </trkpt>
      <trkpt lat="43.18677" lon="2.40302">
        <ele>208.6</ele>
        <time>2019-06-30T07:00:32.000Z</time>
      </trkpt>
      <trkpt lat="43.18677" lon="2.40301">
        <ele>208.6</ele>
        <time>2019-06-30T07:00:33.000Z</time>
      </trkpt>
      <trkpt lat="43.18676" lon="2.403">
        <ele>208.6</ele>
        <time>2019-06-30T07:00:34.000Z</time>
      </trkpt>
      <trkpt lat="43.18676" lon="2.40299">
        <ele>208.7</ele>
        <time>2019-06-30T07:00:35.000Z</time>
      </trkpt>
      <trkpt lat="43.18676" lon="2.40298">
        <ele>208.7</ele>
        <time>2019-06-30T07:00:36.000Z</time>
      </trkpt>
      <trkpt lat="43.18676" lon="2.40297">
        <ele>208.7</ele>
        <time>2019-06-30T07:00:37.000Z</time>
      </trkpt>
      <trkpt lat="43.18676" lon="2.40296">
        <ele>208.7</ele>
        <time>2019-06-30T07:00:38.000Z</time>
      </trkpt>
      <trkpt lat="43.18676" lon="2.40295">
        <ele>208.7</ele>
        <time>2019-06-30T07:00:39.000Z</time>
      </trkpt>
      <trkpt lat="43.18676" lon="2.40294">
        <ele>208.7</ele>
        <time>2019-06-30T07:00:40.000Z</time>
      </trkpt>
      <trkpt lat="43.18676" lon="2.40293">
        <ele>208.7</ele>
        <time>2019-06-30T07:00:41.000Z</time>
      </trkpt>
      <trkpt lat="43.18676" lon="2.40292">
        <ele>208.7</ele>
        <time>2019-06-30T07:00:42.000Z</time>
      </trkpt>
      <trkpt lat="43.18676" lon="2.40291">
        <ele>208.7</ele>
        <time>2019-06-30T07:00:43.000Z</time>
      </trkpt>
      <trkpt lat="43.18676" lon="2.4029">
        <ele>208.7</ele>
        <time>2019-06-30T07:00:44.000Z</time>
      </trkpt>
      <trkpt lat="43.18677" lon="2.40289">
        <ele>208.7</ele>
        <time>2019-06-30T07:00:45.000Z</time>
      </trkpt>
      <trkpt lat="43.18677" lon="2.40289">
        <ele>208.7</ele>
        <time>2019-06-30T07:00:46.000Z</time>
      </trkpt>
      <trkpt lat="43.18677" lon="2.40288">
        <ele>208.7</ele>
        <time>2019-06-30T07:00:47.000Z</time>
      </trkpt>
      <trkpt lat="43.18677" lon="2.40287">
        <ele>208.7</ele>
        <time>2019-06-30T07:00:48.000Z</time>
      </trkpt>
      <trkpt lat="43.18677" lon="2.40286">
        <ele>208.7</ele>
        <time>2019-06-30T07:00:49.000Z</time>
      </trkpt>
      <trkpt lat="43.18677" lon="2.40285">
        <ele>208.7</ele>
        <time>2019-06-30T07:00:50.000Z</time>
      </trkpt>
      <trkpt lat="43.18677" lon="2.40284">
        <ele>208.7</ele>
        <time>2019-06-30T07:00:51.000Z</time>
      </trkpt>
      <trkpt lat="43.18677" lon="2.40283">
        <ele>208.7</ele>
        <time>2019-06-30T07:00:52.000Z</time>
      </trkpt>
      <trkpt lat="43.18677" lon="2.40281">
        <ele>208.8</ele>
        <time>2019-06-30T07:00:53.000Z</time>
      </trkpt>
      <trkpt lat="43.18676" lon="2.4028">
        <ele>208.8</ele>
        <time>2019-06-30T07:00:54.000Z</time>
      </trkpt>
      <trkpt lat="43.18676" lon="2.40279">
        <ele>208.8</ele>
        <time>2019-06-30T07:00:55.000Z</time>
      </trkpt>
      <trkpt lat="43.18676" lon="2.40277">
        <ele>208.8</ele>
        <time>2019-06-30T07:00:56.000Z</time>
      </trkpt>
      <trkpt lat="43.18676" lon="2.40276">
        <ele>208.9</ele>
        <time>2019-06-30T07:00:57.000Z</time>
      </trkpt>
      <trkpt lat="43.18676" lon="2.40274">
        <ele>208.9</ele>
        <time>2019-06-30T07:00:58.000Z</time>
      </trkpt>
      <trkpt lat="43.18676" lon="2.40273">
        <ele>208.9</ele>
        <time>2019-06-30T07:00:59.000Z</time>
      </trkpt>
      <trkpt lat="43.18675" lon="2.40271">
        <ele>209</ele>
        <time>2019-06-30T07:01:00.000Z</time>
      </trkpt>
      <trkpt lat="43.18675" lon="2.4027">
        <ele>209</ele>
        <time>2019-06-30T07:01:01.000Z</time>
      </trkpt>
      <trkpt lat="43.18675" lon="2.40268">
        <ele>209</ele>
        <time>2019-06-30T07:01:02.000Z</time>
      </trkpt>
      <trkpt lat="43.18675" lon="2.40267">
        <ele>209.1</ele>
        <time>2019-06-30T07:01:03.000Z</time>
      </trkpt>
      <trkpt lat="43.18675" lon="2.40266">
        <ele>209.1</ele>
        <time>2019-06-30T07:01:04.000Z</time>
      </trkpt>
      <trkpt lat="43.18675" lon="2.40264">
        <ele>209.1</ele>
        <time>2019-06-30T07:01:05.000Z</time>
      </trkpt>
      <trkpt lat="43.18674" lon="2.40263">
        <ele>209.1</ele>
        <time>2019-06-30T07:01:06.000Z</time>
      </trkpt>
      <trkpt lat="43.18674" lon="2.40262">
        <ele>209.2</ele>
        <time>2019-06-30T07:01:07.000Z</time>
      </trkpt>
      <trkpt lat="43.18674" lon="2.40261">
        <ele>209.2</ele>
        <time>2019-06-30T07:01:08.000Z</time>
      </trkpt>
      <trkpt lat="43.18674" lon="2.4026">
        <ele>209.2</ele>
        <time>2019-06-30T07:01:09.000Z</time>
      </trkpt>
      <trkpt lat="43.18674" lon="2.40258">
        <ele>209.2</ele>
        <time>2019-06-30T07:01:10.000Z</time>
      </trkpt>
      <trkpt lat="43.18674" lon="2.40257">
        <ele>209.2</ele>
        <time>2019-06-30T07:01:11.000Z</time>
      </trkpt>
      <trkpt lat="43.18674" lon="2.40256">
        <ele>209.3</ele>
        <time>2019-06-30T07:01:12.000Z</time>
      </trkpt>
      <trkpt lat="43.18674" lon="2.40255">
        <ele>209.3</ele>
        <time>2019-06-30T07:01:13.000Z</time>
      </trkpt>
      <trkpt lat="43.18674" lon="2.40254">
        <ele>209.3</ele>
        <time>2019-06-30T07:01:14.000Z</time>
      </trkpt>
      <trkpt lat="43.18674" lon="2.40253">
        <ele>209.3</ele>
        <time>2019-06-30T07:01:15.000Z</time>
      </trkpt>
      <trkpt lat="43.18674" lon="2.40252">
        <ele>209.3</ele>
        <time>2019-06-30T07:01:16.000Z</time>
      </trkpt>
      <trkpt lat="43.18674" lon="2.4025">
        <ele>209.3</ele>
        <time>2019-06-30T07:01:17.000Z</time>
      </trkpt>
      <trkpt lat="43.18674" lon="2.40249">
        <ele>209.4</ele>
        <time>2019-06-30T07:01:18.000Z</time>
      </trkpt>
      <trkpt lat="43.18674" lon="2.40248">
        <ele>209.4</ele>
        <time>2019-06-30T07:01:19.000Z</time>
      </trkpt>
      <trkpt lat="43.18673" lon="2.40247">
        <ele>209.4</ele>
        <time>2019-06-30T07:01:20.000Z</time>
      </trkpt>
      <trkpt lat="43.18673" lon="2.40245">
        <ele>209.5</ele>
        <time>2019-06-30T07:01:21.000Z</time>
      </trkpt>
      <trkpt lat="43.18673" lon="2.40244">
        <ele>209.5</ele>
        <time>2019-06-30T07:01:22.000Z</time>
      </trkpt>
      <trkpt lat="43.18673" lon="2.40243">
        <ele>209.5</ele>
        <time>2019-06-30T07:01:23.000Z</time>
      </trkpt>
      <trkpt lat="43.18673" lon="2.40242">
        <ele>209.6</ele>
        <time>2019-06-30T07:01:24.000Z</time>
      </trkpt>
      <trkpt lat="43.18673" lon="2.4024">
        <ele>209.6</ele>
        <time>2019-06-30T07:01:25.000Z</time>
      </trkpt>
      <trkpt lat="43.18673" lon="2.40239">
        <ele>209.6</ele>
        <time>2019-06-30T07:01:26.000Z</time>
      </trkpt>
      <trkpt lat="43.18673" lon="2.40238">
        <ele>209.7</ele>
        <time>2019-06-30T07:01:27.000Z</time>
      </trkpt>
      <trkpt lat="43.18673" lon="2.40236">
        <ele>209.7</ele>
        <time>2019-06-30T07:01:28.000Z</time>
      </trkpt>
      <trkpt lat="43.18673" lon="2.40235">
        <ele>209.7</ele>
        <time>2019-06-30T07:01:29.000Z</time>
      </trkpt>
      <trkpt lat="43.18673" lon="2.40234">
        <ele>209.8</ele>
        <time>2019-06-30T07:01:30.000Z</time>
      </trkpt>
      <trkpt lat="43.18673" lon="2.40232">
        <ele>209.8</ele>
        <time>2019-06-30T07:01:31.000Z</time>
      </trkpt>
      <trkpt lat="43.18673" lon="2.40231">
        <ele>209.8</ele>
        <time>2019-06-30T07:01:32.000Z</time>
      </trkpt>
      <trkpt lat="43.18673" lon="2.4023">
        <ele>209.9</ele>
        <time>2019-06-30T07:01:33.000Z</time>
      </trkpt>
      <trkpt lat="43.18673" lon="2.40228">
        <ele>209.9</ele>
        <time>2019-06-30T07:01:34.000Z</time>
      </trkpt>
      <trkpt lat="43.18673" lon="2.40227">
        <ele>209.9</ele>
        <time>2019-06-30T07:01:35.000Z</time>
      </trkpt>
      <trkpt lat="43.18673" lon="2.40226">
        <ele>210</ele>
        <time>2019-06-30T07:01:36.000Z</time>
      </trkpt>
      <trkpt lat="43.18673" lon="2.40224">
        <ele>210</ele>
        <time>2019-06-30T07:01:37.000Z</time>
      </trkpt>
      <trkpt lat="43.18673" lon="2.40223">
        <ele>210</ele>
        <time>2019-06-30T07:01:38.000Z</time>
      </trkpt>
      <trkpt lat="43.18673" lon="2.40222">
        <ele>210.1</ele>
        <time>2019-06-30T07:01:39.000Z</time>
      </trkpt>
      <trkpt lat="43.18673" lon="2.4022">
        <ele>210.1</ele>
        <time>2019-06-30T07:01:40.000Z</time>
      </trkpt>
      <trkpt lat="43.18672" lon="2.40219">
        <ele>210.2</ele>
        <time>2019-06-30T07:01:41.000Z</time>
      </trkpt>
      <trkpt lat="43.18672" lon="2.40218">
        <ele>210.2</ele>
        <time>2019-06-30T07:01:42.000Z</time>
      </trkpt>
      <trkpt lat="43.18672" lon="2.40217">
        <ele>210.3</ele>
        <time>2019-06-30T07:01:43.000Z</time>
      </trkpt>
      <trkpt lat="43.18672" lon="2.40215">
        <ele>210.3</ele>
        <time>2019-06-30T07:01:44.000Z</time>
      </trkpt>
      <trkpt lat="43.18672" lon="2.40214">
        <ele>210.4</ele>
        <time>2019-06-30T07:01:45.000Z</time>
      </trkpt>
      <trkpt lat="43.18672" lon="2.40212">
        <ele>210.4</ele>
        <time>2019-06-30T07:01:46.000Z</time>
      </trkpt>
      <trkpt lat="43.18671" lon="2.40211">
        <ele>210.5</ele>
        <time>2019-06-30T07:01:47.000Z</time>
      </trkpt>
      <trkpt lat="43.18671" lon="2.4021">
        <ele>210.5</ele>
        <time>2019-06-30T07:01:48.000Z</time>
      </trkpt>
      <trkpt lat="43.18671" lon="2.40208">
        <ele>210.6</ele>
        <time>2019-06-30T07:01:49.000Z</time>
      </trkpt>
      <trkpt lat="43.18671" lon="2.40207">
        <ele>210.6</ele>
        <time>2019-06-30T07:01:50.000Z</time>
      </trkpt>
      <trkpt lat="43.1867" lon="2.40205">
        <ele>210.7</ele>
        <time>2019-06-30T07:01:51.000Z</time>
      </trkpt>
      <trkpt lat="43.1867" lon="2.40204">
        <ele>210.7</ele>
        <time>2019-06-30T07:01:52.000Z</time>
      </trkpt>
      <trkpt lat="43.1867" lon="2.40203">
        <ele>210.8</ele>
        <time>2019-06-30T07:01:53.000Z</time>
      </trkpt>
      <trkpt lat="43.1867" lon="2.40201">
        <ele>210.8</ele>
        <time>2019-06-30T07:01:54.000Z</time>
      </trkpt>
      <trkpt lat="43.1867" lon="2.402">
        <ele>210.8</ele>
        <time>2019-06-30T07:01:55.000Z</time>
      </trkpt>
      <trkpt lat="43.1867" lon="2.40199">
        <ele>210.9</ele>
        <time>2019-06-30T07:01:56.000Z</time>
      </trkpt>
      <trkpt lat="43.1867" lon="2.40197">
        <ele>210.9</ele>
        <time>2019-06-30T07:01:57.000Z</time>
      </trkpt>
      <trkpt lat="43.18671" lon="2.40196">
        <ele>210.9</ele>
        <time>2019-06-30T07:01:58.000Z</time>
      </trkpt>
      <trkpt lat="43.18671" lon="2.40195">
        <ele>210.9</ele>
        <time>2019-06-30T07:01:59.000Z</time>
      </trkpt>
      <trkpt lat="43.18671" lon="2.40193">
        <ele>210.9</ele>
        <time>2019-06-30T07:02:00.000Z</time>
      </trkpt>
      <trkpt lat="43.18671" lon="2.40192">
        <ele>211</ele>
        <time>2019-06-30T07:02:01.000Z</time>
      </trkpt>
      <trkpt lat="43.18671" lon="2.4019">
        <ele>211</ele>
        <time>2019-06-30T07:02:02.000Z</time>
      </trkpt>
      <trkpt lat="43.18671" lon="2.40189">
        <ele>211.1</ele>
        <time>2019-06-30T07:02:03.000Z</time>
      </trkpt>
      <trkpt lat="43.18671" lon="2.40187">
        <ele>211.1</ele>
        <time>2019-06-30T07:02:04.000Z</time>
      </trkpt>
      <trkpt lat="43.18671" lon="2.40185">
        <ele>211.1</ele>
        <time>2019-06-30T07:02:05.000Z</time>
      </trkpt>
      <trkpt lat="43.18671" lon="2.40184">
        <ele>211.2</ele>
        <time>2019-06-30T07:02:06.000Z</time>
      </trkpt>
      <trkpt lat="43.1867" lon="2.40183">
        <ele>211.2</ele>
        <time>2019-06-30T07:02:07.000Z</time>
      </trkpt>
      <trkpt lat="43.1867" lon="2.40181">
        <ele>211.3</ele>
        <time>2019-06-30T07:02:08.000Z</time>
      </trkpt>
      <trkpt lat="43.1867" lon="2.4018">
        <ele>211.3</ele>
        <time>2019-06-30T07:02:09.000Z</time>
      </trkpt>
      <trkpt lat="43.1867" lon="2.40179">
        <ele>211.4</ele>
        <time>2019-06-30T07:02:10.000Z</time>
      </trkpt>
      <trkpt lat="43.1867" lon="2.40177">
        <ele>211.4</ele>
        <time>2019-06-30T07:02:11.000Z</time>
      </trkpt>
      <trkpt lat="43.18669" lon="2.40176">
        <ele>211.5</ele>
        <time>2019-06-30T07:02:12.000Z</time>
      </trkpt>
      <trkpt lat="43.18669" lon="2.40175">
        <ele>211.6</ele>
        <time>2019-06-30T07:02:13.000Z</time>
      </trkpt>
      <trkpt lat="43.18669" lon="2.40173">
        <ele>211.6</ele>
        <time>2019-06-30T07:02:14.000Z</time>
      </trkpt>
      <trkpt lat="43.18668" lon="2.40171">
        <ele>211.7</ele>
        <time>2019-06-30T07:02:15.000Z</time>
      </trkpt>
      <trkpt lat="43.18668" lon="2.40168">
        <ele>211.8</ele>
        <time>2019-06-30T07:02:16.000Z</time>
      </trkpt>
      <trkpt lat="43.18668" lon="2.40166">
        <ele>211.9</ele>
        <time>2019-06-30T07:02:17.000Z</time>
      </trkpt>
      <trkpt lat="43.18667" lon="2.40164">
        <ele>212</ele>
        <time>2019-06-30T07:02:18.000Z</time>
      </trkpt>
      <trkpt lat="43.18667" lon="2.40161">
        <ele>212.2</ele>
        <time>2019-06-30T07:02:19.000Z</time>
      </trkpt>
      <trkpt lat="43.18667" lon="2.40158">
        <ele>212.3</ele>
        <time>2019-06-30T07:02:20.000Z</time>
      </trkpt>
      <trkpt lat="43.18666" lon="2.40156">
        <ele>212.5</ele>
        <time>2019-06-30T07:02:21.000Z</time>
      </trkpt>
      <trkpt lat="43.18666" lon="2.40154">
        <ele>212.7</ele>
        <time>2019-06-30T07:02:22.000Z</time>
      </trkpt>
      <trkpt lat="43.18665" lon="2.40151">
        <ele>212.9</ele>
        <time>2019-06-30T07:02:23.000Z</time>
      </trkpt>
      <trkpt lat="43.18664" lon="2.40149">
        <ele>213.1</ele>
        <time>2019-06-30T07:02:24.000Z</time>
      </trkpt>
      <trkpt lat="43.18664" lon="2.40147">
        <ele>213.3</ele>
        <time>2019-06-30T07:02:25.000Z</time>
      </trkpt>
      <trkpt lat="43.18663" lon="2.40145">
        <ele>213.5</ele>
        <time>2019-06-30T07:02:26.000Z</time>
      </trkpt>
      <trkpt lat="43.18662" lon="2.40142">
        <ele>213.6</ele>
        <time>2019-06-30T07:02:27.000Z</time>
      </trkpt>
      <trkpt lat="43.18662" lon="2.4014">
        <ele>213.8</ele>
        <time>2019-06-30T07:02:28.000Z</time>
      </trkpt>
      <trkpt lat="43.18661" lon="2.40138">
        <ele>214</ele>
        <time>2019-06-30T07:02:29.000Z</time>
      </trkpt>
      <trkpt lat="43.18661" lon="2.40136">
        <ele>214.2</ele>
        <time>2019-06-30T07:02:30.000Z</time>
      </trkpt>
      <trkpt lat="43.1866" lon="2.40133">
        <ele>214.4</ele>
        <time>2019-06-30T07:02:31.000Z</time>
      </trkpt>
      <trkpt lat="43.1866" lon="2.40131">
        <ele>214.6</ele>
        <time>2019-06-30T07:02:32.000Z</time>
      </trkpt>
      <trkpt lat="43.18659" lon="2.40129">
        <ele>214.8</ele>
        <time>2019-06-30T07:02:33.000Z</time>
      </trkpt>
      <trkpt lat="43.18659" lon="2.40126">
        <ele>214.9</ele>
        <time>2019-06-30T07:02:34.000Z</time>
      </trkpt>
      <trkpt lat="43.18658" lon="2.40124">
        <ele>215.1</ele>
        <time>2019-06-30T07:02:35.000Z</time>
      </trkpt>
      <trkpt lat="43.18658" lon="2.40122">
        <ele>215.3</ele>
        <time>2019-06-30T07:02:36.000Z</time>
      </trkpt>
      <trkpt lat="43.18657" lon="2.40119">
        <ele>215.4</ele>
        <time>2019-06-30T07:02:37.000Z</time>
      </trkpt>
      <trkpt lat="43.18657" lon="2.40117">
        <ele>215.6</ele>
        <time>2019-06-30T07:02:38.000Z</time>
      </trkpt>
      <trkpt lat="43.18656" lon="2.40115">
        <ele>215.7</ele>
        <time>2019-06-30T07:02:39.000Z</time>
      </trkpt>
      <trkpt lat="43.18656" lon="2.40112">
        <ele>215.9</ele>
        <time>2019-06-30T07:02:40.000Z</time>
      </trkpt>
      <trkpt lat="43.18656" lon="2.4011">
        <ele>216</ele>
        <time>2019-06-30T07:02:41.000Z</time>
      </trkpt>
      <trkpt lat="43.18655" lon="2.40108">
        <ele>216.2</ele>
        <time>2019-06-30T07:02:42.000Z</time>
      </trkpt>
      <trkpt lat="43.18655" lon="2.40106">
        <ele>216.3</ele>
        <time>2019-06-30T07:02:43.000Z</time>
      </trkpt>
      <trkpt lat="43.18654" lon="2.40104">
        <ele>216.5</ele>
        <time>2019-06-30T07:02:44.000Z</time>
      </trkpt>
      <trkpt lat="43.18654" lon="2.40103">
        <ele>216.6</ele>
        <time>2019-06-30T07:02:45.000Z</time>
      </trkpt>
      <trkpt lat="43.18654" lon="2.40101">
        <ele>216.7</ele>
        <time>2019-06-30T07:02:46.000Z</time>
      </trkpt>
      <trkpt lat="43.18654" lon="2.40099">
        <ele>216.8</ele>
        <time>2019-06-30T07:02:47.000Z</time>
      </trkpt>
      <trkpt lat="43.18653" lon="2.40098">
        <ele>216.9</ele>
        <time>2019-06-30T07:02:48.000Z</time>
      </trkpt>
      <trkpt lat="43.18653" lon="2.40097">
        <ele>216.9</ele>
        <time>2019-06-30T07:02:49.000Z</time>
      </trkpt>
      <trkpt lat="43.18653" lon="2.40096">
        <ele>217</ele>
        <time>2019-06-30T07:02:50.000Z</time>
      </trkpt>
      <trkpt lat="43.18653" lon="2.40095">
        <ele>217</ele>
        <time>2019-06-30T07:02:51.000Z</time>
      </trkpt>
      <trkpt lat="43.18653" lon="2.40094">
        <ele>217.1</ele>
        <time>2019-06-30T07:02:52.000Z</time>
      </trkpt>
      <trkpt lat="43.18653" lon="2.40093">
        <ele>217.1</ele>
        <time>2019-06-30T07:02:53.000Z</time>
      </trkpt>
      <trkpt lat="43.18653" lon="2.40092">
        <ele>217.1</ele>
        <time>2019-06-30T07:02:54.000Z</time>
      </trkpt>
      <trkpt lat="43.18653" lon="2.40091">
        <ele>217.1</ele>
        <time>2019-06-30T07:02:55.000Z</time>
      </trkpt>
      <trkpt lat="43.18653" lon="2.4009">
        <ele>217.2</ele>
        <time>2019-06-30T07:02:56.000Z</time>
      </trkpt>
      <trkpt lat="43.18653" lon="2.40088">
        <ele>217.3</ele>
        <time>2019-06-30T07:02:57.000Z</time>
      </trkpt>
      <trkpt lat="43.18653" lon="2.40086">
        <ele>217.4</ele>
        <time>2019-06-30T07:02:58.000Z</time>
      </trkpt>
      <trkpt lat="43.18652" lon="2.40084">
        <ele>217.5</ele>
        <time>2019-06-30T07:02:59.000Z</time>
      </trkpt>
      <trkpt lat="43.18652" lon="2.40082">
        <ele>217.7</ele>
        <time>2019-06-30T07:03:00.000Z</time>
      </trkpt>
      <trkpt lat="43.18651" lon="2.4008">
        <ele>217.9</ele>
        <time>2019-06-30T07:03:01.000Z</time>
      </trkpt>
      <trkpt lat="43.18651" lon="2.40077">
        <ele>218</ele>
        <time>2019-06-30T07:03:02.000Z</time>
      </trkpt>
      <trkpt lat="43.1865" lon="2.40075">
        <ele>218.2</ele>
        <time>2019-06-30T07:03:03.000Z</time>
      </trkpt>
      <trkpt lat="43.18649" lon="2.40073">
        <ele>218.4</ele>
        <time>2019-06-30T07:03:04.000Z</time>
      </trkpt>
      <trkpt lat="43.18648" lon="2.4007">
        <ele>218.6</ele>
        <time>2019-06-30T07:03:05.000Z</time>
      </trkpt>
      <trkpt lat="43.18648" lon="2.40068">
        <ele>218.8</ele>
        <time>2019-06-30T07:03:06.000Z</time>
      </trkpt>
      <trkpt lat="43.18647" lon="2.40065">
        <ele>219</ele>
        <time>2019-06-30T07:03:07.000Z</time>
      </trkpt>
      <trkpt lat="43.18646" lon="2.40063">
        <ele>219.2</ele>
        <time>2019-06-30T07:03:08.000Z</time>
      </trkpt>
      <trkpt lat="43.18645" lon="2.4006">
        <ele>219.4</ele>
        <time>2019-06-30T07:03:09.000Z</time>
      </trkpt>
      <trkpt lat="43.18645" lon="2.40058">
        <ele>219.5</ele>
        <time>2019-06-30T07:03:10.000Z</time>
      </trkpt>
      <trkpt lat="43.18644" lon="2.40056">
        <ele>219.7</ele>
        <time>2019-06-30T07:03:11.000Z</time>
      </trkpt>
      <trkpt lat="43.18644" lon="2.40054">
        <ele>219.8</ele>
        <time>2019-06-30T07:03:12.000Z</time>
      </trkpt>
      <trkpt lat="43.18644" lon="2.40052">
        <ele>219.8</ele>
        <time>2019-06-30T07:03:13.000Z</time>
      </trkpt>
      <trkpt lat="43.18644" lon="2.4005">
        <ele>219.9</ele>
        <time>2019-06-30T07:03:14.000Z</time>
      </trkpt>
      <trkpt lat="43.18644" lon="2.40048">
        <ele>220</ele>
        <time>2019-06-30T07:03:15.000Z</time>
      </trkpt>
      <trkpt lat="43.18644" lon="2.40046">
        <ele>220</ele>
        <time>2019-06-30T07:03:16.000Z</time>
      </trkpt>
      <trkpt lat="43.18643" lon="2.40043">
        <ele>220.1</ele>
        <time>2019-06-30T07:03:17.000Z</time>
      </trkpt>
      <trkpt lat="43.18643" lon="2.40041">
        <ele>220.2</ele>
        <time>2019-06-30T07:03:18.000Z</time>
      </trkpt>
      <trkpt lat="43.18643" lon="2.40038">
        <ele>220.3</ele>
        <time>2019-06-30T07:03:19.000Z</time>
      </trkpt>
      <trkpt lat="43.18642" lon="2.40036">
        <ele>220.4</ele>
        <time>2019-06-30T07:03:20.000Z</time>
      </trkpt>
      <trkpt lat="43.18642" lon="2.40033">
        <ele>220.5</ele>
        <time>2019-06-30T07:03:21.000Z</time>
      </trkpt>
      <trkpt lat="43.18641" lon="2.40031">
        <ele>220.7</ele>
        <time>2019-06-30T07:03:22.000Z</time>
      </trkpt>
      <trkpt lat="43.18641" lon="2.40028">
        <ele>220.8</ele>
        <time>2019-06-30T07:03:23.000Z</time>
      </trkpt>
      <trkpt lat="43.1864" lon="2.40025">
        <ele>221</ele>
        <time>2019-06-30T07:03:24.000Z</time>
      </trkpt>
      <trkpt lat="43.1864" lon="2.40023">
        <ele>221.1</ele>
        <time>2019-06-30T07:03:25.000Z</time>
      </trkpt>
      <trkpt lat="43.18639" lon="2.40021">
        <ele>221.2</ele>
        <time>2019-06-30T07:03:26.000Z</time>
      </trkpt>
      <trkpt lat="43.18639" lon="2.40018">
        <ele>221.4</ele>
        <time>2019-06-30T07:03:27.000Z</time>
      </trkpt>
      <trkpt lat="43.18638" lon="2.40016">
        <ele>221.5</ele>
        <time>2019-06-30T07:03:28.000Z</time>
      </trkpt>
      <trkpt lat="43.18638" lon="2.40014">
        <ele>221.6</ele>
        <time>2019-06-30T07:03:29.000Z</time>
      </trkpt>
      <trkpt lat="43.18637" lon="2.40011">
        <ele>221.7</ele>
        <time>2019-06-30T07:03:30.000Z</time>
      </trkpt>
      <trkpt lat="43.18637" lon="2.40009">
        <ele>221.8</ele>
        <time>2019-06-30T07:03:31.000Z</time>
      </trkpt>
      <trkpt lat="43.18636" lon="2.40006">
        <ele>221.9</ele>
        <time>2019-06-30T07:03:32.000Z</time>
      </trkpt>
      <trkpt lat="43.18636" lon="2.40004">
        <ele>222</ele>
        <time>2019-06-30T07:03:33.000Z</time>
      </trkpt>
      <trkpt lat="43.18636" lon="2.40001">
        <ele>222.1</ele>
        <time>2019-06-30T07:03:34.000Z</time>
      </trkpt>
      <trkpt lat="43.18635" lon="2.39999">
        <ele>222.1</ele>
        <time>2019-06-30T07:03:35.000Z</time>
      </trkpt>
      <trkpt lat="43.18635" lon="2.39996">
        <ele>222.1</ele>
        <time>2019-06-30T07:03:36.000Z</time>
      </trkpt>
      <trkpt lat="43.18635" lon="2.39994">
        <ele>222.1</ele>
        <time>2019-06-30T07:03:37.000Z</time>
      </trkpt>
      <trkpt lat="43.18634" lon="2.39993">
        <ele>222.1</ele>
        <time>2019-06-30T07:03:38.000Z</time>
      </trkpt>
      <trkpt lat="43.18634" lon="2.39992">
        <ele>222.2</ele>
        <time>2019-06-30T07:03:39.000Z</time>
      </trkpt>
      <trkpt lat="43.18633" lon="2.39991">
        <ele>222.2</ele>
        <time>2019-06-30T07:03:40.000Z</time>
      </trkpt>
      <trkpt lat="43.18632" lon="2.39991">
        <ele>222.3</ele>
        <time>2019-06-30T07:03:41.000Z</time>
      </trkpt>
      <trkpt lat="43.18632" lon="2.39991">
        <ele>222.3</ele>
        <time>2019-06-30T07:03:42.000Z</time>
      </trkpt>
      <trkpt lat="43.18632" lon="2.39992">
        <ele>222.3</ele>
        <time>2019-06-30T07:03:43.000Z</time>
      </trkpt>
      <trkpt lat="43.18633" lon="2.39993">
        <ele>222.3</ele>
        <time>2019-06-30T07:03:44.000Z</time>
      </trkpt>
      <trkpt lat="43.18633" lon="2.39994">
        <ele>222.2</ele>
        <time>2019-06-30T07:03:45.000Z</time>
      </trkpt>
      <trkpt lat="43.18634" lon="2.39994">
        <ele>222.2</ele>
        <time>2019-06-30T07:03:46.000Z</time>
      </trkpt>
      <trkpt lat="43.18634" lon="2.39994">
        <ele>222.2</ele>
        <time>2019-06-30T07:03:47.000Z</time>
      </trkpt>
      <trkpt lat="43.18634" lon="2.39993">
        <ele>222.1</ele>
        <time>2019-06-30T07:03:48.000Z</time>
      </trkpt>
      <trkpt lat="43.18634" lon="2.39992">
        <ele>222.1</ele>
        <time>2019-06-30T07:03:49.000Z</time>
      </trkpt>
      <trkpt lat="43.18634" lon="2.3999">
        <ele>222.1</ele>
        <time>2019-06-30T07:03:50.000Z</time>
      </trkpt>
      <trkpt lat="43.18633" lon="2.39988">
        <ele>222.1</ele>
        <time>2019-06-30T07:03:51.000Z</time>
      </trkpt>
      <trkpt lat="43.18633" lon="2.39986">
        <ele>222.1</ele>
        <time>2019-06-30T07:03:52.000Z</time>
      </trkpt>
      <trkpt lat="43.18632" lon="2.39984">
        <ele>222.1</ele>
        <time>2019-06-30T07:03:53.000Z</time>
      </trkpt>
      <trkpt lat="43.18632" lon="2.39981">
        <ele>222.1</ele>
        <time>2019-06-30T07:03:54.000Z</time>
      </trkpt>
      <trkpt lat="43.18631" lon="2.39979">
        <ele>222.1</ele>
        <time>2019-06-30T07:03:55.000Z</time>
      </trkpt>
      <trkpt lat="43.18631" lon="2.39976">
        <ele>222.1</ele>
        <time>2019-06-30T07:03:56.000Z</time>
      </trkpt>
      <trkpt lat="43.1863" lon="2.39974">
        <ele>222.1</ele>
        <time>2019-06-30T07:03:57.000Z</time>
      </trkpt>
      <trkpt lat="43.1863" lon="2.39972">
        <ele>222.1</ele>
        <time>2019-06-30T07:03:58.000Z</time>
      </trkpt>
      <trkpt lat="43.18629" lon="2.39969">
        <ele>222.1</ele>
        <time>2019-06-30T07:03:59.000Z</time>
      </trkpt>
      <trkpt lat="43.18629" lon="2.39967">
        <ele>222.1</ele>
        <time>2019-06-30T07:04:00.000Z</time>
      </trkpt>
      <trkpt lat="43.18628" lon="2.39965">
        <ele>222.1</ele>
        <time>2019-06-30T07:04:01.000Z</time>
      </trkpt>
      <trkpt lat="43.18628" lon="2.39962">
        <ele>222.1</ele>
        <time>2019-06-30T07:04:02.000Z</time>
      </trkpt>
      <trkpt lat="43.18628" lon="2.3996">
        <ele>222</ele>
        <time>2019-06-30T07:04:03.000Z</time>
      </trkpt>
      <trkpt lat="43.18627" lon="2.39957">
        <ele>222</ele>
        <time>2019-06-30T07:04:04.000Z</time>
      </trkpt>
      <trkpt lat="43.18627" lon="2.39955">
        <ele>222</ele>
        <time>2019-06-30T07:04:05.000Z</time>
      </trkpt>
      <trkpt lat="43.18627" lon="2.39953">
        <ele>221.9</ele>
        <time>2019-06-30T07:04:06.000Z</time>
      </trkpt>
      <trkpt lat="43.18626" lon="2.3995">
        <ele>221.9</ele>
        <time>2019-06-30T07:04:07.000Z</time>
      </trkpt>
      <trkpt lat="43.18626" lon="2.39948">
        <ele>221.8</ele>
        <time>2019-06-30T07:04:08.000Z</time>
      </trkpt>
      <trkpt lat="43.18626" lon="2.39945">
        <ele>221.8</ele>
        <time>2019-06-30T07:04:09.000Z</time>
      </trkpt>
      <trkpt lat="43.18626" lon="2.39943">
        <ele>221.7</ele>
        <time>2019-06-30T07:04:10.000Z</time>
      </trkpt>
      <trkpt lat="43.18626" lon="2.3994">
        <ele>221.7</ele>
        <time>2019-06-30T07:04:11.000Z</time>
      </trkpt>
      <trkpt lat="43.18625" lon="2.39938">
        <ele>221.6</ele>
        <time>2019-06-30T07:04:12.000Z</time>
      </trkpt>
      <trkpt lat="43.18625" lon="2.39935">
        <ele>221.6</ele>
        <time>2019-06-30T07:04:13.000Z</time>
      </trkpt>
      <trkpt lat="43.18624" lon="2.39932">
        <ele>221.5</ele>
        <time>2019-06-30T07:04:14.000Z</time>
      </trkpt>
      <trkpt lat="43.18624" lon="2.3993">
        <ele>221.5</ele>
        <time>2019-06-30T07:04:15.000Z</time>
      </trkpt>
      <trkpt lat="43.18623" lon="2.39927">
        <ele>221.5</ele>
        <time>2019-06-30T07:04:16.000Z</time>
      </trkpt>
      <trkpt lat="43.18623" lon="2.39926">
        <ele>221.4</ele>
        <time>2019-06-30T07:04:17.000Z</time>
      </trkpt>
      <trkpt lat="43.18622" lon="2.39924">
        <ele>221.4</ele>
        <time>2019-06-30T07:04:18.000Z</time>
      </trkpt>
      <trkpt lat="43.18622" lon="2.39924">
        <ele>221.4</ele>
        <time>2019-06-30T07:04:19.000Z</time>
      </trkpt>
      <trkpt lat="43.18622" lon="2.39924">
        <ele>221.4</ele>
        <time>2019-06-30T07:04:20.000Z</time>
      </trkpt>
      <trkpt lat="43.18622" lon="2.39924">
        <ele>221.4</ele>
        <time>2019-06-30T07:04:21.000Z</time>
      </trkpt>
      <trkpt lat="43.18622" lon="2.39923">
        <ele>221.4</ele>
        <time>2019-06-30T07:04:22.000Z</time>
      </trkpt>
      <trkpt lat="43.18622" lon="2.39923">
        <ele>221.4</ele>
        <time>2019-06-30T07:04:23.000Z</time>
      </trkpt>
      <trkpt lat="43.18622" lon="2.39922">
        <ele>221.4</ele>
        <time>2019-06-30T07:04:24.000Z</time>
      </trkpt>
      <trkpt lat="43.18622" lon="2.39921">
        <ele>221.4</ele>
        <time>2019-06-30T07:04:25.000Z</time>
      </trkpt>
      <trkpt lat="43.18621" lon="2.3992">
        <ele>221.4</ele>
        <time>2019-06-30T07:04:26.000Z</time>
      </trkpt>
      <trkpt lat="43.18621" lon="2.39918">
        <ele>221.3</ele>
        <time>2019-06-30T07:04:27.000Z</time>
      </trkpt>
      <trkpt lat="43.18621" lon="2.39917">
        <ele>221.3</ele>
        <time>2019-06-30T07:04:28.000Z</time>
      </trkpt>
      <trkpt lat="43.18621" lon="2.39915">
        <ele>221.3</ele>
        <time>2019-06-30T07:04:29.000Z</time>
      </trkpt>
      <trkpt lat="43.1862" lon="2.39914">
        <ele>221.3</ele>
        <time>2019-06-30T07:04:30.000Z</time>
      </trkpt>
      <trkpt lat="43.1862" lon="2.39912">
        <ele>221.3</ele>
        <time>2019-06-30T07:04:31.000Z</time>
      </trkpt>
      <trkpt lat="43.1862" lon="2.39911">
        <ele>221.4</ele>
        <time>2019-06-30T07:04:32.000Z</time>
      </trkpt>
      <trkpt lat="43.1862" lon="2.39909">
        <ele>221.4</ele>
        <time>2019-06-30T07:04:33.000Z</time>
      </trkpt>
      <trkpt lat="43.1862" lon="2.39908">
        <ele>221.4</ele>
        <time>2019-06-30T07:04:34.000Z</time>
      </trkpt>
      <trkpt lat="43.1862" lon="2.39906">
        <ele>221.4</ele>
        <time>2019-06-30T07:04:35.000Z</time>
      </trkpt>
      <trkpt lat="43.1862" lon="2.39904">
        <ele>221.4</ele>
        <time>2019-06-30T07:04:36.000Z</time>
      </trkpt>
      <trkpt lat="43.18619" lon="2.39902">
        <ele>221.4</ele>
        <time>2019-06-30T07:04:37.000Z</time>
      </trkpt>
      <trkpt lat="43.18619" lon="2.399">
        <ele>221.4</ele>
        <time>2019-06-30T07:04:38.000Z</time>
      </trkpt>
      <trkpt lat="43.18619" lon="2.39898">
        <ele>221.4</ele>
        <time>2019-06-30T07:04:39.000Z</time>
      </trkpt>
      <trkpt lat="43.18619" lon="2.39895">
        <ele>221.5</ele>
        <time>2019-06-30T07:04:40.000Z</time>
      </trkpt>
      <trkpt lat="43.18618" lon="2.39893">
        <ele>221.5</ele>
        <time>2019-06-30T07:04:41.000Z</time>
      </trkpt>
      <trkpt lat="43.18618" lon="2.39891">
        <ele>221.5</ele>
        <time>2019-06-30T07:04:42.000Z</time>
      </trkpt>
      <trkpt lat="43.18618" lon="2.39888">
        <ele>221.5</ele>
        <time>2019-06-30T07:04:43.000Z</time>
      </trkpt>
      <trkpt lat="43.18618" lon="2.39885">
        <ele>221.5</ele>
        <time>2019-06-30T07:04:44.000Z</time>
      </trkpt>
      <trkpt lat="43.18617" lon="2.39883">
        <ele>221.5</ele>
        <time>2019-06-30T07:04:45.000Z</time>
      </trkpt>
      <trkpt lat="43.18617" lon="2.3988">
        <ele>221.5</ele>
        <time>2019-06-30T07:04:46.000Z</time>
      </trkpt>
      <trkpt lat="43.18617" lon="2.39877">
        <ele>221.5</ele>
        <time>2019-06-30T07:04:47.000Z</time>
      </trkpt>
      <trkpt lat="43.18616" lon="2.39874">
        <ele>221.5</ele>
        <time>2019-06-30T07:04:48.000Z</time>
      </trkpt>
      <trkpt lat="43.18616" lon="2.39871">
        <ele>221.5</ele>
        <time>2019-06-30T07:04:49.000Z</time>
      </trkpt>
      <trkpt lat="43.18615" lon="2.39868">
        <ele>221.5</ele>
        <time>2019-06-30T07:04:50.000Z</time>
      </trkpt>
      <trkpt lat="43.18615" lon="2.39865">
        <ele>221.5</ele>
        <time>2019-06-30T07:04:51.000Z</time>
      </trkpt>
      <trkpt lat="43.18615" lon="2.39862">
        <ele>221.5</ele>
        <time>2019-06-30T07:04:52.000Z</time>
      </trkpt>
      <trkpt lat="43.18614" lon="2.39859">
        <ele>221.5</ele>
        <time>2019-06-30T07:04:53.000Z</time>
      </trkpt>
      <trkpt lat="43.18614" lon="2.39856">
        <ele>221.5</ele>
        <time>2019-06-30T07:04:54.000Z</time>
      </trkpt>
      <trkpt lat="43.18613" lon="2.39853">
        <ele>221.5</ele>
        <time>2019-06-30T07:04:55.000Z</time>
      </trkpt>
      <trkpt lat="43.18613" lon="2.3985">
        <ele>221.5</ele>
        <time>2019-06-30T07:04:56.000Z</time>
      </trkpt>
      <trkpt lat="43.18613" lon="2.39847">
        <ele>221.4</ele>
        <time>2019-06-30T07:04:57.000Z</time>
      </trkpt>
      <trkpt lat="43.18612" lon="2.39843">
        <ele>221.4</ele>
        <time>2019-06-30T07:04:58.000Z</time>
      </trkpt>
      <trkpt lat="43.18612" lon="2.3984">
        <ele>221.4</ele>
        <time>2019-06-30T07:04:59.000Z</time>
      </trkpt>
      <trkpt lat="43.18611" lon="2.39837">
        <ele>221.4</ele>
        <time>2019-06-30T07:05:00.000Z</time>
      </trkpt>
      <trkpt lat="43.18611" lon="2.39834">
        <ele>221.3</ele>
        <time>2019-06-30T07:05:01.000Z</time>
      </trkpt>
      <trkpt lat="43.18611" lon="2.39831">
        <ele>221.3</ele>
        <time>2019-06-30T07:05:02.000Z</time>
      </trkpt>
      <trkpt lat="43.1861" lon="2.39828">
        <ele>221.3</ele>
        <time>2019-06-30T07:05:03.000Z</time>
      </trkpt>
      <trkpt lat="43.1861" lon="2.39825">
        <ele>221.2</ele>
        <time>2019-06-30T07:05:04.000Z</time>
      </trkpt>
      <trkpt lat="43.18609" lon="2.39822">
        <ele>221.2</ele>
        <time>2019-06-30T07:05:05.000Z</time>
      </trkpt>
      <trkpt lat="43.18609" lon="2.39819">
        <ele>221.1</ele>
        <time>2019-06-30T07:05:06.000Z</time>
      </trkpt>
      <trkpt lat="43.18609" lon="2.39816">
        <ele>221.1</ele>
        <time>2019-06-30T07:05:07.000Z</time>
      </trkpt>
      <trkpt lat="43.18608" lon="2.39813">
        <ele>221</ele>
        <time>2019-06-30T07:05:08.000Z</time>
      </trkpt>
      <trkpt lat="43.18608" lon="2.3981">
        <ele>220.9</ele>
        <time>2019-06-30T07:05:09.000Z</time>
      </trkpt>
      <trkpt lat="43.18608" lon="2.39807">
        <ele>220.9</ele>
        <time>2019-06-30T07:05:10.000Z</time>
      </trkpt>
      <trkpt lat="43.18607" lon="2.39803">
        <ele>220.8</ele>
        <time>2019-06-30T07:05:11.000Z</time>
      </trkpt>
      <trkpt lat="43.18607" lon="2.398">
        <ele>220.8</ele>
        <time>2019-06-30T07:05:12.000Z</time>
      </trkpt>
      <trkpt lat="43.18607" lon="2.39797">
        <ele>220.7</ele>
        <time>2019-06-30T07:05:13.000Z</time>
      </trkpt>
      <trkpt lat="43.18607" lon="2.39793">
        <ele>220.7</ele>
        <time>2019-06-30T07:05:14.000Z</time>
      </trkpt>
      <trkpt lat="43.18607" lon="2.3979">
        <ele>220.6</ele>
        <time>2019-06-30T07:05:15.000Z</time>
      </trkpt>
      <trkpt lat="43.18607" lon="2.39786">
        <ele>220.5</ele>
        <time>2019-06-30T07:05:16.000Z</time>
      </trkpt>
      <trkpt lat="43.18607" lon="2.39783">
        <ele>220.5</ele>
        <time>2019-06-30T07:05:17.000Z</time>
      </trkpt>
      <trkpt lat="43.18606" lon="2.39779">
        <ele>220.4</ele>
        <time>2019-06-30T07:05:18.000Z</time>
      </trkpt>
      <trkpt lat="43.18606" lon="2.39776">
        <ele>220.3</ele>
        <time>2019-06-30T07:05:19.000Z</time>
      </trkpt>
      <trkpt lat="43.18606" lon="2.39772">
        <ele>220.3</ele>
        <time>2019-06-30T07:05:20.000Z</time>
      </trkpt>
      <trkpt lat="43.18606" lon="2.39769">
        <ele>220.2</ele>
        <time>2019-06-30T07:05:21.000Z</time>
      </trkpt>
      <trkpt lat="43.18606" lon="2.39766">
        <ele>220.1</ele>
        <time>2019-06-30T07:05:22.000Z</time>
      </trkpt>
      <trkpt lat="43.18606" lon="2.39762">
        <ele>220.1</ele>
        <time>2019-06-30T07:05:23.000Z</time>
      </trkpt>
      <trkpt lat="43.18605" lon="2.39759">
        <ele>220</ele>
        <time>2019-06-30T07:05:24.000Z</time>
      </trkpt>
      <trkpt lat="43.18605" lon="2.39756">
        <ele>219.9</ele>
        <time>2019-06-30T07:05:25.000Z</time>
      </trkpt>
      <trkpt lat="43.18605" lon="2.39753">
        <ele>219.9</ele>
        <time>2019-06-30T07:05:26.000Z</time>
      </trkpt>
      <trkpt lat="43.18605" lon="2.39751">
        <ele>219.8</ele>
        <time>2019-06-30T07:05:27.000Z</time>
      </trkpt>
      <trkpt lat="43.18604" lon="2.39748">
        <ele>219.7</ele>
        <time>2019-06-30T07:05:28.000Z</time>
      </trkpt>
      <trkpt lat="43.18604" lon="2.39745">
        <ele>219.7</ele>
        <time>2019-06-30T07:05:29.000Z</time>
      </trkpt>
      <trkpt lat="43.18604" lon="2.39742">
        <ele>219.7</ele>
        <time>2019-06-30T07:05:30.000Z</time>
      </trkpt>
      <trkpt lat="43.18603" lon="2.39739">
        <ele>219.6</ele>
        <time>2019-06-30T07:05:31.000Z</time>
      </trkpt>
      <trkpt lat="43.18603" lon="2.39736">
        <ele>219.6</ele>
        <time>2019-06-30T07:05:32.000Z</time>
      </trkpt>
      <trkpt lat="43.18603" lon="2.39733">
        <ele>219.6</ele>
        <time>2019-06-30T07:05:33.000Z</time>
      </trkpt>
      <trkpt lat="43.18603" lon="2.39729">
        <ele>219.6</ele>
        <time>2019-06-30T07:05:34.000Z</time>
      </trkpt>
      <trkpt lat="43.18603" lon="2.39726">
        <ele>219.6</ele>
        <time>2019-06-30T07:05:35.000Z</time>
      </trkpt>
      <trkpt lat="43.18603" lon="2.39723">
        <ele>219.6</ele>
        <time>2019-06-30T07:05:36.000Z</time>
      </trkpt>
      <trkpt lat="43.18604" lon="2.3972">
        <ele>219.6</ele>
        <time>2019-06-30T07:05:37.000Z</time>
      </trkpt>
      <trkpt lat="43.18604" lon="2.39717">
        <ele>219.7</ele>
        <time>2019-06-30T07:05:38.000Z</time>
      </trkpt>
      <trkpt lat="43.18605" lon="2.39714">
        <ele>219.7</ele>
        <time>2019-06-30T07:05:39.000Z</time>
      </trkpt>
      <trkpt lat="43.18606" lon="2.39711">
        <ele>219.8</ele>
        <time>2019-06-30T07:05:40.000Z</time>
      </trkpt>
      <trkpt lat="43.18606" lon="2.39708">
        <ele>219.8</ele>
        <time>2019-06-30T07:05:41.000Z</time>
      </trkpt>
      <trkpt lat="43.18606" lon="2.39705">
        <ele>219.8</ele>
        <time>2019-06-30T07:05:42.000Z</time>
      </trkpt>
      <trkpt lat="43.18606" lon="2.39702">
        <ele>219.8</ele>
        <time>2019-06-30T07:05:43.000Z</time>
      </trkpt>
      <trkpt lat="43.18606" lon="2.39699">
        <ele>219.8</ele>
        <time>2019-06-30T07:05:44.000Z</time>
      </trkpt>
      <trkpt lat="43.18606" lon="2.39696">
        <ele>219.8</ele>
        <time>2019-06-30T07:05:45.000Z</time>
      </trkpt>
      <trkpt lat="43.18605" lon="2.39693">
        <ele>219.7</ele>
        <time>2019-06-30T07:05:46.000Z</time>
      </trkpt>
      <trkpt lat="43.18605" lon="2.3969">
        <ele>219.7</ele>
        <time>2019-06-30T07:05:47.000Z</time>
      </trkpt>
      <trkpt lat="43.18605" lon="2.39687">
        <ele>219.6</ele>
        <time>2019-06-30T07:05:48.000Z</time>
      </trkpt>
      <trkpt lat="43.18604" lon="2.39684">
        <ele>219.5</ele>
        <time>2019-06-30T07:05:49.000Z</time>
      </trkpt>
      <trkpt lat="43.18604" lon="2.39681">
        <ele>219.5</ele>
        <time>2019-06-30T07:05:50.000Z</time>
      </trkpt>
      <trkpt lat="43.18603" lon="2.39678">
        <ele>219.4</ele>
        <time>2019-06-30T07:05:51.000Z</time>
      </trkpt>
      <trkpt lat="43.18603" lon="2.39675">
        <ele>219.3</ele>
        <time>2019-06-30T07:05:52.000Z</time>
      </trkpt>
      <trkpt lat="43.18602" lon="2.39672">
        <ele>219.3</ele>
        <time>2019-06-30T07:05:53.000Z</time>
      </trkpt>
      <trkpt lat="43.18601" lon="2.39669">
        <ele>219.2</ele>
        <time>2019-06-30T07:05:54.000Z</time>
      </trkpt>
      <trkpt lat="43.18601" lon="2.39666">
        <ele>219.1</ele>
        <time>2019-06-30T07:05:55.000Z</time>
      </trkpt>
      <trkpt lat="43.186" lon="2.39663">
        <ele>219</ele>
        <time>2019-06-30T07:05:56.000Z</time>
      </trkpt>
      <trkpt lat="43.18599" lon="2.3966">
        <ele>219</ele>
        <time>2019-06-30T07:05:57.000Z</time>
      </trkpt>
      <trkpt lat="43.18599" lon="2.39658">
        <ele>219</ele>
        <time>2019-06-30T07:05:58.000Z</time>
      </trkpt>
      <trkpt lat="43.18598" lon="2.39655">
        <ele>218.9</ele>
        <time>2019-06-30T07:05:59.000Z</time>
      </trkpt>
      <trkpt lat="43.18597" lon="2.39652">
        <ele>218.9</ele>
        <time>2019-06-30T07:06:00.000Z</time>
      </trkpt>
      <trkpt lat="43.18596" lon="2.39649">
        <ele>218.8</ele>
        <time>2019-06-30T07:06:01.000Z</time>
      </trkpt>
      <trkpt lat="43.18595" lon="2.39646">
        <ele>218.8</ele>
        <time>2019-06-30T07:06:02.000Z</time>
      </trkpt>
      <trkpt lat="43.18595" lon="2.39643">
        <ele>218.7</ele>
        <time>2019-06-30T07:06:03.000Z</time>
      </trkpt>
      <trkpt lat="43.18594" lon="2.39641">
        <ele>218.7</ele>
        <time>2019-06-30T07:06:04.000Z</time>
      </trkpt>
      <trkpt lat="43.18593" lon="2.39638">
        <ele>218.7</ele>
        <time>2019-06-30T07:06:05.000Z</time>
      </trkpt>
      <trkpt lat="43.18592" lon="2.39635">
        <ele>218.6</ele>
        <time>2019-06-30T07:06:06.000Z</time>
      </trkpt>
      <trkpt lat="43.18591" lon="2.39632">
        <ele>218.6</ele>
        <time>2019-06-30T07:06:07.000Z</time>
      </trkpt>
      <trkpt lat="43.1859" lon="2.39629">
        <ele>218.5</ele>
        <time>2019-06-30T07:06:08.000Z</time>
      </trkpt>
      <trkpt lat="43.18589" lon="2.39627">
        <ele>218.5</ele>
        <time>2019-06-30T07:06:09.000Z</time>
      </trkpt>
      <trkpt lat="43.18588" lon="2.39624">
        <ele>218.5</ele>
        <time>2019-06-30T07:06:10.000Z</time>
      </trkpt>
      <trkpt lat="43.18587" lon="2.39621">
        <ele>218.4</ele>
        <time>2019-06-30T07:06:11.000Z</time>
      </trkpt>
      <trkpt lat="43.18586" lon="2.39618">
        <ele>218.4</ele>
        <time>2019-06-30T07:06:12.000Z</time>
      </trkpt>
      <trkpt lat="43.18585" lon="2.39615">
        <ele>218.4</ele>
        <time>2019-06-30T07:06:13.000Z</time>
      </trkpt>
      <trkpt lat="43.18584" lon="2.39613">
        <ele>218.3</ele>
        <time>2019-06-30T07:06:14.000Z</time>
      </trkpt>
      <trkpt lat="43.18583" lon="2.3961">
        <ele>218.3</ele>
        <time>2019-06-30T07:06:15.000Z</time>
      </trkpt>
      <trkpt lat="43.18582" lon="2.39607">
        <ele>218.3</ele>
        <time>2019-06-30T07:06:16.000Z</time>
      </trkpt>
      <trkpt lat="43.1858" lon="2.39605">
        <ele>218.3</ele>
        <time>2019-06-30T07:06:17.000Z</time>
      </trkpt>
      <trkpt lat="43.18579" lon="2.39602">
        <ele>218.3</ele>
        <time>2019-06-30T07:06:18.000Z</time>
      </trkpt>
      <trkpt lat="43.18578" lon="2.39599">
        <ele>218.3</ele>
        <time>2019-06-30T07:06:19.000Z</time>
      </trkpt>
      <trkpt lat="43.18577" lon="2.39596">
        <ele>218.3</ele>
        <time>2019-06-30T07:06:20.000Z</time>
      </trkpt>
      <trkpt lat="43.18576" lon="2.39594">
        <ele>218.2</ele>
        <time>2019-06-30T07:06:21.000Z</time>
      </trkpt>
      <trkpt lat="43.18575" lon="2.39591">
        <ele>218.2</ele>
        <time>2019-06-30T07:06:22.000Z</time>
      </trkpt>
      <trkpt lat="43.18574" lon="2.39588">
        <ele>218.2</ele>
        <time>2019-06-30T07:06:23.000Z</time>
      </trkpt>
      <trkpt lat="43.18573" lon="2.39586">
        <ele>218.2</ele>
        <time>2019-06-30T07:06:24.000Z</time>
      </trkpt>
      <trkpt lat="43.18572" lon="2.39583">
        <ele>218.2</ele>
        <time>2019-06-30T07:06:25.000Z</time>
      </trkpt>
      <trkpt lat="43.18571" lon="2.3958">
        <ele>218.1</ele>
        <time>2019-06-30T07:06:26.000Z</time>
      </trkpt>
      <trkpt lat="43.1857" lon="2.39577">
        <ele>218.1</ele>
        <time>2019-06-30T07:06:27.000Z</time>
      </trkpt>
      <trkpt lat="43.1857" lon="2.39574">
        <ele>218</ele>
        <time>2019-06-30T07:06:28.000Z</time>
      </trkpt>
      <trkpt lat="43.18569" lon="2.39571">
        <ele>217.9</ele>
        <time>2019-06-30T07:06:29.000Z</time>
      </trkpt>
      <trkpt lat="43.18568" lon="2.39568">
        <ele>217.9</ele>
        <time>2019-06-30T07:06:30.000Z</time>
      </trkpt>
      <trkpt lat="43.18568" lon="2.39565">
        <ele>217.8</ele>
        <time>2019-06-30T07:06:31.000Z</time>
      </trkpt>
      <trkpt lat="43.18567" lon="2.39562">
        <ele>217.8</ele>
        <time>2019-06-30T07:06:32.000Z</time>
      </trkpt>
      <trkpt lat="43.18566" lon="2.39559">
        <ele>217.7</ele>
        <time>2019-06-30T07:06:33.000Z</time>
      </trkpt>
      <trkpt lat="43.18566" lon="2.39556">
        <ele>217.7</ele>
        <time>2019-06-30T07:06:34.000Z</time>
      </trkpt>
      <trkpt lat="43.18565" lon="2.39553">
        <ele>217.6</ele>
        <time>2019-06-30T07:06:35.000Z</time>
      </trkpt>
      <trkpt lat="43.18565" lon="2.3955">
        <ele>217.6</ele>
        <time>2019-06-30T07:06:36.000Z</time>
      </trkpt>
      <trkpt lat="43.18564" lon="2.39547">
        <ele>217.5</ele>
        <time>2019-06-30T07:06:37.000Z</time>
      </trkpt>
      <trkpt lat="43.18564" lon="2.39544">
        <ele>217.5</ele>
        <time>2019-06-30T07:06:38.000Z</time>
      </trkpt>
      <trkpt lat="43.18563" lon="2.39541">
        <ele>217.4</ele>
        <time>2019-06-30T07:06:39.000Z</time>
      </trkpt>
      <trkpt lat="43.18563" lon="2.39538">
        <ele>217.4</ele>
        <time>2019-06-30T07:06:40.000Z</time>
      </trkpt>
      <trkpt lat="43.18562" lon="2.39535">
        <ele>217.3</ele>
        <time>2019-06-30T07:06:41.000Z</time>
      </trkpt>
      <trkpt lat="43.18561" lon="2.39531">
        <ele>217.3</ele>
        <time>2019-06-30T07:06:42.000Z</time>
      </trkpt>
      <trkpt lat="43.18561" lon="2.39528">
        <ele>217.2</ele>
        <time>2019-06-30T07:06:43.000Z</time>
      </trkpt>
      <trkpt lat="43.1856" lon="2.39525">
        <ele>217.1</ele>
        <time>2019-06-30T07:06:44.000Z</time>
      </trkpt>
      <trkpt lat="43.1856" lon="2.39521">
        <ele>217.1</ele>
        <time>2019-06-30T07:06:45.000Z</time>
      </trkpt>
      <trkpt lat="43.18559" lon="2.39518">
        <ele>217</ele>
        <time>2019-06-30T07:06:46.000Z</time>
      </trkpt>
      <trkpt lat="43.18558" lon="2.39515">
        <ele>216.9</ele>
        <time>2019-06-30T07:06:47.000Z</time>
      </trkpt>
      <trkpt lat="43.18557" lon="2.39511">
        <ele>216.9</ele>
        <time>2019-06-30T07:06:48.000Z</time>
      </trkpt>
      <trkpt lat="43.18557" lon="2.39508">
        <ele>216.8</ele>
        <time>2019-06-30T07:06:49.000Z</time>
      </trkpt>
      <trkpt lat="43.18556" lon="2.39504">
        <ele>216.7</ele>
        <time>2019-06-30T07:06:50.000Z</time>
      </trkpt>
      <trkpt lat="43.18555" lon="2.39501">
        <ele>216.6</ele>
        <time>2019-06-30T07:06:51.000Z</time>
      </trkpt>
      <trkpt lat="43.18554" lon="2.39497">
        <ele>216.5</ele>
        <time>2019-06-30T07:06:52.000Z</time>
      </trkpt>
      <trkpt lat="43.18554" lon="2.39494">
        <ele>216.2</ele>
        <time>2019-06-30T07:06:53.000Z</time>
      </trkpt>
      <trkpt lat="43.18553" lon="2.39491">
        <ele>216.1</ele>
        <time>2019-06-30T07:06:54.000Z</time>
      </trkpt>
      <trkpt lat="43.18553" lon="2.39487">
        <ele>215.9</ele>
        <time>2019-06-30T07:06:55.000Z</time>
      </trkpt>
      <trkpt lat="43.18552" lon="2.39484">
        <ele>215.7</ele>
        <time>2019-06-30T07:06:56.000Z</time>
      </trkpt>
      <trkpt lat="43.18551" lon="2.39481">
        <ele>215.5</ele>
        <time>2019-06-30T07:06:57.000Z</time>
      </trkpt>
      <trkpt lat="43.18551" lon="2.39478">
        <ele>215.3</ele>
        <time>2019-06-30T07:06:58.000Z</time>
      </trkpt>
      <trkpt lat="43.18551" lon="2.39475">
        <ele>215.2</ele>
        <time>2019-06-30T07:06:59.000Z</time>
      </trkpt>
      <trkpt lat="43.1855" lon="2.39473">
        <ele>215</ele>
        <time>2019-06-30T07:07:00.000Z</time>
      </trkpt>
      <trkpt lat="43.1855" lon="2.3947">
        <ele>214.9</ele>
        <time>2019-06-30T07:07:01.000Z</time>
      </trkpt>
      <trkpt lat="43.18549" lon="2.39467">
        <ele>214.7</ele>
        <time>2019-06-30T07:07:02.000Z</time>
      </trkpt>
      <trkpt lat="43.18549" lon="2.39465">
        <ele>214.6</ele>
        <time>2019-06-30T07:07:03.000Z</time>
      </trkpt>
      <trkpt lat="43.18548" lon="2.39463">
        <ele>214.5</ele>
        <time>2019-06-30T07:07:04.000Z</time>
      </trkpt>
      <trkpt lat="43.18548" lon="2.39461">
        <ele>214.3</ele>
        <time>2019-06-30T07:07:05.000Z</time>
      </trkpt>
      <trkpt lat="43.18547" lon="2.39459">
        <ele>214.2</ele>
        <time>2019-06-30T07:07:06.000Z</time>
      </trkpt>
      <trkpt lat="43.18546" lon="2.39457">
        <ele>214</ele>
        <time>2019-06-30T07:07:07.000Z</time>
      </trkpt>
      <trkpt lat="43.18545" lon="2.39455">
        <ele>213.9</ele>
        <time>2019-06-30T07:07:08.000Z</time>
      </trkpt>
      <trkpt lat="43.18544" lon="2.39454">
        <ele>213.8</ele>
        <time>2019-06-30T07:07:09.000Z</time>
      </trkpt>
      <trkpt lat="43.18544" lon="2.39452">
        <ele>213.6</ele>
        <time>2019-06-30T07:07:10.000Z</time>
      </trkpt>
      <trkpt lat="43.18543" lon="2.3945">
        <ele>213.5</ele>
        <time>2019-06-30T07:07:11.000Z</time>
      </trkpt>
      <trkpt lat="43.18542" lon="2.39448">
        <ele>213.3</ele>
        <time>2019-06-30T07:07:12.000Z</time>
      </trkpt>
      <trkpt lat="43.18541" lon="2.39446">
        <ele>213.1</ele>
        <time>2019-06-30T07:07:13.000Z</time>
      </trkpt>
      <trkpt lat="43.1854" lon="2.39443">
        <ele>213</ele>
        <time>2019-06-30T07:07:14.000Z</time>
      </trkpt>
      <trkpt lat="43.18539" lon="2.39441">
        <ele>212.8</ele>
        <time>2019-06-30T07:07:15.000Z</time>
      </trkpt>
      <trkpt lat="43.18538" lon="2.39439">
        <ele>212.7</ele>
        <time>2019-06-30T07:07:16.000Z</time>
      </trkpt>
      <trkpt lat="43.18538" lon="2.39436">
        <ele>212.5</ele>
        <time>2019-06-30T07:07:17.000Z</time>
      </trkpt>
      <trkpt lat="43.18537" lon="2.39434">
        <ele>212.4</ele>
        <time>2019-06-30T07:07:18.000Z</time>
      </trkpt>
      <trkpt lat="43.18536" lon="2.39432">
        <ele>212.2</ele>
        <time>2019-06-30T07:07:19.000Z</time>
      </trkpt>
      <trkpt lat="43.18536" lon="2.39429">
        <ele>212.1</ele>
        <time>2019-06-30T07:07:20.000Z</time>
      </trkpt>
      <trkpt lat="43.18535" lon="2.39427">
        <ele>212</ele>
        <time>2019-06-30T07:07:21.000Z</time>
      </trkpt>
      <trkpt lat="43.18534" lon="2.39425">
        <ele>211.8</ele>
        <time>2019-06-30T07:07:22.000Z</time>
      </trkpt>
      <trkpt lat="43.18534" lon="2.39423">
        <ele>211.7</ele>
        <time>2019-06-30T07:07:23.000Z</time>
      </trkpt>
      <trkpt lat="43.18534" lon="2.39422">
        <ele>211.6</ele>
        <time>2019-06-30T07:07:24.000Z</time>
      </trkpt>
      <trkpt lat="43.18533" lon="2.3942">
        <ele>211.5</ele>
        <time>2019-06-30T07:07:25.000Z</time>
      </trkpt>
      <trkpt lat="43.18533" lon="2.39419">
        <ele>211.4</ele>
        <time>2019-06-30T07:07:26.000Z</time>
      </trkpt>
      <trkpt lat="43.18533" lon="2.39417">
        <ele>211.4</ele>
        <time>2019-06-30T07:07:27.000Z</time>
      </trkpt>
      <trkpt lat="43.18532" lon="2.39416">
        <ele>211.3</ele>
        <time>2019-06-30T07:07:28.000Z</time>
      </trkpt>
      <trkpt lat="43.18532" lon="2.39415">
        <ele>211.3</ele>
        <time>2019-06-30T07:07:29.000Z</time>
      </trkpt>
      <trkpt lat="43.18532" lon="2.39414">
        <ele>211.2</ele>
        <time>2019-06-30T07:07:30.000Z</time>
      </trkpt>
      <trkpt lat="43.18532" lon="2.39413">
        <ele>211.2</ele>
        <time>2019-06-30T07:07:31.000Z</time>
      </trkpt>
      <trkpt lat="43.18532" lon="2.39411">
        <ele>211.1</ele>
        <time>2019-06-30T07:07:32.000Z</time>
      </trkpt>
      <trkpt lat="43.18531" lon="2.39409">
        <ele>211</ele>
        <time>2019-06-30T07:07:33.000Z</time>
      </trkpt>
      <trkpt lat="43.18531" lon="2.39407">
        <ele>210.9</ele>
        <time>2019-06-30T07:07:34.000Z</time>
      </trkpt>
      <trkpt lat="43.18531" lon="2.39404">
        <ele>210.8</ele>
        <time>2019-06-30T07:07:35.000Z</time>
      </trkpt>
      <trkpt lat="43.1853" lon="2.39402">
        <ele>210.7</ele>
        <time>2019-06-30T07:07:36.000Z</time>
      </trkpt>
      <trkpt lat="43.1853" lon="2.394">
        <ele>210.6</ele>
        <time>2019-06-30T07:07:37.000Z</time>
      </trkpt>
      <trkpt lat="43.18529" lon="2.39397">
        <ele>210.5</ele>
        <time>2019-06-30T07:07:38.000Z</time>
      </trkpt>
      <trkpt lat="43.18529" lon="2.39396">
        <ele>210.4</ele>
        <time>2019-06-30T07:07:39.000Z</time>
      </trkpt>
      <trkpt lat="43.18528" lon="2.39394">
        <ele>210.3</ele>
        <time>2019-06-30T07:07:40.000Z</time>
      </trkpt>
      <trkpt lat="43.18528" lon="2.39393">
        <ele>210.2</ele>
        <time>2019-06-30T07:07:41.000Z</time>
      </trkpt>
      <trkpt lat="43.18527" lon="2.39393">
        <ele>210.2</ele>
        <time>2019-06-30T07:07:42.000Z</time>
      </trkpt>
      <trkpt lat="43.18527" lon="2.39392">
        <ele>210.1</ele>
        <time>2019-06-30T07:07:43.000Z</time>
      </trkpt>
      <trkpt lat="43.18526" lon="2.39391">
        <ele>210</ele>
        <time>2019-06-30T07:07:44.000Z</time>
      </trkpt>
      <trkpt lat="43.18525" lon="2.39389">
        <ele>209.8</ele>
        <time>2019-06-30T07:07:45.000Z</time>
      </trkpt>
      <trkpt lat="43.18524" lon="2.39386">
        <ele>209.7</ele>
        <time>2019-06-30T07:07:46.000Z</time>
      </trkpt>
      <trkpt lat="43.18523" lon="2.39383">
        <ele>209.5</ele>
        <time>2019-06-30T07:07:47.000Z</time>
      </trkpt>
      <trkpt lat="43.18522" lon="2.3938">
        <ele>209.3</ele>
        <time>2019-06-30T07:07:48.000Z</time>
      </trkpt>
      <trkpt lat="43.18521" lon="2.39377">
        <ele>209.1</ele>
        <time>2019-06-30T07:07:49.000Z</time>
      </trkpt>
      <trkpt lat="43.1852" lon="2.39375">
        <ele>208.9</ele>
        <time>2019-06-30T07:07:50.000Z</time>
      </trkpt>
      <trkpt lat="43.18519" lon="2.39372">
        <ele>208.7</ele>
        <time>2019-06-30T07:07:51.000Z</time>
      </trkpt>
      <trkpt lat="43.18518" lon="2.3937">
        <ele>208.6</ele>
        <time>2019-06-30T07:07:52.000Z</time>
      </trkpt>
      <trkpt lat="43.18517" lon="2.39368">
        <ele>208.4</ele>
        <time>2019-06-30T07:07:53.000Z</time>
      </trkpt>
      <trkpt lat="43.18517" lon="2.39366">
        <ele>208.2</ele>
        <time>2019-06-30T07:07:54.000Z</time>
      </trkpt>
      <trkpt lat="43.18516" lon="2.39364">
        <ele>208.1</ele>
        <time>2019-06-30T07:07:55.000Z</time>
      </trkpt>
      <trkpt lat="43.18515" lon="2.39363">
        <ele>208</ele>
        <time>2019-06-30T07:07:56.000Z</time>
      </trkpt>
      <trkpt lat="43.18515" lon="2.39362">
        <ele>207.9</ele>
        <time>2019-06-30T07:07:57.000Z</time>
      </trkpt>
      <trkpt lat="43.18515" lon="2.39362">
        <ele>207.9</ele>
        <time>2019-06-30T07:07:58.000Z</time>
      </trkpt>
      <trkpt lat="43.18514" lon="2.39361">
        <ele>207.8</ele>
        <time>2019-06-30T07:07:59.000Z</time>
      </trkpt>
      <trkpt lat="43.18514" lon="2.39361">
        <ele>207.8</ele>
        <time>2019-06-30T07:08:00.000Z</time>
      </trkpt>
      <trkpt lat="43.18514" lon="2.39361">
        <ele>207.8</ele>
        <time>2019-06-30T07:08:01.000Z</time>
      </trkpt>
      <trkpt lat="43.18514" lon="2.3936">
        <ele>207.8</ele>
        <time>2019-06-30T07:08:02.000Z</time>
      </trkpt>
      <trkpt lat="43.18514" lon="2.3936">
        <ele>207.8</ele>
        <time>2019-06-30T07:08:03.000Z</time>
      </trkpt>
      <trkpt lat="43.18514" lon="2.39359">
        <ele>207.7</ele>
        <time>2019-06-30T07:08:04.000Z</time>
      </trkpt>
      <trkpt lat="43.18514" lon="2.39358">
        <ele>207.6</ele>
        <time>2019-06-30T07:08:05.000Z</time>
      </trkpt>
      <trkpt lat="43.18514" lon="2.39356">
        <ele>207.6</ele>
        <time>2019-06-30T07:08:06.000Z</time>
      </trkpt>
      <trkpt lat="43.18513" lon="2.39355">
        <ele>207.5</ele>
        <time>2019-06-30T07:08:07.000Z</time>
      </trkpt>
      <trkpt lat="43.18513" lon="2.39354">
        <ele>207.4</ele>
        <time>2019-06-30T07:08:08.000Z</time>
      </trkpt>
      <trkpt lat="43.18513" lon="2.39353">
        <ele>207.3</ele>
        <time>2019-06-30T07:08:09.000Z</time>
      </trkpt>
      <trkpt lat="43.18513" lon="2.39351">
        <ele>207.3</ele>
        <time>2019-06-30T07:08:10.000Z</time>
      </trkpt>
      <trkpt lat="43.18513" lon="2.3935">
        <ele>207.2</ele>
        <time>2019-06-30T07:08:11.000Z</time>
      </trkpt>
      <trkpt lat="43.18513" lon="2.39349">
        <ele>207.1</ele>
        <time>2019-06-30T07:08:12.000Z</time>
      </trkpt>
      <trkpt lat="43.18512" lon="2.39348">
        <ele>207.1</ele>
        <time>2019-06-30T07:08:13.000Z</time>
      </trkpt>
      <trkpt lat="43.18512" lon="2.39347">
        <ele>207</ele>
        <time>2019-06-30T07:08:14.000Z</time>
      </trkpt>
      <trkpt lat="43.18512" lon="2.39345">
        <ele>206.9</ele>
        <time>2019-06-30T07:08:15.000Z</time>
      </trkpt>
      <trkpt lat="43.18512" lon="2.39344">
        <ele>206.9</ele>
        <time>2019-06-30T07:08:16.000Z</time>
      </trkpt>
      <trkpt lat="43.18512" lon="2.39343">
        <ele>206.8</ele>
        <time>2019-06-30T07:08:17.000Z</time>
      </trkpt>
      <trkpt lat="43.18512" lon="2.39342">
        <ele>206.8</ele>
        <time>2019-06-30T07:08:18.000Z</time>
      </trkpt>
      <trkpt lat="43.18512" lon="2.3934">
        <ele>206.7</ele>
        <time>2019-06-30T07:08:19.000Z</time>
      </trkpt>
      <trkpt lat="43.18512" lon="2.39339">
        <ele>206.6</ele>
        <time>2019-06-30T07:08:20.000Z</time>
      </trkpt>
      <trkpt lat="43.18511" lon="2.39337">
        <ele>206.5</ele>
        <time>2019-06-30T07:08:21.000Z</time>
      </trkpt>
      <trkpt lat="43.18511" lon="2.39336">
        <ele>206.4</ele>
        <time>2019-06-30T07:08:22.000Z</time>
      </trkpt>
      <trkpt lat="43.18511" lon="2.39334">
        <ele>206.3</ele>
        <time>2019-06-30T07:08:23.000Z</time>
      </trkpt>
      <trkpt lat="43.18511" lon="2.39332">
        <ele>206.2</ele>
        <time>2019-06-30T07:08:24.000Z</time>
      </trkpt>
      <trkpt lat="43.18511" lon="2.3933">
        <ele>206.1</ele>
        <time>2019-06-30T07:08:25.000Z</time>
      </trkpt>
      <trkpt lat="43.1851" lon="2.39328">
        <ele>206.1</ele>
        <time>2019-06-30T07:08:26.000Z</time>
      </trkpt>
      <trkpt lat="43.1851" lon="2.39327">
        <ele>206</ele>
        <time>2019-06-30T07:08:27.000Z</time>
      </trkpt>
      <trkpt lat="43.1851" lon="2.39325">
        <ele>205.9</ele>
        <time>2019-06-30T07:08:28.000Z</time>
      </trkpt>
      <trkpt lat="43.1851" lon="2.39323">
        <ele>205.8</ele>
        <time>2019-06-30T07:08:29.000Z</time>
      </trkpt>
      <trkpt lat="43.1851" lon="2.39322">
        <ele>205.7</ele>
        <time>2019-06-30T07:08:30.000Z</time>
      </trkpt>
      <trkpt lat="43.18509" lon="2.3932">
        <ele>205.7</ele>
        <time>2019-06-30T07:08:31.000Z</time>
      </trkpt>
      <trkpt lat="43.18509" lon="2.39319">
        <ele>205.6</ele>
        <time>2019-06-30T07:08:32.000Z</time>
      </trkpt>
      <trkpt lat="43.18509" lon="2.39317">
        <ele>205.5</ele>
        <time>2019-06-30T07:08:33.000Z</time>
      </trkpt>
      <trkpt lat="43.18509" lon="2.39316">
        <ele>205.5</ele>
        <time>2019-06-30T07:08:34.000Z</time>
      </trkpt>
      <trkpt lat="43.18509" lon="2.39314">
        <ele>205.4</ele>
        <time>2019-06-30T07:08:35.000Z</time>
      </trkpt>
      <trkpt lat="43.18509" lon="2.39312">
        <ele>205.3</ele>
        <time>2019-06-30T07:08:36.000Z</time>
      </trkpt>
      <trkpt lat="43.18509" lon="2.39311">
        <ele>205.2</ele>
        <time>2019-06-30T07:08:37.000Z</time>
      </trkpt>
      <trkpt lat="43.18509" lon="2.39309">
        <ele>205.2</ele>
        <time>2019-06-30T07:08:38.000Z</time>
      </trkpt>
      <trkpt lat="43.18509" lon="2.39306">
        <ele>205.1</ele>
        <time>2019-06-30T07:08:39.000Z</time>
      </trkpt>
      <trkpt lat="43.18509" lon="2.39304">
        <ele>205</ele>
        <time>2019-06-30T07:08:40.000Z</time>
      </trkpt>
      <trkpt lat="43.18508" lon="2.39302">
        <ele>204.9</ele>
        <time>2019-06-30T07:08:41.000Z</time>
      </trkpt>
      <trkpt lat="43.18508" lon="2.393">
        <ele>204.8</ele>
        <time>2019-06-30T07:08:42.000Z</time>
      </trkpt>
      <trkpt lat="43.18508" lon="2.39298">
        <ele>204.7</ele>
        <time>2019-06-30T07:08:43.000Z</time>
      </trkpt>
      <trkpt lat="43.18509" lon="2.39295">
        <ele>204.7</ele>
        <time>2019-06-30T07:08:44.000Z</time>
      </trkpt>
      <trkpt lat="43.18509" lon="2.39293">
        <ele>204.6</ele>
        <time>2019-06-30T07:08:45.000Z</time>
      </trkpt>
      <trkpt lat="43.18509" lon="2.39291">
        <ele>204.6</ele>
        <time>2019-06-30T07:08:46.000Z</time>
      </trkpt>
      <trkpt lat="43.18509" lon="2.3929">
        <ele>204.5</ele>
        <time>2019-06-30T07:08:47.000Z</time>
      </trkpt>
      <trkpt lat="43.1851" lon="2.39288">
        <ele>204.5</ele>
        <time>2019-06-30T07:08:48.000Z</time>
      </trkpt>
      <trkpt lat="43.1851" lon="2.39286">
        <ele>204.6</ele>
        <time>2019-06-30T07:08:49.000Z</time>
      </trkpt>
      <trkpt lat="43.18511" lon="2.39285">
        <ele>204.6</ele>
        <time>2019-06-30T07:08:50.000Z</time>
      </trkpt>
      <trkpt lat="43.18512" lon="2.39283">
        <ele>204.7</ele>
        <time>2019-06-30T07:08:51.000Z</time>
      </trkpt>
      <trkpt lat="43.18513" lon="2.39282">
        <ele>204.7</ele>
        <time>2019-06-30T07:08:52.000Z</time>
      </trkpt>
      <trkpt lat="43.18514" lon="2.39281">
        <ele>204.8</ele>
        <time>2019-06-30T07:08:53.000Z</time>
      </trkpt>
      <trkpt lat="43.18515" lon="2.3928">
        <ele>204.9</ele>
        <time>2019-06-30T07:08:54.000Z</time>
      </trkpt>
      <trkpt lat="43.18516" lon="2.39278">
        <ele>205</ele>
        <time>2019-06-30T07:08:55.000Z</time>
      </trkpt>
      <trkpt lat="43.18518" lon="2.39277">
        <ele>205.1</ele>
        <time>2019-06-30T07:08:56.000Z</time>
      </trkpt>
      <trkpt lat="43.18519" lon="2.39276">
        <ele>205.2</ele>
        <time>2019-06-30T07:08:57.000Z</time>
      </trkpt>
      <trkpt lat="43.1852" lon="2.39274">
        <ele>205.2</ele>
        <time>2019-06-30T07:08:58.000Z</time>
      </trkpt>
      <trkpt lat="43.18521" lon="2.39273">
        <ele>205.3</ele>
        <time>2019-06-30T07:08:59.000Z</time>
      </trkpt>
      <trkpt lat="43.18522" lon="2.39272">
        <ele>205.4</ele>
        <time>2019-06-30T07:09:00.000Z</time>
      </trkpt>
      <trkpt lat="43.18523" lon="2.3927">
        <ele>205.4</ele>
        <time>2019-06-30T07:09:01.000Z</time>
      </trkpt>
      <trkpt lat="43.18523" lon="2.39269">
        <ele>205.5</ele>
        <time>2019-06-30T07:09:02.000Z</time>
      </trkpt>
      <trkpt lat="43.18524" lon="2.39268">
        <ele>205.6</ele>
        <time>2019-06-30T07:09:03.000Z</time>
      </trkpt>
      <trkpt lat="43.18526" lon="2.39267">
        <ele>205.7</ele>
        <time>2019-06-30T07:09:04.000Z</time>
      </trkpt>
      <trkpt lat="43.18527" lon="2.39266">
        <ele>205.8</ele>
        <time>2019-06-30T07:09:05.000Z</time>
      </trkpt>
      <trkpt lat="43.18528" lon="2.39266">
        <ele>205.9</ele>
        <time>2019-06-30T07:09:06.000Z</time>
      </trkpt>
      <trkpt lat="43.18529" lon="2.39266">
        <ele>206</ele>
        <time>2019-06-30T07:09:07.000Z</time>
      </trkpt>
      <trkpt lat="43.1853" lon="2.39266">
        <ele>206.2</ele>
        <time>2019-06-30T07:09:08.000Z</time>
      </trkpt>
      <trkpt lat="43.18531" lon="2.39265">
        <ele>206.3</ele>
        <time>2019-06-30T07:09:09.000Z</time>
      </trkpt>
      <trkpt lat="43.18533" lon="2.39265">
        <ele>206.5</ele>
        <time>2019-06-30T07:09:10.000Z</time>
      </trkpt>
      <trkpt lat="43.18534" lon="2.39265">
        <ele>206.6</ele>
        <time>2019-06-30T07:09:11.000Z</time>
      </trkpt>
      <trkpt lat="43.18535" lon="2.39264">
        <ele>206.7</ele>
        <time>2019-06-30T07:09:12.000Z</time>
      </trkpt>
      <trkpt lat="43.18536" lon="2.39263">
        <ele>206.8</ele>
        <time>2019-06-30T07:09:13.000Z</time>
      </trkpt>
      <trkpt lat="43.18537" lon="2.39262">
        <ele>206.9</ele>
        <time>2019-06-30T07:09:14.000Z</time>
      </trkpt>
      <trkpt lat="43.18538" lon="2.39261">
        <ele>207</ele>
        <time>2019-06-30T07:09:15.000Z</time>
      </trkpt>
      <trkpt lat="43.18539" lon="2.3926">
        <ele>207</ele>
        <time>2019-06-30T07:09:16.000Z</time>
      </trkpt>
      <trkpt lat="43.1854" lon="2.39258">
        <ele>207.1</ele>
        <time>2019-06-30T07:09:17.000Z</time>
      </trkpt>
      <trkpt lat="43.18541" lon="2.39257">
        <ele>207.2</ele>
        <time>2019-06-30T07:09:18.000Z</time>
      </trkpt>
      <trkpt lat="43.18542" lon="2.39256">
        <ele>207.2</ele>
        <time>2019-06-30T07:09:19.000Z</time>
      </trkpt>
      <trkpt lat="43.18543" lon="2.39255">
        <ele>207.3</ele>
        <time>2019-06-30T07:09:20.000Z</time>
      </trkpt>
      <trkpt lat="43.18543" lon="2.39254">
        <ele>207.4</ele>
        <time>2019-06-30T07:09:21.000Z</time>
      </trkpt>
      <trkpt lat="43.18544" lon="2.39253">
        <ele>207.4</ele>
        <time>2019-06-30T07:09:22.000Z</time>
      </trkpt>
      <trkpt lat="43.18545" lon="2.39253">
        <ele>207.5</ele>
        <time>2019-06-30T07:09:23.000Z</time>
      </trkpt>
      <trkpt lat="43.18546" lon="2.39252">
        <ele>207.5</ele>
        <time>2019-06-30T07:09:24.000Z</time>
      </trkpt>
      <trkpt lat="43.18546" lon="2.39251">
        <ele>207.6</ele>
        <time>2019-06-30T07:09:25.000Z</time>
      </trkpt>
      <trkpt lat="43.18547" lon="2.3925">
        <ele>207.6</ele>
        <time>2019-06-30T07:09:26.000Z</time>
      </trkpt>
      <trkpt lat="43.18548" lon="2.39249">
        <ele>207.7</ele>
        <time>2019-06-30T07:09:27.000Z</time>
      </trkpt>
      <trkpt lat="43.18549" lon="2.39247">
        <ele>207.7</ele>
        <time>2019-06-30T07:09:28.000Z</time>
      </trkpt>
      <trkpt lat="43.18549" lon="2.39246">
        <ele>207.7</ele>
        <time>2019-06-30T07:09:29.000Z</time>
      </trkpt>
      <trkpt lat="43.1855" lon="2.39245">
        <ele>207.7</ele>
        <time>2019-06-30T07:09:30.000Z</time>
      </trkpt>
      <trkpt lat="43.18551" lon="2.39243">
        <ele>207.7</ele>
        <time>2019-06-30T07:09:31.000Z</time>
      </trkpt>
      <trkpt lat="43.18551" lon="2.39242">
        <ele>207.7</ele>
        <time>2019-06-30T07:09:32.000Z</time>
      </trkpt>
      <trkpt lat="43.18552" lon="2.3924">
        <ele>207.7</ele>
        <time>2019-06-30T07:09:33.000Z</time>
      </trkpt>
      <trkpt lat="43.18552" lon="2.39239">
        <ele>207.7</ele>
        <time>2019-06-30T07:09:34.000Z</time>
      </trkpt>
      <trkpt lat="43.18553" lon="2.39237">
        <ele>207.6</ele>
        <time>2019-06-30T07:09:35.000Z</time>
      </trkpt>
      <trkpt lat="43.18553" lon="2.39236">
        <ele>207.6</ele>
        <time>2019-06-30T07:09:36.000Z</time>
      </trkpt>
      <trkpt lat="43.18553" lon="2.39234">
        <ele>207.5</ele>
        <time>2019-06-30T07:09:37.000Z</time>
      </trkpt>
      <trkpt lat="43.18554" lon="2.39232">
        <ele>207.4</ele>
        <time>2019-06-30T07:09:38.000Z</time>
      </trkpt>
      <trkpt lat="43.18554" lon="2.3923">
        <ele>207.4</ele>
        <time>2019-06-30T07:09:39.000Z</time>
      </trkpt>
      <trkpt lat="43.18554" lon="2.39228">
        <ele>207.3</ele>
        <time>2019-06-30T07:09:40.000Z</time>
      </trkpt>
      <trkpt lat="43.18555" lon="2.39226">
        <ele>207.3</ele>
        <time>2019-06-30T07:09:41.000Z</time>
      </trkpt>
      <trkpt lat="43.18556" lon="2.39224">
        <ele>207.2</ele>
        <time>2019-06-30T07:09:42.000Z</time>
      </trkpt>
      <trkpt lat="43.18556" lon="2.39222">
        <ele>207.2</ele>
        <time>2019-06-30T07:09:43.000Z</time>
      </trkpt>
      <trkpt lat="43.18557" lon="2.3922">
        <ele>207.1</ele>
        <time>2019-06-30T07:09:44.000Z</time>
      </trkpt>
      <trkpt lat="43.18558" lon="2.39217">
        <ele>207.1</ele>
        <time>2019-06-30T07:09:45.000Z</time>
      </trkpt>
      <trkpt lat="43.18558" lon="2.39215">
        <ele>207</ele>
        <time>2019-06-30T07:09:46.000Z</time>
      </trkpt>
      <trkpt lat="43.18559" lon="2.39212">
        <ele>206.9</ele>
        <time>2019-06-30T07:09:47.000Z</time>
      </trkpt>
      <trkpt lat="43.18559" lon="2.39209">
        <ele>206.8</ele>
        <time>2019-06-30T07:09:48.000Z</time>
      </trkpt>
      <trkpt lat="43.1856" lon="2.39206">
        <ele>206.7</ele>
        <time>2019-06-30T07:09:49.000Z</time>
      </trkpt>
      <trkpt lat="43.1856" lon="2.39203">
        <ele>206.5</ele>
        <time>2019-06-30T07:09:50.000Z</time>
      </trkpt>
      <trkpt lat="43.1856" lon="2.392">
        <ele>206.4</ele>
        <time>2019-06-30T07:09:51.000Z</time>
      </trkpt>
      <trkpt lat="43.18561" lon="2.39196">
        <ele>206.2</ele>
        <time>2019-06-30T07:09:52.000Z</time>
      </trkpt>
      <trkpt lat="43.18561" lon="2.39193">
        <ele>206</ele>
        <time>2019-06-30T07:09:53.000Z</time>
      </trkpt>
      <trkpt lat="43.18561" lon="2.39189">
        <ele>205.9</ele>
        <time>2019-06-30T07:09:54.000Z</time>
      </trkpt>
      <trkpt lat="43.18561" lon="2.39186">
        <ele>205.7</ele>
        <time>2019-06-30T07:09:55.000Z</time>
      </trkpt>
      <trkpt lat="43.18561" lon="2.39182">
        <ele>205.5</ele>
        <time>2019-06-30T07:09:56.000Z</time>
      </trkpt>
      <trkpt lat="43.18561" lon="2.39179">
        <ele>205.3</ele>
        <time>2019-06-30T07:09:57.000Z</time>
      </trkpt>
      <trkpt lat="43.18562" lon="2.39176">
        <ele>205.1</ele>
        <time>2019-06-30T07:09:58.000Z</time>
      </trkpt>
      <trkpt lat="43.18562" lon="2.39172">
        <ele>205</ele>
        <time>2019-06-30T07:09:59.000Z</time>
      </trkpt>
      <trkpt lat="43.18562" lon="2.39169">
        <ele>204.8</ele>
        <time>2019-06-30T07:10:00.000Z</time>
      </trkpt>
      <trkpt lat="43.18562" lon="2.39166">
        <ele>204.6</ele>
        <time>2019-06-30T07:10:01.000Z</time>
      </trkpt>
      <trkpt lat="43.18562" lon="2.39162">
        <ele>204.5</ele>
        <time>2019-06-30T07:10:02.000Z</time>
      </trkpt>
      <trkpt lat="43.18562" lon="2.39159">
        <ele>204.4</ele>
        <time>2019-06-30T07:10:03.000Z</time>
      </trkpt>
      <trkpt lat="43.18563" lon="2.39156">
        <ele>204.2</ele>
        <time>2019-06-30T07:10:04.000Z</time>
      </trkpt>
      <trkpt lat="43.18563" lon="2.39153">
        <ele>204.1</ele>
        <time>2019-06-30T07:10:05.000Z</time>
      </trkpt>
      <trkpt lat="43.18563" lon="2.3915">
        <ele>203.9</ele>
        <time>2019-06-30T07:10:06.000Z</time>
      </trkpt>
      <trkpt lat="43.18563" lon="2.39147">
        <ele>203.8</ele>
        <time>2019-06-30T07:10:07.000Z</time>
      </trkpt>
      <trkpt lat="43.18563" lon="2.39144">
        <ele>203.6</ele>
        <time>2019-06-30T07:10:08.000Z</time>
      </trkpt>
      <trkpt lat="43.18562" lon="2.3914">
        <ele>203.4</ele>
        <time>2019-06-30T07:10:09.000Z</time>
      </trkpt>
      <trkpt lat="43.18562" lon="2.39137">
        <ele>203.1</ele>
        <time>2019-06-30T07:10:10.000Z</time>
      </trkpt>
      <trkpt lat="43.18561" lon="2.39134">
        <ele>202.9</ele>
        <time>2019-06-30T07:10:11.000Z</time>
      </trkpt>
      <trkpt lat="43.1856" lon="2.39131">
        <ele>202.6</ele>
        <time>2019-06-30T07:10:12.000Z</time>
      </trkpt>
      <trkpt lat="43.18559" lon="2.39129">
        <ele>202.4</ele>
        <time>2019-06-30T07:10:13.000Z</time>
      </trkpt>
      <trkpt lat="43.18557" lon="2.39127">
        <ele>202.1</ele>
        <time>2019-06-30T07:10:14.000Z</time>
      </trkpt>
      <trkpt lat="43.18555" lon="2.39126">
        <ele>201.8</ele>
        <time>2019-06-30T07:10:15.000Z</time>
      </trkpt>
      <trkpt lat="43.18553" lon="2.39124">
        <ele>201.5</ele>
        <time>2019-06-30T07:10:16.000Z</time>
      </trkpt>
      <trkpt lat="43.1855" lon="2.39123">
        <ele>201.2</ele>
        <time>2019-06-30T07:10:17.000Z</time>
      </trkpt>
      <trkpt lat="43.18548" lon="2.39122">
        <ele>200.8</ele>
        <time>2019-06-30T07:10:18.000Z</time>
      </trkpt>
      <trkpt lat="43.18546" lon="2.39121">
        <ele>200.6</ele>
        <time>2019-06-30T07:10:19.000Z</time>
      </trkpt>
      <trkpt lat="43.18545" lon="2.3912">
        <ele>200.3</ele>
        <time>2019-06-30T07:10:20.000Z</time>
      </trkpt>
      <trkpt lat="43.18543" lon="2.39118">
        <ele>200.1</ele>
        <time>2019-06-30T07:10:21.000Z</time>
      </trkpt>
      <trkpt lat="43.18542" lon="2.39117">
        <ele>199.8</ele>
        <time>2019-06-30T07:10:22.000Z</time>
      </trkpt>
      <trkpt lat="43.1854" lon="2.39116">
        <ele>199.6</ele>
        <time>2019-06-30T07:10:23.000Z</time>
      </trkpt>
      <trkpt lat="43.18538" lon="2.39115">
        <ele>199.3</ele>
        <time>2019-06-30T07:10:24.000Z</time>
      </trkpt>
      <trkpt lat="43.18537" lon="2.39115">
        <ele>199.1</ele>
        <time>2019-06-30T07:10:25.000Z</time>
      </trkpt>
      <trkpt lat="43.18536" lon="2.39114">
        <ele>199</ele>
        <time>2019-06-30T07:10:26.000Z</time>
      </trkpt>
      <trkpt lat="43.18535" lon="2.39114">
        <ele>198.9</ele>
        <time>2019-06-30T07:10:27.000Z</time>
      </trkpt>
      <trkpt lat="43.18535" lon="2.39115">
        <ele>198.9</ele>
        <time>2019-06-30T07:10:28.000Z</time>
      </trkpt>
      <trkpt lat="43.18535" lon="2.39115">
        <ele>198.9</ele>
        <time>2019-06-30T07:10:29.000Z</time>
      </trkpt>
      <trkpt lat="43.18535" lon="2.39115">
        <ele>198.9</ele>
        <time>2019-06-30T07:10:30.000Z</time>
      </trkpt>
      <trkpt lat="43.18533" lon="2.39114">
        <ele>198.7</ele>
        <time>2019-06-30T07:10:31.000Z</time>
      </trkpt>
      <trkpt lat="43.18532" lon="2.39114">
        <ele>198.5</ele>
        <time>2019-06-30T07:10:32.000Z</time>
      </trkpt>
      <trkpt lat="43.18531" lon="2.39113">
        <ele>198.3</ele>
        <time>2019-06-30T07:10:33.000Z</time>
      </trkpt>
      <trkpt lat="43.18529" lon="2.39112">
        <ele>198.1</ele>
        <time>2019-06-30T07:10:34.000Z</time>
      </trkpt>
      <trkpt lat="43.18528" lon="2.39112">
        <ele>197.9</ele>
        <time>2019-06-30T07:10:35.000Z</time>
      </trkpt>
      <trkpt lat="43.18526" lon="2.39111">
        <ele>197.7</ele>
        <time>2019-06-30T07:10:36.000Z</time>
      </trkpt>
      <trkpt lat="43.18525" lon="2.3911">
        <ele>197.4</ele>
        <time>2019-06-30T07:10:37.000Z</time>
      </trkpt>
      <trkpt lat="43.18523" lon="2.39108">
        <ele>197.2</ele>
        <time>2019-06-30T07:10:38.000Z</time>
      </trkpt>
      <trkpt lat="43.18521" lon="2.39107">
        <ele>196.9</ele>
        <time>2019-06-30T07:10:39.000Z</time>
      </trkpt>
      <trkpt lat="43.18519" lon="2.39105">
        <ele>196.6</ele>
        <time>2019-06-30T07:10:40.000Z</time>
      </trkpt>
      <trkpt lat="43.18518" lon="2.39103">
        <ele>196.3</ele>
        <time>2019-06-30T07:10:41.000Z</time>
      </trkpt>
      <trkpt lat="43.18516" lon="2.39102">
        <ele>196</ele>
        <time>2019-06-30T07:10:42.000Z</time>
      </trkpt>
      <trkpt lat="43.18516" lon="2.391">
        <ele>195.8</ele>
        <time>2019-06-30T07:10:43.000Z</time>
      </trkpt>
      <trkpt lat="43.18516" lon="2.39098">
        <ele>195.8</ele>
        <time>2019-06-30T07:10:44.000Z</time>
      </trkpt>
      <trkpt lat="43.18517" lon="2.39097">
        <ele>195.8</ele>
        <time>2019-06-30T07:10:45.000Z</time>
      </trkpt>
      <trkpt lat="43.18518" lon="2.39096">
        <ele>195.9</ele>
        <time>2019-06-30T07:10:46.000Z</time>
      </trkpt>
      <trkpt lat="43.18519" lon="2.39096">
        <ele>196.1</ele>
        <time>2019-06-30T07:10:47.000Z</time>
      </trkpt>
      <trkpt lat="43.1852" lon="2.39096">
        <ele>196.2</ele>
        <time>2019-06-30T07:10:48.000Z</time>
      </trkpt>
      <trkpt lat="43.18521" lon="2.39096">
        <ele>196.3</ele>
        <time>2019-06-30T07:10:49.000Z</time>
      </trkpt>
      <trkpt lat="43.18522" lon="2.39097">
        <ele>196.4</ele>
        <time>2019-06-30T07:10:50.000Z</time>
      </trkpt>
      <trkpt lat="43.18523" lon="2.39097">
        <ele>196.5</ele>
        <time>2019-06-30T07:10:51.000Z</time>
      </trkpt>
      <trkpt lat="43.18524" lon="2.39097">
        <ele>196.6</ele>
        <time>2019-06-30T07:10:52.000Z</time>
      </trkpt>
      <trkpt lat="43.18525" lon="2.39097">
        <ele>196.7</ele>
        <time>2019-06-30T07:10:53.000Z</time>
      </trkpt>
      <trkpt lat="43.18526" lon="2.39098">
        <ele>196.9</ele>
        <time>2019-06-30T07:10:54.000Z</time>
      </trkpt>
      <trkpt lat="43.18527" lon="2.39097">
        <ele>197.1</ele>
        <time>2019-06-30T07:10:55.000Z</time>
      </trkpt>
      <trkpt lat="43.18529" lon="2.39097">
        <ele>197.2</ele>
        <time>2019-06-30T07:10:56.000Z</time>
      </trkpt>
      <trkpt lat="43.1853" lon="2.39096">
        <ele>197.3</ele>
        <time>2019-06-30T07:10:57.000Z</time>
      </trkpt>
      <trkpt lat="43.18531" lon="2.39095">
        <ele>197.3</ele>
        <time>2019-06-30T07:10:58.000Z</time>
      </trkpt>
      <trkpt lat="43.18531" lon="2.39093">
        <ele>197.2</ele>
        <time>2019-06-30T07:10:59.000Z</time>
      </trkpt>
      <trkpt lat="43.1853" lon="2.39091">
        <ele>197</ele>
        <time>2019-06-30T07:11:00.000Z</time>
      </trkpt>
      <trkpt lat="43.1853" lon="2.39088">
        <ele>196.8</ele>
        <time>2019-06-30T07:11:01.000Z</time>
      </trkpt>
      <trkpt lat="43.18529" lon="2.39086">
        <ele>196.6</ele>
        <time>2019-06-30T07:11:02.000Z</time>
      </trkpt>
      <trkpt lat="43.18527" lon="2.39084">
        <ele>196.3</ele>
        <time>2019-06-30T07:11:03.000Z</time>
      </trkpt>
      <trkpt lat="43.18526" lon="2.39083">
        <ele>196.1</ele>
        <time>2019-06-30T07:11:04.000Z</time>
      </trkpt>
      <trkpt lat="43.18525" lon="2.39082">
        <ele>196</ele>
        <time>2019-06-30T07:11:05.000Z</time>
      </trkpt>
      <trkpt lat="43.18523" lon="2.39081">
        <ele>195.8</ele>
        <time>2019-06-30T07:11:06.000Z</time>
      </trkpt>
      <trkpt lat="43.18522" lon="2.39081">
        <ele>195.7</ele>
        <time>2019-06-30T07:11:07.000Z</time>
      </trkpt>
      <trkpt lat="43.1852" lon="2.3908">
        <ele>195.5</ele>
        <time>2019-06-30T07:11:08.000Z</time>
      </trkpt>
      <trkpt lat="43.18518" lon="2.39079">
        <ele>195.3</ele>
        <time>2019-06-30T07:11:09.000Z</time>
      </trkpt>
      <trkpt lat="43.18516" lon="2.39078">
        <ele>195.1</ele>
        <time>2019-06-30T07:11:10.000Z</time>
      </trkpt>
      <trkpt lat="43.18514" lon="2.39077">
        <ele>195</ele>
        <time>2019-06-30T07:11:11.000Z</time>
      </trkpt>
      <trkpt lat="43.18512" lon="2.39075">
        <ele>194.8</ele>
        <time>2019-06-30T07:11:12.000Z</time>
      </trkpt>
      <trkpt lat="43.1851" lon="2.39073">
        <ele>194.7</ele>
        <time>2019-06-30T07:11:13.000Z</time>
      </trkpt>
      <trkpt lat="43.18509" lon="2.39072">
        <ele>194.6</ele>
        <time>2019-06-30T07:11:14.000Z</time>
      </trkpt>
      <trkpt lat="43.18507" lon="2.3907">
        <ele>194.5</ele>
        <time>2019-06-30T07:11:15.000Z</time>
      </trkpt>
      <trkpt lat="43.18506" lon="2.39068">
        <ele>194.4</ele>
        <time>2019-06-30T07:11:16.000Z</time>
      </trkpt>
      <trkpt lat="43.18505" lon="2.39066">
        <ele>194.4</ele>
        <time>2019-06-30T07:11:17.000Z</time>
      </trkpt>
      <trkpt lat="43.18503" lon="2.39064">
        <ele>194.3</ele>
        <time>2019-06-30T07:11:18.000Z</time>
      </trkpt>
      <trkpt lat="43.18502" lon="2.39061">
        <ele>194.3</ele>
        <time>2019-06-30T07:11:19.000Z</time>
      </trkpt>
      <trkpt lat="43.18501" lon="2.39059">
        <ele>194.3</ele>
        <time>2019-06-30T07:11:20.000Z</time>
      </trkpt>
      <trkpt lat="43.18501" lon="2.39057">
        <ele>194.3</ele>
        <time>2019-06-30T07:11:21.000Z</time>
      </trkpt>
      <trkpt lat="43.185" lon="2.39054">
        <ele>194.4</ele>
        <time>2019-06-30T07:11:22.000Z</time>
      </trkpt>
      <trkpt lat="43.18499" lon="2.39052">
        <ele>194.5</ele>
        <time>2019-06-30T07:11:23.000Z</time>
      </trkpt>
      <trkpt lat="43.18498" lon="2.39049">
        <ele>194.5</ele>
        <time>2019-06-30T07:11:24.000Z</time>
      </trkpt>
      <trkpt lat="43.18498" lon="2.39046">
        <ele>194.6</ele>
        <time>2019-06-30T07:11:25.000Z</time>
      </trkpt>
      <trkpt lat="43.18497" lon="2.39043">
        <ele>194.7</ele>
        <time>2019-06-30T07:11:26.000Z</time>
      </trkpt>
      <trkpt lat="43.18497" lon="2.39041">
        <ele>194.8</ele>
        <time>2019-06-30T07:11:27.000Z</time>
      </trkpt>
      <trkpt lat="43.18496" lon="2.39038">
        <ele>194.8</ele>
        <time>2019-06-30T07:11:28.000Z</time>
      </trkpt>
      <trkpt lat="43.18495" lon="2.39035">
        <ele>194.9</ele>
        <time>2019-06-30T07:11:29.000Z</time>
      </trkpt>
      <trkpt lat="43.18494" lon="2.39033">
        <ele>194.9</ele>
        <time>2019-06-30T07:11:30.000Z</time>
      </trkpt>
      <trkpt lat="43.18492" lon="2.3903">
        <ele>194.8</ele>
        <time>2019-06-30T07:11:31.000Z</time>
      </trkpt>
      <trkpt lat="43.18491" lon="2.39029">
        <ele>194.7</ele>
        <time>2019-06-30T07:11:32.000Z</time>
      </trkpt>
      <trkpt lat="43.18489" lon="2.39026">
        <ele>194.6</ele>
        <time>2019-06-30T07:11:33.000Z</time>
      </trkpt>
      <trkpt lat="43.18487" lon="2.39024">
        <ele>194.5</ele>
        <time>2019-06-30T07:11:34.000Z</time>
      </trkpt>
      <trkpt lat="43.18486" lon="2.39021">
        <ele>194.4</ele>
        <time>2019-06-30T07:11:35.000Z</time>
      </trkpt>
      <trkpt lat="43.18485" lon="2.39018">
        <ele>194.4</ele>
        <time>2019-06-30T07:11:36.000Z</time>
      </trkpt>
      <trkpt lat="43.18485" lon="2.39016">
        <ele>194.4</ele>
        <time>2019-06-30T07:11:37.000Z</time>
      </trkpt>
      <trkpt lat="43.18485" lon="2.39013">
        <ele>194.5</ele>
        <time>2019-06-30T07:11:38.000Z</time>
      </trkpt>
      <trkpt lat="43.18485" lon="2.39011">
        <ele>194.5</ele>
        <time>2019-06-30T07:11:39.000Z</time>
      </trkpt>
      <trkpt lat="43.18485" lon="2.39009">
        <ele>194.7</ele>
        <time>2019-06-30T07:11:40.000Z</time>
      </trkpt>
      <trkpt lat="43.18486" lon="2.39007">
        <ele>194.8</ele>
        <time>2019-06-30T07:11:41.000Z</time>
      </trkpt>
      <trkpt lat="43.18487" lon="2.39005">
        <ele>195</ele>
        <time>2019-06-30T07:11:42.000Z</time>
      </trkpt>
      <trkpt lat="43.18488" lon="2.39004">
        <ele>195.2</ele>
        <time>2019-06-30T07:11:43.000Z</time>
      </trkpt>
      <trkpt lat="43.1849" lon="2.39003">
        <ele>195.4</ele>
        <time>2019-06-30T07:11:44.000Z</time>
      </trkpt>
      <trkpt lat="43.18491" lon="2.39002">
        <ele>195.6</ele>
        <time>2019-06-30T07:11:45.000Z</time>
      </trkpt>
      <trkpt lat="43.18492" lon="2.39001">
        <ele>195.8</ele>
        <time>2019-06-30T07:11:46.000Z</time>
      </trkpt>
      <trkpt lat="43.18493" lon="2.39001">
        <ele>196</ele>
        <time>2019-06-30T07:11:47.000Z</time>
      </trkpt>
      <trkpt lat="43.18494" lon="2.39001">
        <ele>196.1</ele>
        <time>2019-06-30T07:11:48.000Z</time>
      </trkpt>
      <trkpt lat="43.18495" lon="2.39002">
        <ele>196.3</ele>
        <time>2019-06-30T07:11:49.000Z</time>
      </trkpt>
      <trkpt lat="43.18497" lon="2.39002">
        <ele>196.4</ele>
        <time>2019-06-30T07:11:50.000Z</time>
      </trkpt>
      <trkpt lat="43.18498" lon="2.39003">
        <ele>196.5</ele>
        <time>2019-06-30T07:11:51.000Z</time>
      </trkpt>
      <trkpt lat="43.18499" lon="2.39004">
        <ele>196.7</ele>
        <time>2019-06-30T07:11:52.000Z</time>
      </trkpt>
      <trkpt lat="43.185" lon="2.39005">
        <ele>196.8</ele>
        <time>2019-06-30T07:11:53.000Z</time>
      </trkpt>
      <trkpt lat="43.18502" lon="2.39007">
        <ele>196.9</ele>
        <time>2019-06-30T07:11:54.000Z</time>
      </trkpt>
      <trkpt lat="43.18504" lon="2.39008">
        <ele>197</ele>
        <time>2019-06-30T07:11:55.000Z</time>
      </trkpt>
      <trkpt lat="43.18506" lon="2.39009">
        <ele>197.1</ele>
        <time>2019-06-30T07:11:56.000Z</time>
      </trkpt>
      <trkpt lat="43.18508" lon="2.3901">
        <ele>197.2</ele>
        <time>2019-06-30T07:11:57.000Z</time>
      </trkpt>
      <trkpt lat="43.1851" lon="2.39011">
        <ele>197.4</ele>
        <time>2019-06-30T07:11:58.000Z</time>
      </trkpt>
      <trkpt lat="43.18512" lon="2.39011">
        <ele>197.5</ele>
        <time>2019-06-30T07:11:59.000Z</time>
      </trkpt>
      <trkpt lat="43.18513" lon="2.39011">
        <ele>197.7</ele>
        <time>2019-06-30T07:12:00.000Z</time>
      </trkpt>
      <trkpt lat="43.18515" lon="2.39011">
        <ele>197.8</ele>
        <time>2019-06-30T07:12:01.000Z</time>
      </trkpt>
      <trkpt lat="43.18517" lon="2.39011">
        <ele>197.9</ele>
        <time>2019-06-30T07:12:02.000Z</time>
      </trkpt>
      <trkpt lat="43.18518" lon="2.39011">
        <ele>198.1</ele>
        <time>2019-06-30T07:12:03.000Z</time>
      </trkpt>
      <trkpt lat="43.1852" lon="2.39012">
        <ele>198.2</ele>
        <time>2019-06-30T07:12:04.000Z</time>
      </trkpt>
      <trkpt lat="43.18522" lon="2.39012">
        <ele>198.4</ele>
        <time>2019-06-30T07:12:05.000Z</time>
      </trkpt>
      <trkpt lat="43.18524" lon="2.39013">
        <ele>198.6</ele>
        <time>2019-06-30T07:12:06.000Z</time>
      </trkpt>
      <trkpt lat="43.18526" lon="2.39013">
        <ele>198.7</ele>
        <time>2019-06-30T07:12:07.000Z</time>
      </trkpt>
      <trkpt lat="43.18528" lon="2.39013">
        <ele>198.9</ele>
        <time>2019-06-30T07:12:08.000Z</time>
      </trkpt>
      <trkpt lat="43.1853" lon="2.39012">
        <ele>199</ele>
        <time>2019-06-30T07:12:09.000Z</time>
      </trkpt>
      <trkpt lat="43.18531" lon="2.39012">
        <ele>199.2</ele>
        <time>2019-06-30T07:12:10.000Z</time>
      </trkpt>
      <trkpt lat="43.18533" lon="2.39011">
        <ele>199.4</ele>
        <time>2019-06-30T07:12:11.000Z</time>
      </trkpt>
      <trkpt lat="43.18535" lon="2.3901">
        <ele>199.6</ele>
        <time>2019-06-30T07:12:12.000Z</time>
      </trkpt>
      <trkpt lat="43.18536" lon="2.39009">
        <ele>199.8</ele>
        <time>2019-06-30T07:12:13.000Z</time>
      </trkpt>
      <trkpt lat="43.18538" lon="2.39007">
        <ele>199.9</ele>
        <time>2019-06-30T07:12:14.000Z</time>
      </trkpt>
      <trkpt lat="43.18539" lon="2.39006">
        <ele>200.1</ele>
        <time>2019-06-30T07:12:15.000Z</time>
      </trkpt>
      <trkpt lat="43.18541" lon="2.39005">
        <ele>200.3</ele>
        <time>2019-06-30T07:12:16.000Z</time>
      </trkpt>
      <trkpt lat="43.18542" lon="2.39004">
        <ele>200.4</ele>
        <time>2019-06-30T07:12:17.000Z</time>
      </trkpt>
      <trkpt lat="43.18544" lon="2.39003">
        <ele>200.6</ele>
        <time>2019-06-30T07:12:18.000Z</time>
      </trkpt>
      <trkpt lat="43.18545" lon="2.39003">
        <ele>200.7</ele>
        <time>2019-06-30T07:12:19.000Z</time>
      </trkpt>
      <trkpt lat="43.18547" lon="2.39002">
        <ele>200.9</ele>
        <time>2019-06-30T07:12:20.000Z</time>
      </trkpt>
      <trkpt lat="43.18548" lon="2.39002">
        <ele>201</ele>
        <time>2019-06-30T07:12:21.000Z</time>
      </trkpt>
      <trkpt lat="43.1855" lon="2.39002">
        <ele>201.1</ele>
        <time>2019-06-30T07:12:22.000Z</time>
      </trkpt>
      <trkpt lat="43.18551" lon="2.39002">
        <ele>201.2</ele>
        <time>2019-06-30T07:12:23.000Z</time>
      </trkpt>
      <trkpt lat="43.18552" lon="2.39002">
        <ele>201.3</ele>
        <time>2019-06-30T07:12:24.000Z</time>
      </trkpt>
      <trkpt lat="43.18553" lon="2.39002">
        <ele>201.4</ele>
        <time>2019-06-30T07:12:25.000Z</time>
      </trkpt>
      <trkpt lat="43.18554" lon="2.39003">
        <ele>201.4</ele>
        <time>2019-06-30T07:12:26.000Z</time>
      </trkpt>
      <trkpt lat="43.18555" lon="2.39003">
        <ele>201.5</ele>
        <time>2019-06-30T07:12:27.000Z</time>
      </trkpt>
      <trkpt lat="43.18555" lon="2.39004">
        <ele>201.5</ele>
        <time>2019-06-30T07:12:28.000Z</time>
      </trkpt>
      <trkpt lat="43.18556" lon="2.39004">
        <ele>201.6</ele>
        <time>2019-06-30T07:12:29.000Z</time>
      </trkpt>
      <trkpt lat="43.18556" lon="2.39005">
        <ele>201.6</ele>
        <time>2019-06-30T07:12:30.000Z</time>
      </trkpt>
      <trkpt lat="43.18557" lon="2.39006">
        <ele>201.6</ele>
        <time>2019-06-30T07:12:31.000Z</time>
      </trkpt>
      <trkpt lat="43.18557" lon="2.39006">
        <ele>201.7</ele>
        <time>2019-06-30T07:12:32.000Z</time>
      </trkpt>
      <trkpt lat="43.18558" lon="2.39007">
        <ele>201.7</ele>
        <time>2019-06-30T07:12:33.000Z</time>
      </trkpt>
      <trkpt lat="43.18558" lon="2.39007">
        <ele>201.7</ele>
        <time>2019-06-30T07:12:34.000Z</time>
      </trkpt>
      <trkpt lat="43.18558" lon="2.39008">
        <ele>201.7</ele>
        <time>2019-06-30T07:12:35.000Z</time>
      </trkpt>
      <trkpt lat="43.18559" lon="2.39009">
        <ele>201.7</ele>
        <time>2019-06-30T07:12:36.000Z</time>
      </trkpt>
      <trkpt lat="43.18559" lon="2.39009">
        <ele>201.7</ele>
        <time>2019-06-30T07:12:37.000Z</time>
      </trkpt>
      <trkpt lat="43.18559" lon="2.3901">
        <ele>201.7</ele>
        <time>2019-06-30T07:12:38.000Z</time>
      </trkpt>
      <trkpt lat="43.1856" lon="2.39011">
        <ele>201.8</ele>
        <time>2019-06-30T07:12:39.000Z</time>
      </trkpt>
      <trkpt lat="43.1856" lon="2.39012">
        <ele>201.8</ele>
        <time>2019-06-30T07:12:40.000Z</time>
      </trkpt>
      <trkpt lat="43.1856" lon="2.39013">
        <ele>201.8</ele>
        <time>2019-06-30T07:12:41.000Z</time>
      </trkpt>
      <trkpt lat="43.18561" lon="2.39014">
        <ele>201.8</ele>
        <time>2019-06-30T07:12:42.000Z</time>
      </trkpt>
      <trkpt lat="43.18561" lon="2.39015">
        <ele>201.8</ele>
        <time>2019-06-30T07:12:43.000Z</time>
      </trkpt>
      <trkpt lat="43.18562" lon="2.39016">
        <ele>201.8</ele>
        <time>2019-06-30T07:12:44.000Z</time>
      </trkpt>
      <trkpt lat="43.18562" lon="2.39017">
        <ele>201.9</ele>
        <time>2019-06-30T07:12:45.000Z</time>
      </trkpt>
      <trkpt lat="43.18563" lon="2.39018">
        <ele>201.9</ele>
        <time>2019-06-30T07:12:46.000Z</time>
      </trkpt>
      <trkpt lat="43.18563" lon="2.39019">
        <ele>201.9</ele>
        <time>2019-06-30T07:12:47.000Z</time>
      </trkpt>
      <trkpt lat="43.18563" lon="2.3902">
        <ele>201.9</ele>
        <time>2019-06-30T07:12:48.000Z</time>
      </trkpt>
      <trkpt lat="43.18564" lon="2.39021">
        <ele>201.9</ele>
        <time>2019-06-30T07:12:49.000Z</time>
      </trkpt>
      <trkpt lat="43.18564" lon="2.39022">
        <ele>201.9</ele>
        <time>2019-06-30T07:12:50.000Z</time>
      </trkpt>
      <trkpt lat="43.18564" lon="2.39022">
        <ele>201.9</ele>
        <time>2019-06-30T07:12:51.000Z</time>
      </trkpt>
      <trkpt lat="43.18564" lon="2.39023">
        <ele>201.9</ele>
        <time>2019-06-30T07:12:52.000Z</time>
      </trkpt>
      <trkpt lat="43.18565" lon="2.39024">
        <ele>201.9</ele>
        <time>2019-06-30T07:12:53.000Z</time>
      </trkpt>
      <trkpt lat="43.18565" lon="2.39024">
        <ele>201.9</ele>
        <time>2019-06-30T07:12:54.000Z</time>
      </trkpt>
      <trkpt lat="43.18565" lon="2.39024">
        <ele>201.9</ele>
        <time>2019-06-30T07:12:55.000Z</time>
      </trkpt>
      <trkpt lat="43.18565" lon="2.39025">
        <ele>201.9</ele>
        <time>2019-06-30T07:12:56.000Z</time>
      </trkpt>
      <trkpt lat="43.18565" lon="2.39025">
        <ele>201.9</ele>
        <time>2019-06-30T07:12:57.000Z</time>
      </trkpt>
      <trkpt lat="43.18565" lon="2.39025">
        <ele>201.9</ele>
        <time>2019-06-30T07:12:58.000Z</time>
      </trkpt>
      <trkpt lat="43.18565" lon="2.39025">
        <ele>201.9</ele>
        <time>2019-06-30T07:12:59.000Z</time>
      </trkpt>
      <trkpt lat="43.18565" lon="2.39025">
        <ele>201.9</ele>
        <time>2019-06-30T07:13:00.000Z</time>
      </trkpt>
      <trkpt lat="43.18565" lon="2.39025">
        <ele>201.9</ele>
        <time>2019-06-30T07:13:01.000Z</time>
      </trkpt>
      <trkpt lat="43.18565" lon="2.39025">
        <ele>201.9</ele>
        <time>2019-06-30T07:13:02.000Z</time>
      </trkpt>
      <trkpt lat="43.18565" lon="2.39025">
        <ele>201.9</ele>
        <time>2019-06-30T07:13:03.000Z</time>
      </trkpt>
      <trkpt lat="43.18565" lon="2.39025">
        <ele>202</ele>
        <time>2019-06-30T07:13:04.000Z</time>
      </trkpt>
      <trkpt lat="43.18565" lon="2.39025">
        <ele>202</ele>
        <time>2019-06-30T07:13:05.000Z</time>
      </trkpt>
      <trkpt lat="43.18565" lon="2.39026">
        <ele>202</ele>
        <time>2019-06-30T07:13:06.000Z</time>
      </trkpt>
      <trkpt lat="43.18566" lon="2.39026">
        <ele>202</ele>
        <time>2019-06-30T07:13:07.000Z</time>
      </trkpt>
      <trkpt lat="43.18566" lon="2.39027">
        <ele>202</ele>
        <time>2019-06-30T07:13:08.000Z</time>
      </trkpt>
      <trkpt lat="43.18566" lon="2.39028">
        <ele>202</ele>
        <time>2019-06-30T07:13:09.000Z</time>
      </trkpt>
      <trkpt lat="43.18566" lon="2.39028">
        <ele>202</ele>
        <time>2019-06-30T07:13:10.000Z</time>
      </trkpt>
      <trkpt lat="43.18567" lon="2.39029">
        <ele>202</ele>
        <time>2019-06-30T07:13:11.000Z</time>
      </trkpt>
      <trkpt lat="43.18567" lon="2.39029">
        <ele>202.1</ele>
        <time>2019-06-30T07:13:12.000Z</time>
      </trkpt>
      <trkpt lat="43.18567" lon="2.3903">
        <ele>202.1</ele>
        <time>2019-06-30T07:13:13.000Z</time>
      </trkpt>
      <trkpt lat="43.18567" lon="2.3903">
        <ele>202.1</ele>
        <time>2019-06-30T07:13:14.000Z</time>
      </trkpt>
      <trkpt lat="43.18567" lon="2.3903">
        <ele>202.1</ele>
        <time>2019-06-30T07:13:15.000Z</time>
      </trkpt>
      <trkpt lat="43.18568" lon="2.3903">
        <ele>202.1</ele>
        <time>2019-06-30T07:13:16.000Z</time>
      </trkpt>
      <trkpt lat="43.18568" lon="2.3903">
        <ele>202.1</ele>
        <time>2019-06-30T07:13:17.000Z</time>
      </trkpt>
      <trkpt lat="43.18568" lon="2.3903">
        <ele>202.1</ele>
        <time>2019-06-30T07:13:18.000Z</time>
      </trkpt>
      <trkpt lat="43.18568" lon="2.3903">
        <ele>202.1</ele>
        <time>2019-06-30T07:13:19.000Z</time>
      </trkpt>
      <trkpt lat="43.18568" lon="2.39029">
        <ele>202.1</ele>
        <time>2019-06-30T07:13:20.000Z</time>
      </trkpt>
      <trkpt lat="43.18568" lon="2.39029">
        <ele>202.1</ele>
        <time>2019-06-30T07:13:21.000Z</time>
      </trkpt>
      <trkpt lat="43.18568" lon="2.39029">
        <ele>202.1</ele>
        <time>2019-06-30T07:13:22.000Z</time>
      </trkpt>
      <trkpt lat="43.18568" lon="2.39029">
        <ele>202.1</ele>
        <time>2019-06-30T07:13:23.000Z</time>
      </trkpt>
      <trkpt lat="43.18568" lon="2.39029">
        <ele>202.1</ele>
        <time>2019-06-30T07:13:24.000Z</time>
      </trkpt>
      <trkpt lat="43.18568" lon="2.39029">
        <ele>202.1</ele>
        <time>2019-06-30T07:13:25.000Z</time>
      </trkpt>
      <trkpt lat="43.18568" lon="2.39029">
        <ele>202.1</ele>
        <time>2019-06-30T07:13:26.000Z</time>
      </trkpt>
      <trkpt lat="43.18568" lon="2.39029">
        <ele>202.1</ele>
        <time>2019-06-30T07:13:27.000Z</time>
      </trkpt>
      <trkpt lat="43.18568" lon="2.39029">
        <ele>202.2</ele>
        <time>2019-06-30T07:13:28.000Z</time>
      </trkpt>
      <trkpt lat="43.18568" lon="2.39029">
        <ele>202.2</ele>
        <time>2019-06-30T07:13:29.000Z</time>
      </trkpt>
      <trkpt lat="43.18569" lon="2.3903">
        <ele>202.2</ele>
        <time>2019-06-30T07:13:30.000Z</time>
      </trkpt>
      <trkpt lat="43.18569" lon="2.3903">
        <ele>202.3</ele>
        <time>2019-06-30T07:13:31.000Z</time>
      </trkpt>
      <trkpt lat="43.1857" lon="2.39031">
        <ele>202.3</ele>
        <time>2019-06-30T07:13:32.000Z</time>
      </trkpt>
      <trkpt lat="43.18571" lon="2.39032">
        <ele>202.4</ele>
        <time>2019-06-30T07:13:33.000Z</time>
      </trkpt>
      <trkpt lat="43.18572" lon="2.39032">
        <ele>202.5</ele>
        <time>2019-06-30T07:13:34.000Z</time>
      </trkpt>
      <trkpt lat="43.18574" lon="2.39033">
        <ele>202.6</ele>
        <time>2019-06-30T07:13:35.000Z</time>
      </trkpt>
      <trkpt lat="43.18575" lon="2.39034">
        <ele>202.7</ele>
        <time>2019-06-30T07:13:36.000Z</time>
      </trkpt>
      <trkpt lat="43.18576" lon="2.39034">
        <ele>202.8</ele>
        <time>2019-06-30T07:13:37.000Z</time>
      </trkpt>
      <trkpt lat="43.18576" lon="2.39034">
        <ele>202.9</ele>
        <time>2019-06-30T07:13:38.000Z</time>
      </trkpt>
      <trkpt lat="43.18577" lon="2.39034">
        <ele>203</ele>
        <time>2019-06-30T07:13:39.000Z</time>
      </trkpt>
      <trkpt lat="43.18578" lon="2.39034">
        <ele>203.1</ele>
        <time>2019-06-30T07:13:40.000Z</time>
      </trkpt>
      <trkpt lat="43.18579" lon="2.39034">
        <ele>203.2</ele>
        <time>2019-06-30T07:13:41.000Z</time>
      </trkpt>
      <trkpt lat="43.1858" lon="2.39034">
        <ele>203.3</ele>
        <time>2019-06-30T07:13:42.000Z</time>
      </trkpt>
      <trkpt lat="43.18581" lon="2.39033">
        <ele>203.4</ele>
        <time>2019-06-30T07:13:43.000Z</time>
      </trkpt>
      <trkpt lat="43.18582" lon="2.39032">
        <ele>203.5</ele>
        <time>2019-06-30T07:13:44.000Z</time>
      </trkpt>
      <trkpt lat="43.18583" lon="2.39031">
        <ele>203.6</ele>
        <time>2019-06-30T07:13:45.000Z</time>
      </trkpt>
      <trkpt lat="43.18584" lon="2.3903">
        <ele>203.7</ele>
        <time>2019-06-30T07:13:46.000Z</time>
      </trkpt>
      <trkpt lat="43.18585" lon="2.39029">
        <ele>203.8</ele>
        <time>2019-06-30T07:13:47.000Z</time>
      </trkpt>
      <trkpt lat="43.18586" lon="2.39028">
        <ele>203.8</ele>
        <time>2019-06-30T07:13:48.000Z</time>
      </trkpt>
      <trkpt lat="43.18587" lon="2.39027">
        <ele>203.9</ele>
        <time>2019-06-30T07:13:49.000Z</time>
      </trkpt>
      <trkpt lat="43.18588" lon="2.39025">
        <ele>204</ele>
        <time>2019-06-30T07:13:50.000Z</time>
      </trkpt>
      <trkpt lat="43.18589" lon="2.39024">
        <ele>204.1</ele>
        <time>2019-06-30T07:13:51.000Z</time>
      </trkpt>
      <trkpt lat="43.1859" lon="2.39023">
        <ele>204.2</ele>
        <time>2019-06-30T07:13:52.000Z</time>
      </trkpt>
      <trkpt lat="43.18592" lon="2.39022">
        <ele>204.4</ele>
        <time>2019-06-30T07:13:53.000Z</time>
      </trkpt>
      <trkpt lat="43.18593" lon="2.3902">
        <ele>204.5</ele>
        <time>2019-06-30T07:13:54.000Z</time>
      </trkpt>
      <trkpt lat="43.18594" lon="2.39019">
        <ele>204.6</ele>
        <time>2019-06-30T07:13:55.000Z</time>
      </trkpt>
      <trkpt lat="43.18595" lon="2.39017">
        <ele>204.7</ele>
        <time>2019-06-30T07:13:56.000Z</time>
      </trkpt>
      <trkpt lat="43.18596" lon="2.39016">
        <ele>204.8</ele>
        <time>2019-06-30T07:13:57.000Z</time>
      </trkpt>
      <trkpt lat="43.18597" lon="2.39014">
        <ele>204.9</ele>
        <time>2019-06-30T07:13:58.000Z</time>
      </trkpt>
      <trkpt lat="43.18599" lon="2.39013">
        <ele>205</ele>
        <time>2019-06-30T07:13:59.000Z</time>
      </trkpt>
      <trkpt lat="43.186" lon="2.39011">
        <ele>205.1</ele>
        <time>2019-06-30T07:14:00.000Z</time>
      </trkpt>
      <trkpt lat="43.18601" lon="2.39009">
        <ele>205.2</ele>
        <time>2019-06-30T07:14:01.000Z</time>
      </trkpt>
      <trkpt lat="43.18602" lon="2.39008">
        <ele>205.3</ele>
        <time>2019-06-30T07:14:02.000Z</time>
      </trkpt>
      <trkpt lat="43.18603" lon="2.39006">
        <ele>205.3</ele>
        <time>2019-06-30T07:14:03.000Z</time>
      </trkpt>
      <trkpt lat="43.18604" lon="2.39004">
        <ele>205.4</ele>
        <time>2019-06-30T07:14:04.000Z</time>
      </trkpt>
      <trkpt lat="43.18604" lon="2.39002">
        <ele>205.5</ele>
        <time>2019-06-30T07:14:05.000Z</time>
      </trkpt>
      <trkpt lat="43.18605" lon="2.39">
        <ele>205.6</ele>
        <time>2019-06-30T07:14:06.000Z</time>
      </trkpt>
      <trkpt lat="43.18606" lon="2.38997">
        <ele>205.6</ele>
        <time>2019-06-30T07:14:07.000Z</time>
      </trkpt>
      <trkpt lat="43.18607" lon="2.38995">
        <ele>205.7</ele>
        <time>2019-06-30T07:14:08.000Z</time>
      </trkpt>
      <trkpt lat="43.18608" lon="2.38993">
        <ele>205.7</ele>
        <time>2019-06-30T07:14:09.000Z</time>
      </trkpt>
      <trkpt lat="43.18608" lon="2.38991">
        <ele>205.8</ele>
        <time>2019-06-30T07:14:10.000Z</time>
      </trkpt>
      <trkpt lat="43.18609" lon="2.38988">
        <ele>205.8</ele>
        <time>2019-06-30T07:14:11.000Z</time>
      </trkpt>
      <trkpt lat="43.1861" lon="2.38986">
        <ele>205.9</ele>
        <time>2019-06-30T07:14:12.000Z</time>
      </trkpt>
      <trkpt lat="43.18611" lon="2.38983">
        <ele>205.9</ele>
        <time>2019-06-30T07:14:13.000Z</time>
      </trkpt>
      <trkpt lat="43.18611" lon="2.38981">
        <ele>205.9</ele>
        <time>2019-06-30T07:14:14.000Z</time>
      </trkpt>
      <trkpt lat="43.18612" lon="2.38978">
        <ele>206</ele>
        <time>2019-06-30T07:14:15.000Z</time>
      </trkpt>
      <trkpt lat="43.18613" lon="2.38976">
        <ele>206.1</ele>
        <time>2019-06-30T07:14:16.000Z</time>
      </trkpt>
      <trkpt lat="43.18614" lon="2.38973">
        <ele>206.1</ele>
        <time>2019-06-30T07:14:17.000Z</time>
      </trkpt>
      <trkpt lat="43.18615" lon="2.38971">
        <ele>206.2</ele>
        <time>2019-06-30T07:14:18.000Z</time>
      </trkpt>
      <trkpt lat="43.18616" lon="2.38968">
        <ele>206.3</ele>
        <time>2019-06-30T07:14:19.000Z</time>
      </trkpt>
      <trkpt lat="43.18617" lon="2.38966">
        <ele>206.3</ele>
        <time>2019-06-30T07:14:20.000Z</time>
      </trkpt>
      <trkpt lat="43.18618" lon="2.38963">
        <ele>206.4</ele>
        <time>2019-06-30T07:14:21.000Z</time>
      </trkpt>
      <trkpt lat="43.18618" lon="2.3896">
        <ele>206.4</ele>
        <time>2019-06-30T07:14:22.000Z</time>
      </trkpt>
      <trkpt lat="43.18619" lon="2.38958">
        <ele>206.5</ele>
        <time>2019-06-30T07:14:23.000Z</time>
      </trkpt>
      <trkpt lat="43.1862" lon="2.38955">
        <ele>206.5</ele>
        <time>2019-06-30T07:14:24.000Z</time>
      </trkpt>
      <trkpt lat="43.1862" lon="2.38952">
        <ele>206.6</ele>
        <time>2019-06-30T07:14:25.000Z</time>
      </trkpt>
      <trkpt lat="43.18621" lon="2.38949">
        <ele>206.6</ele>
        <time>2019-06-30T07:14:26.000Z</time>
      </trkpt>
      <trkpt lat="43.18621" lon="2.38946">
        <ele>206.7</ele>
        <time>2019-06-30T07:14:27.000Z</time>
      </trkpt>
      <trkpt lat="43.18622" lon="2.38943">
        <ele>206.7</ele>
        <time>2019-06-30T07:14:28.000Z</time>
      </trkpt>
      <trkpt lat="43.18622" lon="2.3894">
        <ele>206.8</ele>
        <time>2019-06-30T07:14:29.000Z</time>
      </trkpt>
      <trkpt lat="43.18623" lon="2.38937">
        <ele>206.8</ele>
        <time>2019-06-30T07:14:30.000Z</time>
      </trkpt>
      <trkpt lat="43.18623" lon="2.38934">
        <ele>206.8</ele>
        <time>2019-06-30T07:14:31.000Z</time>
      </trkpt>
      <trkpt lat="43.18624" lon="2.38931">
        <ele>206.9</ele>
        <time>2019-06-30T07:14:32.000Z</time>
      </trkpt>
      <trkpt lat="43.18625" lon="2.38928">
        <ele>207</ele>
        <time>2019-06-30T07:14:33.000Z</time>
      </trkpt>
      <trkpt lat="43.18625" lon="2.38926">
        <ele>207</ele>
        <time>2019-06-30T07:14:34.000Z</time>
      </trkpt>
      <trkpt lat="43.18626" lon="2.38923">
        <ele>207.1</ele>
        <time>2019-06-30T07:14:35.000Z</time>
      </trkpt>
      <trkpt lat="43.18626" lon="2.38921">
        <ele>207.1</ele>
        <time>2019-06-30T07:14:36.000Z</time>
      </trkpt>
      <trkpt lat="43.18627" lon="2.38918">
        <ele>207.2</ele>
        <time>2019-06-30T07:14:37.000Z</time>
      </trkpt>
      <trkpt lat="43.18627" lon="2.38916">
        <ele>207.2</ele>
        <time>2019-06-30T07:14:38.000Z</time>
      </trkpt>
      <trkpt lat="43.18628" lon="2.38914">
        <ele>207.2</ele>
        <time>2019-06-30T07:14:39.000Z</time>
      </trkpt>
      <trkpt lat="43.18628" lon="2.38912">
        <ele>207.1</ele>
        <time>2019-06-30T07:14:40.000Z</time>
      </trkpt>
      <trkpt lat="43.18629" lon="2.3891">
        <ele>207.1</ele>
        <time>2019-06-30T07:14:41.000Z</time>
      </trkpt>
      <trkpt lat="43.18629" lon="2.38908">
        <ele>207.1</ele>
        <time>2019-06-30T07:14:42.000Z</time>
      </trkpt>
      <trkpt lat="43.1863" lon="2.38907">
        <ele>207</ele>
        <time>2019-06-30T07:14:43.000Z</time>
      </trkpt>
      <trkpt lat="43.1863" lon="2.38905">
        <ele>207</ele>
        <time>2019-06-30T07:14:44.000Z</time>
      </trkpt>
      <trkpt lat="43.1863" lon="2.38904">
        <ele>206.9</ele>
        <time>2019-06-30T07:14:45.000Z</time>
      </trkpt>
      <trkpt lat="43.1863" lon="2.38903">
        <ele>206.9</ele>
        <time>2019-06-30T07:14:46.000Z</time>
      </trkpt>
      <trkpt lat="43.1863" lon="2.38901">
        <ele>206.8</ele>
        <time>2019-06-30T07:14:47.000Z</time>
      </trkpt>
      <trkpt lat="43.1863" lon="2.389">
        <ele>206.8</ele>
        <time>2019-06-30T07:14:48.000Z</time>
      </trkpt>
      <trkpt lat="43.18631" lon="2.38899">
        <ele>206.8</ele>
        <time>2019-06-30T07:14:49.000Z</time>
      </trkpt>
      <trkpt lat="43.18631" lon="2.38897">
        <ele>206.7</ele>
        <time>2019-06-30T07:14:50.000Z</time>
      </trkpt>
      <trkpt lat="43.18631" lon="2.38895">
        <ele>206.7</ele>
        <time>2019-06-30T07:14:51.000Z</time>
      </trkpt>
      <trkpt lat="43.18632" lon="2.38893">
        <ele>206.6</ele>
        <time>2019-06-30T07:14:52.000Z</time>
      </trkpt>
      <trkpt lat="43.18632" lon="2.38891">
        <ele>206.6</ele>
        <time>2019-06-30T07:14:53.000Z</time>
      </trkpt>
      <trkpt lat="43.18633" lon="2.38889">
        <ele>206.5</ele>
        <time>2019-06-30T07:14:54.000Z</time>
      </trkpt>
      <trkpt lat="43.18634" lon="2.38886">
        <ele>206.5</ele>
        <time>2019-06-30T07:14:55.000Z</time>
      </trkpt>
      <trkpt lat="43.18634" lon="2.38883">
        <ele>206.4</ele>
        <time>2019-06-30T07:14:56.000Z</time>
      </trkpt>
      <trkpt lat="43.18635" lon="2.38881">
        <ele>206.4</ele>
        <time>2019-06-30T07:14:57.000Z</time>
      </trkpt>
      <trkpt lat="43.18635" lon="2.38878">
        <ele>206.3</ele>
        <time>2019-06-30T07:14:58.000Z</time>
      </trkpt>
      <trkpt lat="43.18636" lon="2.38876">
        <ele>206.2</ele>
        <time>2019-06-30T07:14:59.000Z</time>
      </trkpt>
      <trkpt lat="43.18636" lon="2.38874">
        <ele>206.2</ele>
        <time>2019-06-30T07:15:00.000Z</time>
      </trkpt>
      <trkpt lat="43.18636" lon="2.38871">
        <ele>206.1</ele>
        <time>2019-06-30T07:15:01.000Z</time>
      </trkpt>
      <trkpt lat="43.18636" lon="2.38869">
        <ele>206</ele>
        <time>2019-06-30T07:15:02.000Z</time>
      </trkpt>
      <trkpt lat="43.18636" lon="2.38866">
        <ele>205.9</ele>
        <time>2019-06-30T07:15:03.000Z</time>
      </trkpt>
      <trkpt lat="43.18636" lon="2.38864">
        <ele>205.8</ele>
        <time>2019-06-30T07:15:04.000Z</time>
      </trkpt>
      <trkpt lat="43.18637" lon="2.38862">
        <ele>205.7</ele>
        <time>2019-06-30T07:15:05.000Z</time>
      </trkpt>
      <trkpt lat="43.18637" lon="2.3886">
        <ele>205.7</ele>
        <time>2019-06-30T07:15:06.000Z</time>
      </trkpt>
      <trkpt lat="43.18638" lon="2.3886">
        <ele>205.8</ele>
        <time>2019-06-30T07:15:07.000Z</time>
      </trkpt>
      <trkpt lat="43.18639" lon="2.38859">
        <ele>205.8</ele>
        <time>2019-06-30T07:15:08.000Z</time>
      </trkpt>
      <trkpt lat="43.18641" lon="2.38859">
        <ele>205.9</ele>
        <time>2019-06-30T07:15:09.000Z</time>
      </trkpt>
      <trkpt lat="43.18642" lon="2.38858">
        <ele>206</ele>
        <time>2019-06-30T07:15:10.000Z</time>
      </trkpt>
      <trkpt lat="43.18643" lon="2.38856">
        <ele>206</ele>
        <time>2019-06-30T07:15:11.000Z</time>
      </trkpt>
      <trkpt lat="43.18644" lon="2.38854">
        <ele>206</ele>
        <time>2019-06-30T07:15:12.000Z</time>
      </trkpt>
      <trkpt lat="43.18645" lon="2.38851">
        <ele>205.9</ele>
        <time>2019-06-30T07:15:13.000Z</time>
      </trkpt>
      <trkpt lat="43.18646" lon="2.38848">
        <ele>205.9</ele>
        <time>2019-06-30T07:15:14.000Z</time>
      </trkpt>
      <trkpt lat="43.18646" lon="2.38845">
        <ele>205.8</ele>
        <time>2019-06-30T07:15:15.000Z</time>
      </trkpt>
      <trkpt lat="43.18647" lon="2.38841">
        <ele>205.7</ele>
        <time>2019-06-30T07:15:16.000Z</time>
      </trkpt>
      <trkpt lat="43.18647" lon="2.38838">
        <ele>205.6</ele>
        <time>2019-06-30T07:15:17.000Z</time>
      </trkpt>
      <trkpt lat="43.18648" lon="2.38835">
        <ele>205.5</ele>
        <time>2019-06-30T07:15:18.000Z</time>
      </trkpt>
      <trkpt lat="43.18649" lon="2.38831">
        <ele>205.4</ele>
        <time>2019-06-30T07:15:19.000Z</time>
      </trkpt>
      <trkpt lat="43.18649" lon="2.38828">
        <ele>205.4</ele>
        <time>2019-06-30T07:15:20.000Z</time>
      </trkpt>
      <trkpt lat="43.18649" lon="2.38824">
        <ele>205.4</ele>
        <time>2019-06-30T07:15:21.000Z</time>
      </trkpt>
      <trkpt lat="43.1865" lon="2.38821">
        <ele>205.3</ele>
        <time>2019-06-30T07:15:22.000Z</time>
      </trkpt>
      <trkpt lat="43.1865" lon="2.38817">
        <ele>205.3</ele>
        <time>2019-06-30T07:15:23.000Z</time>
      </trkpt>
      <trkpt lat="43.18651" lon="2.38814">
        <ele>205.2</ele>
        <time>2019-06-30T07:15:24.000Z</time>
      </trkpt>
      <trkpt lat="43.18651" lon="2.3881">
        <ele>205.2</ele>
        <time>2019-06-30T07:15:25.000Z</time>
      </trkpt>
      <trkpt lat="43.18652" lon="2.38807">
        <ele>205.2</ele>
        <time>2019-06-30T07:15:26.000Z</time>
      </trkpt>
      <trkpt lat="43.18652" lon="2.38804">
        <ele>205.2</ele>
        <time>2019-06-30T07:15:27.000Z</time>
      </trkpt>
      <trkpt lat="43.18653" lon="2.388">
        <ele>205.2</ele>
        <time>2019-06-30T07:15:28.000Z</time>
      </trkpt>
      <trkpt lat="43.18653" lon="2.38797">
        <ele>205.2</ele>
        <time>2019-06-30T07:15:29.000Z</time>
      </trkpt>
      <trkpt lat="43.18654" lon="2.38793">
        <ele>205.2</ele>
        <time>2019-06-30T07:15:30.000Z</time>
      </trkpt>
      <trkpt lat="43.18655" lon="2.3879">
        <ele>205.2</ele>
        <time>2019-06-30T07:15:31.000Z</time>
      </trkpt>
      <trkpt lat="43.18655" lon="2.38787">
        <ele>205.2</ele>
        <time>2019-06-30T07:15:32.000Z</time>
      </trkpt>
      <trkpt lat="43.18656" lon="2.38784">
        <ele>205.2</ele>
        <time>2019-06-30T07:15:33.000Z</time>
      </trkpt>
      <trkpt lat="43.18657" lon="2.38781">
        <ele>205.2</ele>
        <time>2019-06-30T07:15:34.000Z</time>
      </trkpt>
      <trkpt lat="43.18658" lon="2.38777">
        <ele>205.3</ele>
        <time>2019-06-30T07:15:35.000Z</time>
      </trkpt>
      <trkpt lat="43.18658" lon="2.38774">
        <ele>205.3</ele>
        <time>2019-06-30T07:15:36.000Z</time>
      </trkpt>
      <trkpt lat="43.18659" lon="2.38771">
        <ele>205.4</ele>
        <time>2019-06-30T07:15:37.000Z</time>
      </trkpt>
      <trkpt lat="43.1866" lon="2.38768">
        <ele>205.4</ele>
        <time>2019-06-30T07:15:38.000Z</time>
      </trkpt>
      <trkpt lat="43.18661" lon="2.38766">
        <ele>205.5</ele>
        <time>2019-06-30T07:15:39.000Z</time>
      </trkpt>
      <trkpt lat="43.18662" lon="2.38763">
        <ele>205.5</ele>
        <time>2019-06-30T07:15:40.000Z</time>
      </trkpt>
      <trkpt lat="43.18663" lon="2.3876">
        <ele>205.6</ele>
        <time>2019-06-30T07:15:41.000Z</time>
      </trkpt>
      <trkpt lat="43.18664" lon="2.38757">
        <ele>205.7</ele>
        <time>2019-06-30T07:15:42.000Z</time>
      </trkpt>
      <trkpt lat="43.18665" lon="2.38755">
        <ele>205.8</ele>
        <time>2019-06-30T07:15:43.000Z</time>
      </trkpt>
      <trkpt lat="43.18666" lon="2.38752">
        <ele>205.9</ele>
        <time>2019-06-30T07:15:44.000Z</time>
      </trkpt>
      <trkpt lat="43.18666" lon="2.38749">
        <ele>206</ele>
        <time>2019-06-30T07:15:45.000Z</time>
      </trkpt>
      <trkpt lat="43.18667" lon="2.38747">
        <ele>206.2</ele>
        <time>2019-06-30T07:15:46.000Z</time>
      </trkpt>
      <trkpt lat="43.18668" lon="2.38744">
        <ele>206.4</ele>
        <time>2019-06-30T07:15:47.000Z</time>
      </trkpt>
      <trkpt lat="43.18669" lon="2.38742">
        <ele>206.6</ele>
        <time>2019-06-30T07:15:48.000Z</time>
      </trkpt>
      <trkpt lat="43.1867" lon="2.38739">
        <ele>206.8</ele>
        <time>2019-06-30T07:15:49.000Z</time>
      </trkpt>
      <trkpt lat="43.18671" lon="2.38737">
        <ele>207</ele>
        <time>2019-06-30T07:15:50.000Z</time>
      </trkpt>
      <trkpt lat="43.18672" lon="2.38735">
        <ele>207.2</ele>
        <time>2019-06-30T07:15:51.000Z</time>
      </trkpt>
      <trkpt lat="43.18673" lon="2.38732">
        <ele>207.4</ele>
        <time>2019-06-30T07:15:52.000Z</time>
      </trkpt>
      <trkpt lat="43.18674" lon="2.3873">
        <ele>207.5</ele>
        <time>2019-06-30T07:15:53.000Z</time>
      </trkpt>
      <trkpt lat="43.18674" lon="2.38728">
        <ele>207.7</ele>
        <time>2019-06-30T07:15:54.000Z</time>
      </trkpt>
      <trkpt lat="43.18675" lon="2.38725">
        <ele>207.8</ele>
        <time>2019-06-30T07:15:55.000Z</time>
      </trkpt>
      <trkpt lat="43.18676" lon="2.38723">
        <ele>208</ele>
        <time>2019-06-30T07:15:56.000Z</time>
      </trkpt>
      <trkpt lat="43.18676" lon="2.38721">
        <ele>208.1</ele>
        <time>2019-06-30T07:15:57.000Z</time>
      </trkpt>
      <trkpt lat="43.18677" lon="2.38718">
        <ele>208.3</ele>
        <time>2019-06-30T07:15:58.000Z</time>
      </trkpt>
      <trkpt lat="43.18678" lon="2.38715">
        <ele>208.4</ele>
        <time>2019-06-30T07:15:59.000Z</time>
      </trkpt>
      <trkpt lat="43.18679" lon="2.38712">
        <ele>208.6</ele>
        <time>2019-06-30T07:16:00.000Z</time>
      </trkpt>
      <trkpt lat="43.18679" lon="2.38709">
        <ele>208.7</ele>
        <time>2019-06-30T07:16:01.000Z</time>
      </trkpt>
      <trkpt lat="43.1868" lon="2.38705">
        <ele>208.9</ele>
        <time>2019-06-30T07:16:02.000Z</time>
      </trkpt>
      <trkpt lat="43.18681" lon="2.38702">
        <ele>209</ele>
        <time>2019-06-30T07:16:03.000Z</time>
      </trkpt>
      <trkpt lat="43.18682" lon="2.38698">
        <ele>209.1</ele>
        <time>2019-06-30T07:16:04.000Z</time>
      </trkpt>
      <trkpt lat="43.18682" lon="2.38695">
        <ele>209.2</ele>
        <time>2019-06-30T07:16:05.000Z</time>
      </trkpt>
      <trkpt lat="43.18683" lon="2.38692">
        <ele>209.3</ele>
        <time>2019-06-30T07:16:06.000Z</time>
      </trkpt>
      <trkpt lat="43.18684" lon="2.38689">
        <ele>209.4</ele>
        <time>2019-06-30T07:16:07.000Z</time>
      </trkpt>
      <trkpt lat="43.18684" lon="2.38687">
        <ele>209.6</ele>
        <time>2019-06-30T07:16:08.000Z</time>
      </trkpt>
      <trkpt lat="43.18685" lon="2.38685">
        <ele>209.7</ele>
        <time>2019-06-30T07:16:09.000Z</time>
      </trkpt>
      <trkpt lat="43.18686" lon="2.38682">
        <ele>209.9</ele>
        <time>2019-06-30T07:16:10.000Z</time>
      </trkpt>
      <trkpt lat="43.18687" lon="2.3868">
        <ele>210</ele>
        <time>2019-06-30T07:16:11.000Z</time>
      </trkpt>
      <trkpt lat="43.18688" lon="2.38677">
        <ele>210.2</ele>
        <time>2019-06-30T07:16:12.000Z</time>
      </trkpt>
      <trkpt lat="43.18689" lon="2.38674">
        <ele>210.3</ele>
        <time>2019-06-30T07:16:13.000Z</time>
      </trkpt>
      <trkpt lat="43.1869" lon="2.38671">
        <ele>210.4</ele>
        <time>2019-06-30T07:16:14.000Z</time>
      </trkpt>
      <trkpt lat="43.18691" lon="2.38668">
        <ele>210.5</ele>
        <time>2019-06-30T07:16:15.000Z</time>
      </trkpt>
      <trkpt lat="43.18692" lon="2.38665">
        <ele>210.6</ele>
        <time>2019-06-30T07:16:16.000Z</time>
      </trkpt>
      <trkpt lat="43.18693" lon="2.38662">
        <ele>210.7</ele>
        <time>2019-06-30T07:16:17.000Z</time>
      </trkpt>
      <trkpt lat="43.18694" lon="2.38659">
        <ele>210.8</ele>
        <time>2019-06-30T07:16:18.000Z</time>
      </trkpt>
      <trkpt lat="43.18694" lon="2.38656">
        <ele>210.9</ele>
        <time>2019-06-30T07:16:19.000Z</time>
      </trkpt>
      <trkpt lat="43.18695" lon="2.38653">
        <ele>210.9</ele>
        <time>2019-06-30T07:16:20.000Z</time>
      </trkpt>
      <trkpt lat="43.18696" lon="2.3865">
        <ele>211</ele>
        <time>2019-06-30T07:16:21.000Z</time>
      </trkpt>
      <trkpt lat="43.18696" lon="2.38647">
        <ele>211</ele>
        <time>2019-06-30T07:16:22.000Z</time>
      </trkpt>
      <trkpt lat="43.18697" lon="2.38644">
        <ele>211</ele>
        <time>2019-06-30T07:16:23.000Z</time>
      </trkpt>
      <trkpt lat="43.18697" lon="2.38641">
        <ele>211.1</ele>
        <time>2019-06-30T07:16:24.000Z</time>
      </trkpt>
      <trkpt lat="43.18698" lon="2.38638">
        <ele>211.1</ele>
        <time>2019-06-30T07:16:25.000Z</time>
      </trkpt>
      <trkpt lat="43.18699" lon="2.38635">
        <ele>211.2</ele>
        <time>2019-06-30T07:16:26.000Z</time>
      </trkpt>
      <trkpt lat="43.18699" lon="2.38632">
        <ele>211.2</ele>
        <time>2019-06-30T07:16:27.000Z</time>
      </trkpt>
      <trkpt lat="43.187" lon="2.38629">
        <ele>211.2</ele>
        <time>2019-06-30T07:16:28.000Z</time>
      </trkpt>
      <trkpt lat="43.18701" lon="2.38626">
        <ele>211.3</ele>
        <time>2019-06-30T07:16:29.000Z</time>
      </trkpt>
      <trkpt lat="43.18701" lon="2.38623">
        <ele>211.3</ele>
        <time>2019-06-30T07:16:30.000Z</time>
      </trkpt>
      <trkpt lat="43.18702" lon="2.3862">
        <ele>211.4</ele>
        <time>2019-06-30T07:16:31.000Z</time>
      </trkpt>
      <trkpt lat="43.18703" lon="2.38617">
        <ele>211.4</ele>
        <time>2019-06-30T07:16:32.000Z</time>
      </trkpt>
      <trkpt lat="43.18703" lon="2.38615">
        <ele>211.4</ele>
        <time>2019-06-30T07:16:33.000Z</time>
      </trkpt>
      <trkpt lat="43.18704" lon="2.38612">
        <ele>211.5</ele>
        <time>2019-06-30T07:16:34.000Z</time>
      </trkpt>
      <trkpt lat="43.18705" lon="2.38609">
        <ele>211.5</ele>
        <time>2019-06-30T07:16:35.000Z</time>
      </trkpt>
      <trkpt lat="43.18705" lon="2.38607">
        <ele>211.5</ele>
        <time>2019-06-30T07:16:36.000Z</time>
      </trkpt>
      <trkpt lat="43.18706" lon="2.38604">
        <ele>211.6</ele>
        <time>2019-06-30T07:16:37.000Z</time>
      </trkpt>
      <trkpt lat="43.18707" lon="2.38601">
        <ele>211.6</ele>
        <time>2019-06-30T07:16:38.000Z</time>
      </trkpt>
      <trkpt lat="43.18707" lon="2.38599">
        <ele>211.7</ele>
        <time>2019-06-30T07:16:39.000Z</time>
      </trkpt>
      <trkpt lat="43.18708" lon="2.38596">
        <ele>211.7</ele>
        <time>2019-06-30T07:16:40.000Z</time>
      </trkpt>
      <trkpt lat="43.18709" lon="2.38594">
        <ele>211.7</ele>
        <time>2019-06-30T07:16:41.000Z</time>
      </trkpt>
      <trkpt lat="43.18709" lon="2.38591">
        <ele>211.7</ele>
        <time>2019-06-30T07:16:42.000Z</time>
      </trkpt>
      <trkpt lat="43.18709" lon="2.38589">
        <ele>211.7</ele>
        <time>2019-06-30T07:16:43.000Z</time>
      </trkpt>
      <trkpt lat="43.1871" lon="2.38586">
        <ele>211.7</ele>
        <time>2019-06-30T07:16:44.000Z</time>
      </trkpt>
      <trkpt lat="43.1871" lon="2.38584">
        <ele>211.6</ele>
        <time>2019-06-30T07:16:45.000Z</time>
      </trkpt>
      <trkpt lat="43.18709" lon="2.38582">
        <ele>211.6</ele>
        <time>2019-06-30T07:16:46.000Z</time>
      </trkpt>
      <trkpt lat="43.18709" lon="2.38579">
        <ele>211.5</ele>
        <time>2019-06-30T07:16:47.000Z</time>
      </trkpt>
      <trkpt lat="43.18709" lon="2.38577">
        <ele>211.4</ele>
        <time>2019-06-30T07:16:48.000Z</time>
      </trkpt>
      <trkpt lat="43.18708" lon="2.38575">
        <ele>211.3</ele>
        <time>2019-06-30T07:16:49.000Z</time>
      </trkpt>
      <trkpt lat="43.18706" lon="2.38572">
        <ele>211.1</ele>
        <time>2019-06-30T07:16:50.000Z</time>
      </trkpt>
      <trkpt lat="43.18705" lon="2.3857">
        <ele>210.9</ele>
        <time>2019-06-30T07:16:51.000Z</time>
      </trkpt>
      <trkpt lat="43.18703" lon="2.38568">
        <ele>210.7</ele>
        <time>2019-06-30T07:16:52.000Z</time>
      </trkpt>
      <trkpt lat="43.18701" lon="2.38566">
        <ele>210.5</ele>
        <time>2019-06-30T07:16:53.000Z</time>
      </trkpt>
      <trkpt lat="43.18699" lon="2.38564">
        <ele>210.3</ele>
        <time>2019-06-30T07:16:54.000Z</time>
      </trkpt>
      <trkpt lat="43.18697" lon="2.38561">
        <ele>210.1</ele>
        <time>2019-06-30T07:16:55.000Z</time>
      </trkpt>
      <trkpt lat="43.18695" lon="2.38559">
        <ele>209.9</ele>
        <time>2019-06-30T07:16:56.000Z</time>
      </trkpt>
      <trkpt lat="43.18694" lon="2.38556">
        <ele>209.7</ele>
        <time>2019-06-30T07:16:57.000Z</time>
      </trkpt>
      <trkpt lat="43.18693" lon="2.38553">
        <ele>209.6</ele>
        <time>2019-06-30T07:16:58.000Z</time>
      </trkpt>
      <trkpt lat="43.18693" lon="2.38551">
        <ele>209.6</ele>
        <time>2019-06-30T07:16:59.000Z</time>
      </trkpt>
      <trkpt lat="43.18693" lon="2.38547">
        <ele>209.6</ele>
        <time>2019-06-30T07:17:00.000Z</time>
      </trkpt>
      <trkpt lat="43.18695" lon="2.38544">
        <ele>209.7</ele>
        <time>2019-06-30T07:17:01.000Z</time>
      </trkpt>
      <trkpt lat="43.18696" lon="2.38541">
        <ele>209.8</ele>
        <time>2019-06-30T07:17:02.000Z</time>
      </trkpt>
      <trkpt lat="43.18698" lon="2.38539">
        <ele>209.9</ele>
        <time>2019-06-30T07:17:03.000Z</time>
      </trkpt>
      <trkpt lat="43.187" lon="2.38537">
        <ele>210</ele>
        <time>2019-06-30T07:17:04.000Z</time>
      </trkpt>
      <trkpt lat="43.18701" lon="2.38535">
        <ele>210.1</ele>
        <time>2019-06-30T07:17:05.000Z</time>
      </trkpt>
      <trkpt lat="43.18703" lon="2.38533">
        <ele>210.2</ele>
        <time>2019-06-30T07:17:06.000Z</time>
      </trkpt>
      <trkpt lat="43.18704" lon="2.3853">
        <ele>210.2</ele>
        <time>2019-06-30T07:17:07.000Z</time>
      </trkpt>
      <trkpt lat="43.18705" lon="2.38527">
        <ele>210.3</ele>
        <time>2019-06-30T07:17:08.000Z</time>
      </trkpt>
      <trkpt lat="43.18706" lon="2.38524">
        <ele>210.3</ele>
        <time>2019-06-30T07:17:09.000Z</time>
      </trkpt>
      <trkpt lat="43.18707" lon="2.38521">
        <ele>210.3</ele>
        <time>2019-06-30T07:17:10.000Z</time>
      </trkpt>
      <trkpt lat="43.18708" lon="2.38518">
        <ele>210.3</ele>
        <time>2019-06-30T07:17:11.000Z</time>
      </trkpt>
      <trkpt lat="43.18709" lon="2.38515">
        <ele>210.3</ele>
        <time>2019-06-30T07:17:12.000Z</time>
      </trkpt>
      <trkpt lat="43.18709" lon="2.38511">
        <ele>210.3</ele>
        <time>2019-06-30T07:17:13.000Z</time>
      </trkpt>
      <trkpt lat="43.1871" lon="2.38508">
        <ele>210.2</ele>
        <time>2019-06-30T07:17:14.000Z</time>
      </trkpt>
      <trkpt lat="43.1871" lon="2.38504">
        <ele>210.2</ele>
        <time>2019-06-30T07:17:15.000Z</time>
      </trkpt>
      <trkpt lat="43.1871" lon="2.385">
        <ele>210.1</ele>
        <time>2019-06-30T07:17:16.000Z</time>
      </trkpt>
      <trkpt lat="43.1871" lon="2.38496">
        <ele>210</ele>
        <time>2019-06-30T07:17:17.000Z</time>
      </trkpt>
      <trkpt lat="43.1871" lon="2.38492">
        <ele>210</ele>
        <time>2019-06-30T07:17:18.000Z</time>
      </trkpt>
      <trkpt lat="43.18709" lon="2.38488">
        <ele>209.9</ele>
        <time>2019-06-30T07:17:19.000Z</time>
      </trkpt>
      <trkpt lat="43.18709" lon="2.38484">
        <ele>209.8</ele>
        <time>2019-06-30T07:17:20.000Z</time>
      </trkpt>
      <trkpt lat="43.18708" lon="2.38481">
        <ele>209.8</ele>
        <time>2019-06-30T07:17:21.000Z</time>
      </trkpt>
      <trkpt lat="43.18708" lon="2.38478">
        <ele>209.7</ele>
        <time>2019-06-30T07:17:22.000Z</time>
      </trkpt>
      <trkpt lat="43.18707" lon="2.38476">
        <ele>209.7</ele>
        <time>2019-06-30T07:17:23.000Z</time>
      </trkpt>
      <trkpt lat="43.18707" lon="2.38474">
        <ele>209.6</ele>
        <time>2019-06-30T07:17:24.000Z</time>
      </trkpt>
      <trkpt lat="43.18706" lon="2.38472">
        <ele>209.6</ele>
        <time>2019-06-30T07:17:25.000Z</time>
      </trkpt>
      <trkpt lat="43.18705" lon="2.38471">
        <ele>209.6</ele>
        <time>2019-06-30T07:17:26.000Z</time>
      </trkpt>
      <trkpt lat="43.18705" lon="2.38471">
        <ele>209.5</ele>
        <time>2019-06-30T07:17:27.000Z</time>
      </trkpt>
      <trkpt lat="43.18704" lon="2.38471">
        <ele>209.5</ele>
        <time>2019-06-30T07:17:28.000Z</time>
      </trkpt>
      <trkpt lat="43.18704" lon="2.3847">
        <ele>209.5</ele>
        <time>2019-06-30T07:17:29.000Z</time>
      </trkpt>
      <trkpt lat="43.18704" lon="2.3847">
        <ele>209.5</ele>
        <time>2019-06-30T07:17:30.000Z</time>
      </trkpt>
      <trkpt lat="43.18704" lon="2.3847">
        <ele>209.5</ele>
        <time>2019-06-30T07:17:31.000Z</time>
      </trkpt>
      <trkpt lat="43.18704" lon="2.3847">
        <ele>209.5</ele>
        <time>2019-06-30T07:17:32.000Z</time>
      </trkpt>
      <trkpt lat="43.18704" lon="2.3847">
        <ele>209.5</ele>
        <time>2019-06-30T07:17:33.000Z</time>
      </trkpt>
      <trkpt lat="43.18704" lon="2.3847">
        <ele>209.5</ele>
        <time>2019-06-30T07:17:34.000Z</time>
      </trkpt>
      <trkpt lat="43.18704" lon="2.3847">
        <ele>209.5</ele>
        <time>2019-06-30T07:17:35.000Z</time>
      </trkpt>
      <trkpt lat="43.18704" lon="2.3847">
        <ele>209.5</ele>
        <time>2019-06-30T07:17:36.000Z</time>
      </trkpt>
      <trkpt lat="43.18704" lon="2.3847">
        <ele>209.5</ele>
        <time>2019-06-30T07:17:37.000Z</time>
      </trkpt>
      <trkpt lat="43.18704" lon="2.3847">
        <ele>209.5</ele>
        <time>2019-06-30T07:17:38.000Z</time>
      </trkpt>
      <trkpt lat="43.18703" lon="2.3847">
        <ele>209.5</ele>
        <time>2019-06-30T07:17:39.000Z</time>
      </trkpt>
      <trkpt lat="43.18703" lon="2.3847">
        <ele>209.5</ele>
        <time>2019-06-30T07:17:40.000Z</time>
      </trkpt>
      <trkpt lat="43.18703" lon="2.3847">
        <ele>209.5</ele>
        <time>2019-06-30T07:17:41.000Z</time>
      </trkpt>
      <trkpt lat="43.18703" lon="2.3847">
        <ele>209.5</ele>
        <time>2019-06-30T07:17:42.000Z</time>
      </trkpt>
      <trkpt lat="43.18703" lon="2.3847">
        <ele>209.5</ele>
        <time>2019-06-30T07:17:43.000Z</time>
      </trkpt>
      <trkpt lat="43.18703" lon="2.3847">
        <ele>209.5</ele>
        <time>2019-06-30T07:17:44.000Z</time>
      </trkpt>
      <trkpt lat="43.18703" lon="2.3847">
        <ele>209.5</ele>
        <time>2019-06-30T07:17:45.000Z</time>
      </trkpt>
      <trkpt lat="43.18703" lon="2.3847">
        <ele>209.5</ele>
        <time>2019-06-30T07:17:46.000Z</time>
      </trkpt>
      <trkpt lat="43.18703" lon="2.3847">
        <ele>209.5</ele>
        <time>2019-06-30T07:17:47.000Z</time>
      </trkpt>
      <trkpt lat="43.18703" lon="2.3847">
        <ele>209.5</ele>
        <time>2019-06-30T07:17:48.000Z</time>
      </trkpt>
      <trkpt lat="43.18702" lon="2.3847">
        <ele>209.5</ele>
        <time>2019-06-30T07:17:49.000Z</time>
      </trkpt>
      <trkpt lat="43.18702" lon="2.3847">
        <ele>209.4</ele>
        <time>2019-06-30T07:17:50.000Z</time>
      </trkpt>
      <trkpt lat="43.18701" lon="2.3847">
        <ele>209.4</ele>
        <time>2019-06-30T07:17:51.000Z</time>
      </trkpt>
      <trkpt lat="43.18701" lon="2.3847">
        <ele>209.4</ele>
        <time>2019-06-30T07:17:52.000Z</time>
      </trkpt>
      <trkpt lat="43.187" lon="2.38469">
        <ele>209.4</ele>
        <time>2019-06-30T07:17:53.000Z</time>
      </trkpt>
      <trkpt lat="43.18699" lon="2.38469">
        <ele>209.4</ele>
        <time>2019-06-30T07:17:54.000Z</time>
      </trkpt>
      <trkpt lat="43.18699" lon="2.38469">
        <ele>209.3</ele>
        <time>2019-06-30T07:17:55.000Z</time>
      </trkpt>
      <trkpt lat="43.18698" lon="2.38469">
        <ele>209.3</ele>
        <time>2019-06-30T07:17:56.000Z</time>
      </trkpt>
      <trkpt lat="43.18698" lon="2.38469">
        <ele>209.3</ele>
        <time>2019-06-30T07:17:57.000Z</time>
      </trkpt>
      <trkpt lat="43.18698" lon="2.38469">
        <ele>209.3</ele>
        <time>2019-06-30T07:17:58.000Z</time>
      </trkpt>
      <trkpt lat="43.18698" lon="2.38469">
        <ele>209.3</ele>
        <time>2019-06-30T07:17:59.000Z</time>
      </trkpt>
      <trkpt lat="43.18697" lon="2.38469">
        <ele>209.3</ele>
        <time>2019-06-30T07:18:00.000Z</time>
      </trkpt>
      <trkpt lat="43.18697" lon="2.38469">
        <ele>209.3</ele>
        <time>2019-06-30T07:18:01.000Z</time>
      </trkpt>
      <trkpt lat="43.18697" lon="2.38469">
        <ele>209.3</ele>
        <time>2019-06-30T07:18:02.000Z</time>
      </trkpt>
      <trkpt lat="43.18697" lon="2.38469">
        <ele>209.3</ele>
        <time>2019-06-30T07:18:03.000Z</time>
      </trkpt>
      <trkpt lat="43.18697" lon="2.38469">
        <ele>209.3</ele>
        <time>2019-06-30T07:18:04.000Z</time>
      </trkpt>
      <trkpt lat="43.18697" lon="2.38469">
        <ele>209.3</ele>
        <time>2019-06-30T07:18:05.000Z</time>
      </trkpt>
      <trkpt lat="43.18697" lon="2.38469">
        <ele>209.3</ele>
        <time>2019-06-30T07:18:06.000Z</time>
      </trkpt>
      <trkpt lat="43.18697" lon="2.38469">
        <ele>209.3</ele>
        <time>2019-06-30T07:18:07.000Z</time>
      </trkpt>
      <trkpt lat="43.18697" lon="2.38469">
        <ele>209.3</ele>
        <time>2019-06-30T07:18:08.000Z</time>
      </trkpt>
      <trkpt lat="43.18697" lon="2.38469">
        <ele>209.3</ele>
        <time>2019-06-30T07:18:09.000Z</time>
      </trkpt>
      <trkpt lat="43.18697" lon="2.38469">
        <ele>209.3</ele>
        <time>2019-06-30T07:18:10.000Z</time>
      </trkpt>
      <trkpt lat="43.18697" lon="2.38469">
        <ele>209.3</ele>
        <time>2019-06-30T07:18:11.000Z</time>
      </trkpt>
      <trkpt lat="43.18697" lon="2.38469">
        <ele>209.3</ele>
        <time>2019-06-30T07:18:12.000Z</time>
      </trkpt>
      <trkpt lat="43.18697" lon="2.38469">
        <ele>209.3</ele>
        <time>2019-06-30T07:18:13.000Z</time>
      </trkpt>
      <trkpt lat="43.18697" lon="2.38469">
        <ele>209.3</ele>
        <time>2019-06-30T07:18:14.000Z</time>
      </trkpt>
      <trkpt lat="43.18697" lon="2.38469">
        <ele>209.3</ele>
        <time>2019-06-30T07:18:15.000Z</time>
      </trkpt>
      <trkpt lat="43.18697" lon="2.38469">
        <ele>209.3</ele>
        <time>2019-06-30T07:18:16.000Z</time>
      </trkpt>
      <trkpt lat="43.18697" lon="2.38469">
        <ele>209.3</ele>
        <time>2019-06-30T07:18:17.000Z</time>
      </trkpt>
      <trkpt lat="43.18698" lon="2.38469">
        <ele>209.3</ele>
        <time>2019-06-30T07:18:18.000Z</time>
      </trkpt>
      <trkpt lat="43.18698" lon="2.38469">
        <ele>209.3</ele>
        <time>2019-06-30T07:18:19.000Z</time>
      </trkpt>
      <trkpt lat="43.18698" lon="2.38469">
        <ele>209.3</ele>
        <time>2019-06-30T07:18:20.000Z</time>
      </trkpt>
      <trkpt lat="43.18698" lon="2.38469">
        <ele>209.3</ele>
        <time>2019-06-30T07:18:21.000Z</time>
      </trkpt>
      <trkpt lat="43.18697" lon="2.38469">
        <ele>209.3</ele>
        <time>2019-06-30T07:18:22.000Z</time>
      </trkpt>
      <trkpt lat="43.18697" lon="2.38469">
        <ele>209.3</ele>
        <time>2019-06-30T07:18:23.000Z</time>
      </trkpt>
      <trkpt lat="43.18696" lon="2.38469">
        <ele>209.2</ele>
        <time>2019-06-30T07:18:24.000Z</time>
      </trkpt>
      <trkpt lat="43.18694" lon="2.38469">
        <ele>209.2</ele>
        <time>2019-06-30T07:18:25.000Z</time>
      </trkpt>
      <trkpt lat="43.18693" lon="2.38468">
        <ele>209.2</ele>
        <time>2019-06-30T07:18:26.000Z</time>
      </trkpt>
      <trkpt lat="43.18691" lon="2.38468">
        <ele>209.1</ele>
        <time>2019-06-30T07:18:27.000Z</time>
      </trkpt>
      <trkpt lat="43.1869" lon="2.38467">
        <ele>209.1</ele>
        <time>2019-06-30T07:18:28.000Z</time>
      </trkpt>
      <trkpt lat="43.18688" lon="2.38466">
        <ele>209</ele>
        <time>2019-06-30T07:18:29.000Z</time>
      </trkpt>
      <trkpt lat="43.18685" lon="2.38465">
        <ele>208.9</ele>
        <time>2019-06-30T07:18:30.000Z</time>
      </trkpt>
      <trkpt lat="43.18683" lon="2.38463">
        <ele>208.9</ele>
        <time>2019-06-30T07:18:31.000Z</time>
      </trkpt>
      <trkpt lat="43.18681" lon="2.38461">
        <ele>208.8</ele>
        <time>2019-06-30T07:18:32.000Z</time>
      </trkpt>
      <trkpt lat="43.18679" lon="2.38459">
        <ele>208.8</ele>
        <time>2019-06-30T07:18:33.000Z</time>
      </trkpt>
      <trkpt lat="43.18677" lon="2.38456">
        <ele>208.8</ele>
        <time>2019-06-30T07:18:34.000Z</time>
      </trkpt>
      <trkpt lat="43.18676" lon="2.38454">
        <ele>208.7</ele>
        <time>2019-06-30T07:18:35.000Z</time>
      </trkpt>
      <trkpt lat="43.18675" lon="2.38453">
        <ele>208.7</ele>
        <time>2019-06-30T07:18:36.000Z</time>
      </trkpt>
      <trkpt lat="43.18674" lon="2.38451">
        <ele>208.7</ele>
        <time>2019-06-30T07:18:37.000Z</time>
      </trkpt>
      <trkpt lat="43.18673" lon="2.38449">
        <ele>208.7</ele>
        <time>2019-06-30T07:18:38.000Z</time>
      </trkpt>
      <trkpt lat="43.18671" lon="2.38447">
        <ele>208.7</ele>
        <time>2019-06-30T07:18:39.000Z</time>
      </trkpt>
      <trkpt lat="43.1867" lon="2.38446">
        <ele>208.7</ele>
        <time>2019-06-30T07:18:40.000Z</time>
      </trkpt>
      <trkpt lat="43.18669" lon="2.38444">
        <ele>208.7</ele>
        <time>2019-06-30T07:18:41.000Z</time>
      </trkpt>
      <trkpt lat="43.18668" lon="2.38442">
        <ele>208.7</ele>
        <time>2019-06-30T07:18:42.000Z</time>
      </trkpt>
      <trkpt lat="43.18667" lon="2.3844">
        <ele>208.7</ele>
        <time>2019-06-30T07:18:43.000Z</time>
      </trkpt>
      <trkpt lat="43.18666" lon="2.38438">
        <ele>208.6</ele>
        <time>2019-06-30T07:18:44.000Z</time>
      </trkpt>
      <trkpt lat="43.18664" lon="2.38436">
        <ele>208.5</ele>
        <time>2019-06-30T07:18:45.000Z</time>
      </trkpt>
      <trkpt lat="43.18663" lon="2.38434">
        <ele>208.4</ele>
        <time>2019-06-30T07:18:46.000Z</time>
      </trkpt>
      <trkpt lat="43.18662" lon="2.38432">
        <ele>208.2</ele>
        <time>2019-06-30T07:18:47.000Z</time>
      </trkpt>
      <trkpt lat="43.1866" lon="2.3843">
        <ele>208.2</ele>
        <time>2019-06-30T07:18:48.000Z</time>
      </trkpt>
      <trkpt lat="43.18659" lon="2.38427">
        <ele>208.1</ele>
        <time>2019-06-30T07:18:49.000Z</time>
      </trkpt>
      <trkpt lat="43.18659" lon="2.38424">
        <ele>208</ele>
        <time>2019-06-30T07:18:50.000Z</time>
      </trkpt>
      <trkpt lat="43.18658" lon="2.38421">
        <ele>208</ele>
        <time>2019-06-30T07:18:51.000Z</time>
      </trkpt>
      <trkpt lat="43.18658" lon="2.38418">
        <ele>208</ele>
        <time>2019-06-30T07:18:52.000Z</time>
      </trkpt>
      <trkpt lat="43.18658" lon="2.38415">
        <ele>208</ele>
        <time>2019-06-30T07:18:53.000Z</time>
      </trkpt>
      <trkpt lat="43.18659" lon="2.38411">
        <ele>207.9</ele>
        <time>2019-06-30T07:18:54.000Z</time>
      </trkpt>
      <trkpt lat="43.1866" lon="2.38408">
        <ele>207.9</ele>
        <time>2019-06-30T07:18:55.000Z</time>
      </trkpt>
      <trkpt lat="43.18661" lon="2.38406">
        <ele>207.9</ele>
        <time>2019-06-30T07:18:56.000Z</time>
      </trkpt>
      <trkpt lat="43.18663" lon="2.38404">
        <ele>208</ele>
        <time>2019-06-30T07:18:57.000Z</time>
      </trkpt>
      <trkpt lat="43.18665" lon="2.38403">
        <ele>208.2</ele>
        <time>2019-06-30T07:18:58.000Z</time>
      </trkpt>
      <trkpt lat="43.18667" lon="2.38402">
        <ele>208.3</ele>
        <time>2019-06-30T07:18:59.000Z</time>
      </trkpt>
      <trkpt lat="43.18669" lon="2.38401">
        <ele>208.2</ele>
        <time>2019-06-30T07:19:00.000Z</time>
      </trkpt>
      <trkpt lat="43.18672" lon="2.384">
        <ele>208.2</ele>
        <time>2019-06-30T07:19:01.000Z</time>
      </trkpt>
      <trkpt lat="43.18674" lon="2.38399">
        <ele>208.1</ele>
        <time>2019-06-30T07:19:02.000Z</time>
      </trkpt>
      <trkpt lat="43.18676" lon="2.38397">
        <ele>208.1</ele>
        <time>2019-06-30T07:19:03.000Z</time>
      </trkpt>
      <trkpt lat="43.18678" lon="2.38396">
        <ele>208.1</ele>
        <time>2019-06-30T07:19:04.000Z</time>
      </trkpt>
      <trkpt lat="43.1868" lon="2.38395">
        <ele>208</ele>
        <time>2019-06-30T07:19:05.000Z</time>
      </trkpt>
      <trkpt lat="43.18682" lon="2.38394">
        <ele>208</ele>
        <time>2019-06-30T07:19:06.000Z</time>
      </trkpt>
      <trkpt lat="43.18684" lon="2.38393">
        <ele>207.9</ele>
        <time>2019-06-30T07:19:07.000Z</time>
      </trkpt>
      <trkpt lat="43.18686" lon="2.38392">
        <ele>207.9</ele>
        <time>2019-06-30T07:19:08.000Z</time>
      </trkpt>
      <trkpt lat="43.18688" lon="2.38391">
        <ele>207.8</ele>
        <time>2019-06-30T07:19:09.000Z</time>
      </trkpt>
      <trkpt lat="43.1869" lon="2.38389">
        <ele>207.8</ele>
        <time>2019-06-30T07:19:10.000Z</time>
      </trkpt>
      <trkpt lat="43.18692" lon="2.38388">
        <ele>207.7</ele>
        <time>2019-06-30T07:19:11.000Z</time>
      </trkpt>
      <trkpt lat="43.18694" lon="2.38387">
        <ele>207.7</ele>
        <time>2019-06-30T07:19:12.000Z</time>
      </trkpt>
      <trkpt lat="43.18696" lon="2.38386">
        <ele>207.7</ele>
        <time>2019-06-30T07:19:13.000Z</time>
      </trkpt>
      <trkpt lat="43.18699" lon="2.38385">
        <ele>207.6</ele>
        <time>2019-06-30T07:19:14.000Z</time>
      </trkpt>
      <trkpt lat="43.18701" lon="2.38383">
        <ele>207.6</ele>
        <time>2019-06-30T07:19:15.000Z</time>
      </trkpt>
      <trkpt lat="43.18703" lon="2.38382">
        <ele>207.5</ele>
        <time>2019-06-30T07:19:16.000Z</time>
      </trkpt>
      <trkpt lat="43.18704" lon="2.38381">
        <ele>207.5</ele>
        <time>2019-06-30T07:19:17.000Z</time>
      </trkpt>
      <trkpt lat="43.18706" lon="2.3838">
        <ele>207.4</ele>
        <time>2019-06-30T07:19:18.000Z</time>
      </trkpt>
      <trkpt lat="43.18708" lon="2.38378">
        <ele>207.4</ele>
        <time>2019-06-30T07:19:19.000Z</time>
      </trkpt>
      <trkpt lat="43.1871" lon="2.38376">
        <ele>207.3</ele>
        <time>2019-06-30T07:19:20.000Z</time>
      </trkpt>
      <trkpt lat="43.18711" lon="2.38374">
        <ele>207.2</ele>
        <time>2019-06-30T07:19:21.000Z</time>
      </trkpt>
      <trkpt lat="43.18713" lon="2.38372">
        <ele>207.2</ele>
        <time>2019-06-30T07:19:22.000Z</time>
      </trkpt>
      <trkpt lat="43.18714" lon="2.3837">
        <ele>207.1</ele>
        <time>2019-06-30T07:19:23.000Z</time>
      </trkpt>
      <trkpt lat="43.18715" lon="2.38368">
        <ele>207</ele>
        <time>2019-06-30T07:19:24.000Z</time>
      </trkpt>
      <trkpt lat="43.18716" lon="2.38365">
        <ele>206.9</ele>
        <time>2019-06-30T07:19:25.000Z</time>
      </trkpt>
      <trkpt lat="43.18717" lon="2.38363">
        <ele>206.8</ele>
        <time>2019-06-30T07:19:26.000Z</time>
      </trkpt>
      <trkpt lat="43.18718" lon="2.3836">
        <ele>206.7</ele>
        <time>2019-06-30T07:19:27.000Z</time>
      </trkpt>
      <trkpt lat="43.18719" lon="2.38357">
        <ele>206.6</ele>
        <time>2019-06-30T07:19:28.000Z</time>
      </trkpt>
      <trkpt lat="43.18719" lon="2.38355">
        <ele>206.5</ele>
        <time>2019-06-30T07:19:29.000Z</time>
      </trkpt>
      <trkpt lat="43.1872" lon="2.38352">
        <ele>206.4</ele>
        <time>2019-06-30T07:19:30.000Z</time>
      </trkpt>
      <trkpt lat="43.1872" lon="2.38349">
        <ele>206.3</ele>
        <time>2019-06-30T07:19:31.000Z</time>
      </trkpt>
      <trkpt lat="43.18721" lon="2.38346">
        <ele>206.1</ele>
        <time>2019-06-30T07:19:32.000Z</time>
      </trkpt>
      <trkpt lat="43.18721" lon="2.38343">
        <ele>206</ele>
        <time>2019-06-30T07:19:33.000Z</time>
      </trkpt>
      <trkpt lat="43.18721" lon="2.3834">
        <ele>205.9</ele>
        <time>2019-06-30T07:19:34.000Z</time>
      </trkpt>
      <trkpt lat="43.18721" lon="2.38337">
        <ele>205.8</ele>
        <time>2019-06-30T07:19:35.000Z</time>
      </trkpt>
      <trkpt lat="43.18721" lon="2.38334">
        <ele>205.7</ele>
        <time>2019-06-30T07:19:36.000Z</time>
      </trkpt>
      <trkpt lat="43.18722" lon="2.3833">
        <ele>205.5</ele>
        <time>2019-06-30T07:19:37.000Z</time>
      </trkpt>
      <trkpt lat="43.18722" lon="2.38327">
        <ele>205.3</ele>
        <time>2019-06-30T07:19:38.000Z</time>
      </trkpt>
      <trkpt lat="43.18722" lon="2.38324">
        <ele>205.2</ele>
        <time>2019-06-30T07:19:39.000Z</time>
      </trkpt>
      <trkpt lat="43.18722" lon="2.38321">
        <ele>205</ele>
        <time>2019-06-30T07:19:40.000Z</time>
      </trkpt>
      <trkpt lat="43.18723" lon="2.38318">
        <ele>204.8</ele>
        <time>2019-06-30T07:19:41.000Z</time>
      </trkpt>
      <trkpt lat="43.18723" lon="2.38315">
        <ele>204.7</ele>
        <time>2019-06-30T07:19:42.000Z</time>
      </trkpt>
      <trkpt lat="43.18724" lon="2.38312">
        <ele>204.5</ele>
        <time>2019-06-30T07:19:43.000Z</time>
      </trkpt>
      <trkpt lat="43.18725" lon="2.38309">
        <ele>204.3</ele>
        <time>2019-06-30T07:19:44.000Z</time>
      </trkpt>
      <trkpt lat="43.18725" lon="2.38307">
        <ele>204.2</ele>
        <time>2019-06-30T07:19:45.000Z</time>
      </trkpt>
      <trkpt lat="43.18726" lon="2.38304">
        <ele>204</ele>
        <time>2019-06-30T07:19:46.000Z</time>
      </trkpt>
      <trkpt lat="43.18727" lon="2.38301">
        <ele>203.9</ele>
        <time>2019-06-30T07:19:47.000Z</time>
      </trkpt>
      <trkpt lat="43.18728" lon="2.38298">
        <ele>203.7</ele>
        <time>2019-06-30T07:19:48.000Z</time>
      </trkpt>
      <trkpt lat="43.18729" lon="2.38295">
        <ele>203.6</ele>
        <time>2019-06-30T07:19:49.000Z</time>
      </trkpt>
      <trkpt lat="43.1873" lon="2.38293">
        <ele>203.4</ele>
        <time>2019-06-30T07:19:50.000Z</time>
      </trkpt>
      <trkpt lat="43.18731" lon="2.3829">
        <ele>203.3</ele>
        <time>2019-06-30T07:19:51.000Z</time>
      </trkpt>
      <trkpt lat="43.18732" lon="2.38287">
        <ele>203.1</ele>
        <time>2019-06-30T07:19:52.000Z</time>
      </trkpt>
      <trkpt lat="43.18733" lon="2.38285">
        <ele>203</ele>
        <time>2019-06-30T07:19:53.000Z</time>
      </trkpt>
      <trkpt lat="43.18734" lon="2.38282">
        <ele>202.9</ele>
        <time>2019-06-30T07:19:54.000Z</time>
      </trkpt>
      <trkpt lat="43.18736" lon="2.3828">
        <ele>202.7</ele>
        <time>2019-06-30T07:19:55.000Z</time>
      </trkpt>
      <trkpt lat="43.18737" lon="2.38277">
        <ele>202.6</ele>
        <time>2019-06-30T07:19:56.000Z</time>
      </trkpt>
      <trkpt lat="43.18738" lon="2.38274">
        <ele>202.4</ele>
        <time>2019-06-30T07:19:57.000Z</time>
      </trkpt>
      <trkpt lat="43.18739" lon="2.38272">
        <ele>202.3</ele>
        <time>2019-06-30T07:19:58.000Z</time>
      </trkpt>
      <trkpt lat="43.1874" lon="2.38269">
        <ele>202.1</ele>
        <time>2019-06-30T07:19:59.000Z</time>
      </trkpt>
      <trkpt lat="43.18742" lon="2.38267">
        <ele>202</ele>
        <time>2019-06-30T07:20:00.000Z</time>
      </trkpt>
      <trkpt lat="43.18743" lon="2.38264">
        <ele>201.8</ele>
        <time>2019-06-30T07:20:01.000Z</time>
      </trkpt>
      <trkpt lat="43.18744" lon="2.38261">
        <ele>201.7</ele>
        <time>2019-06-30T07:20:02.000Z</time>
      </trkpt>
      <trkpt lat="43.18745" lon="2.38259">
        <ele>201.5</ele>
        <time>2019-06-30T07:20:03.000Z</time>
      </trkpt>
      <trkpt lat="43.18746" lon="2.38256">
        <ele>201.3</ele>
        <time>2019-06-30T07:20:04.000Z</time>
      </trkpt>
      <trkpt lat="43.18748" lon="2.38253">
        <ele>201.2</ele>
        <time>2019-06-30T07:20:05.000Z</time>
      </trkpt>
      <trkpt lat="43.18749" lon="2.3825">
        <ele>201</ele>
        <time>2019-06-30T07:20:06.000Z</time>
      </trkpt>
      <trkpt lat="43.1875" lon="2.38246">
        <ele>200.8</ele>
        <time>2019-06-30T07:20:07.000Z</time>
      </trkpt>
      <trkpt lat="43.18751" lon="2.38243">
        <ele>200.6</ele>
        <time>2019-06-30T07:20:08.000Z</time>
      </trkpt>
      <trkpt lat="43.18752" lon="2.38239">
        <ele>200.4</ele>
        <time>2019-06-30T07:20:09.000Z</time>
      </trkpt>
      <trkpt lat="43.18753" lon="2.38236">
        <ele>200.2</ele>
        <time>2019-06-30T07:20:10.000Z</time>
      </trkpt>
      <trkpt lat="43.18754" lon="2.38232">
        <ele>199.9</ele>
        <time>2019-06-30T07:20:11.000Z</time>
      </trkpt>
      <trkpt lat="43.18755" lon="2.38228">
        <ele>199.7</ele>
        <time>2019-06-30T07:20:12.000Z</time>
      </trkpt>
      <trkpt lat="43.18756" lon="2.38223">
        <ele>199.5</ele>
        <time>2019-06-30T07:20:13.000Z</time>
      </trkpt>
      <trkpt lat="43.18757" lon="2.38219">
        <ele>199.2</ele>
        <time>2019-06-30T07:20:14.000Z</time>
      </trkpt>
      <trkpt lat="43.18758" lon="2.38215">
        <ele>199</ele>
        <time>2019-06-30T07:20:15.000Z</time>
      </trkpt>
      <trkpt lat="43.18759" lon="2.38211">
        <ele>198.7</ele>
        <time>2019-06-30T07:20:16.000Z</time>
      </trkpt>
      <trkpt lat="43.18759" lon="2.38206">
        <ele>198.5</ele>
        <time>2019-06-30T07:20:17.000Z</time>
      </trkpt>
      <trkpt lat="43.1876" lon="2.38202">
        <ele>198.3</ele>
        <time>2019-06-30T07:20:18.000Z</time>
      </trkpt>
      <trkpt lat="43.18761" lon="2.38198">
        <ele>198</ele>
        <time>2019-06-30T07:20:19.000Z</time>
      </trkpt>
      <trkpt lat="43.18761" lon="2.38194">
        <ele>197.8</ele>
        <time>2019-06-30T07:20:20.000Z</time>
      </trkpt>
      <trkpt lat="43.18762" lon="2.38191">
        <ele>197.6</ele>
        <time>2019-06-30T07:20:21.000Z</time>
      </trkpt>
      <trkpt lat="43.18763" lon="2.38187">
        <ele>197.4</ele>
        <time>2019-06-30T07:20:22.000Z</time>
      </trkpt>
      <trkpt lat="43.18763" lon="2.38183">
        <ele>197.2</ele>
        <time>2019-06-30T07:20:23.000Z</time>
      </trkpt>
      <trkpt lat="43.18764" lon="2.3818">
        <ele>197</ele>
        <time>2019-06-30T07:20:24.000Z</time>
      </trkpt>
      <trkpt lat="43.18765" lon="2.38176">
        <ele>196.8</ele>
        <time>2019-06-30T07:20:25.000Z</time>
      </trkpt>
      <trkpt lat="43.18765" lon="2.38173">
        <ele>196.6</ele>
        <time>2019-06-30T07:20:26.000Z</time>
      </trkpt>
      <trkpt lat="43.18766" lon="2.3817">
        <ele>196.4</ele>
        <time>2019-06-30T07:20:27.000Z</time>
      </trkpt>
      <trkpt lat="43.18766" lon="2.38167">
        <ele>196.2</ele>
        <time>2019-06-30T07:20:28.000Z</time>
      </trkpt>
      <trkpt lat="43.18767" lon="2.38164">
        <ele>196.1</ele>
        <time>2019-06-30T07:20:29.000Z</time>
      </trkpt>
      <trkpt lat="43.18767" lon="2.38161">
        <ele>196.1</ele>
        <time>2019-06-30T07:20:30.000Z</time>
      </trkpt>
      <trkpt lat="43.18767" lon="2.38158">
        <ele>196</ele>
        <time>2019-06-30T07:20:31.000Z</time>
      </trkpt>
      <trkpt lat="43.18766" lon="2.38155">
        <ele>195.9</ele>
        <time>2019-06-30T07:20:32.000Z</time>
      </trkpt>
      <trkpt lat="43.18766" lon="2.38152">
        <ele>195.8</ele>
        <time>2019-06-30T07:20:33.000Z</time>
      </trkpt>
      <trkpt lat="43.18765" lon="2.38148">
        <ele>195.8</ele>
        <time>2019-06-30T07:20:34.000Z</time>
      </trkpt>
      <trkpt lat="43.18764" lon="2.38145">
        <ele>195.7</ele>
        <time>2019-06-30T07:20:35.000Z</time>
      </trkpt>
      <trkpt lat="43.18763" lon="2.38142">
        <ele>195.6</ele>
        <time>2019-06-30T07:20:36.000Z</time>
      </trkpt>
      <trkpt lat="43.18762" lon="2.38139">
        <ele>195.6</ele>
        <time>2019-06-30T07:20:37.000Z</time>
      </trkpt>
      <trkpt lat="43.18761" lon="2.38136">
        <ele>195.5</ele>
        <time>2019-06-30T07:20:38.000Z</time>
      </trkpt>
      <trkpt lat="43.1876" lon="2.38132">
        <ele>195.5</ele>
        <time>2019-06-30T07:20:39.000Z</time>
      </trkpt>
      <trkpt lat="43.1876" lon="2.38129">
        <ele>195.4</ele>
        <time>2019-06-30T07:20:40.000Z</time>
      </trkpt>
      <trkpt lat="43.18759" lon="2.38125">
        <ele>195.3</ele>
        <time>2019-06-30T07:20:41.000Z</time>
      </trkpt>
      <trkpt lat="43.18759" lon="2.38122">
        <ele>195.3</ele>
        <time>2019-06-30T07:20:42.000Z</time>
      </trkpt>
      <trkpt lat="43.18759" lon="2.38119">
        <ele>195.2</ele>
        <time>2019-06-30T07:20:43.000Z</time>
      </trkpt>
      <trkpt lat="43.18759" lon="2.38115">
        <ele>195.2</ele>
        <time>2019-06-30T07:20:44.000Z</time>
      </trkpt>
      <trkpt lat="43.18759" lon="2.38112">
        <ele>195.1</ele>
        <time>2019-06-30T07:20:45.000Z</time>
      </trkpt>
      <trkpt lat="43.18759" lon="2.38109">
        <ele>195</ele>
        <time>2019-06-30T07:20:46.000Z</time>
      </trkpt>
      <trkpt lat="43.1876" lon="2.38105">
        <ele>195</ele>
        <time>2019-06-30T07:20:47.000Z</time>
      </trkpt>
      <trkpt lat="43.18761" lon="2.38102">
        <ele>194.9</ele>
        <time>2019-06-30T07:20:48.000Z</time>
      </trkpt>
      <trkpt lat="43.18762" lon="2.38099">
        <ele>194.8</ele>
        <time>2019-06-30T07:20:49.000Z</time>
      </trkpt>
      <trkpt lat="43.18763" lon="2.38096">
        <ele>194.7</ele>
        <time>2019-06-30T07:20:50.000Z</time>
      </trkpt>
      <trkpt lat="43.18764" lon="2.38093">
        <ele>194.6</ele>
        <time>2019-06-30T07:20:51.000Z</time>
      </trkpt>
      <trkpt lat="43.18764" lon="2.3809">
        <ele>194.5</ele>
        <time>2019-06-30T07:20:52.000Z</time>
      </trkpt>
      <trkpt lat="43.18765" lon="2.38087">
        <ele>194.4</ele>
        <time>2019-06-30T07:20:53.000Z</time>
      </trkpt>
      <trkpt lat="43.18766" lon="2.38084">
        <ele>194.3</ele>
        <time>2019-06-30T07:20:54.000Z</time>
      </trkpt>
      <trkpt lat="43.18767" lon="2.38081">
        <ele>194</ele>
        <time>2019-06-30T07:20:55.000Z</time>
      </trkpt>
      <trkpt lat="43.18767" lon="2.38077">
        <ele>193.7</ele>
        <time>2019-06-30T07:20:56.000Z</time>
      </trkpt>
      <trkpt lat="43.18767" lon="2.38074">
        <ele>193.4</ele>
        <time>2019-06-30T07:20:57.000Z</time>
      </trkpt>
      <trkpt lat="43.18767" lon="2.38071">
        <ele>193.1</ele>
        <time>2019-06-30T07:20:58.000Z</time>
      </trkpt>
      <trkpt lat="43.18768" lon="2.38067">
        <ele>192.8</ele>
        <time>2019-06-30T07:20:59.000Z</time>
      </trkpt>
      <trkpt lat="43.18768" lon="2.38064">
        <ele>192.5</ele>
        <time>2019-06-30T07:21:00.000Z</time>
      </trkpt>
      <trkpt lat="43.18768" lon="2.38061">
        <ele>192.2</ele>
        <time>2019-06-30T07:21:01.000Z</time>
      </trkpt>
      <trkpt lat="43.18768" lon="2.38058">
        <ele>191.9</ele>
        <time>2019-06-30T07:21:02.000Z</time>
      </trkpt>
      <trkpt lat="43.18768" lon="2.38055">
        <ele>191.7</ele>
        <time>2019-06-30T07:21:03.000Z</time>
      </trkpt>
      <trkpt lat="43.18768" lon="2.38052">
        <ele>191.4</ele>
        <time>2019-06-30T07:21:04.000Z</time>
      </trkpt>
      <trkpt lat="43.18768" lon="2.38048">
        <ele>191.1</ele>
        <time>2019-06-30T07:21:05.000Z</time>
      </trkpt>
      <trkpt lat="43.18768" lon="2.38045">
        <ele>190.8</ele>
        <time>2019-06-30T07:21:06.000Z</time>
      </trkpt>
      <trkpt lat="43.18769" lon="2.38042">
        <ele>190.5</ele>
        <time>2019-06-30T07:21:07.000Z</time>
      </trkpt>
      <trkpt lat="43.18769" lon="2.38039">
        <ele>190.2</ele>
        <time>2019-06-30T07:21:08.000Z</time>
      </trkpt>
      <trkpt lat="43.1877" lon="2.38036">
        <ele>189.9</ele>
        <time>2019-06-30T07:21:09.000Z</time>
      </trkpt>
      <trkpt lat="43.18771" lon="2.38032">
        <ele>189.6</ele>
        <time>2019-06-30T07:21:10.000Z</time>
      </trkpt>
      <trkpt lat="43.18772" lon="2.38029">
        <ele>189.2</ele>
        <time>2019-06-30T07:21:11.000Z</time>
      </trkpt>
      <trkpt lat="43.18773" lon="2.38026">
        <ele>188.9</ele>
        <time>2019-06-30T07:21:12.000Z</time>
      </trkpt>
      <trkpt lat="43.18774" lon="2.38023">
        <ele>188.5</ele>
        <time>2019-06-30T07:21:13.000Z</time>
      </trkpt>
      <trkpt lat="43.18775" lon="2.38019">
        <ele>188.2</ele>
        <time>2019-06-30T07:21:14.000Z</time>
      </trkpt>
      <trkpt lat="43.18776" lon="2.38016">
        <ele>187.9</ele>
        <time>2019-06-30T07:21:15.000Z</time>
      </trkpt>
      <trkpt lat="43.18778" lon="2.38013">
        <ele>187.5</ele>
        <time>2019-06-30T07:21:16.000Z</time>
      </trkpt>
      <trkpt lat="43.18779" lon="2.38011">
        <ele>187.2</ele>
        <time>2019-06-30T07:21:17.000Z</time>
      </trkpt>
      <trkpt lat="43.18781" lon="2.38008">
        <ele>186.8</ele>
        <time>2019-06-30T07:21:18.000Z</time>
      </trkpt>
      <trkpt lat="43.18783" lon="2.38006">
        <ele>186.5</ele>
        <time>2019-06-30T07:21:19.000Z</time>
      </trkpt>
      <trkpt lat="43.18785" lon="2.38003">
        <ele>186.2</ele>
        <time>2019-06-30T07:21:20.000Z</time>
      </trkpt>
      <trkpt lat="43.18787" lon="2.38002">
        <ele>185.9</ele>
        <time>2019-06-30T07:21:21.000Z</time>
      </trkpt>
      <trkpt lat="43.18789" lon="2.38">
        <ele>185.7</ele>
        <time>2019-06-30T07:21:22.000Z</time>
      </trkpt>
      <trkpt lat="43.18791" lon="2.37999">
        <ele>185.5</ele>
        <time>2019-06-30T07:21:23.000Z</time>
      </trkpt>
      <trkpt lat="43.18793" lon="2.37997">
        <ele>185.3</ele>
        <time>2019-06-30T07:21:24.000Z</time>
      </trkpt>
      <trkpt lat="43.18795" lon="2.37996">
        <ele>185.1</ele>
        <time>2019-06-30T07:21:25.000Z</time>
      </trkpt>
      <trkpt lat="43.18797" lon="2.37996">
        <ele>184.9</ele>
        <time>2019-06-30T07:21:26.000Z</time>
      </trkpt>
      <trkpt lat="43.188" lon="2.37995">
        <ele>184.7</ele>
        <time>2019-06-30T07:21:27.000Z</time>
      </trkpt>
      <trkpt lat="43.18802" lon="2.37994">
        <ele>184.5</ele>
        <time>2019-06-30T07:21:28.000Z</time>
      </trkpt>
      <trkpt lat="43.18804" lon="2.37994">
        <ele>184.4</ele>
        <time>2019-06-30T07:21:29.000Z</time>
      </trkpt>
      <trkpt lat="43.18807" lon="2.37994">
        <ele>184.2</ele>
        <time>2019-06-30T07:21:30.000Z</time>
      </trkpt>
      <trkpt lat="43.18809" lon="2.37993">
        <ele>184</ele>
        <time>2019-06-30T07:21:31.000Z</time>
      </trkpt>
      <trkpt lat="43.18812" lon="2.37993">
        <ele>183.9</ele>
        <time>2019-06-30T07:21:32.000Z</time>
      </trkpt>
      <trkpt lat="43.18815" lon="2.37992">
        <ele>183.7</ele>
        <time>2019-06-30T07:21:33.000Z</time>
      </trkpt>
      <trkpt lat="43.18817" lon="2.37992">
        <ele>183.5</ele>
        <time>2019-06-30T07:21:34.000Z</time>
      </trkpt>
      <trkpt lat="43.1882" lon="2.37991">
        <ele>183.3</ele>
        <time>2019-06-30T07:21:35.000Z</time>
      </trkpt>
      <trkpt lat="43.18823" lon="2.37991">
        <ele>183.2</ele>
        <time>2019-06-30T07:21:36.000Z</time>
      </trkpt>
      <trkpt lat="43.18825" lon="2.3799">
        <ele>183</ele>
        <time>2019-06-30T07:21:37.000Z</time>
      </trkpt>
      <trkpt lat="43.18828" lon="2.3799">
        <ele>182.8</ele>
        <time>2019-06-30T07:21:38.000Z</time>
      </trkpt>
      <trkpt lat="43.1883" lon="2.37989">
        <ele>182.7</ele>
        <time>2019-06-30T07:21:39.000Z</time>
      </trkpt>
      <trkpt lat="43.18833" lon="2.37989">
        <ele>182.5</ele>
        <time>2019-06-30T07:21:40.000Z</time>
      </trkpt>
      <trkpt lat="43.18835" lon="2.3799">
        <ele>182.6</ele>
        <time>2019-06-30T07:21:41.000Z</time>
      </trkpt>
      <trkpt lat="43.18837" lon="2.37991">
        <ele>182.8</ele>
        <time>2019-06-30T07:21:42.000Z</time>
      </trkpt>
      <trkpt lat="43.18838" lon="2.37992">
        <ele>182.9</ele>
        <time>2019-06-30T07:21:43.000Z</time>
      </trkpt>
      <trkpt lat="43.18839" lon="2.37994">
        <ele>183.1</ele>
        <time>2019-06-30T07:21:44.000Z</time>
      </trkpt>
      <trkpt lat="43.1884" lon="2.37996">
        <ele>183.3</ele>
        <time>2019-06-30T07:21:45.000Z</time>
      </trkpt>
      <trkpt lat="43.18841" lon="2.37999">
        <ele>183.4</ele>
        <time>2019-06-30T07:21:46.000Z</time>
      </trkpt>
      <trkpt lat="43.18842" lon="2.38001">
        <ele>183.7</ele>
        <time>2019-06-30T07:21:47.000Z</time>
      </trkpt>
      <trkpt lat="43.18843" lon="2.38003">
        <ele>183.9</ele>
        <time>2019-06-30T07:21:48.000Z</time>
      </trkpt>
      <trkpt lat="43.18845" lon="2.38005">
        <ele>184.2</ele>
        <time>2019-06-30T07:21:49.000Z</time>
      </trkpt>
      <trkpt lat="43.18846" lon="2.38007">
        <ele>184.4</ele>
        <time>2019-06-30T07:21:50.000Z</time>
      </trkpt>
      <trkpt lat="43.18847" lon="2.38008">
        <ele>184.6</ele>
        <time>2019-06-30T07:21:51.000Z</time>
      </trkpt>
      <trkpt lat="43.18849" lon="2.38009">
        <ele>184.8</ele>
        <time>2019-06-30T07:21:52.000Z</time>
      </trkpt>
      <trkpt lat="43.18851" lon="2.3801">
        <ele>185</ele>
        <time>2019-06-30T07:21:53.000Z</time>
      </trkpt>
      <trkpt lat="43.18853" lon="2.38011">
        <ele>185.2</ele>
        <time>2019-06-30T07:21:54.000Z</time>
      </trkpt>
      <trkpt lat="43.18855" lon="2.38011">
        <ele>185.4</ele>
        <time>2019-06-30T07:21:55.000Z</time>
      </trkpt>
      <trkpt lat="43.18857" lon="2.38012">
        <ele>185.6</ele>
        <time>2019-06-30T07:21:56.000Z</time>
      </trkpt>
      <trkpt lat="43.18859" lon="2.38014">
        <ele>185.8</ele>
        <time>2019-06-30T07:21:57.000Z</time>
      </trkpt>
      <trkpt lat="43.18861" lon="2.38015">
        <ele>186.1</ele>
        <time>2019-06-30T07:21:58.000Z</time>
      </trkpt>
      <trkpt lat="43.18863" lon="2.38017">
        <ele>186.4</ele>
        <time>2019-06-30T07:21:59.000Z</time>
      </trkpt>
      <trkpt lat="43.18865" lon="2.38019">
        <ele>186.7</ele>
        <time>2019-06-30T07:22:00.000Z</time>
      </trkpt>
      <trkpt lat="43.18867" lon="2.38021">
        <ele>187</ele>
        <time>2019-06-30T07:22:01.000Z</time>
      </trkpt>
      <trkpt lat="43.18869" lon="2.38023">
        <ele>187.3</ele>
        <time>2019-06-30T07:22:02.000Z</time>
      </trkpt>
      <trkpt lat="43.18871" lon="2.38024">
        <ele>187.6</ele>
        <time>2019-06-30T07:22:03.000Z</time>
      </trkpt>
      <trkpt lat="43.18872" lon="2.38026">
        <ele>187.9</ele>
        <time>2019-06-30T07:22:04.000Z</time>
      </trkpt>
      <trkpt lat="43.18874" lon="2.38028">
        <ele>188.1</ele>
        <time>2019-06-30T07:22:05.000Z</time>
      </trkpt>
      <trkpt lat="43.18875" lon="2.3803">
        <ele>188.4</ele>
        <time>2019-06-30T07:22:06.000Z</time>
      </trkpt>
      <trkpt lat="43.18877" lon="2.38032">
        <ele>188.7</ele>
        <time>2019-06-30T07:22:07.000Z</time>
      </trkpt>
      <trkpt lat="43.18878" lon="2.38034">
        <ele>188.9</ele>
        <time>2019-06-30T07:22:08.000Z</time>
      </trkpt>
      <trkpt lat="43.18879" lon="2.38036">
        <ele>189.1</ele>
        <time>2019-06-30T07:22:09.000Z</time>
      </trkpt>
      <trkpt lat="43.1888" lon="2.38038">
        <ele>189.4</ele>
        <time>2019-06-30T07:22:10.000Z</time>
      </trkpt>
      <trkpt lat="43.18881" lon="2.3804">
        <ele>189.6</ele>
        <time>2019-06-30T07:22:11.000Z</time>
      </trkpt>
      <trkpt lat="43.18882" lon="2.38041">
        <ele>189.9</ele>
        <time>2019-06-30T07:22:12.000Z</time>
      </trkpt>
      <trkpt lat="43.18883" lon="2.38043">
        <ele>190.1</ele>
        <time>2019-06-30T07:22:13.000Z</time>
      </trkpt>
      <trkpt lat="43.18884" lon="2.38045">
        <ele>190.4</ele>
        <time>2019-06-30T07:22:14.000Z</time>
      </trkpt>
      <trkpt lat="43.18885" lon="2.38047">
        <ele>190.6</ele>
        <time>2019-06-30T07:22:15.000Z</time>
      </trkpt>
      <trkpt lat="43.18887" lon="2.38049">
        <ele>190.9</ele>
        <time>2019-06-30T07:22:16.000Z</time>
      </trkpt>
      <trkpt lat="43.18888" lon="2.38051">
        <ele>191.2</ele>
        <time>2019-06-30T07:22:17.000Z</time>
      </trkpt>
      <trkpt lat="43.1889" lon="2.38053">
        <ele>191.4</ele>
        <time>2019-06-30T07:22:18.000Z</time>
      </trkpt>
      <trkpt lat="43.18892" lon="2.38054">
        <ele>191.7</ele>
        <time>2019-06-30T07:22:19.000Z</time>
      </trkpt>
      <trkpt lat="43.18893" lon="2.38056">
        <ele>192</ele>
        <time>2019-06-30T07:22:20.000Z</time>
      </trkpt>
      <trkpt lat="43.18895" lon="2.38058">
        <ele>192.2</ele>
        <time>2019-06-30T07:22:21.000Z</time>
      </trkpt>
      <trkpt lat="43.18897" lon="2.38059">
        <ele>192.5</ele>
        <time>2019-06-30T07:22:22.000Z</time>
      </trkpt>
      <trkpt lat="43.18899" lon="2.38061">
        <ele>192.7</ele>
        <time>2019-06-30T07:22:23.000Z</time>
      </trkpt>
      <trkpt lat="43.189" lon="2.38062">
        <ele>193</ele>
        <time>2019-06-30T07:22:24.000Z</time>
      </trkpt>
      <trkpt lat="43.18902" lon="2.38064">
        <ele>193.2</ele>
        <time>2019-06-30T07:22:25.000Z</time>
      </trkpt>
      <trkpt lat="43.18904" lon="2.38065">
        <ele>193.5</ele>
        <time>2019-06-30T07:22:26.000Z</time>
      </trkpt>
      <trkpt lat="43.18905" lon="2.38067">
        <ele>193.7</ele>
        <time>2019-06-30T07:22:27.000Z</time>
      </trkpt>
      <trkpt lat="43.18906" lon="2.38068">
        <ele>193.9</ele>
        <time>2019-06-30T07:22:28.000Z</time>
      </trkpt>
      <trkpt lat="43.18908" lon="2.3807">
        <ele>194.1</ele>
        <time>2019-06-30T07:22:29.000Z</time>
      </trkpt>
      <trkpt lat="43.18909" lon="2.38071">
        <ele>194.3</ele>
        <time>2019-06-30T07:22:30.000Z</time>
      </trkpt>
      <trkpt lat="43.1891" lon="2.38072">
        <ele>194.6</ele>
        <time>2019-06-30T07:22:31.000Z</time>
      </trkpt>
      <trkpt lat="43.18912" lon="2.38074">
        <ele>194.8</ele>
        <time>2019-06-30T07:22:32.000Z</time>
      </trkpt>
      <trkpt lat="43.18913" lon="2.38075">
        <ele>195</ele>
        <time>2019-06-30T07:22:33.000Z</time>
      </trkpt>
      <trkpt lat="43.18914" lon="2.38076">
        <ele>195.2</ele>
        <time>2019-06-30T07:22:34.000Z</time>
      </trkpt>
      <trkpt lat="43.18916" lon="2.38078">
        <ele>195.4</ele>
        <time>2019-06-30T07:22:35.000Z</time>
      </trkpt>
      <trkpt lat="43.18917" lon="2.38079">
        <ele>195.7</ele>
        <time>2019-06-30T07:22:36.000Z</time>
      </trkpt>
      <trkpt lat="43.18919" lon="2.3808">
        <ele>195.9</ele>
        <time>2019-06-30T07:22:37.000Z</time>
      </trkpt>
      <trkpt lat="43.1892" lon="2.38081">
        <ele>196.2</ele>
        <time>2019-06-30T07:22:38.000Z</time>
      </trkpt>
      <trkpt lat="43.18922" lon="2.38082">
        <ele>196.5</ele>
        <time>2019-06-30T07:22:39.000Z</time>
      </trkpt>
      <trkpt lat="43.18924" lon="2.38083">
        <ele>196.8</ele>
        <time>2019-06-30T07:22:40.000Z</time>
      </trkpt>
      <trkpt lat="43.18925" lon="2.38084">
        <ele>197</ele>
        <time>2019-06-30T07:22:41.000Z</time>
      </trkpt>
      <trkpt lat="43.18927" lon="2.38085">
        <ele>197.2</ele>
        <time>2019-06-30T07:22:42.000Z</time>
      </trkpt>
      <trkpt lat="43.18928" lon="2.38085">
        <ele>197.4</ele>
        <time>2019-06-30T07:22:43.000Z</time>
      </trkpt>
      <trkpt lat="43.1893" lon="2.38086">
        <ele>197.6</ele>
        <time>2019-06-30T07:22:44.000Z</time>
      </trkpt>
      <trkpt lat="43.18932" lon="2.38087">
        <ele>197.8</ele>
        <time>2019-06-30T07:22:45.000Z</time>
      </trkpt>
      <trkpt lat="43.18933" lon="2.38087">
        <ele>198</ele>
        <time>2019-06-30T07:22:46.000Z</time>
      </trkpt>
      <trkpt lat="43.18935" lon="2.38087">
        <ele>198.2</ele>
        <time>2019-06-30T07:22:47.000Z</time>
      </trkpt>
      <trkpt lat="43.18936" lon="2.38088">
        <ele>198.4</ele>
        <time>2019-06-30T07:22:48.000Z</time>
      </trkpt>
      <trkpt lat="43.18938" lon="2.38088">
        <ele>198.6</ele>
        <time>2019-06-30T07:22:49.000Z</time>
      </trkpt>
      <trkpt lat="43.18939" lon="2.38088">
        <ele>198.8</ele>
        <time>2019-06-30T07:22:50.000Z</time>
      </trkpt>
      <trkpt lat="43.18941" lon="2.38088">
        <ele>198.9</ele>
        <time>2019-06-30T07:22:51.000Z</time>
      </trkpt>
      <trkpt lat="43.18942" lon="2.38087">
        <ele>199.1</ele>
        <time>2019-06-30T07:22:52.000Z</time>
      </trkpt>
      <trkpt lat="43.18944" lon="2.38087">
        <ele>199.3</ele>
        <time>2019-06-30T07:22:53.000Z</time>
      </trkpt>
      <trkpt lat="43.18945" lon="2.38086">
        <ele>199.4</ele>
        <time>2019-06-30T07:22:54.000Z</time>
      </trkpt>
      <trkpt lat="43.18946" lon="2.38086">
        <ele>199.6</ele>
        <time>2019-06-30T07:22:55.000Z</time>
      </trkpt>
      <trkpt lat="43.18948" lon="2.38085">
        <ele>199.8</ele>
        <time>2019-06-30T07:22:56.000Z</time>
      </trkpt>
      <trkpt lat="43.18949" lon="2.38084">
        <ele>199.9</ele>
        <time>2019-06-30T07:22:57.000Z</time>
      </trkpt>
      <trkpt lat="43.18951" lon="2.38083">
        <ele>200.1</ele>
        <time>2019-06-30T07:22:58.000Z</time>
      </trkpt>
      <trkpt lat="43.18952" lon="2.38082">
        <ele>200.1</ele>
        <time>2019-06-30T07:22:59.000Z</time>
      </trkpt>
      <trkpt lat="43.18954" lon="2.38081">
        <ele>200.2</ele>
        <time>2019-06-30T07:23:00.000Z</time>
      </trkpt>
      <trkpt lat="43.18955" lon="2.38079">
        <ele>200.3</ele>
        <time>2019-06-30T07:23:01.000Z</time>
      </trkpt>
      <trkpt lat="43.18957" lon="2.38078">
        <ele>200.3</ele>
        <time>2019-06-30T07:23:02.000Z</time>
      </trkpt>
      <trkpt lat="43.18958" lon="2.38076">
        <ele>200.3</ele>
        <time>2019-06-30T07:23:03.000Z</time>
      </trkpt>
      <trkpt lat="43.1896" lon="2.38074">
        <ele>200.3</ele>
        <time>2019-06-30T07:23:04.000Z</time>
      </trkpt>
      <trkpt lat="43.18962" lon="2.38072">
        <ele>200.3</ele>
        <time>2019-06-30T07:23:05.000Z</time>
      </trkpt>
      <trkpt lat="43.18963" lon="2.3807">
        <ele>200.3</ele>
        <time>2019-06-30T07:23:06.000Z</time>
      </trkpt>
      <trkpt lat="43.18965" lon="2.38068">
        <ele>200.2</ele>
        <time>2019-06-30T07:23:07.000Z</time>
      </trkpt>
      <trkpt lat="43.18966" lon="2.38066">
        <ele>200.2</ele>
        <time>2019-06-30T07:23:08.000Z</time>
      </trkpt>
      <trkpt lat="43.18967" lon="2.38063">
        <ele>200.1</ele>
        <time>2019-06-30T07:23:09.000Z</time>
      </trkpt>
      <trkpt lat="43.18969" lon="2.38061">
        <ele>200.1</ele>
        <time>2019-06-30T07:23:10.000Z</time>
      </trkpt>
      <trkpt lat="43.1897" lon="2.38058">
        <ele>200</ele>
        <time>2019-06-30T07:23:11.000Z</time>
      </trkpt>
      <trkpt lat="43.18972" lon="2.38055">
        <ele>199.9</ele>
        <time>2019-06-30T07:23:12.000Z</time>
      </trkpt>
      <trkpt lat="43.18973" lon="2.38052">
        <ele>199.8</ele>
        <time>2019-06-30T07:23:13.000Z</time>
      </trkpt>
      <trkpt lat="43.18974" lon="2.3805">
        <ele>199.6</ele>
        <time>2019-06-30T07:23:14.000Z</time>
      </trkpt>
      <trkpt lat="43.18975" lon="2.38047">
        <ele>199.5</ele>
        <time>2019-06-30T07:23:15.000Z</time>
      </trkpt>
      <trkpt lat="43.18976" lon="2.38044">
        <ele>199.3</ele>
        <time>2019-06-30T07:23:16.000Z</time>
      </trkpt>
      <trkpt lat="43.18977" lon="2.38041">
        <ele>199.1</ele>
        <time>2019-06-30T07:23:17.000Z</time>
      </trkpt>
      <trkpt lat="43.18978" lon="2.38037">
        <ele>199</ele>
        <time>2019-06-30T07:23:18.000Z</time>
      </trkpt>
      <trkpt lat="43.18979" lon="2.38034">
        <ele>198.8</ele>
        <time>2019-06-30T07:23:19.000Z</time>
      </trkpt>
      <trkpt lat="43.1898" lon="2.38031">
        <ele>198.6</ele>
        <time>2019-06-30T07:23:20.000Z</time>
      </trkpt>
      <trkpt lat="43.18981" lon="2.38028">
        <ele>198.4</ele>
        <time>2019-06-30T07:23:21.000Z</time>
      </trkpt>
      <trkpt lat="43.18982" lon="2.38025">
        <ele>198.2</ele>
        <time>2019-06-30T07:23:22.000Z</time>
      </trkpt>
      <trkpt lat="43.18983" lon="2.38022">
        <ele>198</ele>
        <time>2019-06-30T07:23:23.000Z</time>
      </trkpt>
      <trkpt lat="43.18984" lon="2.38018">
        <ele>197.8</ele>
        <time>2019-06-30T07:23:24.000Z</time>
      </trkpt>
      <trkpt lat="43.18985" lon="2.38015">
        <ele>197.6</ele>
        <time>2019-06-30T07:23:25.000Z</time>
      </trkpt>
      <trkpt lat="43.18985" lon="2.38012">
        <ele>197.4</ele>
        <time>2019-06-30T07:23:26.000Z</time>
      </trkpt>
      <trkpt lat="43.18986" lon="2.38009">
        <ele>197.2</ele>
        <time>2019-06-30T07:23:27.000Z</time>
      </trkpt>
      <trkpt lat="43.18987" lon="2.38006">
        <ele>197.1</ele>
        <time>2019-06-30T07:23:28.000Z</time>
      </trkpt>
      <trkpt lat="43.18988" lon="2.38003">
        <ele>196.9</ele>
        <time>2019-06-30T07:23:29.000Z</time>
      </trkpt>
      <trkpt lat="43.1899" lon="2.38">
        <ele>196.7</ele>
        <time>2019-06-30T07:23:30.000Z</time>
      </trkpt>
      <trkpt lat="43.18991" lon="2.37997">
        <ele>196.6</ele>
        <time>2019-06-30T07:23:31.000Z</time>
      </trkpt>
      <trkpt lat="43.18992" lon="2.37994">
        <ele>196.5</ele>
        <time>2019-06-30T07:23:32.000Z</time>
      </trkpt>
      <trkpt lat="43.18993" lon="2.37991">
        <ele>196.4</ele>
        <time>2019-06-30T07:23:33.000Z</time>
      </trkpt>
      <trkpt lat="43.18994" lon="2.37988">
        <ele>196.3</ele>
        <time>2019-06-30T07:23:34.000Z</time>
      </trkpt>
      <trkpt lat="43.18995" lon="2.37985">
        <ele>196.2</ele>
        <time>2019-06-30T07:23:35.000Z</time>
      </trkpt>
      <trkpt lat="43.18996" lon="2.37982">
        <ele>196</ele>
        <time>2019-06-30T07:23:36.000Z</time>
      </trkpt>
      <trkpt lat="43.18997" lon="2.37979">
        <ele>195.9</ele>
        <time>2019-06-30T07:23:37.000Z</time>
      </trkpt>
      <trkpt lat="43.18998" lon="2.37975">
        <ele>195.7</ele>
        <time>2019-06-30T07:23:38.000Z</time>
      </trkpt>
      <trkpt lat="43.18999" lon="2.37972">
        <ele>195.6</ele>
        <time>2019-06-30T07:23:39.000Z</time>
      </trkpt>
      <trkpt lat="43.19" lon="2.37969">
        <ele>195.4</ele>
        <time>2019-06-30T07:23:40.000Z</time>
      </trkpt>
      <trkpt lat="43.19001" lon="2.37966">
        <ele>195.3</ele>
        <time>2019-06-30T07:23:41.000Z</time>
      </trkpt>
      <trkpt lat="43.19002" lon="2.37963">
        <ele>195.3</ele>
        <time>2019-06-30T07:23:42.000Z</time>
      </trkpt>
      <trkpt lat="43.19004" lon="2.3796">
        <ele>195.2</ele>
        <time>2019-06-30T07:23:43.000Z</time>
      </trkpt>
      <trkpt lat="43.19005" lon="2.37957">
        <ele>195.2</ele>
        <time>2019-06-30T07:23:44.000Z</time>
      </trkpt>
      <trkpt lat="43.19006" lon="2.37955">
        <ele>195.2</ele>
        <time>2019-06-30T07:23:45.000Z</time>
      </trkpt>
      <trkpt lat="43.19008" lon="2.37952">
        <ele>195.2</ele>
        <time>2019-06-30T07:23:46.000Z</time>
      </trkpt>
      <trkpt lat="43.19009" lon="2.3795">
        <ele>195.3</ele>
        <time>2019-06-30T07:23:47.000Z</time>
      </trkpt>
      <trkpt lat="43.1901" lon="2.37948">
        <ele>195.3</ele>
        <time>2019-06-30T07:23:48.000Z</time>
      </trkpt>
      <trkpt lat="43.19012" lon="2.37946">
        <ele>195.4</ele>
        <time>2019-06-30T07:23:49.000Z</time>
      </trkpt>
      <trkpt lat="43.19013" lon="2.37943">
        <ele>195.5</ele>
        <time>2019-06-30T07:23:50.000Z</time>
      </trkpt>
      <trkpt lat="43.19015" lon="2.37941">
        <ele>195.6</ele>
        <time>2019-06-30T07:23:51.000Z</time>
      </trkpt>
      <trkpt lat="43.19016" lon="2.37939">
        <ele>195.7</ele>
        <time>2019-06-30T07:23:52.000Z</time>
      </trkpt>
      <trkpt lat="43.19018" lon="2.37937">
        <ele>195.8</ele>
        <time>2019-06-30T07:23:53.000Z</time>
      </trkpt>
      <trkpt lat="43.19019" lon="2.37935">
        <ele>195.9</ele>
        <time>2019-06-30T07:23:54.000Z</time>
      </trkpt>
      <trkpt lat="43.19021" lon="2.37933">
        <ele>196</ele>
        <time>2019-06-30T07:23:55.000Z</time>
      </trkpt>
      <trkpt lat="43.19022" lon="2.3793">
        <ele>196</ele>
        <time>2019-06-30T07:23:56.000Z</time>
      </trkpt>
      <trkpt lat="43.19024" lon="2.37928">
        <ele>196.1</ele>
        <time>2019-06-30T07:23:57.000Z</time>
      </trkpt>
      <trkpt lat="43.19025" lon="2.37925">
        <ele>196.1</ele>
        <time>2019-06-30T07:23:58.000Z</time>
      </trkpt>
      <trkpt lat="43.19026" lon="2.37922">
        <ele>196.1</ele>
        <time>2019-06-30T07:23:59.000Z</time>
      </trkpt>
      <trkpt lat="43.19027" lon="2.37919">
        <ele>196.1</ele>
        <time>2019-06-30T07:24:00.000Z</time>
      </trkpt>
      <trkpt lat="43.19028" lon="2.37916">
        <ele>196.1</ele>
        <time>2019-06-30T07:24:01.000Z</time>
      </trkpt>
      <trkpt lat="43.19029" lon="2.37913">
        <ele>196.3</ele>
        <time>2019-06-30T07:24:02.000Z</time>
      </trkpt>
      <trkpt lat="43.1903" lon="2.3791">
        <ele>196.5</ele>
        <time>2019-06-30T07:24:03.000Z</time>
      </trkpt>
      <trkpt lat="43.19031" lon="2.37907">
        <ele>196.8</ele>
        <time>2019-06-30T07:24:04.000Z</time>
      </trkpt>
      <trkpt lat="43.19032" lon="2.37903">
        <ele>196.9</ele>
        <time>2019-06-30T07:24:05.000Z</time>
      </trkpt>
      <trkpt lat="43.19033" lon="2.379">
        <ele>197.1</ele>
        <time>2019-06-30T07:24:06.000Z</time>
      </trkpt>
      <trkpt lat="43.19034" lon="2.37897">
        <ele>197.3</ele>
        <time>2019-06-30T07:24:07.000Z</time>
      </trkpt>
      <trkpt lat="43.19035" lon="2.37893">
        <ele>197.5</ele>
        <time>2019-06-30T07:24:08.000Z</time>
      </trkpt>
      <trkpt lat="43.19036" lon="2.3789">
        <ele>197.6</ele>
        <time>2019-06-30T07:24:09.000Z</time>
      </trkpt>
      <trkpt lat="43.19036" lon="2.37887">
        <ele>197.7</ele>
        <time>2019-06-30T07:24:10.000Z</time>
      </trkpt>
      <trkpt lat="43.19037" lon="2.37884">
        <ele>197.9</ele>
        <time>2019-06-30T07:24:11.000Z</time>
      </trkpt>
      <trkpt lat="43.19037" lon="2.37881">
        <ele>198</ele>
        <time>2019-06-30T07:24:12.000Z</time>
      </trkpt>
      <trkpt lat="43.19038" lon="2.37878">
        <ele>198.1</ele>
        <time>2019-06-30T07:24:13.000Z</time>
      </trkpt>
      <trkpt lat="43.19039" lon="2.37875">
        <ele>198.2</ele>
        <time>2019-06-30T07:24:14.000Z</time>
      </trkpt>
      <trkpt lat="43.19039" lon="2.37872">
        <ele>198.3</ele>
        <time>2019-06-30T07:24:15.000Z</time>
      </trkpt>
      <trkpt lat="43.19039" lon="2.37869">
        <ele>198.4</ele>
        <time>2019-06-30T07:24:16.000Z</time>
      </trkpt>
      <trkpt lat="43.1904" lon="2.37866">
        <ele>198.5</ele>
        <time>2019-06-30T07:24:17.000Z</time>
      </trkpt>
      <trkpt lat="43.1904" lon="2.37863">
        <ele>198.6</ele>
        <time>2019-06-30T07:24:18.000Z</time>
      </trkpt>
      <trkpt lat="43.1904" lon="2.3786">
        <ele>198.6</ele>
        <time>2019-06-30T07:24:19.000Z</time>
      </trkpt>
      <trkpt lat="43.19041" lon="2.37857">
        <ele>198.7</ele>
        <time>2019-06-30T07:24:20.000Z</time>
      </trkpt>
      <trkpt lat="43.19041" lon="2.37854">
        <ele>198.8</ele>
        <time>2019-06-30T07:24:21.000Z</time>
      </trkpt>
      <trkpt lat="43.19041" lon="2.37851">
        <ele>198.8</ele>
        <time>2019-06-30T07:24:22.000Z</time>
      </trkpt>
      <trkpt lat="43.19041" lon="2.37848">
        <ele>198.8</ele>
        <time>2019-06-30T07:24:23.000Z</time>
      </trkpt>
      <trkpt lat="43.19041" lon="2.37845">
        <ele>198.9</ele>
        <time>2019-06-30T07:24:24.000Z</time>
      </trkpt>
      <trkpt lat="43.19041" lon="2.37842">
        <ele>198.9</ele>
        <time>2019-06-30T07:24:25.000Z</time>
      </trkpt>
      <trkpt lat="43.19041" lon="2.37839">
        <ele>198.9</ele>
        <time>2019-06-30T07:24:26.000Z</time>
      </trkpt>
      <trkpt lat="43.19041" lon="2.37836">
        <ele>198.9</ele>
        <time>2019-06-30T07:24:27.000Z</time>
      </trkpt>
      <trkpt lat="43.19041" lon="2.37832">
        <ele>198.9</ele>
        <time>2019-06-30T07:24:28.000Z</time>
      </trkpt>
      <trkpt lat="43.19041" lon="2.37829">
        <ele>198.9</ele>
        <time>2019-06-30T07:24:29.000Z</time>
      </trkpt>
      <trkpt lat="43.19041" lon="2.37826">
        <ele>198.9</ele>
        <time>2019-06-30T07:24:30.000Z</time>
      </trkpt>
      <trkpt lat="43.19041" lon="2.37823">
        <ele>198.9</ele>
        <time>2019-06-30T07:24:31.000Z</time>
      </trkpt>
      <trkpt lat="43.1904" lon="2.3782">
        <ele>198.8</ele>
        <time>2019-06-30T07:24:32.000Z</time>
      </trkpt>
      <trkpt lat="43.1904" lon="2.37816">
        <ele>198.8</ele>
        <time>2019-06-30T07:24:33.000Z</time>
      </trkpt>
      <trkpt lat="43.1904" lon="2.37813">
        <ele>198.8</ele>
        <time>2019-06-30T07:24:34.000Z</time>
      </trkpt>
      <trkpt lat="43.19039" lon="2.3781">
        <ele>198.7</ele>
        <time>2019-06-30T07:24:35.000Z</time>
      </trkpt>
      <trkpt lat="43.19039" lon="2.37808">
        <ele>198.6</ele>
        <time>2019-06-30T07:24:36.000Z</time>
      </trkpt>
      <trkpt lat="43.19038" lon="2.37805">
        <ele>198.6</ele>
        <time>2019-06-30T07:24:37.000Z</time>
      </trkpt>
      <trkpt lat="43.19037" lon="2.37802">
        <ele>198.5</ele>
        <time>2019-06-30T07:24:38.000Z</time>
      </trkpt>
      <trkpt lat="43.19036" lon="2.378">
        <ele>198.4</ele>
        <time>2019-06-30T07:24:39.000Z</time>
      </trkpt>
      <trkpt lat="43.19034" lon="2.37797">
        <ele>198.2</ele>
        <time>2019-06-30T07:24:40.000Z</time>
      </trkpt>
      <trkpt lat="43.19032" lon="2.37795">
        <ele>198.1</ele>
        <time>2019-06-30T07:24:41.000Z</time>
      </trkpt>
      <trkpt lat="43.1903" lon="2.37793">
        <ele>197.9</ele>
        <time>2019-06-30T07:24:42.000Z</time>
      </trkpt>
      <trkpt lat="43.19028" lon="2.37791">
        <ele>197.7</ele>
        <time>2019-06-30T07:24:43.000Z</time>
      </trkpt>
      <trkpt lat="43.19027" lon="2.37789">
        <ele>197.6</ele>
        <time>2019-06-30T07:24:44.000Z</time>
      </trkpt>
      <trkpt lat="43.19025" lon="2.37787">
        <ele>197.5</ele>
        <time>2019-06-30T07:24:45.000Z</time>
      </trkpt>
      <trkpt lat="43.19023" lon="2.37785">
        <ele>197.3</ele>
        <time>2019-06-30T07:24:46.000Z</time>
      </trkpt>
      <trkpt lat="43.19021" lon="2.37783">
        <ele>197.2</ele>
        <time>2019-06-30T07:24:47.000Z</time>
      </trkpt>
      <trkpt lat="43.19019" lon="2.37781">
        <ele>197.1</ele>
        <time>2019-06-30T07:24:48.000Z</time>
      </trkpt>
      <trkpt lat="43.19018" lon="2.37779">
        <ele>197.1</ele>
        <time>2019-06-30T07:24:49.000Z</time>
      </trkpt>
      <trkpt lat="43.19017" lon="2.37777">
        <ele>197</ele>
        <time>2019-06-30T07:24:50.000Z</time>
      </trkpt>
      <trkpt lat="43.19016" lon="2.37774">
        <ele>197</ele>
        <time>2019-06-30T07:24:51.000Z</time>
      </trkpt>
      <trkpt lat="43.19015" lon="2.37772">
        <ele>197</ele>
        <time>2019-06-30T07:24:52.000Z</time>
      </trkpt>
      <trkpt lat="43.19014" lon="2.3777">
        <ele>197</ele>
        <time>2019-06-30T07:24:53.000Z</time>
      </trkpt>
      <trkpt lat="43.19014" lon="2.37768">
        <ele>197.1</ele>
        <time>2019-06-30T07:24:54.000Z</time>
      </trkpt>
      <trkpt lat="43.19013" lon="2.37766">
        <ele>197.1</ele>
        <time>2019-06-30T07:24:55.000Z</time>
      </trkpt>
      <trkpt lat="43.19013" lon="2.37763">
        <ele>197.2</ele>
        <time>2019-06-30T07:24:56.000Z</time>
      </trkpt>
      <trkpt lat="43.19013" lon="2.37761">
        <ele>197.2</ele>
        <time>2019-06-30T07:24:57.000Z</time>
      </trkpt>
      <trkpt lat="43.19013" lon="2.37759">
        <ele>197.3</ele>
        <time>2019-06-30T07:24:58.000Z</time>
      </trkpt>
      <trkpt lat="43.19013" lon="2.37756">
        <ele>197.4</ele>
        <time>2019-06-30T07:24:59.000Z</time>
      </trkpt>
      <trkpt lat="43.19013" lon="2.37754">
        <ele>197.5</ele>
        <time>2019-06-30T07:25:00.000Z</time>
      </trkpt>
      <trkpt lat="43.19013" lon="2.37751">
        <ele>197.6</ele>
        <time>2019-06-30T07:25:01.000Z</time>
      </trkpt>
      <trkpt lat="43.19013" lon="2.37749">
        <ele>197.7</ele>
        <time>2019-06-30T07:25:02.000Z</time>
      </trkpt>
      <trkpt lat="43.19013" lon="2.37746">
        <ele>197.8</ele>
        <time>2019-06-30T07:25:03.000Z</time>
      </trkpt>
      <trkpt lat="43.19012" lon="2.37743">
        <ele>197.9</ele>
        <time>2019-06-30T07:25:04.000Z</time>
      </trkpt>
      <trkpt lat="43.19012" lon="2.37741">
        <ele>198.1</ele>
        <time>2019-06-30T07:25:05.000Z</time>
      </trkpt>
      <trkpt lat="43.19012" lon="2.37738">
        <ele>198.2</ele>
        <time>2019-06-30T07:25:06.000Z</time>
      </trkpt>
      <trkpt lat="43.19012" lon="2.37735">
        <ele>198.3</ele>
        <time>2019-06-30T07:25:07.000Z</time>
      </trkpt>
      <trkpt lat="43.19011" lon="2.37732">
        <ele>198.5</ele>
        <time>2019-06-30T07:25:08.000Z</time>
      </trkpt>
      <trkpt lat="43.19011" lon="2.37729">
        <ele>198.6</ele>
        <time>2019-06-30T07:25:09.000Z</time>
      </trkpt>
      <trkpt lat="43.1901" lon="2.37727">
        <ele>198.7</ele>
        <time>2019-06-30T07:25:10.000Z</time>
      </trkpt>
      <trkpt lat="43.19009" lon="2.37724">
        <ele>198.8</ele>
        <time>2019-06-30T07:25:11.000Z</time>
      </trkpt>
      <trkpt lat="43.19008" lon="2.37721">
        <ele>198.9</ele>
        <time>2019-06-30T07:25:12.000Z</time>
      </trkpt>
      <trkpt lat="43.19006" lon="2.37718">
        <ele>199.1</ele>
        <time>2019-06-30T07:25:13.000Z</time>
      </trkpt>
      <trkpt lat="43.19005" lon="2.37716">
        <ele>199.2</ele>
        <time>2019-06-30T07:25:14.000Z</time>
      </trkpt>
      <trkpt lat="43.19003" lon="2.37714">
        <ele>199.3</ele>
        <time>2019-06-30T07:25:15.000Z</time>
      </trkpt>
      <trkpt lat="43.19001" lon="2.37711">
        <ele>199.3</ele>
        <time>2019-06-30T07:25:16.000Z</time>
      </trkpt>
      <trkpt lat="43.18999" lon="2.37709">
        <ele>199.4</ele>
        <time>2019-06-30T07:25:17.000Z</time>
      </trkpt>
      <trkpt lat="43.18998" lon="2.37707">
        <ele>199.5</ele>
        <time>2019-06-30T07:25:18.000Z</time>
      </trkpt>
      <trkpt lat="43.18996" lon="2.37704">
        <ele>199.6</ele>
        <time>2019-06-30T07:25:19.000Z</time>
      </trkpt>
      <trkpt lat="43.18994" lon="2.37701">
        <ele>199.7</ele>
        <time>2019-06-30T07:25:20.000Z</time>
      </trkpt>
      <trkpt lat="43.18994" lon="2.37698">
        <ele>199.9</ele>
        <time>2019-06-30T07:25:21.000Z</time>
      </trkpt>
      <trkpt lat="43.18994" lon="2.37696">
        <ele>200.1</ele>
        <time>2019-06-30T07:25:22.000Z</time>
      </trkpt>
      <trkpt lat="43.18995" lon="2.37694">
        <ele>200.2</ele>
        <time>2019-06-30T07:25:23.000Z</time>
      </trkpt>
      <trkpt lat="43.18997" lon="2.37693">
        <ele>200.3</ele>
        <time>2019-06-30T07:25:24.000Z</time>
      </trkpt>
      <trkpt lat="43.18999" lon="2.37694">
        <ele>200.3</ele>
        <time>2019-06-30T07:25:25.000Z</time>
      </trkpt>
      <trkpt lat="43.19001" lon="2.37696">
        <ele>200.3</ele>
        <time>2019-06-30T07:25:26.000Z</time>
      </trkpt>
      <trkpt lat="43.19002" lon="2.37698">
        <ele>200.2</ele>
        <time>2019-06-30T07:25:27.000Z</time>
      </trkpt>
      <trkpt lat="43.19004" lon="2.377">
        <ele>200.1</ele>
        <time>2019-06-30T07:25:28.000Z</time>
      </trkpt>
      <trkpt lat="43.19005" lon="2.37702">
        <ele>200</ele>
        <time>2019-06-30T07:25:29.000Z</time>
      </trkpt>
      <trkpt lat="43.19007" lon="2.37704">
        <ele>199.9</ele>
        <time>2019-06-30T07:25:30.000Z</time>
      </trkpt>
      <trkpt lat="43.19009" lon="2.37706">
        <ele>199.8</ele>
        <time>2019-06-30T07:25:31.000Z</time>
      </trkpt>
      <trkpt lat="43.1901" lon="2.37708">
        <ele>199.7</ele>
        <time>2019-06-30T07:25:32.000Z</time>
      </trkpt>
      <trkpt lat="43.19012" lon="2.3771">
        <ele>199.6</ele>
        <time>2019-06-30T07:25:33.000Z</time>
      </trkpt>
      <trkpt lat="43.19013" lon="2.37712">
        <ele>199.5</ele>
        <time>2019-06-30T07:25:34.000Z</time>
      </trkpt>
      <trkpt lat="43.19015" lon="2.37714">
        <ele>199.5</ele>
        <time>2019-06-30T07:25:35.000Z</time>
      </trkpt>
      <trkpt lat="43.19016" lon="2.37716">
        <ele>199.4</ele>
        <time>2019-06-30T07:25:36.000Z</time>
      </trkpt>
      <trkpt lat="43.19018" lon="2.37719">
        <ele>199.3</ele>
        <time>2019-06-30T07:25:37.000Z</time>
      </trkpt>
      <trkpt lat="43.19019" lon="2.37721">
        <ele>199.3</ele>
        <time>2019-06-30T07:25:38.000Z</time>
      </trkpt>
      <trkpt lat="43.1902" lon="2.37723">
        <ele>199.2</ele>
        <time>2019-06-30T07:25:39.000Z</time>
      </trkpt>
      <trkpt lat="43.19022" lon="2.37725">
        <ele>199.1</ele>
        <time>2019-06-30T07:25:40.000Z</time>
      </trkpt>
      <trkpt lat="43.19023" lon="2.37728">
        <ele>199.1</ele>
        <time>2019-06-30T07:25:41.000Z</time>
      </trkpt>
      <trkpt lat="43.19024" lon="2.3773">
        <ele>199</ele>
        <time>2019-06-30T07:25:42.000Z</time>
      </trkpt>
      <trkpt lat="43.19025" lon="2.37733">
        <ele>198.9</ele>
        <time>2019-06-30T07:25:43.000Z</time>
      </trkpt>
      <trkpt lat="43.19026" lon="2.37735">
        <ele>198.9</ele>
        <time>2019-06-30T07:25:44.000Z</time>
      </trkpt>
      <trkpt lat="43.19027" lon="2.37738">
        <ele>198.8</ele>
        <time>2019-06-30T07:25:45.000Z</time>
      </trkpt>
      <trkpt lat="43.19027" lon="2.37741">
        <ele>198.7</ele>
        <time>2019-06-30T07:25:46.000Z</time>
      </trkpt>
      <trkpt lat="43.19028" lon="2.37743">
        <ele>198.6</ele>
        <time>2019-06-30T07:25:47.000Z</time>
      </trkpt>
      <trkpt lat="43.19029" lon="2.37746">
        <ele>198.5</ele>
        <time>2019-06-30T07:25:48.000Z</time>
      </trkpt>
      <trkpt lat="43.1903" lon="2.37749">
        <ele>198.5</ele>
        <time>2019-06-30T07:25:49.000Z</time>
      </trkpt>
      <trkpt lat="43.19031" lon="2.37752">
        <ele>198.4</ele>
        <time>2019-06-30T07:25:50.000Z</time>
      </trkpt>
      <trkpt lat="43.19031" lon="2.37755">
        <ele>198.4</ele>
        <time>2019-06-30T07:25:51.000Z</time>
      </trkpt>
      <trkpt lat="43.19032" lon="2.37757">
        <ele>198.5</ele>
        <time>2019-06-30T07:25:52.000Z</time>
      </trkpt>
      <trkpt lat="43.19033" lon="2.3776">
        <ele>198.5</ele>
        <time>2019-06-30T07:25:53.000Z</time>
      </trkpt>
      <trkpt lat="43.19034" lon="2.37763">
        <ele>198.5</ele>
        <time>2019-06-30T07:25:54.000Z</time>
      </trkpt>
      <trkpt lat="43.19034" lon="2.37765">
        <ele>198.5</ele>
        <time>2019-06-30T07:25:55.000Z</time>
      </trkpt>
      <trkpt lat="43.19035" lon="2.37767">
        <ele>198.5</ele>
        <time>2019-06-30T07:25:56.000Z</time>
      </trkpt>
      <trkpt lat="43.19036" lon="2.37769">
        <ele>198.6</ele>
        <time>2019-06-30T07:25:57.000Z</time>
      </trkpt>
      <trkpt lat="43.19036" lon="2.37771">
        <ele>198.6</ele>
        <time>2019-06-30T07:25:58.000Z</time>
      </trkpt>
      <trkpt lat="43.19036" lon="2.37772">
        <ele>198.6</ele>
        <time>2019-06-30T07:25:59.000Z</time>
      </trkpt>
      <trkpt lat="43.19037" lon="2.37773">
        <ele>198.6</ele>
        <time>2019-06-30T07:26:00.000Z</time>
      </trkpt>
      <trkpt lat="43.19037" lon="2.37774">
        <ele>198.6</ele>
        <time>2019-06-30T07:26:01.000Z</time>
      </trkpt>
      <trkpt lat="43.19037" lon="2.37775">
        <ele>198.6</ele>
        <time>2019-06-30T07:26:02.000Z</time>
      </trkpt>
      <trkpt lat="43.19037" lon="2.37776">
        <ele>198.6</ele>
        <time>2019-06-30T07:26:03.000Z</time>
      </trkpt>
      <trkpt lat="43.19037" lon="2.37776">
        <ele>198.6</ele>
        <time>2019-06-30T07:26:04.000Z</time>
      </trkpt>
      <trkpt lat="43.19037" lon="2.37777">
        <ele>198.6</ele>
        <time>2019-06-30T07:26:05.000Z</time>
      </trkpt>
      <trkpt lat="43.19037" lon="2.37777">
        <ele>198.6</ele>
        <time>2019-06-30T07:26:06.000Z</time>
      </trkpt>
      <trkpt lat="43.19037" lon="2.37777">
        <ele>198.6</ele>
        <time>2019-06-30T07:26:07.000Z</time>
      </trkpt>
      <trkpt lat="43.19037" lon="2.37778">
        <ele>198.6</ele>
        <time>2019-06-30T07:26:08.000Z</time>
      </trkpt>
      <trkpt lat="43.19037" lon="2.37778">
        <ele>198.6</ele>
        <time>2019-06-30T07:26:09.000Z</time>
      </trkpt>
      <trkpt lat="43.19037" lon="2.37778">
        <ele>198.6</ele>
        <time>2019-06-30T07:26:10.000Z</time>
      </trkpt>
      <trkpt lat="43.19037" lon="2.37778">
        <ele>198.6</ele>
        <time>2019-06-30T07:26:11.000Z</time>
      </trkpt>
      <trkpt lat="43.19037" lon="2.37778">
        <ele>198.6</ele>
        <time>2019-06-30T07:26:12.000Z</time>
      </trkpt>
      <trkpt lat="43.19037" lon="2.37778">
        <ele>198.6</ele>
        <time>2019-06-30T07:26:13.000Z</time>
      </trkpt>
      <trkpt lat="43.19037" lon="2.37778">
        <ele>198.6</ele>
        <time>2019-06-30T07:26:14.000Z</time>
      </trkpt>
      <trkpt lat="43.19037" lon="2.37778">
        <ele>198.6</ele>
        <time>2019-06-30T07:26:15.000Z</time>
      </trkpt>
      <trkpt lat="43.19037" lon="2.37778">
        <ele>198.6</ele>
        <time>2019-06-30T07:26:16.000Z</time>
      </trkpt>
      <trkpt lat="43.19037" lon="2.37778">
        <ele>198.6</ele>
        <time>2019-06-30T07:26:17.000Z</time>
      </trkpt>
      <trkpt lat="43.19037" lon="2.37778">
        <ele>198.6</ele>
        <time>2019-06-30T07:26:18.000Z</time>
      </trkpt>
      <trkpt lat="43.19037" lon="2.37778">
        <ele>198.6</ele>
        <time>2019-06-30T07:26:19.000Z</time>
      </trkpt>
      <trkpt lat="43.19037" lon="2.37778">
        <ele>198.6</ele>
        <time>2019-06-30T07:26:20.000Z</time>
      </trkpt>
      <trkpt lat="43.19037" lon="2.37778">
        <ele>198.6</ele>
        <time>2019-06-30T07:26:21.000Z</time>
      </trkpt>
      <trkpt lat="43.19037" lon="2.37778">
        <ele>198.6</ele>
        <time>2019-06-30T07:26:22.000Z</time>
      </trkpt>
      <trkpt lat="43.19037" lon="2.37778">
        <ele>198.6</ele>
        <time>2019-06-30T07:26:23.000Z</time>
      </trkpt>
      <trkpt lat="43.19037" lon="2.37778">
        <ele>198.6</ele>
        <time>2019-06-30T07:26:24.000Z</time>
      </trkpt>
      <trkpt lat="43.19037" lon="2.37778">
        <ele>198.6</ele>
        <time>2019-06-30T07:26:25.000Z</time>
      </trkpt>
      <trkpt lat="43.19037" lon="2.37778">
        <ele>198.6</ele>
        <time>2019-06-30T07:26:26.000Z</time>
      </trkpt>
      <trkpt lat="43.19037" lon="2.37778">
        <ele>198.6</ele>
        <time>2019-06-30T07:26:27.000Z</time>
      </trkpt>
      <trkpt lat="43.19037" lon="2.37778">
        <ele>198.6</ele>
        <time>2019-06-30T07:26:28.000Z</time>
      </trkpt>
      <trkpt lat="43.19037" lon="2.37778">
        <ele>198.6</ele>
        <time>2019-06-30T07:26:29.000Z</time>
      </trkpt>
      <trkpt lat="43.19037" lon="2.37778">
        <ele>198.6</ele>
        <time>2019-06-30T07:26:30.000Z</time>
      </trkpt>
      <trkpt lat="43.19037" lon="2.37778">
        <ele>198.6</ele>
        <time>2019-06-30T07:26:31.000Z</time>
      </trkpt>
      <trkpt lat="43.19037" lon="2.37778">
        <ele>198.6</ele>
        <time>2019-06-30T07:26:32.000Z</time>
      </trkpt>
      <trkpt lat="43.19037" lon="2.37778">
        <ele>198.6</ele>
        <time>2019-06-30T07:26:33.000Z</time>
      </trkpt>
      <trkpt lat="43.19037" lon="2.37778">
        <ele>198.6</ele>
        <time>2019-06-30T07:26:34.000Z</time>
      </trkpt>
      <trkpt lat="43.19037" lon="2.37778">
        <ele>198.6</ele>
        <time>2019-06-30T07:26:35.000Z</time>
      </trkpt>
      <trkpt lat="43.19037" lon="2.37778">
        <ele>198.6</ele>
        <time>2019-06-30T07:26:36.000Z</time>
      </trkpt>
      <trkpt lat="43.19037" lon="2.37778">
        <ele>198.6</ele>
        <time>2019-06-30T07:26:37.000Z</time>
      </trkpt>
      <trkpt lat="43.19037" lon="2.37778">
        <ele>198.6</ele>
        <time>2019-06-30T07:26:38.000Z</time>
      </trkpt>
      <trkpt lat="43.19037" lon="2.37778">
        <ele>198.6</ele>
        <time>2019-06-30T07:26:39.000Z</time>
      </trkpt>
      <trkpt lat="43.19037" lon="2.37778">
        <ele>198.6</ele>
        <time>2019-06-30T07:26:40.000Z</time>
      </trkpt>
      <trkpt lat="43.19037" lon="2.37778">
        <ele>198.6</ele>
        <time>2019-06-30T07:26:41.000Z</time>
      </trkpt>
      <trkpt lat="43.19037" lon="2.37778">
        <ele>198.6</ele>
        <time>2019-06-30T07:26:42.000Z</time>
      </trkpt>
      <trkpt lat="43.19037" lon="2.37778">
        <ele>198.6</ele>
        <time>2019-06-30T07:26:43.000Z</time>
      </trkpt>
      <trkpt lat="43.19037" lon="2.37778">
        <ele>198.6</ele>
        <time>2019-06-30T07:26:44.000Z</time>
      </trkpt>
      <trkpt lat="43.19037" lon="2.37778">
        <ele>198.6</ele>
        <time>2019-06-30T07:26:45.000Z</time>
      </trkpt>
      <trkpt lat="43.19037" lon="2.37778">
        <ele>198.6</ele>
        <time>2019-06-30T07:26:46.000Z</time>
      </trkpt>
      <trkpt lat="43.19037" lon="2.37778">
        <ele>198.6</ele>
        <time>2019-06-30T07:26:47.000Z</time>
      </trkpt>
      <trkpt lat="43.19037" lon="2.37778">
        <ele>198.6</ele>
        <time>2019-06-30T07:26:48.000Z</time>
      </trkpt>
      <trkpt lat="43.19037" lon="2.37778">
        <ele>198.6</ele>
        <time>2019-06-30T07:26:49.000Z</time>
      </trkpt>
      <trkpt lat="43.19037" lon="2.37778">
        <ele>198.6</ele>
        <time>2019-06-30T07:26:50.000Z</time>
      </trkpt>
      <trkpt lat="43.19037" lon="2.37778">
        <ele>198.6</ele>
        <time>2019-06-30T07:26:51.000Z</time>
      </trkpt>
      <trkpt lat="43.19037" lon="2.37778">
        <ele>198.6</ele>
        <time>2019-06-30T07:26:52.000Z</time>
      </trkpt>
      <trkpt lat="43.19037" lon="2.37778">
        <ele>198.6</ele>
        <time>2019-06-30T07:26:53.000Z</time>
      </trkpt>
      <trkpt lat="43.19037" lon="2.37778">
        <ele>198.6</ele>
        <time>2019-06-30T07:26:54.000Z</time>
      </trkpt>
      <trkpt lat="43.19037" lon="2.37778">
        <ele>198.6</ele>
        <time>2019-06-30T07:26:55.000Z</time>
      </trkpt>
      <trkpt lat="43.19037" lon="2.37778">
        <ele>198.6</ele>
        <time>2019-06-30T07:26:56.000Z</time>
      </trkpt>
      <trkpt lat="43.19037" lon="2.37778">
        <ele>198.7</ele>
        <time>2019-06-30T07:26:57.000Z</time>
      </trkpt>
      <trkpt lat="43.19038" lon="2.37779">
        <ele>198.7</ele>
        <time>2019-06-30T07:26:58.000Z</time>
      </trkpt>
      <trkpt lat="43.19038" lon="2.37779">
        <ele>198.7</ele>
        <time>2019-06-30T07:26:59.000Z</time>
      </trkpt>
      <trkpt lat="43.19038" lon="2.37779">
        <ele>198.7</ele>
        <time>2019-06-30T07:27:00.000Z</time>
      </trkpt>
      <trkpt lat="43.19038" lon="2.37779">
        <ele>198.7</ele>
        <time>2019-06-30T07:27:01.000Z</time>
      </trkpt>
      <trkpt lat="43.19038" lon="2.37779">
        <ele>198.7</ele>
        <time>2019-06-30T07:27:02.000Z</time>
      </trkpt>
      <trkpt lat="43.19039" lon="2.3778">
        <ele>198.8</ele>
        <time>2019-06-30T07:27:03.000Z</time>
      </trkpt>
      <trkpt lat="43.19039" lon="2.3778">
        <ele>198.8</ele>
        <time>2019-06-30T07:27:04.000Z</time>
      </trkpt>
      <trkpt lat="43.1904" lon="2.37781">
        <ele>198.8</ele>
        <time>2019-06-30T07:27:05.000Z</time>
      </trkpt>
      <trkpt lat="43.1904" lon="2.37782">
        <ele>198.9</ele>
        <time>2019-06-30T07:27:06.000Z</time>
      </trkpt>
      <trkpt lat="43.19041" lon="2.37783">
        <ele>198.9</ele>
        <time>2019-06-30T07:27:07.000Z</time>
      </trkpt>
      <trkpt lat="43.19041" lon="2.37783">
        <ele>198.9</ele>
        <time>2019-06-30T07:27:08.000Z</time>
      </trkpt>
      <trkpt lat="43.19041" lon="2.37784">
        <ele>199</ele>
        <time>2019-06-30T07:27:09.000Z</time>
      </trkpt>
      <trkpt lat="43.19042" lon="2.37785">
        <ele>199</ele>
        <time>2019-06-30T07:27:10.000Z</time>
      </trkpt>
      <trkpt lat="43.19042" lon="2.37785">
        <ele>199.1</ele>
        <time>2019-06-30T07:27:11.000Z</time>
      </trkpt>
      <trkpt lat="43.19043" lon="2.37786">
        <ele>199.1</ele>
        <time>2019-06-30T07:27:12.000Z</time>
      </trkpt>
      <trkpt lat="43.19043" lon="2.37787">
        <ele>199.1</ele>
        <time>2019-06-30T07:27:13.000Z</time>
      </trkpt>
      <trkpt lat="43.19044" lon="2.37787">
        <ele>199.2</ele>
        <time>2019-06-30T07:27:14.000Z</time>
      </trkpt>
      <trkpt lat="43.19044" lon="2.37788">
        <ele>199.2</ele>
        <time>2019-06-30T07:27:15.000Z</time>
      </trkpt>
      <trkpt lat="43.19045" lon="2.37789">
        <ele>199.3</ele>
        <time>2019-06-30T07:27:16.000Z</time>
      </trkpt>
      <trkpt lat="43.19045" lon="2.37789">
        <ele>199.3</ele>
        <time>2019-06-30T07:27:17.000Z</time>
      </trkpt>
      <trkpt lat="43.19046" lon="2.3779">
        <ele>199.4</ele>
        <time>2019-06-30T07:27:18.000Z</time>
      </trkpt>
      <trkpt lat="43.19046" lon="2.37791">
        <ele>199.4</ele>
        <time>2019-06-30T07:27:19.000Z</time>
      </trkpt>
      <trkpt lat="43.19047" lon="2.37792">
        <ele>199.5</ele>
        <time>2019-06-30T07:27:20.000Z</time>
      </trkpt>
      <trkpt lat="43.19047" lon="2.37792">
        <ele>199.5</ele>
        <time>2019-06-30T07:27:21.000Z</time>
      </trkpt>
      <trkpt lat="43.19048" lon="2.37793">
        <ele>199.6</ele>
        <time>2019-06-30T07:27:22.000Z</time>
      </trkpt>
      <trkpt lat="43.19048" lon="2.37794">
        <ele>199.7</ele>
        <time>2019-06-30T07:27:23.000Z</time>
      </trkpt>
      <trkpt lat="43.19049" lon="2.37794">
        <ele>199.7</ele>
        <time>2019-06-30T07:27:24.000Z</time>
      </trkpt>
      <trkpt lat="43.19049" lon="2.37795">
        <ele>199.7</ele>
        <time>2019-06-30T07:27:25.000Z</time>
      </trkpt>
      <trkpt lat="43.1905" lon="2.37795">
        <ele>199.8</ele>
        <time>2019-06-30T07:27:26.000Z</time>
      </trkpt>
      <trkpt lat="43.1905" lon="2.37796">
        <ele>199.8</ele>
        <time>2019-06-30T07:27:27.000Z</time>
      </trkpt>
      <trkpt lat="43.1905" lon="2.37796">
        <ele>199.9</ele>
        <time>2019-06-30T07:27:28.000Z</time>
      </trkpt>
      <trkpt lat="43.1905" lon="2.37797">
        <ele>199.9</ele>
        <time>2019-06-30T07:27:29.000Z</time>
      </trkpt>
      <trkpt lat="43.19051" lon="2.37797">
        <ele>199.9</ele>
        <time>2019-06-30T07:27:30.000Z</time>
      </trkpt>
      <trkpt lat="43.19051" lon="2.37797">
        <ele>199.9</ele>
        <time>2019-06-30T07:27:31.000Z</time>
      </trkpt>
      <trkpt lat="43.19051" lon="2.37797">
        <ele>200</ele>
        <time>2019-06-30T07:27:32.000Z</time>
      </trkpt>
      <trkpt lat="43.19051" lon="2.37797">
        <ele>200</ele>
        <time>2019-06-30T07:27:33.000Z</time>
      </trkpt>
      <trkpt lat="43.19051" lon="2.37798">
        <ele>200</ele>
        <time>2019-06-30T07:27:34.000Z</time>
      </trkpt>
      <trkpt lat="43.19051" lon="2.37798">
        <ele>200</ele>
        <time>2019-06-30T07:27:35.000Z</time>
      </trkpt>
      <trkpt lat="43.19051" lon="2.37798">
        <ele>200</ele>
        <time>2019-06-30T07:27:36.000Z</time>
      </trkpt>
      <trkpt lat="43.19051" lon="2.37798">
        <ele>200</ele>
        <time>2019-06-30T07:27:37.000Z</time>
      </trkpt>
      <trkpt lat="43.19051" lon="2.37798">
        <ele>200</ele>
        <time>2019-06-30T07:27:38.000Z</time>
      </trkpt>
      <trkpt lat="43.19051" lon="2.37798">
        <ele>200</ele>
        <time>2019-06-30T07:27:39.000Z</time>
      </trkpt>
      <trkpt lat="43.19051" lon="2.37798">
        <ele>200</ele>
        <time>2019-06-30T07:27:40.000Z</time>
      </trkpt>
      <trkpt lat="43.19051" lon="2.37798">
        <ele>200</ele>
        <time>2019-06-30T07:27:41.000Z</time>
      </trkpt>
      <trkpt lat="43.19051" lon="2.37798">
        <ele>200</ele>
        <time>2019-06-30T07:27:42.000Z</time>
      </trkpt>
      <trkpt lat="43.19051" lon="2.37797">
        <ele>200</ele>
        <time>2019-06-30T07:27:43.000Z</time>
      </trkpt>
      <trkpt lat="43.19051" lon="2.37797">
        <ele>200</ele>
        <time>2019-06-30T07:27:44.000Z</time>
      </trkpt>
      <trkpt lat="43.19051" lon="2.37797">
        <ele>200</ele>
        <time>2019-06-30T07:27:45.000Z</time>
      </trkpt>
      <trkpt lat="43.19051" lon="2.37797">
        <ele>200</ele>
        <time>2019-06-30T07:27:46.000Z</time>
      </trkpt>
      <trkpt lat="43.19051" lon="2.37797">
        <ele>200</ele>
        <time>2019-06-30T07:27:47.000Z</time>
      </trkpt>
      <trkpt lat="43.19051" lon="2.37797">
        <ele>200</ele>
        <time>2019-06-30T07:27:48.000Z</time>
      </trkpt>
      <trkpt lat="43.19051" lon="2.37797">
        <ele>200</ele>
        <time>2019-06-30T07:27:49.000Z</time>
      </trkpt>
      <trkpt lat="43.19051" lon="2.37797">
        <ele>200</ele>
        <time>2019-06-30T07:27:50.000Z</time>
      </trkpt>
      <trkpt lat="43.19051" lon="2.37797">
        <ele>200</ele>
        <time>2019-06-30T07:27:51.000Z</time>
      </trkpt>
      <trkpt lat="43.19051" lon="2.37797">
        <ele>200</ele>
        <time>2019-06-30T07:27:52.000Z</time>
      </trkpt>
      <trkpt lat="43.19051" lon="2.37798">
        <ele>200</ele>
        <time>2019-06-30T07:27:53.000Z</time>
      </trkpt>
      <trkpt lat="43.19051" lon="2.37798">
        <ele>200</ele>
        <time>2019-06-30T07:27:54.000Z</time>
      </trkpt>
      <trkpt lat="43.19052" lon="2.37798">
        <ele>200</ele>
        <time>2019-06-30T07:27:55.000Z</time>
      </trkpt>
      <trkpt lat="43.19052" lon="2.37798">
        <ele>200</ele>
        <time>2019-06-30T07:27:56.000Z</time>
      </trkpt>
      <trkpt lat="43.19052" lon="2.37798">
        <ele>200</ele>
        <time>2019-06-30T07:27:57.000Z</time>
      </trkpt>
      <trkpt lat="43.19052" lon="2.37798">
        <ele>200</ele>
        <time>2019-06-30T07:27:58.000Z</time>
      </trkpt>
      <trkpt lat="43.19052" lon="2.37798">
        <ele>200</ele>
        <time>2019-06-30T07:27:59.000Z</time>
      </trkpt>
      <trkpt lat="43.19052" lon="2.37798">
        <ele>200.1</ele>
        <time>2019-06-30T07:28:00.000Z</time>
      </trkpt>
      <trkpt lat="43.19052" lon="2.37798">
        <ele>200.1</ele>
        <time>2019-06-30T07:28:01.000Z</time>
      </trkpt>
      <trkpt lat="43.19053" lon="2.37799">
        <ele>200.1</ele>
        <time>2019-06-30T07:28:02.000Z</time>
      </trkpt>
      <trkpt lat="43.19053" lon="2.37799">
        <ele>200.2</ele>
        <time>2019-06-30T07:28:03.000Z</time>
      </trkpt>
      <trkpt lat="43.19054" lon="2.378">
        <ele>200.3</ele>
        <time>2019-06-30T07:28:04.000Z</time>
      </trkpt>
      <trkpt lat="43.19055" lon="2.37801">
        <ele>200.4</ele>
        <time>2019-06-30T07:28:05.000Z</time>
      </trkpt>
      <trkpt lat="43.19055" lon="2.37802">
        <ele>200.5</ele>
        <time>2019-06-30T07:28:06.000Z</time>
      </trkpt>
      <trkpt lat="43.19056" lon="2.37803">
        <ele>200.6</ele>
        <time>2019-06-30T07:28:07.000Z</time>
      </trkpt>
      <trkpt lat="43.19057" lon="2.37804">
        <ele>200.7</ele>
        <time>2019-06-30T07:28:08.000Z</time>
      </trkpt>
      <trkpt lat="43.19058" lon="2.37805">
        <ele>200.8</ele>
        <time>2019-06-30T07:28:09.000Z</time>
      </trkpt>
      <trkpt lat="43.19059" lon="2.37807">
        <ele>201</ele>
        <time>2019-06-30T07:28:10.000Z</time>
      </trkpt>
      <trkpt lat="43.1906" lon="2.37808">
        <ele>201.1</ele>
        <time>2019-06-30T07:28:11.000Z</time>
      </trkpt>
      <trkpt lat="43.19061" lon="2.37809">
        <ele>201.2</ele>
        <time>2019-06-30T07:28:12.000Z</time>
      </trkpt>
      <trkpt lat="43.19062" lon="2.3781">
        <ele>201.4</ele>
        <time>2019-06-30T07:28:13.000Z</time>
      </trkpt>
      <trkpt lat="43.19063" lon="2.37811">
        <ele>201.5</ele>
        <time>2019-06-30T07:28:14.000Z</time>
      </trkpt>
      <trkpt lat="43.19064" lon="2.37812">
        <ele>201.7</ele>
        <time>2019-06-30T07:28:15.000Z</time>
      </trkpt>
      <trkpt lat="43.19065" lon="2.37813">
        <ele>201.8</ele>
        <time>2019-06-30T07:28:16.000Z</time>
      </trkpt>
      <trkpt lat="43.19066" lon="2.37814">
        <ele>201.9</ele>
        <time>2019-06-30T07:28:17.000Z</time>
      </trkpt>
      <trkpt lat="43.19067" lon="2.37816">
        <ele>202.1</ele>
        <time>2019-06-30T07:28:18.000Z</time>
      </trkpt>
      <trkpt lat="43.19068" lon="2.37817">
        <ele>202.2</ele>
        <time>2019-06-30T07:28:19.000Z</time>
      </trkpt>
      <trkpt lat="43.19068" lon="2.37818">
        <ele>202.4</ele>
        <time>2019-06-30T07:28:20.000Z</time>
      </trkpt>
      <trkpt lat="43.19069" lon="2.37819">
        <ele>202.5</ele>
        <time>2019-06-30T07:28:21.000Z</time>
      </trkpt>
      <trkpt lat="43.1907" lon="2.3782">
        <ele>202.7</ele>
        <time>2019-06-30T07:28:22.000Z</time>
      </trkpt>
      <trkpt lat="43.19071" lon="2.37821">
        <ele>202.8</ele>
        <time>2019-06-30T07:28:23.000Z</time>
      </trkpt>
      <trkpt lat="43.19072" lon="2.37822">
        <ele>203</ele>
        <time>2019-06-30T07:28:24.000Z</time>
      </trkpt>
      <trkpt lat="43.19073" lon="2.37823">
        <ele>203.1</ele>
        <time>2019-06-30T07:28:25.000Z</time>
      </trkpt>
      <trkpt lat="43.19074" lon="2.37824">
        <ele>203.3</ele>
        <time>2019-06-30T07:28:26.000Z</time>
      </trkpt>
      <trkpt lat="43.19075" lon="2.37825">
        <ele>203.5</ele>
        <time>2019-06-30T07:28:27.000Z</time>
      </trkpt>
      <trkpt lat="43.19076" lon="2.37826">
        <ele>203.6</ele>
        <time>2019-06-30T07:28:28.000Z</time>
      </trkpt>
      <trkpt lat="43.19077" lon="2.37827">
        <ele>203.8</ele>
        <time>2019-06-30T07:28:29.000Z</time>
      </trkpt>
      <trkpt lat="43.19078" lon="2.37828">
        <ele>204</ele>
        <time>2019-06-30T07:28:30.000Z</time>
      </trkpt>
      <trkpt lat="43.19079" lon="2.37829">
        <ele>204.2</ele>
        <time>2019-06-30T07:28:31.000Z</time>
      </trkpt>
      <trkpt lat="43.1908" lon="2.3783">
        <ele>204.3</ele>
        <time>2019-06-30T07:28:32.000Z</time>
      </trkpt>
      <trkpt lat="43.19081" lon="2.37832">
        <ele>204.5</ele>
        <time>2019-06-30T07:28:33.000Z</time>
      </trkpt>
      <trkpt lat="43.19082" lon="2.37833">
        <ele>204.7</ele>
        <time>2019-06-30T07:28:34.000Z</time>
      </trkpt>
      <trkpt lat="43.19083" lon="2.37834">
        <ele>204.9</ele>
        <time>2019-06-30T07:28:35.000Z</time>
      </trkpt>
      <trkpt lat="43.19083" lon="2.37835">
        <ele>205</ele>
        <time>2019-06-30T07:28:36.000Z</time>
      </trkpt>
      <trkpt lat="43.19084" lon="2.37836">
        <ele>205.1</ele>
        <time>2019-06-30T07:28:37.000Z</time>
      </trkpt>
      <trkpt lat="43.19085" lon="2.37837">
        <ele>205.1</ele>
        <time>2019-06-30T07:28:38.000Z</time>
      </trkpt>
      <trkpt lat="43.19086" lon="2.37838">
        <ele>205.2</ele>
        <time>2019-06-30T07:28:39.000Z</time>
      </trkpt>
      <trkpt lat="43.19086" lon="2.37839">
        <ele>205.2</ele>
        <time>2019-06-30T07:28:40.000Z</time>
      </trkpt>
      <trkpt lat="43.19087" lon="2.3784">
        <ele>205.3</ele>
        <time>2019-06-30T07:28:41.000Z</time>
      </trkpt>
      <trkpt lat="43.19088" lon="2.37841">
        <ele>205.3</ele>
        <time>2019-06-30T07:28:42.000Z</time>
      </trkpt>
      <trkpt lat="43.19088" lon="2.37842">
        <ele>205.3</ele>
        <time>2019-06-30T07:28:43.000Z</time>
      </trkpt>
      <trkpt lat="43.19089" lon="2.37842">
        <ele>205.4</ele>
        <time>2019-06-30T07:28:44.000Z</time>
      </trkpt>
      <trkpt lat="43.19089" lon="2.37843">
        <ele>205.4</ele>
        <time>2019-06-30T07:28:45.000Z</time>
      </trkpt>
      <trkpt lat="43.1909" lon="2.37844">
        <ele>205.5</ele>
        <time>2019-06-30T07:28:46.000Z</time>
      </trkpt>
      <trkpt lat="43.19091" lon="2.37845">
        <ele>205.5</ele>
        <time>2019-06-30T07:28:47.000Z</time>
      </trkpt>
      <trkpt lat="43.19091" lon="2.37846">
        <ele>205.6</ele>
        <time>2019-06-30T07:28:48.000Z</time>
      </trkpt>
      <trkpt lat="43.19092" lon="2.37847">
        <ele>205.6</ele>
        <time>2019-06-30T07:28:49.000Z</time>
      </trkpt>
      <trkpt lat="43.19093" lon="2.37849">
        <ele>205.7</ele>
        <time>2019-06-30T07:28:50.000Z</time>
      </trkpt>
      <trkpt lat="43.19094" lon="2.3785">
        <ele>205.7</ele>
        <time>2019-06-30T07:28:51.000Z</time>
      </trkpt>
      <trkpt lat="43.19095" lon="2.37851">
        <ele>205.8</ele>
        <time>2019-06-30T07:28:52.000Z</time>
      </trkpt>
      <trkpt lat="43.19096" lon="2.37852">
        <ele>205.9</ele>
        <time>2019-06-30T07:28:53.000Z</time>
      </trkpt>
      <trkpt lat="43.19097" lon="2.37854">
        <ele>206</ele>
        <time>2019-06-30T07:28:54.000Z</time>
      </trkpt>
      <trkpt lat="43.19098" lon="2.37855">
        <ele>206</ele>
        <time>2019-06-30T07:28:55.000Z</time>
      </trkpt>
      <trkpt lat="43.19099" lon="2.37856">
        <ele>206.1</ele>
        <time>2019-06-30T07:28:56.000Z</time>
      </trkpt>
      <trkpt lat="43.19099" lon="2.37857">
        <ele>206.2</ele>
        <time>2019-06-30T07:28:57.000Z</time>
      </trkpt>
      <trkpt lat="43.191" lon="2.37857">
        <ele>206.2</ele>
        <time>2019-06-30T07:28:58.000Z</time>
      </trkpt>
      <trkpt lat="43.191" lon="2.37858">
        <ele>206.2</ele>
        <time>2019-06-30T07:28:59.000Z</time>
      </trkpt>
      <trkpt lat="43.19101" lon="2.37858">
        <ele>206.2</ele>
        <time>2019-06-30T07:29:00.000Z</time>
      </trkpt>
      <trkpt lat="43.19101" lon="2.37858">
        <ele>206.3</ele>
        <time>2019-06-30T07:29:01.000Z</time>
      </trkpt>
      <trkpt lat="43.19102" lon="2.37859">
        <ele>206.4</ele>
        <time>2019-06-30T07:29:02.000Z</time>
      </trkpt>
      <trkpt lat="43.19103" lon="2.3786">
        <ele>206.4</ele>
        <time>2019-06-30T07:29:03.000Z</time>
      </trkpt>
      <trkpt lat="43.19105" lon="2.37861">
        <ele>206.5</ele>
        <time>2019-06-30T07:29:04.000Z</time>
      </trkpt>
      <trkpt lat="43.19106" lon="2.37863">
        <ele>206.6</ele>
        <time>2019-06-30T07:29:05.000Z</time>
      </trkpt>
      <trkpt lat="43.19107" lon="2.37864">
        <ele>206.7</ele>
        <time>2019-06-30T07:29:06.000Z</time>
      </trkpt>
      <trkpt lat="43.19108" lon="2.37866">
        <ele>206.8</ele>
        <time>2019-06-30T07:29:07.000Z</time>
      </trkpt>
      <trkpt lat="43.19109" lon="2.37867">
        <ele>206.9</ele>
        <time>2019-06-30T07:29:08.000Z</time>
      </trkpt>
      <trkpt lat="43.1911" lon="2.37869">
        <ele>207</ele>
        <time>2019-06-30T07:29:09.000Z</time>
      </trkpt>
      <trkpt lat="43.19111" lon="2.3787">
        <ele>207.1</ele>
        <time>2019-06-30T07:29:10.000Z</time>
      </trkpt>
      <trkpt lat="43.19112" lon="2.37872">
        <ele>207.2</ele>
        <time>2019-06-30T07:29:11.000Z</time>
      </trkpt>
      <trkpt lat="43.19114" lon="2.37873">
        <ele>207.3</ele>
        <time>2019-06-30T07:29:12.000Z</time>
      </trkpt>
      <trkpt lat="43.19115" lon="2.37874">
        <ele>207.4</ele>
        <time>2019-06-30T07:29:13.000Z</time>
      </trkpt>
      <trkpt lat="43.19116" lon="2.37875">
        <ele>207.5</ele>
        <time>2019-06-30T07:29:14.000Z</time>
      </trkpt>
      <trkpt lat="43.19117" lon="2.37877">
        <ele>207.6</ele>
        <time>2019-06-30T07:29:15.000Z</time>
      </trkpt>
      <trkpt lat="43.19118" lon="2.37878">
        <ele>207.7</ele>
        <time>2019-06-30T07:29:16.000Z</time>
      </trkpt>
      <trkpt lat="43.1912" lon="2.37879">
        <ele>207.8</ele>
        <time>2019-06-30T07:29:17.000Z</time>
      </trkpt>
      <trkpt lat="43.19121" lon="2.3788">
        <ele>207.9</ele>
        <time>2019-06-30T07:29:18.000Z</time>
      </trkpt>
      <trkpt lat="43.19122" lon="2.37881">
        <ele>208</ele>
        <time>2019-06-30T07:29:19.000Z</time>
      </trkpt>
      <trkpt lat="43.19124" lon="2.37882">
        <ele>208.1</ele>
        <time>2019-06-30T07:29:20.000Z</time>
      </trkpt>
      <trkpt lat="43.19125" lon="2.37883">
        <ele>208.2</ele>
        <time>2019-06-30T07:29:21.000Z</time>
      </trkpt>
      <trkpt lat="43.19126" lon="2.37884">
        <ele>208.3</ele>
        <time>2019-06-30T07:29:22.000Z</time>
      </trkpt>
      <trkpt lat="43.19128" lon="2.37885">
        <ele>208.4</ele>
        <time>2019-06-30T07:29:23.000Z</time>
      </trkpt>
      <trkpt lat="43.19129" lon="2.37886">
        <ele>208.5</ele>
        <time>2019-06-30T07:29:24.000Z</time>
      </trkpt>
      <trkpt lat="43.1913" lon="2.37887">
        <ele>208.6</ele>
        <time>2019-06-30T07:29:25.000Z</time>
      </trkpt>
      <trkpt lat="43.19132" lon="2.37888">
        <ele>208.7</ele>
        <time>2019-06-30T07:29:26.000Z</time>
      </trkpt>
      <trkpt lat="43.19133" lon="2.37889">
        <ele>208.8</ele>
        <time>2019-06-30T07:29:27.000Z</time>
      </trkpt>
      <trkpt lat="43.19134" lon="2.3789">
        <ele>209</ele>
        <time>2019-06-30T07:29:28.000Z</time>
      </trkpt>
      <trkpt lat="43.19136" lon="2.3789">
        <ele>209.1</ele>
        <time>2019-06-30T07:29:29.000Z</time>
      </trkpt>
      <trkpt lat="43.19137" lon="2.37891">
        <ele>209.2</ele>
        <time>2019-06-30T07:29:30.000Z</time>
      </trkpt>
      <trkpt lat="43.19139" lon="2.37892">
        <ele>209.3</ele>
        <time>2019-06-30T07:29:31.000Z</time>
      </trkpt>
      <trkpt lat="43.1914" lon="2.37893">
        <ele>209.4</ele>
        <time>2019-06-30T07:29:32.000Z</time>
      </trkpt>
      <trkpt lat="43.19141" lon="2.37893">
        <ele>209.5</ele>
        <time>2019-06-30T07:29:33.000Z</time>
      </trkpt>
      <trkpt lat="43.19143" lon="2.37894">
        <ele>209.6</ele>
        <time>2019-06-30T07:29:34.000Z</time>
      </trkpt>
      <trkpt lat="43.19144" lon="2.37895">
        <ele>209.7</ele>
        <time>2019-06-30T07:29:35.000Z</time>
      </trkpt>
      <trkpt lat="43.19145" lon="2.37896">
        <ele>209.8</ele>
        <time>2019-06-30T07:29:36.000Z</time>
      </trkpt>
      <trkpt lat="43.19146" lon="2.37896">
        <ele>209.9</ele>
        <time>2019-06-30T07:29:37.000Z</time>
      </trkpt>
      <trkpt lat="43.19148" lon="2.37897">
        <ele>210</ele>
        <time>2019-06-30T07:29:38.000Z</time>
      </trkpt>
      <trkpt lat="43.19149" lon="2.37898">
        <ele>210.1</ele>
        <time>2019-06-30T07:29:39.000Z</time>
      </trkpt>
      <trkpt lat="43.1915" lon="2.37898">
        <ele>210.2</ele>
        <time>2019-06-30T07:29:40.000Z</time>
      </trkpt>
      <trkpt lat="43.19152" lon="2.37899">
        <ele>210.3</ele>
        <time>2019-06-30T07:29:41.000Z</time>
      </trkpt>
      <trkpt lat="43.19153" lon="2.37899">
        <ele>210.5</ele>
        <time>2019-06-30T07:29:42.000Z</time>
      </trkpt>
      <trkpt lat="43.19154" lon="2.379">
        <ele>210.6</ele>
        <time>2019-06-30T07:29:43.000Z</time>
      </trkpt>
      <trkpt lat="43.19156" lon="2.379">
        <ele>210.7</ele>
        <time>2019-06-30T07:29:44.000Z</time>
      </trkpt>
      <trkpt lat="43.19157" lon="2.37901">
        <ele>210.8</ele>
        <time>2019-06-30T07:29:45.000Z</time>
      </trkpt>
      <trkpt lat="43.19158" lon="2.37901">
        <ele>210.9</ele>
        <time>2019-06-30T07:29:46.000Z</time>
      </trkpt>
      <trkpt lat="43.1916" lon="2.37901">
        <ele>211</ele>
        <time>2019-06-30T07:29:47.000Z</time>
      </trkpt>
      <trkpt lat="43.19161" lon="2.37901">
        <ele>211.1</ele>
        <time>2019-06-30T07:29:48.000Z</time>
      </trkpt>
      <trkpt lat="43.19163" lon="2.37901">
        <ele>211.2</ele>
        <time>2019-06-30T07:29:49.000Z</time>
      </trkpt>
      <trkpt lat="43.19164" lon="2.37901">
        <ele>211.3</ele>
        <time>2019-06-30T07:29:50.000Z</time>
      </trkpt>
      <trkpt lat="43.19166" lon="2.37901">
        <ele>211.4</ele>
        <time>2019-06-30T07:29:51.000Z</time>
      </trkpt>
      <trkpt lat="43.19168" lon="2.37901">
        <ele>211.4</ele>
        <time>2019-06-30T07:29:52.000Z</time>
      </trkpt>
      <trkpt lat="43.19169" lon="2.37901">
        <ele>211.4</ele>
        <time>2019-06-30T07:29:53.000Z</time>
      </trkpt>
      <trkpt lat="43.19171" lon="2.37901">
        <ele>211.4</ele>
        <time>2019-06-30T07:29:54.000Z</time>
      </trkpt>
      <trkpt lat="43.19173" lon="2.379">
        <ele>211.4</ele>
        <time>2019-06-30T07:29:55.000Z</time>
      </trkpt>
      <trkpt lat="43.19175" lon="2.379">
        <ele>211.3</ele>
        <time>2019-06-30T07:29:56.000Z</time>
      </trkpt>
      <trkpt lat="43.19177" lon="2.37899">
        <ele>211.3</ele>
        <time>2019-06-30T07:29:57.000Z</time>
      </trkpt>
      <trkpt lat="43.19179" lon="2.37899">
        <ele>211.3</ele>
        <time>2019-06-30T07:29:58.000Z</time>
      </trkpt>
      <trkpt lat="43.19181" lon="2.37898">
        <ele>211.2</ele>
        <time>2019-06-30T07:29:59.000Z</time>
      </trkpt>
      <trkpt lat="43.19183" lon="2.37898">
        <ele>211.2</ele>
        <time>2019-06-30T07:30:00.000Z</time>
      </trkpt>
      <trkpt lat="43.19185" lon="2.37897">
        <ele>211.2</ele>
        <time>2019-06-30T07:30:01.000Z</time>
      </trkpt>
      <trkpt lat="43.19187" lon="2.37897">
        <ele>211.2</ele>
        <time>2019-06-30T07:30:02.000Z</time>
      </trkpt>
      <trkpt lat="43.19189" lon="2.37896">
        <ele>211.1</ele>
        <time>2019-06-30T07:30:03.000Z</time>
      </trkpt>
      <trkpt lat="43.19192" lon="2.37896">
        <ele>211.1</ele>
        <time>2019-06-30T07:30:04.000Z</time>
      </trkpt>
      <trkpt lat="43.19194" lon="2.37895">
        <ele>211.1</ele>
        <time>2019-06-30T07:30:05.000Z</time>
      </trkpt>
      <trkpt lat="43.19196" lon="2.37895">
        <ele>211</ele>
        <time>2019-06-30T07:30:06.000Z</time>
      </trkpt>
      <trkpt lat="43.19198" lon="2.37894">
        <ele>211</ele>
        <time>2019-06-30T07:30:07.000Z</time>
      </trkpt>
      <trkpt lat="43.19201" lon="2.37893">
        <ele>211</ele>
        <time>2019-06-30T07:30:08.000Z</time>
      </trkpt>
      <trkpt lat="43.19203" lon="2.37892">
        <ele>210.9</ele>
        <time>2019-06-30T07:30:09.000Z</time>
      </trkpt>
      <trkpt lat="43.19205" lon="2.37891">
        <ele>210.9</ele>
        <time>2019-06-30T07:30:10.000Z</time>
      </trkpt>
      <trkpt lat="43.19207" lon="2.37889">
        <ele>210.8</ele>
        <time>2019-06-30T07:30:11.000Z</time>
      </trkpt>
      <trkpt lat="43.19208" lon="2.37887">
        <ele>210.8</ele>
        <time>2019-06-30T07:30:12.000Z</time>
      </trkpt>
      <trkpt lat="43.1921" lon="2.37886">
        <ele>210.7</ele>
        <time>2019-06-30T07:30:13.000Z</time>
      </trkpt>
      <trkpt lat="43.19211" lon="2.37883">
        <ele>210.7</ele>
        <time>2019-06-30T07:30:14.000Z</time>
      </trkpt>
      <trkpt lat="43.19213" lon="2.37881">
        <ele>210.6</ele>
        <time>2019-06-30T07:30:15.000Z</time>
      </trkpt>
      <trkpt lat="43.19214" lon="2.37879">
        <ele>210.6</ele>
        <time>2019-06-30T07:30:16.000Z</time>
      </trkpt>
      <trkpt lat="43.19215" lon="2.37877">
        <ele>210.5</ele>
        <time>2019-06-30T07:30:17.000Z</time>
      </trkpt>
      <trkpt lat="43.19217" lon="2.37875">
        <ele>210.5</ele>
        <time>2019-06-30T07:30:18.000Z</time>
      </trkpt>
      <trkpt lat="43.19218" lon="2.37873">
        <ele>210.5</ele>
        <time>2019-06-30T07:30:19.000Z</time>
      </trkpt>
      <trkpt lat="43.1922" lon="2.37871">
        <ele>210.4</ele>
        <time>2019-06-30T07:30:20.000Z</time>
      </trkpt>
      <trkpt lat="43.19222" lon="2.3787">
        <ele>210.4</ele>
        <time>2019-06-30T07:30:21.000Z</time>
      </trkpt>
      <trkpt lat="43.19224" lon="2.37868">
        <ele>210.4</ele>
        <time>2019-06-30T07:30:22.000Z</time>
      </trkpt>
      <trkpt lat="43.19225" lon="2.37867">
        <ele>210.3</ele>
        <time>2019-06-30T07:30:23.000Z</time>
      </trkpt>
      <trkpt lat="43.19227" lon="2.37865">
        <ele>210.3</ele>
        <time>2019-06-30T07:30:24.000Z</time>
      </trkpt>
      <trkpt lat="43.19229" lon="2.37864">
        <ele>210.3</ele>
        <time>2019-06-30T07:30:25.000Z</time>
      </trkpt>
      <trkpt lat="43.19231" lon="2.37862">
        <ele>210.3</ele>
        <time>2019-06-30T07:30:26.000Z</time>
      </trkpt>
      <trkpt lat="43.19232" lon="2.37861">
        <ele>210.3</ele>
        <time>2019-06-30T07:30:27.000Z</time>
      </trkpt>
      <trkpt lat="43.19234" lon="2.37859">
        <ele>210.2</ele>
        <time>2019-06-30T07:30:28.000Z</time>
      </trkpt>
      <trkpt lat="43.19236" lon="2.37857">
        <ele>210.2</ele>
        <time>2019-06-30T07:30:29.000Z</time>
      </trkpt>
      <trkpt lat="43.19237" lon="2.37856">
        <ele>210.2</ele>
        <time>2019-06-30T07:30:30.000Z</time>
      </trkpt>
      <trkpt lat="43.19239" lon="2.37854">
        <ele>210.2</ele>
        <time>2019-06-30T07:30:31.000Z</time>
      </trkpt>
      <trkpt lat="43.1924" lon="2.37852">
        <ele>210.2</ele>
        <time>2019-06-30T07:30:32.000Z</time>
      </trkpt>
      <trkpt lat="43.19241" lon="2.3785">
        <ele>210.1</ele>
        <time>2019-06-30T07:30:33.000Z</time>
      </trkpt>
      <trkpt lat="43.19242" lon="2.37848">
        <ele>210.1</ele>
        <time>2019-06-30T07:30:34.000Z</time>
      </trkpt>
      <trkpt lat="43.19243" lon="2.37845">
        <ele>210.1</ele>
        <time>2019-06-30T07:30:35.000Z</time>
      </trkpt>
      <trkpt lat="43.19244" lon="2.37843">
        <ele>210.1</ele>
        <time>2019-06-30T07:30:36.000Z</time>
      </trkpt>
      <trkpt lat="43.19245" lon="2.3784">
        <ele>210</ele>
        <time>2019-06-30T07:30:37.000Z</time>
      </trkpt>
      <trkpt lat="43.19246" lon="2.37837">
        <ele>210</ele>
        <time>2019-06-30T07:30:38.000Z</time>
      </trkpt>
      <trkpt lat="43.19247" lon="2.37834">
        <ele>210</ele>
        <time>2019-06-30T07:30:39.000Z</time>
      </trkpt>
      <trkpt lat="43.19247" lon="2.37831">
        <ele>209.9</ele>
        <time>2019-06-30T07:30:40.000Z</time>
      </trkpt>
      <trkpt lat="43.19248" lon="2.37829">
        <ele>209.9</ele>
        <time>2019-06-30T07:30:41.000Z</time>
      </trkpt>
      <trkpt lat="43.19249" lon="2.37826">
        <ele>209.8</ele>
        <time>2019-06-30T07:30:42.000Z</time>
      </trkpt>
      <trkpt lat="43.19249" lon="2.37823">
        <ele>209.7</ele>
        <time>2019-06-30T07:30:43.000Z</time>
      </trkpt>
      <trkpt lat="43.1925" lon="2.3782">
        <ele>209.7</ele>
        <time>2019-06-30T07:30:44.000Z</time>
      </trkpt>
      <trkpt lat="43.1925" lon="2.37817">
        <ele>209.6</ele>
        <time>2019-06-30T07:30:45.000Z</time>
      </trkpt>
      <trkpt lat="43.19251" lon="2.37814">
        <ele>209.4</ele>
        <time>2019-06-30T07:30:46.000Z</time>
      </trkpt>
      <trkpt lat="43.19252" lon="2.37811">
        <ele>209.3</ele>
        <time>2019-06-30T07:30:47.000Z</time>
      </trkpt>
      <trkpt lat="43.19253" lon="2.37808">
        <ele>209.2</ele>
        <time>2019-06-30T07:30:48.000Z</time>
      </trkpt>
      <trkpt lat="43.19253" lon="2.37805">
        <ele>209</ele>
        <time>2019-06-30T07:30:49.000Z</time>
      </trkpt>
      <trkpt lat="43.19254" lon="2.37802">
        <ele>208.9</ele>
        <time>2019-06-30T07:30:50.000Z</time>
      </trkpt>
      <trkpt lat="43.19255" lon="2.37799">
        <ele>208.7</ele>
        <time>2019-06-30T07:30:51.000Z</time>
      </trkpt>
      <trkpt lat="43.19256" lon="2.37797">
        <ele>208.6</ele>
        <time>2019-06-30T07:30:52.000Z</time>
      </trkpt>
      <trkpt lat="43.19257" lon="2.37794">
        <ele>208.4</ele>
        <time>2019-06-30T07:30:53.000Z</time>
      </trkpt>
      <trkpt lat="43.19258" lon="2.37791">
        <ele>208.2</ele>
        <time>2019-06-30T07:30:54.000Z</time>
      </trkpt>
      <trkpt lat="43.19258" lon="2.37787">
        <ele>208.1</ele>
        <time>2019-06-30T07:30:55.000Z</time>
      </trkpt>
      <trkpt lat="43.19259" lon="2.37784">
        <ele>207.9</ele>
        <time>2019-06-30T07:30:56.000Z</time>
      </trkpt>
      <trkpt lat="43.1926" lon="2.37781">
        <ele>207.8</ele>
        <time>2019-06-30T07:30:57.000Z</time>
      </trkpt>
      <trkpt lat="43.1926" lon="2.37778">
        <ele>207.6</ele>
        <time>2019-06-30T07:30:58.000Z</time>
      </trkpt>
      <trkpt lat="43.19261" lon="2.37775">
        <ele>207.5</ele>
        <time>2019-06-30T07:30:59.000Z</time>
      </trkpt>
      <trkpt lat="43.19261" lon="2.37772">
        <ele>207.4</ele>
        <time>2019-06-30T07:31:00.000Z</time>
      </trkpt>
      <trkpt lat="43.19262" lon="2.37769">
        <ele>207.3</ele>
        <time>2019-06-30T07:31:01.000Z</time>
      </trkpt>
      <trkpt lat="43.19262" lon="2.37767">
        <ele>207.2</ele>
        <time>2019-06-30T07:31:02.000Z</time>
      </trkpt>
      <trkpt lat="43.19262" lon="2.37764">
        <ele>207.1</ele>
        <time>2019-06-30T07:31:03.000Z</time>
      </trkpt>
      <trkpt lat="43.19263" lon="2.37761">
        <ele>207</ele>
        <time>2019-06-30T07:31:04.000Z</time>
      </trkpt>
      <trkpt lat="43.19263" lon="2.37759">
        <ele>206.9</ele>
        <time>2019-06-30T07:31:05.000Z</time>
      </trkpt>
      <trkpt lat="43.19263" lon="2.37756">
        <ele>206.8</ele>
        <time>2019-06-30T07:31:06.000Z</time>
      </trkpt>
      <trkpt lat="43.19263" lon="2.37753">
        <ele>206.7</ele>
        <time>2019-06-30T07:31:07.000Z</time>
      </trkpt>
      <trkpt lat="43.19264" lon="2.37751">
        <ele>206.6</ele>
        <time>2019-06-30T07:31:08.000Z</time>
      </trkpt>
      <trkpt lat="43.19264" lon="2.37748">
        <ele>206.5</ele>
        <time>2019-06-30T07:31:09.000Z</time>
      </trkpt>
      <trkpt lat="43.19264" lon="2.37745">
        <ele>206.4</ele>
        <time>2019-06-30T07:31:10.000Z</time>
      </trkpt>
      <trkpt lat="43.19265" lon="2.37743">
        <ele>206.3</ele>
        <time>2019-06-30T07:31:11.000Z</time>
      </trkpt>
      <trkpt lat="43.19265" lon="2.3774">
        <ele>206.2</ele>
        <time>2019-06-30T07:31:12.000Z</time>
      </trkpt>
      <trkpt lat="43.19266" lon="2.37737">
        <ele>206.2</ele>
        <time>2019-06-30T07:31:13.000Z</time>
      </trkpt>
      <trkpt lat="43.19266" lon="2.37734">
        <ele>206.1</ele>
        <time>2019-06-30T07:31:14.000Z</time>
      </trkpt>
      <trkpt lat="43.19266" lon="2.37731">
        <ele>206</ele>
        <time>2019-06-30T07:31:15.000Z</time>
      </trkpt>
      <trkpt lat="43.19266" lon="2.37728">
        <ele>206</ele>
        <time>2019-06-30T07:31:16.000Z</time>
      </trkpt>
      <trkpt lat="43.19266" lon="2.37726">
        <ele>206</ele>
        <time>2019-06-30T07:31:17.000Z</time>
      </trkpt>
      <trkpt lat="43.19266" lon="2.37723">
        <ele>205.9</ele>
        <time>2019-06-30T07:31:18.000Z</time>
      </trkpt>
      <trkpt lat="43.19266" lon="2.3772">
        <ele>205.9</ele>
        <time>2019-06-30T07:31:19.000Z</time>
      </trkpt>
      <trkpt lat="43.19266" lon="2.37717">
        <ele>205.9</ele>
        <time>2019-06-30T07:31:20.000Z</time>
      </trkpt>
      <trkpt lat="43.19266" lon="2.37714">
        <ele>205.9</ele>
        <time>2019-06-30T07:31:21.000Z</time>
      </trkpt>
      <trkpt lat="43.19266" lon="2.37711">
        <ele>205.9</ele>
        <time>2019-06-30T07:31:22.000Z</time>
      </trkpt>
      <trkpt lat="43.19265" lon="2.37708">
        <ele>205.8</ele>
        <time>2019-06-30T07:31:23.000Z</time>
      </trkpt>
      <trkpt lat="43.19265" lon="2.37706">
        <ele>205.8</ele>
        <time>2019-06-30T07:31:24.000Z</time>
      </trkpt>
      <trkpt lat="43.19265" lon="2.37703">
        <ele>205.8</ele>
        <time>2019-06-30T07:31:25.000Z</time>
      </trkpt>
      <trkpt lat="43.19265" lon="2.377">
        <ele>205.8</ele>
        <time>2019-06-30T07:31:26.000Z</time>
      </trkpt>
      <trkpt lat="43.19265" lon="2.37697">
        <ele>205.8</ele>
        <time>2019-06-30T07:31:27.000Z</time>
      </trkpt>
      <trkpt lat="43.19264" lon="2.37694">
        <ele>205.8</ele>
        <time>2019-06-30T07:31:28.000Z</time>
      </trkpt>
      <trkpt lat="43.19264" lon="2.37691">
        <ele>205.8</ele>
        <time>2019-06-30T07:31:29.000Z</time>
      </trkpt>
      <trkpt lat="43.19264" lon="2.37688">
        <ele>205.7</ele>
        <time>2019-06-30T07:31:30.000Z</time>
      </trkpt>
      <trkpt lat="43.19264" lon="2.37685">
        <ele>205.7</ele>
        <time>2019-06-30T07:31:31.000Z</time>
      </trkpt>
      <trkpt lat="43.19264" lon="2.37682">
        <ele>205.7</ele>
        <time>2019-06-30T07:31:32.000Z</time>
      </trkpt>
      <trkpt lat="43.19264" lon="2.37679">
        <ele>205.7</ele>
        <time>2019-06-30T07:31:33.000Z</time>
      </trkpt>
      <trkpt lat="43.19264" lon="2.37676">
        <ele>205.6</ele>
        <time>2019-06-30T07:31:34.000Z</time>
      </trkpt>
      <trkpt lat="43.19264" lon="2.37673">
        <ele>205.6</ele>
        <time>2019-06-30T07:31:35.000Z</time>
      </trkpt>
      <trkpt lat="43.19264" lon="2.3767">
        <ele>205.5</ele>
        <time>2019-06-30T07:31:36.000Z</time>
      </trkpt>
      <trkpt lat="43.19264" lon="2.37667">
        <ele>205.5</ele>
        <time>2019-06-30T07:31:37.000Z</time>
      </trkpt>
      <trkpt lat="43.19264" lon="2.37664">
        <ele>205.5</ele>
        <time>2019-06-30T07:31:38.000Z</time>
      </trkpt>
      <trkpt lat="43.19265" lon="2.37661">
        <ele>205.5</ele>
        <time>2019-06-30T07:31:39.000Z</time>
      </trkpt>
      <trkpt lat="43.19265" lon="2.37658">
        <ele>205.5</ele>
        <time>2019-06-30T07:31:40.000Z</time>
      </trkpt>
      <trkpt lat="43.19266" lon="2.37655">
        <ele>205.5</ele>
        <time>2019-06-30T07:31:41.000Z</time>
      </trkpt>
      <trkpt lat="43.19266" lon="2.37652">
        <ele>205.5</ele>
        <time>2019-06-30T07:31:42.000Z</time>
      </trkpt>
      <trkpt lat="43.19267" lon="2.3765">
        <ele>205.5</ele>
        <time>2019-06-30T07:31:43.000Z</time>
      </trkpt>
      <trkpt lat="43.19268" lon="2.37647">
        <ele>205.4</ele>
        <time>2019-06-30T07:31:44.000Z</time>
      </trkpt>
      <trkpt lat="43.19269" lon="2.37644">
        <ele>205.4</ele>
        <time>2019-06-30T07:31:45.000Z</time>
      </trkpt>
      <trkpt lat="43.1927" lon="2.37641">
        <ele>205.3</ele>
        <time>2019-06-30T07:31:46.000Z</time>
      </trkpt>
      <trkpt lat="43.19271" lon="2.37638">
        <ele>205.3</ele>
        <time>2019-06-30T07:31:47.000Z</time>
      </trkpt>
      <trkpt lat="43.19272" lon="2.37636">
        <ele>205.2</ele>
        <time>2019-06-30T07:31:48.000Z</time>
      </trkpt>
      <trkpt lat="43.19273" lon="2.37633">
        <ele>205.2</ele>
        <time>2019-06-30T07:31:49.000Z</time>
      </trkpt>
      <trkpt lat="43.19274" lon="2.37631">
        <ele>205.1</ele>
        <time>2019-06-30T07:31:50.000Z</time>
      </trkpt>
      <trkpt lat="43.19275" lon="2.37628">
        <ele>205</ele>
        <time>2019-06-30T07:31:51.000Z</time>
      </trkpt>
      <trkpt lat="43.19276" lon="2.37626">
        <ele>205</ele>
        <time>2019-06-30T07:31:52.000Z</time>
      </trkpt>
      <trkpt lat="43.19277" lon="2.37623">
        <ele>204.9</ele>
        <time>2019-06-30T07:31:53.000Z</time>
      </trkpt>
      <trkpt lat="43.19278" lon="2.37621">
        <ele>204.9</ele>
        <time>2019-06-30T07:31:54.000Z</time>
      </trkpt>
      <trkpt lat="43.19279" lon="2.37619">
        <ele>204.8</ele>
        <time>2019-06-30T07:31:55.000Z</time>
      </trkpt>
      <trkpt lat="43.1928" lon="2.37616">
        <ele>204.8</ele>
        <time>2019-06-30T07:31:56.000Z</time>
      </trkpt>
      <trkpt lat="43.1928" lon="2.37614">
        <ele>204.8</ele>
        <time>2019-06-30T07:31:57.000Z</time>
      </trkpt>
      <trkpt lat="43.19281" lon="2.37611">
        <ele>204.8</ele>
        <time>2019-06-30T07:31:58.000Z</time>
      </trkpt>
      <trkpt lat="43.19281" lon="2.37609">
        <ele>204.9</ele>
        <time>2019-06-30T07:31:59.000Z</time>
      </trkpt>
      <trkpt lat="43.19281" lon="2.37606">
        <ele>204.9</ele>
        <time>2019-06-30T07:32:00.000Z</time>
      </trkpt>
      <trkpt lat="43.19281" lon="2.37603">
        <ele>205</ele>
        <time>2019-06-30T07:32:01.000Z</time>
      </trkpt>
      <trkpt lat="43.19281" lon="2.376">
        <ele>205.1</ele>
        <time>2019-06-30T07:32:02.000Z</time>
      </trkpt>
      <trkpt lat="43.19281" lon="2.37597">
        <ele>205.1</ele>
        <time>2019-06-30T07:32:03.000Z</time>
      </trkpt>
      <trkpt lat="43.19281" lon="2.37594">
        <ele>205.2</ele>
        <time>2019-06-30T07:32:04.000Z</time>
      </trkpt>
      <trkpt lat="43.19281" lon="2.37591">
        <ele>205.3</ele>
        <time>2019-06-30T07:32:05.000Z</time>
      </trkpt>
      <trkpt lat="43.19281" lon="2.37588">
        <ele>205.3</ele>
        <time>2019-06-30T07:32:06.000Z</time>
      </trkpt>
      <trkpt lat="43.19281" lon="2.37585">
        <ele>205.4</ele>
        <time>2019-06-30T07:32:07.000Z</time>
      </trkpt>
      <trkpt lat="43.19281" lon="2.37582">
        <ele>205.4</ele>
        <time>2019-06-30T07:32:08.000Z</time>
      </trkpt>
      <trkpt lat="43.19281" lon="2.37579">
        <ele>205.5</ele>
        <time>2019-06-30T07:32:09.000Z</time>
      </trkpt>
      <trkpt lat="43.19281" lon="2.37576">
        <ele>205.5</ele>
        <time>2019-06-30T07:32:10.000Z</time>
      </trkpt>
      <trkpt lat="43.19281" lon="2.37574">
        <ele>205.6</ele>
        <time>2019-06-30T07:32:11.000Z</time>
      </trkpt>
      <trkpt lat="43.1928" lon="2.37572">
        <ele>205.6</ele>
        <time>2019-06-30T07:32:12.000Z</time>
      </trkpt>
      <trkpt lat="43.1928" lon="2.37571">
        <ele>205.7</ele>
        <time>2019-06-30T07:32:13.000Z</time>
      </trkpt>
      <trkpt lat="43.1928" lon="2.3757">
        <ele>205.7</ele>
        <time>2019-06-30T07:32:14.000Z</time>
      </trkpt>
      <trkpt lat="43.19279" lon="2.37569">
        <ele>205.7</ele>
        <time>2019-06-30T07:32:15.000Z</time>
      </trkpt>
      <trkpt lat="43.19279" lon="2.37568">
        <ele>205.8</ele>
        <time>2019-06-30T07:32:16.000Z</time>
      </trkpt>
      <trkpt lat="43.19279" lon="2.37567">
        <ele>205.8</ele>
        <time>2019-06-30T07:32:17.000Z</time>
      </trkpt>
      <trkpt lat="43.19278" lon="2.37566">
        <ele>205.9</ele>
        <time>2019-06-30T07:32:18.000Z</time>
      </trkpt>
      <trkpt lat="43.19278" lon="2.37564">
        <ele>205.9</ele>
        <time>2019-06-30T07:32:19.000Z</time>
      </trkpt>
      <trkpt lat="43.19278" lon="2.37562">
        <ele>205.9</ele>
        <time>2019-06-30T07:32:20.000Z</time>
      </trkpt>
      <trkpt lat="43.19278" lon="2.37561">
        <ele>205.9</ele>
        <time>2019-06-30T07:32:21.000Z</time>
      </trkpt>
      <trkpt lat="43.19278" lon="2.37559">
        <ele>205.9</ele>
        <time>2019-06-30T07:32:22.000Z</time>
      </trkpt>
      <trkpt lat="43.19278" lon="2.37556">
        <ele>206</ele>
        <time>2019-06-30T07:32:23.000Z</time>
      </trkpt>
      <trkpt lat="43.19279" lon="2.37554">
        <ele>206</ele>
        <time>2019-06-30T07:32:24.000Z</time>
      </trkpt>
      <trkpt lat="43.19279" lon="2.37552">
        <ele>206</ele>
        <time>2019-06-30T07:32:25.000Z</time>
      </trkpt>
      <trkpt lat="43.1928" lon="2.3755">
        <ele>206</ele>
        <time>2019-06-30T07:32:26.000Z</time>
      </trkpt>
      <trkpt lat="43.19281" lon="2.37547">
        <ele>206</ele>
        <time>2019-06-30T07:32:27.000Z</time>
      </trkpt>
      <trkpt lat="43.19281" lon="2.37545">
        <ele>206</ele>
        <time>2019-06-30T07:32:28.000Z</time>
      </trkpt>
      <trkpt lat="43.19282" lon="2.37542">
        <ele>206</ele>
        <time>2019-06-30T07:32:29.000Z</time>
      </trkpt>
      <trkpt lat="43.19283" lon="2.3754">
        <ele>206</ele>
        <time>2019-06-30T07:32:30.000Z</time>
      </trkpt>
      <trkpt lat="43.19283" lon="2.37537">
        <ele>206</ele>
        <time>2019-06-30T07:32:31.000Z</time>
      </trkpt>
      <trkpt lat="43.19284" lon="2.37534">
        <ele>206</ele>
        <time>2019-06-30T07:32:32.000Z</time>
      </trkpt>
      <trkpt lat="43.19284" lon="2.37531">
        <ele>206.1</ele>
        <time>2019-06-30T07:32:33.000Z</time>
      </trkpt>
      <trkpt lat="43.19284" lon="2.37528">
        <ele>206.1</ele>
        <time>2019-06-30T07:32:34.000Z</time>
      </trkpt>
      <trkpt lat="43.19284" lon="2.37525">
        <ele>206.2</ele>
        <time>2019-06-30T07:32:35.000Z</time>
      </trkpt>
      <trkpt lat="43.19284" lon="2.37521">
        <ele>206.2</ele>
        <time>2019-06-30T07:32:36.000Z</time>
      </trkpt>
      <trkpt lat="43.19285" lon="2.37518">
        <ele>206.3</ele>
        <time>2019-06-30T07:32:37.000Z</time>
      </trkpt>
      <trkpt lat="43.19285" lon="2.37515">
        <ele>206.3</ele>
        <time>2019-06-30T07:32:38.000Z</time>
      </trkpt>
      <trkpt lat="43.19286" lon="2.37512">
        <ele>206.3</ele>
        <time>2019-06-30T07:32:39.000Z</time>
      </trkpt>
      <trkpt lat="43.19287" lon="2.3751">
        <ele>206.4</ele>
        <time>2019-06-30T07:32:40.000Z</time>
      </trkpt>
      <trkpt lat="43.19289" lon="2.37507">
        <ele>206.4</ele>
        <time>2019-06-30T07:32:41.000Z</time>
      </trkpt>
      <trkpt lat="43.1929" lon="2.37506">
        <ele>206.4</ele>
        <time>2019-06-30T07:32:42.000Z</time>
      </trkpt>
      <trkpt lat="43.19292" lon="2.37504">
        <ele>206.4</ele>
        <time>2019-06-30T07:32:43.000Z</time>
      </trkpt>
      <trkpt lat="43.19295" lon="2.37504">
        <ele>206.4</ele>
        <time>2019-06-30T07:32:44.000Z</time>
      </trkpt>
      <trkpt lat="43.19297" lon="2.37504">
        <ele>206.3</ele>
        <time>2019-06-30T07:32:45.000Z</time>
      </trkpt>
      <trkpt lat="43.19299" lon="2.37503">
        <ele>206.3</ele>
        <time>2019-06-30T07:32:46.000Z</time>
      </trkpt>
      <trkpt lat="43.19301" lon="2.37503">
        <ele>206.3</ele>
        <time>2019-06-30T07:32:47.000Z</time>
      </trkpt>
      <trkpt lat="43.19303" lon="2.37502">
        <ele>206.3</ele>
        <time>2019-06-30T07:32:48.000Z</time>
      </trkpt>
      <trkpt lat="43.19304" lon="2.375">
        <ele>206.4</ele>
        <time>2019-06-30T07:32:49.000Z</time>
      </trkpt>
      <trkpt lat="43.19305" lon="2.37498">
        <ele>206.4</ele>
        <time>2019-06-30T07:32:50.000Z</time>
      </trkpt>
      <trkpt lat="43.19306" lon="2.37496">
        <ele>206.5</ele>
        <time>2019-06-30T07:32:51.000Z</time>
      </trkpt>
      <trkpt lat="43.19307" lon="2.37494">
        <ele>206.6</ele>
        <time>2019-06-30T07:32:52.000Z</time>
      </trkpt>
      <trkpt lat="43.19308" lon="2.37491">
        <ele>206.7</ele>
        <time>2019-06-30T07:32:53.000Z</time>
      </trkpt>
      <trkpt lat="43.19309" lon="2.37488">
        <ele>206.8</ele>
        <time>2019-06-30T07:32:54.000Z</time>
      </trkpt>
      <trkpt lat="43.1931" lon="2.37485">
        <ele>206.9</ele>
        <time>2019-06-30T07:32:55.000Z</time>
      </trkpt>
      <trkpt lat="43.1931" lon="2.37482">
        <ele>207</ele>
        <time>2019-06-30T07:32:56.000Z</time>
      </trkpt>
      <trkpt lat="43.19311" lon="2.37479">
        <ele>207.2</ele>
        <time>2019-06-30T07:32:57.000Z</time>
      </trkpt>
      <trkpt lat="43.19312" lon="2.37476">
        <ele>207.3</ele>
        <time>2019-06-30T07:32:58.000Z</time>
      </trkpt>
      <trkpt lat="43.19312" lon="2.37473">
        <ele>207.4</ele>
        <time>2019-06-30T07:32:59.000Z</time>
      </trkpt>
      <trkpt lat="43.19312" lon="2.3747">
        <ele>207.6</ele>
        <time>2019-06-30T07:33:00.000Z</time>
      </trkpt>
      <trkpt lat="43.19313" lon="2.37467">
        <ele>207.7</ele>
        <time>2019-06-30T07:33:01.000Z</time>
      </trkpt>
      <trkpt lat="43.19313" lon="2.37464">
        <ele>207.9</ele>
        <time>2019-06-30T07:33:02.000Z</time>
      </trkpt>
      <trkpt lat="43.19313" lon="2.37461">
        <ele>208</ele>
        <time>2019-06-30T07:33:03.000Z</time>
      </trkpt>
      <trkpt lat="43.19314" lon="2.37458">
        <ele>208.2</ele>
        <time>2019-06-30T07:33:04.000Z</time>
      </trkpt>
      <trkpt lat="43.19314" lon="2.37456">
        <ele>208.3</ele>
        <time>2019-06-30T07:33:05.000Z</time>
      </trkpt>
      <trkpt lat="43.19314" lon="2.37453">
        <ele>208.4</ele>
        <time>2019-06-30T07:33:06.000Z</time>
      </trkpt>
      <trkpt lat="43.19314" lon="2.37451">
        <ele>208.6</ele>
        <time>2019-06-30T07:33:07.000Z</time>
      </trkpt>
      <trkpt lat="43.19315" lon="2.37449">
        <ele>208.7</ele>
        <time>2019-06-30T07:33:08.000Z</time>
      </trkpt>
      <trkpt lat="43.19315" lon="2.37447">
        <ele>208.8</ele>
        <time>2019-06-30T07:33:09.000Z</time>
      </trkpt>
      <trkpt lat="43.19315" lon="2.37445">
        <ele>208.9</ele>
        <time>2019-06-30T07:33:10.000Z</time>
      </trkpt>
      <trkpt lat="43.19315" lon="2.37443">
        <ele>209</ele>
        <time>2019-06-30T07:33:11.000Z</time>
      </trkpt>
      <trkpt lat="43.19316" lon="2.37441">
        <ele>209.1</ele>
        <time>2019-06-30T07:33:12.000Z</time>
      </trkpt>
      <trkpt lat="43.19316" lon="2.37439">
        <ele>209.2</ele>
        <time>2019-06-30T07:33:13.000Z</time>
      </trkpt>
      <trkpt lat="43.19316" lon="2.37437">
        <ele>209.3</ele>
        <time>2019-06-30T07:33:14.000Z</time>
      </trkpt>
      <trkpt lat="43.19316" lon="2.37434">
        <ele>209.5</ele>
        <time>2019-06-30T07:33:15.000Z</time>
      </trkpt>
      <trkpt lat="43.19316" lon="2.37432">
        <ele>209.6</ele>
        <time>2019-06-30T07:33:16.000Z</time>
      </trkpt>
      <trkpt lat="43.19317" lon="2.37429">
        <ele>209.8</ele>
        <time>2019-06-30T07:33:17.000Z</time>
      </trkpt>
      <trkpt lat="43.19317" lon="2.37426">
        <ele>210</ele>
        <time>2019-06-30T07:33:18.000Z</time>
      </trkpt>
      <trkpt lat="43.19317" lon="2.37423">
        <ele>210.1</ele>
        <time>2019-06-30T07:33:19.000Z</time>
      </trkpt>
      <trkpt lat="43.19318" lon="2.3742">
        <ele>210.3</ele>
        <time>2019-06-30T07:33:20.000Z</time>
      </trkpt>
      <trkpt lat="43.19318" lon="2.37417">
        <ele>210.5</ele>
        <time>2019-06-30T07:33:21.000Z</time>
      </trkpt>
      <trkpt lat="43.19319" lon="2.37414">
        <ele>210.7</ele>
        <time>2019-06-30T07:33:22.000Z</time>
      </trkpt>
      <trkpt lat="43.1932" lon="2.37412">
        <ele>210.9</ele>
        <time>2019-06-30T07:33:23.000Z</time>
      </trkpt>
      <trkpt lat="43.1932" lon="2.3741">
        <ele>211.1</ele>
        <time>2019-06-30T07:33:24.000Z</time>
      </trkpt>
      <trkpt lat="43.19321" lon="2.37407">
        <ele>211.4</ele>
        <time>2019-06-30T07:33:25.000Z</time>
      </trkpt>
      <trkpt lat="43.19322" lon="2.37405">
        <ele>211.6</ele>
        <time>2019-06-30T07:33:26.000Z</time>
      </trkpt>
      <trkpt lat="43.19323" lon="2.37403">
        <ele>211.9</ele>
        <time>2019-06-30T07:33:27.000Z</time>
      </trkpt>
      <trkpt lat="43.19325" lon="2.37401">
        <ele>212.1</ele>
        <time>2019-06-30T07:33:28.000Z</time>
      </trkpt>
      <trkpt lat="43.19326" lon="2.37399">
        <ele>212.4</ele>
        <time>2019-06-30T07:33:29.000Z</time>
      </trkpt>
      <trkpt lat="43.19327" lon="2.37397">
        <ele>212.7</ele>
        <time>2019-06-30T07:33:30.000Z</time>
      </trkpt>
      <trkpt lat="43.19329" lon="2.37395">
        <ele>213</ele>
        <time>2019-06-30T07:33:31.000Z</time>
      </trkpt>
      <trkpt lat="43.1933" lon="2.37393">
        <ele>213.3</ele>
        <time>2019-06-30T07:33:32.000Z</time>
      </trkpt>
      <trkpt lat="43.19331" lon="2.37391">
        <ele>213.5</ele>
        <time>2019-06-30T07:33:33.000Z</time>
      </trkpt>
      <trkpt lat="43.19332" lon="2.37389">
        <ele>213.8</ele>
        <time>2019-06-30T07:33:34.000Z</time>
      </trkpt>
      <trkpt lat="43.19333" lon="2.37387">
        <ele>214.1</ele>
        <time>2019-06-30T07:33:35.000Z</time>
      </trkpt>
      <trkpt lat="43.19333" lon="2.37384">
        <ele>214.3</ele>
        <time>2019-06-30T07:33:36.000Z</time>
      </trkpt>
      <trkpt lat="43.19334" lon="2.37382">
        <ele>214.5</ele>
        <time>2019-06-30T07:33:37.000Z</time>
      </trkpt>
      <trkpt lat="43.19334" lon="2.37379">
        <ele>214.6</ele>
        <time>2019-06-30T07:33:38.000Z</time>
      </trkpt>
      <trkpt lat="43.19334" lon="2.37376">
        <ele>214.8</ele>
        <time>2019-06-30T07:33:39.000Z</time>
      </trkpt>
      <trkpt lat="43.19334" lon="2.37374">
        <ele>215.1</ele>
        <time>2019-06-30T07:33:40.000Z</time>
      </trkpt>
      <trkpt lat="43.19334" lon="2.37371">
        <ele>215.2</ele>
        <time>2019-06-30T07:33:41.000Z</time>
      </trkpt>
      <trkpt lat="43.19334" lon="2.37368">
        <ele>215.4</ele>
        <time>2019-06-30T07:33:42.000Z</time>
      </trkpt>
      <trkpt lat="43.19334" lon="2.37366">
        <ele>215.6</ele>
        <time>2019-06-30T07:33:43.000Z</time>
      </trkpt>
      <trkpt lat="43.19334" lon="2.37364">
        <ele>215.6</ele>
        <time>2019-06-30T07:33:44.000Z</time>
      </trkpt>
      <trkpt lat="43.19335" lon="2.37362">
        <ele>215.7</ele>
        <time>2019-06-30T07:33:45.000Z</time>
      </trkpt>
      <trkpt lat="43.19335" lon="2.3736">
        <ele>215.8</ele>
        <time>2019-06-30T07:33:46.000Z</time>
      </trkpt>
      <trkpt lat="43.19336" lon="2.37358">
        <ele>215.8</ele>
        <time>2019-06-30T07:33:47.000Z</time>
      </trkpt>
      <trkpt lat="43.19336" lon="2.37356">
        <ele>215.8</ele>
        <time>2019-06-30T07:33:48.000Z</time>
      </trkpt>
      <trkpt lat="43.19337" lon="2.37355">
        <ele>215.8</ele>
        <time>2019-06-30T07:33:49.000Z</time>
      </trkpt>
      <trkpt lat="43.19337" lon="2.37353">
        <ele>215.8</ele>
        <time>2019-06-30T07:33:50.000Z</time>
      </trkpt>
      <trkpt lat="43.19338" lon="2.37352">
        <ele>215.8</ele>
        <time>2019-06-30T07:33:51.000Z</time>
      </trkpt>
      <trkpt lat="43.19338" lon="2.3735">
        <ele>215.8</ele>
        <time>2019-06-30T07:33:52.000Z</time>
      </trkpt>
      <trkpt lat="43.19339" lon="2.37348">
        <ele>215.9</ele>
        <time>2019-06-30T07:33:53.000Z</time>
      </trkpt>
      <trkpt lat="43.19339" lon="2.37347">
        <ele>215.9</ele>
        <time>2019-06-30T07:33:54.000Z</time>
      </trkpt>
      <trkpt lat="43.1934" lon="2.37345">
        <ele>215.9</ele>
        <time>2019-06-30T07:33:55.000Z</time>
      </trkpt>
      <trkpt lat="43.1934" lon="2.37344">
        <ele>215.9</ele>
        <time>2019-06-30T07:33:56.000Z</time>
      </trkpt>
      <trkpt lat="43.19341" lon="2.37342">
        <ele>216</ele>
        <time>2019-06-30T07:33:57.000Z</time>
      </trkpt>
      <trkpt lat="43.19341" lon="2.3734">
        <ele>216.1</ele>
        <time>2019-06-30T07:33:58.000Z</time>
      </trkpt>
      <trkpt lat="43.19341" lon="2.37339">
        <ele>216.1</ele>
        <time>2019-06-30T07:33:59.000Z</time>
      </trkpt>
      <trkpt lat="43.19341" lon="2.37337">
        <ele>216.2</ele>
        <time>2019-06-30T07:34:00.000Z</time>
      </trkpt>
      <trkpt lat="43.19341" lon="2.37335">
        <ele>216.4</ele>
        <time>2019-06-30T07:34:01.000Z</time>
      </trkpt>
      <trkpt lat="43.19341" lon="2.37334">
        <ele>216.5</ele>
        <time>2019-06-30T07:34:02.000Z</time>
      </trkpt>
      <trkpt lat="43.1934" lon="2.37333">
        <ele>216.7</ele>
        <time>2019-06-30T07:34:03.000Z</time>
      </trkpt>
      <trkpt lat="43.19339" lon="2.37331">
        <ele>216.8</ele>
        <time>2019-06-30T07:34:04.000Z</time>
      </trkpt>
      <trkpt lat="43.19338" lon="2.37331">
        <ele>217.1</ele>
        <time>2019-06-30T07:34:05.000Z</time>
      </trkpt>
      <trkpt lat="43.19336" lon="2.3733">
        <ele>217.3</ele>
        <time>2019-06-30T07:34:06.000Z</time>
      </trkpt>
      <trkpt lat="43.19335" lon="2.37329">
        <ele>217.6</ele>
        <time>2019-06-30T07:34:07.000Z</time>
      </trkpt>
      <trkpt lat="43.19333" lon="2.37328">
        <ele>217.9</ele>
        <time>2019-06-30T07:34:08.000Z</time>
      </trkpt>
      <trkpt lat="43.19332" lon="2.37326">
        <ele>217.6</ele>
        <time>2019-06-30T07:34:09.000Z</time>
      </trkpt>
      <trkpt lat="43.19331" lon="2.37325">
        <ele>217.4</ele>
        <time>2019-06-30T07:34:10.000Z</time>
      </trkpt>
      <trkpt lat="43.19331" lon="2.37323">
        <ele>217.2</ele>
        <time>2019-06-30T07:34:11.000Z</time>
      </trkpt>
      <trkpt lat="43.19331" lon="2.3732">
        <ele>217.1</ele>
        <time>2019-06-30T07:34:12.000Z</time>
      </trkpt>
      <trkpt lat="43.1933" lon="2.37318">
        <ele>217</ele>
        <time>2019-06-30T07:34:13.000Z</time>
      </trkpt>
      <trkpt lat="43.1933" lon="2.37315">
        <ele>216.9</ele>
        <time>2019-06-30T07:34:14.000Z</time>
      </trkpt>
      <trkpt lat="43.1933" lon="2.37313">
        <ele>216.8</ele>
        <time>2019-06-30T07:34:15.000Z</time>
      </trkpt>
      <trkpt lat="43.19329" lon="2.3731">
        <ele>216.6</ele>
        <time>2019-06-30T07:34:16.000Z</time>
      </trkpt>
      <trkpt lat="43.19329" lon="2.37307">
        <ele>216.4</ele>
        <time>2019-06-30T07:34:17.000Z</time>
      </trkpt>
      <trkpt lat="43.19328" lon="2.37304">
        <ele>216.2</ele>
        <time>2019-06-30T07:34:18.000Z</time>
      </trkpt>
      <trkpt lat="43.19327" lon="2.37302">
        <ele>216</ele>
        <time>2019-06-30T07:34:19.000Z</time>
      </trkpt>
      <trkpt lat="43.19327" lon="2.37299">
        <ele>215.8</ele>
        <time>2019-06-30T07:34:20.000Z</time>
      </trkpt>
      <trkpt lat="43.19327" lon="2.37295">
        <ele>215.6</ele>
        <time>2019-06-30T07:34:21.000Z</time>
      </trkpt>
      <trkpt lat="43.19326" lon="2.37292">
        <ele>215.5</ele>
        <time>2019-06-30T07:34:22.000Z</time>
      </trkpt>
      <trkpt lat="43.19326" lon="2.37289">
        <ele>215.4</ele>
        <time>2019-06-30T07:34:23.000Z</time>
      </trkpt>
      <trkpt lat="43.19326" lon="2.37286">
        <ele>215.3</ele>
        <time>2019-06-30T07:34:24.000Z</time>
      </trkpt>
      <trkpt lat="43.19326" lon="2.37283">
        <ele>215.2</ele>
        <time>2019-06-30T07:34:25.000Z</time>
      </trkpt>
      <trkpt lat="43.19326" lon="2.3728">
        <ele>215.1</ele>
        <time>2019-06-30T07:34:26.000Z</time>
      </trkpt>
      <trkpt lat="43.19326" lon="2.37278">
        <ele>215.1</ele>
        <time>2019-06-30T07:34:27.000Z</time>
      </trkpt>
      <trkpt lat="43.19326" lon="2.37275">
        <ele>215</ele>
        <time>2019-06-30T07:34:28.000Z</time>
      </trkpt>
      <trkpt lat="43.19326" lon="2.37273">
        <ele>214.9</ele>
        <time>2019-06-30T07:34:29.000Z</time>
      </trkpt>
      <trkpt lat="43.19326" lon="2.3727">
        <ele>214.9</ele>
        <time>2019-06-30T07:34:30.000Z</time>
      </trkpt>
      <trkpt lat="43.19326" lon="2.37268">
        <ele>214.8</ele>
        <time>2019-06-30T07:34:31.000Z</time>
      </trkpt>
      <trkpt lat="43.19326" lon="2.37265">
        <ele>214.7</ele>
        <time>2019-06-30T07:34:32.000Z</time>
      </trkpt>
      <trkpt lat="43.19326" lon="2.37263">
        <ele>214.6</ele>
        <time>2019-06-30T07:34:33.000Z</time>
      </trkpt>
      <trkpt lat="43.19326" lon="2.3726">
        <ele>214.5</ele>
        <time>2019-06-30T07:34:34.000Z</time>
      </trkpt>
      <trkpt lat="43.19326" lon="2.37258">
        <ele>214.4</ele>
        <time>2019-06-30T07:34:35.000Z</time>
      </trkpt>
      <trkpt lat="43.19326" lon="2.37255">
        <ele>214.3</ele>
        <time>2019-06-30T07:34:36.000Z</time>
      </trkpt>
      <trkpt lat="43.19325" lon="2.37252">
        <ele>214.3</ele>
        <time>2019-06-30T07:34:37.000Z</time>
      </trkpt>
      <trkpt lat="43.19325" lon="2.3725">
        <ele>214.1</ele>
        <time>2019-06-30T07:34:38.000Z</time>
      </trkpt>
      <trkpt lat="43.19325" lon="2.37247">
        <ele>213.8</ele>
        <time>2019-06-30T07:34:39.000Z</time>
      </trkpt>
      <trkpt lat="43.19325" lon="2.37244">
        <ele>213.5</ele>
        <time>2019-06-30T07:34:40.000Z</time>
      </trkpt>
      <trkpt lat="43.19325" lon="2.37242">
        <ele>213.2</ele>
        <time>2019-06-30T07:34:41.000Z</time>
      </trkpt>
      <trkpt lat="43.19325" lon="2.37239">
        <ele>212.9</ele>
        <time>2019-06-30T07:34:42.000Z</time>
      </trkpt>
      <trkpt lat="43.19325" lon="2.37237">
        <ele>212.7</ele>
        <time>2019-06-30T07:34:43.000Z</time>
      </trkpt>
      <trkpt lat="43.19325" lon="2.37234">
        <ele>212.4</ele>
        <time>2019-06-30T07:34:44.000Z</time>
      </trkpt>
      <trkpt lat="43.19326" lon="2.37232">
        <ele>212.2</ele>
        <time>2019-06-30T07:34:45.000Z</time>
      </trkpt>
      <trkpt lat="43.19326" lon="2.37229">
        <ele>211.9</ele>
        <time>2019-06-30T07:34:46.000Z</time>
      </trkpt>
      <trkpt lat="43.19326" lon="2.37227">
        <ele>211.7</ele>
        <time>2019-06-30T07:34:47.000Z</time>
      </trkpt>
      <trkpt lat="43.19326" lon="2.37224">
        <ele>211.5</ele>
        <time>2019-06-30T07:34:48.000Z</time>
      </trkpt>
      <trkpt lat="43.19327" lon="2.37222">
        <ele>211.3</ele>
        <time>2019-06-30T07:34:49.000Z</time>
      </trkpt>
      <trkpt lat="43.19327" lon="2.3722">
        <ele>211.1</ele>
        <time>2019-06-30T07:34:50.000Z</time>
      </trkpt>
      <trkpt lat="43.19328" lon="2.37217">
        <ele>210.9</ele>
        <time>2019-06-30T07:34:51.000Z</time>
      </trkpt>
      <trkpt lat="43.19328" lon="2.37214">
        <ele>210.7</ele>
        <time>2019-06-30T07:34:52.000Z</time>
      </trkpt>
      <trkpt lat="43.19329" lon="2.37211">
        <ele>210.5</ele>
        <time>2019-06-30T07:34:53.000Z</time>
      </trkpt>
      <trkpt lat="43.19329" lon="2.37208">
        <ele>210.2</ele>
        <time>2019-06-30T07:34:54.000Z</time>
      </trkpt>
      <trkpt lat="43.1933" lon="2.37205">
        <ele>210</ele>
        <time>2019-06-30T07:34:55.000Z</time>
      </trkpt>
      <trkpt lat="43.19331" lon="2.37202">
        <ele>209.7</ele>
        <time>2019-06-30T07:34:56.000Z</time>
      </trkpt>
      <trkpt lat="43.19331" lon="2.37198">
        <ele>209.4</ele>
        <time>2019-06-30T07:34:57.000Z</time>
      </trkpt>
      <trkpt lat="43.19332" lon="2.37195">
        <ele>209.2</ele>
        <time>2019-06-30T07:34:58.000Z</time>
      </trkpt>
      <trkpt lat="43.19333" lon="2.37192">
        <ele>209</ele>
        <time>2019-06-30T07:34:59.000Z</time>
      </trkpt>
      <trkpt lat="43.19334" lon="2.37189">
        <ele>208.6</ele>
        <time>2019-06-30T07:35:00.000Z</time>
      </trkpt>
      <trkpt lat="43.19335" lon="2.37186">
        <ele>208.2</ele>
        <time>2019-06-30T07:35:01.000Z</time>
      </trkpt>
      <trkpt lat="43.19336" lon="2.37183">
        <ele>207.8</ele>
        <time>2019-06-30T07:35:02.000Z</time>
      </trkpt>
      <trkpt lat="43.19338" lon="2.37181">
        <ele>207.3</ele>
        <time>2019-06-30T07:35:03.000Z</time>
      </trkpt>
      <trkpt lat="43.19339" lon="2.37178">
        <ele>207</ele>
        <time>2019-06-30T07:35:04.000Z</time>
      </trkpt>
      <trkpt lat="43.1934" lon="2.37176">
        <ele>206.6</ele>
        <time>2019-06-30T07:35:05.000Z</time>
      </trkpt>
      <trkpt lat="43.19342" lon="2.37174">
        <ele>206.2</ele>
        <time>2019-06-30T07:35:06.000Z</time>
      </trkpt>
      <trkpt lat="43.19343" lon="2.37171">
        <ele>205.8</ele>
        <time>2019-06-30T07:35:07.000Z</time>
      </trkpt>
      <trkpt lat="43.19345" lon="2.37169">
        <ele>205.5</ele>
        <time>2019-06-30T07:35:08.000Z</time>
      </trkpt>
      <trkpt lat="43.19346" lon="2.37167">
        <ele>205.2</ele>
        <time>2019-06-30T07:35:09.000Z</time>
      </trkpt>
      <trkpt lat="43.19347" lon="2.37165">
        <ele>204.8</ele>
        <time>2019-06-30T07:35:10.000Z</time>
      </trkpt>
      <trkpt lat="43.19349" lon="2.37164">
        <ele>204.5</ele>
        <time>2019-06-30T07:35:11.000Z</time>
      </trkpt>
      <trkpt lat="43.1935" lon="2.37162">
        <ele>204.2</ele>
        <time>2019-06-30T07:35:12.000Z</time>
      </trkpt>
      <trkpt lat="43.1935" lon="2.3716">
        <ele>203.9</ele>
        <time>2019-06-30T07:35:13.000Z</time>
      </trkpt>
      <trkpt lat="43.19351" lon="2.37158">
        <ele>203.7</ele>
        <time>2019-06-30T07:35:14.000Z</time>
      </trkpt>
      <trkpt lat="43.19352" lon="2.37156">
        <ele>203.4</ele>
        <time>2019-06-30T07:35:15.000Z</time>
      </trkpt>
      <trkpt lat="43.19352" lon="2.37154">
        <ele>203.1</ele>
        <time>2019-06-30T07:35:16.000Z</time>
      </trkpt>
      <trkpt lat="43.19352" lon="2.37152">
        <ele>202.9</ele>
        <time>2019-06-30T07:35:17.000Z</time>
      </trkpt>
      <trkpt lat="43.19352" lon="2.3715">
        <ele>202.7</ele>
        <time>2019-06-30T07:35:18.000Z</time>
      </trkpt>
      <trkpt lat="43.19351" lon="2.37148">
        <ele>202.5</ele>
        <time>2019-06-30T07:35:19.000Z</time>
      </trkpt>
      <trkpt lat="43.19351" lon="2.37146">
        <ele>202.2</ele>
        <time>2019-06-30T07:35:20.000Z</time>
      </trkpt>
      <trkpt lat="43.1935" lon="2.37144">
        <ele>202</ele>
        <time>2019-06-30T07:35:21.000Z</time>
      </trkpt>
      <trkpt lat="43.1935" lon="2.37142">
        <ele>201.8</ele>
        <time>2019-06-30T07:35:22.000Z</time>
      </trkpt>
      <trkpt lat="43.19349" lon="2.37139">
        <ele>201.5</ele>
        <time>2019-06-30T07:35:23.000Z</time>
      </trkpt>
      <trkpt lat="43.19349" lon="2.37137">
        <ele>201.3</ele>
        <time>2019-06-30T07:35:24.000Z</time>
      </trkpt>
      <trkpt lat="43.19348" lon="2.37134">
        <ele>201</ele>
        <time>2019-06-30T07:35:25.000Z</time>
      </trkpt>
      <trkpt lat="43.19347" lon="2.37132">
        <ele>200.8</ele>
        <time>2019-06-30T07:35:26.000Z</time>
      </trkpt>
      <trkpt lat="43.19347" lon="2.37129">
        <ele>200.5</ele>
        <time>2019-06-30T07:35:27.000Z</time>
      </trkpt>
      <trkpt lat="43.19346" lon="2.37127">
        <ele>200.3</ele>
        <time>2019-06-30T07:35:28.000Z</time>
      </trkpt>
      <trkpt lat="43.19345" lon="2.37124">
        <ele>200.1</ele>
        <time>2019-06-30T07:35:29.000Z</time>
      </trkpt>
      <trkpt lat="43.19345" lon="2.37122">
        <ele>199.9</ele>
        <time>2019-06-30T07:35:30.000Z</time>
      </trkpt>
      <trkpt lat="43.19344" lon="2.37119">
        <ele>199.7</ele>
        <time>2019-06-30T07:35:31.000Z</time>
      </trkpt>
      <trkpt lat="43.19343" lon="2.37117">
        <ele>199.5</ele>
        <time>2019-06-30T07:35:32.000Z</time>
      </trkpt>
      <trkpt lat="43.19342" lon="2.37115">
        <ele>199.3</ele>
        <time>2019-06-30T07:35:33.000Z</time>
      </trkpt>
      <trkpt lat="43.19342" lon="2.37112">
        <ele>199.1</ele>
        <time>2019-06-30T07:35:34.000Z</time>
      </trkpt>
      <trkpt lat="43.19341" lon="2.3711">
        <ele>199</ele>
        <time>2019-06-30T07:35:35.000Z</time>
      </trkpt>
      <trkpt lat="43.19341" lon="2.37108">
        <ele>198.7</ele>
        <time>2019-06-30T07:35:36.000Z</time>
      </trkpt>
      <trkpt lat="43.19341" lon="2.37106">
        <ele>198.5</ele>
        <time>2019-06-30T07:35:37.000Z</time>
      </trkpt>
      <trkpt lat="43.19341" lon="2.37104">
        <ele>198.2</ele>
        <time>2019-06-30T07:35:38.000Z</time>
      </trkpt>
      <trkpt lat="43.19341" lon="2.37102">
        <ele>197.9</ele>
        <time>2019-06-30T07:35:39.000Z</time>
      </trkpt>
      <trkpt lat="43.19342" lon="2.37099">
        <ele>197.6</ele>
        <time>2019-06-30T07:35:40.000Z</time>
      </trkpt>
      <trkpt lat="43.19342" lon="2.37097">
        <ele>197.3</ele>
        <time>2019-06-30T07:35:41.000Z</time>
      </trkpt>
      <trkpt lat="43.19343" lon="2.37095">
        <ele>196.9</ele>
        <time>2019-06-30T07:35:42.000Z</time>
      </trkpt>
      <trkpt lat="43.19344" lon="2.37092">
        <ele>196.6</ele>
        <time>2019-06-30T07:35:43.000Z</time>
      </trkpt>
      <trkpt lat="43.19344" lon="2.3709">
        <ele>196.2</ele>
        <time>2019-06-30T07:35:44.000Z</time>
      </trkpt>
      <trkpt lat="43.19345" lon="2.37087">
        <ele>195.8</ele>
        <time>2019-06-30T07:35:45.000Z</time>
      </trkpt>
      <trkpt lat="43.19345" lon="2.37085">
        <ele>195.5</ele>
        <time>2019-06-30T07:35:46.000Z</time>
      </trkpt>
      <trkpt lat="43.19346" lon="2.37082">
        <ele>195.1</ele>
        <time>2019-06-30T07:35:47.000Z</time>
      </trkpt>
      <trkpt lat="43.19346" lon="2.3708">
        <ele>194.5</ele>
        <time>2019-06-30T07:35:48.000Z</time>
      </trkpt>
      <trkpt lat="43.19346" lon="2.37077">
        <ele>194.1</ele>
        <time>2019-06-30T07:35:49.000Z</time>
      </trkpt>
      <trkpt lat="43.19346" lon="2.37075">
        <ele>193.6</ele>
        <time>2019-06-30T07:35:50.000Z</time>
      </trkpt>
      <trkpt lat="43.19346" lon="2.37073">
        <ele>193.2</ele>
        <time>2019-06-30T07:35:51.000Z</time>
      </trkpt>
      <trkpt lat="43.19346" lon="2.37071">
        <ele>192.9</ele>
        <time>2019-06-30T07:35:52.000Z</time>
      </trkpt>
      <trkpt lat="43.19346" lon="2.37068">
        <ele>192.5</ele>
        <time>2019-06-30T07:35:53.000Z</time>
      </trkpt>
      <trkpt lat="43.19346" lon="2.37066">
        <ele>192.2</ele>
        <time>2019-06-30T07:35:54.000Z</time>
      </trkpt>
      <trkpt lat="43.19345" lon="2.37065">
        <ele>191.9</ele>
        <time>2019-06-30T07:35:55.000Z</time>
      </trkpt>
      <trkpt lat="43.19345" lon="2.37063">
        <ele>191.6</ele>
        <time>2019-06-30T07:35:56.000Z</time>
      </trkpt>
      <trkpt lat="43.19346" lon="2.37061">
        <ele>191.2</ele>
        <time>2019-06-30T07:35:57.000Z</time>
      </trkpt>
      <trkpt lat="43.19346" lon="2.37059">
        <ele>190.9</ele>
        <time>2019-06-30T07:35:58.000Z</time>
      </trkpt>
      <trkpt lat="43.19347" lon="2.37058">
        <ele>190.5</ele>
        <time>2019-06-30T07:35:59.000Z</time>
      </trkpt>
      <trkpt lat="43.19348" lon="2.37056">
        <ele>190.1</ele>
        <time>2019-06-30T07:36:00.000Z</time>
      </trkpt>
      <trkpt lat="43.19349" lon="2.37055">
        <ele>189.8</ele>
        <time>2019-06-30T07:36:01.000Z</time>
      </trkpt>
      <trkpt lat="43.1935" lon="2.37054">
        <ele>189.4</ele>
        <time>2019-06-30T07:36:02.000Z</time>
      </trkpt>
      <trkpt lat="43.19351" lon="2.37053">
        <ele>189.1</ele>
        <time>2019-06-30T07:36:03.000Z</time>
      </trkpt>
      <trkpt lat="43.19353" lon="2.37052">
        <ele>188.8</ele>
        <time>2019-06-30T07:36:04.000Z</time>
      </trkpt>
      <trkpt lat="43.19354" lon="2.37052">
        <ele>188.7</ele>
        <time>2019-06-30T07:36:05.000Z</time>
      </trkpt>
      <trkpt lat="43.19356" lon="2.37052">
        <ele>188.5</ele>
        <time>2019-06-30T07:36:06.000Z</time>
      </trkpt>
      <trkpt lat="43.19357" lon="2.37053">
        <ele>188.5</ele>
        <time>2019-06-30T07:36:07.000Z</time>
      </trkpt>
      <trkpt lat="43.19358" lon="2.37054">
        <ele>188.6</ele>
        <time>2019-06-30T07:36:08.000Z</time>
      </trkpt>
      <trkpt lat="43.19359" lon="2.37055">
        <ele>188.6</ele>
        <time>2019-06-30T07:36:09.000Z</time>
      </trkpt>
      <trkpt lat="43.1936" lon="2.37057">
        <ele>188.8</ele>
        <time>2019-06-30T07:36:10.000Z</time>
      </trkpt>
      <trkpt lat="43.19361" lon="2.37059">
        <ele>188.9</ele>
        <time>2019-06-30T07:36:11.000Z</time>
      </trkpt>
      <trkpt lat="43.19363" lon="2.3706">
        <ele>189.1</ele>
        <time>2019-06-30T07:36:12.000Z</time>
      </trkpt>
      <trkpt lat="43.19364" lon="2.37062">
        <ele>189.2</ele>
        <time>2019-06-30T07:36:13.000Z</time>
      </trkpt>
      <trkpt lat="43.19365" lon="2.37064">
        <ele>189.4</ele>
        <time>2019-06-30T07:36:14.000Z</time>
      </trkpt>
      <trkpt lat="43.19366" lon="2.37066">
        <ele>189.5</ele>
        <time>2019-06-30T07:36:15.000Z</time>
      </trkpt>
      <trkpt lat="43.19367" lon="2.37068">
        <ele>189.7</ele>
        <time>2019-06-30T07:36:16.000Z</time>
      </trkpt>
      <trkpt lat="43.19368" lon="2.3707">
        <ele>189.9</ele>
        <time>2019-06-30T07:36:17.000Z</time>
      </trkpt>
      <trkpt lat="43.19369" lon="2.37072">
        <ele>190</ele>
        <time>2019-06-30T07:36:18.000Z</time>
      </trkpt>
      <trkpt lat="43.1937" lon="2.37073">
        <ele>190.2</ele>
        <time>2019-06-30T07:36:19.000Z</time>
      </trkpt>
      <trkpt lat="43.19371" lon="2.37075">
        <ele>190.3</ele>
        <time>2019-06-30T07:36:20.000Z</time>
      </trkpt>
      <trkpt lat="43.19372" lon="2.37077">
        <ele>190.4</ele>
        <time>2019-06-30T07:36:21.000Z</time>
      </trkpt>
      <trkpt lat="43.19373" lon="2.37079">
        <ele>190.5</ele>
        <time>2019-06-30T07:36:22.000Z</time>
      </trkpt>
      <trkpt lat="43.19375" lon="2.3708">
        <ele>190.6</ele>
        <time>2019-06-30T07:36:23.000Z</time>
      </trkpt>
      <trkpt lat="43.19376" lon="2.37082">
        <ele>190.7</ele>
        <time>2019-06-30T07:36:24.000Z</time>
      </trkpt>
      <trkpt lat="43.19377" lon="2.37083">
        <ele>190.7</ele>
        <time>2019-06-30T07:36:25.000Z</time>
      </trkpt>
      <trkpt lat="43.19378" lon="2.37084">
        <ele>190.6</ele>
        <time>2019-06-30T07:36:26.000Z</time>
      </trkpt>
      <trkpt lat="43.19379" lon="2.37085">
        <ele>190.6</ele>
        <time>2019-06-30T07:36:27.000Z</time>
      </trkpt>
      <trkpt lat="43.1938" lon="2.37085">
        <ele>190.5</ele>
        <time>2019-06-30T07:36:28.000Z</time>
      </trkpt>
      <trkpt lat="43.19382" lon="2.37085">
        <ele>190.4</ele>
        <time>2019-06-30T07:36:29.000Z</time>
      </trkpt>
      <trkpt lat="43.19383" lon="2.37086">
        <ele>190.2</ele>
        <time>2019-06-30T07:36:30.000Z</time>
      </trkpt>
      <trkpt lat="43.19384" lon="2.37085">
        <ele>190</ele>
        <time>2019-06-30T07:36:31.000Z</time>
      </trkpt>
      <trkpt lat="43.19385" lon="2.37084">
        <ele>189.8</ele>
        <time>2019-06-30T07:36:32.000Z</time>
      </trkpt>
      <trkpt lat="43.19385" lon="2.37083">
        <ele>189.5</ele>
        <time>2019-06-30T07:36:33.000Z</time>
      </trkpt>
      <trkpt lat="43.19385" lon="2.37081">
        <ele>189.1</ele>
        <time>2019-06-30T07:36:34.000Z</time>
      </trkpt>
      <trkpt lat="43.19386" lon="2.37078">
        <ele>188.7</ele>
        <time>2019-06-30T07:36:35.000Z</time>
      </trkpt>
      <trkpt lat="43.19386" lon="2.37074">
        <ele>188.2</ele>
        <time>2019-06-30T07:36:36.000Z</time>
      </trkpt>
      <trkpt lat="43.19386" lon="2.37071">
        <ele>187.8</ele>
        <time>2019-06-30T07:36:37.000Z</time>
      </trkpt>
      <trkpt lat="43.19386" lon="2.37068">
        <ele>187.4</ele>
        <time>2019-06-30T07:36:38.000Z</time>
      </trkpt>
      <trkpt lat="43.19386" lon="2.37066">
        <ele>187</ele>
        <time>2019-06-30T07:36:39.000Z</time>
      </trkpt>
      <trkpt lat="43.19386" lon="2.37063">
        <ele>186.6</ele>
        <time>2019-06-30T07:36:40.000Z</time>
      </trkpt>
      <trkpt lat="43.19386" lon="2.3706">
        <ele>186.3</ele>
        <time>2019-06-30T07:36:41.000Z</time>
      </trkpt>
      <trkpt lat="43.19386" lon="2.37058">
        <ele>185.9</ele>
        <time>2019-06-30T07:36:42.000Z</time>
      </trkpt>
      <trkpt lat="43.19386" lon="2.37055">
        <ele>185.4</ele>
        <time>2019-06-30T07:36:43.000Z</time>
      </trkpt>
      <trkpt lat="43.19387" lon="2.37052">
        <ele>185</ele>
        <time>2019-06-30T07:36:44.000Z</time>
      </trkpt>
      <trkpt lat="43.19388" lon="2.3705">
        <ele>184.5</ele>
        <time>2019-06-30T07:36:45.000Z</time>
      </trkpt>
      <trkpt lat="43.19388" lon="2.37047">
        <ele>184.1</ele>
        <time>2019-06-30T07:36:46.000Z</time>
      </trkpt>
      <trkpt lat="43.19389" lon="2.37044">
        <ele>183.6</ele>
        <time>2019-06-30T07:36:47.000Z</time>
      </trkpt>
      <trkpt lat="43.1939" lon="2.37041">
        <ele>183.2</ele>
        <time>2019-06-30T07:36:48.000Z</time>
      </trkpt>
      <trkpt lat="43.1939" lon="2.37038">
        <ele>182.8</ele>
        <time>2019-06-30T07:36:49.000Z</time>
      </trkpt>
      <trkpt lat="43.1939" lon="2.37036">
        <ele>182.4</ele>
        <time>2019-06-30T07:36:50.000Z</time>
      </trkpt>
      <trkpt lat="43.1939" lon="2.37034">
        <ele>182.2</ele>
        <time>2019-06-30T07:36:51.000Z</time>
      </trkpt>
      <trkpt lat="43.19389" lon="2.37033">
        <ele>182.1</ele>
        <time>2019-06-30T07:36:52.000Z</time>
      </trkpt>
      <trkpt lat="43.19389" lon="2.37033">
        <ele>182.2</ele>
        <time>2019-06-30T07:36:53.000Z</time>
      </trkpt>
      <trkpt lat="43.19388" lon="2.37033">
        <ele>182.2</ele>
        <time>2019-06-30T07:36:54.000Z</time>
      </trkpt>
      <trkpt lat="43.19387" lon="2.37033">
        <ele>182.3</ele>
        <time>2019-06-30T07:36:55.000Z</time>
      </trkpt>
      <trkpt lat="43.19387" lon="2.37033">
        <ele>182.3</ele>
        <time>2019-06-30T07:36:56.000Z</time>
      </trkpt>
      <trkpt lat="43.19386" lon="2.37032">
        <ele>182.3</ele>
        <time>2019-06-30T07:36:57.000Z</time>
      </trkpt>
      <trkpt lat="43.19386" lon="2.37032">
        <ele>182.4</ele>
        <time>2019-06-30T07:36:58.000Z</time>
      </trkpt>
      <trkpt lat="43.19385" lon="2.37032">
        <ele>182.4</ele>
        <time>2019-06-30T07:36:59.000Z</time>
      </trkpt>
      <trkpt lat="43.19384" lon="2.37032">
        <ele>182.4</ele>
        <time>2019-06-30T07:37:00.000Z</time>
      </trkpt>
      <trkpt lat="43.19384" lon="2.37032">
        <ele>182.5</ele>
        <time>2019-06-30T07:37:01.000Z</time>
      </trkpt>
      <trkpt lat="43.19383" lon="2.37032">
        <ele>182.5</ele>
        <time>2019-06-30T07:37:02.000Z</time>
      </trkpt>
      <trkpt lat="43.19382" lon="2.37032">
        <ele>182.6</ele>
        <time>2019-06-30T07:37:03.000Z</time>
      </trkpt>
      <trkpt lat="43.19381" lon="2.37032">
        <ele>182.7</ele>
        <time>2019-06-30T07:37:04.000Z</time>
      </trkpt>
      <trkpt lat="43.1938" lon="2.37032">
        <ele>182.8</ele>
        <time>2019-06-30T07:37:05.000Z</time>
      </trkpt>
      <trkpt lat="43.19379" lon="2.37032">
        <ele>182.9</ele>
        <time>2019-06-30T07:37:06.000Z</time>
      </trkpt>
      <trkpt lat="43.19378" lon="2.37032">
        <ele>183</ele>
        <time>2019-06-30T07:37:07.000Z</time>
      </trkpt>
      <trkpt lat="43.19377" lon="2.37032">
        <ele>183.1</ele>
        <time>2019-06-30T07:37:08.000Z</time>
      </trkpt>
      <trkpt lat="43.19376" lon="2.37032">
        <ele>183.2</ele>
        <time>2019-06-30T07:37:09.000Z</time>
      </trkpt>
      <trkpt lat="43.19375" lon="2.37032">
        <ele>183.3</ele>
        <time>2019-06-30T07:37:10.000Z</time>
      </trkpt>
      <trkpt lat="43.19375" lon="2.37032">
        <ele>183.3</ele>
        <time>2019-06-30T07:37:11.000Z</time>
      </trkpt>
      <trkpt lat="43.19374" lon="2.37032">
        <ele>183.4</ele>
        <time>2019-06-30T07:37:12.000Z</time>
      </trkpt>
      <trkpt lat="43.19374" lon="2.37032">
        <ele>183.4</ele>
        <time>2019-06-30T07:37:13.000Z</time>
      </trkpt>
      <trkpt lat="43.19374" lon="2.37032">
        <ele>183.4</ele>
        <time>2019-06-30T07:37:14.000Z</time>
      </trkpt>
      <trkpt lat="43.19374" lon="2.37032">
        <ele>183.4</ele>
        <time>2019-06-30T07:37:15.000Z</time>
      </trkpt>
      <trkpt lat="43.19374" lon="2.37032">
        <ele>183.4</ele>
        <time>2019-06-30T07:37:16.000Z</time>
      </trkpt>
      <trkpt lat="43.19374" lon="2.37032">
        <ele>183.3</ele>
        <time>2019-06-30T07:37:17.000Z</time>
      </trkpt>
      <trkpt lat="43.19373" lon="2.37031">
        <ele>183.3</ele>
        <time>2019-06-30T07:37:18.000Z</time>
      </trkpt>
      <trkpt lat="43.19373" lon="2.3703">
        <ele>183.3</ele>
        <time>2019-06-30T07:37:19.000Z</time>
      </trkpt>
      <trkpt lat="43.19372" lon="2.37029">
        <ele>183.2</ele>
        <time>2019-06-30T07:37:20.000Z</time>
      </trkpt>
      <trkpt lat="43.19371" lon="2.37028">
        <ele>183.1</ele>
        <time>2019-06-30T07:37:21.000Z</time>
      </trkpt>
      <trkpt lat="43.1937" lon="2.37027">
        <ele>182.9</ele>
        <time>2019-06-30T07:37:22.000Z</time>
      </trkpt>
      <trkpt lat="43.1937" lon="2.37026">
        <ele>182.8</ele>
        <time>2019-06-30T07:37:23.000Z</time>
      </trkpt>
      <trkpt lat="43.19369" lon="2.37025">
        <ele>182.8</ele>
        <time>2019-06-30T07:37:24.000Z</time>
      </trkpt>
      <trkpt lat="43.19369" lon="2.37024">
        <ele>182.7</ele>
        <time>2019-06-30T07:37:25.000Z</time>
      </trkpt>
      <trkpt lat="43.19368" lon="2.37024">
        <ele>182.6</ele>
        <time>2019-06-30T07:37:26.000Z</time>
      </trkpt>
      <trkpt lat="43.19368" lon="2.37024">
        <ele>182.6</ele>
        <time>2019-06-30T07:37:27.000Z</time>
      </trkpt>
      <trkpt lat="43.19368" lon="2.37023">
        <ele>182.6</ele>
        <time>2019-06-30T07:37:28.000Z</time>
      </trkpt>
      <trkpt lat="43.19368" lon="2.37023">
        <ele>182.6</ele>
        <time>2019-06-30T07:37:29.000Z</time>
      </trkpt>
      <trkpt lat="43.19368" lon="2.37023">
        <ele>182.5</ele>
        <time>2019-06-30T07:37:30.000Z</time>
      </trkpt>
      <trkpt lat="43.19368" lon="2.37023">
        <ele>182.5</ele>
        <time>2019-06-30T07:37:31.000Z</time>
      </trkpt>
      <trkpt lat="43.19368" lon="2.37023">
        <ele>182.5</ele>
        <time>2019-06-30T07:37:32.000Z</time>
      </trkpt>
      <trkpt lat="43.19368" lon="2.37023">
        <ele>182.6</ele>
        <time>2019-06-30T07:37:33.000Z</time>
      </trkpt>
      <trkpt lat="43.19368" lon="2.37023">
        <ele>182.5</ele>
        <time>2019-06-30T07:37:34.000Z</time>
      </trkpt>
      <trkpt lat="43.19368" lon="2.37023">
        <ele>182.5</ele>
        <time>2019-06-30T07:37:35.000Z</time>
      </trkpt>
      <trkpt lat="43.19368" lon="2.37023">
        <ele>182.5</ele>
        <time>2019-06-30T07:37:36.000Z</time>
      </trkpt>
      <trkpt lat="43.19368" lon="2.37023">
        <ele>182.5</ele>
        <time>2019-06-30T07:37:37.000Z</time>
      </trkpt>
      <trkpt lat="43.19368" lon="2.37023">
        <ele>182.5</ele>
        <time>2019-06-30T07:37:38.000Z</time>
      </trkpt>
      <trkpt lat="43.19368" lon="2.37023">
        <ele>182.5</ele>
        <time>2019-06-30T07:37:39.000Z</time>
      </trkpt>
      <trkpt lat="43.19368" lon="2.37023">
        <ele>182.5</ele>
        <time>2019-06-30T07:37:40.000Z</time>
      </trkpt>
      <trkpt lat="43.19368" lon="2.37023">
        <ele>182.5</ele>
        <time>2019-06-30T07:37:41.000Z</time>
      </trkpt>
      <trkpt lat="43.19368" lon="2.37023">
        <ele>182.5</ele>
        <time>2019-06-30T07:37:42.000Z</time>
      </trkpt>
      <trkpt lat="43.19368" lon="2.37023">
        <ele>182.5</ele>
        <time>2019-06-30T07:37:43.000Z</time>
      </trkpt>
      <trkpt lat="43.19368" lon="2.37023">
        <ele>182.6</ele>
        <time>2019-06-30T07:37:44.000Z</time>
      </trkpt>
      <trkpt lat="43.19368" lon="2.37024">
        <ele>182.7</ele>
        <time>2019-06-30T07:37:45.000Z</time>
      </trkpt>
      <trkpt lat="43.19368" lon="2.37025">
        <ele>182.8</ele>
        <time>2019-06-30T07:37:46.000Z</time>
      </trkpt>
      <trkpt lat="43.19368" lon="2.37025">
        <ele>182.9</ele>
        <time>2019-06-30T07:37:47.000Z</time>
      </trkpt>
      <trkpt lat="43.19368" lon="2.37026">
        <ele>183</ele>
        <time>2019-06-30T07:37:48.000Z</time>
      </trkpt>
      <trkpt lat="43.19368" lon="2.37027">
        <ele>183.1</ele>
        <time>2019-06-30T07:37:49.000Z</time>
      </trkpt>
      <trkpt lat="43.19369" lon="2.37028">
        <ele>183.2</ele>
        <time>2019-06-30T07:37:50.000Z</time>
      </trkpt>
      <trkpt lat="43.1937" lon="2.37029">
        <ele>183.3</ele>
        <time>2019-06-30T07:37:51.000Z</time>
      </trkpt>
      <trkpt lat="43.19371" lon="2.37029">
        <ele>183.3</ele>
        <time>2019-06-30T07:37:52.000Z</time>
      </trkpt>
      <trkpt lat="43.19372" lon="2.3703">
        <ele>183.3</ele>
        <time>2019-06-30T07:37:53.000Z</time>
      </trkpt>
      <trkpt lat="43.19373" lon="2.37031">
        <ele>183.2</ele>
        <time>2019-06-30T07:37:54.000Z</time>
      </trkpt>
      <trkpt lat="43.19375" lon="2.37031">
        <ele>183.2</ele>
        <time>2019-06-30T07:37:55.000Z</time>
      </trkpt>
      <trkpt lat="43.19376" lon="2.37031">
        <ele>183.1</ele>
        <time>2019-06-30T07:37:56.000Z</time>
      </trkpt>
      <trkpt lat="43.19377" lon="2.37032">
        <ele>183.1</ele>
        <time>2019-06-30T07:37:57.000Z</time>
      </trkpt>
      <trkpt lat="43.19378" lon="2.37032">
        <ele>183</ele>
        <time>2019-06-30T07:37:58.000Z</time>
      </trkpt>
      <trkpt lat="43.19379" lon="2.37032">
        <ele>183</ele>
        <time>2019-06-30T07:37:59.000Z</time>
      </trkpt>
      <trkpt lat="43.19379" lon="2.37033">
        <ele>183</ele>
        <time>2019-06-30T07:38:00.000Z</time>
      </trkpt>
      <trkpt lat="43.19379" lon="2.37033">
        <ele>183</ele>
        <time>2019-06-30T07:38:01.000Z</time>
      </trkpt>
      <trkpt lat="43.19379" lon="2.37033">
        <ele>183.1</ele>
        <time>2019-06-30T07:38:02.000Z</time>
      </trkpt>
      <trkpt lat="43.19379" lon="2.37033">
        <ele>183.1</ele>
        <time>2019-06-30T07:38:03.000Z</time>
      </trkpt>
      <trkpt lat="43.19379" lon="2.37033">
        <ele>183.1</ele>
        <time>2019-06-30T07:38:04.000Z</time>
      </trkpt>
      <trkpt lat="43.1938" lon="2.37033">
        <ele>183.1</ele>
        <time>2019-06-30T07:38:05.000Z</time>
      </trkpt>
      <trkpt lat="43.1938" lon="2.37033">
        <ele>183.1</ele>
        <time>2019-06-30T07:38:06.000Z</time>
      </trkpt>
      <trkpt lat="43.19379" lon="2.37033">
        <ele>183.1</ele>
        <time>2019-06-30T07:38:07.000Z</time>
      </trkpt>
      <trkpt lat="43.19379" lon="2.37033">
        <ele>183.1</ele>
        <time>2019-06-30T07:38:08.000Z</time>
      </trkpt>
      <trkpt lat="43.19379" lon="2.37033">
        <ele>183.1</ele>
        <time>2019-06-30T07:38:09.000Z</time>
      </trkpt>
      <trkpt lat="43.19379" lon="2.37033">
        <ele>183.1</ele>
        <time>2019-06-30T07:38:10.000Z</time>
      </trkpt>
      <trkpt lat="43.19379" lon="2.37033">
        <ele>183.1</ele>
        <time>2019-06-30T07:38:11.000Z</time>
      </trkpt>
      <trkpt lat="43.19379" lon="2.37033">
        <ele>183.1</ele>
        <time>2019-06-30T07:38:12.000Z</time>
      </trkpt>
      <trkpt lat="43.19379" lon="2.37033">
        <ele>183.1</ele>
        <time>2019-06-30T07:38:13.000Z</time>
      </trkpt>
      <trkpt lat="43.19379" lon="2.37033">
        <ele>183.1</ele>
        <time>2019-06-30T07:38:14.000Z</time>
      </trkpt>
      <trkpt lat="43.19379" lon="2.37033">
        <ele>183.1</ele>
        <time>2019-06-30T07:38:15.000Z</time>
      </trkpt>
      <trkpt lat="43.1938" lon="2.37033">
        <ele>183.1</ele>
        <time>2019-06-30T07:38:16.000Z</time>
      </trkpt>
      <trkpt lat="43.1938" lon="2.37033">
        <ele>183.1</ele>
        <time>2019-06-30T07:38:17.000Z</time>
      </trkpt>
      <trkpt lat="43.1938" lon="2.37033">
        <ele>183</ele>
        <time>2019-06-30T07:38:18.000Z</time>
      </trkpt>
      <trkpt lat="43.1938" lon="2.37033">
        <ele>183</ele>
        <time>2019-06-30T07:38:19.000Z</time>
      </trkpt>
      <trkpt lat="43.19381" lon="2.37033">
        <ele>183</ele>
        <time>2019-06-30T07:38:20.000Z</time>
      </trkpt>
      <trkpt lat="43.19381" lon="2.37033">
        <ele>182.9</ele>
        <time>2019-06-30T07:38:21.000Z</time>
      </trkpt>
      <trkpt lat="43.19381" lon="2.37033">
        <ele>182.8</ele>
        <time>2019-06-30T07:38:22.000Z</time>
      </trkpt>
      <trkpt lat="43.19382" lon="2.37033">
        <ele>182.8</ele>
        <time>2019-06-30T07:38:23.000Z</time>
      </trkpt>
      <trkpt lat="43.19383" lon="2.37033">
        <ele>182.7</ele>
        <time>2019-06-30T07:38:24.000Z</time>
      </trkpt>
      <trkpt lat="43.19383" lon="2.37033">
        <ele>182.6</ele>
        <time>2019-06-30T07:38:25.000Z</time>
      </trkpt>
      <trkpt lat="43.19384" lon="2.37033">
        <ele>182.6</ele>
        <time>2019-06-30T07:38:26.000Z</time>
      </trkpt>
      <trkpt lat="43.19385" lon="2.37033">
        <ele>182.5</ele>
        <time>2019-06-30T07:38:27.000Z</time>
      </trkpt>
      <trkpt lat="43.19386" lon="2.37033">
        <ele>182.4</ele>
        <time>2019-06-30T07:38:28.000Z</time>
      </trkpt>
      <trkpt lat="43.19386" lon="2.37033">
        <ele>182.3</ele>
        <time>2019-06-30T07:38:29.000Z</time>
      </trkpt>
      <trkpt lat="43.19387" lon="2.37033">
        <ele>182.3</ele>
        <time>2019-06-30T07:38:30.000Z</time>
      </trkpt>
      <trkpt lat="43.19388" lon="2.37033">
        <ele>182.2</ele>
        <time>2019-06-30T07:38:31.000Z</time>
      </trkpt>
      <trkpt lat="43.19389" lon="2.37033">
        <ele>182.1</ele>
        <time>2019-06-30T07:38:32.000Z</time>
      </trkpt>
      <trkpt lat="43.1939" lon="2.37033">
        <ele>182.1</ele>
        <time>2019-06-30T07:38:33.000Z</time>
      </trkpt>
      <trkpt lat="43.19391" lon="2.37033">
        <ele>182</ele>
        <time>2019-06-30T07:38:34.000Z</time>
      </trkpt>
      <trkpt lat="43.19392" lon="2.37034">
        <ele>182</ele>
        <time>2019-06-30T07:38:35.000Z</time>
      </trkpt>
      <trkpt lat="43.19393" lon="2.37034">
        <ele>181.9</ele>
        <time>2019-06-30T07:38:36.000Z</time>
      </trkpt>
      <trkpt lat="43.19394" lon="2.37034">
        <ele>181.9</ele>
        <time>2019-06-30T07:38:37.000Z</time>
      </trkpt>
      <trkpt lat="43.19395" lon="2.37034">
        <ele>181.8</ele>
        <time>2019-06-30T07:38:38.000Z</time>
      </trkpt>
      <trkpt lat="43.19395" lon="2.37035">
        <ele>181.8</ele>
        <time>2019-06-30T07:38:39.000Z</time>
      </trkpt>
      <trkpt lat="43.19396" lon="2.37035">
        <ele>181.7</ele>
        <time>2019-06-30T07:38:40.000Z</time>
      </trkpt>
      <trkpt lat="43.19397" lon="2.37035">
        <ele>181.7</ele>
        <time>2019-06-30T07:38:41.000Z</time>
      </trkpt>
      <trkpt lat="43.19398" lon="2.37036">
        <ele>181.6</ele>
        <time>2019-06-30T07:38:42.000Z</time>
      </trkpt>
      <trkpt lat="43.19399" lon="2.37036">
        <ele>181.6</ele>
        <time>2019-06-30T07:38:43.000Z</time>
      </trkpt>
      <trkpt lat="43.194" lon="2.37036">
        <ele>181.5</ele>
        <time>2019-06-30T07:38:44.000Z</time>
      </trkpt>
      <trkpt lat="43.19401" lon="2.37036">
        <ele>181.4</ele>
        <time>2019-06-30T07:38:45.000Z</time>
      </trkpt>
      <trkpt lat="43.19402" lon="2.37036">
        <ele>181.3</ele>
        <time>2019-06-30T07:38:46.000Z</time>
      </trkpt>
      <trkpt lat="43.19403" lon="2.37036">
        <ele>181.2</ele>
        <time>2019-06-30T07:38:47.000Z</time>
      </trkpt>
      <trkpt lat="43.19404" lon="2.37035">
        <ele>181</ele>
        <time>2019-06-30T07:38:48.000Z</time>
      </trkpt>
      <trkpt lat="43.19405" lon="2.37034">
        <ele>180.8</ele>
        <time>2019-06-30T07:38:49.000Z</time>
      </trkpt>
      <trkpt lat="43.19406" lon="2.37033">
        <ele>180.5</ele>
        <time>2019-06-30T07:38:50.000Z</time>
      </trkpt>
      <trkpt lat="43.19408" lon="2.37032">
        <ele>180.3</ele>
        <time>2019-06-30T07:38:51.000Z</time>
      </trkpt>
      <trkpt lat="43.19409" lon="2.37031">
        <ele>180</ele>
        <time>2019-06-30T07:38:52.000Z</time>
      </trkpt>
      <trkpt lat="43.1941" lon="2.37029">
        <ele>179.8</ele>
        <time>2019-06-30T07:38:53.000Z</time>
      </trkpt>
      <trkpt lat="43.19411" lon="2.37028">
        <ele>179.5</ele>
        <time>2019-06-30T07:38:54.000Z</time>
      </trkpt>
      <trkpt lat="43.19412" lon="2.37027">
        <ele>179.3</ele>
        <time>2019-06-30T07:38:55.000Z</time>
      </trkpt>
      <trkpt lat="43.19413" lon="2.37025">
        <ele>179.1</ele>
        <time>2019-06-30T07:38:56.000Z</time>
      </trkpt>
      <trkpt lat="43.19413" lon="2.37024">
        <ele>178.9</ele>
        <time>2019-06-30T07:38:57.000Z</time>
      </trkpt>
      <trkpt lat="43.19414" lon="2.37023">
        <ele>178.7</ele>
        <time>2019-06-30T07:38:58.000Z</time>
      </trkpt>
      <trkpt lat="43.19415" lon="2.37021">
        <ele>178.5</ele>
        <time>2019-06-30T07:38:59.000Z</time>
      </trkpt>
      <trkpt lat="43.19415" lon="2.3702">
        <ele>178.3</ele>
        <time>2019-06-30T07:39:00.000Z</time>
      </trkpt>
      <trkpt lat="43.19415" lon="2.37019">
        <ele>178.1</ele>
        <time>2019-06-30T07:39:01.000Z</time>
      </trkpt>
      <trkpt lat="43.19416" lon="2.37017">
        <ele>177.9</ele>
        <time>2019-06-30T07:39:02.000Z</time>
      </trkpt>
      <trkpt lat="43.19416" lon="2.37016">
        <ele>177.8</ele>
        <time>2019-06-30T07:39:03.000Z</time>
      </trkpt>
      <trkpt lat="43.19416" lon="2.37015">
        <ele>177.6</ele>
        <time>2019-06-30T07:39:04.000Z</time>
      </trkpt>
      <trkpt lat="43.19417" lon="2.37013">
        <ele>177.4</ele>
        <time>2019-06-30T07:39:05.000Z</time>
      </trkpt>
      <trkpt lat="43.19417" lon="2.37012">
        <ele>177.3</ele>
        <time>2019-06-30T07:39:06.000Z</time>
      </trkpt>
      <trkpt lat="43.19417" lon="2.3701">
        <ele>177.1</ele>
        <time>2019-06-30T07:39:07.000Z</time>
      </trkpt>
      <trkpt lat="43.19417" lon="2.37009">
        <ele>176.9</ele>
        <time>2019-06-30T07:39:08.000Z</time>
      </trkpt>
      <trkpt lat="43.19417" lon="2.37008">
        <ele>176.8</ele>
        <time>2019-06-30T07:39:09.000Z</time>
      </trkpt>
      <trkpt lat="43.19418" lon="2.37006">
        <ele>176.6</ele>
        <time>2019-06-30T07:39:10.000Z</time>
      </trkpt>
      <trkpt lat="43.19418" lon="2.37005">
        <ele>176.5</ele>
        <time>2019-06-30T07:39:11.000Z</time>
      </trkpt>
      <trkpt lat="43.19418" lon="2.37004">
        <ele>176.3</ele>
        <time>2019-06-30T07:39:12.000Z</time>
      </trkpt>
      <trkpt lat="43.19418" lon="2.37002">
        <ele>176.1</ele>
        <time>2019-06-30T07:39:13.000Z</time>
      </trkpt>
      <trkpt lat="43.19418" lon="2.37001">
        <ele>176</ele>
        <time>2019-06-30T07:39:14.000Z</time>
      </trkpt>
      <trkpt lat="43.19418" lon="2.37">
        <ele>175.9</ele>
        <time>2019-06-30T07:39:15.000Z</time>
      </trkpt>
      <trkpt lat="43.19418" lon="2.36998">
        <ele>175.7</ele>
        <time>2019-06-30T07:39:16.000Z</time>
      </trkpt>
      <trkpt lat="43.19419" lon="2.36997">
        <ele>175.6</ele>
        <time>2019-06-30T07:39:17.000Z</time>
      </trkpt>
      <trkpt lat="43.19419" lon="2.36996">
        <ele>175.5</ele>
        <time>2019-06-30T07:39:18.000Z</time>
      </trkpt>
      <trkpt lat="43.19419" lon="2.36995">
        <ele>175.4</ele>
        <time>2019-06-30T07:39:19.000Z</time>
      </trkpt>
      <trkpt lat="43.19419" lon="2.36994">
        <ele>175.2</ele>
        <time>2019-06-30T07:39:20.000Z</time>
      </trkpt>
      <trkpt lat="43.19419" lon="2.36992">
        <ele>175.1</ele>
        <time>2019-06-30T07:39:21.000Z</time>
      </trkpt>
      <trkpt lat="43.19419" lon="2.36991">
        <ele>175</ele>
        <time>2019-06-30T07:39:22.000Z</time>
      </trkpt>
      <trkpt lat="43.19419" lon="2.3699">
        <ele>174.9</ele>
        <time>2019-06-30T07:39:23.000Z</time>
      </trkpt>
      <trkpt lat="43.1942" lon="2.36989">
        <ele>174.8</ele>
        <time>2019-06-30T07:39:24.000Z</time>
      </trkpt>
      <trkpt lat="43.1942" lon="2.36988">
        <ele>174.7</ele>
        <time>2019-06-30T07:39:25.000Z</time>
      </trkpt>
      <trkpt lat="43.1942" lon="2.36987">
        <ele>174.6</ele>
        <time>2019-06-30T07:39:26.000Z</time>
      </trkpt>
      <trkpt lat="43.19421" lon="2.36986">
        <ele>174.4</ele>
        <time>2019-06-30T07:39:27.000Z</time>
      </trkpt>
      <trkpt lat="43.19422" lon="2.36985">
        <ele>174.3</ele>
        <time>2019-06-30T07:39:28.000Z</time>
      </trkpt>
      <trkpt lat="43.19423" lon="2.36984">
        <ele>174.1</ele>
        <time>2019-06-30T07:39:29.000Z</time>
      </trkpt>
      <trkpt lat="43.19424" lon="2.36983">
        <ele>174</ele>
        <time>2019-06-30T07:39:30.000Z</time>
      </trkpt>
      <trkpt lat="43.19425" lon="2.36983">
        <ele>173.9</ele>
        <time>2019-06-30T07:39:31.000Z</time>
      </trkpt>
      <trkpt lat="43.19426" lon="2.36983">
        <ele>173.9</ele>
        <time>2019-06-30T07:39:32.000Z</time>
      </trkpt>
      <trkpt lat="43.19427" lon="2.36983">
        <ele>173.8</ele>
        <time>2019-06-30T07:39:33.000Z</time>
      </trkpt>
      <trkpt lat="43.19428" lon="2.36984">
        <ele>173.8</ele>
        <time>2019-06-30T07:39:34.000Z</time>
      </trkpt>
      <trkpt lat="43.19429" lon="2.36984">
        <ele>173.8</ele>
        <time>2019-06-30T07:39:35.000Z</time>
      </trkpt>
      <trkpt lat="43.1943" lon="2.36985">
        <ele>173.8</ele>
        <time>2019-06-30T07:39:36.000Z</time>
      </trkpt>
      <trkpt lat="43.19431" lon="2.36986">
        <ele>173.8</ele>
        <time>2019-06-30T07:39:37.000Z</time>
      </trkpt>
      <trkpt lat="43.19432" lon="2.36986">
        <ele>173.8</ele>
        <time>2019-06-30T07:39:38.000Z</time>
      </trkpt>
      <trkpt lat="43.19433" lon="2.36987">
        <ele>173.8</ele>
        <time>2019-06-30T07:39:39.000Z</time>
      </trkpt>
      <trkpt lat="43.19434" lon="2.36987">
        <ele>173.8</ele>
        <time>2019-06-30T07:39:40.000Z</time>
      </trkpt>
      <trkpt lat="43.19435" lon="2.36988">
        <ele>173.8</ele>
        <time>2019-06-30T07:39:41.000Z</time>
      </trkpt>
      <trkpt lat="43.19436" lon="2.36988">
        <ele>173.8</ele>
        <time>2019-06-30T07:39:42.000Z</time>
      </trkpt>
      <trkpt lat="43.19437" lon="2.36988">
        <ele>173.8</ele>
        <time>2019-06-30T07:39:43.000Z</time>
      </trkpt>
      <trkpt lat="43.19438" lon="2.36989">
        <ele>173.7</ele>
        <time>2019-06-30T07:39:44.000Z</time>
      </trkpt>
      <trkpt lat="43.19439" lon="2.36989">
        <ele>173.7</ele>
        <time>2019-06-30T07:39:45.000Z</time>
      </trkpt>
      <trkpt lat="43.1944" lon="2.3699">
        <ele>173.7</ele>
        <time>2019-06-30T07:39:46.000Z</time>
      </trkpt>
      <trkpt lat="43.19441" lon="2.3699">
        <ele>173.7</ele>
        <time>2019-06-30T07:39:47.000Z</time>
      </trkpt>
      <trkpt lat="43.19442" lon="2.3699">
        <ele>173.6</ele>
        <time>2019-06-30T07:39:48.000Z</time>
      </trkpt>
      <trkpt lat="43.19443" lon="2.36991">
        <ele>173.6</ele>
        <time>2019-06-30T07:39:49.000Z</time>
      </trkpt>
      <trkpt lat="43.19444" lon="2.36991">
        <ele>173.6</ele>
        <time>2019-06-30T07:39:50.000Z</time>
      </trkpt>
      <trkpt lat="43.19446" lon="2.36991">
        <ele>173.5</ele>
        <time>2019-06-30T07:39:51.000Z</time>
      </trkpt>
      <trkpt lat="43.19447" lon="2.36992">
        <ele>173.5</ele>
        <time>2019-06-30T07:39:52.000Z</time>
      </trkpt>
      <trkpt lat="43.19448" lon="2.36992">
        <ele>173.5</ele>
        <time>2019-06-30T07:39:53.000Z</time>
      </trkpt>
      <trkpt lat="43.19449" lon="2.36993">
        <ele>173.5</ele>
        <time>2019-06-30T07:39:54.000Z</time>
      </trkpt>
      <trkpt lat="43.1945" lon="2.36993">
        <ele>173.4</ele>
        <time>2019-06-30T07:39:55.000Z</time>
      </trkpt>
      <trkpt lat="43.19451" lon="2.36993">
        <ele>173.4</ele>
        <time>2019-06-30T07:39:56.000Z</time>
      </trkpt>
      <trkpt lat="43.19452" lon="2.36994">
        <ele>173.4</ele>
        <time>2019-06-30T07:39:57.000Z</time>
      </trkpt>
      <trkpt lat="43.19453" lon="2.36994">
        <ele>173.3</ele>
        <time>2019-06-30T07:39:58.000Z</time>
      </trkpt>
      <trkpt lat="43.19454" lon="2.36994">
        <ele>173.3</ele>
        <time>2019-06-30T07:39:59.000Z</time>
      </trkpt>
      <trkpt lat="43.19455" lon="2.36995">
        <ele>173.3</ele>
        <time>2019-06-30T07:40:00.000Z</time>
      </trkpt>
      <trkpt lat="43.19456" lon="2.36995">
        <ele>173.2</ele>
        <time>2019-06-30T07:40:01.000Z</time>
      </trkpt>
      <trkpt lat="43.19457" lon="2.36995">
        <ele>173.2</ele>
        <time>2019-06-30T07:40:02.000Z</time>
      </trkpt>
      <trkpt lat="43.19458" lon="2.36996">
        <ele>173.2</ele>
        <time>2019-06-30T07:40:03.000Z</time>
      </trkpt>
      <trkpt lat="43.19459" lon="2.36996">
        <ele>173.2</ele>
        <time>2019-06-30T07:40:04.000Z</time>
      </trkpt>
      <trkpt lat="43.1946" lon="2.36996">
        <ele>173.1</ele>
        <time>2019-06-30T07:40:05.000Z</time>
      </trkpt>
      <trkpt lat="43.1946" lon="2.36997">
        <ele>173.1</ele>
        <time>2019-06-30T07:40:06.000Z</time>
      </trkpt>
      <trkpt lat="43.19461" lon="2.36997">
        <ele>173.1</ele>
        <time>2019-06-30T07:40:07.000Z</time>
      </trkpt>
      <trkpt lat="43.19462" lon="2.36997">
        <ele>173.1</ele>
        <time>2019-06-30T07:40:08.000Z</time>
      </trkpt>
      <trkpt lat="43.19463" lon="2.36998">
        <ele>173</ele>
        <time>2019-06-30T07:40:09.000Z</time>
      </trkpt>
      <trkpt lat="43.19464" lon="2.36998">
        <ele>173</ele>
        <time>2019-06-30T07:40:10.000Z</time>
      </trkpt>
      <trkpt lat="43.19465" lon="2.36998">
        <ele>173</ele>
        <time>2019-06-30T07:40:11.000Z</time>
      </trkpt>
      <trkpt lat="43.19466" lon="2.36999">
        <ele>173</ele>
        <time>2019-06-30T07:40:12.000Z</time>
      </trkpt>
      <trkpt lat="43.19466" lon="2.36999">
        <ele>172.9</ele>
        <time>2019-06-30T07:40:13.000Z</time>
      </trkpt>
      <trkpt lat="43.19467" lon="2.36999">
        <ele>172.9</ele>
        <time>2019-06-30T07:40:14.000Z</time>
      </trkpt>
      <trkpt lat="43.19468" lon="2.37">
        <ele>172.9</ele>
        <time>2019-06-30T07:40:15.000Z</time>
      </trkpt>
      <trkpt lat="43.19469" lon="2.37">
        <ele>172.9</ele>
        <time>2019-06-30T07:40:16.000Z</time>
      </trkpt>
      <trkpt lat="43.1947" lon="2.37001">
        <ele>172.8</ele>
        <time>2019-06-30T07:40:17.000Z</time>
      </trkpt>
      <trkpt lat="43.19471" lon="2.37001">
        <ele>172.8</ele>
        <time>2019-06-30T07:40:18.000Z</time>
      </trkpt>
      <trkpt lat="43.19472" lon="2.37001">
        <ele>172.8</ele>
        <time>2019-06-30T07:40:19.000Z</time>
      </trkpt>
      <trkpt lat="43.19473" lon="2.37002">
        <ele>172.7</ele>
        <time>2019-06-30T07:40:20.000Z</time>
      </trkpt>
      <trkpt lat="43.19474" lon="2.37002">
        <ele>172.7</ele>
        <time>2019-06-30T07:40:21.000Z</time>
      </trkpt>
      <trkpt lat="43.19475" lon="2.37003">
        <ele>172.7</ele>
        <time>2019-06-30T07:40:22.000Z</time>
      </trkpt>
      <trkpt lat="43.19476" lon="2.37003">
        <ele>172.6</ele>
        <time>2019-06-30T07:40:23.000Z</time>
      </trkpt>
      <trkpt lat="43.19477" lon="2.37004">
        <ele>172.6</ele>
        <time>2019-06-30T07:40:24.000Z</time>
      </trkpt>
      <trkpt lat="43.19478" lon="2.37004">
        <ele>172.6</ele>
        <time>2019-06-30T07:40:25.000Z</time>
      </trkpt>
      <trkpt lat="43.19479" lon="2.37005">
        <ele>172.5</ele>
        <time>2019-06-30T07:40:26.000Z</time>
      </trkpt>
      <trkpt lat="43.1948" lon="2.37005">
        <ele>172.5</ele>
        <time>2019-06-30T07:40:27.000Z</time>
      </trkpt>
      <trkpt lat="43.19481" lon="2.37005">
        <ele>172.4</ele>
        <time>2019-06-30T07:40:28.000Z</time>
      </trkpt>
      <trkpt lat="43.19483" lon="2.37006">
        <ele>172.4</ele>
        <time>2019-06-30T07:40:29.000Z</time>
      </trkpt>
      <trkpt lat="43.19484" lon="2.37006">
        <ele>172.4</ele>
        <time>2019-06-30T07:40:30.000Z</time>
      </trkpt>
      <trkpt lat="43.19485" lon="2.37007">
        <ele>172.3</ele>
        <time>2019-06-30T07:40:31.000Z</time>
      </trkpt>
      <trkpt lat="43.19486" lon="2.37007">
        <ele>172.3</ele>
        <time>2019-06-30T07:40:32.000Z</time>
      </trkpt>
      <trkpt lat="43.19487" lon="2.37008">
        <ele>172.2</ele>
        <time>2019-06-30T07:40:33.000Z</time>
      </trkpt>
      <trkpt lat="43.19488" lon="2.37008">
        <ele>172.2</ele>
        <time>2019-06-30T07:40:34.000Z</time>
      </trkpt>
      <trkpt lat="43.19489" lon="2.37009">
        <ele>172.1</ele>
        <time>2019-06-30T07:40:35.000Z</time>
      </trkpt>
      <trkpt lat="43.1949" lon="2.37009">
        <ele>172.1</ele>
        <time>2019-06-30T07:40:36.000Z</time>
      </trkpt>
      <trkpt lat="43.19491" lon="2.37009">
        <ele>172</ele>
        <time>2019-06-30T07:40:37.000Z</time>
      </trkpt>
      <trkpt lat="43.19493" lon="2.3701">
        <ele>172</ele>
        <time>2019-06-30T07:40:38.000Z</time>
      </trkpt>
      <trkpt lat="43.19494" lon="2.3701">
        <ele>171.9</ele>
        <time>2019-06-30T07:40:39.000Z</time>
      </trkpt>
      <trkpt lat="43.19495" lon="2.3701">
        <ele>171.9</ele>
        <time>2019-06-30T07:40:40.000Z</time>
      </trkpt>
      <trkpt lat="43.19496" lon="2.37011">
        <ele>171.8</ele>
        <time>2019-06-30T07:40:41.000Z</time>
      </trkpt>
      <trkpt lat="43.19497" lon="2.37011">
        <ele>171.7</ele>
        <time>2019-06-30T07:40:42.000Z</time>
      </trkpt>
      <trkpt lat="43.19498" lon="2.37011">
        <ele>171.7</ele>
        <time>2019-06-30T07:40:43.000Z</time>
      </trkpt>
      <trkpt lat="43.19499" lon="2.37011">
        <ele>171.6</ele>
        <time>2019-06-30T07:40:44.000Z</time>
      </trkpt>
      <trkpt lat="43.195" lon="2.37011">
        <ele>171.5</ele>
        <time>2019-06-30T07:40:45.000Z</time>
      </trkpt>
      <trkpt lat="43.19501" lon="2.37012">
        <ele>171.5</ele>
        <time>2019-06-30T07:40:46.000Z</time>
      </trkpt>
      <trkpt lat="43.19502" lon="2.37012">
        <ele>171.5</ele>
        <time>2019-06-30T07:40:47.000Z</time>
      </trkpt>
      <trkpt lat="43.19504" lon="2.37012">
        <ele>171.5</ele>
        <time>2019-06-30T07:40:48.000Z</time>
      </trkpt>
      <trkpt lat="43.19505" lon="2.37012">
        <ele>171.4</ele>
        <time>2019-06-30T07:40:49.000Z</time>
      </trkpt>
      <trkpt lat="43.19506" lon="2.37012">
        <ele>171.4</ele>
        <time>2019-06-30T07:40:50.000Z</time>
      </trkpt>
      <trkpt lat="43.19507" lon="2.37012">
        <ele>171.4</ele>
        <time>2019-06-30T07:40:51.000Z</time>
      </trkpt>
      <trkpt lat="43.19508" lon="2.37013">
        <ele>171.4</ele>
        <time>2019-06-30T07:40:52.000Z</time>
      </trkpt>
      <trkpt lat="43.19509" lon="2.37013">
        <ele>171.4</ele>
        <time>2019-06-30T07:40:53.000Z</time>
      </trkpt>
      <trkpt lat="43.1951" lon="2.37013">
        <ele>171.4</ele>
        <time>2019-06-30T07:40:54.000Z</time>
      </trkpt>
      <trkpt lat="43.19511" lon="2.37014">
        <ele>171.3</ele>
        <time>2019-06-30T07:40:55.000Z</time>
      </trkpt>
      <trkpt lat="43.19512" lon="2.37014">
        <ele>171.3</ele>
        <time>2019-06-30T07:40:56.000Z</time>
      </trkpt>
      <trkpt lat="43.19513" lon="2.37015">
        <ele>171.3</ele>
        <time>2019-06-30T07:40:57.000Z</time>
      </trkpt>
      <trkpt lat="43.19514" lon="2.37015">
        <ele>171.3</ele>
        <time>2019-06-30T07:40:58.000Z</time>
      </trkpt>
      <trkpt lat="43.19515" lon="2.37016">
        <ele>171.3</ele>
        <time>2019-06-30T07:40:59.000Z</time>
      </trkpt>
      <trkpt lat="43.19516" lon="2.37016">
        <ele>171.3</ele>
        <time>2019-06-30T07:41:00.000Z</time>
      </trkpt>
      <trkpt lat="43.19518" lon="2.37017">
        <ele>171.3</ele>
        <time>2019-06-30T07:41:01.000Z</time>
      </trkpt>
      <trkpt lat="43.19519" lon="2.37017">
        <ele>171.3</ele>
        <time>2019-06-30T07:41:02.000Z</time>
      </trkpt>
      <trkpt lat="43.1952" lon="2.37018">
        <ele>171.3</ele>
        <time>2019-06-30T07:41:03.000Z</time>
      </trkpt>
      <trkpt lat="43.19521" lon="2.37018">
        <ele>171.3</ele>
        <time>2019-06-30T07:41:04.000Z</time>
      </trkpt>
      <trkpt lat="43.19522" lon="2.37019">
        <ele>171.3</ele>
        <time>2019-06-30T07:41:05.000Z</time>
      </trkpt>
      <trkpt lat="43.19523" lon="2.37019">
        <ele>171.3</ele>
        <time>2019-06-30T07:41:06.000Z</time>
      </trkpt>
      <trkpt lat="43.19524" lon="2.3702">
        <ele>171.2</ele>
        <time>2019-06-30T07:41:07.000Z</time>
      </trkpt>
      <trkpt lat="43.19525" lon="2.37021">
        <ele>171.2</ele>
        <time>2019-06-30T07:41:08.000Z</time>
      </trkpt>
      <trkpt lat="43.19526" lon="2.37021">
        <ele>171.2</ele>
        <time>2019-06-30T07:41:09.000Z</time>
      </trkpt>
      <trkpt lat="43.19527" lon="2.37022">
        <ele>171.2</ele>
        <time>2019-06-30T07:41:10.000Z</time>
      </trkpt>
      <trkpt lat="43.19528" lon="2.37022">
        <ele>171.2</ele>
        <time>2019-06-30T07:41:11.000Z</time>
      </trkpt>
      <trkpt lat="43.19529" lon="2.37023">
        <ele>171.2</ele>
        <time>2019-06-30T07:41:12.000Z</time>
      </trkpt>
      <trkpt lat="43.1953" lon="2.37023">
        <ele>171.2</ele>
        <time>2019-06-30T07:41:13.000Z</time>
      </trkpt>
      <trkpt lat="43.19531" lon="2.37024">
        <ele>171.2</ele>
        <time>2019-06-30T07:41:14.000Z</time>
      </trkpt>
      <trkpt lat="43.19532" lon="2.37024">
        <ele>171.2</ele>
        <time>2019-06-30T07:41:15.000Z</time>
      </trkpt>
      <trkpt lat="43.19533" lon="2.37025">
        <ele>171.2</ele>
        <time>2019-06-30T07:41:16.000Z</time>
      </trkpt>
      <trkpt lat="43.19534" lon="2.37025">
        <ele>171.1</ele>
        <time>2019-06-30T07:41:17.000Z</time>
      </trkpt>
      <trkpt lat="43.19535" lon="2.37026">
        <ele>171.1</ele>
        <time>2019-06-30T07:41:18.000Z</time>
      </trkpt>
      <trkpt lat="43.19536" lon="2.37026">
        <ele>171.1</ele>
        <time>2019-06-30T07:41:19.000Z</time>
      </trkpt>
      <trkpt lat="43.19536" lon="2.37026">
        <ele>171.1</ele>
        <time>2019-06-30T07:41:20.000Z</time>
      </trkpt>
      <trkpt lat="43.19537" lon="2.37026">
        <ele>171.1</ele>
        <time>2019-06-30T07:41:21.000Z</time>
      </trkpt>
      <trkpt lat="43.19537" lon="2.37026">
        <ele>171.1</ele>
        <time>2019-06-30T07:41:22.000Z</time>
      </trkpt>
      <trkpt lat="43.19538" lon="2.37027">
        <ele>171.1</ele>
        <time>2019-06-30T07:41:23.000Z</time>
      </trkpt>
      <trkpt lat="43.19538" lon="2.37027">
        <ele>171.1</ele>
        <time>2019-06-30T07:41:24.000Z</time>
      </trkpt>
      <trkpt lat="43.19539" lon="2.37027">
        <ele>171.1</ele>
        <time>2019-06-30T07:41:25.000Z</time>
      </trkpt>
      <trkpt lat="43.1954" lon="2.37028">
        <ele>171</ele>
        <time>2019-06-30T07:41:26.000Z</time>
      </trkpt>
      <trkpt lat="43.19542" lon="2.37028">
        <ele>171</ele>
        <time>2019-06-30T07:41:27.000Z</time>
      </trkpt>
      <trkpt lat="43.19543" lon="2.37029">
        <ele>171</ele>
        <time>2019-06-30T07:41:28.000Z</time>
      </trkpt>
      <trkpt lat="43.19545" lon="2.3703">
        <ele>171</ele>
        <time>2019-06-30T07:41:29.000Z</time>
      </trkpt>
      <trkpt lat="43.19547" lon="2.37032">
        <ele>170.9</ele>
        <time>2019-06-30T07:41:30.000Z</time>
      </trkpt>
      <trkpt lat="43.1955" lon="2.37032">
        <ele>170.9</ele>
        <time>2019-06-30T07:41:31.000Z</time>
      </trkpt>
      <trkpt lat="43.19552" lon="2.37033">
        <ele>170.8</ele>
        <time>2019-06-30T07:41:32.000Z</time>
      </trkpt>
      <trkpt lat="43.19555" lon="2.37034">
        <ele>170.8</ele>
        <time>2019-06-30T07:41:33.000Z</time>
      </trkpt>
      <trkpt lat="43.19557" lon="2.37034">
        <ele>170.7</ele>
        <time>2019-06-30T07:41:34.000Z</time>
      </trkpt>
      <trkpt lat="43.1956" lon="2.37035">
        <ele>170.6</ele>
        <time>2019-06-30T07:41:35.000Z</time>
      </trkpt>
      <trkpt lat="43.19563" lon="2.37035">
        <ele>170.5</ele>
        <time>2019-06-30T07:41:36.000Z</time>
      </trkpt>
      <trkpt lat="43.19565" lon="2.37035">
        <ele>170.4</ele>
        <time>2019-06-30T07:41:37.000Z</time>
      </trkpt>
      <trkpt lat="43.19568" lon="2.37035">
        <ele>170.3</ele>
        <time>2019-06-30T07:41:38.000Z</time>
      </trkpt>
      <trkpt lat="43.19571" lon="2.37034">
        <ele>170.2</ele>
        <time>2019-06-30T07:41:39.000Z</time>
      </trkpt>
      <trkpt lat="43.19574" lon="2.37034">
        <ele>170.1</ele>
        <time>2019-06-30T07:41:40.000Z</time>
      </trkpt>
      <trkpt lat="43.19576" lon="2.37034">
        <ele>170.1</ele>
        <time>2019-06-30T07:41:41.000Z</time>
      </trkpt>
      <trkpt lat="43.19579" lon="2.37033">
        <ele>170</ele>
        <time>2019-06-30T07:41:42.000Z</time>
      </trkpt>
      <trkpt lat="43.19581" lon="2.37033">
        <ele>169.9</ele>
        <time>2019-06-30T07:41:43.000Z</time>
      </trkpt>
      <trkpt lat="43.19584" lon="2.37033">
        <ele>169.8</ele>
        <time>2019-06-30T07:41:44.000Z</time>
      </trkpt>
      <trkpt lat="43.19586" lon="2.37033">
        <ele>169.6</ele>
        <time>2019-06-30T07:41:45.000Z</time>
      </trkpt>
      <trkpt lat="43.19589" lon="2.37033">
        <ele>169.4</ele>
        <time>2019-06-30T07:41:46.000Z</time>
      </trkpt>
      <trkpt lat="43.19591" lon="2.37034">
        <ele>169.3</ele>
        <time>2019-06-30T07:41:47.000Z</time>
      </trkpt>
      <trkpt lat="43.19593" lon="2.37034">
        <ele>169.1</ele>
        <time>2019-06-30T07:41:48.000Z</time>
      </trkpt>
      <trkpt lat="43.19596" lon="2.37034">
        <ele>169</ele>
        <time>2019-06-30T07:41:49.000Z</time>
      </trkpt>
      <trkpt lat="43.19598" lon="2.37034">
        <ele>168.8</ele>
        <time>2019-06-30T07:41:50.000Z</time>
      </trkpt>
      <trkpt lat="43.19601" lon="2.37034">
        <ele>168.6</ele>
        <time>2019-06-30T07:41:51.000Z</time>
      </trkpt>
      <trkpt lat="43.19603" lon="2.37034">
        <ele>168.4</ele>
        <time>2019-06-30T07:41:52.000Z</time>
      </trkpt>
      <trkpt lat="43.19606" lon="2.37034">
        <ele>168.2</ele>
        <time>2019-06-30T07:41:53.000Z</time>
      </trkpt>
      <trkpt lat="43.19609" lon="2.37034">
        <ele>168</ele>
        <time>2019-06-30T07:41:54.000Z</time>
      </trkpt>
      <trkpt lat="43.19611" lon="2.37034">
        <ele>167.9</ele>
        <time>2019-06-30T07:41:55.000Z</time>
      </trkpt>
      <trkpt lat="43.19614" lon="2.37035">
        <ele>167.7</ele>
        <time>2019-06-30T07:41:56.000Z</time>
      </trkpt>
      <trkpt lat="43.19616" lon="2.37035">
        <ele>167.6</ele>
        <time>2019-06-30T07:41:57.000Z</time>
      </trkpt>
      <trkpt lat="43.19617" lon="2.37037">
        <ele>167.5</ele>
        <time>2019-06-30T07:41:58.000Z</time>
      </trkpt>
      <trkpt lat="43.19619" lon="2.37038">
        <ele>167.4</ele>
        <time>2019-06-30T07:41:59.000Z</time>
      </trkpt>
      <trkpt lat="43.1962" lon="2.37041">
        <ele>167.4</ele>
        <time>2019-06-30T07:42:00.000Z</time>
      </trkpt>
      <trkpt lat="43.1962" lon="2.37043">
        <ele>167.4</ele>
        <time>2019-06-30T07:42:01.000Z</time>
      </trkpt>
      <trkpt lat="43.19621" lon="2.37046">
        <ele>167.4</ele>
        <time>2019-06-30T07:42:02.000Z</time>
      </trkpt>
      <trkpt lat="43.19621" lon="2.3705">
        <ele>167.4</ele>
        <time>2019-06-30T07:42:03.000Z</time>
      </trkpt>
      <trkpt lat="43.19621" lon="2.37053">
        <ele>167.5</ele>
        <time>2019-06-30T07:42:04.000Z</time>
      </trkpt>
      <trkpt lat="43.1962" lon="2.37056">
        <ele>167.5</ele>
        <time>2019-06-30T07:42:05.000Z</time>
      </trkpt>
      <trkpt lat="43.1962" lon="2.37059">
        <ele>167.6</ele>
        <time>2019-06-30T07:42:06.000Z</time>
      </trkpt>
      <trkpt lat="43.19619" lon="2.37062">
        <ele>167.7</ele>
        <time>2019-06-30T07:42:07.000Z</time>
      </trkpt>
      <trkpt lat="43.19619" lon="2.37066">
        <ele>167.8</ele>
        <time>2019-06-30T07:42:08.000Z</time>
      </trkpt>
      <trkpt lat="43.19618" lon="2.37068">
        <ele>167.9</ele>
        <time>2019-06-30T07:42:09.000Z</time>
      </trkpt>
      <trkpt lat="43.19618" lon="2.37071">
        <ele>168</ele>
        <time>2019-06-30T07:42:10.000Z</time>
      </trkpt>
      <trkpt lat="43.19617" lon="2.37074">
        <ele>168.1</ele>
        <time>2019-06-30T07:42:11.000Z</time>
      </trkpt>
      <trkpt lat="43.19616" lon="2.37077">
        <ele>168.1</ele>
        <time>2019-06-30T07:42:12.000Z</time>
      </trkpt>
      <trkpt lat="43.19616" lon="2.3708">
        <ele>168.2</ele>
        <time>2019-06-30T07:42:13.000Z</time>
      </trkpt>
      <trkpt lat="43.19616" lon="2.37083">
        <ele>168.3</ele>
        <time>2019-06-30T07:42:14.000Z</time>
      </trkpt>
      <trkpt lat="43.19615" lon="2.37086">
        <ele>168.3</ele>
        <time>2019-06-30T07:42:15.000Z</time>
      </trkpt>
      <trkpt lat="43.19615" lon="2.37089">
        <ele>168.3</ele>
        <time>2019-06-30T07:42:16.000Z</time>
      </trkpt>
      <trkpt lat="43.19615" lon="2.37092">
        <ele>168.2</ele>
        <time>2019-06-30T07:42:17.000Z</time>
      </trkpt>
      <trkpt lat="43.19614" lon="2.37094">
        <ele>168.2</ele>
        <time>2019-06-30T07:42:18.000Z</time>
      </trkpt>
      <trkpt lat="43.19614" lon="2.37097">
        <ele>168.2</ele>
        <time>2019-06-30T07:42:19.000Z</time>
      </trkpt>
      <trkpt lat="43.19614" lon="2.371">
        <ele>168.2</ele>
        <time>2019-06-30T07:42:20.000Z</time>
      </trkpt>
      <trkpt lat="43.19613" lon="2.37102">
        <ele>168.2</ele>
        <time>2019-06-30T07:42:21.000Z</time>
      </trkpt>
      <trkpt lat="43.19613" lon="2.37105">
        <ele>168.2</ele>
        <time>2019-06-30T07:42:22.000Z</time>
      </trkpt>
      <trkpt lat="43.19612" lon="2.37107">
        <ele>168.2</ele>
        <time>2019-06-30T07:42:23.000Z</time>
      </trkpt>
      <trkpt lat="43.19612" lon="2.3711">
        <ele>168.2</ele>
        <time>2019-06-30T07:42:24.000Z</time>
      </trkpt>
      <trkpt lat="43.19611" lon="2.37113">
        <ele>168.2</ele>
        <time>2019-06-30T07:42:25.000Z</time>
      </trkpt>
      <trkpt lat="43.19611" lon="2.37115">
        <ele>168.2</ele>
        <time>2019-06-30T07:42:26.000Z</time>
      </trkpt>
      <trkpt lat="43.19611" lon="2.37118">
        <ele>168.1</ele>
        <time>2019-06-30T07:42:27.000Z</time>
      </trkpt>
      <trkpt lat="43.19612" lon="2.37119">
        <ele>168</ele>
        <time>2019-06-30T07:42:28.000Z</time>
      </trkpt>
      <trkpt lat="43.19614" lon="2.37121">
        <ele>167.8</ele>
        <time>2019-06-30T07:42:29.000Z</time>
      </trkpt>
      <trkpt lat="43.19616" lon="2.37122">
        <ele>167.7</ele>
        <time>2019-06-30T07:42:30.000Z</time>
      </trkpt>
      <trkpt lat="43.19618" lon="2.37122">
        <ele>167.4</ele>
        <time>2019-06-30T07:42:31.000Z</time>
      </trkpt>
      <trkpt lat="43.1962" lon="2.37123">
        <ele>167.2</ele>
        <time>2019-06-30T07:42:32.000Z</time>
      </trkpt>
      <trkpt lat="43.19623" lon="2.37123">
        <ele>167</ele>
        <time>2019-06-30T07:42:33.000Z</time>
      </trkpt>
      <trkpt lat="43.19626" lon="2.37123">
        <ele>166.7</ele>
        <time>2019-06-30T07:42:34.000Z</time>
      </trkpt>
      <trkpt lat="43.19628" lon="2.37124">
        <ele>166.5</ele>
        <time>2019-06-30T07:42:35.000Z</time>
      </trkpt>
      <trkpt lat="43.19631" lon="2.37124">
        <ele>166.2</ele>
        <time>2019-06-30T07:42:36.000Z</time>
      </trkpt>
      <trkpt lat="43.19634" lon="2.37124">
        <ele>166</ele>
        <time>2019-06-30T07:42:37.000Z</time>
      </trkpt>
      <trkpt lat="43.19636" lon="2.37125">
        <ele>165.8</ele>
        <time>2019-06-30T07:42:38.000Z</time>
      </trkpt>
      <trkpt lat="43.19639" lon="2.37125">
        <ele>165.5</ele>
        <time>2019-06-30T07:42:39.000Z</time>
      </trkpt>
      <trkpt lat="43.19641" lon="2.37125">
        <ele>165.3</ele>
        <time>2019-06-30T07:42:40.000Z</time>
      </trkpt>
      <trkpt lat="43.19644" lon="2.37125">
        <ele>165.1</ele>
        <time>2019-06-30T07:42:41.000Z</time>
      </trkpt>
      <trkpt lat="43.19646" lon="2.37126">
        <ele>164.9</ele>
        <time>2019-06-30T07:42:42.000Z</time>
      </trkpt>
      <trkpt lat="43.19648" lon="2.37126">
        <ele>164.6</ele>
        <time>2019-06-30T07:42:43.000Z</time>
      </trkpt>
      <trkpt lat="43.19651" lon="2.37126">
        <ele>164.4</ele>
        <time>2019-06-30T07:42:44.000Z</time>
      </trkpt>
      <trkpt lat="43.19653" lon="2.37127">
        <ele>164.2</ele>
        <time>2019-06-30T07:42:45.000Z</time>
      </trkpt>
      <trkpt lat="43.19656" lon="2.37127">
        <ele>164</ele>
        <time>2019-06-30T07:42:46.000Z</time>
      </trkpt>
      <trkpt lat="43.19658" lon="2.37127">
        <ele>163.7</ele>
        <time>2019-06-30T07:42:47.000Z</time>
      </trkpt>
      <trkpt lat="43.19661" lon="2.37127">
        <ele>163.5</ele>
        <time>2019-06-30T07:42:48.000Z</time>
      </trkpt>
      <trkpt lat="43.19663" lon="2.37128">
        <ele>163.3</ele>
        <time>2019-06-30T07:42:49.000Z</time>
      </trkpt>
      <trkpt lat="43.19666" lon="2.37128">
        <ele>163</ele>
        <time>2019-06-30T07:42:50.000Z</time>
      </trkpt>
      <trkpt lat="43.19668" lon="2.37128">
        <ele>162.8</ele>
        <time>2019-06-30T07:42:51.000Z</time>
      </trkpt>
      <trkpt lat="43.19671" lon="2.37128">
        <ele>162.5</ele>
        <time>2019-06-30T07:42:52.000Z</time>
      </trkpt>
      <trkpt lat="43.19674" lon="2.37128">
        <ele>162.2</ele>
        <time>2019-06-30T07:42:53.000Z</time>
      </trkpt>
      <trkpt lat="43.19676" lon="2.37128">
        <ele>161.9</ele>
        <time>2019-06-30T07:42:54.000Z</time>
      </trkpt>
      <trkpt lat="43.19679" lon="2.37129">
        <ele>161.6</ele>
        <time>2019-06-30T07:42:55.000Z</time>
      </trkpt>
      <trkpt lat="43.19682" lon="2.37129">
        <ele>161.3</ele>
        <time>2019-06-30T07:42:56.000Z</time>
      </trkpt>
      <trkpt lat="43.19685" lon="2.37129">
        <ele>161</ele>
        <time>2019-06-30T07:42:57.000Z</time>
      </trkpt>
      <trkpt lat="43.19688" lon="2.37129">
        <ele>160.7</ele>
        <time>2019-06-30T07:42:58.000Z</time>
      </trkpt>
      <trkpt lat="43.19691" lon="2.37129">
        <ele>160.4</ele>
        <time>2019-06-30T07:42:59.000Z</time>
      </trkpt>
      <trkpt lat="43.19693" lon="2.37129">
        <ele>160</ele>
        <time>2019-06-30T07:43:00.000Z</time>
      </trkpt>
      <trkpt lat="43.19696" lon="2.37129">
        <ele>159.7</ele>
        <time>2019-06-30T07:43:01.000Z</time>
      </trkpt>
      <trkpt lat="43.19699" lon="2.37129">
        <ele>159.4</ele>
        <time>2019-06-30T07:43:02.000Z</time>
      </trkpt>
      <trkpt lat="43.19702" lon="2.3713">
        <ele>159.1</ele>
        <time>2019-06-30T07:43:03.000Z</time>
      </trkpt>
      <trkpt lat="43.19705" lon="2.3713">
        <ele>158.8</ele>
        <time>2019-06-30T07:43:04.000Z</time>
      </trkpt>
      <trkpt lat="43.19708" lon="2.3713">
        <ele>158.5</ele>
        <time>2019-06-30T07:43:05.000Z</time>
      </trkpt>
      <trkpt lat="43.19711" lon="2.3713">
        <ele>158.2</ele>
        <time>2019-06-30T07:43:06.000Z</time>
      </trkpt>
      <trkpt lat="43.19714" lon="2.37131">
        <ele>157.8</ele>
        <time>2019-06-30T07:43:07.000Z</time>
      </trkpt>
      <trkpt lat="43.19717" lon="2.37131">
        <ele>157.5</ele>
        <time>2019-06-30T07:43:08.000Z</time>
      </trkpt>
      <trkpt lat="43.1972" lon="2.37132">
        <ele>157.2</ele>
        <time>2019-06-30T07:43:09.000Z</time>
      </trkpt>
      <trkpt lat="43.19723" lon="2.37132">
        <ele>156.9</ele>
        <time>2019-06-30T07:43:10.000Z</time>
      </trkpt>
      <trkpt lat="43.19725" lon="2.37133">
        <ele>156.6</ele>
        <time>2019-06-30T07:43:11.000Z</time>
      </trkpt>
      <trkpt lat="43.19728" lon="2.37134">
        <ele>156.3</ele>
        <time>2019-06-30T07:43:12.000Z</time>
      </trkpt>
      <trkpt lat="43.19731" lon="2.37135">
        <ele>156</ele>
        <time>2019-06-30T07:43:13.000Z</time>
      </trkpt>
      <trkpt lat="43.19733" lon="2.37136">
        <ele>155.8</ele>
        <time>2019-06-30T07:43:14.000Z</time>
      </trkpt>
      <trkpt lat="43.19736" lon="2.37137">
        <ele>155.5</ele>
        <time>2019-06-30T07:43:15.000Z</time>
      </trkpt>
      <trkpt lat="43.19738" lon="2.37139">
        <ele>155.2</ele>
        <time>2019-06-30T07:43:16.000Z</time>
      </trkpt>
      <trkpt lat="43.19741" lon="2.3714">
        <ele>155</ele>
        <time>2019-06-30T07:43:17.000Z</time>
      </trkpt>
      <trkpt lat="43.19743" lon="2.37142">
        <ele>154.7</ele>
        <time>2019-06-30T07:43:18.000Z</time>
      </trkpt>
      <trkpt lat="43.19746" lon="2.37144">
        <ele>154.5</ele>
        <time>2019-06-30T07:43:19.000Z</time>
      </trkpt>
      <trkpt lat="43.19748" lon="2.37146">
        <ele>154.2</ele>
        <time>2019-06-30T07:43:20.000Z</time>
      </trkpt>
      <trkpt lat="43.1975" lon="2.37148">
        <ele>154</ele>
        <time>2019-06-30T07:43:21.000Z</time>
      </trkpt>
      <trkpt lat="43.19752" lon="2.3715">
        <ele>154</ele>
        <time>2019-06-30T07:43:22.000Z</time>
      </trkpt>
      <trkpt lat="43.19754" lon="2.37153">
        <ele>153.9</ele>
        <time>2019-06-30T07:43:23.000Z</time>
      </trkpt>
      <trkpt lat="43.19756" lon="2.37155">
        <ele>153.9</ele>
        <time>2019-06-30T07:43:24.000Z</time>
      </trkpt>
      <trkpt lat="43.19759" lon="2.37158">
        <ele>153.9</ele>
        <time>2019-06-30T07:43:25.000Z</time>
      </trkpt>
      <trkpt lat="43.19761" lon="2.3716">
        <ele>153.9</ele>
        <time>2019-06-30T07:43:26.000Z</time>
      </trkpt>
      <trkpt lat="43.19763" lon="2.37163">
        <ele>153.8</ele>
        <time>2019-06-30T07:43:27.000Z</time>
      </trkpt>
      <trkpt lat="43.19765" lon="2.37166">
        <ele>153.8</ele>
        <time>2019-06-30T07:43:28.000Z</time>
      </trkpt>
      <trkpt lat="43.19767" lon="2.37168">
        <ele>153.9</ele>
        <time>2019-06-30T07:43:29.000Z</time>
      </trkpt>
      <trkpt lat="43.19769" lon="2.37171">
        <ele>153.9</ele>
        <time>2019-06-30T07:43:30.000Z</time>
      </trkpt>
      <trkpt lat="43.19771" lon="2.37174">
        <ele>154</ele>
        <time>2019-06-30T07:43:31.000Z</time>
      </trkpt>
      <trkpt lat="43.19773" lon="2.37176">
        <ele>154.1</ele>
        <time>2019-06-30T07:43:32.000Z</time>
      </trkpt>
      <trkpt lat="43.19775" lon="2.37179">
        <ele>154.1</ele>
        <time>2019-06-30T07:43:33.000Z</time>
      </trkpt>
      <trkpt lat="43.19777" lon="2.37181">
        <ele>154.2</ele>
        <time>2019-06-30T07:43:34.000Z</time>
      </trkpt>
      <trkpt lat="43.19779" lon="2.37184">
        <ele>154.3</ele>
        <time>2019-06-30T07:43:35.000Z</time>
      </trkpt>
      <trkpt lat="43.19782" lon="2.37186">
        <ele>154.3</ele>
        <time>2019-06-30T07:43:36.000Z</time>
      </trkpt>
      <trkpt lat="43.19784" lon="2.37188">
        <ele>154.4</ele>
        <time>2019-06-30T07:43:37.000Z</time>
      </trkpt>
      <trkpt lat="43.19786" lon="2.37189">
        <ele>154.5</ele>
        <time>2019-06-30T07:43:38.000Z</time>
      </trkpt>
      <trkpt lat="43.19789" lon="2.3719">
        <ele>154.5</ele>
        <time>2019-06-30T07:43:39.000Z</time>
      </trkpt>
      <trkpt lat="43.19791" lon="2.37191">
        <ele>154.5</ele>
        <time>2019-06-30T07:43:40.000Z</time>
      </trkpt>
      <trkpt lat="43.19794" lon="2.37192">
        <ele>154.5</ele>
        <time>2019-06-30T07:43:41.000Z</time>
      </trkpt>
      <trkpt lat="43.19797" lon="2.37192">
        <ele>154.6</ele>
        <time>2019-06-30T07:43:42.000Z</time>
      </trkpt>
      <trkpt lat="43.19799" lon="2.37192">
        <ele>154.6</ele>
        <time>2019-06-30T07:43:43.000Z</time>
      </trkpt>
      <trkpt lat="43.19802" lon="2.37192">
        <ele>154.6</ele>
        <time>2019-06-30T07:43:44.000Z</time>
      </trkpt>
      <trkpt lat="43.19805" lon="2.37192">
        <ele>154.6</ele>
        <time>2019-06-30T07:43:45.000Z</time>
      </trkpt>
      <trkpt lat="43.19807" lon="2.37193">
        <ele>154.6</ele>
        <time>2019-06-30T07:43:46.000Z</time>
      </trkpt>
      <trkpt lat="43.1981" lon="2.37193">
        <ele>154.6</ele>
        <time>2019-06-30T07:43:47.000Z</time>
      </trkpt>
      <trkpt lat="43.19813" lon="2.37193">
        <ele>154.6</ele>
        <time>2019-06-30T07:43:48.000Z</time>
      </trkpt>
      <trkpt lat="43.19815" lon="2.37193">
        <ele>154.6</ele>
        <time>2019-06-30T07:43:49.000Z</time>
      </trkpt>
      <trkpt lat="43.19818" lon="2.37194">
        <ele>154.6</ele>
        <time>2019-06-30T07:43:50.000Z</time>
      </trkpt>
      <trkpt lat="43.19821" lon="2.37194">
        <ele>154.6</ele>
        <time>2019-06-30T07:43:51.000Z</time>
      </trkpt>
      <trkpt lat="43.19823" lon="2.37194">
        <ele>154.7</ele>
        <time>2019-06-30T07:43:52.000Z</time>
      </trkpt>
      <trkpt lat="43.19826" lon="2.37195">
        <ele>154.7</ele>
        <time>2019-06-30T07:43:53.000Z</time>
      </trkpt>
      <trkpt lat="43.19828" lon="2.37195">
        <ele>154.7</ele>
        <time>2019-06-30T07:43:54.000Z</time>
      </trkpt>
      <trkpt lat="43.19831" lon="2.37196">
        <ele>154.7</ele>
        <time>2019-06-30T07:43:55.000Z</time>
      </trkpt>
      <trkpt lat="43.19834" lon="2.37196">
        <ele>154.8</ele>
        <time>2019-06-30T07:43:56.000Z</time>
      </trkpt>
      <trkpt lat="43.19836" lon="2.37197">
        <ele>154.8</ele>
        <time>2019-06-30T07:43:57.000Z</time>
      </trkpt>
      <trkpt lat="43.19839" lon="2.37197">
        <ele>154.9</ele>
        <time>2019-06-30T07:43:58.000Z</time>
      </trkpt>
      <trkpt lat="43.19841" lon="2.37198">
        <ele>154.9</ele>
        <time>2019-06-30T07:43:59.000Z</time>
      </trkpt>
      <trkpt lat="43.19844" lon="2.37198">
        <ele>155</ele>
        <time>2019-06-30T07:44:00.000Z</time>
      </trkpt>
      <trkpt lat="43.19847" lon="2.37199">
        <ele>155</ele>
        <time>2019-06-30T07:44:01.000Z</time>
      </trkpt>
      <trkpt lat="43.19849" lon="2.37199">
        <ele>155.1</ele>
        <time>2019-06-30T07:44:02.000Z</time>
      </trkpt>
      <trkpt lat="43.19852" lon="2.372">
        <ele>155.1</ele>
        <time>2019-06-30T07:44:03.000Z</time>
      </trkpt>
      <trkpt lat="43.19855" lon="2.372">
        <ele>155.2</ele>
        <time>2019-06-30T07:44:04.000Z</time>
      </trkpt>
      <trkpt lat="43.19857" lon="2.37201">
        <ele>155.2</ele>
        <time>2019-06-30T07:44:05.000Z</time>
      </trkpt>
      <trkpt lat="43.1986" lon="2.37201">
        <ele>155.3</ele>
        <time>2019-06-30T07:44:06.000Z</time>
      </trkpt>
      <trkpt lat="43.19863" lon="2.37202">
        <ele>155.3</ele>
        <time>2019-06-30T07:44:07.000Z</time>
      </trkpt>
      <trkpt lat="43.19865" lon="2.37202">
        <ele>155.4</ele>
        <time>2019-06-30T07:44:08.000Z</time>
      </trkpt>
      <trkpt lat="43.19868" lon="2.37203">
        <ele>155.4</ele>
        <time>2019-06-30T07:44:09.000Z</time>
      </trkpt>
      <trkpt lat="43.1987" lon="2.37203">
        <ele>155.5</ele>
        <time>2019-06-30T07:44:10.000Z</time>
      </trkpt>
      <trkpt lat="43.19873" lon="2.37204">
        <ele>155.5</ele>
        <time>2019-06-30T07:44:11.000Z</time>
      </trkpt>
      <trkpt lat="43.19875" lon="2.37205">
        <ele>155.6</ele>
        <time>2019-06-30T07:44:12.000Z</time>
      </trkpt>
      <trkpt lat="43.19877" lon="2.37206">
        <ele>155.6</ele>
        <time>2019-06-30T07:44:13.000Z</time>
      </trkpt>
      <trkpt lat="43.1988" lon="2.37206">
        <ele>155.7</ele>
        <time>2019-06-30T07:44:14.000Z</time>
      </trkpt>
      <trkpt lat="43.19882" lon="2.37207">
        <ele>155.7</ele>
        <time>2019-06-30T07:44:15.000Z</time>
      </trkpt>
      <trkpt lat="43.19884" lon="2.37208">
        <ele>155.8</ele>
        <time>2019-06-30T07:44:16.000Z</time>
      </trkpt>
      <trkpt lat="43.19887" lon="2.37208">
        <ele>155.8</ele>
        <time>2019-06-30T07:44:17.000Z</time>
      </trkpt>
      <trkpt lat="43.19889" lon="2.37208">
        <ele>155.8</ele>
        <time>2019-06-30T07:44:18.000Z</time>
      </trkpt>
      <trkpt lat="43.19891" lon="2.37208">
        <ele>155.8</ele>
        <time>2019-06-30T07:44:19.000Z</time>
      </trkpt>
      <trkpt lat="43.19893" lon="2.37208">
        <ele>155.8</ele>
        <time>2019-06-30T07:44:20.000Z</time>
      </trkpt>
      <trkpt lat="43.19895" lon="2.37208">
        <ele>155.8</ele>
        <time>2019-06-30T07:44:21.000Z</time>
      </trkpt>
      <trkpt lat="43.19897" lon="2.37207">
        <ele>155.8</ele>
        <time>2019-06-30T07:44:22.000Z</time>
      </trkpt>
      <trkpt lat="43.19899" lon="2.37205">
        <ele>155.7</ele>
        <time>2019-06-30T07:44:23.000Z</time>
      </trkpt>
      <trkpt lat="43.19901" lon="2.37204">
        <ele>155.7</ele>
        <time>2019-06-30T07:44:24.000Z</time>
      </trkpt>
      <trkpt lat="43.19903" lon="2.37202">
        <ele>155.6</ele>
        <time>2019-06-30T07:44:25.000Z</time>
      </trkpt>
      <trkpt lat="43.19905" lon="2.37201">
        <ele>155.5</ele>
        <time>2019-06-30T07:44:26.000Z</time>
      </trkpt>
      <trkpt lat="43.19906" lon="2.37199">
        <ele>155.5</ele>
        <time>2019-06-30T07:44:27.000Z</time>
      </trkpt>
      <trkpt lat="43.19908" lon="2.37198">
        <ele>155.4</ele>
        <time>2019-06-30T07:44:28.000Z</time>
      </trkpt>
      <trkpt lat="43.1991" lon="2.37196">
        <ele>155.4</ele>
        <time>2019-06-30T07:44:29.000Z</time>
      </trkpt>
      <trkpt lat="43.19912" lon="2.37195">
        <ele>155.3</ele>
        <time>2019-06-30T07:44:30.000Z</time>
      </trkpt>
      <trkpt lat="43.19914" lon="2.37193">
        <ele>155.2</ele>
        <time>2019-06-30T07:44:31.000Z</time>
      </trkpt>
      <trkpt lat="43.19916" lon="2.37192">
        <ele>155.2</ele>
        <time>2019-06-30T07:44:32.000Z</time>
      </trkpt>
      <trkpt lat="43.19918" lon="2.3719">
        <ele>155.1</ele>
        <time>2019-06-30T07:44:33.000Z</time>
      </trkpt>
      <trkpt lat="43.1992" lon="2.37188">
        <ele>155.1</ele>
        <time>2019-06-30T07:44:34.000Z</time>
      </trkpt>
      <trkpt lat="43.19922" lon="2.37186">
        <ele>155</ele>
        <time>2019-06-30T07:44:35.000Z</time>
      </trkpt>
      <trkpt lat="43.19924" lon="2.37185">
        <ele>155</ele>
        <time>2019-06-30T07:44:36.000Z</time>
      </trkpt>
      <trkpt lat="43.19926" lon="2.37183">
        <ele>154.9</ele>
        <time>2019-06-30T07:44:37.000Z</time>
      </trkpt>
      <trkpt lat="43.19928" lon="2.37181">
        <ele>154.8</ele>
        <time>2019-06-30T07:44:38.000Z</time>
      </trkpt>
      <trkpt lat="43.1993" lon="2.37179">
        <ele>154.8</ele>
        <time>2019-06-30T07:44:39.000Z</time>
      </trkpt>
      <trkpt lat="43.19933" lon="2.37177">
        <ele>154.7</ele>
        <time>2019-06-30T07:44:40.000Z</time>
      </trkpt>
      <trkpt lat="43.19935" lon="2.37175">
        <ele>154.6</ele>
        <time>2019-06-30T07:44:41.000Z</time>
      </trkpt>
      <trkpt lat="43.19937" lon="2.37173">
        <ele>154.6</ele>
        <time>2019-06-30T07:44:42.000Z</time>
      </trkpt>
      <trkpt lat="43.1994" lon="2.37171">
        <ele>154.5</ele>
        <time>2019-06-30T07:44:43.000Z</time>
      </trkpt>
      <trkpt lat="43.19942" lon="2.37169">
        <ele>154.4</ele>
        <time>2019-06-30T07:44:44.000Z</time>
      </trkpt>
      <trkpt lat="43.19945" lon="2.37167">
        <ele>154.4</ele>
        <time>2019-06-30T07:44:45.000Z</time>
      </trkpt>
      <trkpt lat="43.19947" lon="2.37165">
        <ele>154.4</ele>
        <time>2019-06-30T07:44:46.000Z</time>
      </trkpt>
      <trkpt lat="43.1995" lon="2.37164">
        <ele>154.4</ele>
        <time>2019-06-30T07:44:47.000Z</time>
      </trkpt>
      <trkpt lat="43.19953" lon="2.37162">
        <ele>154.4</ele>
        <time>2019-06-30T07:44:48.000Z</time>
      </trkpt>
      <trkpt lat="43.19955" lon="2.3716">
        <ele>154.4</ele>
        <time>2019-06-30T07:44:49.000Z</time>
      </trkpt>
      <trkpt lat="43.19958" lon="2.37159">
        <ele>154.4</ele>
        <time>2019-06-30T07:44:50.000Z</time>
      </trkpt>
      <trkpt lat="43.1996" lon="2.37157">
        <ele>154.4</ele>
        <time>2019-06-30T07:44:51.000Z</time>
      </trkpt>
      <trkpt lat="43.19963" lon="2.37155">
        <ele>154.4</ele>
        <time>2019-06-30T07:44:52.000Z</time>
      </trkpt>
      <trkpt lat="43.19966" lon="2.37154">
        <ele>154.4</ele>
        <time>2019-06-30T07:44:53.000Z</time>
      </trkpt>
      <trkpt lat="43.19968" lon="2.37152">
        <ele>154.4</ele>
        <time>2019-06-30T07:44:54.000Z</time>
      </trkpt>
      <trkpt lat="43.19971" lon="2.37151">
        <ele>154.3</ele>
        <time>2019-06-30T07:44:55.000Z</time>
      </trkpt>
      <trkpt lat="43.19974" lon="2.3715">
        <ele>154.3</ele>
        <time>2019-06-30T07:44:56.000Z</time>
      </trkpt>
      <trkpt lat="43.19976" lon="2.37148">
        <ele>154.3</ele>
        <time>2019-06-30T07:44:57.000Z</time>
      </trkpt>
      <trkpt lat="43.19979" lon="2.37147">
        <ele>154.3</ele>
        <time>2019-06-30T07:44:58.000Z</time>
      </trkpt>
      <trkpt lat="43.19982" lon="2.37146">
        <ele>154.2</ele>
        <time>2019-06-30T07:44:59.000Z</time>
      </trkpt>
      <trkpt lat="43.19984" lon="2.37144">
        <ele>154.2</ele>
        <time>2019-06-30T07:45:00.000Z</time>
      </trkpt>
      <trkpt lat="43.19987" lon="2.37143">
        <ele>154.2</ele>
        <time>2019-06-30T07:45:01.000Z</time>
      </trkpt>
      <trkpt lat="43.1999" lon="2.37142">
        <ele>154.1</ele>
        <time>2019-06-30T07:45:02.000Z</time>
      </trkpt>
      <trkpt lat="43.19992" lon="2.37141">
        <ele>154.1</ele>
        <time>2019-06-30T07:45:03.000Z</time>
      </trkpt>
      <trkpt lat="43.19995" lon="2.37139">
        <ele>154</ele>
        <time>2019-06-30T07:45:04.000Z</time>
      </trkpt>
      <trkpt lat="43.19998" lon="2.37138">
        <ele>154</ele>
        <time>2019-06-30T07:45:05.000Z</time>
      </trkpt>
      <trkpt lat="43.2" lon="2.37137">
        <ele>153.9</ele>
        <time>2019-06-30T07:45:06.000Z</time>
      </trkpt>
      <trkpt lat="43.20003" lon="2.37135">
        <ele>154.1</ele>
        <time>2019-06-30T07:45:07.000Z</time>
      </trkpt>
      <trkpt lat="43.20006" lon="2.37134">
        <ele>154.2</ele>
        <time>2019-06-30T07:45:08.000Z</time>
      </trkpt>
      <trkpt lat="43.20008" lon="2.37132">
        <ele>154.3</ele>
        <time>2019-06-30T07:45:09.000Z</time>
      </trkpt>
      <trkpt lat="43.20011" lon="2.37131">
        <ele>154.4</ele>
        <time>2019-06-30T07:45:10.000Z</time>
      </trkpt>
      <trkpt lat="43.20014" lon="2.37129">
        <ele>154.5</ele>
        <time>2019-06-30T07:45:11.000Z</time>
      </trkpt>
      <trkpt lat="43.20016" lon="2.37127">
        <ele>154.6</ele>
        <time>2019-06-30T07:45:12.000Z</time>
      </trkpt>
      <trkpt lat="43.20019" lon="2.37126">
        <ele>154.7</ele>
        <time>2019-06-30T07:45:13.000Z</time>
      </trkpt>
      <trkpt lat="43.20021" lon="2.37124">
        <ele>154.7</ele>
        <time>2019-06-30T07:45:14.000Z</time>
      </trkpt>
      <trkpt lat="43.20024" lon="2.37122">
        <ele>154.8</ele>
        <time>2019-06-30T07:45:15.000Z</time>
      </trkpt>
      <trkpt lat="43.20027" lon="2.3712">
        <ele>154.8</ele>
        <time>2019-06-30T07:45:16.000Z</time>
      </trkpt>
      <trkpt lat="43.20029" lon="2.37119">
        <ele>154.8</ele>
        <time>2019-06-30T07:45:17.000Z</time>
      </trkpt>
      <trkpt lat="43.20031" lon="2.37117">
        <ele>154.9</ele>
        <time>2019-06-30T07:45:18.000Z</time>
      </trkpt>
      <trkpt lat="43.20034" lon="2.37115">
        <ele>154.9</ele>
        <time>2019-06-30T07:45:19.000Z</time>
      </trkpt>
      <trkpt lat="43.20036" lon="2.37113">
        <ele>154.9</ele>
        <time>2019-06-30T07:45:20.000Z</time>
      </trkpt>
      <trkpt lat="43.20038" lon="2.37111">
        <ele>154.8</ele>
        <time>2019-06-30T07:45:21.000Z</time>
      </trkpt>
      <trkpt lat="43.20041" lon="2.37109">
        <ele>154.8</ele>
        <time>2019-06-30T07:45:22.000Z</time>
      </trkpt>
      <trkpt lat="43.20043" lon="2.37107">
        <ele>154.8</ele>
        <time>2019-06-30T07:45:23.000Z</time>
      </trkpt>
      <trkpt lat="43.20045" lon="2.37106">
        <ele>154.8</ele>
        <time>2019-06-30T07:45:24.000Z</time>
      </trkpt>
      <trkpt lat="43.20047" lon="2.37104">
        <ele>154.7</ele>
        <time>2019-06-30T07:45:25.000Z</time>
      </trkpt>
      <trkpt lat="43.2005" lon="2.37102">
        <ele>154.6</ele>
        <time>2019-06-30T07:45:26.000Z</time>
      </trkpt>
      <trkpt lat="43.20052" lon="2.371">
        <ele>154.6</ele>
        <time>2019-06-30T07:45:27.000Z</time>
      </trkpt>
      <trkpt lat="43.20054" lon="2.37098">
        <ele>154.5</ele>
        <time>2019-06-30T07:45:28.000Z</time>
      </trkpt>
      <trkpt lat="43.20056" lon="2.37096">
        <ele>154.4</ele>
        <time>2019-06-30T07:45:29.000Z</time>
      </trkpt>
      <trkpt lat="43.20058" lon="2.37094">
        <ele>154.3</ele>
        <time>2019-06-30T07:45:30.000Z</time>
      </trkpt>
      <trkpt lat="43.20061" lon="2.37092">
        <ele>154.2</ele>
        <time>2019-06-30T07:45:31.000Z</time>
      </trkpt>
      <trkpt lat="43.20063" lon="2.3709">
        <ele>154.1</ele>
        <time>2019-06-30T07:45:32.000Z</time>
      </trkpt>
      <trkpt lat="43.20065" lon="2.37088">
        <ele>154</ele>
        <time>2019-06-30T07:45:33.000Z</time>
      </trkpt>
      <trkpt lat="43.20068" lon="2.37086">
        <ele>153.9</ele>
        <time>2019-06-30T07:45:34.000Z</time>
      </trkpt>
      <trkpt lat="43.2007" lon="2.37084">
        <ele>153.8</ele>
        <time>2019-06-30T07:45:35.000Z</time>
      </trkpt>
      <trkpt lat="43.20072" lon="2.37082">
        <ele>153.7</ele>
        <time>2019-06-30T07:45:36.000Z</time>
      </trkpt>
      <trkpt lat="43.20075" lon="2.3708">
        <ele>153.7</ele>
        <time>2019-06-30T07:45:37.000Z</time>
      </trkpt>
      <trkpt lat="43.20077" lon="2.37078">
        <ele>153.7</ele>
        <time>2019-06-30T07:45:38.000Z</time>
      </trkpt>
      <trkpt lat="43.20079" lon="2.37076">
        <ele>153.7</ele>
        <time>2019-06-30T07:45:39.000Z</time>
      </trkpt>
      <trkpt lat="43.20082" lon="2.37074">
        <ele>153.6</ele>
        <time>2019-06-30T07:45:40.000Z</time>
      </trkpt>
      <trkpt lat="43.20084" lon="2.37072">
        <ele>153.7</ele>
        <time>2019-06-30T07:45:41.000Z</time>
      </trkpt>
      <trkpt lat="43.20087" lon="2.3707">
        <ele>153.8</ele>
        <time>2019-06-30T07:45:42.000Z</time>
      </trkpt>
      <trkpt lat="43.20089" lon="2.37068">
        <ele>153.9</ele>
        <time>2019-06-30T07:45:43.000Z</time>
      </trkpt>
      <trkpt lat="43.20092" lon="2.37066">
        <ele>154</ele>
        <time>2019-06-30T07:45:44.000Z</time>
      </trkpt>
      <trkpt lat="43.20094" lon="2.37065">
        <ele>154.1</ele>
        <time>2019-06-30T07:45:45.000Z</time>
      </trkpt>
      <trkpt lat="43.20097" lon="2.37063">
        <ele>154.2</ele>
        <time>2019-06-30T07:45:46.000Z</time>
      </trkpt>
      <trkpt lat="43.20099" lon="2.37061">
        <ele>154.3</ele>
        <time>2019-06-30T07:45:47.000Z</time>
      </trkpt>
      <trkpt lat="43.20102" lon="2.37059">
        <ele>154.4</ele>
        <time>2019-06-30T07:45:48.000Z</time>
      </trkpt>
      <trkpt lat="43.20104" lon="2.37057">
        <ele>154.6</ele>
        <time>2019-06-30T07:45:49.000Z</time>
      </trkpt>
      <trkpt lat="43.20106" lon="2.37056">
        <ele>154.7</ele>
        <time>2019-06-30T07:45:50.000Z</time>
      </trkpt>
      <trkpt lat="43.20109" lon="2.37054">
        <ele>154.8</ele>
        <time>2019-06-30T07:45:51.000Z</time>
      </trkpt>
      <trkpt lat="43.20111" lon="2.37053">
        <ele>154.9</ele>
        <time>2019-06-30T07:45:52.000Z</time>
      </trkpt>
      <trkpt lat="43.20113" lon="2.37052">
        <ele>155</ele>
        <time>2019-06-30T07:45:53.000Z</time>
      </trkpt>
      <trkpt lat="43.20114" lon="2.37051">
        <ele>155</ele>
        <time>2019-06-30T07:45:54.000Z</time>
      </trkpt>
      <trkpt lat="43.20116" lon="2.3705">
        <ele>155.1</ele>
        <time>2019-06-30T07:45:55.000Z</time>
      </trkpt>
      <trkpt lat="43.20118" lon="2.37049">
        <ele>155.2</ele>
        <time>2019-06-30T07:45:56.000Z</time>
      </trkpt>
      <trkpt lat="43.20119" lon="2.37048">
        <ele>155.3</ele>
        <time>2019-06-30T07:45:57.000Z</time>
      </trkpt>
      <trkpt lat="43.2012" lon="2.37048">
        <ele>155.4</ele>
        <time>2019-06-30T07:45:58.000Z</time>
      </trkpt>
      <trkpt lat="43.20121" lon="2.37047">
        <ele>155.4</ele>
        <time>2019-06-30T07:45:59.000Z</time>
      </trkpt>
      <trkpt lat="43.20122" lon="2.37047">
        <ele>155.5</ele>
        <time>2019-06-30T07:46:00.000Z</time>
      </trkpt>
      <trkpt lat="43.20123" lon="2.37047">
        <ele>155.6</ele>
        <time>2019-06-30T07:46:01.000Z</time>
      </trkpt>
      <trkpt lat="43.20124" lon="2.37047">
        <ele>155.6</ele>
        <time>2019-06-30T07:46:02.000Z</time>
      </trkpt>
      <trkpt lat="43.20125" lon="2.37047">
        <ele>155.7</ele>
        <time>2019-06-30T07:46:03.000Z</time>
      </trkpt>
      <trkpt lat="43.20125" lon="2.37047">
        <ele>155.7</ele>
        <time>2019-06-30T07:46:04.000Z</time>
      </trkpt>
      <trkpt lat="43.20126" lon="2.37047">
        <ele>155.7</ele>
        <time>2019-06-30T07:46:05.000Z</time>
      </trkpt>
      <trkpt lat="43.20126" lon="2.37047">
        <ele>155.8</ele>
        <time>2019-06-30T07:46:06.000Z</time>
      </trkpt>
      <trkpt lat="43.20126" lon="2.37047">
        <ele>155.8</ele>
        <time>2019-06-30T07:46:07.000Z</time>
      </trkpt>
      <trkpt lat="43.20126" lon="2.37047">
        <ele>155.7</ele>
        <time>2019-06-30T07:46:08.000Z</time>
      </trkpt>
      <trkpt lat="43.20126" lon="2.37047">
        <ele>155.7</ele>
        <time>2019-06-30T07:46:09.000Z</time>
      </trkpt>
      <trkpt lat="43.20126" lon="2.37047">
        <ele>155.7</ele>
        <time>2019-06-30T07:46:10.000Z</time>
      </trkpt>
      <trkpt lat="43.20126" lon="2.37047">
        <ele>155.8</ele>
        <time>2019-06-30T07:46:11.000Z</time>
      </trkpt>
      <trkpt lat="43.20127" lon="2.37047">
        <ele>155.8</ele>
        <time>2019-06-30T07:46:12.000Z</time>
      </trkpt>
      <trkpt lat="43.20127" lon="2.37047">
        <ele>155.9</ele>
        <time>2019-06-30T07:46:13.000Z</time>
      </trkpt>
      <trkpt lat="43.20128" lon="2.37047">
        <ele>155.9</ele>
        <time>2019-06-30T07:46:14.000Z</time>
      </trkpt>
      <trkpt lat="43.20128" lon="2.37047">
        <ele>155.9</ele>
        <time>2019-06-30T07:46:15.000Z</time>
      </trkpt>
      <trkpt lat="43.20129" lon="2.37047">
        <ele>155.9</ele>
        <time>2019-06-30T07:46:16.000Z</time>
      </trkpt>
      <trkpt lat="43.20129" lon="2.37046">
        <ele>156</ele>
        <time>2019-06-30T07:46:17.000Z</time>
      </trkpt>
      <trkpt lat="43.20129" lon="2.37046">
        <ele>156</ele>
        <time>2019-06-30T07:46:18.000Z</time>
      </trkpt>
      <trkpt lat="43.20129" lon="2.37047">
        <ele>155.9</ele>
        <time>2019-06-30T07:46:19.000Z</time>
      </trkpt>
      <trkpt lat="43.20129" lon="2.37047">
        <ele>155.9</ele>
        <time>2019-06-30T07:46:20.000Z</time>
      </trkpt>
      <trkpt lat="43.20129" lon="2.37046">
        <ele>156</ele>
        <time>2019-06-30T07:46:21.000Z</time>
      </trkpt>
      <trkpt lat="43.20129" lon="2.37046">
        <ele>156</ele>
        <time>2019-06-30T07:46:22.000Z</time>
      </trkpt>
      <trkpt lat="43.20129" lon="2.37046">
        <ele>156</ele>
        <time>2019-06-30T07:46:23.000Z</time>
      </trkpt>
      <trkpt lat="43.2013" lon="2.37045">
        <ele>155.9</ele>
        <time>2019-06-30T07:46:24.000Z</time>
      </trkpt>
      <trkpt lat="43.2013" lon="2.37043">
        <ele>155.9</ele>
        <time>2019-06-30T07:46:25.000Z</time>
      </trkpt>
      <trkpt lat="43.2013" lon="2.37042">
        <ele>155.9</ele>
        <time>2019-06-30T07:46:26.000Z</time>
      </trkpt>
      <trkpt lat="43.20131" lon="2.37041">
        <ele>155.9</ele>
        <time>2019-06-30T07:46:27.000Z</time>
      </trkpt>
      <trkpt lat="43.20131" lon="2.37039">
        <ele>155.8</ele>
        <time>2019-06-30T07:46:28.000Z</time>
      </trkpt>
      <trkpt lat="43.20131" lon="2.37038">
        <ele>155.8</ele>
        <time>2019-06-30T07:46:29.000Z</time>
      </trkpt>
      <trkpt lat="43.20131" lon="2.37036">
        <ele>155.7</ele>
        <time>2019-06-30T07:46:30.000Z</time>
      </trkpt>
      <trkpt lat="43.20131" lon="2.37035">
        <ele>155.7</ele>
        <time>2019-06-30T07:46:31.000Z</time>
      </trkpt>
      <trkpt lat="43.2013" lon="2.37033">
        <ele>155.6</ele>
        <time>2019-06-30T07:46:32.000Z</time>
      </trkpt>
      <trkpt lat="43.2013" lon="2.37032">
        <ele>155.5</ele>
        <time>2019-06-30T07:46:33.000Z</time>
      </trkpt>
      <trkpt lat="43.2013" lon="2.3703">
        <ele>155.5</ele>
        <time>2019-06-30T07:46:34.000Z</time>
      </trkpt>
      <trkpt lat="43.2013" lon="2.37029">
        <ele>155.4</ele>
        <time>2019-06-30T07:46:35.000Z</time>
      </trkpt>
      <trkpt lat="43.2013" lon="2.37027">
        <ele>155.3</ele>
        <time>2019-06-30T07:46:36.000Z</time>
      </trkpt>
      <trkpt lat="43.2013" lon="2.37026">
        <ele>155.3</ele>
        <time>2019-06-30T07:46:37.000Z</time>
      </trkpt>
      <trkpt lat="43.2013" lon="2.37024">
        <ele>155.2</ele>
        <time>2019-06-30T07:46:38.000Z</time>
      </trkpt>
      <trkpt lat="43.20129" lon="2.37022">
        <ele>155.1</ele>
        <time>2019-06-30T07:46:39.000Z</time>
      </trkpt>
      <trkpt lat="43.20129" lon="2.3702">
        <ele>155</ele>
        <time>2019-06-30T07:46:40.000Z</time>
      </trkpt>
      <trkpt lat="43.20129" lon="2.37019">
        <ele>155</ele>
        <time>2019-06-30T07:46:41.000Z</time>
      </trkpt>
      <trkpt lat="43.20129" lon="2.37017">
        <ele>154.9</ele>
        <time>2019-06-30T07:46:42.000Z</time>
      </trkpt>
      <trkpt lat="43.20129" lon="2.37015">
        <ele>154.8</ele>
        <time>2019-06-30T07:46:43.000Z</time>
      </trkpt>
      <trkpt lat="43.20128" lon="2.37012">
        <ele>154.7</ele>
        <time>2019-06-30T07:46:44.000Z</time>
      </trkpt>
      <trkpt lat="43.20128" lon="2.3701">
        <ele>154.6</ele>
        <time>2019-06-30T07:46:45.000Z</time>
      </trkpt>
      <trkpt lat="43.20128" lon="2.37008">
        <ele>154.5</ele>
        <time>2019-06-30T07:46:46.000Z</time>
      </trkpt>
      <trkpt lat="43.20127" lon="2.37005">
        <ele>154.3</ele>
        <time>2019-06-30T07:46:47.000Z</time>
      </trkpt>
      <trkpt lat="43.20127" lon="2.37003">
        <ele>154.2</ele>
        <time>2019-06-30T07:46:48.000Z</time>
      </trkpt>
      <trkpt lat="43.20126" lon="2.37">
        <ele>154.1</ele>
        <time>2019-06-30T07:46:49.000Z</time>
      </trkpt>
      <trkpt lat="43.20125" lon="2.36997">
        <ele>154</ele>
        <time>2019-06-30T07:46:50.000Z</time>
      </trkpt>
      <trkpt lat="43.20125" lon="2.36994">
        <ele>153.9</ele>
        <time>2019-06-30T07:46:51.000Z</time>
      </trkpt>
      <trkpt lat="43.20124" lon="2.36991">
        <ele>153.8</ele>
        <time>2019-06-30T07:46:52.000Z</time>
      </trkpt>
      <trkpt lat="43.20123" lon="2.36988">
        <ele>153.7</ele>
        <time>2019-06-30T07:46:53.000Z</time>
      </trkpt>
      <trkpt lat="43.20123" lon="2.36984">
        <ele>153.6</ele>
        <time>2019-06-30T07:46:54.000Z</time>
      </trkpt>
      <trkpt lat="43.20122" lon="2.36981">
        <ele>153.5</ele>
        <time>2019-06-30T07:46:55.000Z</time>
      </trkpt>
      <trkpt lat="43.20121" lon="2.36978">
        <ele>153.4</ele>
        <time>2019-06-30T07:46:56.000Z</time>
      </trkpt>
      <trkpt lat="43.2012" lon="2.36974">
        <ele>153.3</ele>
        <time>2019-06-30T07:46:57.000Z</time>
      </trkpt>
      <trkpt lat="43.20119" lon="2.3697">
        <ele>153.2</ele>
        <time>2019-06-30T07:46:58.000Z</time>
      </trkpt>
      <trkpt lat="43.20119" lon="2.36967">
        <ele>153.1</ele>
        <time>2019-06-30T07:46:59.000Z</time>
      </trkpt>
      <trkpt lat="43.20118" lon="2.36963">
        <ele>153</ele>
        <time>2019-06-30T07:47:00.000Z</time>
      </trkpt>
      <trkpt lat="43.20117" lon="2.36959">
        <ele>152.8</ele>
        <time>2019-06-30T07:47:01.000Z</time>
      </trkpt>
      <trkpt lat="43.20116" lon="2.36955">
        <ele>152.7</ele>
        <time>2019-06-30T07:47:02.000Z</time>
      </trkpt>
      <trkpt lat="43.20116" lon="2.36951">
        <ele>152.6</ele>
        <time>2019-06-30T07:47:03.000Z</time>
      </trkpt>
      <trkpt lat="43.20115" lon="2.36947">
        <ele>152.5</ele>
        <time>2019-06-30T07:47:04.000Z</time>
      </trkpt>
      <trkpt lat="43.20114" lon="2.36944">
        <ele>152.4</ele>
        <time>2019-06-30T07:47:05.000Z</time>
      </trkpt>
      <trkpt lat="43.20114" lon="2.3694">
        <ele>152.2</ele>
        <time>2019-06-30T07:47:06.000Z</time>
      </trkpt>
      <trkpt lat="43.20113" lon="2.36936">
        <ele>152.1</ele>
        <time>2019-06-30T07:47:07.000Z</time>
      </trkpt>
      <trkpt lat="43.20112" lon="2.36932">
        <ele>152</ele>
        <time>2019-06-30T07:47:08.000Z</time>
      </trkpt>
      <trkpt lat="43.20112" lon="2.36929">
        <ele>151.9</ele>
        <time>2019-06-30T07:47:09.000Z</time>
      </trkpt>
      <trkpt lat="43.20111" lon="2.36925">
        <ele>151.8</ele>
        <time>2019-06-30T07:47:10.000Z</time>
      </trkpt>
      <trkpt lat="43.2011" lon="2.36921">
        <ele>151.7</ele>
        <time>2019-06-30T07:47:11.000Z</time>
      </trkpt>
      <trkpt lat="43.2011" lon="2.36918">
        <ele>151.6</ele>
        <time>2019-06-30T07:47:12.000Z</time>
      </trkpt>
      <trkpt lat="43.20109" lon="2.36915">
        <ele>151.5</ele>
        <time>2019-06-30T07:47:13.000Z</time>
      </trkpt>
      <trkpt lat="43.20109" lon="2.36911">
        <ele>151.5</ele>
        <time>2019-06-30T07:47:14.000Z</time>
      </trkpt>
      <trkpt lat="43.20108" lon="2.36908">
        <ele>151.4</ele>
        <time>2019-06-30T07:47:15.000Z</time>
      </trkpt>
      <trkpt lat="43.20107" lon="2.36905">
        <ele>151.4</ele>
        <time>2019-06-30T07:47:16.000Z</time>
      </trkpt>
      <trkpt lat="43.20106" lon="2.36901">
        <ele>151.3</ele>
        <time>2019-06-30T07:47:17.000Z</time>
      </trkpt>
      <trkpt lat="43.20106" lon="2.36898">
        <ele>151.2</ele>
        <time>2019-06-30T07:47:18.000Z</time>
      </trkpt>
      <trkpt lat="43.20105" lon="2.36894">
        <ele>151.2</ele>
        <time>2019-06-30T07:47:19.000Z</time>
      </trkpt>
      <trkpt lat="43.20104" lon="2.36891">
        <ele>151.1</ele>
        <time>2019-06-30T07:47:20.000Z</time>
      </trkpt>
      <trkpt lat="43.20103" lon="2.36887">
        <ele>151</ele>
        <time>2019-06-30T07:47:21.000Z</time>
      </trkpt>
      <trkpt lat="43.20102" lon="2.36883">
        <ele>151</ele>
        <time>2019-06-30T07:47:22.000Z</time>
      </trkpt>
      <trkpt lat="43.20101" lon="2.3688">
        <ele>150.9</ele>
        <time>2019-06-30T07:47:23.000Z</time>
      </trkpt>
      <trkpt lat="43.201" lon="2.36876">
        <ele>150.8</ele>
        <time>2019-06-30T07:47:24.000Z</time>
      </trkpt>
      <trkpt lat="43.20099" lon="2.36872">
        <ele>150.7</ele>
        <time>2019-06-30T07:47:25.000Z</time>
      </trkpt>
      <trkpt lat="43.20099" lon="2.36869">
        <ele>150.7</ele>
        <time>2019-06-30T07:47:26.000Z</time>
      </trkpt>
      <trkpt lat="43.20098" lon="2.36865">
        <ele>150.6</ele>
        <time>2019-06-30T07:47:27.000Z</time>
      </trkpt>
      <trkpt lat="43.20097" lon="2.36861">
        <ele>150.5</ele>
        <time>2019-06-30T07:47:28.000Z</time>
      </trkpt>
      <trkpt lat="43.20096" lon="2.36858">
        <ele>150.5</ele>
        <time>2019-06-30T07:47:29.000Z</time>
      </trkpt>
      <trkpt lat="43.20096" lon="2.36854">
        <ele>150.4</ele>
        <time>2019-06-30T07:47:30.000Z</time>
      </trkpt>
      <trkpt lat="43.20095" lon="2.36851">
        <ele>150.4</ele>
        <time>2019-06-30T07:47:31.000Z</time>
      </trkpt>
      <trkpt lat="43.20095" lon="2.36847">
        <ele>150.4</ele>
        <time>2019-06-30T07:47:32.000Z</time>
      </trkpt>
      <trkpt lat="43.20095" lon="2.36844">
        <ele>150.3</ele>
        <time>2019-06-30T07:47:33.000Z</time>
      </trkpt>
      <trkpt lat="43.20094" lon="2.36841">
        <ele>150.3</ele>
        <time>2019-06-30T07:47:34.000Z</time>
      </trkpt>
      <trkpt lat="43.20094" lon="2.36837">
        <ele>150.3</ele>
        <time>2019-06-30T07:47:35.000Z</time>
      </trkpt>
      <trkpt lat="43.20094" lon="2.36834">
        <ele>150.3</ele>
        <time>2019-06-30T07:47:36.000Z</time>
      </trkpt>
      <trkpt lat="43.20094" lon="2.3683">
        <ele>150.3</ele>
        <time>2019-06-30T07:47:37.000Z</time>
      </trkpt>
      <trkpt lat="43.20093" lon="2.36827">
        <ele>150.2</ele>
        <time>2019-06-30T07:47:38.000Z</time>
      </trkpt>
      <trkpt lat="43.20092" lon="2.36823">
        <ele>150.2</ele>
        <time>2019-06-30T07:47:39.000Z</time>
      </trkpt>
      <trkpt lat="43.20092" lon="2.36819">
        <ele>150.2</ele>
        <time>2019-06-30T07:47:40.000Z</time>
      </trkpt>
      <trkpt lat="43.20091" lon="2.36816">
        <ele>150.1</ele>
        <time>2019-06-30T07:47:41.000Z</time>
      </trkpt>
      <trkpt lat="43.2009" lon="2.36812">
        <ele>150.1</ele>
        <time>2019-06-30T07:47:42.000Z</time>
      </trkpt>
      <trkpt lat="43.2009" lon="2.36808">
        <ele>150</ele>
        <time>2019-06-30T07:47:43.000Z</time>
      </trkpt>
      <trkpt lat="43.20089" lon="2.36804">
        <ele>150</ele>
        <time>2019-06-30T07:47:44.000Z</time>
      </trkpt>
      <trkpt lat="43.20089" lon="2.368">
        <ele>150</ele>
        <time>2019-06-30T07:47:45.000Z</time>
      </trkpt>
      <trkpt lat="43.20088" lon="2.36797">
        <ele>150</ele>
        <time>2019-06-30T07:47:46.000Z</time>
      </trkpt>
      <trkpt lat="43.20089" lon="2.36794">
        <ele>150.1</ele>
        <time>2019-06-30T07:47:47.000Z</time>
      </trkpt>
      <trkpt lat="43.20089" lon="2.3679">
        <ele>150.1</ele>
        <time>2019-06-30T07:47:48.000Z</time>
      </trkpt>
      <trkpt lat="43.20089" lon="2.36787">
        <ele>150.2</ele>
        <time>2019-06-30T07:47:49.000Z</time>
      </trkpt>
      <trkpt lat="43.2009" lon="2.36784">
        <ele>150.3</ele>
        <time>2019-06-30T07:47:50.000Z</time>
      </trkpt>
      <trkpt lat="43.2009" lon="2.3678">
        <ele>150.4</ele>
        <time>2019-06-30T07:47:51.000Z</time>
      </trkpt>
      <trkpt lat="43.20091" lon="2.36777">
        <ele>150.5</ele>
        <time>2019-06-30T07:47:52.000Z</time>
      </trkpt>
      <trkpt lat="43.20091" lon="2.36774">
        <ele>150.6</ele>
        <time>2019-06-30T07:47:53.000Z</time>
      </trkpt>
      <trkpt lat="43.20092" lon="2.3677">
        <ele>150.7</ele>
        <time>2019-06-30T07:47:54.000Z</time>
      </trkpt>
      <trkpt lat="43.20093" lon="2.36767">
        <ele>150.9</ele>
        <time>2019-06-30T07:47:55.000Z</time>
      </trkpt>
      <trkpt lat="43.20094" lon="2.36764">
        <ele>151</ele>
        <time>2019-06-30T07:47:56.000Z</time>
      </trkpt>
      <trkpt lat="43.20095" lon="2.3676">
        <ele>151.1</ele>
        <time>2019-06-30T07:47:57.000Z</time>
      </trkpt>
      <trkpt lat="43.20096" lon="2.36757">
        <ele>151.3</ele>
        <time>2019-06-30T07:47:58.000Z</time>
      </trkpt>
      <trkpt lat="43.20097" lon="2.36754">
        <ele>151.5</ele>
        <time>2019-06-30T07:47:59.000Z</time>
      </trkpt>
      <trkpt lat="43.20099" lon="2.36751">
        <ele>151.6</ele>
        <time>2019-06-30T07:48:00.000Z</time>
      </trkpt>
      <trkpt lat="43.201" lon="2.36748">
        <ele>151.8</ele>
        <time>2019-06-30T07:48:01.000Z</time>
      </trkpt>
      <trkpt lat="43.20102" lon="2.36746">
        <ele>151.9</ele>
        <time>2019-06-30T07:48:02.000Z</time>
      </trkpt>
      <trkpt lat="43.20103" lon="2.36743">
        <ele>152</ele>
        <time>2019-06-30T07:48:03.000Z</time>
      </trkpt>
      <trkpt lat="43.20105" lon="2.36741">
        <ele>152.2</ele>
        <time>2019-06-30T07:48:04.000Z</time>
      </trkpt>
      <trkpt lat="43.20107" lon="2.3674">
        <ele>152.3</ele>
        <time>2019-06-30T07:48:05.000Z</time>
      </trkpt>
      <trkpt lat="43.20109" lon="2.36739">
        <ele>152.5</ele>
        <time>2019-06-30T07:48:06.000Z</time>
      </trkpt>
      <trkpt lat="43.2011" lon="2.36738">
        <ele>152.7</ele>
        <time>2019-06-30T07:48:07.000Z</time>
      </trkpt>
      <trkpt lat="43.20112" lon="2.36737">
        <ele>152.8</ele>
        <time>2019-06-30T07:48:08.000Z</time>
      </trkpt>
      <trkpt lat="43.20113" lon="2.36737">
        <ele>153</ele>
        <time>2019-06-30T07:48:09.000Z</time>
      </trkpt>
      <trkpt lat="43.20115" lon="2.36736">
        <ele>153.1</ele>
        <time>2019-06-30T07:48:10.000Z</time>
      </trkpt>
      <trkpt lat="43.20116" lon="2.36734">
        <ele>153.2</ele>
        <time>2019-06-30T07:48:11.000Z</time>
      </trkpt>
      <trkpt lat="43.20117" lon="2.36732">
        <ele>153.2</ele>
        <time>2019-06-30T07:48:12.000Z</time>
      </trkpt>
      <trkpt lat="43.20117" lon="2.36731">
        <ele>153.3</ele>
        <time>2019-06-30T07:48:13.000Z</time>
      </trkpt>
      <trkpt lat="43.20118" lon="2.36729">
        <ele>153.3</ele>
        <time>2019-06-30T07:48:14.000Z</time>
      </trkpt>
      <trkpt lat="43.20118" lon="2.36728">
        <ele>153.3</ele>
        <time>2019-06-30T07:48:15.000Z</time>
      </trkpt>
      <trkpt lat="43.20119" lon="2.36726">
        <ele>153.4</ele>
        <time>2019-06-30T07:48:16.000Z</time>
      </trkpt>
      <trkpt lat="43.20119" lon="2.36725">
        <ele>153.4</ele>
        <time>2019-06-30T07:48:17.000Z</time>
      </trkpt>
      <trkpt lat="43.20119" lon="2.36725">
        <ele>153.4</ele>
        <time>2019-06-30T07:48:18.000Z</time>
      </trkpt>
      <trkpt lat="43.20119" lon="2.36724">
        <ele>153.4</ele>
        <time>2019-06-30T07:48:19.000Z</time>
      </trkpt>
      <trkpt lat="43.20119" lon="2.36724">
        <ele>153.4</ele>
        <time>2019-06-30T07:48:20.000Z</time>
      </trkpt>
      <trkpt lat="43.20119" lon="2.36724">
        <ele>153.4</ele>
        <time>2019-06-30T07:48:21.000Z</time>
      </trkpt>
      <trkpt lat="43.20119" lon="2.36724">
        <ele>153.4</ele>
        <time>2019-06-30T07:48:22.000Z</time>
      </trkpt>
      <trkpt lat="43.20119" lon="2.36724">
        <ele>153.4</ele>
        <time>2019-06-30T07:48:23.000Z</time>
      </trkpt>
      <trkpt lat="43.20119" lon="2.36725">
        <ele>153.4</ele>
        <time>2019-06-30T07:48:24.000Z</time>
      </trkpt>
      <trkpt lat="43.20119" lon="2.36725">
        <ele>153.4</ele>
        <time>2019-06-30T07:48:25.000Z</time>
      </trkpt>
      <trkpt lat="43.20119" lon="2.36726">
        <ele>153.4</ele>
        <time>2019-06-30T07:48:26.000Z</time>
      </trkpt>
      <trkpt lat="43.20118" lon="2.36727">
        <ele>153.3</ele>
        <time>2019-06-30T07:48:27.000Z</time>
      </trkpt>
      <trkpt lat="43.20118" lon="2.36728">
        <ele>153.4</ele>
        <time>2019-06-30T07:48:28.000Z</time>
      </trkpt>
      <trkpt lat="43.20118" lon="2.36729">
        <ele>153.4</ele>
        <time>2019-06-30T07:48:29.000Z</time>
      </trkpt>
      <trkpt lat="43.20118" lon="2.3673">
        <ele>153.4</ele>
        <time>2019-06-30T07:48:30.000Z</time>
      </trkpt>
      <trkpt lat="43.20118" lon="2.36731">
        <ele>153.4</ele>
        <time>2019-06-30T07:48:31.000Z</time>
      </trkpt>
      <trkpt lat="43.20118" lon="2.36731">
        <ele>153.3</ele>
        <time>2019-06-30T07:48:32.000Z</time>
      </trkpt>
      <trkpt lat="43.20118" lon="2.36732">
        <ele>153.3</ele>
        <time>2019-06-30T07:48:33.000Z</time>
      </trkpt>
      <trkpt lat="43.20117" lon="2.36732">
        <ele>153.3</ele>
        <time>2019-06-30T07:48:34.000Z</time>
      </trkpt>
      <trkpt lat="43.20117" lon="2.36731">
        <ele>153.3</ele>
        <time>2019-06-30T07:48:35.000Z</time>
      </trkpt>
      <trkpt lat="43.20117" lon="2.3673">
        <ele>153.3</ele>
        <time>2019-06-30T07:48:36.000Z</time>
      </trkpt>
      <trkpt lat="43.20117" lon="2.36729">
        <ele>153.2</ele>
        <time>2019-06-30T07:48:37.000Z</time>
      </trkpt>
      <trkpt lat="43.20117" lon="2.36728">
        <ele>153.2</ele>
        <time>2019-06-30T07:48:38.000Z</time>
      </trkpt>
      <trkpt lat="43.20117" lon="2.36726">
        <ele>153.2</ele>
        <time>2019-06-30T07:48:39.000Z</time>
      </trkpt>
      <trkpt lat="43.20118" lon="2.36725">
        <ele>153.2</ele>
        <time>2019-06-30T07:48:40.000Z</time>
      </trkpt>
      <trkpt lat="43.20118" lon="2.36723">
        <ele>153.3</ele>
        <time>2019-06-30T07:48:41.000Z</time>
      </trkpt>
      <trkpt lat="43.20119" lon="2.36722">
        <ele>153.3</ele>
        <time>2019-06-30T07:48:42.000Z</time>
      </trkpt>
      <trkpt lat="43.2012" lon="2.3672">
        <ele>153.4</ele>
        <time>2019-06-30T07:48:43.000Z</time>
      </trkpt>
      <trkpt lat="43.20121" lon="2.36719">
        <ele>153.5</ele>
        <time>2019-06-30T07:48:44.000Z</time>
      </trkpt>
      <trkpt lat="43.20122" lon="2.36717">
        <ele>153.5</ele>
        <time>2019-06-30T07:48:45.000Z</time>
      </trkpt>
      <trkpt lat="43.20122" lon="2.36714">
        <ele>153.5</ele>
        <time>2019-06-30T07:48:46.000Z</time>
      </trkpt>
      <trkpt lat="43.20123" lon="2.36711">
        <ele>153.5</ele>
        <time>2019-06-30T07:48:47.000Z</time>
      </trkpt>
      <trkpt lat="43.20123" lon="2.36708">
        <ele>153.5</ele>
        <time>2019-06-30T07:48:48.000Z</time>
      </trkpt>
      <trkpt lat="43.20123" lon="2.36705">
        <ele>153.5</ele>
        <time>2019-06-30T07:48:49.000Z</time>
      </trkpt>
      <trkpt lat="43.20124" lon="2.36702">
        <ele>153.5</ele>
        <time>2019-06-30T07:48:50.000Z</time>
      </trkpt>
      <trkpt lat="43.20125" lon="2.36699">
        <ele>153.5</ele>
        <time>2019-06-30T07:48:51.000Z</time>
      </trkpt>
      <trkpt lat="43.20126" lon="2.36696">
        <ele>153.6</ele>
        <time>2019-06-30T07:48:52.000Z</time>
      </trkpt>
      <trkpt lat="43.20127" lon="2.36692">
        <ele>153.6</ele>
        <time>2019-06-30T07:48:53.000Z</time>
      </trkpt>
      <trkpt lat="43.20128" lon="2.36689">
        <ele>153.7</ele>
        <time>2019-06-30T07:48:54.000Z</time>
      </trkpt>
      <trkpt lat="43.20129" lon="2.36686">
        <ele>153.8</ele>
        <time>2019-06-30T07:48:55.000Z</time>
      </trkpt>
      <trkpt lat="43.2013" lon="2.36682">
        <ele>153.8</ele>
        <time>2019-06-30T07:48:56.000Z</time>
      </trkpt>
      <trkpt lat="43.20131" lon="2.36679">
        <ele>153.9</ele>
        <time>2019-06-30T07:48:57.000Z</time>
      </trkpt>
      <trkpt lat="43.20132" lon="2.36675">
        <ele>153.9</ele>
        <time>2019-06-30T07:48:58.000Z</time>
      </trkpt>
      <trkpt lat="43.20132" lon="2.36672">
        <ele>154</ele>
        <time>2019-06-30T07:48:59.000Z</time>
      </trkpt>
      <trkpt lat="43.20133" lon="2.36668">
        <ele>154</ele>
        <time>2019-06-30T07:49:00.000Z</time>
      </trkpt>
      <trkpt lat="43.20134" lon="2.36665">
        <ele>154</ele>
        <time>2019-06-30T07:49:01.000Z</time>
      </trkpt>
      <trkpt lat="43.20135" lon="2.36661">
        <ele>154</ele>
        <time>2019-06-30T07:49:02.000Z</time>
      </trkpt>
      <trkpt lat="43.20136" lon="2.36658">
        <ele>153.9</ele>
        <time>2019-06-30T07:49:03.000Z</time>
      </trkpt>
      <trkpt lat="43.20137" lon="2.36654">
        <ele>153.9</ele>
        <time>2019-06-30T07:49:04.000Z</time>
      </trkpt>
      <trkpt lat="43.20137" lon="2.36651">
        <ele>153.9</ele>
        <time>2019-06-30T07:49:05.000Z</time>
      </trkpt>
      <trkpt lat="43.20138" lon="2.36648">
        <ele>153.8</ele>
        <time>2019-06-30T07:49:06.000Z</time>
      </trkpt>
      <trkpt lat="43.20139" lon="2.36644">
        <ele>153.8</ele>
        <time>2019-06-30T07:49:07.000Z</time>
      </trkpt>
      <trkpt lat="43.2014" lon="2.36641">
        <ele>153.7</ele>
        <time>2019-06-30T07:49:08.000Z</time>
      </trkpt>
      <trkpt lat="43.20141" lon="2.36638">
        <ele>153.7</ele>
        <time>2019-06-30T07:49:09.000Z</time>
      </trkpt>
      <trkpt lat="43.20142" lon="2.36634">
        <ele>153.7</ele>
        <time>2019-06-30T07:49:10.000Z</time>
      </trkpt>
      <trkpt lat="43.20143" lon="2.36631">
        <ele>153.6</ele>
        <time>2019-06-30T07:49:11.000Z</time>
      </trkpt>
      <trkpt lat="43.20144" lon="2.36627">
        <ele>153.6</ele>
        <time>2019-06-30T07:49:12.000Z</time>
      </trkpt>
      <trkpt lat="43.20145" lon="2.36624">
        <ele>153.6</ele>
        <time>2019-06-30T07:49:13.000Z</time>
      </trkpt>
      <trkpt lat="43.20146" lon="2.36621">
        <ele>153.6</ele>
        <time>2019-06-30T07:49:14.000Z</time>
      </trkpt>
      <trkpt lat="43.20147" lon="2.36618">
        <ele>153.5</ele>
        <time>2019-06-30T07:49:15.000Z</time>
      </trkpt>
      <trkpt lat="43.20148" lon="2.36615">
        <ele>153.5</ele>
        <time>2019-06-30T07:49:16.000Z</time>
      </trkpt>
      <trkpt lat="43.20149" lon="2.36612">
        <ele>153.5</ele>
        <time>2019-06-30T07:49:17.000Z</time>
      </trkpt>
      <trkpt lat="43.2015" lon="2.3661">
        <ele>153.5</ele>
        <time>2019-06-30T07:49:18.000Z</time>
      </trkpt>
      <trkpt lat="43.20151" lon="2.36608">
        <ele>153.5</ele>
        <time>2019-06-30T07:49:19.000Z</time>
      </trkpt>
      <trkpt lat="43.20152" lon="2.36606">
        <ele>153.6</ele>
        <time>2019-06-30T07:49:20.000Z</time>
      </trkpt>
      <trkpt lat="43.20153" lon="2.36605">
        <ele>153.7</ele>
        <time>2019-06-30T07:49:21.000Z</time>
      </trkpt>
      <trkpt lat="43.20155" lon="2.36604">
        <ele>153.8</ele>
        <time>2019-06-30T07:49:22.000Z</time>
      </trkpt>
      <trkpt lat="43.20157" lon="2.36603">
        <ele>154</ele>
        <time>2019-06-30T07:49:23.000Z</time>
      </trkpt>
      <trkpt lat="43.20159" lon="2.36603">
        <ele>154.2</ele>
        <time>2019-06-30T07:49:24.000Z</time>
      </trkpt>
      <trkpt lat="43.20161" lon="2.36602">
        <ele>154.3</ele>
        <time>2019-06-30T07:49:25.000Z</time>
      </trkpt>
      <trkpt lat="43.20163" lon="2.36601">
        <ele>154.4</ele>
        <time>2019-06-30T07:49:26.000Z</time>
      </trkpt>
      <trkpt lat="43.20164" lon="2.366">
        <ele>154.5</ele>
        <time>2019-06-30T07:49:27.000Z</time>
      </trkpt>
      <trkpt lat="43.20165" lon="2.36597">
        <ele>154.5</ele>
        <time>2019-06-30T07:49:28.000Z</time>
      </trkpt>
      <trkpt lat="43.20165" lon="2.36594">
        <ele>154.4</ele>
        <time>2019-06-30T07:49:29.000Z</time>
      </trkpt>
      <trkpt lat="43.20165" lon="2.36591">
        <ele>154.2</ele>
        <time>2019-06-30T07:49:30.000Z</time>
      </trkpt>
      <trkpt lat="43.20165" lon="2.36588">
        <ele>154.1</ele>
        <time>2019-06-30T07:49:31.000Z</time>
      </trkpt>
      <trkpt lat="43.20165" lon="2.36584">
        <ele>153.9</ele>
        <time>2019-06-30T07:49:32.000Z</time>
      </trkpt>
      <trkpt lat="43.20166" lon="2.36582">
        <ele>153.9</ele>
        <time>2019-06-30T07:49:33.000Z</time>
      </trkpt>
      <trkpt lat="43.20166" lon="2.36579">
        <ele>153.8</ele>
        <time>2019-06-30T07:49:34.000Z</time>
      </trkpt>
      <trkpt lat="43.20166" lon="2.36576">
        <ele>153.8</ele>
        <time>2019-06-30T07:49:35.000Z</time>
      </trkpt>
      <trkpt lat="43.20166" lon="2.36573">
        <ele>153.7</ele>
        <time>2019-06-30T07:49:36.000Z</time>
      </trkpt>
      <trkpt lat="43.20167" lon="2.36571">
        <ele>153.7</ele>
        <time>2019-06-30T07:49:37.000Z</time>
      </trkpt>
      <trkpt lat="43.20167" lon="2.36568">
        <ele>153.6</ele>
        <time>2019-06-30T07:49:38.000Z</time>
      </trkpt>
      <trkpt lat="43.20168" lon="2.36565">
        <ele>153.6</ele>
        <time>2019-06-30T07:49:39.000Z</time>
      </trkpt>
      <trkpt lat="43.20168" lon="2.36562">
        <ele>153.5</ele>
        <time>2019-06-30T07:49:40.000Z</time>
      </trkpt>
      <trkpt lat="43.20168" lon="2.36559">
        <ele>153.4</ele>
        <time>2019-06-30T07:49:41.000Z</time>
      </trkpt>
      <trkpt lat="43.20169" lon="2.36555">
        <ele>153.4</ele>
        <time>2019-06-30T07:49:42.000Z</time>
      </trkpt>
      <trkpt lat="43.20169" lon="2.36552">
        <ele>153.3</ele>
        <time>2019-06-30T07:49:43.000Z</time>
      </trkpt>
      <trkpt lat="43.2017" lon="2.36548">
        <ele>153.2</ele>
        <time>2019-06-30T07:49:44.000Z</time>
      </trkpt>
      <trkpt lat="43.20171" lon="2.36545">
        <ele>153.1</ele>
        <time>2019-06-30T07:49:45.000Z</time>
      </trkpt>
      <trkpt lat="43.20171" lon="2.36541">
        <ele>153</ele>
        <time>2019-06-30T07:49:46.000Z</time>
      </trkpt>
      <trkpt lat="43.20172" lon="2.36538">
        <ele>153</ele>
        <time>2019-06-30T07:49:47.000Z</time>
      </trkpt>
      <trkpt lat="43.20173" lon="2.36535">
        <ele>152.9</ele>
        <time>2019-06-30T07:49:48.000Z</time>
      </trkpt>
      <trkpt lat="43.20174" lon="2.36531">
        <ele>152.8</ele>
        <time>2019-06-30T07:49:49.000Z</time>
      </trkpt>
      <trkpt lat="43.20176" lon="2.36528">
        <ele>152.7</ele>
        <time>2019-06-30T07:49:50.000Z</time>
      </trkpt>
      <trkpt lat="43.20177" lon="2.36525">
        <ele>152.7</ele>
        <time>2019-06-30T07:49:51.000Z</time>
      </trkpt>
      <trkpt lat="43.20179" lon="2.36523">
        <ele>152.6</ele>
        <time>2019-06-30T07:49:52.000Z</time>
      </trkpt>
      <trkpt lat="43.20181" lon="2.3652">
        <ele>152.6</ele>
        <time>2019-06-30T07:49:53.000Z</time>
      </trkpt>
      <trkpt lat="43.20182" lon="2.36518">
        <ele>152.5</ele>
        <time>2019-06-30T07:49:54.000Z</time>
      </trkpt>
      <trkpt lat="43.20184" lon="2.36516">
        <ele>152.5</ele>
        <time>2019-06-30T07:49:55.000Z</time>
      </trkpt>
      <trkpt lat="43.20187" lon="2.36514">
        <ele>152.4</ele>
        <time>2019-06-30T07:49:56.000Z</time>
      </trkpt>
      <trkpt lat="43.20189" lon="2.36513">
        <ele>152.4</ele>
        <time>2019-06-30T07:49:57.000Z</time>
      </trkpt>
      <trkpt lat="43.20191" lon="2.36511">
        <ele>152.4</ele>
        <time>2019-06-30T07:49:58.000Z</time>
      </trkpt>
      <trkpt lat="43.20193" lon="2.3651">
        <ele>152.3</ele>
        <time>2019-06-30T07:49:59.000Z</time>
      </trkpt>
      <trkpt lat="43.20196" lon="2.36509">
        <ele>152.3</ele>
        <time>2019-06-30T07:50:00.000Z</time>
      </trkpt>
      <trkpt lat="43.20198" lon="2.36509">
        <ele>152.3</ele>
        <time>2019-06-30T07:50:01.000Z</time>
      </trkpt>
      <trkpt lat="43.202" lon="2.36508">
        <ele>152.3</ele>
        <time>2019-06-30T07:50:02.000Z</time>
      </trkpt>
      <trkpt lat="43.20203" lon="2.36508">
        <ele>152.3</ele>
        <time>2019-06-30T07:50:03.000Z</time>
      </trkpt>
      <trkpt lat="43.20205" lon="2.36507">
        <ele>152.3</ele>
        <time>2019-06-30T07:50:04.000Z</time>
      </trkpt>
      <trkpt lat="43.20208" lon="2.36507">
        <ele>152.2</ele>
        <time>2019-06-30T07:50:05.000Z</time>
      </trkpt>
      <trkpt lat="43.2021" lon="2.36507">
        <ele>152.2</ele>
        <time>2019-06-30T07:50:06.000Z</time>
      </trkpt>
      <trkpt lat="43.20212" lon="2.36506">
        <ele>152.2</ele>
        <time>2019-06-30T07:50:07.000Z</time>
      </trkpt>
      <trkpt lat="43.20215" lon="2.36506">
        <ele>152.2</ele>
        <time>2019-06-30T07:50:08.000Z</time>
      </trkpt>
      <trkpt lat="43.20217" lon="2.36506">
        <ele>152.2</ele>
        <time>2019-06-30T07:50:09.000Z</time>
      </trkpt>
      <trkpt lat="43.2022" lon="2.36505">
        <ele>152.2</ele>
        <time>2019-06-30T07:50:10.000Z</time>
      </trkpt>
      <trkpt lat="43.20223" lon="2.36505">
        <ele>152.2</ele>
        <time>2019-06-30T07:50:11.000Z</time>
      </trkpt>
      <trkpt lat="43.20225" lon="2.36505">
        <ele>152.2</ele>
        <time>2019-06-30T07:50:12.000Z</time>
      </trkpt>
      <trkpt lat="43.20228" lon="2.36504">
        <ele>152.2</ele>
        <time>2019-06-30T07:50:13.000Z</time>
      </trkpt>
      <trkpt lat="43.20231" lon="2.36503">
        <ele>152.1</ele>
        <time>2019-06-30T07:50:14.000Z</time>
      </trkpt>
      <trkpt lat="43.20233" lon="2.36502">
        <ele>152.1</ele>
        <time>2019-06-30T07:50:15.000Z</time>
      </trkpt>
      <trkpt lat="43.20236" lon="2.36502">
        <ele>152.1</ele>
        <time>2019-06-30T07:50:16.000Z</time>
      </trkpt>
      <trkpt lat="43.20239" lon="2.36501">
        <ele>152</ele>
        <time>2019-06-30T07:50:17.000Z</time>
      </trkpt>
      <trkpt lat="43.20242" lon="2.365">
        <ele>152</ele>
        <time>2019-06-30T07:50:18.000Z</time>
      </trkpt>
      <trkpt lat="43.20244" lon="2.36498">
        <ele>151.9</ele>
        <time>2019-06-30T07:50:19.000Z</time>
      </trkpt>
      <trkpt lat="43.20247" lon="2.36497">
        <ele>151.8</ele>
        <time>2019-06-30T07:50:20.000Z</time>
      </trkpt>
      <trkpt lat="43.2025" lon="2.36496">
        <ele>151.7</ele>
        <time>2019-06-30T07:50:21.000Z</time>
      </trkpt>
      <trkpt lat="43.20252" lon="2.36494">
        <ele>151.4</ele>
        <time>2019-06-30T07:50:22.000Z</time>
      </trkpt>
      <trkpt lat="43.20255" lon="2.36492">
        <ele>151</ele>
        <time>2019-06-30T07:50:23.000Z</time>
      </trkpt>
      <trkpt lat="43.20258" lon="2.36491">
        <ele>150.7</ele>
        <time>2019-06-30T07:50:24.000Z</time>
      </trkpt>
      <trkpt lat="43.2026" lon="2.36489">
        <ele>150.3</ele>
        <time>2019-06-30T07:50:25.000Z</time>
      </trkpt>
      <trkpt lat="43.20263" lon="2.36488">
        <ele>150</ele>
        <time>2019-06-30T07:50:26.000Z</time>
      </trkpt>
      <trkpt lat="43.20266" lon="2.36486">
        <ele>149.7</ele>
        <time>2019-06-30T07:50:27.000Z</time>
      </trkpt>
      <trkpt lat="43.20268" lon="2.36484">
        <ele>149.3</ele>
        <time>2019-06-30T07:50:28.000Z</time>
      </trkpt>
      <trkpt lat="43.20271" lon="2.36483">
        <ele>149</ele>
        <time>2019-06-30T07:50:29.000Z</time>
      </trkpt>
      <trkpt lat="43.20274" lon="2.36482">
        <ele>148.7</ele>
        <time>2019-06-30T07:50:30.000Z</time>
      </trkpt>
      <trkpt lat="43.20276" lon="2.36481">
        <ele>148.4</ele>
        <time>2019-06-30T07:50:31.000Z</time>
      </trkpt>
      <trkpt lat="43.20279" lon="2.36479">
        <ele>148.1</ele>
        <time>2019-06-30T07:50:32.000Z</time>
      </trkpt>
      <trkpt lat="43.20282" lon="2.36478">
        <ele>147.7</ele>
        <time>2019-06-30T07:50:33.000Z</time>
      </trkpt>
      <trkpt lat="43.20285" lon="2.36477">
        <ele>147.4</ele>
        <time>2019-06-30T07:50:34.000Z</time>
      </trkpt>
      <trkpt lat="43.20288" lon="2.36476">
        <ele>147.1</ele>
        <time>2019-06-30T07:50:35.000Z</time>
      </trkpt>
      <trkpt lat="43.2029" lon="2.36475">
        <ele>146.8</ele>
        <time>2019-06-30T07:50:36.000Z</time>
      </trkpt>
      <trkpt lat="43.20293" lon="2.36473">
        <ele>146.4</ele>
        <time>2019-06-30T07:50:37.000Z</time>
      </trkpt>
      <trkpt lat="43.20296" lon="2.36472">
        <ele>146.1</ele>
        <time>2019-06-30T07:50:38.000Z</time>
      </trkpt>
      <trkpt lat="43.20299" lon="2.36471">
        <ele>145.8</ele>
        <time>2019-06-30T07:50:39.000Z</time>
      </trkpt>
      <trkpt lat="43.20302" lon="2.36469">
        <ele>145.4</ele>
        <time>2019-06-30T07:50:40.000Z</time>
      </trkpt>
      <trkpt lat="43.20305" lon="2.36468">
        <ele>145.1</ele>
        <time>2019-06-30T07:50:41.000Z</time>
      </trkpt>
      <trkpt lat="43.20308" lon="2.36467">
        <ele>144.7</ele>
        <time>2019-06-30T07:50:42.000Z</time>
      </trkpt>
      <trkpt lat="43.20311" lon="2.36465">
        <ele>144.4</ele>
        <time>2019-06-30T07:50:43.000Z</time>
      </trkpt>
      <trkpt lat="43.20314" lon="2.36464">
        <ele>144</ele>
        <time>2019-06-30T07:50:44.000Z</time>
      </trkpt>
      <trkpt lat="43.20317" lon="2.36463">
        <ele>143.7</ele>
        <time>2019-06-30T07:50:45.000Z</time>
      </trkpt>
      <trkpt lat="43.2032" lon="2.36462">
        <ele>143.4</ele>
        <time>2019-06-30T07:50:46.000Z</time>
      </trkpt>
      <trkpt lat="43.20323" lon="2.36461">
        <ele>143.1</ele>
        <time>2019-06-30T07:50:47.000Z</time>
      </trkpt>
      <trkpt lat="43.20326" lon="2.3646">
        <ele>142.8</ele>
        <time>2019-06-30T07:50:48.000Z</time>
      </trkpt>
      <trkpt lat="43.20329" lon="2.3646">
        <ele>142.5</ele>
        <time>2019-06-30T07:50:49.000Z</time>
      </trkpt>
      <trkpt lat="43.20332" lon="2.36459">
        <ele>142.2</ele>
        <time>2019-06-30T07:50:50.000Z</time>
      </trkpt>
      <trkpt lat="43.20335" lon="2.36459">
        <ele>142</ele>
        <time>2019-06-30T07:50:51.000Z</time>
      </trkpt>
      <trkpt lat="43.20337" lon="2.36459">
        <ele>141.9</ele>
        <time>2019-06-30T07:50:52.000Z</time>
      </trkpt>
      <trkpt lat="43.2034" lon="2.36459">
        <ele>141.7</ele>
        <time>2019-06-30T07:50:53.000Z</time>
      </trkpt>
      <trkpt lat="43.20343" lon="2.36459">
        <ele>141.6</ele>
        <time>2019-06-30T07:50:54.000Z</time>
      </trkpt>
      <trkpt lat="43.20346" lon="2.36459">
        <ele>141.5</ele>
        <time>2019-06-30T07:50:55.000Z</time>
      </trkpt>
      <trkpt lat="43.20349" lon="2.36459">
        <ele>141.4</ele>
        <time>2019-06-30T07:50:56.000Z</time>
      </trkpt>
      <trkpt lat="43.20352" lon="2.3646">
        <ele>141.3</ele>
        <time>2019-06-30T07:50:57.000Z</time>
      </trkpt>
      <trkpt lat="43.20355" lon="2.3646">
        <ele>141.2</ele>
        <time>2019-06-30T07:50:58.000Z</time>
      </trkpt>
      <trkpt lat="43.20358" lon="2.3646">
        <ele>141.1</ele>
        <time>2019-06-30T07:50:59.000Z</time>
      </trkpt>
      <trkpt lat="43.20361" lon="2.36461">
        <ele>141</ele>
        <time>2019-06-30T07:51:00.000Z</time>
      </trkpt>
      <trkpt lat="43.20364" lon="2.36461">
        <ele>140.9</ele>
        <time>2019-06-30T07:51:01.000Z</time>
      </trkpt>
      <trkpt lat="43.20367" lon="2.36461">
        <ele>140.7</ele>
        <time>2019-06-30T07:51:02.000Z</time>
      </trkpt>
      <trkpt lat="43.2037" lon="2.36462">
        <ele>140.6</ele>
        <time>2019-06-30T07:51:03.000Z</time>
      </trkpt>
      <trkpt lat="43.20373" lon="2.36462">
        <ele>140.5</ele>
        <time>2019-06-30T07:51:04.000Z</time>
      </trkpt>
      <trkpt lat="43.20376" lon="2.36462">
        <ele>140.4</ele>
        <time>2019-06-30T07:51:05.000Z</time>
      </trkpt>
      <trkpt lat="43.20379" lon="2.36463">
        <ele>140.3</ele>
        <time>2019-06-30T07:51:06.000Z</time>
      </trkpt>
      <trkpt lat="43.20382" lon="2.36463">
        <ele>140.2</ele>
        <time>2019-06-30T07:51:07.000Z</time>
      </trkpt>
      <trkpt lat="43.20385" lon="2.36464">
        <ele>140.1</ele>
        <time>2019-06-30T07:51:08.000Z</time>
      </trkpt>
      <trkpt lat="43.20388" lon="2.36464">
        <ele>140</ele>
        <time>2019-06-30T07:51:09.000Z</time>
      </trkpt>
      <trkpt lat="43.20391" lon="2.36464">
        <ele>139.9</ele>
        <time>2019-06-30T07:51:10.000Z</time>
      </trkpt>
      <trkpt lat="43.20394" lon="2.36464">
        <ele>139.7</ele>
        <time>2019-06-30T07:51:11.000Z</time>
      </trkpt>
      <trkpt lat="43.20397" lon="2.36464">
        <ele>139.6</ele>
        <time>2019-06-30T07:51:12.000Z</time>
      </trkpt>
      <trkpt lat="43.20399" lon="2.36464">
        <ele>139.5</ele>
        <time>2019-06-30T07:51:13.000Z</time>
      </trkpt>
      <trkpt lat="43.20402" lon="2.36464">
        <ele>139.4</ele>
        <time>2019-06-30T07:51:14.000Z</time>
      </trkpt>
      <trkpt lat="43.20405" lon="2.36464">
        <ele>139.2</ele>
        <time>2019-06-30T07:51:15.000Z</time>
      </trkpt>
      <trkpt lat="43.20408" lon="2.36464">
        <ele>139.1</ele>
        <time>2019-06-30T07:51:16.000Z</time>
      </trkpt>
      <trkpt lat="43.20411" lon="2.36464">
        <ele>139</ele>
        <time>2019-06-30T07:51:17.000Z</time>
      </trkpt>
      <trkpt lat="43.20413" lon="2.36464">
        <ele>138.9</ele>
        <time>2019-06-30T07:51:18.000Z</time>
      </trkpt>
      <trkpt lat="43.20416" lon="2.36464">
        <ele>138.7</ele>
        <time>2019-06-30T07:51:19.000Z</time>
      </trkpt>
      <trkpt lat="43.20419" lon="2.36464">
        <ele>138.9</ele>
        <time>2019-06-30T07:51:20.000Z</time>
      </trkpt>
      <trkpt lat="43.20422" lon="2.36465">
        <ele>139.2</ele>
        <time>2019-06-30T07:51:21.000Z</time>
      </trkpt>
      <trkpt lat="43.20424" lon="2.36465">
        <ele>139.5</ele>
        <time>2019-06-30T07:51:22.000Z</time>
      </trkpt>
      <trkpt lat="43.20427" lon="2.36465">
        <ele>139.7</ele>
        <time>2019-06-30T07:51:23.000Z</time>
      </trkpt>
      <trkpt lat="43.20429" lon="2.36466">
        <ele>140</ele>
        <time>2019-06-30T07:51:24.000Z</time>
      </trkpt>
      <trkpt lat="43.20432" lon="2.36466">
        <ele>140.3</ele>
        <time>2019-06-30T07:51:25.000Z</time>
      </trkpt>
      <trkpt lat="43.20435" lon="2.36467">
        <ele>140.5</ele>
        <time>2019-06-30T07:51:26.000Z</time>
      </trkpt>
      <trkpt lat="43.20437" lon="2.36467">
        <ele>140.8</ele>
        <time>2019-06-30T07:51:27.000Z</time>
      </trkpt>
      <trkpt lat="43.20439" lon="2.36468">
        <ele>141</ele>
        <time>2019-06-30T07:51:28.000Z</time>
      </trkpt>
      <trkpt lat="43.20442" lon="2.36469">
        <ele>141.2</ele>
        <time>2019-06-30T07:51:29.000Z</time>
      </trkpt>
      <trkpt lat="43.20444" lon="2.36469">
        <ele>141.5</ele>
        <time>2019-06-30T07:51:30.000Z</time>
      </trkpt>
      <trkpt lat="43.20446" lon="2.3647">
        <ele>141.7</ele>
        <time>2019-06-30T07:51:31.000Z</time>
      </trkpt>
      <trkpt lat="43.20448" lon="2.36471">
        <ele>141.9</ele>
        <time>2019-06-30T07:51:32.000Z</time>
      </trkpt>
      <trkpt lat="43.2045" lon="2.36471">
        <ele>142.1</ele>
        <time>2019-06-30T07:51:33.000Z</time>
      </trkpt>
      <trkpt lat="43.20452" lon="2.36471">
        <ele>142.3</ele>
        <time>2019-06-30T07:51:34.000Z</time>
      </trkpt>
      <trkpt lat="43.20454" lon="2.36471">
        <ele>142.4</ele>
        <time>2019-06-30T07:51:35.000Z</time>
      </trkpt>
      <trkpt lat="43.20455" lon="2.3647">
        <ele>142.5</ele>
        <time>2019-06-30T07:51:36.000Z</time>
      </trkpt>
      <trkpt lat="43.20456" lon="2.36468">
        <ele>142.6</ele>
        <time>2019-06-30T07:51:37.000Z</time>
      </trkpt>
      <trkpt lat="43.20457" lon="2.36465">
        <ele>142.7</ele>
        <time>2019-06-30T07:51:38.000Z</time>
      </trkpt>
      <trkpt lat="43.20457" lon="2.36463">
        <ele>142.7</ele>
        <time>2019-06-30T07:51:39.000Z</time>
      </trkpt>
      <trkpt lat="43.20457" lon="2.3646">
        <ele>142.6</ele>
        <time>2019-06-30T07:51:40.000Z</time>
      </trkpt>
      <trkpt lat="43.20457" lon="2.36458">
        <ele>142.6</ele>
        <time>2019-06-30T07:51:41.000Z</time>
      </trkpt>
      <trkpt lat="43.20456" lon="2.36455">
        <ele>142.5</ele>
        <time>2019-06-30T07:51:42.000Z</time>
      </trkpt>
      <trkpt lat="43.20455" lon="2.36453">
        <ele>142.4</ele>
        <time>2019-06-30T07:51:43.000Z</time>
      </trkpt>
      <trkpt lat="43.20454" lon="2.3645">
        <ele>142.2</ele>
        <time>2019-06-30T07:51:44.000Z</time>
      </trkpt>
      <trkpt lat="43.20453" lon="2.36448">
        <ele>142.1</ele>
        <time>2019-06-30T07:51:45.000Z</time>
      </trkpt>
      <trkpt lat="43.20452" lon="2.36445">
        <ele>141.9</ele>
        <time>2019-06-30T07:51:46.000Z</time>
      </trkpt>
      <trkpt lat="43.20451" lon="2.36442">
        <ele>141.8</ele>
        <time>2019-06-30T07:51:47.000Z</time>
      </trkpt>
      <trkpt lat="43.2045" lon="2.36439">
        <ele>141.7</ele>
        <time>2019-06-30T07:51:48.000Z</time>
      </trkpt>
      <trkpt lat="43.20449" lon="2.36436">
        <ele>141.5</ele>
        <time>2019-06-30T07:51:49.000Z</time>
      </trkpt>
      <trkpt lat="43.20448" lon="2.36432">
        <ele>141.4</ele>
        <time>2019-06-30T07:51:50.000Z</time>
      </trkpt>
      <trkpt lat="43.20448" lon="2.36429">
        <ele>141.3</ele>
        <time>2019-06-30T07:51:51.000Z</time>
      </trkpt>
      <trkpt lat="43.20447" lon="2.36426">
        <ele>141.1</ele>
        <time>2019-06-30T07:51:52.000Z</time>
      </trkpt>
      <trkpt lat="43.20447" lon="2.36423">
        <ele>141</ele>
        <time>2019-06-30T07:51:53.000Z</time>
      </trkpt>
      <trkpt lat="43.20446" lon="2.3642">
        <ele>140.9</ele>
        <time>2019-06-30T07:51:54.000Z</time>
      </trkpt>
      <trkpt lat="43.20446" lon="2.36416">
        <ele>140.8</ele>
        <time>2019-06-30T07:51:55.000Z</time>
      </trkpt>
      <trkpt lat="43.20446" lon="2.36412">
        <ele>140.8</ele>
        <time>2019-06-30T07:51:56.000Z</time>
      </trkpt>
      <trkpt lat="43.20447" lon="2.36409">
        <ele>140.8</ele>
        <time>2019-06-30T07:51:57.000Z</time>
      </trkpt>
      <trkpt lat="43.20449" lon="2.36407">
        <ele>141</ele>
        <time>2019-06-30T07:51:58.000Z</time>
      </trkpt>
      <trkpt lat="43.20451" lon="2.36405">
        <ele>141.2</ele>
        <time>2019-06-30T07:51:59.000Z</time>
      </trkpt>
      <trkpt lat="43.20453" lon="2.36404">
        <ele>141.4</ele>
        <time>2019-06-30T07:52:00.000Z</time>
      </trkpt>
      <trkpt lat="43.20455" lon="2.36404">
        <ele>141.7</ele>
        <time>2019-06-30T07:52:01.000Z</time>
      </trkpt>
      <trkpt lat="43.20456" lon="2.36405">
        <ele>141.9</ele>
        <time>2019-06-30T07:52:02.000Z</time>
      </trkpt>
      <trkpt lat="43.20458" lon="2.36406">
        <ele>142.2</ele>
        <time>2019-06-30T07:52:03.000Z</time>
      </trkpt>
      <trkpt lat="43.20459" lon="2.36408">
        <ele>142.4</ele>
        <time>2019-06-30T07:52:04.000Z</time>
      </trkpt>
      <trkpt lat="43.20461" lon="2.36409">
        <ele>142.6</ele>
        <time>2019-06-30T07:52:05.000Z</time>
      </trkpt>
      <trkpt lat="43.20462" lon="2.36412">
        <ele>142.9</ele>
        <time>2019-06-30T07:52:06.000Z</time>
      </trkpt>
      <trkpt lat="43.20463" lon="2.36414">
        <ele>143.1</ele>
        <time>2019-06-30T07:52:07.000Z</time>
      </trkpt>
      <trkpt lat="43.20465" lon="2.36416">
        <ele>143.3</ele>
        <time>2019-06-30T07:52:08.000Z</time>
      </trkpt>
      <trkpt lat="43.20466" lon="2.36418">
        <ele>143.5</ele>
        <time>2019-06-30T07:52:09.000Z</time>
      </trkpt>
      <trkpt lat="43.20467" lon="2.36421">
        <ele>143.7</ele>
        <time>2019-06-30T07:52:10.000Z</time>
      </trkpt>
      <trkpt lat="43.20469" lon="2.36423">
        <ele>143.9</ele>
        <time>2019-06-30T07:52:11.000Z</time>
      </trkpt>
      <trkpt lat="43.2047" lon="2.36426">
        <ele>144</ele>
        <time>2019-06-30T07:52:12.000Z</time>
      </trkpt>
      <trkpt lat="43.20471" lon="2.36428">
        <ele>144.2</ele>
        <time>2019-06-30T07:52:13.000Z</time>
      </trkpt>
      <trkpt lat="43.20473" lon="2.36431">
        <ele>144.3</ele>
        <time>2019-06-30T07:52:14.000Z</time>
      </trkpt>
      <trkpt lat="43.20474" lon="2.36433">
        <ele>144.4</ele>
        <time>2019-06-30T07:52:15.000Z</time>
      </trkpt>
      <trkpt lat="43.20475" lon="2.36436">
        <ele>144.6</ele>
        <time>2019-06-30T07:52:16.000Z</time>
      </trkpt>
      <trkpt lat="43.20476" lon="2.36438">
        <ele>144.7</ele>
        <time>2019-06-30T07:52:17.000Z</time>
      </trkpt>
      <trkpt lat="43.20477" lon="2.36441">
        <ele>144.8</ele>
        <time>2019-06-30T07:52:18.000Z</time>
      </trkpt>
      <trkpt lat="43.20478" lon="2.36444">
        <ele>144.9</ele>
        <time>2019-06-30T07:52:19.000Z</time>
      </trkpt>
      <trkpt lat="43.20479" lon="2.36447">
        <ele>145</ele>
        <time>2019-06-30T07:52:20.000Z</time>
      </trkpt>
      <trkpt lat="43.20481" lon="2.36449">
        <ele>145.1</ele>
        <time>2019-06-30T07:52:21.000Z</time>
      </trkpt>
      <trkpt lat="43.20482" lon="2.36452">
        <ele>145.2</ele>
        <time>2019-06-30T07:52:22.000Z</time>
      </trkpt>
      <trkpt lat="43.20483" lon="2.36455">
        <ele>145.3</ele>
        <time>2019-06-30T07:52:23.000Z</time>
      </trkpt>
      <trkpt lat="43.20484" lon="2.36458">
        <ele>145.4</ele>
        <time>2019-06-30T07:52:24.000Z</time>
      </trkpt>
      <trkpt lat="43.20486" lon="2.3646">
        <ele>145.5</ele>
        <time>2019-06-30T07:52:25.000Z</time>
      </trkpt>
      <trkpt lat="43.20487" lon="2.36463">
        <ele>145.6</ele>
        <time>2019-06-30T07:52:26.000Z</time>
      </trkpt>
      <trkpt lat="43.20489" lon="2.36465">
        <ele>145.7</ele>
        <time>2019-06-30T07:52:27.000Z</time>
      </trkpt>
      <trkpt lat="43.2049" lon="2.36467">
        <ele>145.8</ele>
        <time>2019-06-30T07:52:28.000Z</time>
      </trkpt>
      <trkpt lat="43.20492" lon="2.3647">
        <ele>146</ele>
        <time>2019-06-30T07:52:29.000Z</time>
      </trkpt>
      <trkpt lat="43.20494" lon="2.36472">
        <ele>146.1</ele>
        <time>2019-06-30T07:52:30.000Z</time>
      </trkpt>
      <trkpt lat="43.20495" lon="2.36474">
        <ele>146.2</ele>
        <time>2019-06-30T07:52:31.000Z</time>
      </trkpt>
      <trkpt lat="43.20497" lon="2.36476">
        <ele>146.3</ele>
        <time>2019-06-30T07:52:32.000Z</time>
      </trkpt>
      <trkpt lat="43.20499" lon="2.36478">
        <ele>146.4</ele>
        <time>2019-06-30T07:52:33.000Z</time>
      </trkpt>
      <trkpt lat="43.20501" lon="2.3648">
        <ele>146.5</ele>
        <time>2019-06-30T07:52:34.000Z</time>
      </trkpt>
      <trkpt lat="43.20502" lon="2.36482">
        <ele>146.6</ele>
        <time>2019-06-30T07:52:35.000Z</time>
      </trkpt>
      <trkpt lat="43.20504" lon="2.36484">
        <ele>146.6</ele>
        <time>2019-06-30T07:52:36.000Z</time>
      </trkpt>
      <trkpt lat="43.20506" lon="2.36486">
        <ele>146.6</ele>
        <time>2019-06-30T07:52:37.000Z</time>
      </trkpt>
      <trkpt lat="43.20507" lon="2.36488">
        <ele>146.6</ele>
        <time>2019-06-30T07:52:38.000Z</time>
      </trkpt>
      <trkpt lat="43.20509" lon="2.36491">
        <ele>146.7</ele>
        <time>2019-06-30T07:52:39.000Z</time>
      </trkpt>
      <trkpt lat="43.2051" lon="2.36493">
        <ele>146.7</ele>
        <time>2019-06-30T07:52:40.000Z</time>
      </trkpt>
      <trkpt lat="43.20512" lon="2.36495">
        <ele>146.7</ele>
        <time>2019-06-30T07:52:41.000Z</time>
      </trkpt>
      <trkpt lat="43.20514" lon="2.36497">
        <ele>146.8</ele>
        <time>2019-06-30T07:52:42.000Z</time>
      </trkpt>
      <trkpt lat="43.20516" lon="2.36499">
        <ele>146.8</ele>
        <time>2019-06-30T07:52:43.000Z</time>
      </trkpt>
      <trkpt lat="43.20518" lon="2.36501">
        <ele>146.8</ele>
        <time>2019-06-30T07:52:44.000Z</time>
      </trkpt>
      <trkpt lat="43.2052" lon="2.36503">
        <ele>146.9</ele>
        <time>2019-06-30T07:52:45.000Z</time>
      </trkpt>
      <trkpt lat="43.20522" lon="2.36505">
        <ele>146.9</ele>
        <time>2019-06-30T07:52:46.000Z</time>
      </trkpt>
      <trkpt lat="43.20523" lon="2.36507">
        <ele>147</ele>
        <time>2019-06-30T07:52:47.000Z</time>
      </trkpt>
      <trkpt lat="43.20525" lon="2.36509">
        <ele>147</ele>
        <time>2019-06-30T07:52:48.000Z</time>
      </trkpt>
      <trkpt lat="43.20527" lon="2.36511">
        <ele>147</ele>
        <time>2019-06-30T07:52:49.000Z</time>
      </trkpt>
      <trkpt lat="43.20528" lon="2.36513">
        <ele>147</ele>
        <time>2019-06-30T07:52:50.000Z</time>
      </trkpt>
      <trkpt lat="43.2053" lon="2.36515">
        <ele>147.1</ele>
        <time>2019-06-30T07:52:51.000Z</time>
      </trkpt>
      <trkpt lat="43.20532" lon="2.36517">
        <ele>147.1</ele>
        <time>2019-06-30T07:52:52.000Z</time>
      </trkpt>
      <trkpt lat="43.20534" lon="2.36519">
        <ele>147.1</ele>
        <time>2019-06-30T07:52:53.000Z</time>
      </trkpt>
      <trkpt lat="43.20536" lon="2.3652">
        <ele>147.1</ele>
        <time>2019-06-30T07:52:54.000Z</time>
      </trkpt>
      <trkpt lat="43.20538" lon="2.36522">
        <ele>147.1</ele>
        <time>2019-06-30T07:52:55.000Z</time>
      </trkpt>
      <trkpt lat="43.2054" lon="2.36523">
        <ele>147.1</ele>
        <time>2019-06-30T07:52:56.000Z</time>
      </trkpt>
      <trkpt lat="43.20542" lon="2.36525">
        <ele>147.1</ele>
        <time>2019-06-30T07:52:57.000Z</time>
      </trkpt>
      <trkpt lat="43.20544" lon="2.36526">
        <ele>147.1</ele>
        <time>2019-06-30T07:52:58.000Z</time>
      </trkpt>
      <trkpt lat="43.20546" lon="2.36527">
        <ele>147.1</ele>
        <time>2019-06-30T07:52:59.000Z</time>
      </trkpt>
      <trkpt lat="43.20548" lon="2.36529">
        <ele>147.1</ele>
        <time>2019-06-30T07:53:00.000Z</time>
      </trkpt>
      <trkpt lat="43.20551" lon="2.3653">
        <ele>147.1</ele>
        <time>2019-06-30T07:53:01.000Z</time>
      </trkpt>
      <trkpt lat="43.20553" lon="2.36531">
        <ele>147.1</ele>
        <time>2019-06-30T07:53:02.000Z</time>
      </trkpt>
      <trkpt lat="43.20555" lon="2.36532">
        <ele>147.1</ele>
        <time>2019-06-30T07:53:03.000Z</time>
      </trkpt>
      <trkpt lat="43.20558" lon="2.36533">
        <ele>147.1</ele>
        <time>2019-06-30T07:53:04.000Z</time>
      </trkpt>
      <trkpt lat="43.2056" lon="2.36534">
        <ele>147.1</ele>
        <time>2019-06-30T07:53:05.000Z</time>
      </trkpt>
      <trkpt lat="43.20563" lon="2.36534">
        <ele>147.2</ele>
        <time>2019-06-30T07:53:06.000Z</time>
      </trkpt>
      <trkpt lat="43.20565" lon="2.36535">
        <ele>147.2</ele>
        <time>2019-06-30T07:53:07.000Z</time>
      </trkpt>
      <trkpt lat="43.20568" lon="2.36536">
        <ele>147.1</ele>
        <time>2019-06-30T07:53:08.000Z</time>
      </trkpt>
      <trkpt lat="43.2057" lon="2.36537">
        <ele>147.1</ele>
        <time>2019-06-30T07:53:09.000Z</time>
      </trkpt>
      <trkpt lat="43.20573" lon="2.36537">
        <ele>147.1</ele>
        <time>2019-06-30T07:53:10.000Z</time>
      </trkpt>
      <trkpt lat="43.20575" lon="2.36538">
        <ele>147.1</ele>
        <time>2019-06-30T07:53:11.000Z</time>
      </trkpt>
      <trkpt lat="43.20578" lon="2.36539">
        <ele>147.1</ele>
        <time>2019-06-30T07:53:12.000Z</time>
      </trkpt>
      <trkpt lat="43.20581" lon="2.3654">
        <ele>147.1</ele>
        <time>2019-06-30T07:53:13.000Z</time>
      </trkpt>
      <trkpt lat="43.20583" lon="2.36541">
        <ele>147.1</ele>
        <time>2019-06-30T07:53:14.000Z</time>
      </trkpt>
      <trkpt lat="43.20586" lon="2.36542">
        <ele>147</ele>
        <time>2019-06-30T07:53:15.000Z</time>
      </trkpt>
      <trkpt lat="43.20589" lon="2.36543">
        <ele>146.9</ele>
        <time>2019-06-30T07:53:16.000Z</time>
      </trkpt>
      <trkpt lat="43.20591" lon="2.36544">
        <ele>146.7</ele>
        <time>2019-06-30T07:53:17.000Z</time>
      </trkpt>
      <trkpt lat="43.20594" lon="2.36545">
        <ele>146.6</ele>
        <time>2019-06-30T07:53:18.000Z</time>
      </trkpt>
      <trkpt lat="43.20596" lon="2.36547">
        <ele>146.5</ele>
        <time>2019-06-30T07:53:19.000Z</time>
      </trkpt>
      <trkpt lat="43.20598" lon="2.36548">
        <ele>146.3</ele>
        <time>2019-06-30T07:53:20.000Z</time>
      </trkpt>
      <trkpt lat="43.206" lon="2.3655">
        <ele>146.2</ele>
        <time>2019-06-30T07:53:21.000Z</time>
      </trkpt>
      <trkpt lat="43.20602" lon="2.36552">
        <ele>146</ele>
        <time>2019-06-30T07:53:22.000Z</time>
      </trkpt>
      <trkpt lat="43.20604" lon="2.36554">
        <ele>145.8</ele>
        <time>2019-06-30T07:53:23.000Z</time>
      </trkpt>
      <trkpt lat="43.20606" lon="2.36555">
        <ele>145.7</ele>
        <time>2019-06-30T07:53:24.000Z</time>
      </trkpt>
      <trkpt lat="43.20608" lon="2.36557">
        <ele>145.5</ele>
        <time>2019-06-30T07:53:25.000Z</time>
      </trkpt>
      <trkpt lat="43.2061" lon="2.36559">
        <ele>145.3</ele>
        <time>2019-06-30T07:53:26.000Z</time>
      </trkpt>
      <trkpt lat="43.20612" lon="2.36561">
        <ele>145.1</ele>
        <time>2019-06-30T07:53:27.000Z</time>
      </trkpt>
      <trkpt lat="43.20614" lon="2.36562">
        <ele>145</ele>
        <time>2019-06-30T07:53:28.000Z</time>
      </trkpt>
      <trkpt lat="43.20616" lon="2.36564">
        <ele>144.8</ele>
        <time>2019-06-30T07:53:29.000Z</time>
      </trkpt>
      <trkpt lat="43.20618" lon="2.36566">
        <ele>144.6</ele>
        <time>2019-06-30T07:53:30.000Z</time>
      </trkpt>
      <trkpt lat="43.2062" lon="2.36567">
        <ele>144.4</ele>
        <time>2019-06-30T07:53:31.000Z</time>
      </trkpt>
      <trkpt lat="43.20622" lon="2.36569">
        <ele>144.3</ele>
        <time>2019-06-30T07:53:32.000Z</time>
      </trkpt>
      <trkpt lat="43.20624" lon="2.36571">
        <ele>144.1</ele>
        <time>2019-06-30T07:53:33.000Z</time>
      </trkpt>
      <trkpt lat="43.20626" lon="2.36572">
        <ele>143.9</ele>
        <time>2019-06-30T07:53:34.000Z</time>
      </trkpt>
      <trkpt lat="43.20628" lon="2.36574">
        <ele>143.7</ele>
        <time>2019-06-30T07:53:35.000Z</time>
      </trkpt>
      <trkpt lat="43.2063" lon="2.36576">
        <ele>143.5</ele>
        <time>2019-06-30T07:53:36.000Z</time>
      </trkpt>
      <trkpt lat="43.20632" lon="2.36577">
        <ele>143.3</ele>
        <time>2019-06-30T07:53:37.000Z</time>
      </trkpt>
      <trkpt lat="43.20634" lon="2.36579">
        <ele>143.2</ele>
        <time>2019-06-30T07:53:38.000Z</time>
      </trkpt>
      <trkpt lat="43.20636" lon="2.3658">
        <ele>143</ele>
        <time>2019-06-30T07:53:39.000Z</time>
      </trkpt>
      <trkpt lat="43.20637" lon="2.36582">
        <ele>142.9</ele>
        <time>2019-06-30T07:53:40.000Z</time>
      </trkpt>
      <trkpt lat="43.20639" lon="2.36583">
        <ele>142.7</ele>
        <time>2019-06-30T07:53:41.000Z</time>
      </trkpt>
      <trkpt lat="43.2064" lon="2.36584">
        <ele>142.6</ele>
        <time>2019-06-30T07:53:42.000Z</time>
      </trkpt>
      <trkpt lat="43.20641" lon="2.36585">
        <ele>142.5</ele>
        <time>2019-06-30T07:53:43.000Z</time>
      </trkpt>
      <trkpt lat="43.20643" lon="2.36586">
        <ele>142.4</ele>
        <time>2019-06-30T07:53:44.000Z</time>
      </trkpt>
      <trkpt lat="43.20644" lon="2.36587">
        <ele>142.4</ele>
        <time>2019-06-30T07:53:45.000Z</time>
      </trkpt>
      <trkpt lat="43.20644" lon="2.36587">
        <ele>142.3</ele>
        <time>2019-06-30T07:53:46.000Z</time>
      </trkpt>
      <trkpt lat="43.20645" lon="2.36588">
        <ele>142.3</ele>
        <time>2019-06-30T07:53:47.000Z</time>
      </trkpt>
      <trkpt lat="43.20646" lon="2.36588">
        <ele>142.2</ele>
        <time>2019-06-30T07:53:48.000Z</time>
      </trkpt>
      <trkpt lat="43.20646" lon="2.36589">
        <ele>142.2</ele>
        <time>2019-06-30T07:53:49.000Z</time>
      </trkpt>
      <trkpt lat="43.20646" lon="2.36589">
        <ele>142.1</ele>
        <time>2019-06-30T07:53:50.000Z</time>
      </trkpt>
      <trkpt lat="43.20647" lon="2.36589">
        <ele>142.1</ele>
        <time>2019-06-30T07:53:51.000Z</time>
      </trkpt>
      <trkpt lat="43.20647" lon="2.3659">
        <ele>142.1</ele>
        <time>2019-06-30T07:53:52.000Z</time>
      </trkpt>
      <trkpt lat="43.20648" lon="2.3659">
        <ele>142</ele>
        <time>2019-06-30T07:53:53.000Z</time>
      </trkpt>
      <trkpt lat="43.20648" lon="2.3659">
        <ele>142</ele>
        <time>2019-06-30T07:53:54.000Z</time>
      </trkpt>
      <trkpt lat="43.20649" lon="2.36591">
        <ele>142</ele>
        <time>2019-06-30T07:53:55.000Z</time>
      </trkpt>
      <trkpt lat="43.20649" lon="2.36591">
        <ele>141.9</ele>
        <time>2019-06-30T07:53:56.000Z</time>
      </trkpt>
      <trkpt lat="43.2065" lon="2.36592">
        <ele>141.8</ele>
        <time>2019-06-30T07:53:57.000Z</time>
      </trkpt>
      <trkpt lat="43.20651" lon="2.36593">
        <ele>141.8</ele>
        <time>2019-06-30T07:53:58.000Z</time>
      </trkpt>
      <trkpt lat="43.20652" lon="2.36593">
        <ele>141.7</ele>
        <time>2019-06-30T07:53:59.000Z</time>
      </trkpt>
      <trkpt lat="43.20652" lon="2.36594">
        <ele>141.6</ele>
        <time>2019-06-30T07:54:00.000Z</time>
      </trkpt>
      <trkpt lat="43.20653" lon="2.36595">
        <ele>141.5</ele>
        <time>2019-06-30T07:54:01.000Z</time>
      </trkpt>
      <trkpt lat="43.20654" lon="2.36596">
        <ele>141.5</ele>
        <time>2019-06-30T07:54:02.000Z</time>
      </trkpt>
      <trkpt lat="43.20655" lon="2.36596">
        <ele>141.4</ele>
        <time>2019-06-30T07:54:03.000Z</time>
      </trkpt>
      <trkpt lat="43.20656" lon="2.36597">
        <ele>141.3</ele>
        <time>2019-06-30T07:54:04.000Z</time>
      </trkpt>
      <trkpt lat="43.20657" lon="2.36598">
        <ele>141.2</ele>
        <time>2019-06-30T07:54:05.000Z</time>
      </trkpt>
      <trkpt lat="43.20658" lon="2.36598">
        <ele>141.1</ele>
        <time>2019-06-30T07:54:06.000Z</time>
      </trkpt>
      <trkpt lat="43.20659" lon="2.36599">
        <ele>141</ele>
        <time>2019-06-30T07:54:07.000Z</time>
      </trkpt>
      <trkpt lat="43.2066" lon="2.36599">
        <ele>141</ele>
        <time>2019-06-30T07:54:08.000Z</time>
      </trkpt>
      <trkpt lat="43.20661" lon="2.366">
        <ele>140.9</ele>
        <time>2019-06-30T07:54:09.000Z</time>
      </trkpt>
      <trkpt lat="43.20662" lon="2.366">
        <ele>140.8</ele>
        <time>2019-06-30T07:54:10.000Z</time>
      </trkpt>
      <trkpt lat="43.20663" lon="2.366">
        <ele>140.7</ele>
        <time>2019-06-30T07:54:11.000Z</time>
      </trkpt>
      <trkpt lat="43.20664" lon="2.36601">
        <ele>140.7</ele>
        <time>2019-06-30T07:54:12.000Z</time>
      </trkpt>
      <trkpt lat="43.20665" lon="2.36601">
        <ele>140.6</ele>
        <time>2019-06-30T07:54:13.000Z</time>
      </trkpt>
      <trkpt lat="43.20666" lon="2.36602">
        <ele>140.5</ele>
        <time>2019-06-30T07:54:14.000Z</time>
      </trkpt>
      <trkpt lat="43.20667" lon="2.36603">
        <ele>140.3</ele>
        <time>2019-06-30T07:54:15.000Z</time>
      </trkpt>
      <trkpt lat="43.20668" lon="2.36604">
        <ele>140.2</ele>
        <time>2019-06-30T07:54:16.000Z</time>
      </trkpt>
      <trkpt lat="43.20669" lon="2.36605">
        <ele>140.1</ele>
        <time>2019-06-30T07:54:17.000Z</time>
      </trkpt>
      <trkpt lat="43.2067" lon="2.36605">
        <ele>140</ele>
        <time>2019-06-30T07:54:18.000Z</time>
      </trkpt>
      <trkpt lat="43.2067" lon="2.36606">
        <ele>140</ele>
        <time>2019-06-30T07:54:19.000Z</time>
      </trkpt>
      <trkpt lat="43.2067" lon="2.36606">
        <ele>140</ele>
        <time>2019-06-30T07:54:20.000Z</time>
      </trkpt>
      <trkpt lat="43.2067" lon="2.36606">
        <ele>139.9</ele>
        <time>2019-06-30T07:54:21.000Z</time>
      </trkpt>
      <trkpt lat="43.2067" lon="2.36606">
        <ele>139.9</ele>
        <time>2019-06-30T07:54:22.000Z</time>
      </trkpt>
      <trkpt lat="43.2067" lon="2.36606">
        <ele>139.9</ele>
        <time>2019-06-30T07:54:23.000Z</time>
      </trkpt>
      <trkpt lat="43.2067" lon="2.36606">
        <ele>139.9</ele>
        <time>2019-06-30T07:54:24.000Z</time>
      </trkpt>
      <trkpt lat="43.2067" lon="2.36606">
        <ele>139.9</ele>
        <time>2019-06-30T07:54:25.000Z</time>
      </trkpt>
      <trkpt lat="43.2067" lon="2.36606">
        <ele>139.9</ele>
        <time>2019-06-30T07:54:26.000Z</time>
      </trkpt>
      <trkpt lat="43.2067" lon="2.36606">
        <ele>139.9</ele>
        <time>2019-06-30T07:54:27.000Z</time>
      </trkpt>
      <trkpt lat="43.2067" lon="2.36606">
        <ele>139.9</ele>
        <time>2019-06-30T07:54:28.000Z</time>
      </trkpt>
      <trkpt lat="43.2067" lon="2.36606">
        <ele>139.9</ele>
        <time>2019-06-30T07:54:29.000Z</time>
      </trkpt>
      <trkpt lat="43.2067" lon="2.36606">
        <ele>139.9</ele>
        <time>2019-06-30T07:54:30.000Z</time>
      </trkpt>
      <trkpt lat="43.2067" lon="2.36606">
        <ele>139.9</ele>
        <time>2019-06-30T07:54:31.000Z</time>
      </trkpt>
      <trkpt lat="43.2067" lon="2.36606">
        <ele>139.9</ele>
        <time>2019-06-30T07:54:32.000Z</time>
      </trkpt>
      <trkpt lat="43.2067" lon="2.36606">
        <ele>139.9</ele>
        <time>2019-06-30T07:54:33.000Z</time>
      </trkpt>
      <trkpt lat="43.2067" lon="2.36606">
        <ele>139.9</ele>
        <time>2019-06-30T07:54:34.000Z</time>
      </trkpt>
      <trkpt lat="43.2067" lon="2.36606">
        <ele>139.9</ele>
        <time>2019-06-30T07:54:35.000Z</time>
      </trkpt>
      <trkpt lat="43.2067" lon="2.36606">
        <ele>139.9</ele>
        <time>2019-06-30T07:54:36.000Z</time>
      </trkpt>
      <trkpt lat="43.2067" lon="2.36606">
        <ele>139.9</ele>
        <time>2019-06-30T07:54:37.000Z</time>
      </trkpt>
      <trkpt lat="43.2067" lon="2.36606">
        <ele>139.9</ele>
        <time>2019-06-30T07:54:38.000Z</time>
      </trkpt>
      <trkpt lat="43.2067" lon="2.36606">
        <ele>139.9</ele>
        <time>2019-06-30T07:54:39.000Z</time>
      </trkpt>
      <trkpt lat="43.2067" lon="2.36606">
        <ele>139.9</ele>
        <time>2019-06-30T07:54:40.000Z</time>
      </trkpt>
      <trkpt lat="43.2067" lon="2.36606">
        <ele>139.9</ele>
        <time>2019-06-30T07:54:41.000Z</time>
      </trkpt>
      <trkpt lat="43.2067" lon="2.36606">
        <ele>139.9</ele>
        <time>2019-06-30T07:54:42.000Z</time>
      </trkpt>
      <trkpt lat="43.2067" lon="2.36606">
        <ele>139.9</ele>
        <time>2019-06-30T07:54:43.000Z</time>
      </trkpt>
      <trkpt lat="43.2067" lon="2.36606">
        <ele>139.9</ele>
        <time>2019-06-30T07:54:44.000Z</time>
      </trkpt>
      <trkpt lat="43.2067" lon="2.36606">
        <ele>139.9</ele>
        <time>2019-06-30T07:54:45.000Z</time>
      </trkpt>
      <trkpt lat="43.2067" lon="2.36606">
        <ele>139.9</ele>
        <time>2019-06-30T07:54:46.000Z</time>
      </trkpt>
      <trkpt lat="43.2067" lon="2.36606">
        <ele>139.9</ele>
        <time>2019-06-30T07:54:47.000Z</time>
      </trkpt>
      <trkpt lat="43.2067" lon="2.36606">
        <ele>139.9</ele>
        <time>2019-06-30T07:54:48.000Z</time>
      </trkpt>
      <trkpt lat="43.2067" lon="2.36606">
        <ele>139.9</ele>
        <time>2019-06-30T07:54:49.000Z</time>
      </trkpt>
      <trkpt lat="43.2067" lon="2.36606">
        <ele>139.9</ele>
        <time>2019-06-30T07:54:50.000Z</time>
      </trkpt>
      <trkpt lat="43.2067" lon="2.36606">
        <ele>139.9</ele>
        <time>2019-06-30T07:54:51.000Z</time>
      </trkpt>
      <trkpt lat="43.2067" lon="2.36606">
        <ele>139.9</ele>
        <time>2019-06-30T07:54:52.000Z</time>
      </trkpt>
      <trkpt lat="43.2067" lon="2.36606">
        <ele>139.9</ele>
        <time>2019-06-30T07:54:53.000Z</time>
      </trkpt>
      <trkpt lat="43.2067" lon="2.36606">
        <ele>139.9</ele>
        <time>2019-06-30T07:54:54.000Z</time>
      </trkpt>
      <trkpt lat="43.2067" lon="2.36606">
        <ele>139.9</ele>
        <time>2019-06-30T07:54:55.000Z</time>
      </trkpt>
      <trkpt lat="43.2067" lon="2.36606">
        <ele>139.9</ele>
        <time>2019-06-30T07:54:56.000Z</time>
      </trkpt>
      <trkpt lat="43.2067" lon="2.36606">
        <ele>139.9</ele>
        <time>2019-06-30T07:54:57.000Z</time>
      </trkpt>
      <trkpt lat="43.2067" lon="2.36606">
        <ele>139.9</ele>
        <time>2019-06-30T07:54:58.000Z</time>
      </trkpt>
      <trkpt lat="43.2067" lon="2.36606">
        <ele>139.9</ele>
        <time>2019-06-30T07:54:59.000Z</time>
      </trkpt>
      <trkpt lat="43.2067" lon="2.36606">
        <ele>139.9</ele>
        <time>2019-06-30T07:55:00.000Z</time>
      </trkpt>
      <trkpt lat="43.2067" lon="2.36606">
        <ele>139.9</ele>
        <time>2019-06-30T07:55:01.000Z</time>
      </trkpt>
      <trkpt lat="43.2067" lon="2.36606">
        <ele>139.9</ele>
        <time>2019-06-30T07:55:02.000Z</time>
      </trkpt>
      <trkpt lat="43.2067" lon="2.36606">
        <ele>139.9</ele>
        <time>2019-06-30T07:55:03.000Z</time>
      </trkpt>
      <trkpt lat="43.2067" lon="2.36606">
        <ele>139.9</ele>
        <time>2019-06-30T07:55:04.000Z</time>
      </trkpt>
      <trkpt lat="43.2067" lon="2.36606">
        <ele>139.9</ele>
        <time>2019-06-30T07:55:05.000Z</time>
      </trkpt>
      <trkpt lat="43.2067" lon="2.36606">
        <ele>139.9</ele>
        <time>2019-06-30T07:55:06.000Z</time>
      </trkpt>
      <trkpt lat="43.2067" lon="2.36606">
        <ele>139.9</ele>
        <time>2019-06-30T07:55:07.000Z</time>
      </trkpt>
      <trkpt lat="43.2067" lon="2.36606">
        <ele>139.9</ele>
        <time>2019-06-30T07:55:08.000Z</time>
      </trkpt>
      <trkpt lat="43.2067" lon="2.36606">
        <ele>139.9</ele>
        <time>2019-06-30T07:55:09.000Z</time>
      </trkpt>
      <trkpt lat="43.2067" lon="2.36606">
        <ele>139.9</ele>
        <time>2019-06-30T07:55:10.000Z</time>
      </trkpt>
      <trkpt lat="43.2067" lon="2.36606">
        <ele>139.9</ele>
        <time>2019-06-30T07:55:11.000Z</time>
      </trkpt>
      <trkpt lat="43.2067" lon="2.36606">
        <ele>139.9</ele>
        <time>2019-06-30T07:55:12.000Z</time>
      </trkpt>
      <trkpt lat="43.2067" lon="2.36606">
        <ele>139.9</ele>
        <time>2019-06-30T07:55:13.000Z</time>
      </trkpt>
      <trkpt lat="43.2067" lon="2.36606">
        <ele>139.9</ele>
        <time>2019-06-30T07:55:14.000Z</time>
      </trkpt>
      <trkpt lat="43.2067" lon="2.36606">
        <ele>139.9</ele>
        <time>2019-06-30T07:55:15.000Z</time>
      </trkpt>
      <trkpt lat="43.2067" lon="2.36606">
        <ele>139.9</ele>
        <time>2019-06-30T07:55:16.000Z</time>
      </trkpt>
      <trkpt lat="43.2067" lon="2.36606">
        <ele>139.9</ele>
        <time>2019-06-30T07:55:17.000Z</time>
      </trkpt>
      <trkpt lat="43.2067" lon="2.36606">
        <ele>139.9</ele>
        <time>2019-06-30T07:55:18.000Z</time>
      </trkpt>
      <trkpt lat="43.2067" lon="2.36606">
        <ele>139.9</ele>
        <time>2019-06-30T07:55:19.000Z</time>
      </trkpt>
      <trkpt lat="43.2067" lon="2.36606">
        <ele>139.9</ele>
        <time>2019-06-30T07:55:20.000Z</time>
      </trkpt>
      <trkpt lat="43.2067" lon="2.36606">
        <ele>139.9</ele>
        <time>2019-06-30T07:55:21.000Z</time>
      </trkpt>
      <trkpt lat="43.2067" lon="2.36606">
        <ele>139.9</ele>
        <time>2019-06-30T07:55:22.000Z</time>
      </trkpt>
      <trkpt lat="43.2067" lon="2.36606">
        <ele>139.9</ele>
        <time>2019-06-30T07:55:23.000Z</time>
      </trkpt>
      <trkpt lat="43.2067" lon="2.36606">
        <ele>139.9</ele>
        <time>2019-06-30T07:55:24.000Z</time>
      </trkpt>
      <trkpt lat="43.20669" lon="2.36607">
        <ele>139.9</ele>
        <time>2019-06-30T07:55:25.000Z</time>
      </trkpt>
      <trkpt lat="43.20669" lon="2.36607">
        <ele>140</ele>
        <time>2019-06-30T07:55:26.000Z</time>
      </trkpt>
      <trkpt lat="43.20668" lon="2.36606">
        <ele>140</ele>
        <time>2019-06-30T07:55:27.000Z</time>
      </trkpt>
      <trkpt lat="43.20668" lon="2.36606">
        <ele>140.1</ele>
        <time>2019-06-30T07:55:28.000Z</time>
      </trkpt>
      <trkpt lat="43.20667" lon="2.36605">
        <ele>140.1</ele>
        <time>2019-06-30T07:55:29.000Z</time>
      </trkpt>
      <trkpt lat="43.20667" lon="2.36605">
        <ele>140.2</ele>
        <time>2019-06-30T07:55:30.000Z</time>
      </trkpt>
      <trkpt lat="43.20667" lon="2.36604">
        <ele>140.3</ele>
        <time>2019-06-30T07:55:31.000Z</time>
      </trkpt>
      <trkpt lat="43.20666" lon="2.36604">
        <ele>140.3</ele>
        <time>2019-06-30T07:55:32.000Z</time>
      </trkpt>
      <trkpt lat="43.20665" lon="2.36603">
        <ele>140.4</ele>
        <time>2019-06-30T07:55:33.000Z</time>
      </trkpt>
      <trkpt lat="43.20665" lon="2.36603">
        <ele>140.5</ele>
        <time>2019-06-30T07:55:34.000Z</time>
      </trkpt>
      <trkpt lat="43.20664" lon="2.36602">
        <ele>140.5</ele>
        <time>2019-06-30T07:55:35.000Z</time>
      </trkpt>
      <trkpt lat="43.20663" lon="2.36602">
        <ele>140.6</ele>
        <time>2019-06-30T07:55:36.000Z</time>
      </trkpt>
      <trkpt lat="43.20662" lon="2.36602">
        <ele>140.7</ele>
        <time>2019-06-30T07:55:37.000Z</time>
      </trkpt>
      <trkpt lat="43.20661" lon="2.36601">
        <ele>140.8</ele>
        <time>2019-06-30T07:55:38.000Z</time>
      </trkpt>
      <trkpt lat="43.2066" lon="2.36601">
        <ele>140.8</ele>
        <time>2019-06-30T07:55:39.000Z</time>
      </trkpt>
      <trkpt lat="43.20659" lon="2.36601">
        <ele>140.9</ele>
        <time>2019-06-30T07:55:40.000Z</time>
      </trkpt>
      <trkpt lat="43.20658" lon="2.36601">
        <ele>140.9</ele>
        <time>2019-06-30T07:55:41.000Z</time>
      </trkpt>
      <trkpt lat="43.20658" lon="2.36601">
        <ele>140.9</ele>
        <time>2019-06-30T07:55:42.000Z</time>
      </trkpt>
      <trkpt lat="43.20657" lon="2.36601">
        <ele>140.9</ele>
        <time>2019-06-30T07:55:43.000Z</time>
      </trkpt>
      <trkpt lat="43.20657" lon="2.36601">
        <ele>140.9</ele>
        <time>2019-06-30T07:55:44.000Z</time>
      </trkpt>
      <trkpt lat="43.20657" lon="2.36602">
        <ele>140.9</ele>
        <time>2019-06-30T07:55:45.000Z</time>
      </trkpt>
      <trkpt lat="43.20656" lon="2.36602">
        <ele>140.9</ele>
        <time>2019-06-30T07:55:46.000Z</time>
      </trkpt>
      <trkpt lat="43.20656" lon="2.36603">
        <ele>140.9</ele>
        <time>2019-06-30T07:55:47.000Z</time>
      </trkpt>
      <trkpt lat="43.20656" lon="2.36603">
        <ele>140.8</ele>
        <time>2019-06-30T07:55:48.000Z</time>
      </trkpt>
      <trkpt lat="43.20656" lon="2.36604">
        <ele>140.8</ele>
        <time>2019-06-30T07:55:49.000Z</time>
      </trkpt>
      <trkpt lat="43.20656" lon="2.36604">
        <ele>140.7</ele>
        <time>2019-06-30T07:55:50.000Z</time>
      </trkpt>
      <trkpt lat="43.20656" lon="2.36605">
        <ele>140.7</ele>
        <time>2019-06-30T07:55:51.000Z</time>
      </trkpt>
      <trkpt lat="43.20656" lon="2.36605">
        <ele>140.7</ele>
        <time>2019-06-30T07:55:52.000Z</time>
      </trkpt>
      <trkpt lat="43.20656" lon="2.36605">
        <ele>140.7</ele>
        <time>2019-06-30T07:55:53.000Z</time>
      </trkpt>
      <trkpt lat="43.20656" lon="2.36605">
        <ele>140.7</ele>
        <time>2019-06-30T07:55:54.000Z</time>
      </trkpt>
      <trkpt lat="43.20656" lon="2.36605">
        <ele>140.7</ele>
        <time>2019-06-30T07:55:55.000Z</time>
      </trkpt>
      <trkpt lat="43.20656" lon="2.36605">
        <ele>140.7</ele>
        <time>2019-06-30T07:55:56.000Z</time>
      </trkpt>
      <trkpt lat="43.20656" lon="2.36605">
        <ele>140.7</ele>
        <time>2019-06-30T07:55:57.000Z</time>
      </trkpt>
      <trkpt lat="43.20656" lon="2.36605">
        <ele>140.7</ele>
        <time>2019-06-30T07:55:58.000Z</time>
      </trkpt>
      <trkpt lat="43.20656" lon="2.36605">
        <ele>140.7</ele>
        <time>2019-06-30T07:55:59.000Z</time>
      </trkpt>
      <trkpt lat="43.20656" lon="2.36605">
        <ele>140.7</ele>
        <time>2019-06-30T07:56:00.000Z</time>
      </trkpt>
      <trkpt lat="43.20656" lon="2.36605">
        <ele>140.7</ele>
        <time>2019-06-30T07:56:01.000Z</time>
      </trkpt>
      <trkpt lat="43.20656" lon="2.36605">
        <ele>140.7</ele>
        <time>2019-06-30T07:56:02.000Z</time>
      </trkpt>
      <trkpt lat="43.20656" lon="2.36605">
        <ele>140.7</ele>
        <time>2019-06-30T07:56:03.000Z</time>
      </trkpt>
      <trkpt lat="43.20656" lon="2.36605">
        <ele>140.7</ele>
        <time>2019-06-30T07:56:04.000Z</time>
      </trkpt>
      <trkpt lat="43.20656" lon="2.36605">
        <ele>140.7</ele>
        <time>2019-06-30T07:56:05.000Z</time>
      </trkpt>
      <trkpt lat="43.20656" lon="2.36605">
        <ele>140.7</ele>
        <time>2019-06-30T07:56:06.000Z</time>
      </trkpt>
      <trkpt lat="43.20656" lon="2.36605">
        <ele>140.7</ele>
        <time>2019-06-30T07:56:07.000Z</time>
      </trkpt>
      <trkpt lat="43.20656" lon="2.36605">
        <ele>140.7</ele>
        <time>2019-06-30T07:56:08.000Z</time>
      </trkpt>
      <trkpt lat="43.20656" lon="2.36604">
        <ele>140.7</ele>
        <time>2019-06-30T07:56:09.000Z</time>
      </trkpt>
      <trkpt lat="43.20656" lon="2.36604">
        <ele>140.8</ele>
        <time>2019-06-30T07:56:10.000Z</time>
      </trkpt>
      <trkpt lat="43.20657" lon="2.36603">
        <ele>140.8</ele>
        <time>2019-06-30T07:56:11.000Z</time>
      </trkpt>
      <trkpt lat="43.20657" lon="2.36602">
        <ele>140.9</ele>
        <time>2019-06-30T07:56:12.000Z</time>
      </trkpt>
      <trkpt lat="43.20657" lon="2.36601">
        <ele>141</ele>
        <time>2019-06-30T07:56:13.000Z</time>
      </trkpt>
      <trkpt lat="43.20657" lon="2.36599">
        <ele>141.1</ele>
        <time>2019-06-30T07:56:14.000Z</time>
      </trkpt>
      <trkpt lat="43.20658" lon="2.36598">
        <ele>141.1</ele>
        <time>2019-06-30T07:56:15.000Z</time>
      </trkpt>
      <trkpt lat="43.20658" lon="2.36597">
        <ele>141.2</ele>
        <time>2019-06-30T07:56:16.000Z</time>
      </trkpt>
      <trkpt lat="43.20658" lon="2.36597">
        <ele>141.2</ele>
        <time>2019-06-30T07:56:17.000Z</time>
      </trkpt>
      <trkpt lat="43.20659" lon="2.36597">
        <ele>141.2</ele>
        <time>2019-06-30T07:56:18.000Z</time>
      </trkpt>
      <trkpt lat="43.20659" lon="2.36597">
        <ele>141.2</ele>
        <time>2019-06-30T07:56:19.000Z</time>
      </trkpt>
      <trkpt lat="43.20659" lon="2.36597">
        <ele>141.2</ele>
        <time>2019-06-30T07:56:20.000Z</time>
      </trkpt>
      <trkpt lat="43.2066" lon="2.36597">
        <ele>141.2</ele>
        <time>2019-06-30T07:56:21.000Z</time>
      </trkpt>
      <trkpt lat="43.2066" lon="2.36597">
        <ele>141.2</ele>
        <time>2019-06-30T07:56:22.000Z</time>
      </trkpt>
      <trkpt lat="43.2066" lon="2.36597">
        <ele>141.1</ele>
        <time>2019-06-30T07:56:23.000Z</time>
      </trkpt>
      <trkpt lat="43.2066" lon="2.36597">
        <ele>141.1</ele>
        <time>2019-06-30T07:56:24.000Z</time>
      </trkpt>
      <trkpt lat="43.2066" lon="2.36597">
        <ele>141.1</ele>
        <time>2019-06-30T07:56:25.000Z</time>
      </trkpt>
      <trkpt lat="43.2066" lon="2.36597">
        <ele>141.1</ele>
        <time>2019-06-30T07:56:26.000Z</time>
      </trkpt>
      <trkpt lat="43.2066" lon="2.36597">
        <ele>141.1</ele>
        <time>2019-06-30T07:56:27.000Z</time>
      </trkpt>
      <trkpt lat="43.2066" lon="2.36597">
        <ele>141.1</ele>
        <time>2019-06-30T07:56:28.000Z</time>
      </trkpt>
      <trkpt lat="43.2066" lon="2.36597">
        <ele>141.1</ele>
        <time>2019-06-30T07:56:29.000Z</time>
      </trkpt>
      <trkpt lat="43.2066" lon="2.36597">
        <ele>141.2</ele>
        <time>2019-06-30T07:56:30.000Z</time>
      </trkpt>
      <trkpt lat="43.2066" lon="2.36597">
        <ele>141.2</ele>
        <time>2019-06-30T07:56:31.000Z</time>
      </trkpt>
      <trkpt lat="43.2066" lon="2.36597">
        <ele>141.2</ele>
        <time>2019-06-30T07:56:32.000Z</time>
      </trkpt>
      <trkpt lat="43.2066" lon="2.36597">
        <ele>141.2</ele>
        <time>2019-06-30T07:56:33.000Z</time>
      </trkpt>
      <trkpt lat="43.2066" lon="2.36597">
        <ele>141.2</ele>
        <time>2019-06-30T07:56:34.000Z</time>
      </trkpt>
      <trkpt lat="43.2066" lon="2.36597">
        <ele>141.2</ele>
        <time>2019-06-30T07:56:35.000Z</time>
      </trkpt>
      <trkpt lat="43.2066" lon="2.36597">
        <ele>141.2</ele>
        <time>2019-06-30T07:56:36.000Z</time>
      </trkpt>
      <trkpt lat="43.2066" lon="2.36597">
        <ele>141.2</ele>
        <time>2019-06-30T07:56:37.000Z</time>
      </trkpt>
      <trkpt lat="43.2066" lon="2.36597">
        <ele>141.2</ele>
        <time>2019-06-30T07:56:38.000Z</time>
      </trkpt>
      <trkpt lat="43.2066" lon="2.36597">
        <ele>141.2</ele>
        <time>2019-06-30T07:56:39.000Z</time>
      </trkpt>
      <trkpt lat="43.2066" lon="2.36597">
        <ele>141.2</ele>
        <time>2019-06-30T07:56:40.000Z</time>
      </trkpt>
      <trkpt lat="43.2066" lon="2.36597">
        <ele>141.2</ele>
        <time>2019-06-30T07:56:41.000Z</time>
      </trkpt>
      <trkpt lat="43.2066" lon="2.36597">
        <ele>141.2</ele>
        <time>2019-06-30T07:56:42.000Z</time>
      </trkpt>
      <trkpt lat="43.2066" lon="2.36597">
        <ele>141.2</ele>
        <time>2019-06-30T07:56:43.000Z</time>
      </trkpt>
      <trkpt lat="43.2066" lon="2.36597">
        <ele>141.2</ele>
        <time>2019-06-30T07:56:44.000Z</time>
      </trkpt>
      <trkpt lat="43.2066" lon="2.36597">
        <ele>141.2</ele>
        <time>2019-06-30T07:56:45.000Z</time>
      </trkpt>
      <trkpt lat="43.2066" lon="2.36597">
        <ele>141.2</ele>
        <time>2019-06-30T07:56:46.000Z</time>
      </trkpt>
      <trkpt lat="43.2066" lon="2.36597">
        <ele>141.2</ele>
        <time>2019-06-30T07:56:47.000Z</time>
      </trkpt>
      <trkpt lat="43.2066" lon="2.36597">
        <ele>141.2</ele>
        <time>2019-06-30T07:56:48.000Z</time>
      </trkpt>
      <trkpt lat="43.2066" lon="2.36597">
        <ele>141.2</ele>
        <time>2019-06-30T07:56:49.000Z</time>
      </trkpt>
      <trkpt lat="43.2066" lon="2.36597">
        <ele>141.2</ele>
        <time>2019-06-30T07:56:50.000Z</time>
      </trkpt>
      <trkpt lat="43.2066" lon="2.36597">
        <ele>141.2</ele>
        <time>2019-06-30T07:56:51.000Z</time>
      </trkpt>
      <trkpt lat="43.20659" lon="2.36597">
        <ele>141.2</ele>
        <time>2019-06-30T07:56:52.000Z</time>
      </trkpt>
      <trkpt lat="43.20659" lon="2.36597">
        <ele>141.1</ele>
        <time>2019-06-30T07:56:53.000Z</time>
      </trkpt>
      <trkpt lat="43.20659" lon="2.36598">
        <ele>141.1</ele>
        <time>2019-06-30T07:56:54.000Z</time>
      </trkpt>
      <trkpt lat="43.2066" lon="2.36599">
        <ele>141</ele>
        <time>2019-06-30T07:56:55.000Z</time>
      </trkpt>
      <trkpt lat="43.2066" lon="2.36599">
        <ele>141</ele>
        <time>2019-06-30T07:56:56.000Z</time>
      </trkpt>
      <trkpt lat="43.2066" lon="2.36599">
        <ele>140.9</ele>
        <time>2019-06-30T07:56:57.000Z</time>
      </trkpt>
      <trkpt lat="43.20661" lon="2.366">
        <ele>140.9</ele>
        <time>2019-06-30T07:56:58.000Z</time>
      </trkpt>
      <trkpt lat="43.20662" lon="2.366">
        <ele>140.8</ele>
        <time>2019-06-30T07:56:59.000Z</time>
      </trkpt>
      <trkpt lat="43.20663" lon="2.366">
        <ele>140.8</ele>
        <time>2019-06-30T07:57:00.000Z</time>
      </trkpt>
      <trkpt lat="43.20664" lon="2.366">
        <ele>140.7</ele>
        <time>2019-06-30T07:57:01.000Z</time>
      </trkpt>
      <trkpt lat="43.20665" lon="2.366">
        <ele>140.7</ele>
        <time>2019-06-30T07:57:02.000Z</time>
      </trkpt>
      <trkpt lat="43.20666" lon="2.36601">
        <ele>140.6</ele>
        <time>2019-06-30T07:57:03.000Z</time>
      </trkpt>
      <trkpt lat="43.20667" lon="2.36601">
        <ele>140.5</ele>
        <time>2019-06-30T07:57:04.000Z</time>
      </trkpt>
      <trkpt lat="43.20667" lon="2.36602">
        <ele>140.4</ele>
        <time>2019-06-30T07:57:05.000Z</time>
      </trkpt>
      <trkpt lat="43.20668" lon="2.36603">
        <ele>140.3</ele>
        <time>2019-06-30T07:57:06.000Z</time>
      </trkpt>
      <trkpt lat="43.20668" lon="2.36604">
        <ele>140.2</ele>
        <time>2019-06-30T07:57:07.000Z</time>
      </trkpt>
      <trkpt lat="43.20669" lon="2.36605">
        <ele>140.1</ele>
        <time>2019-06-30T07:57:08.000Z</time>
      </trkpt>
      <trkpt lat="43.20669" lon="2.36606">
        <ele>140.1</ele>
        <time>2019-06-30T07:57:09.000Z</time>
      </trkpt>
      <trkpt lat="43.20669" lon="2.36606">
        <ele>140</ele>
        <time>2019-06-30T07:57:10.000Z</time>
      </trkpt>
      <trkpt lat="43.20668" lon="2.36606">
        <ele>140.1</ele>
        <time>2019-06-30T07:57:11.000Z</time>
      </trkpt>
      <trkpt lat="43.20668" lon="2.36606">
        <ele>140.1</ele>
        <time>2019-06-30T07:57:12.000Z</time>
      </trkpt>
      <trkpt lat="43.20668" lon="2.36606">
        <ele>140.1</ele>
        <time>2019-06-30T07:57:13.000Z</time>
      </trkpt>
      <trkpt lat="43.20668" lon="2.36606">
        <ele>140.1</ele>
        <time>2019-06-30T07:57:14.000Z</time>
      </trkpt>
      <trkpt lat="43.20668" lon="2.36606">
        <ele>140.1</ele>
        <time>2019-06-30T07:57:15.000Z</time>
      </trkpt>
      <trkpt lat="43.20668" lon="2.36606">
        <ele>140.1</ele>
        <time>2019-06-30T07:57:16.000Z</time>
      </trkpt>
      <trkpt lat="43.20668" lon="2.36606">
        <ele>140.1</ele>
        <time>2019-06-30T07:57:17.000Z</time>
      </trkpt>
      <trkpt lat="43.20668" lon="2.36606">
        <ele>140.1</ele>
        <time>2019-06-30T07:57:18.000Z</time>
      </trkpt>
      <trkpt lat="43.20668" lon="2.36606">
        <ele>140.1</ele>
        <time>2019-06-30T07:57:19.000Z</time>
      </trkpt>
      <trkpt lat="43.20668" lon="2.36606">
        <ele>140.1</ele>
        <time>2019-06-30T07:57:20.000Z</time>
      </trkpt>
      <trkpt lat="43.20668" lon="2.36606">
        <ele>140.1</ele>
        <time>2019-06-30T07:57:21.000Z</time>
      </trkpt>
      <trkpt lat="43.20668" lon="2.36606">
        <ele>140.1</ele>
        <time>2019-06-30T07:57:22.000Z</time>
      </trkpt>
      <trkpt lat="43.20668" lon="2.36606">
        <ele>140.1</ele>
        <time>2019-06-30T07:57:23.000Z</time>
      </trkpt>
      <trkpt lat="43.20668" lon="2.36606">
        <ele>140.1</ele>
        <time>2019-06-30T07:57:24.000Z</time>
      </trkpt>
      <trkpt lat="43.20668" lon="2.36606">
        <ele>140.1</ele>
        <time>2019-06-30T07:57:25.000Z</time>
      </trkpt>
      <trkpt lat="43.20668" lon="2.36606">
        <ele>140.1</ele>
        <time>2019-06-30T07:57:26.000Z</time>
      </trkpt>
      <trkpt lat="43.20668" lon="2.36606">
        <ele>140.1</ele>
        <time>2019-06-30T07:57:27.000Z</time>
      </trkpt>
      <trkpt lat="43.20668" lon="2.36606">
        <ele>140.1</ele>
        <time>2019-06-30T07:57:28.000Z</time>
      </trkpt>
      <trkpt lat="43.20668" lon="2.36606">
        <ele>140.1</ele>
        <time>2019-06-30T07:57:29.000Z</time>
      </trkpt>
      <trkpt lat="43.20668" lon="2.36606">
        <ele>140.1</ele>
        <time>2019-06-30T07:57:30.000Z</time>
      </trkpt>
      <trkpt lat="43.20668" lon="2.36606">
        <ele>140.1</ele>
        <time>2019-06-30T07:57:31.000Z</time>
      </trkpt>
      <trkpt lat="43.20668" lon="2.36606">
        <ele>140.1</ele>
        <time>2019-06-30T07:57:32.000Z</time>
      </trkpt>
      <trkpt lat="43.20668" lon="2.36606">
        <ele>140.1</ele>
        <time>2019-06-30T07:57:33.000Z</time>
      </trkpt>
      <trkpt lat="43.20668" lon="2.36606">
        <ele>140.1</ele>
        <time>2019-06-30T07:57:34.000Z</time>
      </trkpt>
      <trkpt lat="43.20668" lon="2.36606">
        <ele>140.1</ele>
        <time>2019-06-30T07:57:35.000Z</time>
      </trkpt>
      <trkpt lat="43.20668" lon="2.36606">
        <ele>140.1</ele>
        <time>2019-06-30T07:57:36.000Z</time>
      </trkpt>
      <trkpt lat="43.20668" lon="2.36606">
        <ele>140.1</ele>
        <time>2019-06-30T07:57:37.000Z</time>
      </trkpt>
      <trkpt lat="43.20668" lon="2.36606">
        <ele>140.1</ele>
        <time>2019-06-30T07:57:38.000Z</time>
      </trkpt>
      <trkpt lat="43.20668" lon="2.36606">
        <ele>140.1</ele>
        <time>2019-06-30T07:57:39.000Z</time>
      </trkpt>
      <trkpt lat="43.20668" lon="2.36606">
        <ele>140.1</ele>
        <time>2019-06-30T07:57:40.000Z</time>
      </trkpt>
      <trkpt lat="43.20668" lon="2.36606">
        <ele>140.1</ele>
        <time>2019-06-30T07:57:41.000Z</time>
      </trkpt>
      <trkpt lat="43.20668" lon="2.36606">
        <ele>140.1</ele>
        <time>2019-06-30T07:57:42.000Z</time>
      </trkpt>
      <trkpt lat="43.20668" lon="2.36606">
        <ele>140.1</ele>
        <time>2019-06-30T07:57:43.000Z</time>
      </trkpt>
      <trkpt lat="43.20668" lon="2.36606">
        <ele>140.1</ele>
        <time>2019-06-30T07:57:44.000Z</time>
      </trkpt>
      <trkpt lat="43.20668" lon="2.36606">
        <ele>140.1</ele>
        <time>2019-06-30T07:57:45.000Z</time>
      </trkpt>
      <trkpt lat="43.20668" lon="2.36606">
        <ele>140.1</ele>
        <time>2019-06-30T07:57:46.000Z</time>
      </trkpt>
      <trkpt lat="43.20668" lon="2.36606">
        <ele>140.1</ele>
        <time>2019-06-30T07:57:47.000Z</time>
      </trkpt>
      <trkpt lat="43.20668" lon="2.36606">
        <ele>140.1</ele>
        <time>2019-06-30T07:57:48.000Z</time>
      </trkpt>
      <trkpt lat="43.20668" lon="2.36606">
        <ele>140.1</ele>
        <time>2019-06-30T07:57:49.000Z</time>
      </trkpt>
      <trkpt lat="43.20668" lon="2.36606">
        <ele>140.1</ele>
        <time>2019-06-30T07:57:50.000Z</time>
      </trkpt>
      <trkpt lat="43.20668" lon="2.36606">
        <ele>140.1</ele>
        <time>2019-06-30T07:57:51.000Z</time>
      </trkpt>
      <trkpt lat="43.20668" lon="2.36606">
        <ele>140.1</ele>
        <time>2019-06-30T07:57:52.000Z</time>
      </trkpt>
      <trkpt lat="43.20668" lon="2.36606">
        <ele>140.1</ele>
        <time>2019-06-30T07:57:53.000Z</time>
      </trkpt>
      <trkpt lat="43.20668" lon="2.36606">
        <ele>140.1</ele>
        <time>2019-06-30T07:57:54.000Z</time>
      </trkpt>
      <trkpt lat="43.20668" lon="2.36606">
        <ele>140.1</ele>
        <time>2019-06-30T07:57:55.000Z</time>
      </trkpt>
      <trkpt lat="43.20668" lon="2.36606">
        <ele>140.1</ele>
        <time>2019-06-30T07:57:56.000Z</time>
      </trkpt>
      <trkpt lat="43.20668" lon="2.36606">
        <ele>140.1</ele>
        <time>2019-06-30T07:57:57.000Z</time>
      </trkpt>
      <trkpt lat="43.20668" lon="2.36606">
        <ele>140.1</ele>
        <time>2019-06-30T07:57:58.000Z</time>
      </trkpt>
      <trkpt lat="43.20668" lon="2.36606">
        <ele>140.1</ele>
        <time>2019-06-30T07:57:59.000Z</time>
      </trkpt>
      <trkpt lat="43.20668" lon="2.36606">
        <ele>140.1</ele>
        <time>2019-06-30T07:58:00.000Z</time>
      </trkpt>
      <trkpt lat="43.20668" lon="2.36606">
        <ele>140.1</ele>
        <time>2019-06-30T07:58:01.000Z</time>
      </trkpt>
      <trkpt lat="43.20668" lon="2.36605">
        <ele>140.1</ele>
        <time>2019-06-30T07:58:02.000Z</time>
      </trkpt>
      <trkpt lat="43.20668" lon="2.36605">
        <ele>140.1</ele>
        <time>2019-06-30T07:58:03.000Z</time>
      </trkpt>
      <trkpt lat="43.20668" lon="2.36605">
        <ele>140.1</ele>
        <time>2019-06-30T07:58:04.000Z</time>
      </trkpt>
      <trkpt lat="43.20668" lon="2.36605">
        <ele>140.1</ele>
        <time>2019-06-30T07:58:05.000Z</time>
      </trkpt>
      <trkpt lat="43.20668" lon="2.36605">
        <ele>140.1</ele>
        <time>2019-06-30T07:58:06.000Z</time>
      </trkpt>
      <trkpt lat="43.20668" lon="2.36605">
        <ele>140.1</ele>
        <time>2019-06-30T07:58:07.000Z</time>
      </trkpt>
      <trkpt lat="43.20669" lon="2.36605">
        <ele>140.1</ele>
        <time>2019-06-30T07:58:08.000Z</time>
      </trkpt>
      <trkpt lat="43.20669" lon="2.36605">
        <ele>140.1</ele>
        <time>2019-06-30T07:58:09.000Z</time>
      </trkpt>
      <trkpt lat="43.20669" lon="2.36605">
        <ele>140.1</ele>
        <time>2019-06-30T07:58:10.000Z</time>
      </trkpt>
      <trkpt lat="43.20669" lon="2.36605">
        <ele>140.1</ele>
        <time>2019-06-30T07:58:11.000Z</time>
      </trkpt>
      <trkpt lat="43.20669" lon="2.36605">
        <ele>140.1</ele>
        <time>2019-06-30T07:58:12.000Z</time>
      </trkpt>
      <trkpt lat="43.20669" lon="2.36605">
        <ele>140.1</ele>
        <time>2019-06-30T07:58:13.000Z</time>
      </trkpt>
      <trkpt lat="43.20669" lon="2.36605">
        <ele>140.1</ele>
        <time>2019-06-30T07:58:14.000Z</time>
      </trkpt>
      <trkpt lat="43.20669" lon="2.36605">
        <ele>140.1</ele>
        <time>2019-06-30T07:58:15.000Z</time>
      </trkpt>
      <trkpt lat="43.20669" lon="2.36605">
        <ele>140.1</ele>
        <time>2019-06-30T07:58:16.000Z</time>
      </trkpt>
      <trkpt lat="43.20669" lon="2.36604">
        <ele>140.1</ele>
        <time>2019-06-30T07:58:17.000Z</time>
      </trkpt>
      <trkpt lat="43.20669" lon="2.36604">
        <ele>140.1</ele>
        <time>2019-06-30T07:58:18.000Z</time>
      </trkpt>
      <trkpt lat="43.20669" lon="2.36604">
        <ele>140.1</ele>
        <time>2019-06-30T07:58:19.000Z</time>
      </trkpt>
      <trkpt lat="43.20669" lon="2.36604">
        <ele>140.1</ele>
        <time>2019-06-30T07:58:20.000Z</time>
      </trkpt>
      <trkpt lat="43.20669" lon="2.36604">
        <ele>140.1</ele>
        <time>2019-06-30T07:58:21.000Z</time>
      </trkpt>
      <trkpt lat="43.20669" lon="2.36604">
        <ele>140.1</ele>
        <time>2019-06-30T07:58:22.000Z</time>
      </trkpt>
      <trkpt lat="43.20669" lon="2.36604">
        <ele>140.1</ele>
        <time>2019-06-30T07:58:23.000Z</time>
      </trkpt>
      <trkpt lat="43.20669" lon="2.36604">
        <ele>140.1</ele>
        <time>2019-06-30T07:58:24.000Z</time>
      </trkpt>
      <trkpt lat="43.20669" lon="2.36604">
        <ele>140.1</ele>
        <time>2019-06-30T07:58:25.000Z</time>
      </trkpt>
      <trkpt lat="43.20669" lon="2.36604">
        <ele>140.1</ele>
        <time>2019-06-30T07:58:26.000Z</time>
      </trkpt>
      <trkpt lat="43.20669" lon="2.36604">
        <ele>140.1</ele>
        <time>2019-06-30T07:58:27.000Z</time>
      </trkpt>
      <trkpt lat="43.20669" lon="2.36604">
        <ele>140.1</ele>
        <time>2019-06-30T07:58:28.000Z</time>
      </trkpt>
      <trkpt lat="43.20669" lon="2.36604">
        <ele>140.1</ele>
        <time>2019-06-30T07:58:29.000Z</time>
      </trkpt>
      <trkpt lat="43.20669" lon="2.36604">
        <ele>140.1</ele>
        <time>2019-06-30T07:58:30.000Z</time>
      </trkpt>
      <trkpt lat="43.20669" lon="2.36604">
        <ele>140.1</ele>
        <time>2019-06-30T07:58:31.000Z</time>
      </trkpt>
      <trkpt lat="43.20669" lon="2.36604">
        <ele>140.1</ele>
        <time>2019-06-30T07:58:32.000Z</time>
      </trkpt>
      <trkpt lat="43.20669" lon="2.36604">
        <ele>140.1</ele>
        <time>2019-06-30T07:58:33.000Z</time>
      </trkpt>
      <trkpt lat="43.20669" lon="2.36604">
        <ele>140.1</ele>
        <time>2019-06-30T07:58:34.000Z</time>
      </trkpt>
      <trkpt lat="43.20669" lon="2.36604">
        <ele>140.1</ele>
        <time>2019-06-30T07:58:35.000Z</time>
      </trkpt>
      <trkpt lat="43.20669" lon="2.36604">
        <ele>140.1</ele>
        <time>2019-06-30T07:58:36.000Z</time>
      </trkpt>
      <trkpt lat="43.20669" lon="2.36604">
        <ele>140.1</ele>
        <time>2019-06-30T07:58:37.000Z</time>
      </trkpt>
      <trkpt lat="43.20669" lon="2.36604">
        <ele>140.1</ele>
        <time>2019-06-30T07:58:38.000Z</time>
      </trkpt>
      <trkpt lat="43.20669" lon="2.36604">
        <ele>140.1</ele>
        <time>2019-06-30T07:58:39.000Z</time>
      </trkpt>
      <trkpt lat="43.20669" lon="2.36604">
        <ele>140.1</ele>
        <time>2019-06-30T07:58:40.000Z</time>
      </trkpt>
      <trkpt lat="43.20669" lon="2.36604">
        <ele>140.1</ele>
        <time>2019-06-30T07:58:41.000Z</time>
      </trkpt>
      <trkpt lat="43.2067" lon="2.36604">
        <ele>140.1</ele>
        <time>2019-06-30T07:58:42.000Z</time>
      </trkpt>
      <trkpt lat="43.2067" lon="2.36604">
        <ele>140.1</ele>
        <time>2019-06-30T07:58:43.000Z</time>
      </trkpt>
      <trkpt lat="43.20671" lon="2.36604">
        <ele>140</ele>
        <time>2019-06-30T07:58:44.000Z</time>
      </trkpt>
      <trkpt lat="43.20673" lon="2.36605">
        <ele>140</ele>
        <time>2019-06-30T07:58:45.000Z</time>
      </trkpt>
      <trkpt lat="43.20674" lon="2.36605">
        <ele>139.9</ele>
        <time>2019-06-30T07:58:46.000Z</time>
      </trkpt>
      <trkpt lat="43.20675" lon="2.36605">
        <ele>139.8</ele>
        <time>2019-06-30T07:58:47.000Z</time>
      </trkpt>
      <trkpt lat="43.20677" lon="2.36606">
        <ele>139.7</ele>
        <time>2019-06-30T07:58:48.000Z</time>
      </trkpt>
      <trkpt lat="43.20678" lon="2.36607">
        <ele>139.5</ele>
        <time>2019-06-30T07:58:49.000Z</time>
      </trkpt>
      <trkpt lat="43.2068" lon="2.36608">
        <ele>139.3</ele>
        <time>2019-06-30T07:58:50.000Z</time>
      </trkpt>
      <trkpt lat="43.20682" lon="2.36609">
        <ele>139.2</ele>
        <time>2019-06-30T07:58:51.000Z</time>
      </trkpt>
      <trkpt lat="43.20684" lon="2.3661">
        <ele>139</ele>
        <time>2019-06-30T07:58:52.000Z</time>
      </trkpt>
      <trkpt lat="43.20685" lon="2.36611">
        <ele>138.8</ele>
        <time>2019-06-30T07:58:53.000Z</time>
      </trkpt>
      <trkpt lat="43.20687" lon="2.36612">
        <ele>138.6</ele>
        <time>2019-06-30T07:58:54.000Z</time>
      </trkpt>
      <trkpt lat="43.2069" lon="2.36613">
        <ele>138.4</ele>
        <time>2019-06-30T07:58:55.000Z</time>
      </trkpt>
      <trkpt lat="43.20692" lon="2.36614">
        <ele>138.2</ele>
        <time>2019-06-30T07:58:56.000Z</time>
      </trkpt>
      <trkpt lat="43.20694" lon="2.36615">
        <ele>138</ele>
        <time>2019-06-30T07:58:57.000Z</time>
      </trkpt>
      <trkpt lat="43.20696" lon="2.36616">
        <ele>137.8</ele>
        <time>2019-06-30T07:58:58.000Z</time>
      </trkpt>
      <trkpt lat="43.20699" lon="2.36617">
        <ele>137.5</ele>
        <time>2019-06-30T07:58:59.000Z</time>
      </trkpt>
      <trkpt lat="43.20701" lon="2.36619">
        <ele>137.3</ele>
        <time>2019-06-30T07:59:00.000Z</time>
      </trkpt>
      <trkpt lat="43.20703" lon="2.3662">
        <ele>137</ele>
        <time>2019-06-30T07:59:01.000Z</time>
      </trkpt>
      <trkpt lat="43.20706" lon="2.36621">
        <ele>136.8</ele>
        <time>2019-06-30T07:59:02.000Z</time>
      </trkpt>
      <trkpt lat="43.20709" lon="2.36622">
        <ele>136.6</ele>
        <time>2019-06-30T07:59:03.000Z</time>
      </trkpt>
      <trkpt lat="43.20711" lon="2.36623">
        <ele>136.3</ele>
        <time>2019-06-30T07:59:04.000Z</time>
      </trkpt>
      <trkpt lat="43.20714" lon="2.36623">
        <ele>136.1</ele>
        <time>2019-06-30T07:59:05.000Z</time>
      </trkpt>
      <trkpt lat="43.20716" lon="2.36624">
        <ele>136</ele>
        <time>2019-06-30T07:59:06.000Z</time>
      </trkpt>
      <trkpt lat="43.20719" lon="2.36624">
        <ele>135.8</ele>
        <time>2019-06-30T07:59:07.000Z</time>
      </trkpt>
      <trkpt lat="43.20721" lon="2.36624">
        <ele>135.6</ele>
        <time>2019-06-30T07:59:08.000Z</time>
      </trkpt>
      <trkpt lat="43.20724" lon="2.36624">
        <ele>135.5</ele>
        <time>2019-06-30T07:59:09.000Z</time>
      </trkpt>
      <trkpt lat="43.20726" lon="2.36624">
        <ele>135.4</ele>
        <time>2019-06-30T07:59:10.000Z</time>
      </trkpt>
      <trkpt lat="43.20728" lon="2.36624">
        <ele>135.2</ele>
        <time>2019-06-30T07:59:11.000Z</time>
      </trkpt>
      <trkpt lat="43.20731" lon="2.36624">
        <ele>135.1</ele>
        <time>2019-06-30T07:59:12.000Z</time>
      </trkpt>
      <trkpt lat="43.20733" lon="2.36624">
        <ele>135</ele>
        <time>2019-06-30T07:59:13.000Z</time>
      </trkpt>
      <trkpt lat="43.20735" lon="2.36624">
        <ele>135</ele>
        <time>2019-06-30T07:59:14.000Z</time>
      </trkpt>
      <trkpt lat="43.20737" lon="2.36624">
        <ele>134.9</ele>
        <time>2019-06-30T07:59:15.000Z</time>
      </trkpt>
      <trkpt lat="43.20738" lon="2.36623">
        <ele>134.8</ele>
        <time>2019-06-30T07:59:16.000Z</time>
      </trkpt>
      <trkpt lat="43.2074" lon="2.36623">
        <ele>134.8</ele>
        <time>2019-06-30T07:59:17.000Z</time>
      </trkpt>
      <trkpt lat="43.20742" lon="2.36622">
        <ele>134.8</ele>
        <time>2019-06-30T07:59:18.000Z</time>
      </trkpt>
      <trkpt lat="43.20743" lon="2.36621">
        <ele>134.8</ele>
        <time>2019-06-30T07:59:19.000Z</time>
      </trkpt>
      <trkpt lat="43.20745" lon="2.3662">
        <ele>134.8</ele>
        <time>2019-06-30T07:59:20.000Z</time>
      </trkpt>
      <trkpt lat="43.20747" lon="2.36619">
        <ele>134.9</ele>
        <time>2019-06-30T07:59:21.000Z</time>
      </trkpt>
      <trkpt lat="43.20748" lon="2.36618">
        <ele>134.9</ele>
        <time>2019-06-30T07:59:22.000Z</time>
      </trkpt>
      <trkpt lat="43.2075" lon="2.36617">
        <ele>135</ele>
        <time>2019-06-30T07:59:23.000Z</time>
      </trkpt>
      <trkpt lat="43.20752" lon="2.36616">
        <ele>135</ele>
        <time>2019-06-30T07:59:24.000Z</time>
      </trkpt>
      <trkpt lat="43.20753" lon="2.36614">
        <ele>134.9</ele>
        <time>2019-06-30T07:59:25.000Z</time>
      </trkpt>
      <trkpt lat="43.20755" lon="2.36613">
        <ele>134.7</ele>
        <time>2019-06-30T07:59:26.000Z</time>
      </trkpt>
      <trkpt lat="43.20757" lon="2.36612">
        <ele>134.6</ele>
        <time>2019-06-30T07:59:27.000Z</time>
      </trkpt>
      <trkpt lat="43.2076" lon="2.36611">
        <ele>134.5</ele>
        <time>2019-06-30T07:59:28.000Z</time>
      </trkpt>
      <trkpt lat="43.20762" lon="2.3661">
        <ele>134.3</ele>
        <time>2019-06-30T07:59:29.000Z</time>
      </trkpt>
      <trkpt lat="43.20764" lon="2.36609">
        <ele>134.2</ele>
        <time>2019-06-30T07:59:30.000Z</time>
      </trkpt>
      <trkpt lat="43.20766" lon="2.36607">
        <ele>134</ele>
        <time>2019-06-30T07:59:31.000Z</time>
      </trkpt>
      <trkpt lat="43.20768" lon="2.36606">
        <ele>133.8</ele>
        <time>2019-06-30T07:59:32.000Z</time>
      </trkpt>
      <trkpt lat="43.20771" lon="2.36605">
        <ele>133.7</ele>
        <time>2019-06-30T07:59:33.000Z</time>
      </trkpt>
      <trkpt lat="43.20773" lon="2.36603">
        <ele>133.5</ele>
        <time>2019-06-30T07:59:34.000Z</time>
      </trkpt>
      <trkpt lat="43.20775" lon="2.36602">
        <ele>133.4</ele>
        <time>2019-06-30T07:59:35.000Z</time>
      </trkpt>
      <trkpt lat="43.20777" lon="2.36601">
        <ele>133.2</ele>
        <time>2019-06-30T07:59:36.000Z</time>
      </trkpt>
      <trkpt lat="43.20779" lon="2.36599">
        <ele>133</ele>
        <time>2019-06-30T07:59:37.000Z</time>
      </trkpt>
      <trkpt lat="43.20781" lon="2.36598">
        <ele>132.9</ele>
        <time>2019-06-30T07:59:38.000Z</time>
      </trkpt>
      <trkpt lat="43.20783" lon="2.36596">
        <ele>132.7</ele>
        <time>2019-06-30T07:59:39.000Z</time>
      </trkpt>
      <trkpt lat="43.20786" lon="2.36594">
        <ele>132.5</ele>
        <time>2019-06-30T07:59:40.000Z</time>
      </trkpt>
      <trkpt lat="43.20788" lon="2.36593">
        <ele>132.3</ele>
        <time>2019-06-30T07:59:41.000Z</time>
      </trkpt>
      <trkpt lat="43.2079" lon="2.36591">
        <ele>132.1</ele>
        <time>2019-06-30T07:59:42.000Z</time>
      </trkpt>
      <trkpt lat="43.20793" lon="2.36589">
        <ele>131.9</ele>
        <time>2019-06-30T07:59:43.000Z</time>
      </trkpt>
      <trkpt lat="43.20795" lon="2.36587">
        <ele>131.7</ele>
        <time>2019-06-30T07:59:44.000Z</time>
      </trkpt>
      <trkpt lat="43.20797" lon="2.36586">
        <ele>131.4</ele>
        <time>2019-06-30T07:59:45.000Z</time>
      </trkpt>
      <trkpt lat="43.208" lon="2.36584">
        <ele>131.2</ele>
        <time>2019-06-30T07:59:46.000Z</time>
      </trkpt>
      <trkpt lat="43.20802" lon="2.36582">
        <ele>131.1</ele>
        <time>2019-06-30T07:59:47.000Z</time>
      </trkpt>
      <trkpt lat="43.20804" lon="2.3658">
        <ele>130.9</ele>
        <time>2019-06-30T07:59:48.000Z</time>
      </trkpt>
      <trkpt lat="43.20806" lon="2.36578">
        <ele>130.8</ele>
        <time>2019-06-30T07:59:49.000Z</time>
      </trkpt>
      <trkpt lat="43.20808" lon="2.36576">
        <ele>130.7</ele>
        <time>2019-06-30T07:59:50.000Z</time>
      </trkpt>
      <trkpt lat="43.2081" lon="2.36574">
        <ele>130.5</ele>
        <time>2019-06-30T07:59:51.000Z</time>
      </trkpt>
      <trkpt lat="43.20812" lon="2.36572">
        <ele>130.4</ele>
        <time>2019-06-30T07:59:52.000Z</time>
      </trkpt>
      <trkpt lat="43.20814" lon="2.3657">
        <ele>130.4</ele>
        <time>2019-06-30T07:59:53.000Z</time>
      </trkpt>
      <trkpt lat="43.20816" lon="2.36567">
        <ele>130.3</ele>
        <time>2019-06-30T07:59:54.000Z</time>
      </trkpt>
      <trkpt lat="43.20818" lon="2.36565">
        <ele>130.2</ele>
        <time>2019-06-30T07:59:55.000Z</time>
      </trkpt>
      <trkpt lat="43.2082" lon="2.36563">
        <ele>130.1</ele>
        <time>2019-06-30T07:59:56.000Z</time>
      </trkpt>
      <trkpt lat="43.20822" lon="2.36561">
        <ele>130</ele>
        <time>2019-06-30T07:59:57.000Z</time>
      </trkpt>
      <trkpt lat="43.20824" lon="2.36558">
        <ele>129.9</ele>
        <time>2019-06-30T07:59:58.000Z</time>
      </trkpt>
      <trkpt lat="43.20826" lon="2.36556">
        <ele>129.8</ele>
        <time>2019-06-30T07:59:59.000Z</time>
      </trkpt>
      <trkpt lat="43.20828" lon="2.36554">
        <ele>129.8</ele>
        <time>2019-06-30T08:00:00.000Z</time>
      </trkpt>
      <trkpt lat="43.2083" lon="2.36551">
        <ele>129.7</ele>
        <time>2019-06-30T08:00:01.000Z</time>
      </trkpt>
      <trkpt lat="43.20832" lon="2.36549">
        <ele>129.6</ele>
        <time>2019-06-30T08:00:02.000Z</time>
      </trkpt>
      <trkpt lat="43.20834" lon="2.36546">
        <ele>129.5</ele>
        <time>2019-06-30T08:00:03.000Z</time>
      </trkpt>
      <trkpt lat="43.20836" lon="2.36544">
        <ele>129.4</ele>
        <time>2019-06-30T08:00:04.000Z</time>
      </trkpt>
      <trkpt lat="43.20838" lon="2.36541">
        <ele>129.3</ele>
        <time>2019-06-30T08:00:05.000Z</time>
      </trkpt>
      <trkpt lat="43.2084" lon="2.36539">
        <ele>129.2</ele>
        <time>2019-06-30T08:00:06.000Z</time>
      </trkpt>
      <trkpt lat="43.20842" lon="2.36536">
        <ele>129.1</ele>
        <time>2019-06-30T08:00:07.000Z</time>
      </trkpt>
      <trkpt lat="43.20844" lon="2.36534">
        <ele>129</ele>
        <time>2019-06-30T08:00:08.000Z</time>
      </trkpt>
      <trkpt lat="43.20845" lon="2.36531">
        <ele>128.9</ele>
        <time>2019-06-30T08:00:09.000Z</time>
      </trkpt>
      <trkpt lat="43.20847" lon="2.36529">
        <ele>128.8</ele>
        <time>2019-06-30T08:00:10.000Z</time>
      </trkpt>
      <trkpt lat="43.20848" lon="2.36526">
        <ele>128.7</ele>
        <time>2019-06-30T08:00:11.000Z</time>
      </trkpt>
      <trkpt lat="43.2085" lon="2.36524">
        <ele>128.6</ele>
        <time>2019-06-30T08:00:12.000Z</time>
      </trkpt>
      <trkpt lat="43.20851" lon="2.36521">
        <ele>128.5</ele>
        <time>2019-06-30T08:00:13.000Z</time>
      </trkpt>
      <trkpt lat="43.20852" lon="2.36519">
        <ele>128.4</ele>
        <time>2019-06-30T08:00:14.000Z</time>
      </trkpt>
      <trkpt lat="43.20854" lon="2.36516">
        <ele>128.4</ele>
        <time>2019-06-30T08:00:15.000Z</time>
      </trkpt>
      <trkpt lat="43.20855" lon="2.36514">
        <ele>128.3</ele>
        <time>2019-06-30T08:00:16.000Z</time>
      </trkpt>
      <trkpt lat="43.20855" lon="2.36511">
        <ele>128.3</ele>
        <time>2019-06-30T08:00:17.000Z</time>
      </trkpt>
      <trkpt lat="43.20856" lon="2.36509">
        <ele>128.3</ele>
        <time>2019-06-30T08:00:18.000Z</time>
      </trkpt>
      <trkpt lat="43.20857" lon="2.36506">
        <ele>128.4</ele>
        <time>2019-06-30T08:00:19.000Z</time>
      </trkpt>
      <trkpt lat="43.20857" lon="2.36503">
        <ele>128.4</ele>
        <time>2019-06-30T08:00:20.000Z</time>
      </trkpt>
      <trkpt lat="43.20857" lon="2.36501">
        <ele>128.5</ele>
        <time>2019-06-30T08:00:21.000Z</time>
      </trkpt>
      <trkpt lat="43.20857" lon="2.36498">
        <ele>128.5</ele>
        <time>2019-06-30T08:00:22.000Z</time>
      </trkpt>
      <trkpt lat="43.20857" lon="2.36495">
        <ele>128.5</ele>
        <time>2019-06-30T08:00:23.000Z</time>
      </trkpt>
      <trkpt lat="43.20857" lon="2.36492">
        <ele>128.5</ele>
        <time>2019-06-30T08:00:24.000Z</time>
      </trkpt>
      <trkpt lat="43.20857" lon="2.3649">
        <ele>128.6</ele>
        <time>2019-06-30T08:00:25.000Z</time>
      </trkpt>
      <trkpt lat="43.20857" lon="2.36487">
        <ele>128.6</ele>
        <time>2019-06-30T08:00:26.000Z</time>
      </trkpt>
      <trkpt lat="43.20856" lon="2.36484">
        <ele>128.6</ele>
        <time>2019-06-30T08:00:27.000Z</time>
      </trkpt>
      <trkpt lat="43.20856" lon="2.36481">
        <ele>128.6</ele>
        <time>2019-06-30T08:00:28.000Z</time>
      </trkpt>
      <trkpt lat="43.20856" lon="2.36478">
        <ele>128.6</ele>
        <time>2019-06-30T08:00:29.000Z</time>
      </trkpt>
      <trkpt lat="43.20857" lon="2.36474">
        <ele>128.5</ele>
        <time>2019-06-30T08:00:30.000Z</time>
      </trkpt>
      <trkpt lat="43.20857" lon="2.36471">
        <ele>128.4</ele>
        <time>2019-06-30T08:00:31.000Z</time>
      </trkpt>
      <trkpt lat="43.20857" lon="2.36468">
        <ele>128.2</ele>
        <time>2019-06-30T08:00:32.000Z</time>
      </trkpt>
      <trkpt lat="43.20858" lon="2.36465">
        <ele>128.1</ele>
        <time>2019-06-30T08:00:33.000Z</time>
      </trkpt>
      <trkpt lat="43.20858" lon="2.36461">
        <ele>127.9</ele>
        <time>2019-06-30T08:00:34.000Z</time>
      </trkpt>
      <trkpt lat="43.20859" lon="2.36458">
        <ele>127.8</ele>
        <time>2019-06-30T08:00:35.000Z</time>
      </trkpt>
      <trkpt lat="43.20859" lon="2.36455">
        <ele>127.6</ele>
        <time>2019-06-30T08:00:36.000Z</time>
      </trkpt>
      <trkpt lat="43.20859" lon="2.36452">
        <ele>127.5</ele>
        <time>2019-06-30T08:00:37.000Z</time>
      </trkpt>
      <trkpt lat="43.2086" lon="2.36449">
        <ele>127.5</ele>
        <time>2019-06-30T08:00:38.000Z</time>
      </trkpt>
      <trkpt lat="43.2086" lon="2.36446">
        <ele>127.5</ele>
        <time>2019-06-30T08:00:39.000Z</time>
      </trkpt>
      <trkpt lat="43.20859" lon="2.36443">
        <ele>127.5</ele>
        <time>2019-06-30T08:00:40.000Z</time>
      </trkpt>
      <trkpt lat="43.20859" lon="2.36441">
        <ele>127.5</ele>
        <time>2019-06-30T08:00:41.000Z</time>
      </trkpt>
      <trkpt lat="43.20859" lon="2.36438">
        <ele>127.5</ele>
        <time>2019-06-30T08:00:42.000Z</time>
      </trkpt>
      <trkpt lat="43.20859" lon="2.36436">
        <ele>127.6</ele>
        <time>2019-06-30T08:00:43.000Z</time>
      </trkpt>
      <trkpt lat="43.20859" lon="2.36434">
        <ele>127.6</ele>
        <time>2019-06-30T08:00:44.000Z</time>
      </trkpt>
      <trkpt lat="43.20858" lon="2.36432">
        <ele>127.7</ele>
        <time>2019-06-30T08:00:45.000Z</time>
      </trkpt>
      <trkpt lat="43.20858" lon="2.3643">
        <ele>127.7</ele>
        <time>2019-06-30T08:00:46.000Z</time>
      </trkpt>
      <trkpt lat="43.20858" lon="2.36428">
        <ele>127.7</ele>
        <time>2019-06-30T08:00:47.000Z</time>
      </trkpt>
      <trkpt lat="43.20858" lon="2.36426">
        <ele>127.7</ele>
        <time>2019-06-30T08:00:48.000Z</time>
      </trkpt>
      <trkpt lat="43.20858" lon="2.36424">
        <ele>127.6</ele>
        <time>2019-06-30T08:00:49.000Z</time>
      </trkpt>
      <trkpt lat="43.20859" lon="2.36422">
        <ele>127.5</ele>
        <time>2019-06-30T08:00:50.000Z</time>
      </trkpt>
      <trkpt lat="43.20859" lon="2.36419">
        <ele>127.3</ele>
        <time>2019-06-30T08:00:51.000Z</time>
      </trkpt>
      <trkpt lat="43.2086" lon="2.36417">
        <ele>127.1</ele>
        <time>2019-06-30T08:00:52.000Z</time>
      </trkpt>
      <trkpt lat="43.2086" lon="2.36415">
        <ele>126.8</ele>
        <time>2019-06-30T08:00:53.000Z</time>
      </trkpt>
      <trkpt lat="43.20861" lon="2.36412">
        <ele>126.4</ele>
        <time>2019-06-30T08:00:54.000Z</time>
      </trkpt>
      <trkpt lat="43.20862" lon="2.3641">
        <ele>126</ele>
        <time>2019-06-30T08:00:55.000Z</time>
      </trkpt>
      <trkpt lat="43.20863" lon="2.36407">
        <ele>125.7</ele>
        <time>2019-06-30T08:00:56.000Z</time>
      </trkpt>
      <trkpt lat="43.20863" lon="2.36404">
        <ele>125.4</ele>
        <time>2019-06-30T08:00:57.000Z</time>
      </trkpt>
      <trkpt lat="43.20863" lon="2.36402">
        <ele>125.1</ele>
        <time>2019-06-30T08:00:58.000Z</time>
      </trkpt>
      <trkpt lat="43.20864" lon="2.36399">
        <ele>124.9</ele>
        <time>2019-06-30T08:00:59.000Z</time>
      </trkpt>
      <trkpt lat="43.20863" lon="2.36397">
        <ele>124.8</ele>
        <time>2019-06-30T08:01:00.000Z</time>
      </trkpt>
      <trkpt lat="43.20863" lon="2.36394">
        <ele>124.7</ele>
        <time>2019-06-30T08:01:01.000Z</time>
      </trkpt>
      <trkpt lat="43.20863" lon="2.36392">
        <ele>124.7</ele>
        <time>2019-06-30T08:01:02.000Z</time>
      </trkpt>
      <trkpt lat="43.20863" lon="2.36389">
        <ele>124.6</ele>
        <time>2019-06-30T08:01:03.000Z</time>
      </trkpt>
      <trkpt lat="43.20862" lon="2.36387">
        <ele>124.7</ele>
        <time>2019-06-30T08:01:04.000Z</time>
      </trkpt>
      <trkpt lat="43.20861" lon="2.36385">
        <ele>124.7</ele>
        <time>2019-06-30T08:01:05.000Z</time>
      </trkpt>
      <trkpt lat="43.2086" lon="2.36382">
        <ele>124.8</ele>
        <time>2019-06-30T08:01:06.000Z</time>
      </trkpt>
      <trkpt lat="43.2086" lon="2.3638">
        <ele>124.9</ele>
        <time>2019-06-30T08:01:07.000Z</time>
      </trkpt>
      <trkpt lat="43.20859" lon="2.36378">
        <ele>124.9</ele>
        <time>2019-06-30T08:01:08.000Z</time>
      </trkpt>
      <trkpt lat="43.20858" lon="2.36376">
        <ele>125</ele>
        <time>2019-06-30T08:01:09.000Z</time>
      </trkpt>
      <trkpt lat="43.20858" lon="2.36374">
        <ele>125</ele>
        <time>2019-06-30T08:01:10.000Z</time>
      </trkpt>
      <trkpt lat="43.20857" lon="2.36371">
        <ele>124.9</ele>
        <time>2019-06-30T08:01:11.000Z</time>
      </trkpt>
      <trkpt lat="43.20857" lon="2.36369">
        <ele>124.8</ele>
        <time>2019-06-30T08:01:12.000Z</time>
      </trkpt>
      <trkpt lat="43.20857" lon="2.36366">
        <ele>124.6</ele>
        <time>2019-06-30T08:01:13.000Z</time>
      </trkpt>
      <trkpt lat="43.20857" lon="2.36363">
        <ele>124.4</ele>
        <time>2019-06-30T08:01:14.000Z</time>
      </trkpt>
      <trkpt lat="43.20857" lon="2.3636">
        <ele>124.2</ele>
        <time>2019-06-30T08:01:15.000Z</time>
      </trkpt>
      <trkpt lat="43.20857" lon="2.36357">
        <ele>124</ele>
        <time>2019-06-30T08:01:16.000Z</time>
      </trkpt>
      <trkpt lat="43.20857" lon="2.36354">
        <ele>123.8</ele>
        <time>2019-06-30T08:01:17.000Z</time>
      </trkpt>
      <trkpt lat="43.20857" lon="2.3635">
        <ele>123.7</ele>
        <time>2019-06-30T08:01:18.000Z</time>
      </trkpt>
      <trkpt lat="43.20856" lon="2.36347">
        <ele>123.6</ele>
        <time>2019-06-30T08:01:19.000Z</time>
      </trkpt>
      <trkpt lat="43.20856" lon="2.36343">
        <ele>123.6</ele>
        <time>2019-06-30T08:01:20.000Z</time>
      </trkpt>
      <trkpt lat="43.20854" lon="2.3634">
        <ele>123.6</ele>
        <time>2019-06-30T08:01:21.000Z</time>
      </trkpt>
      <trkpt lat="43.20853" lon="2.36337">
        <ele>123.7</ele>
        <time>2019-06-30T08:01:22.000Z</time>
      </trkpt>
      <trkpt lat="43.20852" lon="2.36334">
        <ele>123.8</ele>
        <time>2019-06-30T08:01:23.000Z</time>
      </trkpt>
      <trkpt lat="43.20851" lon="2.36331">
        <ele>123.7</ele>
        <time>2019-06-30T08:01:24.000Z</time>
      </trkpt>
      <trkpt lat="43.20849" lon="2.36328">
        <ele>123.6</ele>
        <time>2019-06-30T08:01:25.000Z</time>
      </trkpt>
      <trkpt lat="43.20848" lon="2.36326">
        <ele>123.6</ele>
        <time>2019-06-30T08:01:26.000Z</time>
      </trkpt>
      <trkpt lat="43.20846" lon="2.36323">
        <ele>123.5</ele>
        <time>2019-06-30T08:01:27.000Z</time>
      </trkpt>
      <trkpt lat="43.20845" lon="2.36321">
        <ele>123.5</ele>
        <time>2019-06-30T08:01:28.000Z</time>
      </trkpt>
      <trkpt lat="43.20843" lon="2.3632">
        <ele>123.5</ele>
        <time>2019-06-30T08:01:29.000Z</time>
      </trkpt>
      <trkpt lat="43.20842" lon="2.36318">
        <ele>123.4</ele>
        <time>2019-06-30T08:01:30.000Z</time>
      </trkpt>
      <trkpt lat="43.20841" lon="2.36316">
        <ele>123.4</ele>
        <time>2019-06-30T08:01:31.000Z</time>
      </trkpt>
      <trkpt lat="43.2084" lon="2.36314">
        <ele>123.2</ele>
        <time>2019-06-30T08:01:32.000Z</time>
      </trkpt>
      <trkpt lat="43.20839" lon="2.36311">
        <ele>123</ele>
        <time>2019-06-30T08:01:33.000Z</time>
      </trkpt>
      <trkpt lat="43.20838" lon="2.36309">
        <ele>122.7</ele>
        <time>2019-06-30T08:01:34.000Z</time>
      </trkpt>
      <trkpt lat="43.20838" lon="2.36306">
        <ele>122.4</ele>
        <time>2019-06-30T08:01:35.000Z</time>
      </trkpt>
      <trkpt lat="43.20837" lon="2.36304">
        <ele>122.1</ele>
        <time>2019-06-30T08:01:36.000Z</time>
      </trkpt>
      <trkpt lat="43.20837" lon="2.36302">
        <ele>121.8</ele>
        <time>2019-06-30T08:01:37.000Z</time>
      </trkpt>
      <trkpt lat="43.20836" lon="2.363">
        <ele>121.6</ele>
        <time>2019-06-30T08:01:38.000Z</time>
      </trkpt>
      <trkpt lat="43.20836" lon="2.36299">
        <ele>121.4</ele>
        <time>2019-06-30T08:01:39.000Z</time>
      </trkpt>
      <trkpt lat="43.20836" lon="2.36299">
        <ele>121.4</ele>
        <time>2019-06-30T08:01:40.000Z</time>
      </trkpt>
      <trkpt lat="43.20836" lon="2.36299">
        <ele>121.4</ele>
        <time>2019-06-30T08:01:41.000Z</time>
      </trkpt>
      <trkpt lat="43.20836" lon="2.36299">
        <ele>121.3</ele>
        <time>2019-06-30T08:01:42.000Z</time>
      </trkpt>
      <trkpt lat="43.20836" lon="2.36298">
        <ele>121.2</ele>
        <time>2019-06-30T08:01:43.000Z</time>
      </trkpt>
      <trkpt lat="43.20837" lon="2.36298">
        <ele>121</ele>
        <time>2019-06-30T08:01:44.000Z</time>
      </trkpt>
      <trkpt lat="43.20837" lon="2.36296">
        <ele>120.7</ele>
        <time>2019-06-30T08:01:45.000Z</time>
      </trkpt>
      <trkpt lat="43.20838" lon="2.36295">
        <ele>120.4</ele>
        <time>2019-06-30T08:01:46.000Z</time>
      </trkpt>
      <trkpt lat="43.20839" lon="2.36294">
        <ele>120.1</ele>
        <time>2019-06-30T08:01:47.000Z</time>
      </trkpt>
      <trkpt lat="43.20839" lon="2.36293">
        <ele>119.8</ele>
        <time>2019-06-30T08:01:48.000Z</time>
      </trkpt>
      <trkpt lat="43.2084" lon="2.36291">
        <ele>119.5</ele>
        <time>2019-06-30T08:01:49.000Z</time>
      </trkpt>
      <trkpt lat="43.2084" lon="2.3629">
        <ele>119.2</ele>
        <time>2019-06-30T08:01:50.000Z</time>
      </trkpt>
      <trkpt lat="43.20841" lon="2.36289">
        <ele>118.9</ele>
        <time>2019-06-30T08:01:51.000Z</time>
      </trkpt>
      <trkpt lat="43.20842" lon="2.36288">
        <ele>118.6</ele>
        <time>2019-06-30T08:01:52.000Z</time>
      </trkpt>
      <trkpt lat="43.20843" lon="2.36287">
        <ele>118.3</ele>
        <time>2019-06-30T08:01:53.000Z</time>
      </trkpt>
      <trkpt lat="43.20843" lon="2.36285">
        <ele>118</ele>
        <time>2019-06-30T08:01:54.000Z</time>
      </trkpt>
      <trkpt lat="43.20844" lon="2.36284">
        <ele>117.6</ele>
        <time>2019-06-30T08:01:55.000Z</time>
      </trkpt>
      <trkpt lat="43.20845" lon="2.36282">
        <ele>117.2</ele>
        <time>2019-06-30T08:01:56.000Z</time>
      </trkpt>
      <trkpt lat="43.20847" lon="2.36281">
        <ele>116.8</ele>
        <time>2019-06-30T08:01:57.000Z</time>
      </trkpt>
      <trkpt lat="43.20848" lon="2.36279">
        <ele>116.4</ele>
        <time>2019-06-30T08:01:58.000Z</time>
      </trkpt>
      <trkpt lat="43.20849" lon="2.36277">
        <ele>116</ele>
        <time>2019-06-30T08:01:59.000Z</time>
      </trkpt>
      <trkpt lat="43.20851" lon="2.36275">
        <ele>115.5</ele>
        <time>2019-06-30T08:02:00.000Z</time>
      </trkpt>
      <trkpt lat="43.20852" lon="2.36273">
        <ele>115</ele>
        <time>2019-06-30T08:02:01.000Z</time>
      </trkpt>
      <trkpt lat="43.20854" lon="2.36271">
        <ele>114.5</ele>
        <time>2019-06-30T08:02:02.000Z</time>
      </trkpt>
      <trkpt lat="43.20856" lon="2.36269">
        <ele>114.1</ele>
        <time>2019-06-30T08:02:03.000Z</time>
      </trkpt>
      <trkpt lat="43.20857" lon="2.36267">
        <ele>113.6</ele>
        <time>2019-06-30T08:02:04.000Z</time>
      </trkpt>
      <trkpt lat="43.20859" lon="2.36265">
        <ele>113.1</ele>
        <time>2019-06-30T08:02:05.000Z</time>
      </trkpt>
      <trkpt lat="43.20861" lon="2.36263">
        <ele>112.7</ele>
        <time>2019-06-30T08:02:06.000Z</time>
      </trkpt>
      <trkpt lat="43.20863" lon="2.36261">
        <ele>112.2</ele>
        <time>2019-06-30T08:02:07.000Z</time>
      </trkpt>
      <trkpt lat="43.20864" lon="2.36259">
        <ele>111.8</ele>
        <time>2019-06-30T08:02:08.000Z</time>
      </trkpt>
      <trkpt lat="43.20866" lon="2.36257">
        <ele>111.5</ele>
        <time>2019-06-30T08:02:09.000Z</time>
      </trkpt>
      <trkpt lat="43.20868" lon="2.36256">
        <ele>111.2</ele>
        <time>2019-06-30T08:02:10.000Z</time>
      </trkpt>
      <trkpt lat="43.2087" lon="2.36255">
        <ele>110.9</ele>
        <time>2019-06-30T08:02:11.000Z</time>
      </trkpt>
      <trkpt lat="43.20872" lon="2.36255">
        <ele>110.8</ele>
        <time>2019-06-30T08:02:12.000Z</time>
      </trkpt>
      <trkpt lat="43.20875" lon="2.36256">
        <ele>110.6</ele>
        <time>2019-06-30T08:02:13.000Z</time>
      </trkpt>
      <trkpt lat="43.20877" lon="2.36257">
        <ele>110.5</ele>
        <time>2019-06-30T08:02:14.000Z</time>
      </trkpt>
      <trkpt lat="43.2088" lon="2.36258">
        <ele>110.4</ele>
        <time>2019-06-30T08:02:15.000Z</time>
      </trkpt>
      <trkpt lat="43.20882" lon="2.3626">
        <ele>110.3</ele>
        <time>2019-06-30T08:02:16.000Z</time>
      </trkpt>
      <trkpt lat="43.20884" lon="2.36261">
        <ele>110.3</ele>
        <time>2019-06-30T08:02:17.000Z</time>
      </trkpt>
      <trkpt lat="43.20886" lon="2.36262">
        <ele>110.2</ele>
        <time>2019-06-30T08:02:18.000Z</time>
      </trkpt>
      <trkpt lat="43.20887" lon="2.36263">
        <ele>110.1</ele>
        <time>2019-06-30T08:02:19.000Z</time>
      </trkpt>
      <trkpt lat="43.20889" lon="2.36264">
        <ele>110</ele>
        <time>2019-06-30T08:02:20.000Z</time>
      </trkpt>
      <trkpt lat="43.20891" lon="2.36265">
        <ele>109.9</ele>
        <time>2019-06-30T08:02:21.000Z</time>
      </trkpt>
      <trkpt lat="43.20893" lon="2.36266">
        <ele>109.8</ele>
        <time>2019-06-30T08:02:22.000Z</time>
      </trkpt>
      <trkpt lat="43.20894" lon="2.36267">
        <ele>109.7</ele>
        <time>2019-06-30T08:02:23.000Z</time>
      </trkpt>
      <trkpt lat="43.20896" lon="2.36268">
        <ele>109.6</ele>
        <time>2019-06-30T08:02:24.000Z</time>
      </trkpt>
      <trkpt lat="43.20898" lon="2.36269">
        <ele>109.4</ele>
        <time>2019-06-30T08:02:25.000Z</time>
      </trkpt>
      <trkpt lat="43.209" lon="2.3627">
        <ele>109.3</ele>
        <time>2019-06-30T08:02:26.000Z</time>
      </trkpt>
      <trkpt lat="43.20902" lon="2.3627">
        <ele>109.1</ele>
        <time>2019-06-30T08:02:27.000Z</time>
      </trkpt>
      <trkpt lat="43.20904" lon="2.3627">
        <ele>108.9</ele>
        <time>2019-06-30T08:02:28.000Z</time>
      </trkpt>
      <trkpt lat="43.20906" lon="2.36269">
        <ele>108.6</ele>
        <time>2019-06-30T08:02:29.000Z</time>
      </trkpt>
      <trkpt lat="43.20907" lon="2.36267">
        <ele>108.4</ele>
        <time>2019-06-30T08:02:30.000Z</time>
      </trkpt>
      <trkpt lat="43.20908" lon="2.36264">
        <ele>108.2</ele>
        <time>2019-06-30T08:02:31.000Z</time>
      </trkpt>
      <trkpt lat="43.20909" lon="2.36261">
        <ele>108</ele>
        <time>2019-06-30T08:02:32.000Z</time>
      </trkpt>
      <trkpt lat="43.20909" lon="2.36258">
        <ele>107.8</ele>
        <time>2019-06-30T08:02:33.000Z</time>
      </trkpt>
      <trkpt lat="43.2091" lon="2.36254">
        <ele>107.6</ele>
        <time>2019-06-30T08:02:34.000Z</time>
      </trkpt>
      <trkpt lat="43.2091" lon="2.3625">
        <ele>107.5</ele>
        <time>2019-06-30T08:02:35.000Z</time>
      </trkpt>
      <trkpt lat="43.2091" lon="2.36246">
        <ele>107.4</ele>
        <time>2019-06-30T08:02:36.000Z</time>
      </trkpt>
      <trkpt lat="43.2091" lon="2.36243">
        <ele>107.4</ele>
        <time>2019-06-30T08:02:37.000Z</time>
      </trkpt>
      <trkpt lat="43.20911" lon="2.36239">
        <ele>107.4</ele>
        <time>2019-06-30T08:02:38.000Z</time>
      </trkpt>
      <trkpt lat="43.20911" lon="2.36236">
        <ele>107.4</ele>
        <time>2019-06-30T08:02:39.000Z</time>
      </trkpt>
      <trkpt lat="43.20911" lon="2.36233">
        <ele>107.4</ele>
        <time>2019-06-30T08:02:40.000Z</time>
      </trkpt>
      <trkpt lat="43.20911" lon="2.3623">
        <ele>107.3</ele>
        <time>2019-06-30T08:02:41.000Z</time>
      </trkpt>
      <trkpt lat="43.20911" lon="2.36227">
        <ele>107.3</ele>
        <time>2019-06-30T08:02:42.000Z</time>
      </trkpt>
      <trkpt lat="43.20911" lon="2.36225">
        <ele>107.3</ele>
        <time>2019-06-30T08:02:43.000Z</time>
      </trkpt>
      <trkpt lat="43.20912" lon="2.36223">
        <ele>107.3</ele>
        <time>2019-06-30T08:02:44.000Z</time>
      </trkpt>
      <trkpt lat="43.20912" lon="2.36221">
        <ele>107.3</ele>
        <time>2019-06-30T08:02:45.000Z</time>
      </trkpt>
      <trkpt lat="43.20912" lon="2.36219">
        <ele>107.2</ele>
        <time>2019-06-30T08:02:46.000Z</time>
      </trkpt>
      <trkpt lat="43.20913" lon="2.36217">
        <ele>107.2</ele>
        <time>2019-06-30T08:02:47.000Z</time>
      </trkpt>
      <trkpt lat="43.20913" lon="2.36215">
        <ele>107.2</ele>
        <time>2019-06-30T08:02:48.000Z</time>
      </trkpt>
      <trkpt lat="43.20914" lon="2.36213">
        <ele>107.2</ele>
        <time>2019-06-30T08:02:49.000Z</time>
      </trkpt>
      <trkpt lat="43.20914" lon="2.36211">
        <ele>107.1</ele>
        <time>2019-06-30T08:02:50.000Z</time>
      </trkpt>
      <trkpt lat="43.20914" lon="2.36209">
        <ele>107.1</ele>
        <time>2019-06-30T08:02:51.000Z</time>
      </trkpt>
      <trkpt lat="43.20914" lon="2.36207">
        <ele>107.1</ele>
        <time>2019-06-30T08:02:52.000Z</time>
      </trkpt>
      <trkpt lat="43.20914" lon="2.36204">
        <ele>107.1</ele>
        <time>2019-06-30T08:02:53.000Z</time>
      </trkpt>
      <trkpt lat="43.20914" lon="2.36202">
        <ele>107.1</ele>
        <time>2019-06-30T08:02:54.000Z</time>
      </trkpt>
      <trkpt lat="43.20914" lon="2.36199">
        <ele>107.1</ele>
        <time>2019-06-30T08:02:55.000Z</time>
      </trkpt>
      <trkpt lat="43.20914" lon="2.36197">
        <ele>107.1</ele>
        <time>2019-06-30T08:02:56.000Z</time>
      </trkpt>
      <trkpt lat="43.20914" lon="2.36194">
        <ele>107.1</ele>
        <time>2019-06-30T08:02:57.000Z</time>
      </trkpt>
      <trkpt lat="43.20913" lon="2.36191">
        <ele>107.1</ele>
        <time>2019-06-30T08:02:58.000Z</time>
      </trkpt>
      <trkpt lat="43.20913" lon="2.36189">
        <ele>107.1</ele>
        <time>2019-06-30T08:02:59.000Z</time>
      </trkpt>
      <trkpt lat="43.20914" lon="2.36186">
        <ele>107.1</ele>
        <time>2019-06-30T08:03:00.000Z</time>
      </trkpt>
      <trkpt lat="43.20914" lon="2.36183">
        <ele>107.1</ele>
        <time>2019-06-30T08:03:01.000Z</time>
      </trkpt>
      <trkpt lat="43.20914" lon="2.3618">
        <ele>107.1</ele>
        <time>2019-06-30T08:03:02.000Z</time>
      </trkpt>
      <trkpt lat="43.20915" lon="2.36177">
        <ele>107.1</ele>
        <time>2019-06-30T08:03:03.000Z</time>
      </trkpt>
      <trkpt lat="43.20915" lon="2.36174">
        <ele>107</ele>
        <time>2019-06-30T08:03:04.000Z</time>
      </trkpt>
      <trkpt lat="43.20916" lon="2.36171">
        <ele>107</ele>
        <time>2019-06-30T08:03:05.000Z</time>
      </trkpt>
      <trkpt lat="43.20918" lon="2.36168">
        <ele>107</ele>
        <time>2019-06-30T08:03:06.000Z</time>
      </trkpt>
      <trkpt lat="43.20919" lon="2.36165">
        <ele>107</ele>
        <time>2019-06-30T08:03:07.000Z</time>
      </trkpt>
      <trkpt lat="43.2092" lon="2.36162">
        <ele>106.9</ele>
        <time>2019-06-30T08:03:08.000Z</time>
      </trkpt>
      <trkpt lat="43.20922" lon="2.3616">
        <ele>106.9</ele>
        <time>2019-06-30T08:03:09.000Z</time>
      </trkpt>
      <trkpt lat="43.20923" lon="2.36157">
        <ele>106.9</ele>
        <time>2019-06-30T08:03:10.000Z</time>
      </trkpt>
      <trkpt lat="43.20925" lon="2.36154">
        <ele>106.8</ele>
        <time>2019-06-30T08:03:11.000Z</time>
      </trkpt>
      <trkpt lat="43.20927" lon="2.36151">
        <ele>106.8</ele>
        <time>2019-06-30T08:03:12.000Z</time>
      </trkpt>
      <trkpt lat="43.20928" lon="2.36148">
        <ele>106.7</ele>
        <time>2019-06-30T08:03:13.000Z</time>
      </trkpt>
      <trkpt lat="43.2093" lon="2.36145">
        <ele>106.7</ele>
        <time>2019-06-30T08:03:14.000Z</time>
      </trkpt>
      <trkpt lat="43.20931" lon="2.36142">
        <ele>106.7</ele>
        <time>2019-06-30T08:03:15.000Z</time>
      </trkpt>
      <trkpt lat="43.20933" lon="2.3614">
        <ele>106.6</ele>
        <time>2019-06-30T08:03:16.000Z</time>
      </trkpt>
      <trkpt lat="43.20935" lon="2.36137">
        <ele>106.6</ele>
        <time>2019-06-30T08:03:17.000Z</time>
      </trkpt>
      <trkpt lat="43.20937" lon="2.36135">
        <ele>106.5</ele>
        <time>2019-06-30T08:03:18.000Z</time>
      </trkpt>
      <trkpt lat="43.20939" lon="2.36133">
        <ele>106.5</ele>
        <time>2019-06-30T08:03:19.000Z</time>
      </trkpt>
      <trkpt lat="43.20941" lon="2.36131">
        <ele>106.4</ele>
        <time>2019-06-30T08:03:20.000Z</time>
      </trkpt>
      <trkpt lat="43.20944" lon="2.3613">
        <ele>106.4</ele>
        <time>2019-06-30T08:03:21.000Z</time>
      </trkpt>
      <trkpt lat="43.20946" lon="2.36128">
        <ele>106.4</ele>
        <time>2019-06-30T08:03:22.000Z</time>
      </trkpt>
      <trkpt lat="43.20948" lon="2.36127">
        <ele>106.3</ele>
        <time>2019-06-30T08:03:23.000Z</time>
      </trkpt>
      <trkpt lat="43.20951" lon="2.36125">
        <ele>106.3</ele>
        <time>2019-06-30T08:03:24.000Z</time>
      </trkpt>
      <trkpt lat="43.20953" lon="2.36124">
        <ele>106.3</ele>
        <time>2019-06-30T08:03:25.000Z</time>
      </trkpt>
      <trkpt lat="43.20955" lon="2.36122">
        <ele>106.2</ele>
        <time>2019-06-30T08:03:26.000Z</time>
      </trkpt>
      <trkpt lat="43.20957" lon="2.3612">
        <ele>106.2</ele>
        <time>2019-06-30T08:03:27.000Z</time>
      </trkpt>
      <trkpt lat="43.20959" lon="2.36119">
        <ele>106.1</ele>
        <time>2019-06-30T08:03:28.000Z</time>
      </trkpt>
      <trkpt lat="43.20961" lon="2.36117">
        <ele>106.1</ele>
        <time>2019-06-30T08:03:29.000Z</time>
      </trkpt>
      <trkpt lat="43.20963" lon="2.36115">
        <ele>106</ele>
        <time>2019-06-30T08:03:30.000Z</time>
      </trkpt>
      <trkpt lat="43.20965" lon="2.36113">
        <ele>106</ele>
        <time>2019-06-30T08:03:31.000Z</time>
      </trkpt>
      <trkpt lat="43.20967" lon="2.36112">
        <ele>105.9</ele>
        <time>2019-06-30T08:03:32.000Z</time>
      </trkpt>
      <trkpt lat="43.20969" lon="2.3611">
        <ele>105.9</ele>
        <time>2019-06-30T08:03:33.000Z</time>
      </trkpt>
      <trkpt lat="43.20971" lon="2.36108">
        <ele>105.8</ele>
        <time>2019-06-30T08:03:34.000Z</time>
      </trkpt>
      <trkpt lat="43.20973" lon="2.36107">
        <ele>105.8</ele>
        <time>2019-06-30T08:03:35.000Z</time>
      </trkpt>
      <trkpt lat="43.20975" lon="2.36105">
        <ele>105.7</ele>
        <time>2019-06-30T08:03:36.000Z</time>
      </trkpt>
      <trkpt lat="43.20977" lon="2.36104">
        <ele>105.7</ele>
        <time>2019-06-30T08:03:37.000Z</time>
      </trkpt>
      <trkpt lat="43.20979" lon="2.36102">
        <ele>105.6</ele>
        <time>2019-06-30T08:03:38.000Z</time>
      </trkpt>
      <trkpt lat="43.20981" lon="2.36101">
        <ele>105.6</ele>
        <time>2019-06-30T08:03:39.000Z</time>
      </trkpt>
      <trkpt lat="43.20983" lon="2.36099">
        <ele>105.5</ele>
        <time>2019-06-30T08:03:40.000Z</time>
      </trkpt>
      <trkpt lat="43.20985" lon="2.36098">
        <ele>105.5</ele>
        <time>2019-06-30T08:03:41.000Z</time>
      </trkpt>
      <trkpt lat="43.20986" lon="2.36096">
        <ele>105.4</ele>
        <time>2019-06-30T08:03:42.000Z</time>
      </trkpt>
      <trkpt lat="43.20988" lon="2.36094">
        <ele>105.4</ele>
        <time>2019-06-30T08:03:43.000Z</time>
      </trkpt>
      <trkpt lat="43.2099" lon="2.36093">
        <ele>105.3</ele>
        <time>2019-06-30T08:03:44.000Z</time>
      </trkpt>
      <trkpt lat="43.20992" lon="2.36091">
        <ele>105.3</ele>
        <time>2019-06-30T08:03:45.000Z</time>
      </trkpt>
      <trkpt lat="43.20993" lon="2.36089">
        <ele>105.2</ele>
        <time>2019-06-30T08:03:46.000Z</time>
      </trkpt>
      <trkpt lat="43.20995" lon="2.36087">
        <ele>105.2</ele>
        <time>2019-06-30T08:03:47.000Z</time>
      </trkpt>
      <trkpt lat="43.20996" lon="2.36085">
        <ele>105.1</ele>
        <time>2019-06-30T08:03:48.000Z</time>
      </trkpt>
      <trkpt lat="43.20998" lon="2.36083">
        <ele>105</ele>
        <time>2019-06-30T08:03:49.000Z</time>
      </trkpt>
      <trkpt lat="43.20999" lon="2.36081">
        <ele>105</ele>
        <time>2019-06-30T08:03:50.000Z</time>
      </trkpt>
      <trkpt lat="43.21001" lon="2.36079">
        <ele>104.9</ele>
        <time>2019-06-30T08:03:51.000Z</time>
      </trkpt>
      <trkpt lat="43.21002" lon="2.36076">
        <ele>104.8</ele>
        <time>2019-06-30T08:03:52.000Z</time>
      </trkpt>
      <trkpt lat="43.21003" lon="2.36074">
        <ele>104.7</ele>
        <time>2019-06-30T08:03:53.000Z</time>
      </trkpt>
      <trkpt lat="43.21004" lon="2.36072">
        <ele>104.7</ele>
        <time>2019-06-30T08:03:54.000Z</time>
      </trkpt>
      <trkpt lat="43.21006" lon="2.3607">
        <ele>104.6</ele>
        <time>2019-06-30T08:03:55.000Z</time>
      </trkpt>
      <trkpt lat="43.21007" lon="2.36068">
        <ele>104.5</ele>
        <time>2019-06-30T08:03:56.000Z</time>
      </trkpt>
      <trkpt lat="43.21008" lon="2.36067">
        <ele>104.5</ele>
        <time>2019-06-30T08:03:57.000Z</time>
      </trkpt>
      <trkpt lat="43.2101" lon="2.36065">
        <ele>104.4</ele>
        <time>2019-06-30T08:03:58.000Z</time>
      </trkpt>
      <trkpt lat="43.21011" lon="2.36064">
        <ele>104.4</ele>
        <time>2019-06-30T08:03:59.000Z</time>
      </trkpt>
      <trkpt lat="43.21012" lon="2.36063">
        <ele>104.3</ele>
        <time>2019-06-30T08:04:00.000Z</time>
      </trkpt>
    </trkseg>
  </trk>
</gpx>